<?xml version='1.0' encoding='UTF-8'?><gpx version="1.1" creator="JPX - https://github.com/jenetics/jpx" xmlns="http://www.topografix.com/GPX/1/1"><trk><trkseg><trkpt lat="45.5070867" lon="11.0934617"><ele>566.75</ele><time>2026-04-22T07:41:57.338Z</time></trkpt><trkpt lat="45.5069633" lon="11.0935833"><ele>562.5</ele><time>2026-04-22T07:41:59.338Z</time></trkpt><trkpt lat="45.50687" lon="11.0936717"><ele>558.25</ele><time>2026-04-22T07:42:00.338Z</time></trkpt><trkpt lat="45.5067633" lon="11.093745"><ele>554.0</ele><time>2026-04-22T07:42:01.338Z</time></trkpt><trkpt lat="45.5066617" lon="11.0938083"><ele>554.0</ele><time>2026-04-22T07:42:02.339Z</time></trkpt><trkpt lat="45.506555" lon="11.0938417"><ele>554.0</ele><time>2026-04-22T07:42:03.338Z</time></trkpt><trkpt lat="45.5064483" lon="11.0938567"><ele>554.0</ele><time>2026-04-22T07:42:04.338Z</time></trkpt><trkpt lat="45.5063367" lon="11.0938683"><ele>554.0</ele><time>2026-04-22T07:42:05.339Z</time></trkpt><trkpt lat="45.5062367" lon="11.093915"><ele>554.0</ele><time>2026-04-22T07:42:06.338Z</time></trkpt><trkpt lat="45.5061517" lon="11.09401"><ele>554.4</ele><time>2026-04-22T07:42:07.338Z</time></trkpt><trkpt lat="45.506075" lon="11.0941117"><ele>554.8</ele><time>2026-04-22T07:42:08.339Z</time></trkpt><trkpt lat="45.506" lon="11.0941867"><ele>555.2</ele><time>2026-04-22T07:42:09.339Z</time></trkpt><trkpt lat="45.5059133" lon="11.0942333"><ele>555.6</ele><time>2026-04-22T07:42:10.338Z</time></trkpt><trkpt lat="45.5058117" lon="11.0942433"><ele>556.0</ele><time>2026-04-22T07:42:11.339Z</time></trkpt><trkpt lat="45.5057117" lon="11.0942217"><ele>556.0</ele><time>2026-04-22T07:42:12.338Z</time></trkpt><trkpt lat="45.5056117" lon="11.0942033"><ele>556.0</ele><time>2026-04-22T07:42:13.338Z</time></trkpt><trkpt lat="45.50551" lon="11.0941817"><ele>556.0</ele><time>2026-04-22T07:42:14.338Z</time></trkpt><trkpt lat="45.505405" lon="11.0941717"><ele>556.0</ele><time>2026-04-22T07:42:15.338Z</time></trkpt><trkpt lat="45.505295" lon="11.0941667"><ele>556.0</ele><time>2026-04-22T07:42:16.338Z</time></trkpt><trkpt lat="45.505185" lon="11.094165"><ele>555.8</ele><time>2026-04-22T07:42:17.338Z</time></trkpt><trkpt lat="45.50507" lon="11.09415"><ele>555.6</ele><time>2026-04-22T07:42:18.339Z</time></trkpt><trkpt lat="45.5049617" lon="11.0941433"><ele>555.4</ele><time>2026-04-22T07:42:19.338Z</time></trkpt><trkpt lat="45.5048567" lon="11.0941383"><ele>555.2</ele><time>2026-04-22T07:42:20.338Z</time></trkpt><trkpt lat="45.50475" lon="11.0941317"><ele>555.0</ele><time>2026-04-22T07:42:21.338Z</time></trkpt><trkpt lat="45.50464" lon="11.094125"><ele>554.2</ele><time>2026-04-22T07:42:22.338Z</time></trkpt><trkpt lat="45.50454" lon="11.0940983"><ele>553.4</ele><time>2026-04-22T07:42:23.339Z</time></trkpt><trkpt lat="45.50447" lon="11.0940467"><ele>552.6</ele><time>2026-04-22T07:42:24.338Z</time></trkpt><trkpt lat="45.5044367" lon="11.093955"><ele>551.8</ele><time>2026-04-22T07:42:25.338Z</time></trkpt><trkpt lat="45.5044333" lon="11.093815"><ele>551.0</ele><time>2026-04-22T07:42:26.338Z</time></trkpt><trkpt lat="45.5044233" lon="11.093645"><ele>551.0</ele><time>2026-04-22T07:42:27.338Z</time></trkpt><trkpt lat="45.5044133" lon="11.0934333"><ele>551.0</ele><time>2026-04-22T07:42:28.338Z</time></trkpt><trkpt lat="45.5044067" lon="11.093235"><ele>551.0</ele><time>2026-04-22T07:42:29.338Z</time></trkpt><trkpt lat="45.5044117" lon="11.0930317"><ele>551.0</ele><time>2026-04-22T07:42:30.339Z</time></trkpt><trkpt lat="45.50442" lon="11.0928283"><ele>549.5</ele><time>2026-04-22T07:42:31.338Z</time></trkpt><trkpt lat="45.50442" lon="11.0926217"><ele>548.0</ele><time>2026-04-22T07:42:32.338Z</time></trkpt><trkpt lat="45.5044367" lon="11.0924067"><ele>546.5</ele><time>2026-04-22T07:42:33.338Z</time></trkpt><trkpt lat="45.5044733" lon="11.0922083"><ele>545.0</ele><time>2026-04-22T07:42:34.338Z</time></trkpt><trkpt lat="45.5045267" lon="11.092015"><ele>543.75</ele><time>2026-04-22T07:42:35.339Z</time></trkpt><trkpt lat="45.5045733" lon="11.0918333"><ele>542.5</ele><time>2026-04-22T07:42:36.338Z</time></trkpt><trkpt lat="45.5046133" lon="11.0916483"><ele>541.25</ele><time>2026-04-22T07:42:37.338Z</time></trkpt><trkpt lat="45.50466" lon="11.0914617"><ele>540.0</ele><time>2026-04-22T07:42:38.338Z</time></trkpt><trkpt lat="45.5047017" lon="11.0912767"><ele>539.0</ele><time>2026-04-22T07:42:39.338Z</time></trkpt><trkpt lat="45.5047483" lon="11.09109"><ele>538.0</ele><time>2026-04-22T07:42:40.338Z</time></trkpt><trkpt lat="45.5048" lon="11.09091"><ele>537.0</ele><time>2026-04-22T07:42:41.338Z</time></trkpt><trkpt lat="45.5048517" lon="11.0907367"><ele>536.0</ele><time>2026-04-22T07:42:42.338Z</time></trkpt><trkpt lat="45.5048917" lon="11.0905733"><ele>534.6</ele><time>2026-04-22T07:42:43.338Z</time></trkpt><trkpt lat="45.50492" lon="11.090415"><ele>533.2</ele><time>2026-04-22T07:42:44.338Z</time></trkpt><trkpt lat="45.504935" lon="11.0902583"><ele>531.8</ele><time>2026-04-22T07:42:45.338Z</time></trkpt><trkpt lat="45.5049367" lon="11.0900983"><ele>530.4</ele><time>2026-04-22T07:42:46.339Z</time></trkpt><trkpt lat="45.5049217" lon="11.0899583"><ele>529.0</ele><time>2026-04-22T07:42:47.338Z</time></trkpt><trkpt lat="45.5048933" lon="11.0898333"><ele>527.1666666666667</ele><time>2026-04-22T07:42:48.339Z</time></trkpt><trkpt lat="45.504855" lon="11.0897333"><ele>525.3333333333334</ele><time>2026-04-22T07:42:49.338Z</time></trkpt><trkpt lat="45.50481" lon="11.0896517"><ele>523.5</ele><time>2026-04-22T07:42:50.338Z</time></trkpt><trkpt lat="45.50472" lon="11.089585"><ele>521.6666666666666</ele><time>2026-04-22T07:42:51.338Z</time></trkpt><trkpt lat="45.50463" lon="11.089525"><ele>519.8333333333333</ele><time>2026-04-22T07:42:52.339Z</time></trkpt><trkpt lat="45.5045583" lon="11.08947"><ele>518.0</ele><time>2026-04-22T07:42:53.338Z</time></trkpt><trkpt lat="45.5045017" lon="11.0894283"><ele>517.0</ele><time>2026-04-22T07:42:54.338Z</time></trkpt><trkpt lat="45.5044767" lon="11.089245"><ele>516.0</ele><time>2026-04-22T07:42:56.338Z</time></trkpt><trkpt lat="45.504495" lon="11.08911"><ele>515.0</ele><time>2026-04-22T07:42:57.339Z</time></trkpt><trkpt lat="45.5045133" lon="11.0889833"><ele>514.0</ele><time>2026-04-22T07:42:58.338Z</time></trkpt><trkpt lat="45.5045433" lon="11.0888717"><ele>513.0</ele><time>2026-04-22T07:42:59.339Z</time></trkpt><trkpt lat="45.5045817" lon="11.08878"><ele>510.8333333333333</ele><time>2026-04-22T07:43:00.338Z</time></trkpt><trkpt lat="45.5046383" lon="11.0886967"><ele>508.66666666666663</ele><time>2026-04-22T07:43:01.338Z</time></trkpt><trkpt lat="45.5047033" lon="11.088635"><ele>506.5</ele><time>2026-04-22T07:43:02.338Z</time></trkpt><trkpt lat="45.5047783" lon="11.0886033"><ele>504.3333333333333</ele><time>2026-04-22T07:43:03.338Z</time></trkpt><trkpt lat="45.5048717" lon="11.0885867"><ele>502.16666666666663</ele><time>2026-04-22T07:43:05.338Z</time></trkpt><trkpt lat="45.50487" lon="11.0884383"><ele>500.0</ele><time>2026-04-22T07:43:08.339Z</time></trkpt><trkpt lat="45.5048183" lon="11.08834"><ele>497.5</ele><time>2026-04-22T07:43:09.338Z</time></trkpt><trkpt lat="45.5047533" lon="11.08823"><ele>495.0</ele><time>2026-04-22T07:43:10.338Z</time></trkpt><trkpt lat="45.504675" lon="11.0880883"><ele>492.5</ele><time>2026-04-22T07:43:11.339Z</time></trkpt><trkpt lat="45.5046033" lon="11.0879483"><ele>490.0</ele><time>2026-04-22T07:43:12.338Z</time></trkpt><trkpt lat="45.50454" lon="11.0878183"><ele>490.0</ele><time>2026-04-22T07:43:13.338Z</time></trkpt><trkpt lat="45.5044883" lon="11.087685"><ele>490.0</ele><time>2026-04-22T07:43:14.339Z</time></trkpt><trkpt lat="45.5044433" lon="11.0875533"><ele>490.0</ele><time>2026-04-22T07:43:15.338Z</time></trkpt><trkpt lat="45.504415" lon="11.08742"><ele>490.0</ele><time>2026-04-22T07:43:16.338Z</time></trkpt><trkpt lat="45.5043917" lon="11.087285"><ele>490.0</ele><time>2026-04-22T07:43:17.338Z</time></trkpt><trkpt lat="45.50437" lon="11.0871433"><ele>486.6</ele><time>2026-04-22T07:43:18.338Z</time></trkpt><trkpt lat="45.5043617" lon="11.0870117"><ele>483.2</ele><time>2026-04-22T07:43:19.338Z</time></trkpt><trkpt lat="45.504375" lon="11.0868733"><ele>479.79999999999995</ele><time>2026-04-22T07:43:20.338Z</time></trkpt><trkpt lat="45.504395" lon="11.08673"><ele>476.4</ele><time>2026-04-22T07:43:21.338Z</time></trkpt><trkpt lat="45.50442" lon="11.086595"><ele>473.0</ele><time>2026-04-22T07:43:22.338Z</time></trkpt><trkpt lat="45.5044433" lon="11.0864617"><ele>471.2</ele><time>2026-04-22T07:43:23.338Z</time></trkpt><trkpt lat="45.5044667" lon="11.0863167"><ele>469.4</ele><time>2026-04-22T07:43:24.338Z</time></trkpt><trkpt lat="45.504495" lon="11.0861533"><ele>467.59999999999997</ele><time>2026-04-22T07:43:25.338Z</time></trkpt><trkpt lat="45.504525" lon="11.086005"><ele>465.79999999999995</ele><time>2026-04-22T07:43:26.339Z</time></trkpt><trkpt lat="45.5045583" lon="11.0858617"><ele>464.0</ele><time>2026-04-22T07:43:27.338Z</time></trkpt><trkpt lat="45.5046" lon="11.0857267"><ele>462.49999999999994</ele><time>2026-04-22T07:43:28.339Z</time></trkpt><trkpt lat="45.5046467" lon="11.0856133"><ele>461.0</ele><time>2026-04-22T07:43:29.338Z</time></trkpt><trkpt lat="45.5046917" lon="11.0855217"><ele>459.5</ele><time>2026-04-22T07:43:30.339Z</time></trkpt><trkpt lat="45.5047283" lon="11.08544"><ele>458.0</ele><time>2026-04-22T07:43:31.338Z</time></trkpt><trkpt lat="45.5047467" lon="11.0853333"><ele>456.49999999999994</ele><time>2026-04-22T07:43:32.338Z</time></trkpt><trkpt lat="45.5047583" lon="11.0852067"><ele>455.0</ele><time>2026-04-22T07:43:33.338Z</time></trkpt><trkpt lat="45.5047683" lon="11.0850683"><ele>452.5</ele><time>2026-04-22T07:43:34.339Z</time></trkpt><trkpt lat="45.5047633" lon="11.0848967"><ele>450.0</ele><time>2026-04-22T07:43:35.338Z</time></trkpt><trkpt lat="45.5047517" lon="11.0847317"><ele>447.5</ele><time>2026-04-22T07:43:36.338Z</time></trkpt><trkpt lat="45.50474" lon="11.0845683"><ele>445.0</ele><time>2026-04-22T07:43:37.338Z</time></trkpt><trkpt lat="45.50473" lon="11.0843983"><ele>445.0</ele><time>2026-04-22T07:43:38.338Z</time></trkpt><trkpt lat="45.5047233" lon="11.084235"><ele>445.0</ele><time>2026-04-22T07:43:39.338Z</time></trkpt><trkpt lat="45.5047267" lon="11.0840667"><ele>445.0</ele><time>2026-04-22T07:43:40.338Z</time></trkpt><trkpt lat="45.5047467" lon="11.0838817"><ele>445.0</ele><time>2026-04-22T07:43:41.338Z</time></trkpt><trkpt lat="45.504775" lon="11.083725"><ele>444.33333333333337</ele><time>2026-04-22T07:43:42.338Z</time></trkpt><trkpt lat="45.5048183" lon="11.0835817"><ele>443.6666666666667</ele><time>2026-04-22T07:43:43.338Z</time></trkpt><trkpt lat="45.5048667" lon="11.0834633"><ele>443.0</ele><time>2026-04-22T07:43:44.339Z</time></trkpt><trkpt lat="45.5049083" lon="11.0833717"><ele>442.33333333333337</ele><time>2026-04-22T07:43:45.338Z</time></trkpt><trkpt lat="45.50495" lon="11.0833033"><ele>441.6666666666667</ele><time>2026-04-22T07:43:46.339Z</time></trkpt><trkpt lat="45.505" lon="11.0832033"><ele>441.0</ele><time>2026-04-22T07:43:48.338Z</time></trkpt><trkpt lat="45.5049617" lon="11.08306"><ele>440.0</ele><time>2026-04-22T07:43:50.337Z</time></trkpt><trkpt lat="45.5049083" lon="11.0829867"><ele>439.0</ele><time>2026-04-22T07:43:51.337Z</time></trkpt><trkpt lat="45.5048267" lon="11.0829067"><ele>438.0</ele><time>2026-04-22T07:43:52.338Z</time></trkpt><trkpt lat="45.504715" lon="11.0828217"><ele>437.0</ele><time>2026-04-22T07:43:53.337Z</time></trkpt><trkpt lat="45.5046067" lon="11.0827333"><ele>436.0</ele><time>2026-04-22T07:43:54.337Z</time></trkpt><trkpt lat="45.504495" lon="11.0826617"><ele>436.0</ele><time>2026-04-22T07:43:55.337Z</time></trkpt><trkpt lat="45.50439" lon="11.0826033"><ele>436.0</ele><time>2026-04-22T07:43:56.337Z</time></trkpt><trkpt lat="45.50429" lon="11.0825733"><ele>436.0</ele><time>2026-04-22T07:43:57.337Z</time></trkpt><trkpt lat="45.504185" lon="11.0825517"><ele>436.0</ele><time>2026-04-22T07:43:58.337Z</time></trkpt><trkpt lat="45.504075" lon="11.0825283"><ele>436.0</ele><time>2026-04-22T07:43:59.337Z</time></trkpt><trkpt lat="45.5039733" lon="11.0825017"><ele>436.00000000000006</ele><time>2026-04-22T07:44:00.337Z</time></trkpt><trkpt lat="45.50388" lon="11.0824767"><ele>436.0</ele><time>2026-04-22T07:44:01.337Z</time></trkpt><trkpt lat="45.50379" lon="11.0824383"><ele>436.0</ele><time>2026-04-22T07:44:02.337Z</time></trkpt><trkpt lat="45.5037133" lon="11.0823817"><ele>436.0</ele><time>2026-04-22T07:44:03.337Z</time></trkpt><trkpt lat="45.5036483" lon="11.0823"><ele>436.00000000000006</ele><time>2026-04-22T07:44:04.337Z</time></trkpt><trkpt lat="45.5036033" lon="11.0822017"><ele>436.0</ele><time>2026-04-22T07:44:05.337Z</time></trkpt><trkpt lat="45.5035767" lon="11.0821"><ele>432.6</ele><time>2026-04-22T07:44:06.338Z</time></trkpt><trkpt lat="45.50358" lon="11.08199"><ele>429.20000000000005</ele><time>2026-04-22T07:44:07.338Z</time></trkpt><trkpt lat="45.5035917" lon="11.0818533"><ele>425.79999999999995</ele><time>2026-04-22T07:44:08.337Z</time></trkpt><trkpt lat="45.503605" lon="11.081705"><ele>422.4</ele><time>2026-04-22T07:44:09.338Z</time></trkpt><trkpt lat="45.503605" lon="11.081565"><ele>419.0</ele><time>2026-04-22T07:44:10.337Z</time></trkpt><trkpt lat="45.5035783" lon="11.08144"><ele>417.8333333333333</ele><time>2026-04-22T07:44:11.337Z</time></trkpt><trkpt lat="45.503535" lon="11.08133"><ele>416.66666666666663</ele><time>2026-04-22T07:44:12.337Z</time></trkpt><trkpt lat="45.503475" lon="11.0812483"><ele>415.5</ele><time>2026-04-22T07:44:13.337Z</time></trkpt><trkpt lat="45.5034067" lon="11.0811867"><ele>414.33333333333337</ele><time>2026-04-22T07:44:14.337Z</time></trkpt><trkpt lat="45.50333" lon="11.0811383"><ele>413.1666666666667</ele><time>2026-04-22T07:44:15.337Z</time></trkpt><trkpt lat="45.50324" lon="11.081105"><ele>412.0</ele><time>2026-04-22T07:44:16.337Z</time></trkpt><trkpt lat="45.5031567" lon="11.0810983"><ele>412.00000000000006</ele><time>2026-04-22T07:44:17.337Z</time></trkpt><trkpt lat="45.50306" lon="11.0810967"><ele>412.0</ele><time>2026-04-22T07:44:19.337Z</time></trkpt><trkpt lat="45.5030067" lon="11.0811483"><ele>412.0</ele><time>2026-04-22T07:44:22.337Z</time></trkpt><trkpt lat="45.50295" lon="11.0812033"><ele>412.0</ele><time>2026-04-22T07:44:23.337Z</time></trkpt><trkpt lat="45.5028817" lon="11.0812867"><ele>412.00000000000006</ele><time>2026-04-22T07:44:24.337Z</time></trkpt><trkpt lat="45.50281" lon="11.081395"><ele>412.0</ele><time>2026-04-22T07:44:25.337Z</time></trkpt><trkpt lat="45.50273" lon="11.0815083"><ele>410.25</ele><time>2026-04-22T07:44:26.337Z</time></trkpt><trkpt lat="45.502645" lon="11.0816117"><ele>408.5</ele><time>2026-04-22T07:44:27.337Z</time></trkpt><trkpt lat="45.5025383" lon="11.08169"><ele>406.75</ele><time>2026-04-22T07:44:28.337Z</time></trkpt><trkpt lat="45.5024217" lon="11.0817183"><ele>405.0</ele><time>2026-04-22T07:44:29.338Z</time></trkpt><trkpt lat="45.5023017" lon="11.0817183"><ele>405.0</ele><time>2026-04-22T07:44:30.337Z</time></trkpt><trkpt lat="45.502185" lon="11.0817133"><ele>405.0</ele><time>2026-04-22T07:44:31.337Z</time></trkpt><trkpt lat="45.50207" lon="11.08174"><ele>405.0</ele><time>2026-04-22T07:44:32.337Z</time></trkpt><trkpt lat="45.5019667" lon="11.0818083"><ele>405.0</ele><time>2026-04-22T07:44:33.337Z</time></trkpt><trkpt lat="45.501885" lon="11.0819217"><ele>400.5</ele><time>2026-04-22T07:44:34.337Z</time></trkpt><trkpt lat="45.501815" lon="11.0820617"><ele>396.0</ele><time>2026-04-22T07:44:35.337Z</time></trkpt><trkpt lat="45.50175" lon="11.0822117"><ele>391.5</ele><time>2026-04-22T07:44:36.337Z</time></trkpt><trkpt lat="45.5016767" lon="11.0823383"><ele>387.0</ele><time>2026-04-22T07:44:37.338Z</time></trkpt><trkpt lat="45.5015983" lon="11.0824267"><ele>385.8</ele><time>2026-04-22T07:44:38.338Z</time></trkpt><trkpt lat="45.5015" lon="11.082505"><ele>384.6</ele><time>2026-04-22T07:44:39.337Z</time></trkpt><trkpt lat="45.5014033" lon="11.082525"><ele>383.40000000000003</ele><time>2026-04-22T07:44:40.337Z</time></trkpt><trkpt lat="45.5013" lon="11.0825017"><ele>382.20000000000005</ele><time>2026-04-22T07:44:41.337Z</time></trkpt><trkpt lat="45.5011933" lon="11.082445"><ele>381.0</ele><time>2026-04-22T07:44:42.337Z</time></trkpt><trkpt lat="45.5010933" lon="11.0823533"><ele>380.25</ele><time>2026-04-22T07:44:43.337Z</time></trkpt><trkpt lat="45.50101" lon="11.0822317"><ele>379.5</ele><time>2026-04-22T07:44:44.337Z</time></trkpt><trkpt lat="45.5009367" lon="11.082085"><ele>378.75</ele><time>2026-04-22T07:44:45.337Z</time></trkpt><trkpt lat="45.5008783" lon="11.08194"><ele>378.0</ele><time>2026-04-22T07:44:46.337Z</time></trkpt><trkpt lat="45.5008217" lon="11.0817967"><ele>378.0</ele><time>2026-04-22T07:44:47.337Z</time></trkpt><trkpt lat="45.5007733" lon="11.0816467"><ele>378.0</ele><time>2026-04-22T07:44:48.337Z</time></trkpt><trkpt lat="45.5007233" lon="11.0814867"><ele>378.0</ele><time>2026-04-22T07:44:49.337Z</time></trkpt><trkpt lat="45.5006967" lon="11.08133"><ele>378.0</ele><time>2026-04-22T07:44:50.337Z</time></trkpt><trkpt lat="45.5006867" lon="11.0811467"><ele>376.5</ele><time>2026-04-22T07:44:51.337Z</time></trkpt><trkpt lat="45.50069" lon="11.0809633"><ele>375.0</ele><time>2026-04-22T07:44:52.337Z</time></trkpt><trkpt lat="45.5006983" lon="11.0807867"><ele>373.5</ele><time>2026-04-22T07:44:53.337Z</time></trkpt><trkpt lat="45.5006983" lon="11.0806117"><ele>372.0</ele><time>2026-04-22T07:44:54.338Z</time></trkpt><trkpt lat="45.50068" lon="11.0804483"><ele>370.5</ele><time>2026-04-22T07:44:55.337Z</time></trkpt><trkpt lat="45.500645" lon="11.0802833"><ele>369.0</ele><time>2026-04-22T07:44:56.337Z</time></trkpt><trkpt lat="45.5005967" lon="11.080115"><ele>367.5</ele><time>2026-04-22T07:44:57.337Z</time></trkpt><trkpt lat="45.500535" lon="11.0799533"><ele>366.0</ele><time>2026-04-22T07:44:58.337Z</time></trkpt><trkpt lat="45.500485" lon="11.0797817"><ele>364.25</ele><time>2026-04-22T07:44:59.337Z</time></trkpt><trkpt lat="45.5004317" lon="11.0796067"><ele>362.5</ele><time>2026-04-22T07:45:00.337Z</time></trkpt><trkpt lat="45.5003783" lon="11.079435"><ele>360.75</ele><time>2026-04-22T07:45:01.337Z</time></trkpt><trkpt lat="45.5003317" lon="11.07926"><ele>359.0</ele><time>2026-04-22T07:45:02.337Z</time></trkpt><trkpt lat="45.500295" lon="11.0790883"><ele>358.5</ele><time>2026-04-22T07:45:03.338Z</time></trkpt><trkpt lat="45.500255" lon="11.0789267"><ele>358.0</ele><time>2026-04-22T07:45:04.337Z</time></trkpt><trkpt lat="45.5002233" lon="11.0787667"><ele>357.5</ele><time>2026-04-22T07:45:05.337Z</time></trkpt><trkpt lat="45.5001867" lon="11.0786"><ele>357.0</ele><time>2026-04-22T07:45:06.337Z</time></trkpt><trkpt lat="45.5001517" lon="11.0784417"><ele>357.0</ele><time>2026-04-22T07:45:07.337Z</time></trkpt><trkpt lat="45.5001117" lon="11.078295"><ele>357.0</ele><time>2026-04-22T07:45:08.337Z</time></trkpt><trkpt lat="45.5000717" lon="11.0781483"><ele>357.0</ele><time>2026-04-22T07:45:09.337Z</time></trkpt><trkpt lat="45.5000433" lon="11.0780133"><ele>357.0</ele><time>2026-04-22T07:45:10.337Z</time></trkpt><trkpt lat="45.5000167" lon="11.0778917"><ele>357.0</ele><time>2026-04-22T07:45:11.337Z</time></trkpt><trkpt lat="45.49999" lon="11.07779"><ele>356.75</ele><time>2026-04-22T07:45:12.337Z</time></trkpt><trkpt lat="45.49998" lon="11.07766"><ele>356.5</ele><time>2026-04-22T07:45:14.338Z</time></trkpt><trkpt lat="45.4999733" lon="11.0773783"><ele>356.25</ele><time>2026-04-22T07:54:51.336Z</time></trkpt><trkpt lat="45.4999633" lon="11.0771983"><ele>356.0</ele><time>2026-04-22T07:54:52.335Z</time></trkpt><trkpt lat="45.499945" lon="11.076985"><ele>353.33333333333337</ele><time>2026-04-22T07:54:53.335Z</time></trkpt><trkpt lat="45.49986" lon="11.076535"><ele>350.6666666666667</ele><time>2026-04-22T07:54:55.335Z</time></trkpt><trkpt lat="45.4998417" lon="11.07637"><ele>348.0</ele><time>2026-04-22T07:54:56.335Z</time></trkpt><trkpt lat="45.4998283" lon="11.0762033"><ele>348.0</ele><time>2026-04-22T07:54:57.335Z</time></trkpt><trkpt lat="45.499815" lon="11.0760433"><ele>348.0</ele><time>2026-04-22T07:54:58.335Z</time></trkpt><trkpt lat="45.4997717" lon="11.075885"><ele>348.0</ele><time>2026-04-22T07:54:59.335Z</time></trkpt><trkpt lat="45.4997283" lon="11.0757333"><ele>348.0</ele><time>2026-04-22T07:55:00.335Z</time></trkpt><trkpt lat="45.4996867" lon="11.0755983"><ele>347.4</ele><time>2026-04-22T07:55:01.335Z</time></trkpt><trkpt lat="45.499625" lon="11.07547"><ele>346.79999999999995</ele><time>2026-04-22T07:55:02.335Z</time></trkpt><trkpt lat="45.4995517" lon="11.0753517"><ele>346.2</ele><time>2026-04-22T07:55:03.335Z</time></trkpt><trkpt lat="45.49948" lon="11.0752417"><ele>345.6</ele><time>2026-04-22T07:55:04.335Z</time></trkpt><trkpt lat="45.4994217" lon="11.0751033"><ele>345.0</ele><time>2026-04-22T07:55:05.335Z</time></trkpt><trkpt lat="45.499375" lon="11.0749517"><ele>344.4</ele><time>2026-04-22T07:55:06.335Z</time></trkpt><trkpt lat="45.499335" lon="11.074795"><ele>343.8</ele><time>2026-04-22T07:55:07.335Z</time></trkpt><trkpt lat="45.4992983" lon="11.0746483"><ele>343.20000000000005</ele><time>2026-04-22T07:55:08.335Z</time></trkpt><trkpt lat="45.4992633" lon="11.0744967"><ele>342.6</ele><time>2026-04-22T07:55:09.336Z</time></trkpt><trkpt lat="45.4992233" lon="11.074355"><ele>342.0</ele><time>2026-04-22T07:55:10.336Z</time></trkpt><trkpt lat="45.49919" lon="11.0742117"><ele>341.0</ele><time>2026-04-22T07:55:11.336Z</time></trkpt><trkpt lat="45.4991517" lon="11.0740683"><ele>340.0</ele><time>2026-04-22T07:55:12.336Z</time></trkpt><trkpt lat="45.4991167" lon="11.0739467"><ele>339.0</ele><time>2026-04-22T07:55:13.335Z</time></trkpt><trkpt lat="45.4990867" lon="11.0738217"><ele>338.0</ele><time>2026-04-22T07:55:14.335Z</time></trkpt><trkpt lat="45.4990383" lon="11.073695"><ele>337.0</ele><time>2026-04-22T07:55:15.335Z</time></trkpt><trkpt lat="45.4989733" lon="11.0735767"><ele>337.0</ele><time>2026-04-22T07:55:16.335Z</time></trkpt><trkpt lat="45.4988933" lon="11.0734767"><ele>337.0</ele><time>2026-04-22T07:55:17.336Z</time></trkpt><trkpt lat="45.498815" lon="11.0733767"><ele>337.0</ele><time>2026-04-22T07:55:18.335Z</time></trkpt><trkpt lat="45.4987133" lon="11.0732883"><ele>337.0</ele><time>2026-04-22T07:55:19.335Z</time></trkpt><trkpt lat="45.498635" lon="11.073185"><ele>337.0</ele><time>2026-04-22T07:55:20.335Z</time></trkpt><trkpt lat="45.4985567" lon="11.0730867"><ele>334.8</ele><time>2026-04-22T07:55:21.335Z</time></trkpt><trkpt lat="45.4984883" lon="11.0729967"><ele>332.6</ele><time>2026-04-22T07:55:22.335Z</time></trkpt><trkpt lat="45.49841" lon="11.0729033"><ele>330.40000000000003</ele><time>2026-04-22T07:55:23.335Z</time></trkpt><trkpt lat="45.498335" lon="11.0728017"><ele>328.20000000000005</ele><time>2026-04-22T07:55:24.335Z</time></trkpt><trkpt lat="45.498255" lon="11.0727167"><ele>326.0</ele><time>2026-04-22T07:55:25.335Z</time></trkpt><trkpt lat="45.4981867" lon="11.0726483"><ele>326.0</ele><time>2026-04-22T07:55:26.335Z</time></trkpt><trkpt lat="45.498115" lon="11.072585"><ele>326.0</ele><time>2026-04-22T07:55:27.335Z</time></trkpt><trkpt lat="45.4980467" lon="11.07253"><ele>326.0</ele><time>2026-04-22T07:55:28.335Z</time></trkpt><trkpt lat="45.4979717" lon="11.072475"><ele>326.0</ele><time>2026-04-22T07:55:29.335Z</time></trkpt><trkpt lat="45.497905" lon="11.0724117"><ele>326.0</ele><time>2026-04-22T07:55:30.336Z</time></trkpt><trkpt lat="45.49786" lon="11.07234"><ele>326.0</ele><time>2026-04-22T07:55:31.335Z</time></trkpt><trkpt lat="45.4978133" lon="11.072175"><ele>324.83333333333337</ele><time>2026-04-22T07:55:33.336Z</time></trkpt><trkpt lat="45.4978683" lon="11.072065"><ele>323.6666666666667</ele><time>2026-04-22T07:55:35.335Z</time></trkpt><trkpt lat="45.497955" lon="11.0719567"><ele>322.5</ele><time>2026-04-22T07:55:37.336Z</time></trkpt><trkpt lat="45.4980133" lon="11.0719017"><ele>321.3333333333333</ele><time>2026-04-22T07:55:38.335Z</time></trkpt><trkpt lat="45.49808" lon="11.0718583"><ele>320.16666666666663</ele><time>2026-04-22T07:55:39.335Z</time></trkpt><trkpt lat="45.4981383" lon="11.0718183"><ele>319.0</ele><time>2026-04-22T07:55:40.335Z</time></trkpt><trkpt lat="45.49822" lon="11.07179"><ele>319.0</ele><time>2026-04-22T07:55:41.335Z</time></trkpt><trkpt lat="45.4983183" lon="11.071755"><ele>319.0</ele><time>2026-04-22T07:55:42.335Z</time></trkpt><trkpt lat="45.49842" lon="11.0717117"><ele>319.0</ele><time>2026-04-22T07:55:43.335Z</time></trkpt><trkpt lat="45.4985217" lon="11.071665"><ele>319.0</ele><time>2026-04-22T07:55:44.336Z</time></trkpt><trkpt lat="45.4986233" lon="11.0716217"><ele>319.0</ele><time>2026-04-22T07:55:45.335Z</time></trkpt><trkpt lat="45.49873" lon="11.07158"><ele>318.8333333333333</ele><time>2026-04-22T07:55:46.335Z</time></trkpt><trkpt lat="45.498815" lon="11.071565"><ele>318.66666666666663</ele><time>2026-04-22T07:55:47.335Z</time></trkpt><trkpt lat="45.498905" lon="11.0715467"><ele>318.5</ele><time>2026-04-22T07:55:48.336Z</time></trkpt><trkpt lat="45.4989883" lon="11.0715033"><ele>318.3333333333333</ele><time>2026-04-22T07:55:49.335Z</time></trkpt><trkpt lat="45.4990533" lon="11.0714617"><ele>318.1666666666667</ele><time>2026-04-22T07:55:50.335Z</time></trkpt><trkpt lat="45.49912" lon="11.0714267"><ele>318.0</ele><time>2026-04-22T07:55:51.335Z</time></trkpt><trkpt lat="45.4991783" lon="11.0713633"><ele>318.0</ele><time>2026-04-22T07:55:52.335Z</time></trkpt><trkpt lat="45.4992183" lon="11.0712533"><ele>318.0</ele><time>2026-04-22T07:55:53.336Z</time></trkpt><trkpt lat="45.4992567" lon="11.0711483"><ele>318.0</ele><time>2026-04-22T07:55:54.336Z</time></trkpt><trkpt lat="45.4992883" lon="11.0710467"><ele>318.0</ele><time>2026-04-22T07:55:55.336Z</time></trkpt><trkpt lat="45.4993217" lon="11.070965"><ele>318.0</ele><time>2026-04-22T07:55:56.335Z</time></trkpt><trkpt lat="45.4993517" lon="11.0708733"><ele>318.0</ele><time>2026-04-22T07:55:57.335Z</time></trkpt><trkpt lat="45.49938" lon="11.07079"><ele>316.4</ele><time>2026-04-22T07:55:58.335Z</time></trkpt><trkpt lat="45.4994033" lon="11.0706217"><ele>314.8</ele><time>2026-04-22T07:56:00.335Z</time></trkpt><trkpt lat="45.4993967" lon="11.07045"><ele>313.2</ele><time>2026-04-22T07:56:02.335Z</time></trkpt><trkpt lat="45.4993967" lon="11.0703417"><ele>311.6</ele><time>2026-04-22T07:56:03.335Z</time></trkpt><trkpt lat="45.499405" lon="11.0702467"><ele>310.0</ele><time>2026-04-22T07:56:04.335Z</time></trkpt><trkpt lat="45.4994133" lon="11.07015"><ele>310.0</ele><time>2026-04-22T07:56:05.335Z</time></trkpt><trkpt lat="45.499405" lon="11.07002"><ele>310.0</ele><time>2026-04-22T07:56:06.335Z</time></trkpt><trkpt lat="45.49943" lon="11.0698417"><ele>310.0</ele><time>2026-04-22T07:56:08.335Z</time></trkpt><trkpt lat="45.499425" lon="11.0696583"><ele>310.0</ele><time>2026-04-22T07:56:10.335Z</time></trkpt><trkpt lat="45.4994533" lon="11.0695033"><ele>309.16666666666663</ele><time>2026-04-22T07:56:12.335Z</time></trkpt><trkpt lat="45.49946" lon="11.0693967"><ele>308.3333333333333</ele><time>2026-04-22T07:56:14.335Z</time></trkpt><trkpt lat="45.4994667" lon="11.0693017"><ele>307.5</ele><time>2026-04-22T07:56:17.335Z</time></trkpt><trkpt lat="45.499435" lon="11.0691883"><ele>306.6666666666667</ele><time>2026-04-22T07:56:20.335Z</time></trkpt><trkpt lat="45.4994167" lon="11.06908"><ele>305.83333333333337</ele><time>2026-04-22T07:56:22.336Z</time></trkpt><trkpt lat="45.499405" lon="11.0689617"><ele>305.0</ele><time>2026-04-22T07:56:24.335Z</time></trkpt><trkpt lat="45.499395" lon="11.0688617"><ele>304.5</ele><time>2026-04-22T07:56:26.335Z</time></trkpt><trkpt lat="45.49936" lon="11.0687317"><ele>304.0</ele><time>2026-04-22T07:56:28.336Z</time></trkpt><trkpt lat="45.4993233" lon="11.0686133"><ele>303.5</ele><time>2026-04-22T07:56:31.335Z</time></trkpt><trkpt lat="45.4993033" lon="11.0685083"><ele>303.0</ele><time>2026-04-22T07:56:33.335Z</time></trkpt><trkpt lat="45.4992983" lon="11.0684083"><ele>302.5</ele><time>2026-04-22T07:56:35.335Z</time></trkpt><trkpt lat="45.49928" lon="11.0682683"><ele>302.0</ele><time>2026-04-22T07:56:37.335Z</time></trkpt><trkpt lat="45.4993167" lon="11.0681867"><ele>300.6666666666667</ele><time>2026-04-22T07:56:40.335Z</time></trkpt><trkpt lat="45.4993433" lon="11.0680867"><ele>299.33333333333337</ele><time>2026-04-22T07:56:44.335Z</time></trkpt><trkpt lat="45.49938" lon="11.067985"><ele>298.0</ele><time>2026-04-22T07:56:46.335Z</time></trkpt><trkpt lat="45.499445" lon="11.0679233"><ele>296.6666666666667</ele><time>2026-04-22T07:56:48.336Z</time></trkpt><trkpt lat="45.4995133" lon="11.0678667"><ele>295.3333333333333</ele><time>2026-04-22T07:56:50.335Z</time></trkpt><trkpt lat="45.4995867" lon="11.0678617"><ele>294.0</ele><time>2026-04-22T07:56:52.335Z</time></trkpt><trkpt lat="45.4996733" lon="11.0677783"><ele>292.0</ele><time>2026-04-22T07:56:54.335Z</time></trkpt><trkpt lat="45.4997133" lon="11.06767"><ele>290.0</ele><time>2026-04-22T07:56:56.336Z</time></trkpt><trkpt lat="45.49972" lon="11.0675633"><ele>288.0</ele><time>2026-04-22T07:56:59.335Z</time></trkpt><trkpt lat="45.49965" lon="11.0674817"><ele>286.0</ele><time>2026-04-22T07:57:01.335Z</time></trkpt><trkpt lat="45.4995667" lon="11.0674333"><ele>284.0</ele><time>2026-04-22T07:57:03.335Z</time></trkpt><trkpt lat="45.4995167" lon="11.0673783"><ele>282.0</ele><time>2026-04-22T07:57:06.335Z</time></trkpt><trkpt lat="45.49954" lon="11.0672633"><ele>282.0</ele><time>2026-04-22T07:57:09.335Z</time></trkpt><trkpt lat="45.4995667" lon="11.0671767"><ele>282.0</ele><time>2026-04-22T07:57:11.335Z</time></trkpt><trkpt lat="45.4996367" lon="11.067115"><ele>282.0</ele><time>2026-04-22T07:57:14.336Z</time></trkpt><trkpt lat="45.4996933" lon="11.0670167"><ele>282.0</ele><time>2026-04-22T07:57:17.335Z</time></trkpt><trkpt lat="45.4997033" lon="11.0669217"><ele>282.0</ele><time>2026-04-22T07:57:19.335Z</time></trkpt><trkpt lat="45.499715" lon="11.0668233"><ele>282.0</ele><time>2026-04-22T07:57:21.336Z</time></trkpt><trkpt lat="45.49973" lon="11.0667017"><ele>279.1666666666667</ele><time>2026-04-22T07:57:23.335Z</time></trkpt><trkpt lat="45.4997433" lon="11.0665767"><ele>276.3333333333333</ele><time>2026-04-22T07:57:25.336Z</time></trkpt><trkpt lat="45.4997567" lon="11.0664633"><ele>273.5</ele><time>2026-04-22T07:57:27.335Z</time></trkpt><trkpt lat="45.4997783" lon="11.0663717"><ele>270.66666666666663</ele><time>2026-04-22T07:57:29.335Z</time></trkpt><trkpt lat="45.49979" lon="11.0662533"><ele>267.8333333333333</ele><time>2026-04-22T07:57:32.335Z</time></trkpt><trkpt lat="45.4998017" lon="11.0661517"><ele>265.0</ele><time>2026-04-22T07:57:34.335Z</time></trkpt><trkpt lat="45.499785" lon="11.0660283"><ele>265.0</ele><time>2026-04-22T07:57:37.336Z</time></trkpt><trkpt lat="45.4997983" lon="11.0659267"><ele>265.0</ele><time>2026-04-22T07:57:39.335Z</time></trkpt><trkpt lat="45.4998433" lon="11.065795"><ele>265.0</ele><time>2026-04-22T07:57:41.336Z</time></trkpt><trkpt lat="45.4999033" lon="11.06566"><ele>265.0</ele><time>2026-04-22T07:57:43.335Z</time></trkpt><trkpt lat="45.499945" lon="11.06555"><ele>265.0</ele><time>2026-04-22T07:57:45.335Z</time></trkpt><trkpt lat="45.4999383" lon="11.06545"><ele>265.0</ele><time>2026-04-22T07:57:47.335Z</time></trkpt><trkpt lat="45.4999333" lon="11.06535"><ele>264.1428571428571</ele><time>2026-04-22T07:57:49.335Z</time></trkpt><trkpt lat="45.4999283" lon="11.0652567"><ele>263.2857142857143</ele><time>2026-04-22T07:57:51.336Z</time></trkpt><trkpt lat="45.49992" lon="11.065165"><ele>262.42857142857144</ele><time>2026-04-22T07:57:53.335Z</time></trkpt><trkpt lat="45.4999117" lon="11.0650733"><ele>261.57142857142856</ele><time>2026-04-22T07:57:55.335Z</time></trkpt><trkpt lat="45.4998567" lon="11.0649667"><ele>260.7142857142857</ele><time>2026-04-22T07:57:58.335Z</time></trkpt><trkpt lat="45.4998133" lon="11.064865"><ele>259.85714285714283</ele><time>2026-04-22T07:58:01.335Z</time></trkpt><trkpt lat="45.4998117" lon="11.0647583"><ele>259.0</ele><time>2026-04-22T07:58:03.336Z</time></trkpt><trkpt lat="45.49978" lon="11.0646567"><ele>256.5</ele><time>2026-04-22T07:58:06.335Z</time></trkpt><trkpt lat="45.4997383" lon="11.0645717"><ele>254.0</ele><time>2026-04-22T07:58:09.335Z</time></trkpt><trkpt lat="45.4996733" lon="11.06452"><ele>251.5</ele><time>2026-04-22T07:58:11.335Z</time></trkpt><trkpt lat="45.499595" lon="11.0645117"><ele>249.0</ele><time>2026-04-22T07:58:14.335Z</time></trkpt><trkpt lat="45.4995067" lon="11.0644833"><ele>246.49999999999997</ele><time>2026-04-22T07:58:17.335Z</time></trkpt><trkpt lat="45.4994567" lon="11.0644233"><ele>244.0</ele><time>2026-04-22T07:58:20.334Z</time></trkpt><trkpt lat="45.4993817" lon="11.0643567"><ele>241.66666666666666</ele><time>2026-04-22T07:58:23.334Z</time></trkpt><trkpt lat="45.4993283" lon="11.0642917"><ele>239.33333333333331</ele><time>2026-04-22T07:58:25.334Z</time></trkpt><trkpt lat="45.4992883" lon="11.0642183"><ele>237.0</ele><time>2026-04-22T07:58:27.334Z</time></trkpt><trkpt lat="45.4992283" lon="11.0641867"><ele>234.66666666666669</ele><time>2026-04-22T07:58:29.334Z</time></trkpt><trkpt lat="45.4991467" lon="11.0641067"><ele>232.33333333333334</ele><time>2026-04-22T07:58:31.334Z</time></trkpt><trkpt lat="45.4990683" lon="11.06407"><ele>230.0</ele><time>2026-04-22T07:58:33.334Z</time></trkpt><trkpt lat="45.4989833" lon="11.064035"><ele>224.66666666666669</ele><time>2026-04-22T07:58:35.334Z</time></trkpt><trkpt lat="45.498915" lon="11.06402"><ele>219.33333333333334</ele><time>2026-04-22T07:58:37.334Z</time></trkpt><trkpt lat="45.4988483" lon="11.0640583"><ele>214.0</ele><time>2026-04-22T07:58:39.334Z</time></trkpt><trkpt lat="45.49876" lon="11.0640733"><ele>208.66666666666669</ele><time>2026-04-22T07:58:41.334Z</time></trkpt><trkpt lat="45.4986633" lon="11.0640533"><ele>203.33333333333334</ele><time>2026-04-22T07:58:43.334Z</time></trkpt><trkpt lat="45.4985567" lon="11.0640367"><ele>198.0</ele><time>2026-04-22T07:58:45.334Z</time></trkpt><trkpt lat="45.498455" lon="11.064"><ele>194.8</ele><time>2026-04-22T07:58:47.334Z</time></trkpt><trkpt lat="45.4983567" lon="11.0639867"><ele>191.60000000000002</ele><time>2026-04-22T07:58:49.334Z</time></trkpt><trkpt lat="45.4982533" lon="11.0639783"><ele>188.39999999999998</ele><time>2026-04-22T07:58:51.334Z</time></trkpt><trkpt lat="45.4981567" lon="11.06397"><ele>185.2</ele><time>2026-04-22T07:58:53.334Z</time></trkpt><trkpt lat="45.498055" lon="11.0639367"><ele>182.0</ele><time>2026-04-22T07:58:55.335Z</time></trkpt><trkpt lat="45.4979533" lon="11.0638817"><ele>181.0</ele><time>2026-04-22T07:58:57.335Z</time></trkpt><trkpt lat="45.4978617" lon="11.0638317"><ele>180.0</ele><time>2026-04-22T07:58:59.334Z</time></trkpt><trkpt lat="45.4977633" lon="11.0637667"><ele>179.0</ele><time>2026-04-22T07:59:01.334Z</time></trkpt><trkpt lat="45.4976483" lon="11.0636967"><ele>178.0</ele><time>2026-04-22T07:59:03.334Z</time></trkpt><trkpt lat="45.4975567" lon="11.0636483"><ele>177.0</ele><time>2026-04-22T07:59:05.334Z</time></trkpt><trkpt lat="45.4974733" lon="11.0636167"><ele>177.0</ele><time>2026-04-22T07:59:07.334Z</time></trkpt><trkpt lat="45.4973917" lon="11.0635817"><ele>177.0</ele><time>2026-04-22T07:59:09.334Z</time></trkpt><trkpt lat="45.4972867" lon="11.0635817"><ele>177.0</ele><time>2026-04-22T07:59:11.335Z</time></trkpt><trkpt lat="45.4971983" lon="11.0635833"><ele>177.0</ele><time>2026-04-22T07:59:13.334Z</time></trkpt><trkpt lat="45.49712" lon="11.0635717"><ele>177.0</ele><time>2026-04-22T07:59:15.334Z</time></trkpt><trkpt lat="45.497055" lon="11.06353"><ele>177.0</ele><time>2026-04-22T07:59:17.334Z</time></trkpt><trkpt lat="45.4969483" lon="11.0634883"><ele>174.5</ele><time>2026-04-22T07:59:20.335Z</time></trkpt><trkpt lat="45.4968533" lon="11.063455"><ele>172.0</ele><time>2026-04-22T07:59:22.335Z</time></trkpt><trkpt lat="45.49677" lon="11.063415"><ele>169.5</ele><time>2026-04-22T07:59:24.335Z</time></trkpt><trkpt lat="45.49669" lon="11.0634267"><ele>167.0</ele><time>2026-04-22T07:59:26.334Z</time></trkpt><trkpt lat="45.496625" lon="11.063445"><ele>164.5</ele><time>2026-04-22T07:59:28.334Z</time></trkpt><trkpt lat="45.4965567" lon="11.0634733"><ele>162.0</ele><time>2026-04-22T07:59:31.334Z</time></trkpt><trkpt lat="45.4964717" lon="11.0634917"><ele>162.0</ele><time>2026-04-22T07:59:34.334Z</time></trkpt><trkpt lat="45.4963883" lon="11.0634617"><ele>162.0</ele><time>2026-04-22T07:59:37.334Z</time></trkpt><trkpt lat="45.496315" lon="11.06344"><ele>162.0</ele><time>2026-04-22T07:59:39.334Z</time></trkpt><trkpt lat="45.4962383" lon="11.063465"><ele>162.0</ele><time>2026-04-22T07:59:41.334Z</time></trkpt><trkpt lat="45.4961617" lon="11.0634683"><ele>162.0</ele><time>2026-04-22T07:59:43.334Z</time></trkpt><trkpt lat="45.4960617" lon="11.063485"><ele>162.0</ele><time>2026-04-22T07:59:45.335Z</time></trkpt><trkpt lat="45.4959717" lon="11.06349"><ele>160.66666666666666</ele><time>2026-04-22T07:59:47.334Z</time></trkpt><trkpt lat="45.4958833" lon="11.063505"><ele>159.33333333333334</ele><time>2026-04-22T07:59:49.335Z</time></trkpt><trkpt lat="45.4957867" lon="11.0634733"><ele>158.0</ele><time>2026-04-22T07:59:51.334Z</time></trkpt><trkpt lat="45.4956933" lon="11.0633917"><ele>156.66666666666669</ele><time>2026-04-22T07:59:53.334Z</time></trkpt><trkpt lat="45.4956667" lon="11.06331"><ele>155.33333333333334</ele><time>2026-04-22T07:59:56.334Z</time></trkpt><trkpt lat="45.4956817" lon="11.0632117"><ele>154.0</ele><time>2026-04-22T08:00:01.334Z</time></trkpt><trkpt lat="45.4956967" lon="11.0630833"><ele>149.8</ele><time>2026-04-22T08:00:02.334Z</time></trkpt><trkpt lat="45.4956867" lon="11.06297"><ele>145.60000000000002</ele><time>2026-04-22T08:00:03.334Z</time></trkpt><trkpt lat="45.4956717" lon="11.062855"><ele>141.4</ele><time>2026-04-22T08:00:04.334Z</time></trkpt><trkpt lat="45.4956317" lon="11.0627583"><ele>137.20000000000002</ele><time>2026-04-22T08:00:05.334Z</time></trkpt><trkpt lat="45.49558" lon="11.0626917"><ele>133.0</ele><time>2026-04-22T08:00:06.334Z</time></trkpt><trkpt lat="45.4954867" lon="11.062485"><ele>132.33333333333334</ele><time>2026-04-22T08:00:08.335Z</time></trkpt><trkpt lat="45.4954383" lon="11.0624033"><ele>131.66666666666669</ele><time>2026-04-22T08:00:09.334Z</time></trkpt><trkpt lat="45.495385" lon="11.062335"><ele>131.0</ele><time>2026-04-22T08:00:10.334Z</time></trkpt><trkpt lat="45.4953217" lon="11.0622267"><ele>130.33333333333334</ele><time>2026-04-22T08:00:11.334Z</time></trkpt><trkpt lat="45.4952633" lon="11.0621533"><ele>129.66666666666666</ele><time>2026-04-22T08:00:12.335Z</time></trkpt><trkpt lat="45.4951983" lon="11.0620617"><ele>129.0</ele><time>2026-04-22T08:00:13.334Z</time></trkpt><trkpt lat="45.4951267" lon="11.06199"><ele>129.0</ele><time>2026-04-22T08:00:14.334Z</time></trkpt><trkpt lat="45.4950733" lon="11.0619417"><ele>129.0</ele><time>2026-04-22T08:00:15.334Z</time></trkpt><trkpt lat="45.4949967" lon="11.0618283"><ele>129.0</ele><time>2026-04-22T08:00:17.334Z</time></trkpt><trkpt lat="45.4949233" lon="11.06177"><ele>129.0</ele><time>2026-04-22T08:00:19.334Z</time></trkpt><trkpt lat="45.4948433" lon="11.0616467"><ele>129.0</ele><time>2026-04-22T08:00:21.334Z</time></trkpt><trkpt lat="45.4948083" lon="11.0615633"><ele>129.0</ele><time>2026-04-22T08:00:22.334Z</time></trkpt><trkpt lat="45.49477" lon="11.0614267"><ele>128.2</ele><time>2026-04-22T08:00:23.334Z</time></trkpt><trkpt lat="45.49473" lon="11.0612917"><ele>127.4</ele><time>2026-04-22T08:00:24.334Z</time></trkpt><trkpt lat="45.4946767" lon="11.0611283"><ele>126.6</ele><time>2026-04-22T08:00:26.334Z</time></trkpt><trkpt lat="45.4946417" lon="11.0609783"><ele>125.8</ele><time>2026-04-22T08:00:28.334Z</time></trkpt><trkpt lat="45.494675" lon="11.0608483"><ele>125.0</ele><time>2026-04-22T08:00:30.334Z</time></trkpt><trkpt lat="45.494685" lon="11.0607583"><ele>124.66666666666666</ele><time>2026-04-22T08:00:31.335Z</time></trkpt><trkpt lat="45.49473" lon="11.0606633"><ele>124.33333333333333</ele><time>2026-04-22T08:00:32.334Z</time></trkpt><trkpt lat="45.4947583" lon="11.0605667"><ele>124.0</ele><time>2026-04-22T08:00:33.334Z</time></trkpt><trkpt lat="45.4947933" lon="11.0604817"><ele>123.66666666666666</ele><time>2026-04-22T08:00:34.334Z</time></trkpt><trkpt lat="45.4948633" lon="11.06044"><ele>123.33333333333333</ele><time>2026-04-22T08:00:35.334Z</time></trkpt><trkpt lat="45.4948883" lon="11.060295"><ele>123.0</ele><time>2026-04-22T08:00:37.335Z</time></trkpt><trkpt lat="45.4948467" lon="11.060155"><ele>123.0</ele><time>2026-04-22T08:00:39.334Z</time></trkpt><trkpt lat="45.4948233" lon="11.06001"><ele>123.0</ele><time>2026-04-22T08:00:41.334Z</time></trkpt><trkpt lat="45.4947817" lon="11.0598317"><ele>123.0</ele><time>2026-04-22T08:00:43.334Z</time></trkpt><trkpt lat="45.49475" lon="11.0596883"><ele>123.0</ele><time>2026-04-22T08:00:45.334Z</time></trkpt><trkpt lat="45.4946783" lon="11.059545"><ele>122.33333333333333</ele><time>2026-04-22T08:00:47.334Z</time></trkpt><trkpt lat="45.4945683" lon="11.0594617"><ele>121.66666666666666</ele><time>2026-04-22T08:00:49.334Z</time></trkpt><trkpt lat="45.4945067" lon="11.0594367"><ele>121.0</ele><time>2026-04-22T08:00:50.334Z</time></trkpt><trkpt lat="45.494445" lon="11.0594133"><ele>120.33333333333333</ele><time>2026-04-22T08:00:51.334Z</time></trkpt><trkpt lat="45.4943733" lon="11.059385"><ele>119.66666666666666</ele><time>2026-04-22T08:00:52.334Z</time></trkpt><trkpt lat="45.49429" lon="11.059355"><ele>119.0</ele><time>2026-04-22T08:00:53.334Z</time></trkpt><trkpt lat="45.494195" lon="11.0593267"><ele>119.0</ele><time>2026-04-22T08:00:54.334Z</time></trkpt><trkpt lat="45.4940967" lon="11.0593033"><ele>119.0</ele><time>2026-04-22T08:00:55.334Z</time></trkpt><trkpt lat="45.4939817" lon="11.0592933"><ele>119.0</ele><time>2026-04-22T08:00:56.334Z</time></trkpt><trkpt lat="45.49387" lon="11.0592867"><ele>119.0</ele><time>2026-04-22T08:00:57.334Z</time></trkpt><trkpt lat="45.4937633" lon="11.05929"><ele>119.0</ele><time>2026-04-22T08:00:58.335Z</time></trkpt><trkpt lat="45.4936467" lon="11.0593"><ele>118.25</ele><time>2026-04-22T08:00:59.334Z</time></trkpt><trkpt lat="45.493525" lon="11.0593317"><ele>117.5</ele><time>2026-04-22T08:01:00.334Z</time></trkpt><trkpt lat="45.4934083" lon="11.05938"><ele>116.75</ele><time>2026-04-22T08:01:01.334Z</time></trkpt><trkpt lat="45.4933" lon="11.0594517"><ele>116.0</ele><time>2026-04-22T08:01:02.334Z</time></trkpt><trkpt lat="45.493205" lon="11.059545"><ele>116.0</ele><time>2026-04-22T08:01:03.334Z</time></trkpt><trkpt lat="45.4931067" lon="11.0596533"><ele>116.0</ele><time>2026-04-22T08:01:04.334Z</time></trkpt><trkpt lat="45.49302" lon="11.0597717"><ele>116.0</ele><time>2026-04-22T08:01:05.334Z</time></trkpt><trkpt lat="45.492955" lon="11.0598867"><ele>116.0</ele><time>2026-04-22T08:01:06.334Z</time></trkpt><trkpt lat="45.4928867" lon="11.0600117"><ele>116.0</ele><time>2026-04-22T08:01:07.334Z</time></trkpt><trkpt lat="45.492805" lon="11.0601433"><ele>116.0</ele><time>2026-04-22T08:01:08.334Z</time></trkpt><trkpt lat="45.4927233" lon="11.0602583"><ele>116.0</ele><time>2026-04-22T08:01:09.334Z</time></trkpt><trkpt lat="45.4926317" lon="11.060345"><ele>116.0</ele><time>2026-04-22T08:01:10.334Z</time></trkpt><trkpt lat="45.492525" lon="11.0604283"><ele>116.0</ele><time>2026-04-22T08:01:11.334Z</time></trkpt><trkpt lat="45.492415" lon="11.0605"><ele>116.0</ele><time>2026-04-22T08:01:12.334Z</time></trkpt><trkpt lat="45.4923083" lon="11.0605667"><ele>116.0</ele><time>2026-04-22T08:01:13.334Z</time></trkpt><trkpt lat="45.4922" lon="11.06063"><ele>116.0</ele><time>2026-04-22T08:01:14.334Z</time></trkpt><trkpt lat="45.49209" lon="11.0607033"><ele>115.25</ele><time>2026-04-22T08:01:15.334Z</time></trkpt><trkpt lat="45.4919883" lon="11.0607933"><ele>114.5</ele><time>2026-04-22T08:01:16.335Z</time></trkpt><trkpt lat="45.49188" lon="11.0609117"><ele>113.75</ele><time>2026-04-22T08:01:17.334Z</time></trkpt><trkpt lat="45.491765" lon="11.0609833"><ele>113.0</ele><time>2026-04-22T08:01:18.334Z</time></trkpt><trkpt lat="45.4916433" lon="11.0610383"><ele>113.0</ele><time>2026-04-22T08:01:19.334Z</time></trkpt><trkpt lat="45.4915167" lon="11.0610883"><ele>113.0</ele><time>2026-04-22T08:01:20.334Z</time></trkpt><trkpt lat="45.491375" lon="11.06111"><ele>113.0</ele><time>2026-04-22T08:01:21.334Z</time></trkpt><trkpt lat="45.491255" lon="11.06115"><ele>113.0</ele><time>2026-04-22T08:01:22.334Z</time></trkpt><trkpt lat="45.49114" lon="11.0612133"><ele>112.75</ele><time>2026-04-22T08:01:23.334Z</time></trkpt><trkpt lat="45.4910183" lon="11.0612817"><ele>112.5</ele><time>2026-04-22T08:01:24.334Z</time></trkpt><trkpt lat="45.4908983" lon="11.0613417"><ele>112.25</ele><time>2026-04-22T08:01:25.334Z</time></trkpt><trkpt lat="45.4907667" lon="11.0614067"><ele>112.0</ele><time>2026-04-22T08:01:26.334Z</time></trkpt><trkpt lat="45.4906267" lon="11.061465"><ele>112.0</ele><time>2026-04-22T08:01:27.334Z</time></trkpt><trkpt lat="45.4904767" lon="11.0615233"><ele>112.0</ele><time>2026-04-22T08:01:28.335Z</time></trkpt><trkpt lat="45.4903467" lon="11.0616"><ele>112.0</ele><time>2026-04-22T08:01:29.334Z</time></trkpt><trkpt lat="45.4902167" lon="11.0616717"><ele>112.0</ele><time>2026-04-22T08:01:30.334Z</time></trkpt><trkpt lat="45.4900717" lon="11.061735"><ele>111.5</ele><time>2026-04-22T08:01:31.334Z</time></trkpt><trkpt lat="45.489925" lon="11.0617833"><ele>111.0</ele><time>2026-04-22T08:01:32.334Z</time></trkpt><trkpt lat="45.4897883" lon="11.061825"><ele>110.5</ele><time>2026-04-22T08:01:33.334Z</time></trkpt><trkpt lat="45.4896433" lon="11.06185"><ele>110.0</ele><time>2026-04-22T08:01:34.334Z</time></trkpt><trkpt lat="45.4895" lon="11.06189"><ele>109.25</ele><time>2026-04-22T08:01:35.334Z</time></trkpt><trkpt lat="45.4893567" lon="11.0619067"><ele>108.5</ele><time>2026-04-22T08:01:36.334Z</time></trkpt><trkpt lat="45.4892017" lon="11.0618917"><ele>107.75</ele><time>2026-04-22T08:01:37.334Z</time></trkpt><trkpt lat="45.489055" lon="11.0618767"><ele>107.0</ele><time>2026-04-22T08:01:38.334Z</time></trkpt><trkpt lat="45.48891" lon="11.0618783"><ele>106.0</ele><time>2026-04-22T08:01:39.334Z</time></trkpt><trkpt lat="45.4887517" lon="11.061875"><ele>105.0</ele><time>2026-04-22T08:01:40.335Z</time></trkpt><trkpt lat="45.4886083" lon="11.0619"><ele>104.0</ele><time>2026-04-22T08:01:41.334Z</time></trkpt><trkpt lat="45.4884533" lon="11.0619267"><ele>104.0</ele><time>2026-04-22T08:01:42.335Z</time></trkpt><trkpt lat="45.4883083" lon="11.06196"><ele>104.0</ele><time>2026-04-22T08:01:43.335Z</time></trkpt><trkpt lat="45.4881633" lon="11.06198"><ele>104.0</ele><time>2026-04-22T08:01:44.334Z</time></trkpt><trkpt lat="45.488025" lon="11.0619933"><ele>104.0</ele><time>2026-04-22T08:01:45.335Z</time></trkpt><trkpt lat="45.487895" lon="11.062"><ele>104.25</ele><time>2026-04-22T08:01:46.334Z</time></trkpt><trkpt lat="45.487745" lon="11.0619683"><ele>104.5</ele><time>2026-04-22T08:01:47.334Z</time></trkpt><trkpt lat="45.487605" lon="11.0619783"><ele>104.75</ele><time>2026-04-22T08:01:48.334Z</time></trkpt><trkpt lat="45.48748" lon="11.061975"><ele>105.0</ele><time>2026-04-22T08:01:49.334Z</time></trkpt><trkpt lat="45.4873317" lon="11.061945"><ele>105.0</ele><time>2026-04-22T08:01:50.334Z</time></trkpt><trkpt lat="45.4871917" lon="11.0619117"><ele>105.0</ele><time>2026-04-22T08:01:51.334Z</time></trkpt><trkpt lat="45.487065" lon="11.06187"><ele>105.0</ele><time>2026-04-22T08:01:52.334Z</time></trkpt><trkpt lat="45.4869433" lon="11.0618367"><ele>105.0</ele><time>2026-04-22T08:01:53.334Z</time></trkpt><trkpt lat="45.4868367" lon="11.06179"><ele>105.5</ele><time>2026-04-22T08:01:54.334Z</time></trkpt><trkpt lat="45.486715" lon="11.0617367"><ele>106.0</ele><time>2026-04-22T08:01:55.335Z</time></trkpt><trkpt lat="45.4866083" lon="11.0616733"><ele>106.5</ele><time>2026-04-22T08:01:56.335Z</time></trkpt><trkpt lat="45.4865017" lon="11.0616067"><ele>107.0</ele><time>2026-04-22T08:01:57.334Z</time></trkpt><trkpt lat="45.4863817" lon="11.0615333"><ele>105.6</ele><time>2026-04-22T08:01:58.334Z</time></trkpt><trkpt lat="45.48625" lon="11.0615017"><ele>104.19999999999999</ele><time>2026-04-22T08:01:59.334Z</time></trkpt><trkpt lat="45.4861583" lon="11.06149"><ele>102.8</ele><time>2026-04-22T08:02:00.334Z</time></trkpt><trkpt lat="45.486075" lon="11.0615033"><ele>101.4</ele><time>2026-04-22T08:02:01.334Z</time></trkpt><trkpt lat="45.4860083" lon="11.0615167"><ele>100.0</ele><time>2026-04-22T08:02:02.334Z</time></trkpt><trkpt lat="45.4859283" lon="11.0613933"><ele>100.0</ele><time>2026-04-22T08:02:04.334Z</time></trkpt><trkpt lat="45.4859017" lon="11.0612933"><ele>100.0</ele><time>2026-04-22T08:02:05.334Z</time></trkpt><trkpt lat="45.4858883" lon="11.06117"><ele>100.0</ele><time>2026-04-22T08:02:06.334Z</time></trkpt><trkpt lat="45.4858783" lon="11.061025"><ele>100.0</ele><time>2026-04-22T08:02:07.335Z</time></trkpt><trkpt lat="45.485895" lon="11.0608367"><ele>100.0</ele><time>2026-04-22T08:02:08.335Z</time></trkpt><trkpt lat="45.4859283" lon="11.0606467"><ele>100.6</ele><time>2026-04-22T08:02:09.335Z</time></trkpt><trkpt lat="45.4859383" lon="11.0604867"><ele>101.2</ele><time>2026-04-22T08:02:10.334Z</time></trkpt><trkpt lat="45.4859467" lon="11.06034"><ele>101.80000000000001</ele><time>2026-04-22T08:02:11.334Z</time></trkpt><trkpt lat="45.4859533" lon="11.0601867"><ele>102.4</ele><time>2026-04-22T08:02:12.334Z</time></trkpt><trkpt lat="45.485965" lon="11.0600183"><ele>103.0</ele><time>2026-04-22T08:02:13.334Z</time></trkpt><trkpt lat="45.485975" lon="11.05984"><ele>105.25</ele><time>2026-04-22T08:02:14.334Z</time></trkpt><trkpt lat="45.4859883" lon="11.0596733"><ele>107.5</ele><time>2026-04-22T08:02:15.334Z</time></trkpt><trkpt lat="45.4860033" lon="11.0594833"><ele>109.75</ele><time>2026-04-22T08:02:16.334Z</time></trkpt><trkpt lat="45.4860233" lon="11.0593083"><ele>112.0</ele><time>2026-04-22T08:02:17.333Z</time></trkpt><trkpt lat="45.486045" lon="11.059115"><ele>115.5</ele><time>2026-04-22T08:02:18.333Z</time></trkpt><trkpt lat="45.4860517" lon="11.0589333"><ele>119.0</ele><time>2026-04-22T08:02:19.333Z</time></trkpt><trkpt lat="45.486055" lon="11.058755"><ele>122.5</ele><time>2026-04-22T08:02:20.333Z</time></trkpt><trkpt lat="45.48604" lon="11.0585967"><ele>126.0</ele><time>2026-04-22T08:02:21.333Z</time></trkpt><trkpt lat="45.486025" lon="11.0584333"><ele>126.0</ele><time>2026-04-22T08:02:22.333Z</time></trkpt><trkpt lat="45.486015" lon="11.0583033"><ele>126.0</ele><time>2026-04-22T08:02:23.333Z</time></trkpt><trkpt lat="45.4860117" lon="11.058165"><ele>126.0</ele><time>2026-04-22T08:02:24.333Z</time></trkpt><trkpt lat="45.4860217" lon="11.0580333"><ele>126.0</ele><time>2026-04-22T08:02:25.333Z</time></trkpt><trkpt lat="45.4860767" lon="11.0578833"><ele>126.0</ele><time>2026-04-22T08:02:26.334Z</time></trkpt><trkpt lat="45.486135" lon="11.0577333"><ele>130.0</ele><time>2026-04-22T08:02:27.333Z</time></trkpt><trkpt lat="45.4861917" lon="11.0575817"><ele>134.0</ele><time>2026-04-22T08:02:28.333Z</time></trkpt><trkpt lat="45.4862117" lon="11.05742"><ele>138.0</ele><time>2026-04-22T08:02:29.333Z</time></trkpt><trkpt lat="45.4862283" lon="11.05725"><ele>142.0</ele><time>2026-04-22T08:02:30.333Z</time></trkpt><trkpt lat="45.48623" lon="11.057085"><ele>144.75</ele><time>2026-04-22T08:02:31.333Z</time></trkpt><trkpt lat="45.4862383" lon="11.0569083"><ele>147.5</ele><time>2026-04-22T08:02:32.333Z</time></trkpt><trkpt lat="45.4862483" lon="11.056735"><ele>150.25</ele><time>2026-04-22T08:02:33.333Z</time></trkpt><trkpt lat="45.4862683" lon="11.0565567"><ele>153.0</ele><time>2026-04-22T08:02:34.333Z</time></trkpt><trkpt lat="45.48628" lon="11.05638"><ele>153.5</ele><time>2026-04-22T08:02:35.333Z</time></trkpt><trkpt lat="45.4862867" lon="11.05621"><ele>154.0</ele><time>2026-04-22T08:02:36.333Z</time></trkpt><trkpt lat="45.4863233" lon="11.05605"><ele>154.5</ele><time>2026-04-22T08:02:37.334Z</time></trkpt><trkpt lat="45.4863417" lon="11.0558817"><ele>155.0</ele><time>2026-04-22T08:02:38.333Z</time></trkpt><trkpt lat="45.4863633" lon="11.05572"><ele>159.25</ele><time>2026-04-22T08:02:39.333Z</time></trkpt><trkpt lat="45.4863967" lon="11.0555483"><ele>163.5</ele><time>2026-04-22T08:02:40.333Z</time></trkpt><trkpt lat="45.486405" lon="11.0553467"><ele>167.75</ele><time>2026-04-22T08:02:41.333Z</time></trkpt><trkpt lat="45.4864167" lon="11.0551533"><ele>172.0</ele><time>2026-04-22T08:02:42.333Z</time></trkpt><trkpt lat="45.4864317" lon="11.0550217"><ele>174.8</ele><time>2026-04-22T08:02:43.333Z</time></trkpt><trkpt lat="45.4864667" lon="11.0549367"><ele>177.6</ele><time>2026-04-22T08:02:44.333Z</time></trkpt><trkpt lat="45.4864933" lon="11.054815"><ele>180.4</ele><time>2026-04-22T08:02:45.333Z</time></trkpt><trkpt lat="45.4865783" lon="11.05483"><ele>183.20000000000002</ele><time>2026-04-22T08:02:46.333Z</time></trkpt><trkpt lat="45.4867033" lon="11.054925"><ele>186.0</ele><time>2026-04-22T08:02:47.333Z</time></trkpt><trkpt lat="45.4867717" lon="11.0549283"><ele>190.33333333333331</ele><time>2026-04-22T08:02:48.333Z</time></trkpt><trkpt lat="45.4869" lon="11.055075"><ele>194.66666666666666</ele><time>2026-04-22T08:02:49.334Z</time></trkpt><trkpt lat="45.4870017" lon="11.05523"><ele>199.0</ele><time>2026-04-22T08:02:50.333Z</time></trkpt><trkpt lat="45.4871017" lon="11.0553717"><ele>199.0</ele><time>2026-04-22T08:02:51.333Z</time></trkpt><trkpt lat="45.4872117" lon="11.0555267"><ele>199.0</ele><time>2026-04-22T08:02:52.333Z</time></trkpt><trkpt lat="45.48732" lon="11.0556633"><ele>199.0</ele><time>2026-04-22T08:02:53.333Z</time></trkpt><trkpt lat="45.48742" lon="11.05577"><ele>199.0</ele><time>2026-04-22T08:02:54.333Z</time></trkpt><trkpt lat="45.4875117" lon="11.0558583"><ele>195.0</ele><time>2026-04-22T08:02:55.334Z</time></trkpt><trkpt lat="45.4875917" lon="11.0559383"><ele>191.0</ele><time>2026-04-22T08:02:56.333Z</time></trkpt><trkpt lat="45.487645" lon="11.0560317"><ele>187.0</ele><time>2026-04-22T08:02:57.333Z</time></trkpt><trkpt lat="45.4877033" lon="11.0561817"><ele>183.0</ele><time>2026-04-22T08:02:59.333Z</time></trkpt><trkpt lat="45.4877583" lon="11.0562983"><ele>179.0</ele><time>2026-04-22T08:03:01.333Z</time></trkpt><trkpt lat="45.487835" lon="11.056385"><ele>179.0</ele><time>2026-04-22T08:03:03.333Z</time></trkpt><trkpt lat="45.4879117" lon="11.0564617"><ele>179.0</ele><time>2026-04-22T08:03:05.333Z</time></trkpt><trkpt lat="45.488" lon="11.056535"><ele>179.0</ele><time>2026-04-22T08:03:07.334Z</time></trkpt><trkpt lat="45.48811" lon="11.0565967"><ele>179.0</ele><time>2026-04-22T08:03:09.333Z</time></trkpt><trkpt lat="45.4882083" lon="11.0566017"><ele>179.0</ele><time>2026-04-22T08:03:11.333Z</time></trkpt><trkpt lat="45.4883033" lon="11.056595"><ele>183.2</ele><time>2026-04-22T08:03:13.333Z</time></trkpt><trkpt lat="45.4884017" lon="11.0565517"><ele>187.39999999999998</ele><time>2026-04-22T08:03:15.333Z</time></trkpt><trkpt lat="45.488485" lon="11.0565367"><ele>191.6</ele><time>2026-04-22T08:03:17.334Z</time></trkpt><trkpt lat="45.4885617" lon="11.0565017"><ele>195.8</ele><time>2026-04-22T08:03:19.333Z</time></trkpt><trkpt lat="45.4886417" lon="11.0564583"><ele>200.0</ele><time>2026-04-22T08:03:21.333Z</time></trkpt><trkpt lat="45.488725" lon="11.0563867"><ele>201.00000000000003</ele><time>2026-04-22T08:03:23.333Z</time></trkpt><trkpt lat="45.4888" lon="11.0563433"><ele>202.0</ele><time>2026-04-22T08:03:25.333Z</time></trkpt><trkpt lat="45.4888783" lon="11.056345"><ele>203.0</ele><time>2026-04-22T08:03:27.333Z</time></trkpt><trkpt lat="45.4889533" lon="11.056345"><ele>204.0</ele><time>2026-04-22T08:03:29.333Z</time></trkpt><trkpt lat="45.48904" lon="11.056325"><ele>205.00000000000003</ele><time>2026-04-22T08:03:32.333Z</time></trkpt><trkpt lat="45.4891283" lon="11.056275"><ele>206.0</ele><time>2026-04-22T08:03:34.333Z</time></trkpt><trkpt lat="45.4891983" lon="11.0562067"><ele>206.00000000000003</ele><time>2026-04-22T08:03:36.333Z</time></trkpt><trkpt lat="45.4892667" lon="11.0561517"><ele>206.0</ele><time>2026-04-22T08:03:38.333Z</time></trkpt><trkpt lat="45.4893367" lon="11.0561183"><ele>206.0</ele><time>2026-04-22T08:03:41.333Z</time></trkpt><trkpt lat="45.489395" lon="11.0560667"><ele>206.0</ele><time>2026-04-22T08:03:44.333Z</time></trkpt><trkpt lat="45.4894533" lon="11.05599"><ele>206.00000000000003</ele><time>2026-04-22T08:03:48.333Z</time></trkpt><trkpt lat="45.4895167" lon="11.0559217"><ele>206.0</ele><time>2026-04-22T08:03:50.333Z</time></trkpt><trkpt lat="45.48961" lon="11.0558583"><ele>206.33333333333334</ele><time>2026-04-22T08:03:52.334Z</time></trkpt><trkpt lat="45.4896867" lon="11.0558217"><ele>206.66666666666669</ele><time>2026-04-22T08:03:53.333Z</time></trkpt><trkpt lat="45.4897667" lon="11.0557983"><ele>207.0</ele><time>2026-04-22T08:03:54.334Z</time></trkpt><trkpt lat="45.489855" lon="11.0557783"><ele>207.33333333333331</ele><time>2026-04-22T08:03:55.334Z</time></trkpt><trkpt lat="45.4899517" lon="11.0557617"><ele>207.66666666666666</ele><time>2026-04-22T08:03:56.333Z</time></trkpt><trkpt lat="45.4900483" lon="11.055755"><ele>208.0</ele><time>2026-04-22T08:03:57.333Z</time></trkpt><trkpt lat="45.4901433" lon="11.0557"><ele>211.2</ele><time>2026-04-22T08:03:58.334Z</time></trkpt><trkpt lat="45.4902067" lon="11.0555883"><ele>214.4</ele><time>2026-04-22T08:04:00.333Z</time></trkpt><trkpt lat="45.4901367" lon="11.0555083"><ele>217.59999999999997</ele><time>2026-04-22T08:04:02.333Z</time></trkpt><trkpt lat="45.4900617" lon="11.0554833"><ele>220.79999999999998</ele><time>2026-04-22T08:04:03.333Z</time></trkpt><trkpt lat="45.4899867" lon="11.0554533"><ele>224.0</ele><time>2026-04-22T08:04:04.333Z</time></trkpt><trkpt lat="45.4898483" lon="11.055395"><ele>224.0</ele><time>2026-04-22T08:04:06.333Z</time></trkpt><trkpt lat="45.4897567" lon="11.055345"><ele>223.99999999999997</ele><time>2026-04-22T08:04:07.333Z</time></trkpt><trkpt lat="45.4896567" lon="11.0552933"><ele>223.99999999999997</ele><time>2026-04-22T08:04:08.333Z</time></trkpt><trkpt lat="45.489555" lon="11.0552417"><ele>224.0</ele><time>2026-04-22T08:04:09.333Z</time></trkpt><trkpt lat="45.489455" lon="11.055195"><ele>224.0</ele><time>2026-04-22T08:04:10.334Z</time></trkpt><trkpt lat="45.4893583" lon="11.05515"><ele>224.0</ele><time>2026-04-22T08:04:11.333Z</time></trkpt><trkpt lat="45.4892583" lon="11.0550783"><ele>223.99999999999997</ele><time>2026-04-22T08:04:12.333Z</time></trkpt><trkpt lat="45.4891533" lon="11.0550083"><ele>223.99999999999997</ele><time>2026-04-22T08:04:13.333Z</time></trkpt><trkpt lat="45.4890567" lon="11.0549333"><ele>224.0</ele><time>2026-04-22T08:04:14.333Z</time></trkpt><trkpt lat="45.4889533" lon="11.05489"><ele>224.0</ele><time>2026-04-22T08:04:15.334Z</time></trkpt><trkpt lat="45.4888433" lon="11.0548517"><ele>225.79999999999998</ele><time>2026-04-22T08:04:16.333Z</time></trkpt><trkpt lat="45.488735" lon="11.0548117"><ele>227.59999999999997</ele><time>2026-04-22T08:04:17.333Z</time></trkpt><trkpt lat="45.4886367" lon="11.054765"><ele>229.4</ele><time>2026-04-22T08:04:18.333Z</time></trkpt><trkpt lat="45.48854" lon="11.054705"><ele>231.2</ele><time>2026-04-22T08:04:19.333Z</time></trkpt><trkpt lat="45.4884433" lon="11.0546417"><ele>233.0</ele><time>2026-04-22T08:04:20.333Z</time></trkpt><trkpt lat="45.48834" lon="11.0545817"><ele>233.0</ele><time>2026-04-22T08:04:21.333Z</time></trkpt><trkpt lat="45.488235" lon="11.0545183"><ele>233.0</ele><time>2026-04-22T08:04:22.334Z</time></trkpt><trkpt lat="45.48815" lon="11.0544317"><ele>233.0</ele><time>2026-04-22T08:04:23.333Z</time></trkpt><trkpt lat="45.4880767" lon="11.0543467"><ele>233.0</ele><time>2026-04-22T08:04:24.334Z</time></trkpt><trkpt lat="45.4880333" lon="11.05423"><ele>233.0</ele><time>2026-04-22T08:04:25.334Z</time></trkpt><trkpt lat="45.48799" lon="11.054085"><ele>234.60000000000002</ele><time>2026-04-22T08:04:26.333Z</time></trkpt><trkpt lat="45.4879583" lon="11.053925"><ele>236.20000000000002</ele><time>2026-04-22T08:04:27.333Z</time></trkpt><trkpt lat="45.4879333" lon="11.0537833"><ele>237.8</ele><time>2026-04-22T08:04:28.333Z</time></trkpt><trkpt lat="45.4879017" lon="11.0536333"><ele>239.4</ele><time>2026-04-22T08:04:29.333Z</time></trkpt><trkpt lat="45.48788" lon="11.0534733"><ele>241.0</ele><time>2026-04-22T08:04:30.334Z</time></trkpt><trkpt lat="45.487865" lon="11.0533167"><ele>240.25</ele><time>2026-04-22T08:04:31.333Z</time></trkpt><trkpt lat="45.4878583" lon="11.0531483"><ele>239.5</ele><time>2026-04-22T08:04:32.333Z</time></trkpt><trkpt lat="45.4878183" lon="11.0529767"><ele>238.75</ele><time>2026-04-22T08:04:33.333Z</time></trkpt><trkpt lat="45.4877667" lon="11.0528117"><ele>238.0</ele><time>2026-04-22T08:04:34.333Z</time></trkpt><trkpt lat="45.4877183" lon="11.052665"><ele>238.0</ele><time>2026-04-22T08:04:35.333Z</time></trkpt><trkpt lat="45.4876683" lon="11.0525167"><ele>238.0</ele><time>2026-04-22T08:04:36.334Z</time></trkpt><trkpt lat="45.4876333" lon="11.052405"><ele>238.0</ele><time>2026-04-22T08:04:37.333Z</time></trkpt><trkpt lat="45.48761" lon="11.0523083"><ele>238.0</ele><time>2026-04-22T08:04:38.333Z</time></trkpt><trkpt lat="45.48758" lon="11.0521633"><ele>238.0</ele><time>2026-04-22T08:04:40.333Z</time></trkpt><trkpt lat="45.4876867" lon="11.0521467"><ele>240.83333333333331</ele><time>2026-04-22T08:04:43.333Z</time></trkpt><trkpt lat="45.487785" lon="11.0521767"><ele>243.66666666666666</ele><time>2026-04-22T08:04:45.333Z</time></trkpt><trkpt lat="45.48786" lon="11.052195"><ele>246.5</ele><time>2026-04-22T08:04:46.333Z</time></trkpt><trkpt lat="45.4879333" lon="11.05218"><ele>249.33333333333331</ele><time>2026-04-22T08:04:47.333Z</time></trkpt><trkpt lat="45.488005" lon="11.0521667"><ele>252.16666666666666</ele><time>2026-04-22T08:04:48.333Z</time></trkpt><trkpt lat="45.4880933" lon="11.0521283"><ele>255.0</ele><time>2026-04-22T08:04:49.333Z</time></trkpt><trkpt lat="45.48818" lon="11.0521167"><ele>259.4</ele><time>2026-04-22T08:04:50.333Z</time></trkpt><trkpt lat="45.4882733" lon="11.0521283"><ele>263.8</ele><time>2026-04-22T08:04:51.333Z</time></trkpt><trkpt lat="45.488375" lon="11.0521733"><ele>268.2</ele><time>2026-04-22T08:04:52.333Z</time></trkpt><trkpt lat="45.4884883" lon="11.0522383"><ele>272.6</ele><time>2026-04-22T08:04:53.333Z</time></trkpt><trkpt lat="45.4885817" lon="11.0523217"><ele>277.0</ele><time>2026-04-22T08:04:54.333Z</time></trkpt><trkpt lat="45.48867" lon="11.052395"><ele>276.2</ele><time>2026-04-22T08:04:55.334Z</time></trkpt><trkpt lat="45.4887667" lon="11.05247"><ele>275.4</ele><time>2026-04-22T08:04:56.334Z</time></trkpt><trkpt lat="45.4888467" lon="11.05253"><ele>274.6</ele><time>2026-04-22T08:04:57.333Z</time></trkpt><trkpt lat="45.488915" lon="11.0526317"><ele>273.8</ele><time>2026-04-22T08:04:58.333Z</time></trkpt><trkpt lat="45.4889983" lon="11.0527583"><ele>273.0</ele><time>2026-04-22T08:04:59.333Z</time></trkpt><trkpt lat="45.4890583" lon="11.052855"><ele>273.0</ele><time>2026-04-22T08:05:00.333Z</time></trkpt><trkpt lat="45.4891367" lon="11.0529383"><ele>273.0</ele><time>2026-04-22T08:05:01.334Z</time></trkpt><trkpt lat="45.4891883" lon="11.05299"><ele>273.0</ele><time>2026-04-22T08:05:02.334Z</time></trkpt><trkpt lat="45.48928" lon="11.0529967"><ele>273.0</ele><time>2026-04-22T08:05:04.333Z</time></trkpt><trkpt lat="45.48935" lon="11.053025"><ele>273.0</ele><time>2026-04-22T08:05:05.333Z</time></trkpt><trkpt lat="45.4894167" lon="11.0529983"><ele>273.0</ele><time>2026-04-22T08:05:06.334Z</time></trkpt><trkpt lat="45.4894883" lon="11.0529783"><ele>273.0</ele><time>2026-04-22T08:05:07.333Z</time></trkpt><trkpt lat="45.4895683" lon="11.0529833"><ele>273.0</ele><time>2026-04-22T08:05:08.333Z</time></trkpt><trkpt lat="45.4896817" lon="11.0530433"><ele>273.0</ele><time>2026-04-22T08:05:10.333Z</time></trkpt><trkpt lat="45.4897417" lon="11.0530717"><ele>273.0</ele><time>2026-04-22T08:05:11.333Z</time></trkpt><trkpt lat="45.4898667" lon="11.053075"><ele>273.0</ele><time>2026-04-22T08:05:13.333Z</time></trkpt><trkpt lat="45.4899483" lon="11.0531267"><ele>275.5</ele><time>2026-04-22T08:05:15.334Z</time></trkpt><trkpt lat="45.4900567" lon="11.0530767"><ele>278.0</ele><time>2026-04-22T08:05:17.333Z</time></trkpt><trkpt lat="45.49011" lon="11.0530283"><ele>280.5</ele><time>2026-04-22T08:05:18.334Z</time></trkpt><trkpt lat="45.4901667" lon="11.05297"><ele>283.0</ele><time>2026-04-22T08:05:19.334Z</time></trkpt><trkpt lat="45.4902183" lon="11.0528917"><ele>285.5</ele><time>2026-04-22T08:05:20.333Z</time></trkpt><trkpt lat="45.49027" lon="11.052805"><ele>288.0</ele><time>2026-04-22T08:05:21.333Z</time></trkpt><trkpt lat="45.490335" lon="11.0527167"><ele>288.0</ele><time>2026-04-22T08:05:22.334Z</time></trkpt><trkpt lat="45.4903917" lon="11.05261"><ele>288.0</ele><time>2026-04-22T08:05:23.333Z</time></trkpt><trkpt lat="45.4904767" lon="11.0525267"><ele>288.0</ele><time>2026-04-22T08:05:24.333Z</time></trkpt><trkpt lat="45.4905517" lon="11.0524683"><ele>288.0</ele><time>2026-04-22T08:05:25.333Z</time></trkpt><trkpt lat="45.490625" lon="11.0524183"><ele>288.0</ele><time>2026-04-22T08:05:26.333Z</time></trkpt><trkpt lat="45.4907067" lon="11.0523917"><ele>288.0</ele><time>2026-04-22T08:05:27.334Z</time></trkpt><trkpt lat="45.4908167" lon="11.0523683"><ele>289.0</ele><time>2026-04-22T08:05:28.334Z</time></trkpt><trkpt lat="45.4909067" lon="11.0523433"><ele>290.0</ele><time>2026-04-22T08:05:29.333Z</time></trkpt><trkpt lat="45.4910117" lon="11.0523383"><ele>291.0</ele><time>2026-04-22T08:05:30.334Z</time></trkpt><trkpt lat="45.4911033" lon="11.052305"><ele>292.0</ele><time>2026-04-22T08:05:31.334Z</time></trkpt><trkpt lat="45.4912" lon="11.0522733"><ele>293.0</ele><time>2026-04-22T08:05:32.333Z</time></trkpt><trkpt lat="45.491285" lon="11.0522217"><ele>293.0</ele><time>2026-04-22T08:05:33.333Z</time></trkpt><trkpt lat="45.49137" lon="11.0521733"><ele>293.0</ele><time>2026-04-22T08:05:34.333Z</time></trkpt><trkpt lat="45.491465" lon="11.0520983"><ele>293.0</ele><time>2026-04-22T08:05:35.333Z</time></trkpt><trkpt lat="45.4915417" lon="11.05203"><ele>293.0</ele><time>2026-04-22T08:05:36.334Z</time></trkpt><trkpt lat="45.4916117" lon="11.0519533"><ele>293.0</ele><time>2026-04-22T08:05:37.333Z</time></trkpt><trkpt lat="45.4916867" lon="11.0518767"><ele>293.0</ele><time>2026-04-22T08:05:38.333Z</time></trkpt><trkpt lat="45.4917583" lon="11.0517867"><ele>293.0</ele><time>2026-04-22T08:05:39.333Z</time></trkpt><trkpt lat="45.49183" lon="11.0516967"><ele>293.0</ele><time>2026-04-22T08:05:40.333Z</time></trkpt><trkpt lat="45.491905" lon="11.051605"><ele>293.0</ele><time>2026-04-22T08:05:41.333Z</time></trkpt><trkpt lat="45.4919817" lon="11.0515283"><ele>293.0</ele><time>2026-04-22T08:05:42.333Z</time></trkpt><trkpt lat="45.492075" lon="11.0513783"><ele>296.0</ele><time>2026-04-22T08:05:44.334Z</time></trkpt><trkpt lat="45.4921733" lon="11.05132"><ele>299.0</ele><time>2026-04-22T08:05:45.333Z</time></trkpt><trkpt lat="45.4922733" lon="11.0512667"><ele>302.0</ele><time>2026-04-22T08:05:46.333Z</time></trkpt><trkpt lat="45.4923667" lon="11.0512283"><ele>305.0</ele><time>2026-04-22T08:05:47.333Z</time></trkpt><trkpt lat="45.49246" lon="11.051225"><ele>308.0</ele><time>2026-04-22T08:05:48.334Z</time></trkpt><trkpt lat="45.4926" lon="11.0512967"><ele>308.0</ele><time>2026-04-22T08:05:49.333Z</time></trkpt><trkpt lat="45.4927167" lon="11.0513867"><ele>308.0</ele><time>2026-04-22T08:05:50.333Z</time></trkpt><trkpt lat="45.4928067" lon="11.0514967"><ele>308.0</ele><time>2026-04-22T08:05:51.334Z</time></trkpt><trkpt lat="45.49289" lon="11.0515133"><ele>308.0</ele><time>2026-04-22T08:05:52.334Z</time></trkpt><trkpt lat="45.4929933" lon="11.05156"><ele>308.0</ele><time>2026-04-22T08:05:53.333Z</time></trkpt><trkpt lat="45.4930933" lon="11.0515983"><ele>305.0</ele><time>2026-04-22T08:05:54.334Z</time></trkpt><trkpt lat="45.4931783" lon="11.0516617"><ele>302.0</ele><time>2026-04-22T08:05:55.333Z</time></trkpt><trkpt lat="45.493265" lon="11.0517117"><ele>299.0</ele><time>2026-04-22T08:05:56.333Z</time></trkpt><trkpt lat="45.4933517" lon="11.0517517"><ele>296.0</ele><time>2026-04-22T08:05:57.333Z</time></trkpt><trkpt lat="45.4934333" lon="11.0517867"><ele>293.0</ele><time>2026-04-22T08:05:58.333Z</time></trkpt><trkpt lat="45.49351" lon="11.0518133"><ele>290.0</ele><time>2026-04-22T08:05:59.333Z</time></trkpt><trkpt lat="45.4935933" lon="11.051855"><ele>290.0</ele><time>2026-04-22T08:06:00.333Z</time></trkpt><trkpt lat="45.49367" lon="11.0519083"><ele>290.0</ele><time>2026-04-22T08:06:01.333Z</time></trkpt><trkpt lat="45.4937533" lon="11.0519583"><ele>290.0</ele><time>2026-04-22T08:06:02.333Z</time></trkpt><trkpt lat="45.4938333" lon="11.052035"><ele>290.0</ele><time>2026-04-22T08:06:03.333Z</time></trkpt><trkpt lat="45.4939117" lon="11.052095"><ele>290.0</ele><time>2026-04-22T08:06:04.333Z</time></trkpt><trkpt lat="45.4939883" lon="11.0521567"><ele>290.0</ele><time>2026-04-22T08:06:05.333Z</time></trkpt><trkpt lat="45.4940617" lon="11.0521983"><ele>291.0</ele><time>2026-04-22T08:06:06.333Z</time></trkpt><trkpt lat="45.4941283" lon="11.0522183"><ele>292.0</ele><time>2026-04-22T08:06:07.332Z</time></trkpt><trkpt lat="45.4942317" lon="11.0522267"><ele>293.0</ele><time>2026-04-22T08:06:09.333Z</time></trkpt><trkpt lat="45.4942933" lon="11.052195"><ele>294.0</ele><time>2026-04-22T08:06:10.332Z</time></trkpt><trkpt lat="45.494355" lon="11.052175"><ele>295.0</ele><time>2026-04-22T08:06:11.332Z</time></trkpt><trkpt lat="45.49442" lon="11.052125"><ele>296.0</ele><time>2026-04-22T08:06:12.332Z</time></trkpt><trkpt lat="45.494485" lon="11.05207"><ele>296.0</ele><time>2026-04-22T08:06:13.333Z</time></trkpt><trkpt lat="45.4945683" lon="11.05199"><ele>296.0</ele><time>2026-04-22T08:06:14.332Z</time></trkpt><trkpt lat="45.4946467" lon="11.051945"><ele>296.0</ele><time>2026-04-22T08:06:15.332Z</time></trkpt><trkpt lat="45.4947233" lon="11.051915"><ele>296.0</ele><time>2026-04-22T08:06:16.332Z</time></trkpt><trkpt lat="45.49481" lon="11.051885"><ele>296.0</ele><time>2026-04-22T08:06:17.332Z</time></trkpt><trkpt lat="45.4949083" lon="11.051835"><ele>295.2</ele><time>2026-04-22T08:06:18.332Z</time></trkpt><trkpt lat="45.4950133" lon="11.0517867"><ele>294.40000000000003</ele><time>2026-04-22T08:06:19.332Z</time></trkpt><trkpt lat="45.4951133" lon="11.05174"><ele>293.6</ele><time>2026-04-22T08:06:20.332Z</time></trkpt><trkpt lat="45.4952067" lon="11.0516883"><ele>292.8</ele><time>2026-04-22T08:06:21.332Z</time></trkpt><trkpt lat="45.4953083" lon="11.0516333"><ele>292.0</ele><time>2026-04-22T08:06:22.332Z</time></trkpt><trkpt lat="45.4954033" lon="11.0516067"><ele>294.0</ele><time>2026-04-22T08:06:23.332Z</time></trkpt><trkpt lat="45.495485" lon="11.05159"><ele>296.0</ele><time>2026-04-22T08:06:24.332Z</time></trkpt><trkpt lat="45.4955533" lon="11.05164"><ele>298.0</ele><time>2026-04-22T08:06:25.333Z</time></trkpt><trkpt lat="45.4956283" lon="11.0517133"><ele>300.0</ele><time>2026-04-22T08:06:26.332Z</time></trkpt><trkpt lat="45.4957133" lon="11.0517733"><ele>302.0</ele><time>2026-04-22T08:06:27.332Z</time></trkpt><trkpt lat="45.495815" lon="11.0518217"><ele>302.0</ele><time>2026-04-22T08:06:28.332Z</time></trkpt><trkpt lat="45.49591" lon="11.05189"><ele>302.0</ele><time>2026-04-22T08:06:29.333Z</time></trkpt><trkpt lat="45.4960183" lon="11.0519117"><ele>302.0</ele><time>2026-04-22T08:06:30.332Z</time></trkpt><trkpt lat="45.4961217" lon="11.0519517"><ele>302.0</ele><time>2026-04-22T08:06:31.332Z</time></trkpt><trkpt lat="45.4962183" lon="11.0520067"><ele>302.0</ele><time>2026-04-22T08:06:32.332Z</time></trkpt><trkpt lat="45.49632" lon="11.052105"><ele>300.5</ele><time>2026-04-22T08:06:33.332Z</time></trkpt><trkpt lat="45.4964233" lon="11.052205"><ele>299.0</ele><time>2026-04-22T08:06:34.332Z</time></trkpt><trkpt lat="45.4965217" lon="11.05231"><ele>297.5</ele><time>2026-04-22T08:06:35.332Z</time></trkpt><trkpt lat="45.496635" lon="11.0524067"><ele>296.0</ele><time>2026-04-22T08:06:36.332Z</time></trkpt><trkpt lat="45.4967483" lon="11.0524883"><ele>296.0</ele><time>2026-04-22T08:06:37.333Z</time></trkpt><trkpt lat="45.49684" lon="11.0526133"><ele>296.0</ele><time>2026-04-22T08:06:38.333Z</time></trkpt><trkpt lat="45.49691" lon="11.05275"><ele>296.0</ele><time>2026-04-22T08:06:39.332Z</time></trkpt><trkpt lat="45.496975" lon="11.05286"><ele>296.0</ele><time>2026-04-22T08:06:40.332Z</time></trkpt><trkpt lat="45.497045" lon="11.0529267"><ele>296.0</ele><time>2026-04-22T08:06:41.332Z</time></trkpt><trkpt lat="45.4971067" lon="11.0529833"><ele>294.1666666666667</ele><time>2026-04-22T08:06:42.332Z</time></trkpt><trkpt lat="45.49716" lon="11.0530533"><ele>292.33333333333337</ele><time>2026-04-22T08:06:43.332Z</time></trkpt><trkpt lat="45.497225" lon="11.053125"><ele>290.5</ele><time>2026-04-22T08:06:44.333Z</time></trkpt><trkpt lat="45.4972933" lon="11.05319"><ele>288.6666666666667</ele><time>2026-04-22T08:06:45.332Z</time></trkpt><trkpt lat="45.497365" lon="11.0532483"><ele>286.8333333333333</ele><time>2026-04-22T08:06:46.333Z</time></trkpt><trkpt lat="45.497435" lon="11.053285"><ele>285.0</ele><time>2026-04-22T08:06:47.333Z</time></trkpt><trkpt lat="45.49749" lon="11.0533417"><ele>285.0</ele><time>2026-04-22T08:06:48.332Z</time></trkpt><trkpt lat="45.4975767" lon="11.053375"><ele>285.0</ele><time>2026-04-22T08:06:50.333Z</time></trkpt><trkpt lat="45.49766" lon="11.0534067"><ele>285.0</ele><time>2026-04-22T08:06:52.332Z</time></trkpt><trkpt lat="45.4977333" lon="11.05343"><ele>285.0</ele><time>2026-04-22T08:06:54.332Z</time></trkpt><trkpt lat="45.4977967" lon="11.053415"><ele>285.0</ele><time>2026-04-22T08:06:56.332Z</time></trkpt><trkpt lat="45.4978283" lon="11.0533133"><ele>285.0</ele><time>2026-04-22T08:06:58.333Z</time></trkpt><trkpt lat="45.49782" lon="11.0532"><ele>289.6</ele><time>2026-04-22T08:07:00.332Z</time></trkpt><trkpt lat="45.49777" lon="11.0530933"><ele>294.2</ele><time>2026-04-22T08:07:02.332Z</time></trkpt><trkpt lat="45.4976933" lon="11.05297"><ele>298.8</ele><time>2026-04-22T08:07:04.332Z</time></trkpt><trkpt lat="45.4976533" lon="11.0528317"><ele>303.4</ele><time>2026-04-22T08:07:06.332Z</time></trkpt><trkpt lat="45.497665" lon="11.0527283"><ele>308.0</ele><time>2026-04-22T08:07:08.332Z</time></trkpt><trkpt lat="45.4976883" lon="11.0526333"><ele>308.0</ele><time>2026-04-22T08:07:10.333Z</time></trkpt><trkpt lat="45.4976917" lon="11.0525283"><ele>308.0</ele><time>2026-04-22T08:07:12.332Z</time></trkpt><trkpt lat="45.497695" lon="11.0524183"><ele>308.0</ele><time>2026-04-22T08:07:14.332Z</time></trkpt><trkpt lat="45.497695" lon="11.0522967"><ele>308.0</ele><time>2026-04-22T08:07:16.332Z</time></trkpt><trkpt lat="45.4976917" lon="11.0521983"><ele>308.0</ele><time>2026-04-22T08:07:18.333Z</time></trkpt><trkpt lat="45.4976917" lon="11.0520933"><ele>308.0</ele><time>2026-04-22T08:07:20.332Z</time></trkpt><trkpt lat="45.4976783" lon="11.0519783"><ele>312.33333333333337</ele><time>2026-04-22T08:07:22.332Z</time></trkpt><trkpt lat="45.49766" lon="11.0518683"><ele>316.6666666666667</ele><time>2026-04-22T08:07:24.332Z</time></trkpt><trkpt lat="45.4976517" lon="11.051755"><ele>321.0</ele><time>2026-04-22T08:07:26.332Z</time></trkpt><trkpt lat="45.4976267" lon="11.0516183"><ele>325.3333333333333</ele><time>2026-04-22T08:07:28.332Z</time></trkpt><trkpt lat="45.4976067" lon="11.05149"><ele>329.66666666666663</ele><time>2026-04-22T08:07:30.332Z</time></trkpt><trkpt lat="45.4976017" lon="11.0514"><ele>334.0</ele><time>2026-04-22T08:07:32.332Z</time></trkpt><trkpt lat="45.4975717" lon="11.0512917"><ele>334.2857142857143</ele><time>2026-04-22T08:07:35.332Z</time></trkpt><trkpt lat="45.497582" lon="11.0513933"><ele>334.57142857142856</ele><time>2026-04-22T08:08:27.351Z</time></trkpt><trkpt lat="45.4976339" lon="11.0514605"><ele>334.8571428571429</ele><time>2026-04-22T08:08:29.364Z</time></trkpt><trkpt lat="45.4977109" lon="11.0514327"><ele>335.1428571428571</ele><time>2026-04-22T08:08:32.384Z</time></trkpt><trkpt lat="45.497769" lon="11.0513938"><ele>335.42857142857144</ele><time>2026-04-22T08:08:34.398Z</time></trkpt><trkpt lat="45.4978264" lon="11.0513565"><ele>335.7142857142857</ele><time>2026-04-22T08:08:36.41Z</time></trkpt><trkpt lat="45.49791" lon="11.0513057"><ele>336.0</ele><time>2026-04-22T08:08:39.332Z</time></trkpt><trkpt lat="45.4979939" lon="11.0512413"><ele>336.0</ele><time>2026-04-22T08:08:42.348Z</time></trkpt><trkpt lat="45.4980722" lon="11.0511707"><ele>336.0</ele><time>2026-04-22T08:08:44.361Z</time></trkpt><trkpt lat="45.4981316" lon="11.0510979"><ele>336.0</ele><time>2026-04-22T08:08:46.375Z</time></trkpt><trkpt lat="45.4981762" lon="11.0510296"><ele>336.0</ele><time>2026-04-22T08:08:48.388Z</time></trkpt><trkpt lat="45.4982174" lon="11.050937"><ele>336.0</ele><time>2026-04-22T08:08:50.401Z</time></trkpt><trkpt lat="45.4982184" lon="11.0507792"><ele>336.0</ele><time>2026-04-22T08:08:53.332Z</time></trkpt><trkpt lat="45.4982179" lon="11.0506287"><ele>336.4</ele><time>2026-04-22T08:08:55.332Z</time></trkpt><trkpt lat="45.4982418" lon="11.0505"><ele>336.8</ele><time>2026-04-22T08:08:57.332Z</time></trkpt><trkpt lat="45.4982811" lon="11.0503341"><ele>337.2</ele><time>2026-04-22T08:08:59.332Z</time></trkpt><trkpt lat="45.4983181" lon="11.0501742"><ele>337.59999999999997</ele><time>2026-04-22T08:09:01.332Z</time></trkpt><trkpt lat="45.4983504" lon="11.0500426"><ele>338.0</ele><time>2026-04-22T08:09:03.332Z</time></trkpt><trkpt lat="45.4983606" lon="11.0498838"><ele>338.0</ele><time>2026-04-22T08:09:05.332Z</time></trkpt><trkpt lat="45.4983677" lon="11.0497825"><ele>338.0</ele><time>2026-04-22T08:09:06.332Z</time></trkpt><trkpt lat="45.4983709" lon="11.049686"><ele>338.0</ele><time>2026-04-22T08:09:07.333Z</time></trkpt><trkpt lat="45.4983829" lon="11.0495881"><ele>338.0</ele><time>2026-04-22T08:09:08.332Z</time></trkpt><trkpt lat="45.4984202" lon="11.0494856"><ele>338.0</ele><time>2026-04-22T08:09:09.332Z</time></trkpt><trkpt lat="45.4984601" lon="11.0493918"><ele>338.0</ele><time>2026-04-22T08:09:10.333Z</time></trkpt><trkpt lat="45.4984931" lon="11.0492956"><ele>338.0</ele><time>2026-04-22T08:09:11.332Z</time></trkpt><trkpt lat="45.4985384" lon="11.0491968"><ele>337.0</ele><time>2026-04-22T08:09:12.332Z</time></trkpt><trkpt lat="45.4985717" lon="11.04909"><ele>336.0</ele><time>2026-04-22T08:09:13.332Z</time></trkpt><trkpt lat="45.4985867" lon="11.0489883"><ele>335.0</ele><time>2026-04-22T08:09:14.333Z</time></trkpt><trkpt lat="45.498565" lon="11.048895"><ele>334.0</ele><time>2026-04-22T08:09:15.332Z</time></trkpt><trkpt lat="45.4986067" lon="11.0487967"><ele>333.0</ele><time>2026-04-22T08:09:16.332Z</time></trkpt><trkpt lat="45.49865" lon="11.0486683"><ele>332.0</ele><time>2026-04-22T08:09:18.332Z</time></trkpt><trkpt lat="45.4986267" lon="11.0485583"><ele>332.0</ele><time>2026-04-22T08:09:21.332Z</time></trkpt><trkpt lat="45.4986" lon="11.04843"><ele>332.0</ele><time>2026-04-22T08:09:24.332Z</time></trkpt><trkpt lat="45.4986267" lon="11.0482867"><ele>332.0</ele><time>2026-04-22T08:09:26.333Z</time></trkpt><trkpt lat="45.4986333" lon="11.0481917"><ele>332.0</ele><time>2026-04-22T08:09:27.332Z</time></trkpt><trkpt lat="45.49866" lon="11.0480867"><ele>332.0</ele><time>2026-04-22T08:09:28.332Z</time></trkpt><trkpt lat="45.4986733" lon="11.047975"><ele>332.0</ele><time>2026-04-22T08:09:29.332Z</time></trkpt><trkpt lat="45.4986833" lon="11.0478767"><ele>331.0</ele><time>2026-04-22T08:09:30.332Z</time></trkpt><trkpt lat="45.4986917" lon="11.0477683"><ele>330.0</ele><time>2026-04-22T08:09:31.332Z</time></trkpt><trkpt lat="45.4986967" lon="11.0476517"><ele>329.0</ele><time>2026-04-22T08:09:32.332Z</time></trkpt><trkpt lat="45.4986967" lon="11.04755"><ele>328.0</ele><time>2026-04-22T08:09:33.332Z</time></trkpt><trkpt lat="45.498705" lon="11.0473833"><ele>327.0</ele><time>2026-04-22T08:09:35.332Z</time></trkpt><trkpt lat="45.4987783" lon="11.0473033"><ele>326.0</ele><time>2026-04-22T08:09:37.331Z</time></trkpt><trkpt lat="45.4988767" lon="11.0473367"><ele>323.1666666666667</ele><time>2026-04-22T08:09:39.332Z</time></trkpt><trkpt lat="45.4989117" lon="11.0474467"><ele>320.33333333333337</ele><time>2026-04-22T08:09:40.331Z</time></trkpt><trkpt lat="45.49897" lon="11.0474883"><ele>317.5</ele><time>2026-04-22T08:09:41.331Z</time></trkpt><trkpt lat="45.4990633" lon="11.047545"><ele>314.6666666666667</ele><time>2026-04-22T08:09:43.331Z</time></trkpt><trkpt lat="45.499145" lon="11.0475533"><ele>311.8333333333333</ele><time>2026-04-22T08:09:44.331Z</time></trkpt><trkpt lat="45.4992083" lon="11.0475467"><ele>309.0</ele><time>2026-04-22T08:09:45.331Z</time></trkpt><trkpt lat="45.4992717" lon="11.047545"><ele>309.0</ele><time>2026-04-22T08:09:46.331Z</time></trkpt><trkpt lat="45.499365" lon="11.0475167"><ele>309.0</ele><time>2026-04-22T08:09:48.331Z</time></trkpt><trkpt lat="45.4994417" lon="11.047465"><ele>309.0</ele><time>2026-04-22T08:09:49.331Z</time></trkpt><trkpt lat="45.499505" lon="11.047415"><ele>309.0</ele><time>2026-04-22T08:09:50.332Z</time></trkpt><trkpt lat="45.4995717" lon="11.0473283"><ele>309.0</ele><time>2026-04-22T08:09:51.331Z</time></trkpt><trkpt lat="45.4996567" lon="11.0472117"><ele>306.4</ele><time>2026-04-22T08:09:52.331Z</time></trkpt><trkpt lat="45.49974" lon="11.0470733"><ele>303.79999999999995</ele><time>2026-04-22T08:09:53.331Z</time></trkpt><trkpt lat="45.499825" lon="11.046955"><ele>301.20000000000005</ele><time>2026-04-22T08:09:54.331Z</time></trkpt><trkpt lat="45.49989" lon="11.0468633"><ele>298.6</ele><time>2026-04-22T08:09:55.332Z</time></trkpt><trkpt lat="45.4999567" lon="11.046785"><ele>296.0</ele><time>2026-04-22T08:09:56.331Z</time></trkpt><trkpt lat="45.50004" lon="11.0466767"><ele>296.40000000000003</ele><time>2026-04-22T08:09:57.331Z</time></trkpt><trkpt lat="45.500135" lon="11.04656"><ele>296.8</ele><time>2026-04-22T08:09:58.331Z</time></trkpt><trkpt lat="45.5002267" lon="11.0464233"><ele>297.20000000000005</ele><time>2026-04-22T08:09:59.331Z</time></trkpt><trkpt lat="45.5002767" lon="11.04632"><ele>297.6</ele><time>2026-04-22T08:10:00.331Z</time></trkpt><trkpt lat="45.5002983" lon="11.0462033"><ele>298.0</ele><time>2026-04-22T08:10:01.331Z</time></trkpt><trkpt lat="45.5002733" lon="11.04609"><ele>298.0</ele><time>2026-04-22T08:10:02.331Z</time></trkpt><trkpt lat="45.5002317" lon="11.0459833"><ele>298.0</ele><time>2026-04-22T08:10:03.331Z</time></trkpt><trkpt lat="45.5001817" lon="11.0458667"><ele>298.0</ele><time>2026-04-22T08:10:04.331Z</time></trkpt><trkpt lat="45.5001" lon="11.0457367"><ele>298.0</ele><time>2026-04-22T08:10:05.331Z</time></trkpt><trkpt lat="45.50002" lon="11.04561"><ele>298.0</ele><time>2026-04-22T08:10:06.331Z</time></trkpt><trkpt lat="45.4999617" lon="11.0454633"><ele>298.2</ele><time>2026-04-22T08:10:07.332Z</time></trkpt><trkpt lat="45.4999217" lon="11.0453183"><ele>298.4</ele><time>2026-04-22T08:10:08.331Z</time></trkpt><trkpt lat="45.4999067" lon="11.045185"><ele>298.59999999999997</ele><time>2026-04-22T08:10:09.331Z</time></trkpt><trkpt lat="45.499905" lon="11.0450617"><ele>298.8</ele><time>2026-04-22T08:10:10.332Z</time></trkpt><trkpt lat="45.4998967" lon="11.0449417"><ele>299.0</ele><time>2026-04-22T08:10:11.331Z</time></trkpt><trkpt lat="45.4998883" lon="11.044825"><ele>299.0</ele><time>2026-04-22T08:10:12.331Z</time></trkpt><trkpt lat="45.4998933" lon="11.0447"><ele>299.0</ele><time>2026-04-22T08:10:13.331Z</time></trkpt><trkpt lat="45.4999267" lon="11.044535"><ele>299.0</ele><time>2026-04-22T08:10:14.331Z</time></trkpt><trkpt lat="45.499975" lon="11.04437"><ele>299.0</ele><time>2026-04-22T08:10:15.331Z</time></trkpt><trkpt lat="45.50003" lon="11.0442117"><ele>299.0</ele><time>2026-04-22T08:10:16.331Z</time></trkpt><trkpt lat="45.50008" lon="11.0440683"><ele>299.0</ele><time>2026-04-22T08:10:17.331Z</time></trkpt><trkpt lat="45.5001233" lon="11.0439217"><ele>299.0</ele><time>2026-04-22T08:10:18.331Z</time></trkpt><trkpt lat="45.500135" lon="11.043775"><ele>299.0</ele><time>2026-04-22T08:10:19.331Z</time></trkpt><trkpt lat="45.500145" lon="11.0436167"><ele>299.0</ele><time>2026-04-22T08:10:20.331Z</time></trkpt><trkpt lat="45.500155" lon="11.04347"><ele>299.0</ele><time>2026-04-22T08:10:21.332Z</time></trkpt><trkpt lat="45.5001617" lon="11.043325"><ele>299.0</ele><time>2026-04-22T08:10:22.332Z</time></trkpt><trkpt lat="45.500175" lon="11.0431817"><ele>299.0</ele><time>2026-04-22T08:10:23.332Z</time></trkpt><trkpt lat="45.50019" lon="11.0430517"><ele>299.0</ele><time>2026-04-22T08:10:24.331Z</time></trkpt><trkpt lat="45.5002033" lon="11.0429333"><ele>299.0</ele><time>2026-04-22T08:10:25.331Z</time></trkpt><trkpt lat="45.5002017" lon="11.0428167"><ele>298.1666666666667</ele><time>2026-04-22T08:10:26.331Z</time></trkpt><trkpt lat="45.5001867" lon="11.0427117"><ele>297.33333333333337</ele><time>2026-04-22T08:10:27.331Z</time></trkpt><trkpt lat="45.5001717" lon="11.0425917"><ele>296.5</ele><time>2026-04-22T08:10:28.331Z</time></trkpt><trkpt lat="45.5001733" lon="11.042485"><ele>295.6666666666667</ele><time>2026-04-22T08:10:29.331Z</time></trkpt><trkpt lat="45.5001733" lon="11.0423583"><ele>294.8333333333333</ele><time>2026-04-22T08:10:30.332Z</time></trkpt><trkpt lat="45.5001817" lon="11.0422083"><ele>294.0</ele><time>2026-04-22T08:10:31.331Z</time></trkpt><trkpt lat="45.500195" lon="11.042055"><ele>292.4</ele><time>2026-04-22T08:10:32.331Z</time></trkpt><trkpt lat="45.500205" lon="11.04191"><ele>290.79999999999995</ele><time>2026-04-22T08:10:33.331Z</time></trkpt><trkpt lat="45.5002217" lon="11.0417767"><ele>289.20000000000005</ele><time>2026-04-22T08:10:34.332Z</time></trkpt><trkpt lat="45.500245" lon="11.041655"><ele>287.6</ele><time>2026-04-22T08:10:35.332Z</time></trkpt><trkpt lat="45.50029" lon="11.041545"><ele>286.0</ele><time>2026-04-22T08:10:36.331Z</time></trkpt><trkpt lat="45.5003333" lon="11.0414333"><ele>284.0</ele><time>2026-04-22T08:10:37.332Z</time></trkpt><trkpt lat="45.5003967" lon="11.0413383"><ele>282.0</ele><time>2026-04-22T08:10:38.331Z</time></trkpt><trkpt lat="45.50047" lon="11.0412717"><ele>280.0</ele><time>2026-04-22T08:10:39.331Z</time></trkpt><trkpt lat="45.50053" lon="11.0411783"><ele>278.0</ele><time>2026-04-22T08:10:40.331Z</time></trkpt><trkpt lat="45.500595" lon="11.0410917"><ele>276.0</ele><time>2026-04-22T08:10:41.331Z</time></trkpt><trkpt lat="45.5006783" lon="11.04102"><ele>276.2</ele><time>2026-04-22T08:10:42.331Z</time></trkpt><trkpt lat="45.5007533" lon="11.0409417"><ele>276.40000000000003</ele><time>2026-04-22T08:10:43.331Z</time></trkpt><trkpt lat="45.5008367" lon="11.0408717"><ele>276.6</ele><time>2026-04-22T08:10:44.331Z</time></trkpt><trkpt lat="45.5009267" lon="11.040805"><ele>276.8</ele><time>2026-04-22T08:10:45.331Z</time></trkpt><trkpt lat="45.501015" lon="11.0407417"><ele>277.0</ele><time>2026-04-22T08:10:46.332Z</time></trkpt><trkpt lat="45.5011017" lon="11.0406833"><ele>277.0</ele><time>2026-04-22T08:10:47.332Z</time></trkpt><trkpt lat="45.5011783" lon="11.0406317"><ele>277.0</ele><time>2026-04-22T08:10:48.332Z</time></trkpt><trkpt lat="45.5012367" lon="11.040565"><ele>277.0</ele><time>2026-04-22T08:10:49.331Z</time></trkpt><trkpt lat="45.50128" lon="11.0404883"><ele>277.0</ele><time>2026-04-22T08:10:50.331Z</time></trkpt><trkpt lat="45.5013233" lon="11.0403233"><ele>277.0</ele><time>2026-04-22T08:10:52.331Z</time></trkpt><trkpt lat="45.5013517" lon="11.0402167"><ele>277.0</ele><time>2026-04-22T08:10:53.331Z</time></trkpt><trkpt lat="45.501385" lon="11.040105"><ele>280.6</ele><time>2026-04-22T08:10:54.331Z</time></trkpt><trkpt lat="45.5014217" lon="11.0399833"><ele>284.2</ele><time>2026-04-22T08:10:55.331Z</time></trkpt><trkpt lat="45.5014717" lon="11.039835"><ele>287.8</ele><time>2026-04-22T08:10:56.331Z</time></trkpt><trkpt lat="45.501525" lon="11.0396967"><ele>291.4</ele><time>2026-04-22T08:10:57.331Z</time></trkpt><trkpt lat="45.5015717" lon="11.0395583"><ele>295.0</ele><time>2026-04-22T08:10:58.331Z</time></trkpt><trkpt lat="45.5016083" lon="11.0394217"><ele>295.0</ele><time>2026-04-22T08:10:59.331Z</time></trkpt><trkpt lat="45.5016483" lon="11.039295"><ele>295.0</ele><time>2026-04-22T08:11:00.331Z</time></trkpt><trkpt lat="45.5016883" lon="11.0391867"><ele>295.0</ele><time>2026-04-22T08:11:01.332Z</time></trkpt><trkpt lat="45.5017167" lon="11.0390517"><ele>295.0</ele><time>2026-04-22T08:11:02.331Z</time></trkpt><trkpt lat="45.5017517" lon="11.03895"><ele>295.0</ele><time>2026-04-22T08:11:03.331Z</time></trkpt><trkpt lat="45.5017933" lon="11.0388583"><ele>295.0</ele><time>2026-04-22T08:11:04.332Z</time></trkpt><trkpt lat="45.5018367" lon="11.0387633"><ele>293.5</ele><time>2026-04-22T08:11:05.331Z</time></trkpt><trkpt lat="45.5018783" lon="11.0386833"><ele>292.0</ele><time>2026-04-22T08:11:06.331Z</time></trkpt><trkpt lat="45.5019183" lon="11.0386017"><ele>290.5</ele><time>2026-04-22T08:11:07.331Z</time></trkpt><trkpt lat="45.5019633" lon="11.038685"><ele>289.0</ele><time>2026-04-22T08:11:09.332Z</time></trkpt><trkpt lat="45.502" lon="11.0388183"><ele>287.5</ele><time>2026-04-22T08:11:11.331Z</time></trkpt><trkpt lat="45.5020467" lon="11.0389567"><ele>286.0</ele><time>2026-04-22T08:11:13.332Z</time></trkpt><trkpt lat="45.5020917" lon="11.0390417"><ele>285.16666666666663</ele><time>2026-04-22T08:11:14.331Z</time></trkpt><trkpt lat="45.50213" lon="11.0391233"><ele>284.3333333333333</ele><time>2026-04-22T08:11:15.331Z</time></trkpt><trkpt lat="45.5021633" lon="11.0392133"><ele>283.5</ele><time>2026-04-22T08:11:16.331Z</time></trkpt><trkpt lat="45.5021933" lon="11.0393017"><ele>282.6666666666667</ele><time>2026-04-22T08:11:17.331Z</time></trkpt><trkpt lat="45.5022283" lon="11.039385"><ele>281.83333333333337</ele><time>2026-04-22T08:11:18.331Z</time></trkpt><trkpt lat="45.5022633" lon="11.0394983"><ele>281.0</ele><time>2026-04-22T08:11:19.331Z</time></trkpt><trkpt lat="45.5023" lon="11.03961"><ele>284.40000000000003</ele><time>2026-04-22T08:11:20.331Z</time></trkpt><trkpt lat="45.5022983" lon="11.039735"><ele>287.8</ele><time>2026-04-22T08:11:21.331Z</time></trkpt><trkpt lat="45.5023017" lon="11.0398633"><ele>291.20000000000005</ele><time>2026-04-22T08:11:22.331Z</time></trkpt><trkpt lat="45.5023333" lon="11.0400233"><ele>294.6</ele><time>2026-04-22T08:11:23.332Z</time></trkpt><trkpt lat="45.5023567" lon="11.0401517"><ele>298.0</ele><time>2026-04-22T08:11:24.331Z</time></trkpt><trkpt lat="45.5023683" lon="11.0402567"><ele>301.0</ele><time>2026-04-22T08:11:25.332Z</time></trkpt><trkpt lat="45.5024083" lon="11.04041"><ele>304.0</ele><time>2026-04-22T08:11:27.331Z</time></trkpt><trkpt lat="45.5025017" lon="11.040515"><ele>307.0</ele><time>2026-04-22T08:11:29.331Z</time></trkpt><trkpt lat="45.5025683" lon="11.0406033"><ele>310.0</ele><time>2026-04-22T08:11:31.332Z</time></trkpt><trkpt lat="45.5026233" lon="11.0406933"><ele>313.0</ele><time>2026-04-22T08:11:33.331Z</time></trkpt><trkpt lat="45.50261" lon="11.0407833"><ele>317.2</ele><time>2026-04-22T08:11:36.331Z</time></trkpt><trkpt lat="45.502545" lon="11.0408517"><ele>321.4</ele><time>2026-04-22T08:11:38.331Z</time></trkpt><trkpt lat="45.5024567" lon="11.0409133"><ele>325.59999999999997</ele><time>2026-04-22T08:11:40.331Z</time></trkpt><trkpt lat="45.5023833" lon="11.0410117"><ele>329.8</ele><time>2026-04-22T08:11:42.331Z</time></trkpt><trkpt lat="45.5023683" lon="11.041145"><ele>334.0</ele><time>2026-04-22T08:11:44.331Z</time></trkpt><trkpt lat="45.50235" lon="11.0413167"><ele>334.0</ele><time>2026-04-22T08:11:46.331Z</time></trkpt><trkpt lat="45.5023267" lon="11.04149"><ele>334.0</ele><time>2026-04-22T08:11:48.332Z</time></trkpt><trkpt lat="45.5023267" lon="11.0416567"><ele>334.0</ele><time>2026-04-22T08:11:50.331Z</time></trkpt><trkpt lat="45.5023533" lon="11.0418167"><ele>334.0</ele><time>2026-04-22T08:11:52.331Z</time></trkpt><trkpt lat="45.5023867" lon="11.0419383"><ele>334.0</ele><time>2026-04-22T08:11:54.332Z</time></trkpt><trkpt lat="45.5024433" lon="11.0419817"><ele>337.2</ele><time>2026-04-22T08:11:57.331Z</time></trkpt><trkpt lat="45.5024817" lon="11.041895"><ele>340.4</ele><time>2026-04-22T08:11:59.331Z</time></trkpt><trkpt lat="45.502545" lon="11.0417933"><ele>343.6</ele><time>2026-04-22T08:12:01.331Z</time></trkpt><trkpt lat="45.5026267" lon="11.0417583"><ele>346.8</ele><time>2026-04-22T08:12:03.332Z</time></trkpt><trkpt lat="45.5026567" lon="11.0418967"><ele>350.0</ele><time>2026-04-22T08:12:05.332Z</time></trkpt><trkpt lat="45.5026867" lon="11.0420633"><ele>350.0</ele><time>2026-04-22T08:12:07.331Z</time></trkpt><trkpt lat="45.5027067" lon="11.042235"><ele>350.0</ele><time>2026-04-22T08:12:09.331Z</time></trkpt><trkpt lat="45.5027433" lon="11.0423083"><ele>350.0</ele><time>2026-04-22T08:12:10.331Z</time></trkpt><trkpt lat="45.50283" lon="11.0424233"><ele>350.0</ele><time>2026-04-22T08:12:12.331Z</time></trkpt><trkpt lat="45.5029033" lon="11.04251"><ele>350.0</ele><time>2026-04-22T08:12:14.331Z</time></trkpt><trkpt lat="45.5029667" lon="11.04263"><ele>352.6</ele><time>2026-04-22T08:12:16.331Z</time></trkpt><trkpt lat="45.503" lon="11.04273"><ele>355.2</ele><time>2026-04-22T08:12:18.331Z</time></trkpt><trkpt lat="45.5030417" lon="11.0428733"><ele>357.79999999999995</ele><time>2026-04-22T08:12:20.331Z</time></trkpt><trkpt lat="45.503065" lon="11.042975"><ele>360.4</ele><time>2026-04-22T08:12:22.331Z</time></trkpt><trkpt lat="45.50306" lon="11.0431217"><ele>363.0</ele><time>2026-04-22T08:12:24.331Z</time></trkpt><trkpt lat="45.50304" lon="11.0432717"><ele>366.1666666666667</ele><time>2026-04-22T08:12:26.331Z</time></trkpt><trkpt lat="45.5030033" lon="11.0433683"><ele>369.3333333333333</ele><time>2026-04-22T08:12:28.332Z</time></trkpt><trkpt lat="45.5030517" lon="11.0434317"><ele>372.5</ele><time>2026-04-22T08:12:31.331Z</time></trkpt><trkpt lat="45.50312" lon="11.043465"><ele>375.66666666666663</ele><time>2026-04-22T08:12:34.331Z</time></trkpt><trkpt lat="45.5031883" lon="11.0435933"><ele>378.8333333333333</ele><time>2026-04-22T08:12:36.331Z</time></trkpt><trkpt lat="45.5032283" lon="11.0436783"><ele>382.0</ele><time>2026-04-22T08:12:37.331Z</time></trkpt><trkpt lat="45.5032733" lon="11.0437617"><ele>382.0</ele><time>2026-04-22T08:12:38.331Z</time></trkpt><trkpt lat="45.50334" lon="11.043905"><ele>382.0</ele><time>2026-04-22T08:12:40.332Z</time></trkpt><trkpt lat="45.5034217" lon="11.044035"><ele>382.0</ele><time>2026-04-22T08:12:42.332Z</time></trkpt><trkpt lat="45.50352" lon="11.044145"><ele>382.0</ele><time>2026-04-22T08:12:44.331Z</time></trkpt><trkpt lat="45.5036183" lon="11.04421"><ele>383.8</ele><time>2026-04-22T08:12:46.332Z</time></trkpt><trkpt lat="45.5037233" lon="11.0442117"><ele>385.6</ele><time>2026-04-22T08:12:48.331Z</time></trkpt><trkpt lat="45.5038133" lon="11.044255"><ele>387.40000000000003</ele><time>2026-04-22T08:12:50.331Z</time></trkpt><trkpt lat="45.5039133" lon="11.0442183"><ele>389.20000000000005</ele><time>2026-04-22T08:12:53.33Z</time></trkpt><trkpt lat="45.5040233" lon="11.0442183"><ele>391.0</ele><time>2026-04-22T08:12:55.33Z</time></trkpt><trkpt lat="45.504115" lon="11.0442233"><ele>390.83333333333337</ele><time>2026-04-22T08:12:57.33Z</time></trkpt><trkpt lat="45.5041867" lon="11.0442083"><ele>390.6666666666667</ele><time>2026-04-22T08:12:59.331Z</time></trkpt><trkpt lat="45.5042767" lon="11.0441817"><ele>390.5</ele><time>2026-04-22T08:13:01.33Z</time></trkpt><trkpt lat="45.5043317" lon="11.044135"><ele>390.33333333333337</ele><time>2026-04-22T08:13:02.33Z</time></trkpt><trkpt lat="45.50442" lon="11.0440833"><ele>390.1666666666667</ele><time>2026-04-22T08:13:04.33Z</time></trkpt><trkpt lat="45.5045017" lon="11.044035"><ele>390.0</ele><time>2026-04-22T08:13:06.33Z</time></trkpt><trkpt lat="45.5045617" lon="11.0439533"><ele>393.5</ele><time>2026-04-22T08:13:08.33Z</time></trkpt><trkpt lat="45.504625" lon="11.0439283"><ele>397.0</ele><time>2026-04-22T08:13:10.33Z</time></trkpt><trkpt lat="45.504685" lon="11.04388"><ele>400.5</ele><time>2026-04-22T08:13:12.33Z</time></trkpt><trkpt lat="45.5047667" lon="11.043845"><ele>404.0</ele><time>2026-04-22T08:13:14.33Z</time></trkpt><trkpt lat="45.504825" lon="11.0438"><ele>407.5</ele><time>2026-04-22T08:13:16.331Z</time></trkpt><trkpt lat="45.5048867" lon="11.0437517"><ele>411.0</ele><time>2026-04-22T08:13:18.33Z</time></trkpt><trkpt lat="45.5049783" lon="11.0437117"><ele>411.0</ele><time>2026-04-22T08:13:20.33Z</time></trkpt><trkpt lat="45.5050467" lon="11.0436867"><ele>411.0</ele><time>2026-04-22T08:13:22.33Z</time></trkpt><trkpt lat="45.5051133" lon="11.04366"><ele>411.0</ele><time>2026-04-22T08:13:24.33Z</time></trkpt><trkpt lat="45.5051967" lon="11.0436833"><ele>411.0</ele><time>2026-04-22T08:13:26.33Z</time></trkpt><trkpt lat="45.50531" lon="11.0437183"><ele>411.0</ele><time>2026-04-22T08:13:28.33Z</time></trkpt><trkpt lat="45.50539" lon="11.0437717"><ele>411.0</ele><time>2026-04-22T08:13:30.33Z</time></trkpt><trkpt lat="45.505415" lon="11.0438733"><ele>413.6</ele><time>2026-04-22T08:13:55.33Z</time></trkpt><trkpt lat="45.5054483" lon="11.0439583"><ele>416.20000000000005</ele><time>2026-04-22T08:13:57.33Z</time></trkpt><trkpt lat="45.5055183" lon="11.0440383"><ele>418.79999999999995</ele><time>2026-04-22T08:13:59.33Z</time></trkpt><trkpt lat="45.5056467" lon="11.0440633"><ele>421.4</ele><time>2026-04-22T08:14:01.33Z</time></trkpt><trkpt lat="45.505735" lon="11.044055"><ele>424.0</ele><time>2026-04-22T08:14:02.33Z</time></trkpt><trkpt lat="45.5058133" lon="11.0440333"><ele>424.00000000000006</ele><time>2026-04-22T08:14:03.331Z</time></trkpt><trkpt lat="45.505895" lon="11.0440283"><ele>424.0</ele><time>2026-04-22T08:14:04.33Z</time></trkpt><trkpt lat="45.5059833" lon="11.0440567"><ele>424.0</ele><time>2026-04-22T08:14:05.33Z</time></trkpt><trkpt lat="45.5060733" lon="11.0440567"><ele>424.0</ele><time>2026-04-22T08:14:06.33Z</time></trkpt><trkpt lat="45.5061617" lon="11.04404"><ele>424.00000000000006</ele><time>2026-04-22T08:14:07.33Z</time></trkpt><trkpt lat="45.5062533" lon="11.0440383"><ele>424.0</ele><time>2026-04-22T08:14:08.33Z</time></trkpt><trkpt lat="45.5063417" lon="11.0440383"><ele>425.00000000000006</ele><time>2026-04-22T08:14:09.33Z</time></trkpt><trkpt lat="45.50643" lon="11.04405"><ele>426.0</ele><time>2026-04-22T08:14:10.33Z</time></trkpt><trkpt lat="45.506515" lon="11.044055"><ele>427.0</ele><time>2026-04-22T08:14:11.33Z</time></trkpt><trkpt lat="45.506595" lon="11.0440617"><ele>428.0</ele><time>2026-04-22T08:14:12.33Z</time></trkpt><trkpt lat="45.5066667" lon="11.0440633"><ele>429.00000000000006</ele><time>2026-04-22T08:14:13.331Z</time></trkpt><trkpt lat="45.5067367" lon="11.04407"><ele>430.0</ele><time>2026-04-22T08:14:14.33Z</time></trkpt><trkpt lat="45.5068483" lon="11.04417"><ele>430.2</ele><time>2026-04-22T08:14:16.33Z</time></trkpt><trkpt lat="45.5069267" lon="11.044235"><ele>430.4</ele><time>2026-04-22T08:14:17.33Z</time></trkpt><trkpt lat="45.5070083" lon="11.0442867"><ele>430.6</ele><time>2026-04-22T08:14:18.33Z</time></trkpt><trkpt lat="45.507095" lon="11.04434"><ele>430.8</ele><time>2026-04-22T08:14:19.33Z</time></trkpt><trkpt lat="45.50718" lon="11.0444117"><ele>431.0</ele><time>2026-04-22T08:14:20.33Z</time></trkpt><trkpt lat="45.5072717" lon="11.0444667"><ele>432.16666666666663</ele><time>2026-04-22T08:14:21.33Z</time></trkpt><trkpt lat="45.50735" lon="11.0445133"><ele>433.3333333333333</ele><time>2026-04-22T08:14:22.33Z</time></trkpt><trkpt lat="45.50743" lon="11.0445567"><ele>434.5</ele><time>2026-04-22T08:14:23.33Z</time></trkpt><trkpt lat="45.507515" lon="11.0446"><ele>435.66666666666663</ele><time>2026-04-22T08:14:24.331Z</time></trkpt><trkpt lat="45.5076033" lon="11.04464"><ele>436.8333333333333</ele><time>2026-04-22T08:14:25.331Z</time></trkpt><trkpt lat="45.5076933" lon="11.0446667"><ele>438.0</ele><time>2026-04-22T08:14:26.33Z</time></trkpt><trkpt lat="45.507785" lon="11.0446867"><ele>438.0</ele><time>2026-04-22T08:14:27.33Z</time></trkpt><trkpt lat="45.5078733" lon="11.0446933"><ele>438.0</ele><time>2026-04-22T08:14:28.33Z</time></trkpt><trkpt lat="45.5079533" lon="11.0446967"><ele>438.0</ele><time>2026-04-22T08:14:29.33Z</time></trkpt><trkpt lat="45.508025" lon="11.044675"><ele>438.0</ele><time>2026-04-22T08:14:30.33Z</time></trkpt><trkpt lat="45.5080933" lon="11.044635"><ele>438.0</ele><time>2026-04-22T08:14:31.33Z</time></trkpt><trkpt lat="45.5081583" lon="11.04459"><ele>438.0</ele><time>2026-04-22T08:14:32.33Z</time></trkpt><trkpt lat="45.5082183" lon="11.044545"><ele>437.0</ele><time>2026-04-22T08:14:33.33Z</time></trkpt><trkpt lat="45.5082817" lon="11.044485"><ele>436.0</ele><time>2026-04-22T08:14:34.33Z</time></trkpt><trkpt lat="45.508335" lon="11.0444167"><ele>435.0</ele><time>2026-04-22T08:14:35.33Z</time></trkpt><trkpt lat="45.50842" lon="11.0442933"><ele>434.0</ele><time>2026-04-22T08:14:37.33Z</time></trkpt><trkpt lat="45.508475" lon="11.0442467"><ele>433.0</ele><time>2026-04-22T08:14:38.331Z</time></trkpt><trkpt lat="45.508555" lon="11.0442"><ele>432.0</ele><time>2026-04-22T08:14:40.33Z</time></trkpt><trkpt lat="45.5086767" lon="11.0442233"><ele>431.20000000000005</ele><time>2026-04-22T08:14:42.33Z</time></trkpt><trkpt lat="45.5087483" lon="11.0442333"><ele>430.40000000000003</ele><time>2026-04-22T08:14:43.33Z</time></trkpt><trkpt lat="45.5088267" lon="11.0442567"><ele>429.59999999999997</ele><time>2026-04-22T08:14:44.33Z</time></trkpt><trkpt lat="45.5089133" lon="11.04429"><ele>428.79999999999995</ele><time>2026-04-22T08:14:45.33Z</time></trkpt><trkpt lat="45.509" lon="11.0443367"><ele>428.0</ele><time>2026-04-22T08:14:46.33Z</time></trkpt><trkpt lat="45.5091483" lon="11.04445"><ele>428.0</ele><time>2026-04-22T08:14:47.33Z</time></trkpt><trkpt lat="45.5092683" lon="11.044545"><ele>427.99999999999994</ele><time>2026-04-22T08:14:48.33Z</time></trkpt><trkpt lat="45.5093617" lon="11.0445867"><ele>427.99999999999994</ele><time>2026-04-22T08:14:49.33Z</time></trkpt><trkpt lat="45.509455" lon="11.0446433"><ele>428.0</ele><time>2026-04-22T08:14:50.331Z</time></trkpt><trkpt lat="45.50955" lon="11.044705"><ele>428.0</ele><time>2026-04-22T08:14:51.331Z</time></trkpt><trkpt lat="45.5096467" lon="11.0447817"><ele>430.25</ele><time>2026-04-22T08:14:52.33Z</time></trkpt><trkpt lat="45.5097483" lon="11.0448633"><ele>432.5</ele><time>2026-04-22T08:14:53.331Z</time></trkpt><trkpt lat="45.509875" lon="11.0449267"><ele>434.75</ele><time>2026-04-22T08:14:54.33Z</time></trkpt><trkpt lat="45.5099667" lon="11.044995"><ele>437.0</ele><time>2026-04-22T08:14:55.331Z</time></trkpt><trkpt lat="45.5100733" lon="11.0450767"><ele>437.0</ele><time>2026-04-22T08:14:56.33Z</time></trkpt><trkpt lat="45.5101833" lon="11.045145"><ele>437.00000000000006</ele><time>2026-04-22T08:14:57.331Z</time></trkpt><trkpt lat="45.5102833" lon="11.045225"><ele>437.00000000000006</ele><time>2026-04-22T08:14:58.33Z</time></trkpt><trkpt lat="45.5103817" lon="11.0453017"><ele>437.0</ele><time>2026-04-22T08:14:59.33Z</time></trkpt><trkpt lat="45.5104617" lon="11.0453667"><ele>437.0</ele><time>2026-04-22T08:15:00.33Z</time></trkpt><trkpt lat="45.5105483" lon="11.0454417"><ele>437.20000000000005</ele><time>2026-04-22T08:15:01.33Z</time></trkpt><trkpt lat="45.5106333" lon="11.04551"><ele>437.40000000000003</ele><time>2026-04-22T08:15:02.33Z</time></trkpt><trkpt lat="45.5107167" lon="11.0455967"><ele>437.59999999999997</ele><time>2026-04-22T08:15:03.33Z</time></trkpt><trkpt lat="45.5108067" lon="11.0456783"><ele>437.79999999999995</ele><time>2026-04-22T08:15:04.331Z</time></trkpt><trkpt lat="45.5108933" lon="11.0457867"><ele>438.0</ele><time>2026-04-22T08:15:05.331Z</time></trkpt><trkpt lat="45.5109833" lon="11.0458783"><ele>438.0</ele><time>2026-04-22T08:15:06.33Z</time></trkpt><trkpt lat="45.5110717" lon="11.0459567"><ele>437.99999999999994</ele><time>2026-04-22T08:15:07.33Z</time></trkpt><trkpt lat="45.511145" lon="11.0460283"><ele>437.99999999999994</ele><time>2026-04-22T08:15:08.33Z</time></trkpt><trkpt lat="45.5112017" lon="11.046095"><ele>438.0</ele><time>2026-04-22T08:15:09.33Z</time></trkpt><trkpt lat="45.5112933" lon="11.0462083"><ele>438.0</ele><time>2026-04-22T08:15:11.33Z</time></trkpt><trkpt lat="45.5113267" lon="11.0461"><ele>438.0</ele><time>2026-04-22T08:15:13.33Z</time></trkpt><trkpt lat="45.5112733" lon="11.0460483"><ele>438.0</ele><time>2026-04-22T08:15:17.33Z</time></trkpt><trkpt lat="45.5112383" lon="11.0461367"><ele>438.0</ele><time>2026-04-22T08:15:19.33Z</time></trkpt><trkpt lat="45.5112467" lon="11.0463117"><ele>438.0</ele><time>2026-04-22T08:15:21.33Z</time></trkpt><trkpt lat="45.511255" lon="11.0464033"><ele>438.0</ele><time>2026-04-22T08:15:22.331Z</time></trkpt><trkpt lat="45.51124" lon="11.0465033"><ele>438.0</ele><time>2026-04-22T08:15:23.33Z</time></trkpt><trkpt lat="45.5112233" lon="11.046605"><ele>438.0</ele><time>2026-04-22T08:15:24.33Z</time></trkpt><trkpt lat="45.5112133" lon="11.046695"><ele>437.99999999999994</ele><time>2026-04-22T08:15:25.331Z</time></trkpt><trkpt lat="45.51123" lon="11.0468667"><ele>437.99999999999994</ele><time>2026-04-22T08:15:27.33Z</time></trkpt><trkpt lat="45.5112833" lon="11.0469333"><ele>438.0</ele><time>2026-04-22T08:15:28.331Z</time></trkpt><trkpt lat="45.51141" lon="11.0470083"><ele>438.0</ele><time>2026-04-22T08:15:29.33Z</time></trkpt><trkpt lat="45.5115067" lon="11.0470683"><ele>438.0</ele><time>2026-04-22T08:15:30.33Z</time></trkpt><trkpt lat="45.51159" lon="11.04714"><ele>437.99999999999994</ele><time>2026-04-22T08:15:31.33Z</time></trkpt><trkpt lat="45.5116567" lon="11.047215"><ele>437.99999999999994</ele><time>2026-04-22T08:15:32.331Z</time></trkpt><trkpt lat="45.5117083" lon="11.0472783"><ele>438.0</ele><time>2026-04-22T08:15:33.33Z</time></trkpt><trkpt lat="45.5117517" lon="11.0474167"><ele>438.0</ele><time>2026-04-22T08:15:35.33Z</time></trkpt><trkpt lat="45.5118433" lon="11.0475417"><ele>438.0</ele><time>2026-04-22T08:15:37.33Z</time></trkpt><trkpt lat="45.5118933" lon="11.04762"><ele>438.0</ele><time>2026-04-22T08:15:38.331Z</time></trkpt><trkpt lat="45.5119567" lon="11.047685"><ele>438.0</ele><time>2026-04-22T08:15:39.33Z</time></trkpt><trkpt lat="45.5120283" lon="11.0477533"><ele>438.0</ele><time>2026-04-22T08:15:40.33Z</time></trkpt><trkpt lat="45.5121017" lon="11.0478217"><ele>438.0</ele><time>2026-04-22T08:15:41.331Z</time></trkpt><trkpt lat="45.5121667" lon="11.0478833"><ele>438.0</ele><time>2026-04-22T08:15:42.33Z</time></trkpt><trkpt lat="45.5122383" lon="11.0479433"><ele>440.1666666666667</ele><time>2026-04-22T08:15:43.331Z</time></trkpt><trkpt lat="45.5123183" lon="11.04799"><ele>442.33333333333337</ele><time>2026-04-22T08:15:44.33Z</time></trkpt><trkpt lat="45.5124017" lon="11.04803"><ele>444.5</ele><time>2026-04-22T08:15:45.33Z</time></trkpt><trkpt lat="45.5124867" lon="11.0480633"><ele>446.6666666666667</ele><time>2026-04-22T08:15:46.33Z</time></trkpt><trkpt lat="45.5125767" lon="11.04807"><ele>448.83333333333337</ele><time>2026-04-22T08:15:47.33Z</time></trkpt><trkpt lat="45.5126467" lon="11.048135"><ele>451.0</ele><time>2026-04-22T08:15:48.33Z</time></trkpt><trkpt lat="45.512715" lon="11.04817"><ele>451.00000000000006</ele><time>2026-04-22T08:15:49.33Z</time></trkpt><trkpt lat="45.5127817" lon="11.0481917"><ele>451.0</ele><time>2026-04-22T08:15:50.33Z</time></trkpt><trkpt lat="45.5128483" lon="11.04821"><ele>451.0</ele><time>2026-04-22T08:15:51.33Z</time></trkpt><trkpt lat="45.512925" lon="11.04822"><ele>451.0</ele><time>2026-04-22T08:15:52.33Z</time></trkpt><trkpt lat="45.5130067" lon="11.0482417"><ele>451.00000000000006</ele><time>2026-04-22T08:15:53.33Z</time></trkpt><trkpt lat="45.5130883" lon="11.048265"><ele>451.0</ele><time>2026-04-22T08:15:54.33Z</time></trkpt><trkpt lat="45.51317" lon="11.048275"><ele>451.2857142857143</ele><time>2026-04-22T08:15:55.33Z</time></trkpt><trkpt lat="45.51325" lon="11.0482783"><ele>451.57142857142856</ele><time>2026-04-22T08:15:56.331Z</time></trkpt><trkpt lat="45.513335" lon="11.0482883"><ele>451.85714285714283</ele><time>2026-04-22T08:15:57.33Z</time></trkpt><trkpt lat="45.513415" lon="11.04831"><ele>452.1428571428571</ele><time>2026-04-22T08:15:58.33Z</time></trkpt><trkpt lat="45.5134817" lon="11.0483333"><ele>452.42857142857144</ele><time>2026-04-22T08:15:59.33Z</time></trkpt><trkpt lat="45.513545" lon="11.0483583"><ele>452.71428571428567</ele><time>2026-04-22T08:16:00.33Z</time></trkpt><trkpt lat="45.5136067" lon="11.0483783"><ele>452.99999999999994</ele><time>2026-04-22T08:16:01.33Z</time></trkpt><trkpt lat="45.5136767" lon="11.0484117"><ele>453.71428571428567</ele><time>2026-04-22T08:16:02.33Z</time></trkpt><trkpt lat="45.5137483" lon="11.048435"><ele>454.42857142857144</ele><time>2026-04-22T08:16:03.33Z</time></trkpt><trkpt lat="45.5138117" lon="11.0484617"><ele>455.1428571428571</ele><time>2026-04-22T08:16:04.33Z</time></trkpt><trkpt lat="45.513875" lon="11.0485017"><ele>455.85714285714283</ele><time>2026-04-22T08:16:05.33Z</time></trkpt><trkpt lat="45.5139383" lon="11.0485217"><ele>456.57142857142856</ele><time>2026-04-22T08:16:06.329Z</time></trkpt><trkpt lat="45.51401" lon="11.04854"><ele>457.2857142857143</ele><time>2026-04-22T08:16:07.329Z</time></trkpt><trkpt lat="45.5140817" lon="11.048555"><ele>458.0</ele><time>2026-04-22T08:16:08.329Z</time></trkpt><trkpt lat="45.5141967" lon="11.0485883"><ele>457.99999999999994</ele><time>2026-04-22T08:16:10.329Z</time></trkpt><trkpt lat="45.5142967" lon="11.0486433"><ele>458.0</ele><time>2026-04-22T08:16:12.329Z</time></trkpt><trkpt lat="45.51436" lon="11.0486867"><ele>458.0</ele><time>2026-04-22T08:16:13.329Z</time></trkpt><trkpt lat="45.5144333" lon="11.0487317"><ele>458.0</ele><time>2026-04-22T08:16:14.329Z</time></trkpt><trkpt lat="45.5145133" lon="11.0487583"><ele>457.99999999999994</ele><time>2026-04-22T08:16:15.329Z</time></trkpt><trkpt lat="45.514595" lon="11.0487833"><ele>458.0</ele><time>2026-04-22T08:16:16.329Z</time></trkpt><trkpt lat="45.514685" lon="11.0488017"><ele>458.2</ele><time>2026-04-22T08:16:17.33Z</time></trkpt><trkpt lat="45.5147683" lon="11.0488217"><ele>458.4</ele><time>2026-04-22T08:16:18.329Z</time></trkpt><trkpt lat="45.5148567" lon="11.048835"><ele>458.59999999999997</ele><time>2026-04-22T08:16:19.329Z</time></trkpt><trkpt lat="45.51495" lon="11.0488483"><ele>458.79999999999995</ele><time>2026-04-22T08:16:20.329Z</time></trkpt><trkpt lat="45.515065" lon="11.0488417"><ele>459.0</ele><time>2026-04-22T08:16:21.329Z</time></trkpt><trkpt lat="45.5151883" lon="11.0488317"><ele>459.0</ele><time>2026-04-22T08:16:22.329Z</time></trkpt><trkpt lat="45.5153133" lon="11.04886"><ele>459.0</ele><time>2026-04-22T08:16:23.329Z</time></trkpt><trkpt lat="45.51543" lon="11.048895"><ele>459.0</ele><time>2026-04-22T08:16:24.33Z</time></trkpt><trkpt lat="45.5155583" lon="11.048925"><ele>459.0</ele><time>2026-04-22T08:16:25.329Z</time></trkpt><trkpt lat="45.5156633" lon="11.0489667"><ele>460.2</ele><time>2026-04-22T08:16:26.329Z</time></trkpt><trkpt lat="45.5157767" lon="11.049015"><ele>461.4</ele><time>2026-04-22T08:16:27.329Z</time></trkpt><trkpt lat="45.515875" lon="11.049065"><ele>462.6</ele><time>2026-04-22T08:16:28.33Z</time></trkpt><trkpt lat="45.51598" lon="11.0491167"><ele>463.8</ele><time>2026-04-22T08:16:29.329Z</time></trkpt><trkpt lat="45.51609" lon="11.0491667"><ele>465.0</ele><time>2026-04-22T08:16:30.329Z</time></trkpt><trkpt lat="45.5162117" lon="11.0492117"><ele>467.25</ele><time>2026-04-22T08:16:31.329Z</time></trkpt><trkpt lat="45.5163233" lon="11.0492717"><ele>469.5</ele><time>2026-04-22T08:16:32.329Z</time></trkpt><trkpt lat="45.5164267" lon="11.0493483"><ele>471.75</ele><time>2026-04-22T08:16:33.329Z</time></trkpt><trkpt lat="45.516545" lon="11.0494133"><ele>474.0</ele><time>2026-04-22T08:16:34.329Z</time></trkpt><trkpt lat="45.5166633" lon="11.0494833"><ele>474.0</ele><time>2026-04-22T08:16:35.329Z</time></trkpt><trkpt lat="45.5167833" lon="11.0495433"><ele>474.0</ele><time>2026-04-22T08:16:36.329Z</time></trkpt><trkpt lat="45.5169067" lon="11.04962"><ele>474.0</ele><time>2026-04-22T08:16:37.329Z</time></trkpt><trkpt lat="45.51702" lon="11.0497117"><ele>474.0</ele><time>2026-04-22T08:16:38.329Z</time></trkpt><trkpt lat="45.5171267" lon="11.049815"><ele>475.5</ele><time>2026-04-22T08:16:39.329Z</time></trkpt><trkpt lat="45.5172367" lon="11.0499217"><ele>477.0</ele><time>2026-04-22T08:16:40.329Z</time></trkpt><trkpt lat="45.517335" lon="11.0500233"><ele>478.5</ele><time>2026-04-22T08:16:41.33Z</time></trkpt><trkpt lat="45.5174317" lon="11.050145"><ele>480.0</ele><time>2026-04-22T08:16:42.329Z</time></trkpt><trkpt lat="45.5175267" lon="11.0502733"><ele>480.0</ele><time>2026-04-22T08:16:43.33Z</time></trkpt><trkpt lat="45.51762" lon="11.0503967"><ele>480.0</ele><time>2026-04-22T08:16:44.329Z</time></trkpt><trkpt lat="45.5177133" lon="11.0505017"><ele>480.0</ele><time>2026-04-22T08:16:45.329Z</time></trkpt><trkpt lat="45.5177983" lon="11.0506283"><ele>480.0</ele><time>2026-04-22T08:16:46.329Z</time></trkpt><trkpt lat="45.5178883" lon="11.0507483"><ele>480.0</ele><time>2026-04-22T08:16:47.329Z</time></trkpt><trkpt lat="45.51797" lon="11.0508717"><ele>480.0</ele><time>2026-04-22T08:16:48.329Z</time></trkpt><trkpt lat="45.5180467" lon="11.05098"><ele>480.0</ele><time>2026-04-22T08:16:49.33Z</time></trkpt><trkpt lat="45.51812" lon="11.0510533"><ele>480.0</ele><time>2026-04-22T08:16:50.33Z</time></trkpt><trkpt lat="45.5181933" lon="11.0511017"><ele>480.0</ele><time>2026-04-22T08:16:51.329Z</time></trkpt><trkpt lat="45.5182717" lon="11.05115"><ele>480.0</ele><time>2026-04-22T08:16:52.329Z</time></trkpt><trkpt lat="45.51838" lon="11.0511533"><ele>480.0</ele><time>2026-04-22T08:16:53.329Z</time></trkpt><trkpt lat="45.5184767" lon="11.0511283"><ele>480.0</ele><time>2026-04-22T08:16:54.329Z</time></trkpt><trkpt lat="45.5185517" lon="11.051095"><ele>480.0</ele><time>2026-04-22T08:16:55.329Z</time></trkpt><trkpt lat="45.5186317" lon="11.0510483"><ele>480.0</ele><time>2026-04-22T08:16:56.329Z</time></trkpt><trkpt lat="45.518735" lon="11.0509967"><ele>479.2</ele><time>2026-04-22T08:16:57.329Z</time></trkpt><trkpt lat="45.5188233" lon="11.0509433"><ele>478.4</ele><time>2026-04-22T08:16:58.329Z</time></trkpt><trkpt lat="45.5189133" lon="11.05091"><ele>477.6</ele><time>2026-04-22T08:16:59.33Z</time></trkpt><trkpt lat="45.5190133" lon="11.0508917"><ele>476.8</ele><time>2026-04-22T08:17:00.33Z</time></trkpt><trkpt lat="45.5191083" lon="11.050865"><ele>476.0</ele><time>2026-04-22T08:17:01.329Z</time></trkpt><trkpt lat="45.519205" lon="11.0508233"><ele>476.20000000000005</ele><time>2026-04-22T08:17:02.329Z</time></trkpt><trkpt lat="45.51932" lon="11.050775"><ele>476.40000000000003</ele><time>2026-04-22T08:17:03.329Z</time></trkpt><trkpt lat="45.5194217" lon="11.0507283"><ele>476.6</ele><time>2026-04-22T08:17:04.33Z</time></trkpt><trkpt lat="45.5195233" lon="11.0506867"><ele>476.8</ele><time>2026-04-22T08:17:05.329Z</time></trkpt><trkpt lat="45.5196167" lon="11.050645"><ele>477.0</ele><time>2026-04-22T08:17:06.329Z</time></trkpt><trkpt lat="45.5196967" lon="11.0506117"><ele>474.0</ele><time>2026-04-22T08:17:07.329Z</time></trkpt><trkpt lat="45.519795" lon="11.050575"><ele>471.0</ele><time>2026-04-22T08:17:08.329Z</time></trkpt><trkpt lat="45.5198883" lon="11.05053"><ele>468.0</ele><time>2026-04-22T08:17:09.329Z</time></trkpt><trkpt lat="45.51997" lon="11.0504683"><ele>465.0</ele><time>2026-04-22T08:17:10.329Z</time></trkpt><trkpt lat="45.520035" lon="11.0504183"><ele>462.0</ele><time>2026-04-22T08:17:11.329Z</time></trkpt><trkpt lat="45.5200933" lon="11.050355"><ele>459.0</ele><time>2026-04-22T08:17:12.33Z</time></trkpt><trkpt lat="45.5201283" lon="11.0502717"><ele>459.0</ele><time>2026-04-22T08:17:13.329Z</time></trkpt><trkpt lat="45.52018" lon="11.0502033"><ele>459.0</ele><time>2026-04-22T08:17:14.329Z</time></trkpt><trkpt lat="45.5202333" lon="11.050115"><ele>459.0</ele><time>2026-04-22T08:17:15.329Z</time></trkpt><trkpt lat="45.520295" lon="11.0500183"><ele>459.0</ele><time>2026-04-22T08:17:16.329Z</time></trkpt><trkpt lat="45.5203617" lon="11.049915"><ele>459.0</ele><time>2026-04-22T08:17:17.33Z</time></trkpt><trkpt lat="45.5204283" lon="11.0498133"><ele>459.0</ele><time>2026-04-22T08:17:18.329Z</time></trkpt><trkpt lat="45.520485" lon="11.049725"><ele>456.0</ele><time>2026-04-22T08:17:19.329Z</time></trkpt><trkpt lat="45.5205367" lon="11.0496467"><ele>453.0</ele><time>2026-04-22T08:17:20.329Z</time></trkpt><trkpt lat="45.52058" lon="11.0495617"><ele>450.0</ele><time>2026-04-22T08:17:21.329Z</time></trkpt><trkpt lat="45.5206267" lon="11.049485"><ele>447.0</ele><time>2026-04-22T08:17:22.329Z</time></trkpt><trkpt lat="45.5206733" lon="11.04941"><ele>444.0</ele><time>2026-04-22T08:17:23.329Z</time></trkpt><trkpt lat="45.5207533" lon="11.0492783"><ele>441.0</ele><time>2026-04-22T08:17:25.329Z</time></trkpt><trkpt lat="45.5207633" lon="11.0491817"><ele>438.0</ele><time>2026-04-22T08:17:26.33Z</time></trkpt><trkpt lat="45.52084" lon="11.0490633"><ele>435.0</ele><time>2026-04-22T08:17:28.33Z</time></trkpt><trkpt lat="45.5209183" lon="11.0489667"><ele>432.0</ele><time>2026-04-22T08:17:30.329Z</time></trkpt><trkpt lat="45.5209783" lon="11.0489117"><ele>429.0</ele><time>2026-04-22T08:17:31.329Z</time></trkpt><trkpt lat="45.5210233" lon="11.0488433"><ele>426.0</ele><time>2026-04-22T08:17:32.33Z</time></trkpt><trkpt lat="45.52109" lon="11.048785"><ele>423.0</ele><time>2026-04-22T08:17:33.329Z</time></trkpt><trkpt lat="45.521165" lon="11.0487317"><ele>423.0</ele><time>2026-04-22T08:17:34.329Z</time></trkpt><trkpt lat="45.5212433" lon="11.048655"><ele>423.0</ele><time>2026-04-22T08:17:35.329Z</time></trkpt><trkpt lat="45.52133" lon="11.04858"><ele>423.0</ele><time>2026-04-22T08:17:36.329Z</time></trkpt><trkpt lat="45.521415" lon="11.0485133"><ele>423.0</ele><time>2026-04-22T08:17:37.329Z</time></trkpt><trkpt lat="45.52149" lon="11.0484467"><ele>423.0</ele><time>2026-04-22T08:17:38.329Z</time></trkpt><trkpt lat="45.5215617" lon="11.0484"><ele>423.0</ele><time>2026-04-22T08:17:39.329Z</time></trkpt><trkpt lat="45.521635" lon="11.04837"><ele>423.0</ele><time>2026-04-22T08:17:40.33Z</time></trkpt><trkpt lat="45.5217183" lon="11.0483483"><ele>423.0</ele><time>2026-04-22T08:17:41.329Z</time></trkpt><trkpt lat="45.5218167" lon="11.04834"><ele>423.0</ele><time>2026-04-22T08:17:42.33Z</time></trkpt><trkpt lat="45.521915" lon="11.0483367"><ele>423.0</ele><time>2026-04-22T08:17:43.329Z</time></trkpt><trkpt lat="45.5219983" lon="11.048345"><ele>423.0</ele><time>2026-04-22T08:17:44.33Z</time></trkpt><trkpt lat="45.5221" lon="11.0483233"><ele>422.0</ele><time>2026-04-22T08:17:45.329Z</time></trkpt><trkpt lat="45.5222" lon="11.0482833"><ele>421.0</ele><time>2026-04-22T08:17:46.329Z</time></trkpt><trkpt lat="45.5222667" lon="11.0482417"><ele>420.0</ele><time>2026-04-22T08:17:47.329Z</time></trkpt><trkpt lat="45.5223383" lon="11.048185"><ele>419.0</ele><time>2026-04-22T08:17:48.329Z</time></trkpt><trkpt lat="45.52242" lon="11.0481117"><ele>418.0</ele><time>2026-04-22T08:17:49.329Z</time></trkpt><trkpt lat="45.5225133" lon="11.048045"><ele>418.0</ele><time>2026-04-22T08:17:50.329Z</time></trkpt><trkpt lat="45.5226" lon="11.04798"><ele>418.0</ele><time>2026-04-22T08:17:51.329Z</time></trkpt><trkpt lat="45.52269" lon="11.0479317"><ele>418.0</ele><time>2026-04-22T08:17:52.33Z</time></trkpt><trkpt lat="45.522785" lon="11.04788"><ele>418.0</ele><time>2026-04-22T08:17:53.329Z</time></trkpt><trkpt lat="45.522865" lon="11.047835"><ele>418.0</ele><time>2026-04-22T08:17:54.329Z</time></trkpt><trkpt lat="45.522945" lon="11.0477783"><ele>420.0</ele><time>2026-04-22T08:17:55.329Z</time></trkpt><trkpt lat="45.5230283" lon="11.0477267"><ele>422.0</ele><time>2026-04-22T08:17:56.329Z</time></trkpt><trkpt lat="45.5231267" lon="11.04767"><ele>423.99999999999994</ele><time>2026-04-22T08:17:57.329Z</time></trkpt><trkpt lat="45.5232267" lon="11.04761"><ele>426.0</ele><time>2026-04-22T08:17:58.329Z</time></trkpt><trkpt lat="45.5233233" lon="11.047555"><ele>428.0</ele><time>2026-04-22T08:17:59.329Z</time></trkpt><trkpt lat="45.5234183" lon="11.047495"><ele>429.79999999999995</ele><time>2026-04-22T08:18:00.33Z</time></trkpt><trkpt lat="45.5235167" lon="11.0474367"><ele>431.59999999999997</ele><time>2026-04-22T08:18:01.329Z</time></trkpt><trkpt lat="45.52362" lon="11.047375"><ele>433.40000000000003</ele><time>2026-04-22T08:18:02.329Z</time></trkpt><trkpt lat="45.5237383" lon="11.04731"><ele>435.20000000000005</ele><time>2026-04-22T08:18:03.329Z</time></trkpt><trkpt lat="45.5238167" lon="11.0472167"><ele>437.0</ele><time>2026-04-22T08:18:04.33Z</time></trkpt><trkpt lat="45.5238767" lon="11.0471483"><ele>436.99999999999994</ele><time>2026-04-22T08:18:05.329Z</time></trkpt><trkpt lat="45.523925" lon="11.04708"><ele>437.0</ele><time>2026-04-22T08:18:06.329Z</time></trkpt><trkpt lat="45.523965" lon="11.046995"><ele>437.0</ele><time>2026-04-22T08:18:07.329Z</time></trkpt><trkpt lat="45.5240083" lon="11.0469267"><ele>437.0</ele><time>2026-04-22T08:18:08.329Z</time></trkpt><trkpt lat="45.5240683" lon="11.0468783"><ele>436.99999999999994</ele><time>2026-04-22T08:18:09.329Z</time></trkpt><trkpt lat="45.5241533" lon="11.0467633"><ele>437.0</ele><time>2026-04-22T08:18:11.329Z</time></trkpt><trkpt lat="45.5242017" lon="11.0466817"><ele>434.8</ele><time>2026-04-22T08:18:13.329Z</time></trkpt><trkpt lat="45.524255" lon="11.046585"><ele>432.6</ele><time>2026-04-22T08:18:16.33Z</time></trkpt><trkpt lat="45.524275" lon="11.0464033"><ele>430.40000000000003</ele><time>2026-04-22T08:18:18.329Z</time></trkpt><trkpt lat="45.5242683" lon="11.04626"><ele>428.20000000000005</ele><time>2026-04-22T08:18:19.329Z</time></trkpt><trkpt lat="45.5242733" lon="11.0461233"><ele>426.0</ele><time>2026-04-22T08:18:20.329Z</time></trkpt><trkpt lat="45.5242567" lon="11.045945"><ele>426.0</ele><time>2026-04-22T08:18:21.33Z</time></trkpt><trkpt lat="45.524275" lon="11.0458033"><ele>426.0</ele><time>2026-04-22T08:18:22.329Z</time></trkpt><trkpt lat="45.52429" lon="11.04567"><ele>426.0</ele><time>2026-04-22T08:18:23.329Z</time></trkpt><trkpt lat="45.5243167" lon="11.045535"><ele>426.0</ele><time>2026-04-22T08:18:24.329Z</time></trkpt><trkpt lat="45.5243567" lon="11.0453983"><ele>426.0</ele><time>2026-04-22T08:18:25.329Z</time></trkpt><trkpt lat="45.5243983" lon="11.0452817"><ele>426.20000000000005</ele><time>2026-04-22T08:18:26.329Z</time></trkpt><trkpt lat="45.5244517" lon="11.04516"><ele>426.40000000000003</ele><time>2026-04-22T08:18:27.329Z</time></trkpt><trkpt lat="45.5245133" lon="11.045045"><ele>426.6</ele><time>2026-04-22T08:18:28.329Z</time></trkpt><trkpt lat="45.5245917" lon="11.044955"><ele>426.8</ele><time>2026-04-22T08:18:29.329Z</time></trkpt><trkpt lat="45.5246867" lon="11.0448717"><ele>427.0</ele><time>2026-04-22T08:18:30.329Z</time></trkpt><trkpt lat="45.5248183" lon="11.044705"><ele>427.0</ele><time>2026-04-22T08:18:31.329Z</time></trkpt><trkpt lat="45.524905" lon="11.04462"><ele>427.00000000000006</ele><time>2026-04-22T08:18:32.329Z</time></trkpt><trkpt lat="45.5249783" lon="11.0445417"><ele>427.00000000000006</ele><time>2026-04-22T08:18:33.329Z</time></trkpt><trkpt lat="45.5250017" lon="11.044375"><ele>427.0</ele><time>2026-04-22T08:18:35.329Z</time></trkpt><trkpt lat="45.5249367" lon="11.04425"><ele>427.0</ele><time>2026-04-22T08:18:37.329Z</time></trkpt><trkpt lat="45.5248383" lon="11.0442"><ele>427.0</ele><time>2026-04-22T08:18:38.329Z</time></trkpt><trkpt lat="45.524715" lon="11.04414"><ele>427.00000000000006</ele><time>2026-04-22T08:18:39.329Z</time></trkpt><trkpt lat="45.5246183" lon="11.0440883"><ele>427.00000000000006</ele><time>2026-04-22T08:18:40.33Z</time></trkpt><trkpt lat="45.524535" lon="11.0440233"><ele>427.0</ele><time>2026-04-22T08:18:41.329Z</time></trkpt><trkpt lat="45.5244733" lon="11.04395"><ele>427.0</ele><time>2026-04-22T08:18:42.329Z</time></trkpt><trkpt lat="45.5244233" lon="11.0438017"><ele>420.0</ele><time>2026-04-22T08:18:44.329Z</time></trkpt><trkpt lat="45.5245017" lon="11.043615"><ele>413.0</ele><time>2026-04-22T08:18:45.329Z</time></trkpt><trkpt lat="45.524555" lon="11.04345"><ele>406.0</ele><time>2026-04-22T08:18:46.329Z</time></trkpt><trkpt lat="45.52462" lon="11.0432917"><ele>399.0</ele><time>2026-04-22T08:18:47.33Z</time></trkpt><trkpt lat="45.5246833" lon="11.043135"><ele>399.0</ele><time>2026-04-22T08:18:48.33Z</time></trkpt><trkpt lat="45.5247467" lon="11.04298"><ele>399.0</ele><time>2026-04-22T08:18:49.329Z</time></trkpt><trkpt lat="45.524815" lon="11.04283"><ele>399.0</ele><time>2026-04-22T08:18:50.329Z</time></trkpt><trkpt lat="45.5248917" lon="11.0426933"><ele>399.0</ele><time>2026-04-22T08:18:51.329Z</time></trkpt><trkpt lat="45.5249767" lon="11.0425733"><ele>399.0</ele><time>2026-04-22T08:18:52.329Z</time></trkpt><trkpt lat="45.5250767" lon="11.0424733"><ele>399.0</ele><time>2026-04-22T08:18:53.329Z</time></trkpt><trkpt lat="45.525185" lon="11.042395"><ele>399.0</ele><time>2026-04-22T08:18:54.329Z</time></trkpt><trkpt lat="45.5253017" lon="11.0423283"><ele>399.0</ele><time>2026-04-22T08:18:55.33Z</time></trkpt><trkpt lat="45.5254167" lon="11.0422733"><ele>399.25</ele><time>2026-04-22T08:18:56.329Z</time></trkpt><trkpt lat="45.52553" lon="11.04222"><ele>399.5</ele><time>2026-04-22T08:18:57.329Z</time></trkpt><trkpt lat="45.5256367" lon="11.0421583"><ele>399.75</ele><time>2026-04-22T08:18:58.329Z</time></trkpt><trkpt lat="45.5257417" lon="11.0420917"><ele>400.0</ele><time>2026-04-22T08:18:59.329Z</time></trkpt><trkpt lat="45.52583" lon="11.0419817"><ele>400.0</ele><time>2026-04-22T08:19:00.329Z</time></trkpt><trkpt lat="45.5259217" lon="11.04183"><ele>400.0</ele><time>2026-04-22T08:19:01.329Z</time></trkpt><trkpt lat="45.52597" lon="11.0416217"><ele>400.0</ele><time>2026-04-22T08:19:02.329Z</time></trkpt><trkpt lat="45.5260383" lon="11.0414733"><ele>400.0</ele><time>2026-04-22T08:19:03.329Z</time></trkpt><trkpt lat="45.526055" lon="11.0412883"><ele>397.5</ele><time>2026-04-22T08:19:04.33Z</time></trkpt><trkpt lat="45.52607" lon="11.0411183"><ele>395.0</ele><time>2026-04-22T08:19:05.329Z</time></trkpt><trkpt lat="45.5260717" lon="11.040955"><ele>392.5</ele><time>2026-04-22T08:19:06.33Z</time></trkpt><trkpt lat="45.5260633" lon="11.0407817"><ele>390.0</ele><time>2026-04-22T08:19:07.329Z</time></trkpt><trkpt lat="45.5260617" lon="11.0406383"><ele>389.2</ele><time>2026-04-22T08:19:08.329Z</time></trkpt><trkpt lat="45.5260467" lon="11.0404817"><ele>388.4</ele><time>2026-04-22T08:19:09.329Z</time></trkpt><trkpt lat="45.5260417" lon="11.040325"><ele>387.6</ele><time>2026-04-22T08:19:10.329Z</time></trkpt><trkpt lat="45.52604" lon="11.040175"><ele>386.8</ele><time>2026-04-22T08:19:11.329Z</time></trkpt><trkpt lat="45.5260417" lon="11.04003"><ele>386.0</ele><time>2026-04-22T08:19:12.329Z</time></trkpt><trkpt lat="45.5260233" lon="11.039875"><ele>385.3333333333333</ele><time>2026-04-22T08:19:13.329Z</time></trkpt><trkpt lat="45.5260117" lon="11.03974"><ele>384.66666666666663</ele><time>2026-04-22T08:19:14.329Z</time></trkpt><trkpt lat="45.5259967" lon="11.0396217"><ele>384.0</ele><time>2026-04-22T08:19:15.329Z</time></trkpt><trkpt lat="45.5259783" lon="11.0395167"><ele>383.3333333333333</ele><time>2026-04-22T08:19:16.329Z</time></trkpt><trkpt lat="45.5259767" lon="11.039425"><ele>382.66666666666663</ele><time>2026-04-22T08:19:17.33Z</time></trkpt><trkpt lat="45.525995" lon="11.039335"><ele>382.0</ele><time>2026-04-22T08:19:18.329Z</time></trkpt><trkpt lat="45.5260517" lon="11.0392683"><ele>382.0</ele><time>2026-04-22T08:19:19.329Z</time></trkpt><trkpt lat="45.526115" lon="11.0392017"><ele>382.0</ele><time>2026-04-22T08:19:20.33Z</time></trkpt><trkpt lat="45.526195" lon="11.03913"><ele>382.0</ele><time>2026-04-22T08:19:21.329Z</time></trkpt><trkpt lat="45.5262683" lon="11.03906"><ele>382.0</ele><time>2026-04-22T08:19:22.329Z</time></trkpt><trkpt lat="45.52631" lon="11.0389667"><ele>382.0</ele><time>2026-04-22T08:19:23.328Z</time></trkpt><trkpt lat="45.5263483" lon="11.0388883"><ele>382.0</ele><time>2026-04-22T08:19:24.328Z</time></trkpt><trkpt lat="45.5263833" lon="11.0387967"><ele>382.5</ele><time>2026-04-22T08:19:25.328Z</time></trkpt><trkpt lat="45.5264183" lon="11.0386933"><ele>383.0</ele><time>2026-04-22T08:19:26.328Z</time></trkpt><trkpt lat="45.5264633" lon="11.0386033"><ele>383.5</ele><time>2026-04-22T08:19:27.328Z</time></trkpt><trkpt lat="45.5265217" lon="11.038465"><ele>384.0</ele><time>2026-04-22T08:19:29.328Z</time></trkpt><trkpt lat="45.5265567" lon="11.038345"><ele>384.50000000000006</ele><time>2026-04-22T08:19:31.329Z</time></trkpt><trkpt lat="45.526555" lon="11.0382217"><ele>385.0</ele><time>2026-04-22T08:19:33.329Z</time></trkpt><trkpt lat="45.5264617" lon="11.03818"><ele>383.83333333333337</ele><time>2026-04-22T08:19:34.328Z</time></trkpt><trkpt lat="45.5263617" lon="11.0381483"><ele>382.6666666666667</ele><time>2026-04-22T08:19:35.328Z</time></trkpt><trkpt lat="45.5262567" lon="11.0381067"><ele>381.5</ele><time>2026-04-22T08:19:36.329Z</time></trkpt><trkpt lat="45.5261983" lon="11.03805"><ele>380.33333333333337</ele><time>2026-04-22T08:19:37.328Z</time></trkpt><trkpt lat="45.5261667" lon="11.0379683"><ele>379.1666666666667</ele><time>2026-04-22T08:19:38.329Z</time></trkpt><trkpt lat="45.5261417" lon="11.037855"><ele>378.0</ele><time>2026-04-22T08:19:39.328Z</time></trkpt><trkpt lat="45.5261083" lon="11.037735"><ele>376.75</ele><time>2026-04-22T08:19:40.328Z</time></trkpt><trkpt lat="45.52609" lon="11.0375867"><ele>375.5</ele><time>2026-04-22T08:19:41.328Z</time></trkpt><trkpt lat="45.52609" lon="11.0374067"><ele>374.25</ele><time>2026-04-22T08:19:42.328Z</time></trkpt><trkpt lat="45.5260867" lon="11.0372467"><ele>373.0</ele><time>2026-04-22T08:19:43.328Z</time></trkpt><trkpt lat="45.5260783" lon="11.0370883"><ele>372.0</ele><time>2026-04-22T08:19:44.328Z</time></trkpt><trkpt lat="45.52606" lon="11.036945"><ele>371.0</ele><time>2026-04-22T08:19:45.328Z</time></trkpt><trkpt lat="45.5260383" lon="11.03681"><ele>370.0</ele><time>2026-04-22T08:19:46.328Z</time></trkpt><trkpt lat="45.5260167" lon="11.0366883"><ele>369.0</ele><time>2026-04-22T08:19:47.328Z</time></trkpt><trkpt lat="45.526005" lon="11.036565"><ele>368.0</ele><time>2026-04-22T08:19:48.328Z</time></trkpt><trkpt lat="45.5259933" lon="11.03643"><ele>366.83333333333337</ele><time>2026-04-22T08:19:49.328Z</time></trkpt><trkpt lat="45.5259683" lon="11.0362983"><ele>365.6666666666667</ele><time>2026-04-22T08:19:50.329Z</time></trkpt><trkpt lat="45.5259417" lon="11.03618"><ele>364.5</ele><time>2026-04-22T08:19:51.328Z</time></trkpt><trkpt lat="45.5259083" lon="11.0360867"><ele>363.3333333333333</ele><time>2026-04-22T08:19:52.329Z</time></trkpt><trkpt lat="45.5258717" lon="11.0359967"><ele>362.16666666666663</ele><time>2026-04-22T08:19:53.328Z</time></trkpt><trkpt lat="45.5258083" lon="11.0359433"><ele>361.0</ele><time>2026-04-22T08:19:54.328Z</time></trkpt><trkpt lat="45.5257383" lon="11.03589"><ele>361.0</ele><time>2026-04-22T08:19:55.328Z</time></trkpt><trkpt lat="45.525655" lon="11.03582"><ele>361.0</ele><time>2026-04-22T08:19:56.329Z</time></trkpt><trkpt lat="45.5255833" lon="11.0357483"><ele>361.0</ele><time>2026-04-22T08:19:57.328Z</time></trkpt><trkpt lat="45.52553" lon="11.03567"><ele>361.0</ele><time>2026-04-22T08:19:58.328Z</time></trkpt><trkpt lat="45.5254683" lon="11.0355867"><ele>361.0</ele><time>2026-04-22T08:19:59.328Z</time></trkpt><trkpt lat="45.52541" lon="11.035495"><ele>361.0</ele><time>2026-04-22T08:20:00.329Z</time></trkpt><trkpt lat="45.52537" lon="11.0353817"><ele>358.20000000000005</ele><time>2026-04-22T08:20:01.328Z</time></trkpt><trkpt lat="45.5253317" lon="11.035265"><ele>355.40000000000003</ele><time>2026-04-22T08:20:02.328Z</time></trkpt><trkpt lat="45.5252933" lon="11.0351367"><ele>352.6</ele><time>2026-04-22T08:20:03.328Z</time></trkpt><trkpt lat="45.525255" lon="11.0350117"><ele>349.8</ele><time>2026-04-22T08:20:04.328Z</time></trkpt><trkpt lat="45.5252267" lon="11.0348983"><ele>347.0</ele><time>2026-04-22T08:20:05.328Z</time></trkpt><trkpt lat="45.52519" lon="11.0347783"><ele>346.5</ele><time>2026-04-22T08:20:06.328Z</time></trkpt><trkpt lat="45.5251633" lon="11.034645"><ele>346.0</ele><time>2026-04-22T08:20:07.328Z</time></trkpt><trkpt lat="45.5251333" lon="11.0345067"><ele>345.5</ele><time>2026-04-22T08:20:08.328Z</time></trkpt><trkpt lat="45.52511" lon="11.0343767"><ele>345.0</ele><time>2026-04-22T08:20:09.328Z</time></trkpt><trkpt lat="45.5250967" lon="11.034265"><ele>344.5</ele><time>2026-04-22T08:20:10.328Z</time></trkpt><trkpt lat="45.5250983" lon="11.0341683"><ele>344.0</ele><time>2026-04-22T08:20:11.328Z</time></trkpt><trkpt lat="45.5251017" lon="11.03407"><ele>342.83333333333337</ele><time>2026-04-22T08:20:12.328Z</time></trkpt><trkpt lat="45.5250967" lon="11.03397"><ele>341.6666666666667</ele><time>2026-04-22T08:20:13.328Z</time></trkpt><trkpt lat="45.5251017" lon="11.0338783"><ele>340.5</ele><time>2026-04-22T08:20:14.328Z</time></trkpt><trkpt lat="45.5251217" lon="11.03378"><ele>339.3333333333333</ele><time>2026-04-22T08:20:15.328Z</time></trkpt><trkpt lat="45.52515" lon="11.0336567"><ele>338.16666666666663</ele><time>2026-04-22T08:20:16.328Z</time></trkpt><trkpt lat="45.52519" lon="11.0335367"><ele>337.0</ele><time>2026-04-22T08:20:17.328Z</time></trkpt><trkpt lat="45.5252167" lon="11.033415"><ele>337.0</ele><time>2026-04-22T08:20:18.328Z</time></trkpt><trkpt lat="45.5252567" lon="11.0333133"><ele>337.0</ele><time>2026-04-22T08:20:19.328Z</time></trkpt><trkpt lat="45.5252817" lon="11.03318"><ele>337.0</ele><time>2026-04-22T08:20:20.328Z</time></trkpt><trkpt lat="45.525295" lon="11.0330767"><ele>337.0</ele><time>2026-04-22T08:20:21.328Z</time></trkpt><trkpt lat="45.5253183" lon="11.0329617"><ele>337.0</ele><time>2026-04-22T08:20:22.328Z</time></trkpt><trkpt lat="45.5253383" lon="11.032835"><ele>337.0</ele><time>2026-04-22T08:20:23.328Z</time></trkpt><trkpt lat="45.5253667" lon="11.0327067"><ele>336.20000000000005</ele><time>2026-04-22T08:20:24.328Z</time></trkpt><trkpt lat="45.5254033" lon="11.0325683"><ele>335.4</ele><time>2026-04-22T08:20:25.328Z</time></trkpt><trkpt lat="45.525445" lon="11.0324667"><ele>334.6</ele><time>2026-04-22T08:20:26.328Z</time></trkpt><trkpt lat="45.525465" lon="11.032345"><ele>333.79999999999995</ele><time>2026-04-22T08:20:27.328Z</time></trkpt><trkpt lat="45.5255017" lon="11.0322133"><ele>333.0</ele><time>2026-04-22T08:20:28.328Z</time></trkpt><trkpt lat="45.5255333" lon="11.0320967"><ele>332.0</ele><time>2026-04-22T08:20:29.329Z</time></trkpt><trkpt lat="45.525575" lon="11.0319817"><ele>331.0</ele><time>2026-04-22T08:20:30.328Z</time></trkpt><trkpt lat="45.5256183" lon="11.0318733"><ele>330.0</ele><time>2026-04-22T08:20:31.328Z</time></trkpt><trkpt lat="45.52566" lon="11.031755"><ele>329.0</ele><time>2026-04-22T08:20:32.328Z</time></trkpt><trkpt lat="45.525705" lon="11.0316367"><ele>328.0</ele><time>2026-04-22T08:20:33.328Z</time></trkpt><trkpt lat="45.52575" lon="11.0315383"><ele>327.0</ele><time>2026-04-22T08:20:34.328Z</time></trkpt><trkpt lat="45.525795" lon="11.031435"><ele>326.0</ele><time>2026-04-22T08:20:35.329Z</time></trkpt><trkpt lat="45.5258433" lon="11.0313367"><ele>325.0</ele><time>2026-04-22T08:20:36.328Z</time></trkpt><trkpt lat="45.525885" lon="11.031215"><ele>324.0</ele><time>2026-04-22T08:20:37.328Z</time></trkpt><trkpt lat="45.5259333" lon="11.0311067"><ele>323.0</ele><time>2026-04-22T08:20:38.329Z</time></trkpt><trkpt lat="45.525975" lon="11.0309933"><ele>322.0</ele><time>2026-04-22T08:20:39.328Z</time></trkpt><trkpt lat="45.5260017" lon="11.0308667"><ele>319.8</ele><time>2026-04-22T08:20:40.328Z</time></trkpt><trkpt lat="45.52603" lon="11.0307383"><ele>317.6</ele><time>2026-04-22T08:20:41.329Z</time></trkpt><trkpt lat="45.5260517" lon="11.03061"><ele>315.40000000000003</ele><time>2026-04-22T08:20:42.328Z</time></trkpt><trkpt lat="45.526065" lon="11.0304817"><ele>313.20000000000005</ele><time>2026-04-22T08:20:43.329Z</time></trkpt><trkpt lat="45.5260817" lon="11.030345"><ele>311.0</ele><time>2026-04-22T08:20:44.329Z</time></trkpt><trkpt lat="45.5260717" lon="11.03023"><ele>311.0</ele><time>2026-04-22T08:20:45.329Z</time></trkpt><trkpt lat="45.5260617" lon="11.0301217"><ele>311.0</ele><time>2026-04-22T08:20:46.328Z</time></trkpt><trkpt lat="45.5260483" lon="11.03"><ele>311.0</ele><time>2026-04-22T08:20:47.328Z</time></trkpt><trkpt lat="45.5260267" lon="11.0298767"><ele>311.0</ele><time>2026-04-22T08:20:48.328Z</time></trkpt><trkpt lat="45.525995" lon="11.02976"><ele>311.0</ele><time>2026-04-22T08:20:49.328Z</time></trkpt><trkpt lat="45.52596" lon="11.0296333"><ele>311.0</ele><time>2026-04-22T08:20:50.328Z</time></trkpt><trkpt lat="45.5259333" lon="11.0295083"><ele>309.0</ele><time>2026-04-22T08:20:51.328Z</time></trkpt><trkpt lat="45.5259117" lon="11.0293917"><ele>307.0</ele><time>2026-04-22T08:20:52.329Z</time></trkpt><trkpt lat="45.52589" lon="11.02928"><ele>305.0</ele><time>2026-04-22T08:20:53.328Z</time></trkpt><trkpt lat="45.5258683" lon="11.0291583"><ele>303.0</ele><time>2026-04-22T08:20:54.328Z</time></trkpt><trkpt lat="45.5258483" lon="11.0290383"><ele>301.0</ele><time>2026-04-22T08:20:55.329Z</time></trkpt><trkpt lat="45.5258433" lon="11.0289467"><ele>299.0</ele><time>2026-04-22T08:20:56.328Z</time></trkpt><trkpt lat="45.5258267" lon="11.0288"><ele>297.1428571428571</ele><time>2026-04-22T08:20:58.328Z</time></trkpt><trkpt lat="45.5258167" lon="11.028695"><ele>295.2857142857143</ele><time>2026-04-22T08:21:00.328Z</time></trkpt><trkpt lat="45.52585" lon="11.0285983"><ele>293.42857142857144</ele><time>2026-04-22T08:21:02.328Z</time></trkpt><trkpt lat="45.5259217" lon="11.028525"><ele>291.57142857142856</ele><time>2026-04-22T08:21:04.328Z</time></trkpt><trkpt lat="45.5259817" lon="11.028475"><ele>289.7142857142857</ele><time>2026-04-22T08:21:06.328Z</time></trkpt><trkpt lat="45.52603" lon="11.0283967"><ele>287.85714285714283</ele><time>2026-04-22T08:21:09.328Z</time></trkpt><trkpt lat="45.526045" lon="11.0283067"><ele>286.0</ele><time>2026-04-22T08:21:11.328Z</time></trkpt><trkpt lat="45.52609" lon="11.028225"><ele>280.8</ele><time>2026-04-22T08:21:14.328Z</time></trkpt><trkpt lat="45.5261617" lon="11.0282033"><ele>275.6</ele><time>2026-04-22T08:21:16.328Z</time></trkpt><trkpt lat="45.5262867" lon="11.0282033"><ele>270.4</ele><time>2026-04-22T08:21:18.328Z</time></trkpt><trkpt lat="45.5263967" lon="11.0282067"><ele>265.2</ele><time>2026-04-22T08:21:20.328Z</time></trkpt><trkpt lat="45.5264833" lon="11.028195"><ele>260.0</ele><time>2026-04-22T08:21:21.328Z</time></trkpt><trkpt lat="45.5265583" lon="11.0281983"><ele>257.6</ele><time>2026-04-22T08:21:22.328Z</time></trkpt><trkpt lat="45.5266783" lon="11.0281933"><ele>255.2</ele><time>2026-04-22T08:21:24.328Z</time></trkpt><trkpt lat="45.5267833" lon="11.028205"><ele>252.8</ele><time>2026-04-22T08:21:26.328Z</time></trkpt><trkpt lat="45.5268783" lon="11.028235"><ele>250.4</ele><time>2026-04-22T08:21:28.329Z</time></trkpt><trkpt lat="45.5269383" lon="11.0282983"><ele>248.0</ele><time>2026-04-22T08:21:30.328Z</time></trkpt><trkpt lat="45.526915" lon="11.0283967"><ele>253.2</ele><time>2026-04-22T08:21:32.328Z</time></trkpt><trkpt lat="45.5269433" lon="11.02849"><ele>258.4</ele><time>2026-04-22T08:21:34.328Z</time></trkpt><trkpt lat="45.5269467" lon="11.0286"><ele>263.59999999999997</ele><time>2026-04-22T08:21:36.328Z</time></trkpt><trkpt lat="45.5269583" lon="11.028735"><ele>268.8</ele><time>2026-04-22T08:21:38.328Z</time></trkpt><trkpt lat="45.526965" lon="11.0288767"><ele>274.0</ele><time>2026-04-22T08:21:40.328Z</time></trkpt><trkpt lat="45.5269867" lon="11.0290317"><ele>277.0</ele><time>2026-04-22T08:21:42.328Z</time></trkpt><trkpt lat="45.527005" lon="11.029165"><ele>280.0</ele><time>2026-04-22T08:21:44.329Z</time></trkpt><trkpt lat="45.5270417" lon="11.0293083"><ele>283.0</ele><time>2026-04-22T08:21:46.328Z</time></trkpt><trkpt lat="45.527095" lon="11.0294383"><ele>286.0</ele><time>2026-04-22T08:21:48.328Z</time></trkpt><trkpt lat="45.5271267" lon="11.0295717"><ele>289.0</ele><time>2026-04-22T08:21:50.328Z</time></trkpt><trkpt lat="45.5271433" lon="11.029685"><ele>281.2</ele><time>2026-04-22T08:21:52.328Z</time></trkpt><trkpt lat="45.5271867" lon="11.0297883"><ele>273.4</ele><time>2026-04-22T08:21:54.328Z</time></trkpt><trkpt lat="45.5272417" lon="11.0299133"><ele>265.6</ele><time>2026-04-22T08:21:56.328Z</time></trkpt><trkpt lat="45.5272783" lon="11.030055"><ele>257.8</ele><time>2026-04-22T08:21:58.329Z</time></trkpt><trkpt lat="45.5273333" lon="11.0301917"><ele>250.0</ele><time>2026-04-22T08:22:00.328Z</time></trkpt><trkpt lat="45.5273583" lon="11.030345"><ele>249.99999999999997</ele><time>2026-04-22T08:22:02.328Z</time></trkpt><trkpt lat="45.5274017" lon="11.0304767"><ele>250.0</ele><time>2026-04-22T08:22:04.328Z</time></trkpt><trkpt lat="45.52744" lon="11.0305817"><ele>250.0</ele><time>2026-04-22T08:22:06.329Z</time></trkpt><trkpt lat="45.527485" lon="11.0306767"><ele>250.0</ele><time>2026-04-22T08:22:08.328Z</time></trkpt><trkpt lat="45.52753" lon="11.030755"><ele>249.99999999999997</ele><time>2026-04-22T08:22:10.328Z</time></trkpt><trkpt lat="45.52757" lon="11.0308483"><ele>250.0</ele><time>2026-04-22T08:22:12.328Z</time></trkpt><trkpt lat="45.5275983" lon="11.030955"><ele>251.16666666666666</ele><time>2026-04-22T08:22:14.328Z</time></trkpt><trkpt lat="45.5276267" lon="11.0310633"><ele>252.33333333333331</ele><time>2026-04-22T08:22:16.328Z</time></trkpt><trkpt lat="45.5276533" lon="11.0311833"><ele>253.5</ele><time>2026-04-22T08:22:18.328Z</time></trkpt><trkpt lat="45.527675" lon="11.0313"><ele>254.66666666666669</ele><time>2026-04-22T08:22:20.328Z</time></trkpt><trkpt lat="45.5277217" lon="11.0314083"><ele>255.83333333333334</ele><time>2026-04-22T08:22:23.328Z</time></trkpt><trkpt lat="45.527715" lon="11.03127"><ele>257.0</ele><time>2026-04-22T08:22:29.328Z</time></trkpt><trkpt lat="45.52766" lon="11.0311533"><ele>257.0</ele><time>2026-04-22T08:22:31.328Z</time></trkpt><trkpt lat="45.5276083" lon="11.0310067"><ele>257.0</ele><time>2026-04-22T08:22:33.328Z</time></trkpt><trkpt lat="45.52756" lon="11.030875"><ele>257.0</ele><time>2026-04-22T08:22:35.328Z</time></trkpt><trkpt lat="45.5275483" lon="11.030705"><ele>257.0</ele><time>2026-04-22T08:22:37.328Z</time></trkpt><trkpt lat="45.5275817" lon="11.030595"><ele>257.0</ele><time>2026-04-22T08:22:38.328Z</time></trkpt><trkpt lat="45.527635" lon="11.0304867"><ele>256.0</ele><time>2026-04-22T08:22:39.328Z</time></trkpt><trkpt lat="45.527675" lon="11.0303767"><ele>255.0</ele><time>2026-04-22T08:22:40.327Z</time></trkpt><trkpt lat="45.5277133" lon="11.0302717"><ele>254.0</ele><time>2026-04-22T08:22:41.327Z</time></trkpt><trkpt lat="45.5277467" lon="11.0301767"><ele>253.0</ele><time>2026-04-22T08:22:42.327Z</time></trkpt><trkpt lat="45.5277717" lon="11.0300833"><ele>252.0</ele><time>2026-04-22T08:22:43.327Z</time></trkpt><trkpt lat="45.5278" lon="11.0299967"><ele>251.0</ele><time>2026-04-22T08:22:44.327Z</time></trkpt><trkpt lat="45.5278417" lon="11.0299267"><ele>250.0</ele><time>2026-04-22T08:22:45.327Z</time></trkpt><trkpt lat="45.5277967" lon="11.029795"><ele>249.6</ele><time>2026-04-22T08:22:47.328Z</time></trkpt><trkpt lat="45.527775" lon="11.0296583"><ele>249.2</ele><time>2026-04-22T08:22:49.328Z</time></trkpt><trkpt lat="45.527765" lon="11.0295133"><ele>248.8</ele><time>2026-04-22T08:22:51.327Z</time></trkpt><trkpt lat="45.5277667" lon="11.0294133"><ele>248.4</ele><time>2026-04-22T08:22:52.327Z</time></trkpt><trkpt lat="45.52778" lon="11.0292883"><ele>248.0</ele><time>2026-04-22T08:22:53.327Z</time></trkpt><trkpt lat="45.5278" lon="11.0291317"><ele>247.16666666666669</ele><time>2026-04-22T08:22:54.327Z</time></trkpt><trkpt lat="45.5277817" lon="11.0290183"><ele>246.33333333333334</ele><time>2026-04-22T08:22:55.327Z</time></trkpt><trkpt lat="45.5277783" lon="11.0288917"><ele>245.5</ele><time>2026-04-22T08:22:56.328Z</time></trkpt><trkpt lat="45.5277783" lon="11.0287767"><ele>244.66666666666669</ele><time>2026-04-22T08:22:57.327Z</time></trkpt><trkpt lat="45.52778" lon="11.0286683"><ele>243.83333333333334</ele><time>2026-04-22T08:22:58.327Z</time></trkpt><trkpt lat="45.5277917" lon="11.0285783"><ele>243.0</ele><time>2026-04-22T08:22:59.327Z</time></trkpt><trkpt lat="45.5278383" lon="11.0284733"><ele>238.2</ele><time>2026-04-22T08:23:00.327Z</time></trkpt><trkpt lat="45.52791" lon="11.02838"><ele>233.4</ele><time>2026-04-22T08:23:01.327Z</time></trkpt><trkpt lat="45.527965" lon="11.0282"><ele>228.59999999999997</ele><time>2026-04-22T08:23:03.327Z</time></trkpt><trkpt lat="45.5280017" lon="11.0280983"><ele>223.79999999999998</ele><time>2026-04-22T08:23:04.327Z</time></trkpt><trkpt lat="45.5280567" lon="11.027995"><ele>219.0</ele><time>2026-04-22T08:23:05.327Z</time></trkpt><trkpt lat="45.528105" lon="11.0279"><ele>217.16666666666666</ele><time>2026-04-22T08:23:06.327Z</time></trkpt><trkpt lat="45.5281767" lon="11.02781"><ele>215.33333333333331</ele><time>2026-04-22T08:23:07.327Z</time></trkpt><trkpt lat="45.5282083" lon="11.0277167"><ele>213.5</ele><time>2026-04-22T08:23:08.327Z</time></trkpt><trkpt lat="45.5282367" lon="11.0276283"><ele>211.66666666666666</ele><time>2026-04-22T08:23:09.328Z</time></trkpt><trkpt lat="45.528255" lon="11.0274967"><ele>209.83333333333331</ele><time>2026-04-22T08:23:11.328Z</time></trkpt><trkpt lat="45.5282533" lon="11.0273917"><ele>208.0</ele><time>2026-04-22T08:23:13.327Z</time></trkpt><trkpt lat="45.52822" lon="11.0272883"><ele>207.7142857142857</ele><time>2026-04-22T08:23:15.327Z</time></trkpt><trkpt lat="45.5281233" lon="11.02729"><ele>207.42857142857144</ele><time>2026-04-22T08:23:16.327Z</time></trkpt><trkpt lat="45.528075" lon="11.0272317"><ele>207.14285714285714</ele><time>2026-04-22T08:23:19.328Z</time></trkpt><trkpt lat="45.5280083" lon="11.0272533"><ele>206.85714285714283</ele><time>2026-04-22T08:23:22.327Z</time></trkpt><trkpt lat="45.52795" lon="11.02721"><ele>206.57142857142856</ele><time>2026-04-22T08:25:22.327Z</time></trkpt><trkpt lat="45.5279433" lon="11.02711"><ele>206.28571428571428</ele><time>2026-04-22T08:25:24.327Z</time></trkpt><trkpt lat="45.5279417" lon="11.0270167"><ele>206.0</ele><time>2026-04-22T08:25:26.327Z</time></trkpt><trkpt lat="45.52788" lon="11.026925"><ele>206.00000000000003</ele><time>2026-04-22T08:25:31.328Z</time></trkpt><trkpt lat="45.5278517" lon="11.0267983"><ele>206.0</ele><time>2026-04-22T08:26:20.326Z</time></trkpt><trkpt lat="45.5278417" lon="11.0266633"><ele>206.0</ele><time>2026-04-22T08:26:22.327Z</time></trkpt><trkpt lat="45.5278267" lon="11.0265667"><ele>206.0</ele><time>2026-04-22T08:26:23.326Z</time></trkpt><trkpt lat="45.5278083" lon="11.026475"><ele>206.00000000000003</ele><time>2026-04-22T08:26:24.326Z</time></trkpt><trkpt lat="45.52779" lon="11.0263867"><ele>206.0</ele><time>2026-04-22T08:26:25.326Z</time></trkpt><trkpt lat="45.527765" lon="11.0263"><ele>205.00000000000003</ele><time>2026-04-22T08:26:26.326Z</time></trkpt><trkpt lat="45.52775" lon="11.026205"><ele>204.0</ele><time>2026-04-22T08:26:27.326Z</time></trkpt><trkpt lat="45.527715" lon="11.0261217"><ele>203.0</ele><time>2026-04-22T08:26:28.326Z</time></trkpt><trkpt lat="45.527685" lon="11.0260383"><ele>202.0</ele><time>2026-04-22T08:26:29.326Z</time></trkpt><trkpt lat="45.527635" lon="11.025865"><ele>201.00000000000003</ele><time>2026-04-22T08:26:31.327Z</time></trkpt><trkpt lat="45.527605" lon="11.0257717"><ele>200.0</ele><time>2026-04-22T08:26:32.326Z</time></trkpt><trkpt lat="45.5275733" lon="11.0256617"><ele>200.0</ele><time>2026-04-22T08:26:33.326Z</time></trkpt><trkpt lat="45.5275433" lon="11.0255367"><ele>200.0</ele><time>2026-04-22T08:26:34.326Z</time></trkpt><trkpt lat="45.5275133" lon="11.0254017"><ele>200.0</ele><time>2026-04-22T08:26:35.326Z</time></trkpt><trkpt lat="45.5274867" lon="11.025265"><ele>200.0</ele><time>2026-04-22T08:26:36.327Z</time></trkpt><trkpt lat="45.5274567" lon="11.025115"><ele>200.0</ele><time>2026-04-22T08:26:37.326Z</time></trkpt><trkpt lat="45.527425" lon="11.0249933"><ele>204.0</ele><time>2026-04-22T08:26:38.326Z</time></trkpt><trkpt lat="45.5273933" lon="11.02488"><ele>208.0</ele><time>2026-04-22T08:26:39.327Z</time></trkpt><trkpt lat="45.52735" lon="11.024775"><ele>212.0</ele><time>2026-04-22T08:26:40.326Z</time></trkpt><trkpt lat="45.5272917" lon="11.0246817"><ele>216.0</ele><time>2026-04-22T08:26:41.326Z</time></trkpt><trkpt lat="45.5272033" lon="11.024635"><ele>220.0</ele><time>2026-04-22T08:26:42.326Z</time></trkpt><trkpt lat="45.5271017" lon="11.02461"><ele>215.4</ele><time>2026-04-22T08:26:43.326Z</time></trkpt><trkpt lat="45.5269783" lon="11.0245933"><ele>210.8</ele><time>2026-04-22T08:26:44.326Z</time></trkpt><trkpt lat="45.5268933" lon="11.0245433"><ele>206.2</ele><time>2026-04-22T08:26:45.326Z</time></trkpt><trkpt lat="45.5268067" lon="11.02449"><ele>201.6</ele><time>2026-04-22T08:26:46.327Z</time></trkpt><trkpt lat="45.52672" lon="11.024425"><ele>197.0</ele><time>2026-04-22T08:26:47.326Z</time></trkpt><trkpt lat="45.5266367" lon="11.0243517"><ele>197.0</ele><time>2026-04-22T08:26:48.326Z</time></trkpt><trkpt lat="45.526565" lon="11.0242683"><ele>197.0</ele><time>2026-04-22T08:26:49.326Z</time></trkpt><trkpt lat="45.5265133" lon="11.0241683"><ele>197.0</ele><time>2026-04-22T08:26:50.326Z</time></trkpt><trkpt lat="45.5264633" lon="11.024035"><ele>197.0</ele><time>2026-04-22T08:26:51.326Z</time></trkpt><trkpt lat="45.5264217" lon="11.0238917"><ele>197.0</ele><time>2026-04-22T08:26:52.327Z</time></trkpt><trkpt lat="45.52638" lon="11.0237817"><ele>196.2</ele><time>2026-04-22T08:26:53.327Z</time></trkpt><trkpt lat="45.526335" lon="11.0236817"><ele>195.39999999999998</ele><time>2026-04-22T08:26:54.327Z</time></trkpt><trkpt lat="45.526285" lon="11.023605"><ele>194.60000000000002</ele><time>2026-04-22T08:26:55.326Z</time></trkpt><trkpt lat="45.5262217" lon="11.02354"><ele>193.8</ele><time>2026-04-22T08:26:56.327Z</time></trkpt><trkpt lat="45.52614" lon="11.0234933"><ele>193.0</ele><time>2026-04-22T08:26:57.326Z</time></trkpt><trkpt lat="45.5260083" lon="11.0235167"><ele>193.0</ele><time>2026-04-22T08:26:58.326Z</time></trkpt><trkpt lat="45.5258983" lon="11.0235083"><ele>193.0</ele><time>2026-04-22T08:26:59.326Z</time></trkpt><trkpt lat="45.5258067" lon="11.023485"><ele>193.0</ele><time>2026-04-22T08:27:00.326Z</time></trkpt><trkpt lat="45.525715" lon="11.0234383"><ele>193.0</ele><time>2026-04-22T08:27:01.327Z</time></trkpt><trkpt lat="45.5256667" lon="11.0233467"><ele>193.0</ele><time>2026-04-22T08:27:02.326Z</time></trkpt><trkpt lat="45.52561" lon="11.0232267"><ele>193.4</ele><time>2026-04-22T08:27:03.327Z</time></trkpt><trkpt lat="45.525565" lon="11.0230933"><ele>193.8</ele><time>2026-04-22T08:27:04.327Z</time></trkpt><trkpt lat="45.525525" lon="11.0229583"><ele>194.2</ele><time>2026-04-22T08:27:05.326Z</time></trkpt><trkpt lat="45.52548" lon="11.0228383"><ele>194.6</ele><time>2026-04-22T08:27:06.326Z</time></trkpt><trkpt lat="45.52542" lon="11.0227367"><ele>195.0</ele><time>2026-04-22T08:27:07.327Z</time></trkpt><trkpt lat="45.5253517" lon="11.0226317"><ele>193.4</ele><time>2026-04-22T08:27:08.326Z</time></trkpt><trkpt lat="45.5252633" lon="11.0225333"><ele>191.8</ele><time>2026-04-22T08:27:09.326Z</time></trkpt><trkpt lat="45.52517" lon="11.0224467"><ele>190.2</ele><time>2026-04-22T08:27:10.326Z</time></trkpt><trkpt lat="45.5250817" lon="11.0223717"><ele>188.6</ele><time>2026-04-22T08:27:11.326Z</time></trkpt><trkpt lat="45.5250133" lon="11.0222817"><ele>187.0</ele><time>2026-04-22T08:27:12.326Z</time></trkpt><trkpt lat="45.524945" lon="11.0222067"><ele>187.0</ele><time>2026-04-22T08:27:13.327Z</time></trkpt><trkpt lat="45.5248867" lon="11.0221333"><ele>187.0</ele><time>2026-04-22T08:27:14.326Z</time></trkpt><trkpt lat="45.5248383" lon="11.0220583"><ele>187.0</ele><time>2026-04-22T08:27:15.326Z</time></trkpt><trkpt lat="45.5247767" lon="11.02194"><ele>187.0</ele><time>2026-04-22T08:27:17.326Z</time></trkpt><trkpt lat="45.524735" lon="11.021825"><ele>187.0</ele><time>2026-04-22T08:27:18.326Z</time></trkpt><trkpt lat="45.524665" lon="11.0217033"><ele>187.0</ele><time>2026-04-22T08:27:19.326Z</time></trkpt><trkpt lat="45.524595" lon="11.0215917"><ele>187.0</ele><time>2026-04-22T08:27:20.327Z</time></trkpt><trkpt lat="45.524515" lon="11.0214983"><ele>187.0</ele><time>2026-04-22T08:27:21.326Z</time></trkpt><trkpt lat="45.5244283" lon="11.02143"><ele>187.0</ele><time>2026-04-22T08:27:22.326Z</time></trkpt><trkpt lat="45.5243433" lon="11.0213617"><ele>187.0</ele><time>2026-04-22T08:27:23.327Z</time></trkpt><trkpt lat="45.524265" lon="11.021285"><ele>186.2</ele><time>2026-04-22T08:27:24.326Z</time></trkpt><trkpt lat="45.5241917" lon="11.0212033"><ele>185.39999999999998</ele><time>2026-04-22T08:27:25.326Z</time></trkpt><trkpt lat="45.5241117" lon="11.0211267"><ele>184.60000000000002</ele><time>2026-04-22T08:27:26.326Z</time></trkpt><trkpt lat="45.5240267" lon="11.02104"><ele>183.8</ele><time>2026-04-22T08:27:27.326Z</time></trkpt><trkpt lat="45.5239383" lon="11.0209517"><ele>183.0</ele><time>2026-04-22T08:27:28.326Z</time></trkpt><trkpt lat="45.52385" lon="11.0208817"><ele>183.0</ele><time>2026-04-22T08:27:29.327Z</time></trkpt><trkpt lat="45.52376" lon="11.0208183"><ele>183.0</ele><time>2026-04-22T08:27:30.326Z</time></trkpt><trkpt lat="45.5236783" lon="11.0207517"><ele>183.0</ele><time>2026-04-22T08:27:31.326Z</time></trkpt><trkpt lat="45.5236067" lon="11.0206933"><ele>183.0</ele><time>2026-04-22T08:27:32.327Z</time></trkpt><trkpt lat="45.5235367" lon="11.0206317"><ele>183.0</ele><time>2026-04-22T08:27:33.327Z</time></trkpt><trkpt lat="45.5234733" lon="11.02057"><ele>183.0</ele><time>2026-04-22T08:27:34.326Z</time></trkpt><trkpt lat="45.5234117" lon="11.020515"><ele>182.71428571428572</ele><time>2026-04-22T08:27:35.326Z</time></trkpt><trkpt lat="45.5233483" lon="11.02046"><ele>182.42857142857144</ele><time>2026-04-22T08:27:36.326Z</time></trkpt><trkpt lat="45.523285" lon="11.0204017"><ele>182.14285714285714</ele><time>2026-04-22T08:27:37.326Z</time></trkpt><trkpt lat="45.5232233" lon="11.02034"><ele>181.85714285714286</ele><time>2026-04-22T08:27:38.326Z</time></trkpt><trkpt lat="45.5231617" lon="11.0202767"><ele>181.57142857142856</ele><time>2026-04-22T08:27:39.326Z</time></trkpt><trkpt lat="45.5231083" lon="11.0202167"><ele>181.28571428571428</ele><time>2026-04-22T08:27:40.326Z</time></trkpt><trkpt lat="45.5230633" lon="11.0201533"><ele>181.0</ele><time>2026-04-22T08:27:41.327Z</time></trkpt><trkpt lat="45.52301" lon="11.0200817"><ele>181.0</ele><time>2026-04-22T08:27:42.327Z</time></trkpt><trkpt lat="45.5229483" lon="11.0200117"><ele>181.0</ele><time>2026-04-22T08:27:43.326Z</time></trkpt><trkpt lat="45.5228733" lon="11.0199233"><ele>181.0</ele><time>2026-04-22T08:27:44.326Z</time></trkpt><trkpt lat="45.5227883" lon="11.019825"><ele>181.0</ele><time>2026-04-22T08:27:45.326Z</time></trkpt><trkpt lat="45.5227083" lon="11.0196933"><ele>181.0</ele><time>2026-04-22T08:27:46.326Z</time></trkpt><trkpt lat="45.5226167" lon="11.0195967"><ele>180.0</ele><time>2026-04-22T08:27:47.326Z</time></trkpt><trkpt lat="45.5225267" lon="11.0195017"><ele>179.0</ele><time>2026-04-22T08:27:48.326Z</time></trkpt><trkpt lat="45.5224367" lon="11.0194033"><ele>178.0</ele><time>2026-04-22T08:27:49.326Z</time></trkpt><trkpt lat="45.52235" lon="11.019285"><ele>177.0</ele><time>2026-04-22T08:27:50.326Z</time></trkpt><trkpt lat="45.522265" lon="11.0191717"><ele>176.8</ele><time>2026-04-22T08:27:51.327Z</time></trkpt><trkpt lat="45.5221917" lon="11.0190667"><ele>176.6</ele><time>2026-04-22T08:27:52.326Z</time></trkpt><trkpt lat="45.5221217" lon="11.01897"><ele>176.4</ele><time>2026-04-22T08:27:53.326Z</time></trkpt><trkpt lat="45.522045" lon="11.0188833"><ele>176.20000000000002</ele><time>2026-04-22T08:27:54.326Z</time></trkpt><trkpt lat="45.5219617" lon="11.018785"><ele>176.0</ele><time>2026-04-22T08:27:55.326Z</time></trkpt><trkpt lat="45.52188" lon="11.01868"><ele>175.8</ele><time>2026-04-22T08:27:56.326Z</time></trkpt><trkpt lat="45.521805" lon="11.0185783"><ele>175.60000000000002</ele><time>2026-04-22T08:27:57.326Z</time></trkpt><trkpt lat="45.5217317" lon="11.0184983"><ele>175.4</ele><time>2026-04-22T08:27:58.326Z</time></trkpt><trkpt lat="45.521645" lon="11.01843"><ele>175.2</ele><time>2026-04-22T08:27:59.327Z</time></trkpt><trkpt lat="45.521565" lon="11.0183567"><ele>175.0</ele><time>2026-04-22T08:28:00.326Z</time></trkpt><trkpt lat="45.5214883" lon="11.018275"><ele>175.0</ele><time>2026-04-22T08:28:01.326Z</time></trkpt><trkpt lat="45.5214117" lon="11.0181817"><ele>175.0</ele><time>2026-04-22T08:28:02.326Z</time></trkpt><trkpt lat="45.521335" lon="11.0180817"><ele>175.0</ele><time>2026-04-22T08:28:03.326Z</time></trkpt><trkpt lat="45.5212633" lon="11.0179983"><ele>175.0</ele><time>2026-04-22T08:28:04.326Z</time></trkpt><trkpt lat="45.5212" lon="11.017925"><ele>175.0</ele><time>2026-04-22T08:28:05.326Z</time></trkpt><trkpt lat="45.5211483" lon="11.017855"><ele>174.83333333333334</ele><time>2026-04-22T08:28:06.327Z</time></trkpt><trkpt lat="45.5211083" lon="11.0177833"><ele>174.66666666666669</ele><time>2026-04-22T08:28:07.326Z</time></trkpt><trkpt lat="45.5210783" lon="11.01769"><ele>174.5</ele><time>2026-04-22T08:28:08.326Z</time></trkpt><trkpt lat="45.5209933" lon="11.0175933"><ele>174.33333333333334</ele><time>2026-04-22T08:28:10.326Z</time></trkpt><trkpt lat="45.5209417" lon="11.0175333"><ele>174.16666666666666</ele><time>2026-04-22T08:28:11.326Z</time></trkpt><trkpt lat="45.5208683" lon="11.01748"><ele>174.0</ele><time>2026-04-22T08:28:12.326Z</time></trkpt><trkpt lat="45.52079" lon="11.017395"><ele>174.0</ele><time>2026-04-22T08:28:13.326Z</time></trkpt><trkpt lat="45.5206967" lon="11.017295"><ele>174.0</ele><time>2026-04-22T08:28:14.326Z</time></trkpt><trkpt lat="45.5206117" lon="11.0171867"><ele>174.0</ele><time>2026-04-22T08:28:15.326Z</time></trkpt><trkpt lat="45.5205333" lon="11.0170783"><ele>174.0</ele><time>2026-04-22T08:28:16.327Z</time></trkpt><trkpt lat="45.520465" lon="11.0169617"><ele>174.0</ele><time>2026-04-22T08:28:17.326Z</time></trkpt><trkpt lat="45.5203983" lon="11.016855"><ele>173.6</ele><time>2026-04-22T08:28:18.326Z</time></trkpt><trkpt lat="45.52032" lon="11.0167867"><ele>173.2</ele><time>2026-04-22T08:28:19.326Z</time></trkpt><trkpt lat="45.520235" lon="11.0167283"><ele>172.79999999999998</ele><time>2026-04-22T08:28:20.326Z</time></trkpt><trkpt lat="45.5201517" lon="11.0166933"><ele>172.39999999999998</ele><time>2026-04-22T08:28:21.326Z</time></trkpt><trkpt lat="45.5200633" lon="11.0166767"><ele>172.0</ele><time>2026-04-22T08:28:22.326Z</time></trkpt><trkpt lat="45.5199667" lon="11.0166567"><ele>172.2</ele><time>2026-04-22T08:28:23.326Z</time></trkpt><trkpt lat="45.5198717" lon="11.0166433"><ele>172.39999999999998</ele><time>2026-04-22T08:28:24.326Z</time></trkpt><trkpt lat="45.51978" lon="11.0166183"><ele>172.60000000000002</ele><time>2026-04-22T08:28:25.327Z</time></trkpt><trkpt lat="45.519685" lon="11.016595"><ele>172.8</ele><time>2026-04-22T08:28:26.327Z</time></trkpt><trkpt lat="45.519595" lon="11.0165767"><ele>173.0</ele><time>2026-04-22T08:28:27.326Z</time></trkpt><trkpt lat="45.51947" lon="11.016575"><ele>173.0</ele><time>2026-04-22T08:28:28.326Z</time></trkpt><trkpt lat="45.5193683" lon="11.0165733"><ele>173.0</ele><time>2026-04-22T08:28:29.326Z</time></trkpt><trkpt lat="45.5192767" lon="11.0165733"><ele>173.0</ele><time>2026-04-22T08:28:30.326Z</time></trkpt><trkpt lat="45.51918" lon="11.0165733"><ele>173.0</ele><time>2026-04-22T08:28:31.326Z</time></trkpt><trkpt lat="45.5190717" lon="11.01657"><ele>173.0</ele><time>2026-04-22T08:28:32.327Z</time></trkpt><trkpt lat="45.518975" lon="11.0165767"><ele>173.0</ele><time>2026-04-22T08:28:33.326Z</time></trkpt><trkpt lat="45.5188833" lon="11.0165833"><ele>173.0</ele><time>2026-04-22T08:28:34.326Z</time></trkpt><trkpt lat="45.518805" lon="11.016585"><ele>173.0</ele><time>2026-04-22T08:28:35.326Z</time></trkpt><trkpt lat="45.518705" lon="11.0165867"><ele>173.0</ele><time>2026-04-22T08:28:36.326Z</time></trkpt><trkpt lat="45.5186267" lon="11.0165583"><ele>173.0</ele><time>2026-04-22T08:28:37.326Z</time></trkpt><trkpt lat="45.5185483" lon="11.0165383"><ele>173.0</ele><time>2026-04-22T08:28:38.326Z</time></trkpt><trkpt lat="45.518475" lon="11.0165083"><ele>173.0</ele><time>2026-04-22T08:28:39.326Z</time></trkpt><trkpt lat="45.5183833" lon="11.0165033"><ele>173.0</ele><time>2026-04-22T08:28:40.326Z</time></trkpt><trkpt lat="45.5182967" lon="11.0164967"><ele>173.0</ele><time>2026-04-22T08:28:41.326Z</time></trkpt><trkpt lat="45.51821" lon="11.01649"><ele>173.0</ele><time>2026-04-22T08:28:42.326Z</time></trkpt><trkpt lat="45.5181267" lon="11.0164333"><ele>173.0</ele><time>2026-04-22T08:28:43.326Z</time></trkpt><trkpt lat="45.5180333" lon="11.0163983"><ele>173.0</ele><time>2026-04-22T08:28:44.326Z</time></trkpt><trkpt lat="45.5179417" lon="11.01639"><ele>173.0</ele><time>2026-04-22T08:28:45.326Z</time></trkpt><trkpt lat="45.5178417" lon="11.01638"><ele>173.0</ele><time>2026-04-22T08:28:46.326Z</time></trkpt><trkpt lat="45.5177267" lon="11.0164017"><ele>173.0</ele><time>2026-04-22T08:28:47.327Z</time></trkpt><trkpt lat="45.5176167" lon="11.0163933"><ele>173.0</ele><time>2026-04-22T08:28:48.326Z</time></trkpt><trkpt lat="45.5175083" lon="11.016375"><ele>172.8</ele><time>2026-04-22T08:28:49.326Z</time></trkpt><trkpt lat="45.5173867" lon="11.01634"><ele>172.60000000000002</ele><time>2026-04-22T08:28:50.326Z</time></trkpt><trkpt lat="45.5172767" lon="11.0163033"><ele>172.39999999999998</ele><time>2026-04-22T08:28:51.326Z</time></trkpt><trkpt lat="45.5171883" lon="11.0162917"><ele>172.2</ele><time>2026-04-22T08:28:52.326Z</time></trkpt><trkpt lat="45.5171017" lon="11.0162933"><ele>172.0</ele><time>2026-04-22T08:28:53.326Z</time></trkpt><trkpt lat="45.5170067" lon="11.0163017"><ele>172.0</ele><time>2026-04-22T08:28:54.326Z</time></trkpt><trkpt lat="45.5169117" lon="11.0163067"><ele>172.0</ele><time>2026-04-22T08:28:55.327Z</time></trkpt><trkpt lat="45.5168283" lon="11.016315"><ele>172.0</ele><time>2026-04-22T08:28:56.327Z</time></trkpt><trkpt lat="45.5167383" lon="11.01632"><ele>172.0</ele><time>2026-04-22T08:28:57.326Z</time></trkpt><trkpt lat="45.5166433" lon="11.016305"><ele>172.0</ele><time>2026-04-22T08:28:58.327Z</time></trkpt><trkpt lat="45.5165467" lon="11.0162883"><ele>172.0</ele><time>2026-04-22T08:28:59.326Z</time></trkpt><trkpt lat="45.5164583" lon="11.0162817"><ele>172.0</ele><time>2026-04-22T08:29:00.326Z</time></trkpt><trkpt lat="45.516385" lon="11.0162633"><ele>172.0</ele><time>2026-04-22T08:29:01.326Z</time></trkpt><trkpt lat="45.5162867" lon="11.0162533"><ele>172.0</ele><time>2026-04-22T08:29:03.325Z</time></trkpt><trkpt lat="45.5161967" lon="11.0162117"><ele>172.0</ele><time>2026-04-22T08:29:12.325Z</time></trkpt><trkpt lat="45.5161217" lon="11.0161967"><ele>172.0</ele><time>2026-04-22T08:29:15.325Z</time></trkpt><trkpt lat="45.5160267" lon="11.0161783"><ele>171.2</ele><time>2026-04-22T08:29:18.325Z</time></trkpt><trkpt lat="45.5159167" lon="11.01614"><ele>170.39999999999998</ele><time>2026-04-22T08:29:20.325Z</time></trkpt><trkpt lat="45.5158183" lon="11.0161233"><ele>169.60000000000002</ele><time>2026-04-22T08:29:21.325Z</time></trkpt><trkpt lat="45.5157433" lon="11.0161067"><ele>168.8</ele><time>2026-04-22T08:29:22.325Z</time></trkpt><trkpt lat="45.5156567" lon="11.0160883"><ele>168.0</ele><time>2026-04-22T08:29:23.325Z</time></trkpt><trkpt lat="45.5155417" lon="11.0160533"><ele>168.0</ele><time>2026-04-22T08:29:24.326Z</time></trkpt><trkpt lat="45.5154617" lon="11.01605"><ele>168.0</ele><time>2026-04-22T08:29:25.325Z</time></trkpt><trkpt lat="45.515375" lon="11.01604"><ele>168.0</ele><time>2026-04-22T08:29:26.325Z</time></trkpt><trkpt lat="45.515275" lon="11.01603"><ele>168.0</ele><time>2026-04-22T08:29:27.325Z</time></trkpt><trkpt lat="45.5151533" lon="11.0159917"><ele>168.0</ele><time>2026-04-22T08:29:28.325Z</time></trkpt><trkpt lat="45.51502" lon="11.0159983"><ele>167.60000000000002</ele><time>2026-04-22T08:29:29.325Z</time></trkpt><trkpt lat="45.5149" lon="11.0160367"><ele>167.20000000000002</ele><time>2026-04-22T08:29:30.325Z</time></trkpt><trkpt lat="45.51479" lon="11.0160533"><ele>166.8</ele><time>2026-04-22T08:29:31.325Z</time></trkpt><trkpt lat="45.5146933" lon="11.0160683"><ele>166.4</ele><time>2026-04-22T08:29:32.325Z</time></trkpt><trkpt lat="45.51462" lon="11.0160783"><ele>166.0</ele><time>2026-04-22T08:29:33.325Z</time></trkpt><trkpt lat="45.51455" lon="11.0160683"><ele>166.20000000000002</ele><time>2026-04-22T08:29:34.325Z</time></trkpt><trkpt lat="45.5144867" lon="11.0159783"><ele>166.4</ele><time>2026-04-22T08:29:36.325Z</time></trkpt><trkpt lat="45.5145" lon="11.0158883"><ele>166.6</ele><time>2026-04-22T08:29:37.325Z</time></trkpt><trkpt lat="45.5145067" lon="11.0157383"><ele>166.8</ele><time>2026-04-22T08:29:39.325Z</time></trkpt><trkpt lat="45.51459" lon="11.0156583"><ele>167.0</ele><time>2026-04-22T08:29:41.325Z</time></trkpt><trkpt lat="45.514745" lon="11.01565"><ele>170.0</ele><time>2026-04-22T08:29:42.325Z</time></trkpt><trkpt lat="45.514905" lon="11.015655"><ele>173.0</ele><time>2026-04-22T08:29:43.325Z</time></trkpt><trkpt lat="45.5150417" lon="11.015665"><ele>176.0</ele><time>2026-04-22T08:29:44.325Z</time></trkpt><trkpt lat="45.5151517" lon="11.0156467"><ele>179.0</ele><time>2026-04-22T08:29:45.326Z</time></trkpt><trkpt lat="45.5152617" lon="11.0156483"><ele>179.0</ele><time>2026-04-22T08:29:46.325Z</time></trkpt><trkpt lat="45.5153767" lon="11.015645"><ele>179.0</ele><time>2026-04-22T08:29:47.325Z</time></trkpt><trkpt lat="45.5154833" lon="11.015655"><ele>179.0</ele><time>2026-04-22T08:29:48.325Z</time></trkpt><trkpt lat="45.5155917" lon="11.0156533"><ele>179.0</ele><time>2026-04-22T08:29:49.325Z</time></trkpt><trkpt lat="45.5157083" lon="11.0156567"><ele>179.0</ele><time>2026-04-22T08:29:50.325Z</time></trkpt><trkpt lat="45.5158183" lon="11.0156617"><ele>178.83333333333331</ele><time>2026-04-22T08:29:51.325Z</time></trkpt><trkpt lat="45.515915" lon="11.0156567"><ele>178.66666666666666</ele><time>2026-04-22T08:29:52.325Z</time></trkpt><trkpt lat="45.5160067" lon="11.015655"><ele>178.5</ele><time>2026-04-22T08:29:53.325Z</time></trkpt><trkpt lat="45.51607" lon="11.015645"><ele>178.33333333333334</ele><time>2026-04-22T08:29:54.325Z</time></trkpt><trkpt lat="45.51618" lon="11.0155633"><ele>178.16666666666669</ele><time>2026-04-22T08:29:56.326Z</time></trkpt><trkpt lat="45.5162383" lon="11.0155017"><ele>178.0</ele><time>2026-04-22T08:29:57.325Z</time></trkpt><trkpt lat="45.516295" lon="11.0154167"><ele>178.0</ele><time>2026-04-22T08:29:58.325Z</time></trkpt><trkpt lat="45.51635" lon="11.0152967"><ele>178.0</ele><time>2026-04-22T08:29:59.325Z</time></trkpt><trkpt lat="45.5163817" lon="11.0151417"><ele>178.0</ele><time>2026-04-22T08:30:00.325Z</time></trkpt><trkpt lat="45.5164083" lon="11.0149917"><ele>178.0</ele><time>2026-04-22T08:30:01.326Z</time></trkpt><trkpt lat="45.5164333" lon="11.0148433"><ele>178.0</ele><time>2026-04-22T08:30:02.325Z</time></trkpt><trkpt lat="45.516455" lon="11.0147033"><ele>179.60000000000002</ele><time>2026-04-22T08:30:03.326Z</time></trkpt><trkpt lat="45.5164867" lon="11.01458"><ele>181.20000000000002</ele><time>2026-04-22T08:30:04.325Z</time></trkpt><trkpt lat="45.5165217" lon="11.0144733"><ele>182.8</ele><time>2026-04-22T08:30:05.325Z</time></trkpt><trkpt lat="45.5165533" lon="11.0143517"><ele>184.4</ele><time>2026-04-22T08:30:06.325Z</time></trkpt><trkpt lat="45.51659" lon="11.0142167"><ele>186.0</ele><time>2026-04-22T08:30:07.325Z</time></trkpt><trkpt lat="45.5166183" lon="11.0140817"><ele>187.8</ele><time>2026-04-22T08:30:08.326Z</time></trkpt><trkpt lat="45.516645" lon="11.0139367"><ele>189.60000000000002</ele><time>2026-04-22T08:30:09.325Z</time></trkpt><trkpt lat="45.5166717" lon="11.0137883"><ele>191.4</ele><time>2026-04-22T08:30:10.326Z</time></trkpt><trkpt lat="45.5166917" lon="11.0136333"><ele>193.2</ele><time>2026-04-22T08:30:11.326Z</time></trkpt><trkpt lat="45.5167117" lon="11.0134683"><ele>195.0</ele><time>2026-04-22T08:30:12.326Z</time></trkpt><trkpt lat="45.516725" lon="11.013315"><ele>196.8</ele><time>2026-04-22T08:30:13.325Z</time></trkpt><trkpt lat="45.5167417" lon="11.01316"><ele>198.6</ele><time>2026-04-22T08:30:14.325Z</time></trkpt><trkpt lat="45.5167633" lon="11.013015"><ele>200.39999999999998</ele><time>2026-04-22T08:30:15.325Z</time></trkpt><trkpt lat="45.5168017" lon="11.0128817"><ele>202.2</ele><time>2026-04-22T08:30:16.325Z</time></trkpt><trkpt lat="45.5168533" lon="11.0127633"><ele>204.0</ele><time>2026-04-22T08:30:17.325Z</time></trkpt><trkpt lat="45.5168983" lon="11.0126367"><ele>204.0</ele><time>2026-04-22T08:30:18.325Z</time></trkpt><trkpt lat="45.5169783" lon="11.0125417"><ele>204.0</ele><time>2026-04-22T08:30:19.325Z</time></trkpt><trkpt lat="45.5170467" lon="11.012455"><ele>204.0</ele><time>2026-04-22T08:30:20.325Z</time></trkpt><trkpt lat="45.5171217" lon="11.012375"><ele>204.0</ele><time>2026-04-22T08:30:21.325Z</time></trkpt><trkpt lat="45.5171983" lon="11.0122817"><ele>204.0</ele><time>2026-04-22T08:30:22.325Z</time></trkpt><trkpt lat="45.5172767" lon="11.01218"><ele>207.6</ele><time>2026-04-22T08:30:23.325Z</time></trkpt><trkpt lat="45.5173633" lon="11.012075"><ele>211.2</ele><time>2026-04-22T08:30:24.325Z</time></trkpt><trkpt lat="45.5174267" lon="11.0119717"><ele>214.79999999999998</ele><time>2026-04-22T08:30:25.325Z</time></trkpt><trkpt lat="45.5174883" lon="11.011855"><ele>218.39999999999998</ele><time>2026-04-22T08:30:26.325Z</time></trkpt><trkpt lat="45.5175283" lon="11.0117417"><ele>222.0</ele><time>2026-04-22T08:30:27.326Z</time></trkpt><trkpt lat="45.51755" lon="11.0116233"><ele>224.83333333333334</ele><time>2026-04-22T08:30:28.325Z</time></trkpt><trkpt lat="45.5175983" lon="11.0115"><ele>227.66666666666669</ele><time>2026-04-22T08:30:30.325Z</time></trkpt><trkpt lat="45.51765" lon="11.0114383"><ele>230.5</ele><time>2026-04-22T08:30:32.325Z</time></trkpt><trkpt lat="45.5176683" lon="11.011345"><ele>233.33333333333334</ele><time>2026-04-22T08:30:34.325Z</time></trkpt><trkpt lat="45.5176767" lon="11.01124"><ele>236.16666666666669</ele><time>2026-04-22T08:30:36.325Z</time></trkpt><trkpt lat="45.51762" lon="11.0111067"><ele>239.0</ele><time>2026-04-22T08:30:38.325Z</time></trkpt><trkpt lat="45.517555" lon="11.010985"><ele>239.00000000000003</ele><time>2026-04-22T08:30:40.325Z</time></trkpt><trkpt lat="45.5174983" lon="11.01093"><ele>239.0</ele><time>2026-04-22T08:30:41.325Z</time></trkpt><trkpt lat="45.5173967" lon="11.01089"><ele>239.0</ele><time>2026-04-22T08:30:42.325Z</time></trkpt><trkpt lat="45.51731" lon="11.010865"><ele>239.0</ele><time>2026-04-22T08:30:43.325Z</time></trkpt><trkpt lat="45.5172233" lon="11.0108483"><ele>239.00000000000003</ele><time>2026-04-22T08:30:44.326Z</time></trkpt><trkpt lat="45.51715" lon="11.0108083"><ele>239.0</ele><time>2026-04-22T08:30:45.325Z</time></trkpt><trkpt lat="45.517055" lon="11.010825"><ele>239.39999999999998</ele><time>2026-04-22T08:30:46.325Z</time></trkpt><trkpt lat="45.516965" lon="11.01084"><ele>239.79999999999998</ele><time>2026-04-22T08:30:47.325Z</time></trkpt><trkpt lat="45.516865" lon="11.0108533"><ele>240.20000000000002</ele><time>2026-04-22T08:30:48.326Z</time></trkpt><trkpt lat="45.51676" lon="11.01087"><ele>240.60000000000002</ele><time>2026-04-22T08:30:49.325Z</time></trkpt><trkpt lat="45.516655" lon="11.0108767"><ele>241.0</ele><time>2026-04-22T08:30:50.325Z</time></trkpt><trkpt lat="45.5165483" lon="11.0108833"><ele>240.99999999999997</ele><time>2026-04-22T08:30:51.325Z</time></trkpt><trkpt lat="45.516465" lon="11.0108733"><ele>241.0</ele><time>2026-04-22T08:30:52.326Z</time></trkpt><trkpt lat="45.5163783" lon="11.010835"><ele>241.0</ele><time>2026-04-22T08:30:54.326Z</time></trkpt><trkpt lat="45.5162667" lon="11.010765"><ele>241.0</ele><time>2026-04-22T08:30:56.325Z</time></trkpt><trkpt lat="45.51621" lon="11.010695"><ele>240.99999999999997</ele><time>2026-04-22T08:30:57.325Z</time></trkpt><trkpt lat="45.5161667" lon="11.0106217"><ele>241.0</ele><time>2026-04-22T08:30:58.325Z</time></trkpt><trkpt lat="45.5160667" lon="11.010535"><ele>246.4</ele><time>2026-04-22T08:31:00.325Z</time></trkpt><trkpt lat="45.5159617" lon="11.0105717"><ele>251.8</ele><time>2026-04-22T08:31:01.325Z</time></trkpt><trkpt lat="45.51586" lon="11.0106067"><ele>257.20000000000005</ele><time>2026-04-22T08:31:03.326Z</time></trkpt><trkpt lat="45.5158083" lon="11.0104933"><ele>262.6</ele><time>2026-04-22T08:31:06.326Z</time></trkpt><trkpt lat="45.5158" lon="11.0103117"><ele>268.0</ele><time>2026-04-22T08:31:07.326Z</time></trkpt><trkpt lat="45.5158233" lon="11.0101833"><ele>268.0</ele><time>2026-04-22T08:31:08.325Z</time></trkpt><trkpt lat="45.515835" lon="11.0100867"><ele>268.0</ele><time>2026-04-22T08:31:09.326Z</time></trkpt><trkpt lat="45.515885" lon="11.009935"><ele>268.0</ele><time>2026-04-22T08:31:11.325Z</time></trkpt><trkpt lat="45.5159083" lon="11.0098117"><ele>268.0</ele><time>2026-04-22T08:31:13.325Z</time></trkpt><trkpt lat="45.5158833" lon="11.009705"><ele>268.0</ele><time>2026-04-22T08:31:15.325Z</time></trkpt><trkpt lat="45.5159167" lon="11.0096083"><ele>268.0</ele><time>2026-04-22T08:31:21.325Z</time></trkpt><trkpt lat="45.515835" lon="11.00965"><ele>271.0</ele><time>2026-04-22T08:31:39.325Z</time></trkpt><trkpt lat="45.515905" lon="11.009575"><ele>274.0</ele><time>2026-04-22T08:31:43.326Z</time></trkpt><trkpt lat="45.5159033" lon="11.0094817"><ele>277.0</ele><time>2026-04-22T08:31:45.325Z</time></trkpt><trkpt lat="45.515855" lon="11.00938"><ele>280.0</ele><time>2026-04-22T08:31:47.325Z</time></trkpt><trkpt lat="45.5157717" lon="11.0093"><ele>283.0</ele><time>2026-04-22T08:31:49.325Z</time></trkpt><trkpt lat="45.5157233" lon="11.0092367"><ele>286.0</ele><time>2026-04-22T08:31:50.325Z</time></trkpt><trkpt lat="45.5156367" lon="11.009195"><ele>290.40000000000003</ele><time>2026-04-22T08:31:51.325Z</time></trkpt><trkpt lat="45.51558" lon="11.0091283"><ele>294.8</ele><time>2026-04-22T08:31:52.325Z</time></trkpt><trkpt lat="45.5155033" lon="11.0090233"><ele>299.20000000000005</ele><time>2026-04-22T08:31:54.325Z</time></trkpt><trkpt lat="45.51542" lon="11.008915"><ele>303.6</ele><time>2026-04-22T08:31:56.325Z</time></trkpt><trkpt lat="45.5153517" lon="11.0088867"><ele>308.0</ele><time>2026-04-22T08:31:57.325Z</time></trkpt><trkpt lat="45.515245" lon="11.00882"><ele>308.2</ele><time>2026-04-22T08:31:59.325Z</time></trkpt><trkpt lat="45.5151567" lon="11.0087817"><ele>308.4</ele><time>2026-04-22T08:32:02.325Z</time></trkpt><trkpt lat="45.5150717" lon="11.0087367"><ele>308.59999999999997</ele><time>2026-04-22T08:32:04.325Z</time></trkpt><trkpt lat="45.51496" lon="11.0086917"><ele>308.8</ele><time>2026-04-22T08:32:06.324Z</time></trkpt><trkpt lat="45.5148933" lon="11.0086483"><ele>309.0</ele><time>2026-04-22T08:32:07.324Z</time></trkpt><trkpt lat="45.5148167" lon="11.0085983"><ele>309.0</ele><time>2026-04-22T08:32:08.324Z</time></trkpt><trkpt lat="45.5147317" lon="11.0085417"><ele>309.0</ele><time>2026-04-22T08:32:09.324Z</time></trkpt><trkpt lat="45.5146517" lon="11.0084983"><ele>309.0</ele><time>2026-04-22T08:32:10.324Z</time></trkpt><trkpt lat="45.5145817" lon="11.0084583"><ele>309.0</ele><time>2026-04-22T08:32:11.324Z</time></trkpt><trkpt lat="45.5145067" lon="11.0084333"><ele>309.0</ele><time>2026-04-22T08:32:12.324Z</time></trkpt><trkpt lat="45.5144417" lon="11.0083983"><ele>309.0</ele><time>2026-04-22T08:32:13.324Z</time></trkpt><trkpt lat="45.5143767" lon="11.008375"><ele>309.6666666666667</ele><time>2026-04-22T08:32:14.324Z</time></trkpt><trkpt lat="45.5142733" lon="11.0083567"><ele>310.3333333333333</ele><time>2026-04-22T08:32:15.324Z</time></trkpt><trkpt lat="45.5141667" lon="11.0083433"><ele>311.0</ele><time>2026-04-22T08:32:16.324Z</time></trkpt><trkpt lat="45.514125" lon="11.00827"><ele>311.66666666666663</ele><time>2026-04-22T08:32:17.324Z</time></trkpt><trkpt lat="45.5141467" lon="11.00814"><ele>312.3333333333333</ele><time>2026-04-22T08:32:18.324Z</time></trkpt><trkpt lat="45.5140817" lon="11.0081083"><ele>313.0</ele><time>2026-04-22T08:32:19.324Z</time></trkpt><trkpt lat="45.5140133" lon="11.0081017"><ele>313.0</ele><time>2026-04-22T08:32:20.324Z</time></trkpt><trkpt lat="45.514105" lon="11.0081933"><ele>313.0</ele><time>2026-04-22T08:32:26.325Z</time></trkpt><trkpt lat="45.514175" lon="11.008245"><ele>313.0</ele><time>2026-04-22T08:32:27.324Z</time></trkpt><trkpt lat="45.5143267" lon="11.0083017"><ele>313.0</ele><time>2026-04-22T08:32:28.324Z</time></trkpt><trkpt lat="45.5144333" lon="11.00832"><ele>313.0</ele><time>2026-04-22T08:32:29.324Z</time></trkpt><trkpt lat="45.514505" lon="11.00831"><ele>313.0</ele><time>2026-04-22T08:32:30.324Z</time></trkpt><trkpt lat="45.5145667" lon="11.008275"><ele>313.0</ele><time>2026-04-22T08:32:31.324Z</time></trkpt><trkpt lat="45.5146167" lon="11.00817"><ele>313.0</ele><time>2026-04-22T08:32:33.324Z</time></trkpt><trkpt lat="45.514645" lon="11.0080017"><ele>313.0</ele><time>2026-04-22T08:32:35.324Z</time></trkpt><trkpt lat="45.5146267" lon="11.007875"><ele>313.0</ele><time>2026-04-22T08:32:36.324Z</time></trkpt><trkpt lat="45.5146567" lon="11.0077317"><ele>316.8</ele><time>2026-04-22T08:32:38.325Z</time></trkpt><trkpt lat="45.514655" lon="11.00755"><ele>320.6</ele><time>2026-04-22T08:32:40.324Z</time></trkpt><trkpt lat="45.5146667" lon="11.007455"><ele>324.40000000000003</ele><time>2026-04-22T08:32:41.325Z</time></trkpt><trkpt lat="45.5147217" lon="11.00728"><ele>328.20000000000005</ele><time>2026-04-22T08:32:43.324Z</time></trkpt><trkpt lat="45.5146717" lon="11.00716"><ele>332.0</ele><time>2026-04-22T08:32:45.324Z</time></trkpt><trkpt lat="45.5145933" lon="11.007185"><ele>334.8</ele><time>2026-04-22T08:32:47.325Z</time></trkpt><trkpt lat="45.5146667" lon="11.0071917"><ele>337.6</ele><time>2026-04-22T08:32:54.324Z</time></trkpt><trkpt lat="45.514755" lon="11.0072167"><ele>340.40000000000003</ele><time>2026-04-22T08:32:56.324Z</time></trkpt><trkpt lat="45.51486" lon="11.0072683"><ele>343.20000000000005</ele><time>2026-04-22T08:32:58.324Z</time></trkpt><trkpt lat="45.51498" lon="11.0072717"><ele>346.0</ele><time>2026-04-22T08:33:00.324Z</time></trkpt><trkpt lat="45.5150817" lon="11.0072067"><ele>346.0</ele><time>2026-04-22T08:33:02.324Z</time></trkpt><trkpt lat="45.5151167" lon="11.007085"><ele>346.0</ele><time>2026-04-22T08:33:04.325Z</time></trkpt><trkpt lat="45.515135" lon="11.0069617"><ele>346.0</ele><time>2026-04-22T08:33:06.324Z</time></trkpt><trkpt lat="45.51516" lon="11.0067983"><ele>346.0</ele><time>2026-04-22T08:33:08.324Z</time></trkpt><trkpt lat="45.51516" lon="11.0066967"><ele>346.0</ele><time>2026-04-22T08:33:09.325Z</time></trkpt><trkpt lat="45.51512" lon="11.0066"><ele>346.0</ele><time>2026-04-22T08:33:12.324Z</time></trkpt><trkpt lat="45.5150233" lon="11.0066417"><ele>346.0</ele><time>2026-04-22T08:33:13.324Z</time></trkpt><trkpt lat="45.51495" lon="11.00663"><ele>346.0</ele><time>2026-04-22T08:33:15.325Z</time></trkpt><trkpt lat="45.51508" lon="11.00664"><ele>346.0</ele><time>2026-04-22T08:33:20.324Z</time></trkpt><trkpt lat="45.51517" lon="11.0066733"><ele>346.0</ele><time>2026-04-22T08:33:21.324Z</time></trkpt><trkpt lat="45.5152383" lon="11.0066883"><ele>346.0</ele><time>2026-04-22T08:33:22.325Z</time></trkpt><trkpt lat="45.515305" lon="11.00672"><ele>346.0</ele><time>2026-04-22T08:33:24.324Z</time></trkpt><trkpt lat="45.5153867" lon="11.006715"><ele>349.66666666666663</ele><time>2026-04-22T08:34:37.324Z</time></trkpt><trkpt lat="45.5154417" lon="11.0065983"><ele>353.3333333333333</ele><time>2026-04-22T08:34:39.325Z</time></trkpt><trkpt lat="45.515475" lon="11.0064867"><ele>357.0</ele><time>2026-04-22T08:34:40.324Z</time></trkpt><trkpt lat="45.5155033" lon="11.0063783"><ele>360.6666666666667</ele><time>2026-04-22T08:34:41.324Z</time></trkpt><trkpt lat="45.5155167" lon="11.0062667"><ele>364.33333333333337</ele><time>2026-04-22T08:34:42.325Z</time></trkpt><trkpt lat="45.51552" lon="11.0061333"><ele>368.0</ele><time>2026-04-22T08:34:44.324Z</time></trkpt><trkpt lat="45.5154833" lon="11.0060267"><ele>368.79999999999995</ele><time>2026-04-22T08:34:46.324Z</time></trkpt><trkpt lat="45.5153633" lon="11.005935"><ele>369.6</ele><time>2026-04-22T08:34:48.325Z</time></trkpt><trkpt lat="45.5152483" lon="11.00592"><ele>370.4</ele><time>2026-04-22T08:34:49.324Z</time></trkpt><trkpt lat="45.5151867" lon="11.005885"><ele>371.20000000000005</ele><time>2026-04-22T08:34:50.325Z</time></trkpt><trkpt lat="45.5151083" lon="11.0058117"><ele>372.0</ele><time>2026-04-22T08:34:52.324Z</time></trkpt><trkpt lat="45.5150867" lon="11.0057083"><ele>372.0</ele><time>2026-04-22T08:34:55.324Z</time></trkpt><trkpt lat="45.51519" lon="11.0056317"><ele>372.0</ele><time>2026-04-22T08:34:57.324Z</time></trkpt><trkpt lat="45.5152883" lon="11.0056017"><ele>372.0</ele><time>2026-04-22T08:34:58.325Z</time></trkpt><trkpt lat="45.515395" lon="11.0056183"><ele>372.0</ele><time>2026-04-22T08:35:00.324Z</time></trkpt><trkpt lat="45.5154867" lon="11.00564"><ele>372.0</ele><time>2026-04-22T08:35:01.324Z</time></trkpt><trkpt lat="45.5155667" lon="11.0056517"><ele>374.25</ele><time>2026-04-22T08:35:02.324Z</time></trkpt><trkpt lat="45.5156617" lon="11.0056583"><ele>376.5</ele><time>2026-04-22T08:35:03.323Z</time></trkpt><trkpt lat="45.515775" lon="11.005645"><ele>378.75</ele><time>2026-04-22T08:35:04.323Z</time></trkpt><trkpt lat="45.5159067" lon="11.0056567"><ele>381.0</ele><time>2026-04-22T08:35:05.323Z</time></trkpt><trkpt lat="45.5160217" lon="11.0056767"><ele>381.0</ele><time>2026-04-22T08:35:06.323Z</time></trkpt><trkpt lat="45.5161217" lon="11.005685"><ele>381.0</ele><time>2026-04-22T08:35:07.323Z</time></trkpt><trkpt lat="45.516225" lon="11.0056933"><ele>381.0</ele><time>2026-04-22T08:35:08.323Z</time></trkpt><trkpt lat="45.5163267" lon="11.0057233"><ele>381.0</ele><time>2026-04-22T08:35:09.323Z</time></trkpt><trkpt lat="45.51642" lon="11.0057517"><ele>381.0</ele><time>2026-04-22T08:35:10.323Z</time></trkpt><trkpt lat="45.5164917" lon="11.005795"><ele>380.0</ele><time>2026-04-22T08:35:11.323Z</time></trkpt><trkpt lat="45.51656" lon="11.0058433"><ele>379.0</ele><time>2026-04-22T08:35:12.323Z</time></trkpt><trkpt lat="45.5166233" lon="11.0058483"><ele>378.0</ele><time>2026-04-22T08:35:13.323Z</time></trkpt><trkpt lat="45.5166967" lon="11.0058567"><ele>377.0</ele><time>2026-04-22T08:35:14.323Z</time></trkpt><trkpt lat="45.516825" lon="11.0058333"><ele>376.0</ele><time>2026-04-22T08:35:16.323Z</time></trkpt><trkpt lat="45.5169" lon="11.005825"><ele>375.0</ele><time>2026-04-22T08:35:17.323Z</time></trkpt><trkpt lat="45.517015" lon="11.0058067"><ele>379.2</ele><time>2026-04-22T08:35:18.323Z</time></trkpt><trkpt lat="45.5170967" lon="11.005805"><ele>383.4</ele><time>2026-04-22T08:35:19.324Z</time></trkpt><trkpt lat="45.5171667" lon="11.0058017"><ele>387.6</ele><time>2026-04-22T08:35:20.323Z</time></trkpt><trkpt lat="45.51729" lon="11.005795"><ele>391.8</ele><time>2026-04-22T08:35:22.323Z</time></trkpt><trkpt lat="45.517395" lon="11.0057483"><ele>396.0</ele><time>2026-04-22T08:35:24.323Z</time></trkpt><trkpt lat="45.5174633" lon="11.0057333"><ele>396.0</ele><time>2026-04-22T08:35:25.323Z</time></trkpt><trkpt lat="45.5175383" lon="11.0057233"><ele>396.0</ele><time>2026-04-22T08:35:26.323Z</time></trkpt><trkpt lat="45.517615" lon="11.0057267"><ele>396.0</ele><time>2026-04-22T08:35:27.323Z</time></trkpt><trkpt lat="45.5176867" lon="11.005735"><ele>396.0</ele><time>2026-04-22T08:35:28.323Z</time></trkpt><trkpt lat="45.5177533" lon="11.005745"><ele>396.0</ele><time>2026-04-22T08:35:29.323Z</time></trkpt><trkpt lat="45.5178817" lon="11.0057517"><ele>396.0</ele><time>2026-04-22T08:35:31.323Z</time></trkpt><trkpt lat="45.5179483" lon="11.0057483"><ele>397.0</ele><time>2026-04-22T08:35:32.323Z</time></trkpt><trkpt lat="45.5180267" lon="11.0057383"><ele>398.0</ele><time>2026-04-22T08:35:33.323Z</time></trkpt><trkpt lat="45.5181083" lon="11.0058167"><ele>399.0</ele><time>2026-04-22T08:35:35.323Z</time></trkpt><trkpt lat="45.5181667" lon="11.0059283"><ele>400.0</ele><time>2026-04-22T08:35:37.324Z</time></trkpt><trkpt lat="45.5182233" lon="11.0058467"><ele>401.0</ele><time>2026-04-22T08:36:49.323Z</time></trkpt><trkpt lat="45.51812" lon="11.005805"><ele>401.0</ele><time>2026-04-22T08:36:55.323Z</time></trkpt><trkpt lat="45.5179983" lon="11.0058217"><ele>401.0</ele><time>2026-04-22T08:36:57.323Z</time></trkpt><trkpt lat="45.5178717" lon="11.0058383"><ele>401.0</ele><time>2026-04-22T08:36:59.323Z</time></trkpt><trkpt lat="45.517805" lon="11.0058633"><ele>401.0</ele><time>2026-04-22T08:37:00.324Z</time></trkpt><trkpt lat="45.51768" lon="11.005895"><ele>401.0</ele><time>2026-04-22T08:37:02.323Z</time></trkpt><trkpt lat="45.5176083" lon="11.00591"><ele>396.49999999999994</ele><time>2026-04-22T08:37:03.323Z</time></trkpt><trkpt lat="45.5175383" lon="11.0059317"><ele>392.0</ele><time>2026-04-22T08:37:04.324Z</time></trkpt><trkpt lat="45.517455" lon="11.0059717"><ele>387.5</ele><time>2026-04-22T08:37:05.323Z</time></trkpt><trkpt lat="45.5173733" lon="11.0059983"><ele>383.0</ele><time>2026-04-22T08:37:06.323Z</time></trkpt><trkpt lat="45.51731" lon="11.00601"><ele>378.5</ele><time>2026-04-22T08:37:07.324Z</time></trkpt><trkpt lat="45.5171783" lon="11.0060333"><ele>374.0</ele><time>2026-04-22T08:37:09.323Z</time></trkpt><trkpt lat="45.5171117" lon="11.006035"><ele>374.1428571428571</ele><time>2026-04-22T08:37:10.323Z</time></trkpt><trkpt lat="45.517045" lon="11.0060467"><ele>374.28571428571433</ele><time>2026-04-22T08:37:11.323Z</time></trkpt><trkpt lat="45.51697" lon="11.0060533"><ele>374.42857142857144</ele><time>2026-04-22T08:37:12.323Z</time></trkpt><trkpt lat="45.516895" lon="11.00606"><ele>374.57142857142856</ele><time>2026-04-22T08:37:13.323Z</time></trkpt><trkpt lat="45.516825" lon="11.0060583"><ele>374.71428571428567</ele><time>2026-04-22T08:37:14.323Z</time></trkpt><trkpt lat="45.5167517" lon="11.00607"><ele>374.8571428571429</ele><time>2026-04-22T08:37:15.323Z</time></trkpt><trkpt lat="45.516685" lon="11.0060733"><ele>375.0</ele><time>2026-04-22T08:37:16.324Z</time></trkpt><trkpt lat="45.5165583" lon="11.0060717"><ele>375.0</ele><time>2026-04-22T08:37:18.323Z</time></trkpt><trkpt lat="45.5164933" lon="11.0060583"><ele>375.0</ele><time>2026-04-22T08:37:19.323Z</time></trkpt><trkpt lat="45.5163917" lon="11.0060433"><ele>375.0</ele><time>2026-04-22T08:37:21.323Z</time></trkpt><trkpt lat="45.516395" lon="11.005925"><ele>375.0</ele><time>2026-04-22T08:37:31.323Z</time></trkpt><trkpt lat="45.51643" lon="11.0058383"><ele>375.0</ele><time>2026-04-22T08:37:33.323Z</time></trkpt><trkpt lat="45.5164583" lon="11.0057167"><ele>375.0</ele><time>2026-04-22T08:37:35.323Z</time></trkpt><trkpt lat="45.516465" lon="11.0056133"><ele>378.2</ele><time>2026-04-22T08:37:37.323Z</time></trkpt><trkpt lat="45.5165167" lon="11.0054717"><ele>381.4</ele><time>2026-04-22T08:37:40.323Z</time></trkpt><trkpt lat="45.5165567" lon="11.0053767"><ele>384.6</ele><time>2026-04-22T08:37:42.323Z</time></trkpt><trkpt lat="45.516605" lon="11.0053033"><ele>387.8</ele><time>2026-04-22T08:37:44.323Z</time></trkpt><trkpt lat="45.5166517" lon="11.0051917"><ele>391.0</ele><time>2026-04-22T08:37:46.322Z</time></trkpt><trkpt lat="45.51669" lon="11.005045"><ele>393.6666666666667</ele><time>2026-04-22T08:37:48.322Z</time></trkpt><trkpt lat="45.5167167" lon="11.0049033"><ele>396.33333333333337</ele><time>2026-04-22T08:37:50.322Z</time></trkpt><trkpt lat="45.5167283" lon="11.0047917"><ele>399.0</ele><time>2026-04-22T08:37:52.323Z</time></trkpt><trkpt lat="45.5167433" lon="11.00468"><ele>401.66666666666663</ele><time>2026-04-22T08:37:56.322Z</time></trkpt><trkpt lat="45.5167883" lon="11.0045867"><ele>404.3333333333333</ele><time>2026-04-22T08:37:58.322Z</time></trkpt><trkpt lat="45.5167733" lon="11.0044883"><ele>407.0</ele><time>2026-04-22T08:38:03.322Z</time></trkpt><trkpt lat="45.5168067" lon="11.0044017"><ele>406.99999999999994</ele><time>2026-04-22T08:38:29.323Z</time></trkpt><trkpt lat="45.5167367" lon="11.0043667"><ele>407.0</ele><time>2026-04-22T08:38:33.323Z</time></trkpt><trkpt lat="45.5166617" lon="11.004335"><ele>407.0</ele><time>2026-04-22T08:38:35.322Z</time></trkpt><trkpt lat="45.51657" lon="11.0043117"><ele>407.0</ele><time>2026-04-22T08:38:37.322Z</time></trkpt><trkpt lat="45.5165117" lon="11.0042683"><ele>406.99999999999994</ele><time>2026-04-22T08:38:39.322Z</time></trkpt><trkpt lat="45.5164317" lon="11.0042417"><ele>407.0</ele><time>2026-04-22T08:38:41.323Z</time></trkpt><trkpt lat="45.5163333" lon="11.0042433"><ele>410.0</ele><time>2026-04-22T08:38:44.322Z</time></trkpt><trkpt lat="45.5162717" lon="11.0041533"><ele>413.0</ele><time>2026-04-22T08:38:46.322Z</time></trkpt><trkpt lat="45.5161717" lon="11.0041017"><ele>416.0</ele><time>2026-04-22T08:38:48.322Z</time></trkpt><trkpt lat="45.5160767" lon="11.0040433"><ele>419.0</ele><time>2026-04-22T08:38:50.323Z</time></trkpt><trkpt lat="45.5160133" lon="11.004055"><ele>422.0</ele><time>2026-04-22T08:38:51.323Z</time></trkpt><trkpt lat="45.5159267" lon="11.0041133"><ele>421.99999999999994</ele><time>2026-04-22T08:38:52.322Z</time></trkpt><trkpt lat="45.5158667" lon="11.0041683"><ele>422.0</ele><time>2026-04-22T08:38:53.322Z</time></trkpt><trkpt lat="45.5159383" lon="11.004175"><ele>422.0</ele><time>2026-04-22T08:39:02.322Z</time></trkpt><trkpt lat="45.5160183" lon="11.0041633"><ele>422.0</ele><time>2026-04-22T08:39:04.322Z</time></trkpt><trkpt lat="45.5161167" lon="11.004105"><ele>421.99999999999994</ele><time>2026-04-22T08:39:06.323Z</time></trkpt><trkpt lat="45.5161833" lon="11.004055"><ele>422.0</ele><time>2026-04-22T08:39:07.322Z</time></trkpt><trkpt lat="45.5162883" lon="11.0040417"><ele>423.8</ele><time>2026-04-22T08:39:09.322Z</time></trkpt><trkpt lat="45.5163883" lon="11.0040033"><ele>425.6</ele><time>2026-04-22T08:39:11.323Z</time></trkpt><trkpt lat="45.5164717" lon="11.0039367"><ele>427.40000000000003</ele><time>2026-04-22T08:39:13.323Z</time></trkpt><trkpt lat="45.5165383" lon="11.0038867"><ele>429.20000000000005</ele><time>2026-04-22T08:39:16.322Z</time></trkpt><trkpt lat="45.5164533" lon="11.00382"><ele>431.0</ele><time>2026-04-22T08:39:27.322Z</time></trkpt><trkpt lat="45.5163683" lon="11.0037333"><ele>431.0</ele><time>2026-04-22T08:39:29.322Z</time></trkpt><trkpt lat="45.5162817" lon="11.0036167"><ele>431.0</ele><time>2026-04-22T08:39:31.322Z</time></trkpt><trkpt lat="45.5161933" lon="11.003575"><ele>431.0</ele><time>2026-04-22T08:39:32.323Z</time></trkpt><trkpt lat="45.51612" lon="11.00351"><ele>431.0</ele><time>2026-04-22T08:39:33.322Z</time></trkpt><trkpt lat="45.5160617" lon="11.003435"><ele>431.0</ele><time>2026-04-22T08:39:34.322Z</time></trkpt><trkpt lat="45.5159933" lon="11.00337"><ele>432.66666666666663</ele><time>2026-04-22T08:39:35.322Z</time></trkpt><trkpt lat="45.5159333" lon="11.003295"><ele>434.3333333333333</ele><time>2026-04-22T08:39:36.323Z</time></trkpt><trkpt lat="45.5158667" lon="11.00323"><ele>436.0</ele><time>2026-04-22T08:39:37.322Z</time></trkpt><trkpt lat="45.515795" lon="11.0031767"><ele>437.66666666666663</ele><time>2026-04-22T08:39:38.323Z</time></trkpt><trkpt lat="45.5157317" lon="11.0031217"><ele>439.3333333333333</ele><time>2026-04-22T08:39:39.322Z</time></trkpt><trkpt lat="45.5156567" lon="11.0030783"><ele>441.0</ele><time>2026-04-22T08:39:40.322Z</time></trkpt><trkpt lat="45.5155917" lon="11.00303"><ele>441.0</ele><time>2026-04-22T08:39:41.323Z</time></trkpt><trkpt lat="45.5155117" lon="11.0029883"><ele>441.0</ele><time>2026-04-22T08:39:42.322Z</time></trkpt><trkpt lat="45.5154433" lon="11.0029333"><ele>441.0</ele><time>2026-04-22T08:39:43.322Z</time></trkpt><trkpt lat="45.5153733" lon="11.002875"><ele>441.0</ele><time>2026-04-22T08:39:44.322Z</time></trkpt><trkpt lat="45.5153017" lon="11.00282"><ele>441.0</ele><time>2026-04-22T08:39:45.322Z</time></trkpt><trkpt lat="45.51525" lon="11.0027517"><ele>441.0</ele><time>2026-04-22T08:39:46.322Z</time></trkpt><trkpt lat="45.5152" lon="11.0026783"><ele>440.3333333333333</ele><time>2026-04-22T08:39:47.322Z</time></trkpt><trkpt lat="45.5151583" lon="11.002605"><ele>439.66666666666663</ele><time>2026-04-22T08:39:48.322Z</time></trkpt><trkpt lat="45.5150783" lon="11.0024733"><ele>439.0</ele><time>2026-04-22T08:39:50.322Z</time></trkpt><trkpt lat="45.5151033" lon="11.0023883"><ele>438.3333333333333</ele><time>2026-04-22T08:39:51.322Z</time></trkpt><trkpt lat="45.515135" lon="11.0022917"><ele>437.66666666666663</ele><time>2026-04-22T08:39:53.322Z</time></trkpt><trkpt lat="45.5151983" lon="11.002245"><ele>437.0</ele><time>2026-04-22T08:39:55.322Z</time></trkpt><trkpt lat="45.515295" lon="11.0022667"><ele>436.99999999999994</ele><time>2026-04-22T08:39:57.322Z</time></trkpt><trkpt lat="45.5153617" lon="11.0023"><ele>437.0</ele><time>2026-04-22T08:39:58.322Z</time></trkpt><trkpt lat="45.515465" lon="11.0023467"><ele>437.0</ele><time>2026-04-22T08:40:00.322Z</time></trkpt><trkpt lat="45.515525" lon="11.0023917"><ele>437.0</ele><time>2026-04-22T08:40:01.322Z</time></trkpt><trkpt lat="45.515615" lon="11.0023833"><ele>436.99999999999994</ele><time>2026-04-22T08:40:02.323Z</time></trkpt><trkpt lat="45.5156933" lon="11.0023783"><ele>437.0</ele><time>2026-04-22T08:40:03.322Z</time></trkpt><trkpt lat="45.5157833" lon="11.0023783"><ele>437.8</ele><time>2026-04-22T08:40:04.322Z</time></trkpt><trkpt lat="45.5158767" lon="11.0023883"><ele>438.6</ele><time>2026-04-22T08:40:05.322Z</time></trkpt><trkpt lat="45.515995" lon="11.0023983"><ele>439.40000000000003</ele><time>2026-04-22T08:40:06.322Z</time></trkpt><trkpt lat="45.516075" lon="11.00243"><ele>440.20000000000005</ele><time>2026-04-22T08:40:07.322Z</time></trkpt><trkpt lat="45.5161333" lon="11.002475"><ele>441.0</ele><time>2026-04-22T08:40:08.322Z</time></trkpt><trkpt lat="45.516225" lon="11.0025033"><ele>442.0</ele><time>2026-04-22T08:40:09.322Z</time></trkpt><trkpt lat="45.5163233" lon="11.0025067"><ele>443.0</ele><time>2026-04-22T08:40:10.322Z</time></trkpt><trkpt lat="45.5164217" lon="11.0025017"><ele>444.0</ele><time>2026-04-22T08:40:11.322Z</time></trkpt><trkpt lat="45.5165067" lon="11.002495"><ele>445.0</ele><time>2026-04-22T08:40:12.322Z</time></trkpt><trkpt lat="45.516585" lon="11.0025017"><ele>446.0</ele><time>2026-04-22T08:40:13.323Z</time></trkpt><trkpt lat="45.516705" lon="11.0025283"><ele>446.0</ele><time>2026-04-22T08:40:14.322Z</time></trkpt><trkpt lat="45.516805" lon="11.0025767"><ele>446.0</ele><time>2026-04-22T08:40:15.322Z</time></trkpt><trkpt lat="45.5168883" lon="11.0026283"><ele>446.0</ele><time>2026-04-22T08:40:16.323Z</time></trkpt><trkpt lat="45.5170483" lon="11.0026733"><ele>446.0</ele><time>2026-04-22T08:40:17.322Z</time></trkpt><trkpt lat="45.51711" lon="11.002765"><ele>446.0</ele><time>2026-04-22T08:40:18.322Z</time></trkpt><trkpt lat="45.5171767" lon="11.0028517"><ele>446.20000000000005</ele><time>2026-04-22T08:40:19.322Z</time></trkpt><trkpt lat="45.5172433" lon="11.0029233"><ele>446.40000000000003</ele><time>2026-04-22T08:40:20.322Z</time></trkpt><trkpt lat="45.51733" lon="11.0030533"><ele>446.6</ele><time>2026-04-22T08:40:22.322Z</time></trkpt><trkpt lat="45.5173917" lon="11.00311"><ele>446.8</ele><time>2026-04-22T08:40:23.322Z</time></trkpt><trkpt lat="45.5174867" lon="11.00314"><ele>447.0</ele><time>2026-04-22T08:40:24.323Z</time></trkpt><trkpt lat="45.517585" lon="11.0031533"><ele>447.0</ele><time>2026-04-22T08:40:25.323Z</time></trkpt><trkpt lat="45.51766" lon="11.0031867"><ele>447.0</ele><time>2026-04-22T08:40:26.322Z</time></trkpt><trkpt lat="45.5177317" lon="11.0032183"><ele>447.0</ele><time>2026-04-22T08:40:27.323Z</time></trkpt><trkpt lat="45.5177983" lon="11.0032667"><ele>447.0</ele><time>2026-04-22T08:40:28.322Z</time></trkpt><trkpt lat="45.51788" lon="11.003305"><ele>447.0</ele><time>2026-04-22T08:40:29.322Z</time></trkpt><trkpt lat="45.5179633" lon="11.0033517"><ele>447.0</ele><time>2026-04-22T08:40:30.321Z</time></trkpt><trkpt lat="45.5180467" lon="11.003395"><ele>447.6</ele><time>2026-04-22T08:40:31.321Z</time></trkpt><trkpt lat="45.5181583" lon="11.0034167"><ele>448.20000000000005</ele><time>2026-04-22T08:40:32.321Z</time></trkpt><trkpt lat="45.518255" lon="11.0034317"><ele>448.8</ele><time>2026-04-22T08:40:33.321Z</time></trkpt><trkpt lat="45.5183567" lon="11.0034317"><ele>449.4</ele><time>2026-04-22T08:40:34.321Z</time></trkpt><trkpt lat="45.5184417" lon="11.0034317"><ele>450.0</ele><time>2026-04-22T08:40:35.321Z</time></trkpt><trkpt lat="45.5185283" lon="11.0033817"><ele>450.7142857142858</ele><time>2026-04-22T08:40:36.322Z</time></trkpt><trkpt lat="45.5186067" lon="11.0033167"><ele>451.42857142857144</ele><time>2026-04-22T08:40:37.322Z</time></trkpt><trkpt lat="45.5186667" lon="11.003265"><ele>452.14285714285717</ele><time>2026-04-22T08:40:38.321Z</time></trkpt><trkpt lat="45.5187383" lon="11.00322"><ele>452.8571428571429</ele><time>2026-04-22T08:40:39.321Z</time></trkpt><trkpt lat="45.5188033" lon="11.0031983"><ele>453.57142857142856</ele><time>2026-04-22T08:40:40.322Z</time></trkpt><trkpt lat="45.51887" lon="11.00318"><ele>454.2857142857143</ele><time>2026-04-22T08:40:41.321Z</time></trkpt><trkpt lat="45.51894" lon="11.003145"><ele>455.0</ele><time>2026-04-22T08:40:42.321Z</time></trkpt><trkpt lat="45.5190067" lon="11.0031217"><ele>455.8571428571429</ele><time>2026-04-22T08:40:43.322Z</time></trkpt><trkpt lat="45.51907" lon="11.00308"><ele>456.7142857142857</ele><time>2026-04-22T08:40:44.321Z</time></trkpt><trkpt lat="45.519135" lon="11.00303"><ele>457.57142857142856</ele><time>2026-04-22T08:40:45.321Z</time></trkpt><trkpt lat="45.5192" lon="11.0029833"><ele>458.42857142857144</ele><time>2026-04-22T08:40:46.321Z</time></trkpt><trkpt lat="45.5192683" lon="11.0029367"><ele>459.28571428571433</ele><time>2026-04-22T08:40:47.321Z</time></trkpt><trkpt lat="45.5193367" lon="11.0029067"><ele>460.14285714285717</ele><time>2026-04-22T08:40:48.322Z</time></trkpt><trkpt lat="45.5194133" lon="11.00288"><ele>461.0</ele><time>2026-04-22T08:40:49.321Z</time></trkpt><trkpt lat="45.519535" lon="11.0028483"><ele>461.6</ele><time>2026-04-22T08:40:51.321Z</time></trkpt><trkpt lat="45.5195983" lon="11.00282"><ele>462.20000000000005</ele><time>2026-04-22T08:40:52.321Z</time></trkpt><trkpt lat="45.5197233" lon="11.0027817"><ele>462.79999999999995</ele><time>2026-04-22T08:40:54.322Z</time></trkpt><trkpt lat="45.5198433" lon="11.0027683"><ele>463.4</ele><time>2026-04-22T08:40:56.321Z</time></trkpt><trkpt lat="45.5199467" lon="11.0027583"><ele>464.0</ele><time>2026-04-22T08:40:58.322Z</time></trkpt><trkpt lat="45.520035" lon="11.002685"><ele>464.0</ele><time>2026-04-22T08:41:00.321Z</time></trkpt><trkpt lat="45.5200917" lon="11.0025467"><ele>464.0</ele><time>2026-04-22T08:41:02.321Z</time></trkpt><trkpt lat="45.520125" lon="11.0024517"><ele>464.0</ele><time>2026-04-22T08:41:04.321Z</time></trkpt><trkpt lat="45.5202083" lon="11.0023883"><ele>464.0</ele><time>2026-04-22T08:41:07.321Z</time></trkpt><trkpt lat="45.52019" lon="11.0022717"><ele>464.0</ele><time>2026-04-22T08:41:10.321Z</time></trkpt><trkpt lat="45.520165" lon="11.0020967"><ele>464.66666666666663</ele><time>2026-04-22T08:41:12.321Z</time></trkpt><trkpt lat="45.5201133" lon="11.0020083"><ele>465.3333333333333</ele><time>2026-04-22T08:41:13.321Z</time></trkpt><trkpt lat="45.5200833" lon="11.00192"><ele>466.0</ele><time>2026-04-22T08:41:14.321Z</time></trkpt><trkpt lat="45.52006" lon="11.0018333"><ele>466.66666666666663</ele><time>2026-04-22T08:41:15.321Z</time></trkpt><trkpt lat="45.5200283" lon="11.001695"><ele>467.3333333333333</ele><time>2026-04-22T08:41:17.322Z</time></trkpt><trkpt lat="45.5200033" lon="11.0015883"><ele>468.0</ele><time>2026-04-22T08:41:19.321Z</time></trkpt><trkpt lat="45.52001" lon="11.0014867"><ele>468.0</ele><time>2026-04-22T08:41:21.321Z</time></trkpt><trkpt lat="45.5199683" lon="11.0013983"><ele>468.0</ele><time>2026-04-22T08:41:23.321Z</time></trkpt><trkpt lat="45.51999" lon="11.001305"><ele>468.0</ele><time>2026-04-22T08:41:25.321Z</time></trkpt><trkpt lat="45.5199433" lon="11.0012067"><ele>468.0</ele><time>2026-04-22T08:44:41.321Z</time></trkpt><trkpt lat="45.519985" lon="11.00112"><ele>468.0</ele><time>2026-04-22T08:44:42.32Z</time></trkpt><trkpt lat="45.520015" lon="11.001"><ele>468.0</ele><time>2026-04-22T08:44:43.32Z</time></trkpt><trkpt lat="45.5200617" lon="11.0008433"><ele>467.2</ele><time>2026-04-22T08:44:44.32Z</time></trkpt><trkpt lat="45.5200917" lon="11.0006967"><ele>466.4</ele><time>2026-04-22T08:44:45.32Z</time></trkpt><trkpt lat="45.52011" lon="11.00056"><ele>465.59999999999997</ele><time>2026-04-22T08:44:46.321Z</time></trkpt><trkpt lat="45.5201183" lon="11.00042"><ele>464.79999999999995</ele><time>2026-04-22T08:44:47.32Z</time></trkpt><trkpt lat="45.520135" lon="11.0002733"><ele>464.0</ele><time>2026-04-22T08:44:48.321Z</time></trkpt><trkpt lat="45.5201283" lon="11.0001383"><ele>464.0</ele><time>2026-04-22T08:44:49.32Z</time></trkpt><trkpt lat="45.5201217" lon="11.0000117"><ele>464.0</ele><time>2026-04-22T08:44:50.32Z</time></trkpt><trkpt lat="45.5201217" lon="10.999875"><ele>464.0</ele><time>2026-04-22T08:44:51.32Z</time></trkpt><trkpt lat="45.5201067" lon="10.9997467"><ele>464.0</ele><time>2026-04-22T08:44:52.32Z</time></trkpt><trkpt lat="45.5200933" lon="10.9996117"><ele>464.0</ele><time>2026-04-22T08:44:53.321Z</time></trkpt><trkpt lat="45.5200883" lon="10.9994417"><ele>463.99999999999994</ele><time>2026-04-22T08:44:54.32Z</time></trkpt><trkpt lat="45.5200883" lon="10.9993117"><ele>464.0</ele><time>2026-04-22T08:44:55.32Z</time></trkpt><trkpt lat="45.52007" lon="10.9991767"><ele>464.0</ele><time>2026-04-22T08:44:56.32Z</time></trkpt><trkpt lat="45.52006" lon="10.999055"><ele>464.0</ele><time>2026-04-22T08:44:57.32Z</time></trkpt><trkpt lat="45.52007" lon="10.998955"><ele>463.99999999999994</ele><time>2026-04-22T08:44:58.32Z</time></trkpt><trkpt lat="45.520085" lon="10.9988567"><ele>464.0</ele><time>2026-04-22T08:44:59.32Z</time></trkpt><trkpt lat="45.5201217" lon="10.9987733"><ele>463.8333333333333</ele><time>2026-04-22T08:45:00.32Z</time></trkpt><trkpt lat="45.5201683" lon="10.9987033"><ele>463.66666666666663</ele><time>2026-04-22T08:45:01.32Z</time></trkpt><trkpt lat="45.52021" lon="10.9986217"><ele>463.5</ele><time>2026-04-22T08:45:02.32Z</time></trkpt><trkpt lat="45.520265" lon="10.9985533"><ele>463.33333333333337</ele><time>2026-04-22T08:45:03.32Z</time></trkpt><trkpt lat="45.5203183" lon="10.9984867"><ele>463.1666666666667</ele><time>2026-04-22T08:45:04.32Z</time></trkpt><trkpt lat="45.5203683" lon="10.9984183"><ele>463.0</ele><time>2026-04-22T08:45:05.32Z</time></trkpt><trkpt lat="45.52047" lon="10.9983167"><ele>464.0</ele><time>2026-04-22T08:45:07.32Z</time></trkpt><trkpt lat="45.5205783" lon="10.998235"><ele>464.99999999999994</ele><time>2026-04-22T08:45:09.32Z</time></trkpt><trkpt lat="45.52068" lon="10.9981633"><ele>465.99999999999994</ele><time>2026-04-22T08:45:11.32Z</time></trkpt><trkpt lat="45.5207517" lon="10.9981467"><ele>467.0</ele><time>2026-04-22T08:45:13.32Z</time></trkpt><trkpt lat="45.520825" lon="10.9980967"><ele>468.0</ele><time>2026-04-22T08:45:23.32Z</time></trkpt><trkpt lat="45.5208767" lon="10.99804"><ele>468.0</ele><time>2026-04-22T08:45:24.32Z</time></trkpt><trkpt lat="45.5209467" lon="10.9979867"><ele>468.0</ele><time>2026-04-22T08:45:25.32Z</time></trkpt><trkpt lat="45.5210333" lon="10.9979467"><ele>468.0</ele><time>2026-04-22T08:45:26.32Z</time></trkpt><trkpt lat="45.5211317" lon="10.9979017"><ele>468.0</ele><time>2026-04-22T08:45:27.32Z</time></trkpt><trkpt lat="45.5212133" lon="10.997835"><ele>468.0</ele><time>2026-04-22T08:45:28.32Z</time></trkpt><trkpt lat="45.5212767" lon="10.997765"><ele>468.0</ele><time>2026-04-22T08:45:29.32Z</time></trkpt><trkpt lat="45.5213417" lon="10.9976733"><ele>467.8333333333333</ele><time>2026-04-22T08:45:30.32Z</time></trkpt><trkpt lat="45.5213817" lon="10.9975617"><ele>467.66666666666663</ele><time>2026-04-22T08:45:31.32Z</time></trkpt><trkpt lat="45.5214333" lon="10.9974617"><ele>467.5</ele><time>2026-04-22T08:45:32.32Z</time></trkpt><trkpt lat="45.5214917" lon="10.997385"><ele>467.3333333333333</ele><time>2026-04-22T08:45:33.32Z</time></trkpt><trkpt lat="45.5215517" lon="10.9973283"><ele>467.16666666666663</ele><time>2026-04-22T08:45:34.32Z</time></trkpt><trkpt lat="45.5216217" lon="10.997305"><ele>467.0</ele><time>2026-04-22T08:45:35.32Z</time></trkpt><trkpt lat="45.52169" lon="10.9973117"><ele>466.8333333333333</ele><time>2026-04-22T08:45:36.32Z</time></trkpt><trkpt lat="45.5217733" lon="10.9973333"><ele>466.66666666666663</ele><time>2026-04-22T08:45:37.321Z</time></trkpt><trkpt lat="45.5218533" lon="10.9973617"><ele>466.5</ele><time>2026-04-22T08:45:38.32Z</time></trkpt><trkpt lat="45.521935" lon="10.9973683"><ele>466.33333333333337</ele><time>2026-04-22T08:45:39.321Z</time></trkpt><trkpt lat="45.5220117" lon="10.997365"><ele>466.1666666666667</ele><time>2026-04-22T08:45:40.32Z</time></trkpt><trkpt lat="45.52209" lon="10.9973567"><ele>466.0</ele><time>2026-04-22T08:45:41.32Z</time></trkpt><trkpt lat="45.5221683" lon="10.9973583"><ele>466.42857142857144</ele><time>2026-04-22T08:45:42.32Z</time></trkpt><trkpt lat="45.522245" lon="10.997375"><ele>466.85714285714283</ele><time>2026-04-22T08:45:43.32Z</time></trkpt><trkpt lat="45.522315" lon="10.9974083"><ele>467.2857142857143</ele><time>2026-04-22T08:45:44.32Z</time></trkpt><trkpt lat="45.522385" lon="10.9974417"><ele>467.7142857142857</ele><time>2026-04-22T08:45:45.32Z</time></trkpt><trkpt lat="45.52245" lon="10.997495"><ele>468.1428571428571</ele><time>2026-04-22T08:45:46.32Z</time></trkpt><trkpt lat="45.5224883" lon="10.9975667"><ele>468.57142857142856</ele><time>2026-04-22T08:45:50.32Z</time></trkpt><trkpt lat="45.5225317" lon="10.9976583"><ele>469.0</ele><time>2026-04-22T08:46:04.32Z</time></trkpt><trkpt lat="45.52261" lon="10.9976733"><ele>469.00000000000006</ele><time>2026-04-22T08:46:07.32Z</time></trkpt><trkpt lat="45.5227017" lon="10.9976267"><ele>469.0</ele><time>2026-04-22T08:46:09.32Z</time></trkpt><trkpt lat="45.5227683" lon="10.997565"><ele>469.0</ele><time>2026-04-22T08:46:10.321Z</time></trkpt><trkpt lat="45.5228317" lon="10.9975133"><ele>469.0</ele><time>2026-04-22T08:46:11.321Z</time></trkpt><trkpt lat="45.5228917" lon="10.9974617"><ele>469.00000000000006</ele><time>2026-04-22T08:46:12.32Z</time></trkpt><trkpt lat="45.5229433" lon="10.997375"><ele>469.0</ele><time>2026-04-22T08:46:13.32Z</time></trkpt><trkpt lat="45.5229867" lon="10.99728"><ele>467.6</ele><time>2026-04-22T08:46:14.32Z</time></trkpt><trkpt lat="45.5230367" lon="10.9971833"><ele>466.2</ele><time>2026-04-22T08:46:15.32Z</time></trkpt><trkpt lat="45.5230633" lon="10.99706"><ele>464.80000000000007</ele><time>2026-04-22T08:46:16.32Z</time></trkpt><trkpt lat="45.523105" lon="10.996945"><ele>463.40000000000003</ele><time>2026-04-22T08:46:17.321Z</time></trkpt><trkpt lat="45.5231467" lon="10.99682"><ele>462.0</ele><time>2026-04-22T08:46:18.32Z</time></trkpt><trkpt lat="45.5231933" lon="10.996705"><ele>460.8</ele><time>2026-04-22T08:46:19.32Z</time></trkpt><trkpt lat="45.5232317" lon="10.9965767"><ele>459.6</ele><time>2026-04-22T08:46:20.32Z</time></trkpt><trkpt lat="45.5232617" lon="10.99645"><ele>458.40000000000003</ele><time>2026-04-22T08:46:21.32Z</time></trkpt><trkpt lat="45.523295" lon="10.9963117"><ele>457.20000000000005</ele><time>2026-04-22T08:46:22.321Z</time></trkpt><trkpt lat="45.5233333" lon="10.9961667"><ele>456.0</ele><time>2026-04-22T08:46:23.32Z</time></trkpt><trkpt lat="45.5233583" lon="10.9960483"><ele>456.0</ele><time>2026-04-22T08:46:24.321Z</time></trkpt><trkpt lat="45.52338" lon="10.9959333"><ele>456.0</ele><time>2026-04-22T08:46:25.321Z</time></trkpt><trkpt lat="45.5233867" lon="10.9958167"><ele>456.0</ele><time>2026-04-22T08:46:26.32Z</time></trkpt><trkpt lat="45.5233967" lon="10.9957133"><ele>456.0</ele><time>2026-04-22T08:46:27.32Z</time></trkpt><trkpt lat="45.5233983" lon="10.9955717"><ele>456.0</ele><time>2026-04-22T08:46:29.32Z</time></trkpt><trkpt lat="45.52346" lon="10.9954683"><ele>456.0</ele><time>2026-04-22T08:46:32.32Z</time></trkpt><trkpt lat="45.5235367" lon="10.9953983"><ele>456.20000000000005</ele><time>2026-04-22T08:46:34.32Z</time></trkpt><trkpt lat="45.5236217" lon="10.9953233"><ele>456.40000000000003</ele><time>2026-04-22T08:46:36.32Z</time></trkpt><trkpt lat="45.5236967" lon="10.9952383"><ele>456.6</ele><time>2026-04-22T08:46:38.32Z</time></trkpt><trkpt lat="45.5237783" lon="10.9951283"><ele>456.8</ele><time>2026-04-22T08:46:40.32Z</time></trkpt><trkpt lat="45.5238483" lon="10.9950017"><ele>457.0</ele><time>2026-04-22T08:46:42.321Z</time></trkpt><trkpt lat="45.5239183" lon="10.9948833"><ele>457.0</ele><time>2026-04-22T08:46:44.32Z</time></trkpt><trkpt lat="45.5239817" lon="10.9947633"><ele>457.00000000000006</ele><time>2026-04-22T08:46:46.32Z</time></trkpt><trkpt lat="45.5240333" lon="10.9946583"><ele>457.00000000000006</ele><time>2026-04-22T08:46:48.32Z</time></trkpt><trkpt lat="45.5240783" lon="10.9945533"><ele>457.0</ele><time>2026-04-22T08:46:51.321Z</time></trkpt><trkpt lat="45.5240633" lon="10.9944533"><ele>457.0</ele><time>2026-04-22T08:46:55.32Z</time></trkpt><trkpt lat="45.5240983" lon="10.9943233"><ele>457.0</ele><time>2026-04-22T08:46:57.32Z</time></trkpt><trkpt lat="45.5241383" lon="10.9941883"><ele>457.00000000000006</ele><time>2026-04-22T08:46:59.32Z</time></trkpt><trkpt lat="45.5241683" lon="10.9940733"><ele>457.00000000000006</ele><time>2026-04-22T08:47:01.321Z</time></trkpt><trkpt lat="45.5241567" lon="10.99393"><ele>457.0</ele><time>2026-04-22T08:47:03.32Z</time></trkpt><trkpt lat="45.5240667" lon="10.9938083"><ele>457.0</ele><time>2026-04-22T08:47:04.32Z</time></trkpt><trkpt lat="45.5239967" lon="10.9937167"><ele>457.33333333333337</ele><time>2026-04-22T08:47:05.321Z</time></trkpt><trkpt lat="45.5239267" lon="10.9937267"><ele>457.6666666666667</ele><time>2026-04-22T08:47:07.319Z</time></trkpt><trkpt lat="45.52386" lon="10.9937267"><ele>458.0</ele><time>2026-04-22T08:47:09.319Z</time></trkpt><trkpt lat="45.523795" lon="10.993735"><ele>458.33333333333337</ele><time>2026-04-22T08:47:11.319Z</time></trkpt><trkpt lat="45.5237067" lon="10.9937567"><ele>458.6666666666667</ele><time>2026-04-22T08:47:13.319Z</time></trkpt><trkpt lat="45.52361" lon="10.993845"><ele>459.0</ele><time>2026-04-22T08:47:15.319Z</time></trkpt><trkpt lat="45.523505" lon="10.9939117"><ele>457.79999999999995</ele><time>2026-04-22T08:47:17.319Z</time></trkpt><trkpt lat="45.5234267" lon="10.9939617"><ele>456.59999999999997</ele><time>2026-04-22T08:47:19.319Z</time></trkpt><trkpt lat="45.52333" lon="10.9940283"><ele>455.4</ele><time>2026-04-22T08:47:21.32Z</time></trkpt><trkpt lat="45.5232367" lon="10.994015"><ele>454.2</ele><time>2026-04-22T08:47:23.319Z</time></trkpt><trkpt lat="45.5231383" lon="10.993965"><ele>453.0</ele><time>2026-04-22T08:47:25.319Z</time></trkpt><trkpt lat="45.5230917" lon="10.99386"><ele>453.0</ele><time>2026-04-22T08:47:27.32Z</time></trkpt><trkpt lat="45.523045" lon="10.9937633"><ele>453.0</ele><time>2026-04-22T08:47:30.319Z</time></trkpt><trkpt lat="45.5229933" lon="10.993685"><ele>453.0</ele><time>2026-04-22T08:47:32.319Z</time></trkpt><trkpt lat="45.5229367" lon="10.993575"><ele>453.0</ele><time>2026-04-22T08:47:34.319Z</time></trkpt><trkpt lat="45.522865" lon="10.9934717"><ele>453.0</ele><time>2026-04-22T08:47:36.32Z</time></trkpt><trkpt lat="45.5228033" lon="10.9934183"><ele>453.0</ele><time>2026-04-22T08:47:38.319Z</time></trkpt><trkpt lat="45.52274" lon="10.9933333"><ele>455.2</ele><time>2026-04-22T08:47:40.319Z</time></trkpt><trkpt lat="45.5226583" lon="10.9932667"><ele>457.4</ele><time>2026-04-22T08:47:42.319Z</time></trkpt><trkpt lat="45.522555" lon="10.9931783"><ele>459.59999999999997</ele><time>2026-04-22T08:47:44.319Z</time></trkpt><trkpt lat="45.5224983" lon="10.9931233"><ele>461.79999999999995</ele><time>2026-04-22T08:47:45.319Z</time></trkpt><trkpt lat="45.5223983" lon="10.99304"><ele>464.0</ele><time>2026-04-22T08:47:47.319Z</time></trkpt><trkpt lat="45.522315" lon="10.9929767"><ele>463.99999999999994</ele><time>2026-04-22T08:47:49.319Z</time></trkpt><trkpt lat="45.5222417" lon="10.9928667"><ele>464.0</ele><time>2026-04-22T08:47:51.319Z</time></trkpt><trkpt lat="45.5221683" lon="10.99281"><ele>464.0</ele><time>2026-04-22T08:47:53.319Z</time></trkpt><trkpt lat="45.5220783" lon="10.9927583"><ele>464.0</ele><time>2026-04-22T08:47:55.319Z</time></trkpt><trkpt lat="45.5220083" lon="10.9927183"><ele>463.99999999999994</ele><time>2026-04-22T08:47:57.319Z</time></trkpt><trkpt lat="45.521925" lon="10.9926917"><ele>464.0</ele><time>2026-04-22T08:48:00.319Z</time></trkpt><trkpt lat="45.52187" lon="10.99264"><ele>462.66666666666663</ele><time>2026-04-22T08:48:03.319Z</time></trkpt><trkpt lat="45.5218017" lon="10.99258"><ele>461.3333333333333</ele><time>2026-04-22T08:48:56.319Z</time></trkpt><trkpt lat="45.5218983" lon="10.9924683"><ele>460.0</ele><time>2026-04-22T08:49:32.319Z</time></trkpt><trkpt lat="45.52192" lon="10.9923833"><ele>458.66666666666663</ele><time>2026-04-22T08:49:35.319Z</time></trkpt><trkpt lat="45.5219267" lon="10.9922883"><ele>457.3333333333333</ele><time>2026-04-22T08:49:39.319Z</time></trkpt><trkpt lat="45.5218833" lon="10.9921733"><ele>456.0</ele><time>2026-04-22T08:49:42.319Z</time></trkpt><trkpt lat="45.5218633" lon="10.9920783"><ele>459.4</ele><time>2026-04-22T08:49:44.32Z</time></trkpt><trkpt lat="45.5218383" lon="10.9919567"><ele>462.8</ele><time>2026-04-22T08:49:46.319Z</time></trkpt><trkpt lat="45.521805" lon="10.991805"><ele>466.19999999999993</ele><time>2026-04-22T08:49:48.32Z</time></trkpt><trkpt lat="45.5217617" lon="10.9916967"><ele>469.59999999999997</ele><time>2026-04-22T08:49:50.32Z</time></trkpt><trkpt lat="45.521735" lon="10.9915833"><ele>473.0</ele><time>2026-04-22T08:49:52.319Z</time></trkpt><trkpt lat="45.521675" lon="10.991465"><ele>475.16666666666663</ele><time>2026-04-22T08:49:54.32Z</time></trkpt><trkpt lat="45.5216183" lon="10.9913517"><ele>477.3333333333333</ele><time>2026-04-22T08:49:56.319Z</time></trkpt><trkpt lat="45.5215683" lon="10.9912717"><ele>479.5</ele><time>2026-04-22T08:49:58.319Z</time></trkpt><trkpt lat="45.5214967" lon="10.991205"><ele>481.66666666666663</ele><time>2026-04-22T08:50:01.319Z</time></trkpt><trkpt lat="45.5214283" lon="10.9911767"><ele>483.8333333333333</ele><time>2026-04-22T08:50:03.319Z</time></trkpt><trkpt lat="45.5213483" lon="10.9911867"><ele>486.0</ele><time>2026-04-22T08:50:05.319Z</time></trkpt><trkpt lat="45.5212833" lon="10.99114"><ele>486.0</ele><time>2026-04-22T08:50:07.319Z</time></trkpt><trkpt lat="45.5212017" lon="10.9911183"><ele>486.0</ele><time>2026-04-22T08:50:10.319Z</time></trkpt><trkpt lat="45.5212083" lon="10.991005"><ele>486.0</ele><time>2026-04-22T08:51:13.318Z</time></trkpt><trkpt lat="45.5212417" lon="10.9908483"><ele>486.0</ele><time>2026-04-22T08:51:15.318Z</time></trkpt><trkpt lat="45.521255" lon="10.9907267"><ele>486.0</ele><time>2026-04-22T08:51:16.318Z</time></trkpt><trkpt lat="45.5212583" lon="10.9906"><ele>489.0</ele><time>2026-04-22T08:51:17.318Z</time></trkpt><trkpt lat="45.521265" lon="10.9905033"><ele>492.0</ele><time>2026-04-22T08:51:18.318Z</time></trkpt><trkpt lat="45.521265" lon="10.990405"><ele>495.0</ele><time>2026-04-22T08:51:19.319Z</time></trkpt><trkpt lat="45.52128" lon="10.9902517"><ele>498.0</ele><time>2026-04-22T08:51:21.318Z</time></trkpt><trkpt lat="45.5212933" lon="10.990095"><ele>501.0</ele><time>2026-04-22T08:51:23.318Z</time></trkpt><trkpt lat="45.5213083" lon="10.9899917"><ele>504.0</ele><time>2026-04-22T08:51:25.318Z</time></trkpt><trkpt lat="45.5213467" lon="10.9898933"><ele>506.4</ele><time>2026-04-22T08:51:27.318Z</time></trkpt><trkpt lat="45.5213933" lon="10.98983"><ele>508.79999999999995</ele><time>2026-04-22T08:51:28.319Z</time></trkpt><trkpt lat="45.5215017" lon="10.9897417"><ele>511.20000000000005</ele><time>2026-04-22T08:51:30.318Z</time></trkpt><trkpt lat="45.521585" lon="10.9896717"><ele>513.6</ele><time>2026-04-22T08:51:32.318Z</time></trkpt><trkpt lat="45.5216583" lon="10.9895983"><ele>516.0</ele><time>2026-04-22T08:51:34.318Z</time></trkpt><trkpt lat="45.52173" lon="10.989501"><ele>516.0</ele><time>2026-04-22T08:51:36.318Z</time></trkpt><trkpt lat="45.5217801" lon="10.9894074"><ele>516.0</ele><time>2026-04-22T08:51:38.318Z</time></trkpt><trkpt lat="45.5218427" lon="10.9892463"><ele>516.0</ele><time>2026-04-22T08:51:41.318Z</time></trkpt><trkpt lat="45.5219026" lon="10.9891533"><ele>516.0</ele><time>2026-04-22T08:51:42.319Z</time></trkpt><trkpt lat="45.5219626" lon="10.9890726"><ele>516.0</ele><time>2026-04-22T08:51:43.319Z</time></trkpt><trkpt lat="45.5220286" lon="10.9890098"><ele>519.4</ele><time>2026-04-22T08:51:44.318Z</time></trkpt><trkpt lat="45.5220962" lon="10.9889602"><ele>522.8</ele><time>2026-04-22T08:51:45.318Z</time></trkpt><trkpt lat="45.522222" lon="10.9889571"><ele>526.1999999999999</ele><time>2026-04-22T08:51:47.318Z</time></trkpt><trkpt lat="45.5222916" lon="10.9889938"><ele>529.6</ele><time>2026-04-22T08:51:48.318Z</time></trkpt><trkpt lat="45.5223577" lon="10.9890143"><ele>533.0</ele><time>2026-04-22T08:51:49.318Z</time></trkpt><trkpt lat="45.5224653" lon="10.9890237"><ele>533.0</ele><time>2026-04-22T08:51:51.319Z</time></trkpt><trkpt lat="45.5225348" lon="10.9889993"><ele>533.0</ele><time>2026-04-22T08:51:53.318Z</time></trkpt><trkpt lat="45.5225563" lon="10.9888529"><ele>533.0</ele><time>2026-04-22T08:51:55.318Z</time></trkpt><trkpt lat="45.5225119" lon="10.988742"><ele>533.0</ele><time>2026-04-22T08:51:56.318Z</time></trkpt><trkpt lat="45.5224774" lon="10.9886514"><ele>533.0</ele><time>2026-04-22T08:51:57.318Z</time></trkpt><trkpt lat="45.5224463" lon="10.9885304"><ele>533.0</ele><time>2026-04-22T08:51:59.318Z</time></trkpt><trkpt lat="45.5224829" lon="10.988437"><ele>533.0</ele><time>2026-04-22T08:52:01.318Z</time></trkpt><trkpt lat="45.522553" lon="10.9884181"><ele>533.0</ele><time>2026-04-22T08:52:03.318Z</time></trkpt><trkpt lat="45.522595" lon="10.9883133"><ele>533.0</ele><time>2026-04-22T08:52:06.318Z</time></trkpt><trkpt lat="45.5225867" lon="10.98821"><ele>533.0</ele><time>2026-04-22T08:52:08.319Z</time></trkpt><trkpt lat="45.5226383" lon="10.9881433"><ele>533.0</ele><time>2026-04-22T08:52:11.318Z</time></trkpt><trkpt lat="45.5226917" lon="10.9882367"><ele>533.0</ele><time>2026-04-22T08:52:13.318Z</time></trkpt><trkpt lat="45.5227617" lon="10.988325"><ele>533.4</ele><time>2026-04-22T08:52:15.318Z</time></trkpt><trkpt lat="45.5228517" lon="10.9883117"><ele>533.8</ele><time>2026-04-22T08:52:17.319Z</time></trkpt><trkpt lat="45.522945" lon="10.9882883"><ele>534.2</ele><time>2026-04-22T08:52:19.318Z</time></trkpt><trkpt lat="45.5230383" lon="10.98828"><ele>534.6</ele><time>2026-04-22T08:52:21.318Z</time></trkpt><trkpt lat="45.5231583" lon="10.9882967"><ele>535.0</ele><time>2026-04-22T08:52:23.319Z</time></trkpt><trkpt lat="45.5232733" lon="10.988275"><ele>537.4</ele><time>2026-04-22T08:52:25.318Z</time></trkpt><trkpt lat="45.523405" lon="10.9882017"><ele>539.8</ele><time>2026-04-22T08:52:27.318Z</time></trkpt><trkpt lat="45.52352" lon="10.9881633"><ele>542.2</ele><time>2026-04-22T08:52:29.318Z</time></trkpt><trkpt lat="45.5236317" lon="10.98813"><ele>544.6</ele><time>2026-04-22T08:52:31.318Z</time></trkpt><trkpt lat="45.5236983" lon="10.9881167"><ele>547.0</ele><time>2026-04-22T08:52:34.318Z</time></trkpt><trkpt lat="45.5237233" lon="10.98802"><ele>549.6</ele><time>2026-04-22T08:52:42.318Z</time></trkpt><trkpt lat="45.5237833" lon="10.987905"><ele>552.2</ele><time>2026-04-22T08:52:45.318Z</time></trkpt><trkpt lat="45.5238817" lon="10.9878067"><ele>554.8</ele><time>2026-04-22T08:52:47.318Z</time></trkpt><trkpt lat="45.5239467" lon="10.9877633"><ele>557.4</ele><time>2026-04-22T08:52:48.318Z</time></trkpt><trkpt lat="45.5240217" lon="10.987715"><ele>560.0</ele><time>2026-04-22T08:52:49.319Z</time></trkpt><trkpt lat="45.5241467" lon="10.9876717"><ele>560.0</ele><time>2026-04-22T08:52:51.318Z</time></trkpt><trkpt lat="45.5242317" lon="10.9876283"><ele>560.0</ele><time>2026-04-22T08:52:52.318Z</time></trkpt><trkpt lat="45.5243033" lon="10.9875917"><ele>560.0</ele><time>2026-04-22T08:52:53.318Z</time></trkpt><trkpt lat="45.5243683" lon="10.987555"><ele>560.0</ele><time>2026-04-22T08:52:54.319Z</time></trkpt><trkpt lat="45.5244417" lon="10.9875117"><ele>560.0</ele><time>2026-04-22T08:52:55.318Z</time></trkpt><trkpt lat="45.5245383" lon="10.9873733"><ele>562.0</ele><time>2026-04-22T08:52:56.318Z</time></trkpt><trkpt lat="45.5246" lon="10.9872817"><ele>564.0</ele><time>2026-04-22T08:52:57.318Z</time></trkpt><trkpt lat="45.5246667" lon="10.9871833"><ele>566.0</ele><time>2026-04-22T08:52:58.318Z</time></trkpt><trkpt lat="45.52474" lon="10.987095"><ele>568.0</ele><time>2026-04-22T08:52:59.318Z</time></trkpt><trkpt lat="45.5248133" lon="10.987015"><ele>570.0</ele><time>2026-04-22T08:53:00.318Z</time></trkpt><trkpt lat="45.5248833" lon="10.9869367"><ele>570.0</ele><time>2026-04-22T08:53:01.318Z</time></trkpt><trkpt lat="45.5249483" lon="10.98688"><ele>570.0</ele><time>2026-04-22T08:53:02.318Z</time></trkpt><trkpt lat="45.5250167" lon="10.986815"><ele>570.0</ele><time>2026-04-22T08:53:03.318Z</time></trkpt><trkpt lat="45.5250917" lon="10.9868683"><ele>570.0</ele><time>2026-04-22T08:53:04.318Z</time></trkpt><trkpt lat="45.5252167" lon="10.9868867"><ele>570.0</ele><time>2026-04-22T08:53:06.318Z</time></trkpt><trkpt lat="45.5252867" lon="10.98689"><ele>570.0</ele><time>2026-04-22T08:53:07.318Z</time></trkpt><trkpt lat="45.5253467" lon="10.986845"><ele>569.0</ele><time>2026-04-22T08:53:08.318Z</time></trkpt><trkpt lat="45.5254133" lon="10.986825"><ele>568.0</ele><time>2026-04-22T08:53:09.318Z</time></trkpt><trkpt lat="45.5254717" lon="10.9867533"><ele>567.0</ele><time>2026-04-22T08:53:10.318Z</time></trkpt><trkpt lat="45.52556" lon="10.9867167"><ele>566.0</ele><time>2026-04-22T08:53:12.319Z</time></trkpt><trkpt lat="45.5257" lon="10.9866817"><ele>565.0</ele><time>2026-04-22T08:53:14.318Z</time></trkpt><trkpt lat="45.5257867" lon="10.98664"><ele>565.0</ele><time>2026-04-22T08:53:16.318Z</time></trkpt><trkpt lat="45.5258383" lon="10.98655"><ele>565.0</ele><time>2026-04-22T08:53:19.318Z</time></trkpt><trkpt lat="45.5259433" lon="10.9864633"><ele>565.0</ele><time>2026-04-22T08:53:21.319Z</time></trkpt><trkpt lat="45.5260417" lon="10.9863667"><ele>565.0</ele><time>2026-04-22T08:53:23.318Z</time></trkpt><trkpt lat="45.526105" lon="10.9863167"><ele>565.0</ele><time>2026-04-22T08:53:24.317Z</time></trkpt><trkpt lat="45.5261767" lon="10.986255"><ele>568.0</ele><time>2026-04-22T08:53:25.317Z</time></trkpt><trkpt lat="45.5262417" lon="10.986205"><ele>571.0</ele><time>2026-04-22T08:53:26.318Z</time></trkpt><trkpt lat="45.52631" lon="10.9861767"><ele>574.0</ele><time>2026-04-22T08:53:27.317Z</time></trkpt><trkpt lat="45.5264417" lon="10.9861"><ele>577.0</ele><time>2026-04-22T08:53:28.317Z</time></trkpt><trkpt lat="45.5265367" lon="10.986065"><ele>580.0</ele><time>2026-04-22T08:53:29.317Z</time></trkpt><trkpt lat="45.5266317" lon="10.98605"><ele>580.0</ele><time>2026-04-22T08:53:30.318Z</time></trkpt><trkpt lat="45.5267067" lon="10.9860433"><ele>580.0</ele><time>2026-04-22T08:53:31.317Z</time></trkpt><trkpt lat="45.52678" lon="10.986055"><ele>580.0</ele><time>2026-04-22T08:53:33.317Z</time></trkpt><trkpt lat="45.5268983" lon="10.9860617"><ele>580.0</ele><time>2026-04-22T08:53:36.317Z</time></trkpt><trkpt lat="45.5269783" lon="10.9859933"><ele>580.0</ele><time>2026-04-22T08:53:37.317Z</time></trkpt><trkpt lat="45.52703" lon="10.9859183"><ele>580.0</ele><time>2026-04-22T08:53:38.317Z</time></trkpt><trkpt lat="45.5271033" lon="10.985815"><ele>581.8333333333334</ele><time>2026-04-22T08:53:40.317Z</time></trkpt><trkpt lat="45.5271833" lon="10.9857717"><ele>583.6666666666667</ele><time>2026-04-22T08:53:42.317Z</time></trkpt><trkpt lat="45.5272483" lon="10.9857917"><ele>585.5</ele><time>2026-04-22T08:53:44.317Z</time></trkpt><trkpt lat="45.527325" lon="10.9857933"><ele>587.3333333333334</ele><time>2026-04-22T08:53:45.317Z</time></trkpt><trkpt lat="45.5273933" lon="10.98583"><ele>589.1666666666666</ele><time>2026-04-22T08:53:47.318Z</time></trkpt><trkpt lat="45.5274833" lon="10.985865"><ele>591.0</ele><time>2026-04-22T08:53:50.318Z</time></trkpt><trkpt lat="45.527565" lon="10.9858933"><ele>591.0</ele><time>2026-04-22T08:53:53.317Z</time></trkpt><trkpt lat="45.5276467" lon="10.98592"><ele>591.0</ele><time>2026-04-22T08:53:56.317Z</time></trkpt><trkpt lat="45.5276967" lon="10.985995"><ele>591.0</ele><time>2026-04-22T08:53:58.317Z</time></trkpt><trkpt lat="45.5277517" lon="10.9860417"><ele>591.0</ele><time>2026-04-22T08:54:00.318Z</time></trkpt><trkpt lat="45.5278183" lon="10.9861117"><ele>591.0</ele><time>2026-04-22T08:54:02.318Z</time></trkpt><trkpt lat="45.5278367" lon="10.986235"><ele>591.0</ele><time>2026-04-22T08:54:04.317Z</time></trkpt><trkpt lat="45.5278933" lon="10.9863117"><ele>593.6</ele><time>2026-04-22T08:54:06.317Z</time></trkpt><trkpt lat="45.5279633" lon="10.9863917"><ele>596.2</ele><time>2026-04-22T08:54:08.317Z</time></trkpt><trkpt lat="45.5280433" lon="10.9864817"><ele>598.8</ele><time>2026-04-22T08:54:10.317Z</time></trkpt><trkpt lat="45.5281133" lon="10.98651"><ele>601.4</ele><time>2026-04-22T08:54:12.317Z</time></trkpt><trkpt lat="45.5282667" lon="10.9864433"><ele>604.0</ele><time>2026-04-22T08:54:14.318Z</time></trkpt><trkpt lat="45.528385" lon="10.9864533"><ele>604.0</ele><time>2026-04-22T08:54:16.317Z</time></trkpt><trkpt lat="45.5284833" lon="10.9864617"><ele>604.0</ele><time>2026-04-22T08:54:18.318Z</time></trkpt><trkpt lat="45.52857" lon="10.986435"><ele>604.0</ele><time>2026-04-22T08:54:19.317Z</time></trkpt><trkpt lat="45.528665" lon="10.98646"><ele>604.0</ele><time>2026-04-22T08:54:21.317Z</time></trkpt><trkpt lat="45.5287367" lon="10.98649"><ele>604.0</ele><time>2026-04-22T08:54:23.317Z</time></trkpt><trkpt lat="45.5288017" lon="10.986415"><ele>604.0</ele><time>2026-04-22T08:54:27.317Z</time></trkpt><trkpt lat="45.5288617" lon="10.9863767"><ele>605.2</ele><time>2026-04-22T08:54:30.318Z</time></trkpt><trkpt lat="45.52895" lon="10.986395"><ele>606.4</ele><time>2026-04-22T08:54:33.317Z</time></trkpt><trkpt lat="45.5290067" lon="10.986295"><ele>607.6</ele><time>2026-04-22T08:54:37.317Z</time></trkpt><trkpt lat="45.5291383" lon="10.9861767"><ele>608.8</ele><time>2026-04-22T08:54:55.318Z</time></trkpt><trkpt lat="45.5291867" lon="10.98607"><ele>610.0</ele><time>2026-04-22T08:54:58.317Z</time></trkpt><trkpt lat="45.529185" lon="10.9859783"><ele>610.0</ele><time>2026-04-22T08:55:01.317Z</time></trkpt><trkpt lat="45.5292467" lon="10.9859383"><ele>610.0</ele><time>2026-04-22T08:55:04.318Z</time></trkpt><trkpt lat="45.5292967" lon="10.9858567"><ele>610.0</ele><time>2026-04-22T08:55:06.317Z</time></trkpt><trkpt lat="45.529335" lon="10.9857833"><ele>610.0</ele><time>2026-04-22T08:55:07.317Z</time></trkpt><trkpt lat="45.5293667" lon="10.9857033"><ele>610.0</ele><time>2026-04-22T08:55:09.317Z</time></trkpt><trkpt lat="45.5294067" lon="10.98561"><ele>610.0</ele><time>2026-04-22T08:55:12.317Z</time></trkpt><trkpt lat="45.52936" lon="10.9855117"><ele>610.0</ele><time>2026-04-22T08:55:15.318Z</time></trkpt><trkpt lat="45.529355" lon="10.98539"><ele>610.8333333333334</ele><time>2026-04-22T08:55:18.317Z</time></trkpt><trkpt lat="45.5294067" lon="10.9853333"><ele>611.6666666666667</ele><time>2026-04-22T08:55:26.318Z</time></trkpt><trkpt lat="45.5294833" lon="10.9852767"><ele>612.5</ele><time>2026-04-22T08:55:29.317Z</time></trkpt><trkpt lat="45.52953" lon="10.9852067"><ele>613.3333333333334</ele><time>2026-04-22T08:55:30.317Z</time></trkpt><trkpt lat="45.5295883" lon="10.9850717"><ele>614.1666666666666</ele><time>2026-04-22T08:55:32.317Z</time></trkpt><trkpt lat="45.5296283" lon="10.9849683"><ele>615.0</ele><time>2026-04-22T08:55:34.317Z</time></trkpt><trkpt lat="45.5295717" lon="10.98492"><ele>615.3333333333334</ele><time>2026-04-22T08:55:37.317Z</time></trkpt><trkpt lat="45.5295117" lon="10.9849567"><ele>615.6666666666666</ele><time>2026-04-22T08:55:38.317Z</time></trkpt><trkpt lat="45.5294417" lon="10.9849917"><ele>616.0</ele><time>2026-04-22T08:55:39.317Z</time></trkpt><trkpt lat="45.5293617" lon="10.9850217"><ele>616.3333333333333</ele><time>2026-04-22T08:55:40.317Z</time></trkpt><trkpt lat="45.5292833" lon="10.9850533"><ele>616.6666666666666</ele><time>2026-04-22T08:55:41.317Z</time></trkpt><trkpt lat="45.5291933" lon="10.98509"><ele>617.0</ele><time>2026-04-22T08:55:42.317Z</time></trkpt><trkpt lat="45.529105" lon="10.9851017"><ele>617.0</ele><time>2026-04-22T08:55:43.317Z</time></trkpt><trkpt lat="45.5290283" lon="10.985095"><ele>617.0</ele><time>2026-04-22T08:55:44.317Z</time></trkpt><trkpt lat="45.5289467" lon="10.98507"><ele>617.0</ele><time>2026-04-22T08:55:45.317Z</time></trkpt><trkpt lat="45.52887" lon="10.98505"><ele>617.0</ele><time>2026-04-22T08:55:46.317Z</time></trkpt><trkpt lat="45.5288067" lon="10.9849583"><ele>617.0</ele><time>2026-04-22T08:55:47.318Z</time></trkpt><trkpt lat="45.5287467" lon="10.98487"><ele>617.0</ele><time>2026-04-22T08:55:48.317Z</time></trkpt><trkpt lat="45.5286783" lon="10.9847917"><ele>616.6666666666666</ele><time>2026-04-22T08:55:49.317Z</time></trkpt><trkpt lat="45.5286067" lon="10.9847267"><ele>616.3333333333333</ele><time>2026-04-22T08:55:50.318Z</time></trkpt><trkpt lat="45.5285367" lon="10.9846583"><ele>616.0</ele><time>2026-04-22T08:55:51.317Z</time></trkpt><trkpt lat="45.5284583" lon="10.9845883"><ele>615.6666666666666</ele><time>2026-04-22T08:55:52.317Z</time></trkpt><trkpt lat="45.5283867" lon="10.9845267"><ele>615.3333333333334</ele><time>2026-04-22T08:55:53.318Z</time></trkpt><trkpt lat="45.5283183" lon="10.984475"><ele>615.0</ele><time>2026-04-22T08:55:54.317Z</time></trkpt><trkpt lat="45.5282533" lon="10.9844283"><ele>615.0</ele><time>2026-04-22T08:55:55.317Z</time></trkpt><trkpt lat="45.5281867" lon="10.98437"><ele>615.0</ele><time>2026-04-22T08:55:56.317Z</time></trkpt><trkpt lat="45.5281183" lon="10.98431"><ele>615.0</ele><time>2026-04-22T08:55:57.317Z</time></trkpt><trkpt lat="45.528045" lon="10.9842483"><ele>615.0</ele><time>2026-04-22T08:55:58.317Z</time></trkpt><trkpt lat="45.5279733" lon="10.9842033"><ele>615.0</ele><time>2026-04-22T08:55:59.317Z</time></trkpt><trkpt lat="45.5279" lon="10.9841617"><ele>615.0</ele><time>2026-04-22T08:56:00.318Z</time></trkpt><trkpt lat="45.52783" lon="10.9841267"><ele>613.7142857142857</ele><time>2026-04-22T08:56:01.317Z</time></trkpt><trkpt lat="45.5277583" lon="10.9840617"><ele>612.4285714285714</ele><time>2026-04-22T08:56:02.318Z</time></trkpt><trkpt lat="45.5276933" lon="10.9840367"><ele>611.1428571428571</ele><time>2026-04-22T08:56:03.317Z</time></trkpt><trkpt lat="45.5276233" lon="10.9840267"><ele>609.8571428571429</ele><time>2026-04-22T08:56:04.318Z</time></trkpt><trkpt lat="45.5275517" lon="10.984"><ele>608.5714285714286</ele><time>2026-04-22T08:56:05.317Z</time></trkpt><trkpt lat="45.5274817" lon="10.98397"><ele>607.2857142857143</ele><time>2026-04-22T08:56:06.317Z</time></trkpt><trkpt lat="45.527415" lon="10.98394"><ele>606.0</ele><time>2026-04-22T08:56:07.317Z</time></trkpt><trkpt lat="45.5273433" lon="10.9839067"><ele>606.0</ele><time>2026-04-22T08:56:08.318Z</time></trkpt><trkpt lat="45.5272783" lon="10.9838733"><ele>606.0</ele><time>2026-04-22T08:56:09.317Z</time></trkpt><trkpt lat="45.5271767" lon="10.9838583"><ele>606.0</ele><time>2026-04-22T08:56:11.318Z</time></trkpt><trkpt lat="45.5270717" lon="10.9838217"><ele>606.0</ele><time>2026-04-22T08:56:13.317Z</time></trkpt><trkpt lat="45.526975" lon="10.983775"><ele>606.0</ele><time>2026-04-22T08:56:15.317Z</time></trkpt><trkpt lat="45.5268733" lon="10.983765"><ele>603.2</ele><time>2026-04-22T08:56:17.318Z</time></trkpt><trkpt lat="45.5267683" lon="10.983805"><ele>600.4000000000001</ele><time>2026-04-22T08:56:19.317Z</time></trkpt><trkpt lat="45.52667" lon="10.9838467"><ele>597.6</ele><time>2026-04-22T08:56:21.318Z</time></trkpt><trkpt lat="45.5265383" lon="10.9838667"><ele>594.8000000000001</ele><time>2026-04-22T08:56:23.317Z</time></trkpt><trkpt lat="45.526465" lon="10.98389"><ele>592.0</ele><time>2026-04-22T08:56:24.318Z</time></trkpt><trkpt lat="45.5263883" lon="10.9839167"><ele>592.0</ele><time>2026-04-22T08:56:25.317Z</time></trkpt><trkpt lat="45.5263183" lon="10.9839367"><ele>592.0</ele><time>2026-04-22T08:56:26.318Z</time></trkpt><trkpt lat="45.5261883" lon="10.983935"><ele>592.0</ele><time>2026-04-22T08:56:28.317Z</time></trkpt><trkpt lat="45.5261133" lon="10.983925"><ele>592.0</ele><time>2026-04-22T08:56:29.317Z</time></trkpt><trkpt lat="45.5259767" lon="10.983945"><ele>592.0</ele><time>2026-04-22T08:56:31.316Z</time></trkpt><trkpt lat="45.5259083" lon="10.9839533"><ele>589.1666666666667</ele><time>2026-04-22T08:56:32.316Z</time></trkpt><trkpt lat="45.5258317" lon="10.9839583"><ele>586.3333333333334</ele><time>2026-04-22T08:56:33.316Z</time></trkpt><trkpt lat="45.5257533" lon="10.9839517"><ele>583.5</ele><time>2026-04-22T08:56:34.316Z</time></trkpt><trkpt lat="45.52568" lon="10.9839533"><ele>580.6666666666666</ele><time>2026-04-22T08:56:35.316Z</time></trkpt><trkpt lat="45.525615" lon="10.9839383"><ele>577.8333333333333</ele><time>2026-04-22T08:56:36.316Z</time></trkpt><trkpt lat="45.5255" lon="10.9839317"><ele>575.0</ele><time>2026-04-22T08:56:38.316Z</time></trkpt><trkpt lat="45.5253883" lon="10.9839"><ele>572.0</ele><time>2026-04-22T08:56:40.316Z</time></trkpt><trkpt lat="45.5252883" lon="10.9838"><ele>569.0</ele><time>2026-04-22T08:56:42.317Z</time></trkpt><trkpt lat="45.52524" lon="10.9837217"><ele>566.0</ele><time>2026-04-22T08:56:43.316Z</time></trkpt><trkpt lat="45.5251867" lon="10.9836267"><ele>563.0</ele><time>2026-04-22T08:56:44.316Z</time></trkpt><trkpt lat="45.5251267" lon="10.9835383"><ele>560.0</ele><time>2026-04-22T08:56:45.316Z</time></trkpt><trkpt lat="45.5250517" lon="10.9834383"><ele>560.4</ele><time>2026-04-22T08:56:46.316Z</time></trkpt><trkpt lat="45.5249833" lon="10.9833417"><ele>560.8</ele><time>2026-04-22T08:56:47.316Z</time></trkpt><trkpt lat="45.5249183" lon="10.9832483"><ele>561.2</ele><time>2026-04-22T08:56:48.316Z</time></trkpt><trkpt lat="45.5248483" lon="10.983155"><ele>561.6</ele><time>2026-04-22T08:56:49.316Z</time></trkpt><trkpt lat="45.5247817" lon="10.9830717"><ele>562.0</ele><time>2026-04-22T08:56:50.316Z</time></trkpt><trkpt lat="45.524725" lon="10.9829717"><ele>562.0</ele><time>2026-04-22T08:56:51.316Z</time></trkpt><trkpt lat="45.5246433" lon="10.982875"><ele>562.0</ele><time>2026-04-22T08:56:52.316Z</time></trkpt><trkpt lat="45.524555" lon="10.9827983"><ele>562.0</ele><time>2026-04-22T08:56:53.316Z</time></trkpt><trkpt lat="45.5244617" lon="10.9827233"><ele>562.0</ele><time>2026-04-22T08:56:54.316Z</time></trkpt><trkpt lat="45.5243783" lon="10.982635"><ele>562.0</ele><time>2026-04-22T08:56:55.316Z</time></trkpt><trkpt lat="45.5243" lon="10.98253"><ele>558.2</ele><time>2026-04-22T08:56:56.316Z</time></trkpt><trkpt lat="45.5242083" lon="10.9824267"><ele>554.4000000000001</ele><time>2026-04-22T08:56:57.316Z</time></trkpt><trkpt lat="45.5241333" lon="10.9823167"><ele>550.5999999999999</ele><time>2026-04-22T08:56:58.316Z</time></trkpt><trkpt lat="45.5240667" lon="10.9822033"><ele>546.8</ele><time>2026-04-22T08:56:59.316Z</time></trkpt><trkpt lat="45.5239967" lon="10.9821017"><ele>543.0</ele><time>2026-04-22T08:57:00.316Z</time></trkpt><trkpt lat="45.523925" lon="10.9820067"><ele>543.0</ele><time>2026-04-22T08:57:01.317Z</time></trkpt><trkpt lat="45.5238583" lon="10.9819"><ele>543.0</ele><time>2026-04-22T08:57:02.316Z</time></trkpt><trkpt lat="45.5238017" lon="10.9817933"><ele>543.0</ele><time>2026-04-22T08:57:03.317Z</time></trkpt><trkpt lat="45.523745" lon="10.9816933"><ele>543.0</ele><time>2026-04-22T08:57:04.316Z</time></trkpt><trkpt lat="45.5236817" lon="10.9815967"><ele>543.0</ele><time>2026-04-22T08:57:05.317Z</time></trkpt><trkpt lat="45.5236183" lon="10.9815117"><ele>540.4</ele><time>2026-04-22T08:57:06.316Z</time></trkpt><trkpt lat="45.52355" lon="10.9814217"><ele>537.8</ele><time>2026-04-22T08:57:07.316Z</time></trkpt><trkpt lat="45.5234833" lon="10.98133"><ele>535.2</ele><time>2026-04-22T08:57:08.317Z</time></trkpt><trkpt lat="45.523425" lon="10.9812567"><ele>532.6</ele><time>2026-04-22T08:57:09.316Z</time></trkpt><trkpt lat="45.5233583" lon="10.9811033"><ele>530.0</ele><time>2026-04-22T08:57:11.317Z</time></trkpt><trkpt lat="45.5232933" lon="10.9810333"><ele>530.0</ele><time>2026-04-22T08:57:12.316Z</time></trkpt><trkpt lat="45.5231883" lon="10.9809383"><ele>530.0</ele><time>2026-04-22T08:57:14.316Z</time></trkpt><trkpt lat="45.52312" lon="10.9808733"><ele>530.0</ele><time>2026-04-22T08:57:15.316Z</time></trkpt><trkpt lat="45.523045" lon="10.9808067"><ele>530.0</ele><time>2026-04-22T08:57:16.316Z</time></trkpt><trkpt lat="45.5229717" lon="10.9807433"><ele>530.0</ele><time>2026-04-22T08:57:17.316Z</time></trkpt><trkpt lat="45.5229017" lon="10.98068"><ele>528.1666666666666</ele><time>2026-04-22T08:57:18.316Z</time></trkpt><trkpt lat="45.5228283" lon="10.980615"><ele>526.3333333333333</ele><time>2026-04-22T08:57:19.316Z</time></trkpt><trkpt lat="45.5227583" lon="10.9805717"><ele>524.5</ele><time>2026-04-22T08:57:20.316Z</time></trkpt><trkpt lat="45.5227017" lon="10.9805267"><ele>522.6666666666666</ele><time>2026-04-22T08:57:21.316Z</time></trkpt><trkpt lat="45.5226117" lon="10.9803967"><ele>520.8333333333334</ele><time>2026-04-22T08:57:23.316Z</time></trkpt><trkpt lat="45.5225567" lon="10.980335"><ele>519.0</ele><time>2026-04-22T08:57:24.316Z</time></trkpt><trkpt lat="45.5224883" lon="10.9802867"><ele>519.0</ele><time>2026-04-22T08:57:25.316Z</time></trkpt><trkpt lat="45.5224183" lon="10.980245"><ele>519.0</ele><time>2026-04-22T08:57:26.317Z</time></trkpt><trkpt lat="45.5223317" lon="10.9802083"><ele>519.0</ele><time>2026-04-22T08:57:27.316Z</time></trkpt><trkpt lat="45.5222483" lon="10.9801767"><ele>519.0</ele><time>2026-04-22T08:57:28.316Z</time></trkpt><trkpt lat="45.5221733" lon="10.9801483"><ele>519.0</ele><time>2026-04-22T08:57:29.317Z</time></trkpt><trkpt lat="45.5220833" lon="10.9800683"><ele>519.0</ele><time>2026-04-22T08:57:31.316Z</time></trkpt><trkpt lat="45.5220567" lon="10.979985"><ele>516.8</ele><time>2026-04-22T08:57:34.316Z</time></trkpt><trkpt lat="45.5221633" lon="10.9799617"><ele>514.5999999999999</ele><time>2026-04-22T08:57:37.316Z</time></trkpt><trkpt lat="45.5223017" lon="10.9799317"><ele>512.4</ele><time>2026-04-22T08:57:38.316Z</time></trkpt><trkpt lat="45.5223783" lon="10.979945"><ele>510.2</ele><time>2026-04-22T08:57:39.316Z</time></trkpt><trkpt lat="45.5224867" lon="10.979965"><ele>508.0</ele><time>2026-04-22T08:57:40.316Z</time></trkpt><trkpt lat="45.5226017" lon="10.9799867"><ele>508.0</ele><time>2026-04-22T08:57:41.317Z</time></trkpt><trkpt lat="45.5227717" lon="10.98"><ele>508.0</ele><time>2026-04-22T08:57:42.316Z</time></trkpt><trkpt lat="45.52292" lon="10.9800367"><ele>508.0</ele><time>2026-04-22T08:57:43.316Z</time></trkpt><trkpt lat="45.5230217" lon="10.9800767"><ele>508.0</ele><time>2026-04-22T08:57:44.316Z</time></trkpt><trkpt lat="45.5231217" lon="10.980125"><ele>511.0</ele><time>2026-04-22T08:57:45.316Z</time></trkpt><trkpt lat="45.52322" lon="10.9801633"><ele>514.0</ele><time>2026-04-22T08:57:46.316Z</time></trkpt><trkpt lat="45.5233083" lon="10.9802183"><ele>517.0</ele><time>2026-04-22T08:57:47.317Z</time></trkpt><trkpt lat="45.5233967" lon="10.980275"><ele>520.0</ele><time>2026-04-22T08:57:48.316Z</time></trkpt><trkpt lat="45.5234917" lon="10.98032"><ele>523.0</ele><time>2026-04-22T08:57:49.316Z</time></trkpt><trkpt lat="45.5235817" lon="10.9803617"><ele>523.0</ele><time>2026-04-22T08:57:50.316Z</time></trkpt><trkpt lat="45.5236783" lon="10.9804"><ele>523.0</ele><time>2026-04-22T08:57:51.317Z</time></trkpt><trkpt lat="45.5237833" lon="10.9804183"><ele>523.0</ele><time>2026-04-22T08:57:52.315Z</time></trkpt><trkpt lat="45.52388" lon="10.980405"><ele>523.0</ele><time>2026-04-22T08:57:53.317Z</time></trkpt><trkpt lat="45.5239933" lon="10.9804"><ele>523.0</ele><time>2026-04-22T08:57:54.316Z</time></trkpt><trkpt lat="45.5240967" lon="10.9804033"><ele>522.6666666666667</ele><time>2026-04-22T08:57:55.317Z</time></trkpt><trkpt lat="45.524185" lon="10.9803683"><ele>522.3333333333334</ele><time>2026-04-22T08:57:56.317Z</time></trkpt><trkpt lat="45.5242633" lon="10.9803267"><ele>522.0</ele><time>2026-04-22T08:57:57.316Z</time></trkpt><trkpt lat="45.5243367" lon="10.9803017"><ele>521.6666666666666</ele><time>2026-04-22T08:57:58.316Z</time></trkpt><trkpt lat="45.5243933" lon="10.980225"><ele>521.3333333333333</ele><time>2026-04-22T08:57:59.316Z</time></trkpt><trkpt lat="45.5245067" lon="10.9802217"><ele>521.0</ele><time>2026-04-22T08:58:01.316Z</time></trkpt><trkpt lat="45.5246267" lon="10.9802367"><ele>520.4</ele><time>2026-04-22T08:58:03.316Z</time></trkpt><trkpt lat="45.524745" lon="10.9802533"><ele>519.8</ele><time>2026-04-22T08:58:05.317Z</time></trkpt><trkpt lat="45.524825" lon="10.98018"><ele>519.1999999999999</ele><time>2026-04-22T08:58:07.316Z</time></trkpt><trkpt lat="45.5249117" lon="10.9801033"><ele>518.6</ele><time>2026-04-22T08:58:09.316Z</time></trkpt><trkpt lat="45.5250117" lon="10.98005"><ele>518.0</ele><time>2026-04-22T08:58:11.317Z</time></trkpt><trkpt lat="45.52512" lon="10.9800017"><ele>518.0</ele><time>2026-04-22T08:58:13.316Z</time></trkpt><trkpt lat="45.5252417" lon="10.9799683"><ele>518.0</ele><time>2026-04-22T08:58:15.316Z</time></trkpt><trkpt lat="45.5253083" lon="10.9799567"><ele>518.0</ele><time>2026-04-22T08:58:16.316Z</time></trkpt><trkpt lat="45.525415" lon="10.9799167"><ele>518.0</ele><time>2026-04-22T08:58:18.316Z</time></trkpt><trkpt lat="45.525455" lon="10.9798283"><ele>518.0</ele><time>2026-04-22T08:58:20.317Z</time></trkpt><trkpt lat="45.5254683" lon="10.9797383"><ele>518.0</ele><time>2026-04-22T08:58:22.317Z</time></trkpt><trkpt lat="45.5255333" lon="10.979645"><ele>519.4</ele><time>2026-04-22T08:58:24.316Z</time></trkpt><trkpt lat="45.5256567" lon="10.9795583"><ele>520.8</ele><time>2026-04-22T08:58:26.316Z</time></trkpt><trkpt lat="45.525725" lon="10.979505"><ele>522.2</ele><time>2026-04-22T08:58:27.316Z</time></trkpt><trkpt lat="45.5257983" lon="10.979485"><ele>523.6</ele><time>2026-04-22T08:58:28.316Z</time></trkpt><trkpt lat="45.5258967" lon="10.9794217"><ele>525.0</ele><time>2026-04-22T08:58:30.316Z</time></trkpt><trkpt lat="45.525975" lon="10.97936"><ele>525.0</ele><time>2026-04-22T08:58:32.316Z</time></trkpt><trkpt lat="45.5260483" lon="10.9792633"><ele>525.0</ele><time>2026-04-22T08:58:34.316Z</time></trkpt><trkpt lat="45.5261067" lon="10.979145"><ele>525.0</ele><time>2026-04-22T08:58:36.316Z</time></trkpt><trkpt lat="45.526155" lon="10.9790533"><ele>525.0</ele><time>2026-04-22T08:58:38.316Z</time></trkpt><trkpt lat="45.5262033" lon="10.9789633"><ele>525.0</ele><time>2026-04-22T08:58:40.317Z</time></trkpt><trkpt lat="45.526285" lon="10.97885"><ele>526.5714285714286</ele><time>2026-04-22T08:58:42.316Z</time></trkpt><trkpt lat="45.5263283" lon="10.97878"><ele>528.1428571428571</ele><time>2026-04-22T08:58:43.317Z</time></trkpt><trkpt lat="45.5263717" lon="10.9787067"><ele>529.7142857142858</ele><time>2026-04-22T08:58:44.316Z</time></trkpt><trkpt lat="45.5264167" lon="10.9786183"><ele>531.2857142857142</ele><time>2026-04-22T08:58:45.316Z</time></trkpt><trkpt lat="45.5264717" lon="10.9785417"><ele>532.8571428571429</ele><time>2026-04-22T08:58:46.316Z</time></trkpt><trkpt lat="45.5265267" lon="10.978465"><ele>534.4285714285714</ele><time>2026-04-22T08:58:47.316Z</time></trkpt><trkpt lat="45.526585" lon="10.9783883"><ele>536.0</ele><time>2026-04-22T08:58:48.316Z</time></trkpt><trkpt lat="45.5266417" lon="10.978315"><ele>536.0</ele><time>2026-04-22T08:58:49.317Z</time></trkpt><trkpt lat="45.5266983" lon="10.9782483"><ele>536.0</ele><time>2026-04-22T08:58:50.316Z</time></trkpt><trkpt lat="45.5267533" lon="10.9781817"><ele>536.0</ele><time>2026-04-22T08:58:51.317Z</time></trkpt><trkpt lat="45.5268633" lon="10.9781117"><ele>536.0</ele><time>2026-04-22T08:58:53.316Z</time></trkpt><trkpt lat="45.5269567" lon="10.97798"><ele>536.0</ele><time>2026-04-22T08:58:55.316Z</time></trkpt><trkpt lat="45.5270117" lon="10.9778867"><ele>536.0</ele><time>2026-04-22T08:58:56.316Z</time></trkpt><trkpt lat="45.52706" lon="10.9778017"><ele>536.0</ele><time>2026-04-22T08:58:57.316Z</time></trkpt><trkpt lat="45.527105" lon="10.97772"><ele>536.0</ele><time>2026-04-22T08:58:58.317Z</time></trkpt><trkpt lat="45.5271467" lon="10.9776133"><ele>536.0</ele><time>2026-04-22T08:58:59.316Z</time></trkpt><trkpt lat="45.5271833" lon="10.977495"><ele>536.0</ele><time>2026-04-22T08:59:00.316Z</time></trkpt><trkpt lat="45.5272233" lon="10.9773883"><ele>536.0</ele><time>2026-04-22T08:59:01.316Z</time></trkpt><trkpt lat="45.5272683" lon="10.97729"><ele>537.0</ele><time>2026-04-22T08:59:02.316Z</time></trkpt><trkpt lat="45.5273167" lon="10.977195"><ele>538.0</ele><time>2026-04-22T08:59:03.317Z</time></trkpt><trkpt lat="45.5273683" lon="10.9771033"><ele>539.0</ele><time>2026-04-22T08:59:04.316Z</time></trkpt><trkpt lat="45.527425" lon="10.9770117"><ele>540.0</ele><time>2026-04-22T08:59:05.316Z</time></trkpt><trkpt lat="45.527465" lon="10.9769333"><ele>541.0</ele><time>2026-04-22T08:59:06.316Z</time></trkpt><trkpt lat="45.527515" lon="10.9768617"><ele>542.0</ele><time>2026-04-22T08:59:07.316Z</time></trkpt><trkpt lat="45.5275767" lon="10.9768217"><ele>542.0</ele><time>2026-04-22T08:59:08.317Z</time></trkpt><trkpt lat="45.5275667" lon="10.97672"><ele>542.0</ele><time>2026-04-22T08:59:13.316Z</time></trkpt><trkpt lat="45.52746" lon="10.97667"><ele>542.0</ele><time>2026-04-22T08:59:15.316Z</time></trkpt><trkpt lat="45.5273783" lon="10.976675"><ele>542.0</ele><time>2026-04-22T08:59:16.316Z</time></trkpt><trkpt lat="45.527285" lon="10.976685"><ele>542.0</ele><time>2026-04-22T08:59:17.317Z</time></trkpt><trkpt lat="45.5271983" lon="10.9766933"><ele>542.0</ele><time>2026-04-22T08:59:18.316Z</time></trkpt><trkpt lat="45.5270967" lon="10.9766983"><ele>538.8000000000001</ele><time>2026-04-22T08:59:19.316Z</time></trkpt><trkpt lat="45.526995" lon="10.9766967"><ele>535.6</ele><time>2026-04-22T08:59:20.316Z</time></trkpt><trkpt lat="45.526895" lon="10.9767017"><ele>532.4000000000001</ele><time>2026-04-22T08:59:21.316Z</time></trkpt><trkpt lat="45.5268083" lon="10.9767133"><ele>529.2</ele><time>2026-04-22T08:59:22.316Z</time></trkpt><trkpt lat="45.526715" lon="10.976725"><ele>526.0</ele><time>2026-04-22T08:59:23.317Z</time></trkpt><trkpt lat="45.5266133" lon="10.976745"><ele>526.0</ele><time>2026-04-22T08:59:24.317Z</time></trkpt><trkpt lat="45.5265133" lon="10.9767683"><ele>526.0</ele><time>2026-04-22T08:59:25.316Z</time></trkpt><trkpt lat="45.5264067" lon="10.9767917"><ele>526.0</ele><time>2026-04-22T08:59:26.316Z</time></trkpt><trkpt lat="45.5263033" lon="10.9768083"><ele>526.0</ele><time>2026-04-22T08:59:27.316Z</time></trkpt><trkpt lat="45.52622" lon="10.9767817"><ele>526.0</ele><time>2026-04-22T08:59:28.316Z</time></trkpt><trkpt lat="45.52612" lon="10.97677"><ele>526.6</ele><time>2026-04-22T08:59:29.316Z</time></trkpt><trkpt lat="45.52602" lon="10.97674"><ele>527.2</ele><time>2026-04-22T08:59:30.316Z</time></trkpt><trkpt lat="45.525925" lon="10.976695"><ele>527.8</ele><time>2026-04-22T08:59:31.317Z</time></trkpt><trkpt lat="45.525825" lon="10.976645"><ele>528.4</ele><time>2026-04-22T08:59:32.316Z</time></trkpt><trkpt lat="45.5257283" lon="10.9765883"><ele>529.0</ele><time>2026-04-22T08:59:33.316Z</time></trkpt><trkpt lat="45.52563" lon="10.9765417"><ele>529.0</ele><time>2026-04-22T08:59:34.316Z</time></trkpt><trkpt lat="45.5255367" lon="10.97649"><ele>529.0</ele><time>2026-04-22T08:59:35.316Z</time></trkpt><trkpt lat="45.5254317" lon="10.97642"><ele>529.0</ele><time>2026-04-22T08:59:36.316Z</time></trkpt><trkpt lat="45.5253217" lon="10.9763767"><ele>529.0</ele><time>2026-04-22T08:59:37.316Z</time></trkpt><trkpt lat="45.525215" lon="10.9763383"><ele>529.0</ele><time>2026-04-22T08:59:38.316Z</time></trkpt><trkpt lat="45.5251167" lon="10.9763283"><ele>528.0</ele><time>2026-04-22T08:59:39.317Z</time></trkpt><trkpt lat="45.5250167" lon="10.9763367"><ele>527.0</ele><time>2026-04-22T08:59:40.316Z</time></trkpt><trkpt lat="45.5249083" lon="10.976355"><ele>526.0</ele><time>2026-04-22T08:59:41.317Z</time></trkpt><trkpt lat="45.5247967" lon="10.9763967"><ele>525.0</ele><time>2026-04-22T08:59:42.316Z</time></trkpt><trkpt lat="45.5246867" lon="10.9764483"><ele>524.0</ele><time>2026-04-22T08:59:43.316Z</time></trkpt><trkpt lat="45.524585" lon="10.976495"><ele>524.75</ele><time>2026-04-22T08:59:44.316Z</time></trkpt><trkpt lat="45.5244817" lon="10.9765483"><ele>525.5</ele><time>2026-04-22T08:59:45.316Z</time></trkpt><trkpt lat="45.5243717" lon="10.9766067"><ele>526.25</ele><time>2026-04-22T08:59:46.317Z</time></trkpt><trkpt lat="45.5242667" lon="10.9766467"><ele>527.0</ele><time>2026-04-22T08:59:47.316Z</time></trkpt><trkpt lat="45.5241483" lon="10.9766983"><ele>522.25</ele><time>2026-04-22T08:59:48.316Z</time></trkpt><trkpt lat="45.52403" lon="10.976745"><ele>517.5</ele><time>2026-04-22T08:59:49.316Z</time></trkpt><trkpt lat="45.5238883" lon="10.9768167"><ele>512.75</ele><time>2026-04-22T08:59:50.316Z</time></trkpt><trkpt lat="45.5237883" lon="10.9768433"><ele>508.0</ele><time>2026-04-22T08:59:51.316Z</time></trkpt><trkpt lat="45.52368" lon="10.9768633"><ele>508.0</ele><time>2026-04-22T08:59:52.316Z</time></trkpt><trkpt lat="45.52357" lon="10.97686"><ele>508.0</ele><time>2026-04-22T08:59:53.315Z</time></trkpt><trkpt lat="45.523445" lon="10.97686"><ele>508.0</ele><time>2026-04-22T08:59:54.315Z</time></trkpt><trkpt lat="45.523335" lon="10.976835"><ele>508.0</ele><time>2026-04-22T08:59:55.315Z</time></trkpt><trkpt lat="45.52323" lon="10.97681"><ele>508.0</ele><time>2026-04-22T08:59:56.316Z</time></trkpt><trkpt lat="45.523155" lon="10.9767517"><ele>507.99999999999994</ele><time>2026-04-22T08:59:57.315Z</time></trkpt><trkpt lat="45.523055" lon="10.9766783"><ele>507.99999999999994</ele><time>2026-04-22T08:59:58.315Z</time></trkpt><trkpt lat="45.5229683" lon="10.976615"><ele>508.0</ele><time>2026-04-22T08:59:59.316Z</time></trkpt><trkpt lat="45.5228817" lon="10.9765333"><ele>508.0</ele><time>2026-04-22T09:00:00.315Z</time></trkpt><trkpt lat="45.5227967" lon="10.976435"><ele>508.75</ele><time>2026-04-22T09:00:01.315Z</time></trkpt><trkpt lat="45.5227133" lon="10.976345"><ele>509.5</ele><time>2026-04-22T09:00:02.316Z</time></trkpt><trkpt lat="45.5226133" lon="10.9762733"><ele>510.25</ele><time>2026-04-22T09:00:03.315Z</time></trkpt><trkpt lat="45.5225067" lon="10.9762133"><ele>511.0</ele><time>2026-04-22T09:00:04.315Z</time></trkpt><trkpt lat="45.5223917" lon="10.976145"><ele>511.0</ele><time>2026-04-22T09:00:05.315Z</time></trkpt><trkpt lat="45.52226" lon="10.9761067"><ele>511.0</ele><time>2026-04-22T09:00:06.315Z</time></trkpt><trkpt lat="45.5221417" lon="10.976035"><ele>511.0</ele><time>2026-04-22T09:00:07.315Z</time></trkpt><trkpt lat="45.522015" lon="10.9759517"><ele>511.0</ele><time>2026-04-22T09:00:08.315Z</time></trkpt><trkpt lat="45.5218917" lon="10.9758567"><ele>510.75</ele><time>2026-04-22T09:00:09.315Z</time></trkpt><trkpt lat="45.52178" lon="10.9757233"><ele>510.5</ele><time>2026-04-22T09:00:10.315Z</time></trkpt><trkpt lat="45.5216683" lon="10.9756033"><ele>510.25</ele><time>2026-04-22T09:00:11.315Z</time></trkpt><trkpt lat="45.521555" lon="10.9754983"><ele>510.0</ele><time>2026-04-22T09:00:12.315Z</time></trkpt><trkpt lat="45.5214317" lon="10.97542"><ele>510.0</ele><time>2026-04-22T09:00:13.315Z</time></trkpt><trkpt lat="45.5213117" lon="10.9753433"><ele>510.0</ele><time>2026-04-22T09:00:14.315Z</time></trkpt><trkpt lat="45.5211883" lon="10.9752667"><ele>510.0</ele><time>2026-04-22T09:00:15.315Z</time></trkpt><trkpt lat="45.52109" lon="10.9751883"><ele>510.0</ele><time>2026-04-22T09:00:16.315Z</time></trkpt><trkpt lat="45.52097" lon="10.975105"><ele>509.75</ele><time>2026-04-22T09:00:17.316Z</time></trkpt><trkpt lat="45.52086" lon="10.97502"><ele>509.5</ele><time>2026-04-22T09:00:18.316Z</time></trkpt><trkpt lat="45.5207583" lon="10.974945"><ele>509.25</ele><time>2026-04-22T09:00:19.315Z</time></trkpt><trkpt lat="45.520645" lon="10.9748883"><ele>509.0</ele><time>2026-04-22T09:00:20.315Z</time></trkpt><trkpt lat="45.52054" lon="10.974845"><ele>508.99999999999994</ele><time>2026-04-22T09:00:21.316Z</time></trkpt><trkpt lat="45.5204433" lon="10.9748267"><ele>509.0</ele><time>2026-04-22T09:00:22.316Z</time></trkpt><trkpt lat="45.5203717" lon="10.97481"><ele>509.0</ele><time>2026-04-22T09:00:23.316Z</time></trkpt><trkpt lat="45.5202883" lon="10.974815"><ele>509.0</ele><time>2026-04-22T09:00:24.315Z</time></trkpt><trkpt lat="45.5202217" lon="10.9748867"><ele>508.99999999999994</ele><time>2026-04-22T09:00:26.315Z</time></trkpt><trkpt lat="45.5202917" lon="10.9750117"><ele>509.0</ele><time>2026-04-22T09:00:28.315Z</time></trkpt><trkpt lat="45.5203417" lon="10.975125"><ele>509.3333333333333</ele><time>2026-04-22T09:00:30.315Z</time></trkpt><trkpt lat="45.5203733" lon="10.9752533"><ele>509.66666666666663</ele><time>2026-04-22T09:00:32.315Z</time></trkpt><trkpt lat="45.520405" lon="10.9754317"><ele>510.0</ele><time>2026-04-22T09:00:34.316Z</time></trkpt><trkpt lat="45.52042" lon="10.97553"><ele>510.33333333333337</ele><time>2026-04-22T09:00:35.315Z</time></trkpt><trkpt lat="45.5204283" lon="10.975625"><ele>510.6666666666667</ele><time>2026-04-22T09:00:36.315Z</time></trkpt><trkpt lat="45.5204283" lon="10.9757167"><ele>511.0</ele><time>2026-04-22T09:00:37.315Z</time></trkpt><trkpt lat="45.5204617" lon="10.9758717"><ele>506.25</ele><time>2026-04-22T09:00:39.315Z</time></trkpt><trkpt lat="45.5204933" lon="10.9760283"><ele>501.5</ele><time>2026-04-22T09:00:41.315Z</time></trkpt><trkpt lat="45.5205017" lon="10.976125"><ele>496.75</ele><time>2026-04-22T09:00:42.315Z</time></trkpt><trkpt lat="45.52051" lon="10.9762917"><ele>492.0</ele><time>2026-04-22T09:00:44.315Z</time></trkpt><trkpt lat="45.520595" lon="10.9765083"><ele>492.0</ele><time>2026-04-22T09:00:46.315Z</time></trkpt><trkpt lat="45.5206417" lon="10.9766383"><ele>492.00000000000006</ele><time>2026-04-22T09:00:47.315Z</time></trkpt><trkpt lat="45.52065" lon="10.976775"><ele>492.00000000000006</ele><time>2026-04-22T09:00:48.315Z</time></trkpt><trkpt lat="45.5206133" lon="10.9769017"><ele>492.0</ele><time>2026-04-22T09:00:49.316Z</time></trkpt><trkpt lat="45.52061" lon="10.9770583"><ele>492.0</ele><time>2026-04-22T09:00:51.315Z</time></trkpt><trkpt lat="45.520575" lon="10.9771867"><ele>491.5</ele><time>2026-04-22T09:00:53.315Z</time></trkpt><trkpt lat="45.5205733" lon="10.9773183"><ele>491.0</ele><time>2026-04-22T09:00:55.315Z</time></trkpt><trkpt lat="45.5205817" lon="10.9774133"><ele>490.5</ele><time>2026-04-22T09:00:56.315Z</time></trkpt><trkpt lat="45.5206083" lon="10.9775583"><ele>490.0</ele><time>2026-04-22T09:00:58.315Z</time></trkpt><trkpt lat="45.5206233" lon="10.9776717"><ele>489.5</ele><time>2026-04-22T09:01:00.315Z</time></trkpt><trkpt lat="45.5205983" lon="10.9778033"><ele>489.0</ele><time>2026-04-22T09:01:02.315Z</time></trkpt><trkpt lat="45.52061" lon="10.9779617"><ele>488.79999999999995</ele><time>2026-04-22T09:01:04.316Z</time></trkpt><trkpt lat="45.520605" lon="10.9781333"><ele>488.59999999999997</ele><time>2026-04-22T09:01:06.315Z</time></trkpt><trkpt lat="45.5205933" lon="10.9782983"><ele>488.4</ele><time>2026-04-22T09:01:08.315Z</time></trkpt><trkpt lat="45.5205417" lon="10.9784133"><ele>488.2</ele><time>2026-04-22T09:01:10.315Z</time></trkpt><trkpt lat="45.5204467" lon="10.978495"><ele>488.0</ele><time>2026-04-22T09:01:12.315Z</time></trkpt><trkpt lat="45.5203767" lon="10.97859"><ele>486.66666666666663</ele><time>2026-04-22T09:01:14.315Z</time></trkpt><trkpt lat="45.5203017" lon="10.978645"><ele>485.3333333333333</ele><time>2026-04-22T09:01:16.315Z</time></trkpt><trkpt lat="45.520225" lon="10.9786633"><ele>484.0</ele><time>2026-04-22T09:01:18.316Z</time></trkpt><trkpt lat="45.5201483" lon="10.9786983"><ele>482.66666666666663</ele><time>2026-04-22T09:01:20.315Z</time></trkpt><trkpt lat="45.5200533" lon="10.9787017"><ele>481.3333333333333</ele><time>2026-04-22T09:01:22.315Z</time></trkpt><trkpt lat="45.5199633" lon="10.97871"><ele>480.0</ele><time>2026-04-22T09:01:25.315Z</time></trkpt><trkpt lat="45.5198883" lon="10.97872"><ele>480.0</ele><time>2026-04-22T09:01:27.315Z</time></trkpt><trkpt lat="45.519755" lon="10.9788167"><ele>480.0</ele><time>2026-04-22T09:01:29.315Z</time></trkpt><trkpt lat="45.5196883" lon="10.97884"><ele>480.0</ele><time>2026-04-22T09:01:30.316Z</time></trkpt><trkpt lat="45.5196267" lon="10.9788617"><ele>480.0</ele><time>2026-04-22T09:01:31.315Z</time></trkpt><trkpt lat="45.5195683" lon="10.9788967"><ele>480.0</ele><time>2026-04-22T09:01:32.315Z</time></trkpt><trkpt lat="45.5195033" lon="10.97894"><ele>480.0</ele><time>2026-04-22T09:01:33.315Z</time></trkpt><trkpt lat="45.5194433" lon="10.978995"><ele>481.5</ele><time>2026-04-22T09:01:34.315Z</time></trkpt><trkpt lat="45.519385" lon="10.9790483"><ele>483.0</ele><time>2026-04-22T09:01:35.316Z</time></trkpt><trkpt lat="45.519295" lon="10.9791383"><ele>484.5</ele><time>2026-04-22T09:01:37.315Z</time></trkpt><trkpt lat="45.5192333" lon="10.979195"><ele>486.0</ele><time>2026-04-22T09:01:39.315Z</time></trkpt><trkpt lat="45.5192867" lon="10.9792617"><ele>487.5</ele><time>2026-04-22T09:01:42.315Z</time></trkpt><trkpt lat="45.5192117" lon="10.979325"><ele>489.0</ele><time>2026-04-22T09:01:44.315Z</time></trkpt><trkpt lat="45.519145" lon="10.9793967"><ele>485.0</ele><time>2026-04-22T09:01:46.315Z</time></trkpt><trkpt lat="45.5190683" lon="10.9795"><ele>481.0</ele><time>2026-04-22T09:01:48.315Z</time></trkpt><trkpt lat="45.5190233" lon="10.97959"><ele>477.0</ele><time>2026-04-22T09:01:50.315Z</time></trkpt><trkpt lat="45.51899" lon="10.979675"><ele>473.0</ele><time>2026-04-22T09:01:53.315Z</time></trkpt><trkpt lat="45.518895" lon="10.9797617"><ele>469.0</ele><time>2026-04-22T09:02:15.315Z</time></trkpt><trkpt lat="45.51883" lon="10.979895"><ele>468.4</ele><time>2026-04-22T09:02:17.315Z</time></trkpt><trkpt lat="45.5187833" lon="10.980045"><ele>467.79999999999995</ele><time>2026-04-22T09:02:19.315Z</time></trkpt><trkpt lat="45.5187283" lon="10.9801617"><ele>467.20000000000005</ele><time>2026-04-22T09:02:21.316Z</time></trkpt><trkpt lat="45.5186667" lon="10.98023"><ele>466.6</ele><time>2026-04-22T09:02:23.315Z</time></trkpt><trkpt lat="45.5186483" lon="10.980345"><ele>466.0</ele><time>2026-04-22T09:02:26.315Z</time></trkpt><trkpt lat="45.5185983" lon="10.98045"><ele>466.00000000000006</ele><time>2026-04-22T09:02:29.316Z</time></trkpt><trkpt lat="45.51857" lon="10.98054"><ele>466.0</ele><time>2026-04-22T09:02:31.315Z</time></trkpt><trkpt lat="45.5185633" lon="10.9806617"><ele>466.0</ele><time>2026-04-22T09:02:34.315Z</time></trkpt><trkpt lat="45.5186033" lon="10.9807433"><ele>466.0</ele><time>2026-04-22T09:02:36.315Z</time></trkpt><trkpt lat="45.5186533" lon="10.98082"><ele>466.00000000000006</ele><time>2026-04-22T09:02:39.315Z</time></trkpt><trkpt lat="45.5186133" lon="10.98091"><ele>466.0</ele><time>2026-04-22T09:02:43.315Z</time></trkpt><trkpt lat="45.51855" lon="10.9809983"><ele>461.8571428571429</ele><time>2026-04-22T09:02:46.315Z</time></trkpt><trkpt lat="45.5184833" lon="10.981065"><ele>457.71428571428567</ele><time>2026-04-22T09:02:48.315Z</time></trkpt><trkpt lat="45.5184383" lon="10.98113"><ele>453.57142857142856</ele><time>2026-04-22T09:02:50.315Z</time></trkpt><trkpt lat="45.51838" lon="10.9811717"><ele>449.42857142857144</ele><time>2026-04-22T09:02:52.316Z</time></trkpt><trkpt lat="45.5183083" lon="10.981215"><ele>445.28571428571433</ele><time>2026-04-22T09:02:54.315Z</time></trkpt><trkpt lat="45.518245" lon="10.981285"><ele>441.1428571428571</ele><time>2026-04-22T09:02:57.315Z</time></trkpt><trkpt lat="45.5181883" lon="10.9813617"><ele>437.0</ele><time>2026-04-22T09:02:59.315Z</time></trkpt><trkpt lat="45.5181067" lon="10.98148"><ele>436.99999999999994</ele><time>2026-04-22T09:03:01.315Z</time></trkpt><trkpt lat="45.51803" lon="10.9815567"><ele>437.0</ele><time>2026-04-22T09:03:03.315Z</time></trkpt><trkpt lat="45.51796" lon="10.9816133"><ele>437.0</ele><time>2026-04-22T09:03:05.315Z</time></trkpt><trkpt lat="45.51788" lon="10.9816467"><ele>437.0</ele><time>2026-04-22T09:03:08.315Z</time></trkpt><trkpt lat="45.5177817" lon="10.981615"><ele>436.99999999999994</ele><time>2026-04-22T09:03:11.315Z</time></trkpt><trkpt lat="45.51771" lon="10.9816133"><ele>437.0</ele><time>2026-04-22T09:03:13.315Z</time></trkpt><trkpt lat="45.5176117" lon="10.9816483"><ele>438.66666666666663</ele><time>2026-04-22T09:03:16.315Z</time></trkpt><trkpt lat="45.5175267" lon="10.9816167"><ele>440.3333333333333</ele><time>2026-04-22T09:03:18.315Z</time></trkpt><trkpt lat="45.51745" lon="10.9816067"><ele>442.0</ele><time>2026-04-22T09:03:20.315Z</time></trkpt><trkpt lat="45.51737" lon="10.9815917"><ele>443.66666666666663</ele><time>2026-04-22T09:03:22.315Z</time></trkpt><trkpt lat="45.51728" lon="10.9815633"><ele>445.3333333333333</ele><time>2026-04-22T09:03:24.315Z</time></trkpt><trkpt lat="45.5171883" lon="10.981535"><ele>447.0</ele><time>2026-04-22T09:03:26.315Z</time></trkpt><trkpt lat="45.5171117" lon="10.9815467"><ele>447.6</ele><time>2026-04-22T09:03:28.315Z</time></trkpt><trkpt lat="45.517025" lon="10.981585"><ele>448.20000000000005</ele><time>2026-04-22T09:03:32.315Z</time></trkpt><trkpt lat="45.5169467" lon="10.98162"><ele>448.8</ele><time>2026-04-22T09:03:33.315Z</time></trkpt><trkpt lat="45.516805" lon="10.9816683"><ele>449.4</ele><time>2026-04-22T09:04:46.315Z</time></trkpt><trkpt lat="45.5167517" lon="10.981805"><ele>450.0</ele><time>2026-04-22T09:08:14.314Z</time></trkpt><trkpt lat="45.5167683" lon="10.9816533"><ele>450.0</ele><time>2026-04-22T09:08:31.314Z</time></trkpt><trkpt lat="45.5166733" lon="10.9816"><ele>450.0</ele><time>2026-04-22T09:08:34.314Z</time></trkpt><trkpt lat="45.5165733" lon="10.98158"><ele>450.0</ele><time>2026-04-22T09:08:36.315Z</time></trkpt><trkpt lat="45.5164767" lon="10.98157"><ele>450.0</ele><time>2026-04-22T09:08:38.314Z</time></trkpt><trkpt lat="45.5163917" lon="10.9815467"><ele>450.0</ele><time>2026-04-22T09:08:40.314Z</time></trkpt><trkpt lat="45.516315" lon="10.981525"><ele>450.0</ele><time>2026-04-22T09:08:42.314Z</time></trkpt><trkpt lat="45.5162417" lon="10.9815033"><ele>450.0</ele><time>2026-04-22T09:08:44.314Z</time></trkpt><trkpt lat="45.5161683" lon="10.9814733"><ele>450.0</ele><time>2026-04-22T09:08:47.314Z</time></trkpt><trkpt lat="45.51606" lon="10.9814783"><ele>450.0</ele><time>2026-04-22T09:08:50.314Z</time></trkpt><trkpt lat="45.515965" lon="10.9814583"><ele>450.0</ele><time>2026-04-22T09:08:52.314Z</time></trkpt><trkpt lat="45.515885" lon="10.98144"><ele>450.0</ele><time>2026-04-22T09:08:54.314Z</time></trkpt><trkpt lat="45.515815" lon="10.9814733"><ele>449.6</ele><time>2026-04-22T09:08:57.315Z</time></trkpt><trkpt lat="45.5157133" lon="10.981515"><ele>449.2</ele><time>2026-04-22T09:09:00.314Z</time></trkpt><trkpt lat="45.5156383" lon="10.9815283"><ele>448.79999999999995</ele><time>2026-04-22T09:09:02.314Z</time></trkpt><trkpt lat="45.515545" lon="10.981535"><ele>448.4</ele><time>2026-04-22T09:09:04.314Z</time></trkpt><trkpt lat="45.5154617" lon="10.9815517"><ele>448.0</ele><time>2026-04-22T09:09:06.314Z</time></trkpt><trkpt lat="45.5153383" lon="10.9815417"><ele>448.00000000000006</ele><time>2026-04-22T09:09:08.314Z</time></trkpt><trkpt lat="45.5152717" lon="10.981505"><ele>448.0</ele><time>2026-04-22T09:09:09.314Z</time></trkpt><trkpt lat="45.5151883" lon="10.9814433"><ele>448.0</ele><time>2026-04-22T09:09:11.315Z</time></trkpt><trkpt lat="45.515125" lon="10.9814083"><ele>448.0</ele><time>2026-04-22T09:09:12.314Z</time></trkpt><trkpt lat="45.5150217" lon="10.98135"><ele>448.00000000000006</ele><time>2026-04-22T09:09:14.314Z</time></trkpt><trkpt lat="45.5149417" lon="10.9812633"><ele>448.0</ele><time>2026-04-22T09:09:16.315Z</time></trkpt><trkpt lat="45.5148983" lon="10.981195"><ele>448.00000000000006</ele><time>2026-04-22T09:09:17.314Z</time></trkpt><trkpt lat="45.51484" lon="10.9810867"><ele>448.0</ele><time>2026-04-22T09:09:19.315Z</time></trkpt><trkpt lat="45.5147767" lon="10.9809917"><ele>448.0</ele><time>2026-04-22T09:09:21.315Z</time></trkpt><trkpt lat="45.5147" lon="10.980945"><ele>448.0</ele><time>2026-04-22T09:09:23.314Z</time></trkpt><trkpt lat="45.51464" lon="10.9809167"><ele>448.00000000000006</ele><time>2026-04-22T09:09:25.314Z</time></trkpt><trkpt lat="45.5145633" lon="10.9809067"><ele>448.0</ele><time>2026-04-22T09:09:27.314Z</time></trkpt><trkpt lat="45.5144483" lon="10.9809067"><ele>447.2</ele><time>2026-04-22T09:09:29.314Z</time></trkpt><trkpt lat="45.5143533" lon="10.980885"><ele>446.4</ele><time>2026-04-22T09:09:31.314Z</time></trkpt><trkpt lat="45.5142467" lon="10.9808817"><ele>445.59999999999997</ele><time>2026-04-22T09:09:33.314Z</time></trkpt><trkpt lat="45.5141533" lon="10.980915"><ele>444.79999999999995</ele><time>2026-04-22T09:09:35.314Z</time></trkpt><trkpt lat="45.5141" lon="10.9809633"><ele>444.0</ele><time>2026-04-22T09:09:38.314Z</time></trkpt><trkpt lat="45.5140083" lon="10.980915"><ele>444.0</ele><time>2026-04-22T09:09:41.314Z</time></trkpt><trkpt lat="45.5139367" lon="10.9808783"><ele>444.0</ele><time>2026-04-22T09:09:43.313Z</time></trkpt><trkpt lat="45.51388" lon="10.9807967"><ele>444.0</ele><time>2026-04-22T09:09:45.313Z</time></trkpt><trkpt lat="45.513835" lon="10.98065"><ele>444.0</ele><time>2026-04-22T09:09:47.313Z</time></trkpt><trkpt lat="45.5137917" lon="10.9805817"><ele>444.0</ele><time>2026-04-22T09:09:48.313Z</time></trkpt><trkpt lat="45.5137283" lon="10.9804633"><ele>444.0</ele><time>2026-04-22T09:09:50.313Z</time></trkpt><trkpt lat="45.513695" lon="10.98036"><ele>443.66666666666663</ele><time>2026-04-22T09:09:52.313Z</time></trkpt><trkpt lat="45.5136683" lon="10.9802617"><ele>443.3333333333333</ele><time>2026-04-22T09:09:55.313Z</time></trkpt><trkpt lat="45.5137317" lon="10.9801433"><ele>443.0</ele><time>2026-04-22T09:10:53.313Z</time></trkpt><trkpt lat="45.5218983" lon="10.9924683"><ele>447.99999999999994</ele><time>2026-04-22T08:49:32.319Z</time></trkpt><trkpt lat="45.52192" lon="10.9923833"><ele>453.0</ele><time>2026-04-22T08:49:35.319Z</time></trkpt><trkpt lat="45.5219267" lon="10.9922883"><ele>458.0</ele><time>2026-04-22T08:49:39.319Z</time></trkpt><trkpt lat="45.5218833" lon="10.9921733"><ele>463.0</ele><time>2026-04-22T08:49:42.319Z</time></trkpt><trkpt lat="45.5218633" lon="10.9920783"><ele>467.99999999999994</ele><time>2026-04-22T08:49:44.32Z</time></trkpt><trkpt lat="45.5218383" lon="10.9919567"><ele>473.0</ele><time>2026-04-22T08:49:46.319Z</time></trkpt><trkpt lat="45.521805" lon="10.991805"><ele>472.99999999999994</ele><time>2026-04-22T08:49:48.32Z</time></trkpt><trkpt lat="45.5217617" lon="10.9916967"><ele>473.0</ele><time>2026-04-22T08:49:50.32Z</time></trkpt><trkpt lat="45.521735" lon="10.9915833"><ele>473.0</ele><time>2026-04-22T08:49:52.319Z</time></trkpt><trkpt lat="45.521675" lon="10.991465"><ele>473.0</ele><time>2026-04-22T08:49:54.32Z</time></trkpt><trkpt lat="45.5216183" lon="10.9913517"><ele>472.99999999999994</ele><time>2026-04-22T08:49:56.319Z</time></trkpt><trkpt lat="45.5215683" lon="10.9912717"><ele>473.0</ele><time>2026-04-22T08:49:58.319Z</time></trkpt><trkpt lat="45.5214967" lon="10.991205"><ele>475.16666666666663</ele><time>2026-04-22T08:50:01.319Z</time></trkpt><trkpt lat="45.5214283" lon="10.9911767"><ele>477.3333333333333</ele><time>2026-04-22T08:50:03.319Z</time></trkpt><trkpt lat="45.5213483" lon="10.9911867"><ele>479.5</ele><time>2026-04-22T08:50:05.319Z</time></trkpt><trkpt lat="45.5212833" lon="10.99114"><ele>481.66666666666663</ele><time>2026-04-22T08:50:07.319Z</time></trkpt><trkpt lat="45.5212017" lon="10.9911183"><ele>483.8333333333333</ele><time>2026-04-22T08:50:10.319Z</time></trkpt><trkpt lat="45.5212083" lon="10.991005"><ele>486.0</ele><time>2026-04-22T08:51:13.318Z</time></trkpt><trkpt lat="45.5212417" lon="10.9908483"><ele>489.0</ele><time>2026-04-22T08:51:15.318Z</time></trkpt><trkpt lat="45.521255" lon="10.9907267"><ele>492.0</ele><time>2026-04-22T08:51:16.318Z</time></trkpt><trkpt lat="45.5212583" lon="10.9906"><ele>495.0</ele><time>2026-04-22T08:51:17.318Z</time></trkpt><trkpt lat="45.521265" lon="10.9905033"><ele>498.0</ele><time>2026-04-22T08:51:18.318Z</time></trkpt><trkpt lat="45.521265" lon="10.990405"><ele>501.0</ele><time>2026-04-22T08:51:19.319Z</time></trkpt><trkpt lat="45.52128" lon="10.9902517"><ele>504.0</ele><time>2026-04-22T08:51:21.318Z</time></trkpt><trkpt lat="45.5212933" lon="10.990095"><ele>506.0</ele><time>2026-04-22T08:51:23.318Z</time></trkpt><trkpt lat="45.5213083" lon="10.9899917"><ele>508.0</ele><time>2026-04-22T08:51:25.318Z</time></trkpt><trkpt lat="45.5213467" lon="10.9898933"><ele>510.0</ele><time>2026-04-22T08:51:27.318Z</time></trkpt><trkpt lat="45.5213933" lon="10.98983"><ele>512.0</ele><time>2026-04-22T08:51:28.319Z</time></trkpt><trkpt lat="45.5215017" lon="10.9897417"><ele>514.0</ele><time>2026-04-22T08:51:30.318Z</time></trkpt><trkpt lat="45.521585" lon="10.9896717"><ele>516.0</ele><time>2026-04-22T08:51:32.318Z</time></trkpt><trkpt lat="45.5216583" lon="10.9895983"><ele>516.0</ele><time>2026-04-22T08:51:34.318Z</time></trkpt><trkpt lat="45.52173" lon="10.989501"><ele>516.0</ele><time>2026-04-22T08:51:36.318Z</time></trkpt><trkpt lat="45.5217801" lon="10.9894074"><ele>516.0</ele><time>2026-04-22T08:51:38.318Z</time></trkpt><trkpt lat="45.5218427" lon="10.9892463"><ele>516.0</ele><time>2026-04-22T08:51:41.318Z</time></trkpt><trkpt lat="45.5219026" lon="10.9891533"><ele>516.0</ele><time>2026-04-22T08:51:42.319Z</time></trkpt><trkpt lat="45.5219626" lon="10.9890726"><ele>516.6666666666666</ele><time>2026-04-22T08:51:43.319Z</time></trkpt><trkpt lat="45.5220286" lon="10.9890098"><ele>517.3333333333334</ele><time>2026-04-22T08:51:44.318Z</time></trkpt><trkpt lat="45.5220962" lon="10.9889602"><ele>518.0</ele><time>2026-04-22T08:51:45.318Z</time></trkpt><trkpt lat="45.522222" lon="10.9889571"><ele>518.6666666666667</ele><time>2026-04-22T08:51:47.318Z</time></trkpt><trkpt lat="45.5222916" lon="10.9889938"><ele>519.3333333333334</ele><time>2026-04-22T08:51:48.318Z</time></trkpt><trkpt lat="45.5223577" lon="10.9890143"><ele>520.0</ele><time>2026-04-22T08:51:49.318Z</time></trkpt><trkpt lat="45.5224653" lon="10.9890237"><ele>522.1666666666667</ele><time>2026-04-22T08:51:51.319Z</time></trkpt><trkpt lat="45.5225348" lon="10.9889993"><ele>524.3333333333334</ele><time>2026-04-22T08:51:53.318Z</time></trkpt><trkpt lat="45.5225563" lon="10.9888529"><ele>526.5</ele><time>2026-04-22T08:51:55.318Z</time></trkpt><trkpt lat="45.5225119" lon="10.988742"><ele>528.6666666666666</ele><time>2026-04-22T08:51:56.318Z</time></trkpt><trkpt lat="45.5224774" lon="10.9886514"><ele>530.8333333333333</ele><time>2026-04-22T08:51:57.318Z</time></trkpt><trkpt lat="45.5224463" lon="10.9885304"><ele>533.0</ele><time>2026-04-22T08:51:59.318Z</time></trkpt><trkpt lat="45.5224829" lon="10.988437"><ele>533.0</ele><time>2026-04-22T08:52:01.318Z</time></trkpt><trkpt lat="45.522553" lon="10.9884181"><ele>533.0</ele><time>2026-04-22T08:52:03.318Z</time></trkpt><trkpt lat="45.522595" lon="10.9883133"><ele>533.0</ele><time>2026-04-22T08:52:06.318Z</time></trkpt><trkpt lat="45.5225867" lon="10.98821"><ele>533.0</ele><time>2026-04-22T08:52:08.319Z</time></trkpt><trkpt lat="45.5226383" lon="10.9881433"><ele>533.0</ele><time>2026-04-22T08:52:11.318Z</time></trkpt><trkpt lat="45.5226917" lon="10.9882367"><ele>533.0</ele><time>2026-04-22T08:52:13.318Z</time></trkpt><trkpt lat="45.5227617" lon="10.988325"><ele>533.4</ele><time>2026-04-22T08:52:15.318Z</time></trkpt><trkpt lat="45.5228517" lon="10.9883117"><ele>533.8</ele><time>2026-04-22T08:52:17.319Z</time></trkpt><trkpt lat="45.522945" lon="10.9882883"><ele>534.2</ele><time>2026-04-22T08:52:19.318Z</time></trkpt><trkpt lat="45.5230383" lon="10.98828"><ele>534.6</ele><time>2026-04-22T08:52:21.318Z</time></trkpt><trkpt lat="45.5231583" lon="10.9882967"><ele>535.0</ele><time>2026-04-22T08:52:23.319Z</time></trkpt><trkpt lat="45.5232733" lon="10.988275"><ele>537.4</ele><time>2026-04-22T08:52:25.318Z</time></trkpt><trkpt lat="45.523405" lon="10.9882017"><ele>539.8</ele><time>2026-04-22T08:52:27.318Z</time></trkpt><trkpt lat="45.52352" lon="10.9881633"><ele>542.2</ele><time>2026-04-22T08:52:29.318Z</time></trkpt><trkpt lat="45.5236317" lon="10.98813"><ele>544.6</ele><time>2026-04-22T08:52:31.318Z</time></trkpt><trkpt lat="45.5236983" lon="10.9881167"><ele>547.0</ele><time>2026-04-22T08:52:34.318Z</time></trkpt><trkpt lat="45.5237233" lon="10.98802"><ele>549.6</ele><time>2026-04-22T08:52:42.318Z</time></trkpt><trkpt lat="45.5237833" lon="10.987905"><ele>552.2</ele><time>2026-04-22T08:52:45.318Z</time></trkpt><trkpt lat="45.5238817" lon="10.9878067"><ele>554.8</ele><time>2026-04-22T08:52:47.318Z</time></trkpt><trkpt lat="45.5239467" lon="10.9877633"><ele>557.4</ele><time>2026-04-22T08:52:48.318Z</time></trkpt><trkpt lat="45.5240217" lon="10.987715"><ele>560.0</ele><time>2026-04-22T08:52:49.319Z</time></trkpt><trkpt lat="45.5241467" lon="10.9876717"><ele>560.0</ele><time>2026-04-22T08:52:51.318Z</time></trkpt><trkpt lat="45.5242317" lon="10.9876283"><ele>560.0</ele><time>2026-04-22T08:52:52.318Z</time></trkpt><trkpt lat="45.5243033" lon="10.9875917"><ele>560.0</ele><time>2026-04-22T08:52:53.318Z</time></trkpt><trkpt lat="45.5243683" lon="10.987555"><ele>560.0</ele><time>2026-04-22T08:52:54.319Z</time></trkpt><trkpt lat="45.5244417" lon="10.9875117"><ele>560.0</ele><time>2026-04-22T08:52:55.318Z</time></trkpt><trkpt lat="45.5245383" lon="10.9873733"><ele>562.0</ele><time>2026-04-22T08:52:56.318Z</time></trkpt><trkpt lat="45.5246" lon="10.9872817"><ele>564.0</ele><time>2026-04-22T08:52:57.318Z</time></trkpt><trkpt lat="45.5246667" lon="10.9871833"><ele>566.0</ele><time>2026-04-22T08:52:58.318Z</time></trkpt><trkpt lat="45.52474" lon="10.987095"><ele>568.0</ele><time>2026-04-22T08:52:59.318Z</time></trkpt><trkpt lat="45.5248133" lon="10.987015"><ele>570.0</ele><time>2026-04-22T08:53:00.318Z</time></trkpt><trkpt lat="45.5248833" lon="10.9869367"><ele>570.0</ele><time>2026-04-22T08:53:01.318Z</time></trkpt><trkpt lat="45.5249483" lon="10.98688"><ele>570.0</ele><time>2026-04-22T08:53:02.318Z</time></trkpt><trkpt lat="45.5250167" lon="10.986815"><ele>570.0</ele><time>2026-04-22T08:53:03.318Z</time></trkpt><trkpt lat="45.5250917" lon="10.9868683"><ele>570.0</ele><time>2026-04-22T08:53:04.318Z</time></trkpt><trkpt lat="45.5252167" lon="10.9868867"><ele>570.0</ele><time>2026-04-22T08:53:06.318Z</time></trkpt><trkpt lat="45.5252867" lon="10.98689"><ele>570.0</ele><time>2026-04-22T08:53:07.318Z</time></trkpt><trkpt lat="45.5253467" lon="10.986845"><ele>569.0</ele><time>2026-04-22T08:53:08.318Z</time></trkpt><trkpt lat="45.5254133" lon="10.986825"><ele>568.0</ele><time>2026-04-22T08:53:09.318Z</time></trkpt><trkpt lat="45.5254717" lon="10.9867533"><ele>567.0</ele><time>2026-04-22T08:53:10.318Z</time></trkpt><trkpt lat="45.52556" lon="10.9867167"><ele>566.0</ele><time>2026-04-22T08:53:12.319Z</time></trkpt><trkpt lat="45.5257" lon="10.9866817"><ele>565.0</ele><time>2026-04-22T08:53:14.318Z</time></trkpt><trkpt lat="45.5257867" lon="10.98664"><ele>565.0</ele><time>2026-04-22T08:53:16.318Z</time></trkpt><trkpt lat="45.5258383" lon="10.98655"><ele>565.0</ele><time>2026-04-22T08:53:19.318Z</time></trkpt><trkpt lat="45.5259433" lon="10.9864633"><ele>565.0</ele><time>2026-04-22T08:53:21.319Z</time></trkpt><trkpt lat="45.5260417" lon="10.9863667"><ele>565.0</ele><time>2026-04-22T08:53:23.318Z</time></trkpt><trkpt lat="45.526105" lon="10.9863167"><ele>565.0</ele><time>2026-04-22T08:53:24.317Z</time></trkpt><trkpt lat="45.5261767" lon="10.986255"><ele>568.0</ele><time>2026-04-22T08:53:25.317Z</time></trkpt><trkpt lat="45.5262417" lon="10.986205"><ele>571.0</ele><time>2026-04-22T08:53:26.318Z</time></trkpt><trkpt lat="45.52631" lon="10.9861767"><ele>574.0</ele><time>2026-04-22T08:53:27.317Z</time></trkpt><trkpt lat="45.5264417" lon="10.9861"><ele>577.0</ele><time>2026-04-22T08:53:28.317Z</time></trkpt><trkpt lat="45.5265367" lon="10.986065"><ele>580.0</ele><time>2026-04-22T08:53:29.317Z</time></trkpt><trkpt lat="45.5266317" lon="10.98605"><ele>580.0</ele><time>2026-04-22T08:53:30.318Z</time></trkpt><trkpt lat="45.5267067" lon="10.9860433"><ele>580.0</ele><time>2026-04-22T08:53:31.317Z</time></trkpt><trkpt lat="45.52678" lon="10.986055"><ele>580.0</ele><time>2026-04-22T08:53:33.317Z</time></trkpt><trkpt lat="45.5268983" lon="10.9860617"><ele>580.0</ele><time>2026-04-22T08:53:36.317Z</time></trkpt><trkpt lat="45.5269783" lon="10.9859933"><ele>580.0</ele><time>2026-04-22T08:53:37.317Z</time></trkpt><trkpt lat="45.52703" lon="10.9859183"><ele>580.0</ele><time>2026-04-22T08:53:38.317Z</time></trkpt><trkpt lat="45.5271033" lon="10.985815"><ele>581.8333333333334</ele><time>2026-04-22T08:53:40.317Z</time></trkpt><trkpt lat="45.5271833" lon="10.9857717"><ele>583.6666666666667</ele><time>2026-04-22T08:53:42.317Z</time></trkpt><trkpt lat="45.5272483" lon="10.9857917"><ele>585.5</ele><time>2026-04-22T08:53:44.317Z</time></trkpt><trkpt lat="45.527325" lon="10.9857933"><ele>587.3333333333334</ele><time>2026-04-22T08:53:45.317Z</time></trkpt><trkpt lat="45.5273933" lon="10.98583"><ele>589.1666666666666</ele><time>2026-04-22T08:53:47.318Z</time></trkpt><trkpt lat="45.5274833" lon="10.985865"><ele>591.0</ele><time>2026-04-22T08:53:50.318Z</time></trkpt><trkpt lat="45.527565" lon="10.9858933"><ele>591.0</ele><time>2026-04-22T08:53:53.317Z</time></trkpt><trkpt lat="45.5276467" lon="10.98592"><ele>591.0</ele><time>2026-04-22T08:53:56.317Z</time></trkpt><trkpt lat="45.5276967" lon="10.985995"><ele>591.0</ele><time>2026-04-22T08:53:58.317Z</time></trkpt><trkpt lat="45.5277517" lon="10.9860417"><ele>591.0</ele><time>2026-04-22T08:54:00.318Z</time></trkpt><trkpt lat="45.5278183" lon="10.9861117"><ele>591.0</ele><time>2026-04-22T08:54:02.318Z</time></trkpt><trkpt lat="45.5278367" lon="10.986235"><ele>591.0</ele><time>2026-04-22T08:54:04.317Z</time></trkpt><trkpt lat="45.5278933" lon="10.9863117"><ele>593.6</ele><time>2026-04-22T08:54:06.317Z</time></trkpt><trkpt lat="45.5279633" lon="10.9863917"><ele>596.2</ele><time>2026-04-22T08:54:08.317Z</time></trkpt><trkpt lat="45.5280433" lon="10.9864817"><ele>598.8</ele><time>2026-04-22T08:54:10.317Z</time></trkpt><trkpt lat="45.5281133" lon="10.98651"><ele>601.4</ele><time>2026-04-22T08:54:12.317Z</time></trkpt><trkpt lat="45.5282667" lon="10.9864433"><ele>604.0</ele><time>2026-04-22T08:54:14.318Z</time></trkpt><trkpt lat="45.528385" lon="10.9864533"><ele>604.0</ele><time>2026-04-22T08:54:16.317Z</time></trkpt><trkpt lat="45.5284833" lon="10.9864617"><ele>604.0</ele><time>2026-04-22T08:54:18.318Z</time></trkpt><trkpt lat="45.52857" lon="10.986435"><ele>604.0</ele><time>2026-04-22T08:54:19.317Z</time></trkpt><trkpt lat="45.528665" lon="10.98646"><ele>604.0</ele><time>2026-04-22T08:54:21.317Z</time></trkpt><trkpt lat="45.5287367" lon="10.98649"><ele>604.0</ele><time>2026-04-22T08:54:23.317Z</time></trkpt><trkpt lat="45.5288017" lon="10.986415"><ele>604.0</ele><time>2026-04-22T08:54:27.317Z</time></trkpt><trkpt lat="45.5288617" lon="10.9863767"><ele>605.2</ele><time>2026-04-22T08:54:30.318Z</time></trkpt><trkpt lat="45.52895" lon="10.986395"><ele>606.4</ele><time>2026-04-22T08:54:33.317Z</time></trkpt><trkpt lat="45.5290067" lon="10.986295"><ele>607.6</ele><time>2026-04-22T08:54:37.317Z</time></trkpt><trkpt lat="45.5291383" lon="10.9861767"><ele>608.8</ele><time>2026-04-22T08:54:55.318Z</time></trkpt><trkpt lat="45.5291867" lon="10.98607"><ele>610.0</ele><time>2026-04-22T08:54:58.317Z</time></trkpt><trkpt lat="45.529185" lon="10.9859783"><ele>610.0</ele><time>2026-04-22T08:55:01.317Z</time></trkpt><trkpt lat="45.5292467" lon="10.9859383"><ele>610.0</ele><time>2026-04-22T08:55:04.318Z</time></trkpt><trkpt lat="45.5292967" lon="10.9858567"><ele>610.0</ele><time>2026-04-22T08:55:06.317Z</time></trkpt><trkpt lat="45.529335" lon="10.9857833"><ele>610.0</ele><time>2026-04-22T08:55:07.317Z</time></trkpt><trkpt lat="45.5293667" lon="10.9857033"><ele>610.0</ele><time>2026-04-22T08:55:09.317Z</time></trkpt><trkpt lat="45.5294067" lon="10.98561"><ele>610.0</ele><time>2026-04-22T08:55:12.317Z</time></trkpt><trkpt lat="45.52936" lon="10.9855117"><ele>610.0</ele><time>2026-04-22T08:55:15.318Z</time></trkpt><trkpt lat="45.529355" lon="10.98539"><ele>610.8333333333334</ele><time>2026-04-22T08:55:18.317Z</time></trkpt><trkpt lat="45.5294067" lon="10.9853333"><ele>611.6666666666667</ele><time>2026-04-22T08:55:26.318Z</time></trkpt><trkpt lat="45.5294833" lon="10.9852767"><ele>612.5</ele><time>2026-04-22T08:55:29.317Z</time></trkpt><trkpt lat="45.52953" lon="10.9852067"><ele>613.3333333333334</ele><time>2026-04-22T08:55:30.317Z</time></trkpt><trkpt lat="45.5295883" lon="10.9850717"><ele>614.1666666666666</ele><time>2026-04-22T08:55:32.317Z</time></trkpt><trkpt lat="45.5296283" lon="10.9849683"><ele>615.0</ele><time>2026-04-22T08:55:34.317Z</time></trkpt><trkpt lat="45.5295717" lon="10.98492"><ele>615.3333333333334</ele><time>2026-04-22T08:55:37.317Z</time></trkpt><trkpt lat="45.5295117" lon="10.9849567"><ele>615.6666666666666</ele><time>2026-04-22T08:55:38.317Z</time></trkpt><trkpt lat="45.5294417" lon="10.9849917"><ele>616.0</ele><time>2026-04-22T08:55:39.317Z</time></trkpt><trkpt lat="45.5293617" lon="10.9850217"><ele>616.3333333333333</ele><time>2026-04-22T08:55:40.317Z</time></trkpt><trkpt lat="45.5292833" lon="10.9850533"><ele>616.6666666666666</ele><time>2026-04-22T08:55:41.317Z</time></trkpt><trkpt lat="45.5291933" lon="10.98509"><ele>617.0</ele><time>2026-04-22T08:55:42.317Z</time></trkpt><trkpt lat="45.529105" lon="10.9851017"><ele>617.0</ele><time>2026-04-22T08:55:43.317Z</time></trkpt><trkpt lat="45.5290283" lon="10.985095"><ele>617.0</ele><time>2026-04-22T08:55:44.317Z</time></trkpt><trkpt lat="45.5289467" lon="10.98507"><ele>617.0</ele><time>2026-04-22T08:55:45.317Z</time></trkpt><trkpt lat="45.52887" lon="10.98505"><ele>617.0</ele><time>2026-04-22T08:55:46.317Z</time></trkpt><trkpt lat="45.5288067" lon="10.9849583"><ele>617.0</ele><time>2026-04-22T08:55:47.318Z</time></trkpt><trkpt lat="45.5287467" lon="10.98487"><ele>617.0</ele><time>2026-04-22T08:55:48.317Z</time></trkpt><trkpt lat="45.5286783" lon="10.9847917"><ele>616.6666666666666</ele><time>2026-04-22T08:55:49.317Z</time></trkpt><trkpt lat="45.5286067" lon="10.9847267"><ele>616.3333333333333</ele><time>2026-04-22T08:55:50.318Z</time></trkpt><trkpt lat="45.5285367" lon="10.9846583"><ele>616.0</ele><time>2026-04-22T08:55:51.317Z</time></trkpt><trkpt lat="45.5284583" lon="10.9845883"><ele>615.6666666666666</ele><time>2026-04-22T08:55:52.317Z</time></trkpt><trkpt lat="45.5283867" lon="10.9845267"><ele>615.3333333333334</ele><time>2026-04-22T08:55:53.318Z</time></trkpt><trkpt lat="45.5283183" lon="10.984475"><ele>615.0</ele><time>2026-04-22T08:55:54.317Z</time></trkpt><trkpt lat="45.5282533" lon="10.9844283"><ele>615.0</ele><time>2026-04-22T08:55:55.317Z</time></trkpt><trkpt lat="45.5281867" lon="10.98437"><ele>615.0</ele><time>2026-04-22T08:55:56.317Z</time></trkpt><trkpt lat="45.5281183" lon="10.98431"><ele>615.0</ele><time>2026-04-22T08:55:57.317Z</time></trkpt><trkpt lat="45.528045" lon="10.9842483"><ele>615.0</ele><time>2026-04-22T08:55:58.317Z</time></trkpt><trkpt lat="45.5279733" lon="10.9842033"><ele>615.0</ele><time>2026-04-22T08:55:59.317Z</time></trkpt><trkpt lat="45.5279" lon="10.9841617"><ele>615.0</ele><time>2026-04-22T08:56:00.318Z</time></trkpt><trkpt lat="45.52783" lon="10.9841267"><ele>613.7142857142857</ele><time>2026-04-22T08:56:01.317Z</time></trkpt><trkpt lat="45.5277583" lon="10.9840617"><ele>612.4285714285714</ele><time>2026-04-22T08:56:02.318Z</time></trkpt><trkpt lat="45.5276933" lon="10.9840367"><ele>611.1428571428571</ele><time>2026-04-22T08:56:03.317Z</time></trkpt><trkpt lat="45.5276233" lon="10.9840267"><ele>609.8571428571429</ele><time>2026-04-22T08:56:04.318Z</time></trkpt><trkpt lat="45.5275517" lon="10.984"><ele>608.5714285714286</ele><time>2026-04-22T08:56:05.317Z</time></trkpt><trkpt lat="45.5274817" lon="10.98397"><ele>607.2857142857143</ele><time>2026-04-22T08:56:06.317Z</time></trkpt><trkpt lat="45.527415" lon="10.98394"><ele>606.0</ele><time>2026-04-22T08:56:07.317Z</time></trkpt><trkpt lat="45.5273433" lon="10.9839067"><ele>606.0</ele><time>2026-04-22T08:56:08.318Z</time></trkpt><trkpt lat="45.5272783" lon="10.9838733"><ele>606.0</ele><time>2026-04-22T08:56:09.317Z</time></trkpt><trkpt lat="45.5271767" lon="10.9838583"><ele>606.0</ele><time>2026-04-22T08:56:11.318Z</time></trkpt><trkpt lat="45.5270717" lon="10.9838217"><ele>606.0</ele><time>2026-04-22T08:56:13.317Z</time></trkpt><trkpt lat="45.526975" lon="10.983775"><ele>606.0</ele><time>2026-04-22T08:56:15.317Z</time></trkpt><trkpt lat="45.5268733" lon="10.983765"><ele>603.2</ele><time>2026-04-22T08:56:17.318Z</time></trkpt><trkpt lat="45.5267683" lon="10.983805"><ele>600.4000000000001</ele><time>2026-04-22T08:56:19.317Z</time></trkpt><trkpt lat="45.52667" lon="10.9838467"><ele>597.6</ele><time>2026-04-22T08:56:21.318Z</time></trkpt><trkpt lat="45.5265383" lon="10.9838667"><ele>594.8000000000001</ele><time>2026-04-22T08:56:23.317Z</time></trkpt><trkpt lat="45.526465" lon="10.98389"><ele>592.0</ele><time>2026-04-22T08:56:24.318Z</time></trkpt><trkpt lat="45.5263883" lon="10.9839167"><ele>592.0</ele><time>2026-04-22T08:56:25.317Z</time></trkpt><trkpt lat="45.5263183" lon="10.9839367"><ele>592.0</ele><time>2026-04-22T08:56:26.318Z</time></trkpt><trkpt lat="45.5261883" lon="10.983935"><ele>592.0</ele><time>2026-04-22T08:56:28.317Z</time></trkpt><trkpt lat="45.5261133" lon="10.983925"><ele>592.0</ele><time>2026-04-22T08:56:29.317Z</time></trkpt><trkpt lat="45.5259767" lon="10.983945"><ele>592.0</ele><time>2026-04-22T08:56:31.316Z</time></trkpt><trkpt lat="45.5259083" lon="10.9839533"><ele>589.1666666666667</ele><time>2026-04-22T08:56:32.316Z</time></trkpt><trkpt lat="45.5258317" lon="10.9839583"><ele>586.3333333333334</ele><time>2026-04-22T08:56:33.316Z</time></trkpt><trkpt lat="45.5257533" lon="10.9839517"><ele>583.5</ele><time>2026-04-22T08:56:34.316Z</time></trkpt><trkpt lat="45.52568" lon="10.9839533"><ele>580.6666666666666</ele><time>2026-04-22T08:56:35.316Z</time></trkpt><trkpt lat="45.525615" lon="10.9839383"><ele>577.8333333333333</ele><time>2026-04-22T08:56:36.316Z</time></trkpt><trkpt lat="45.5255" lon="10.9839317"><ele>575.0</ele><time>2026-04-22T08:56:38.316Z</time></trkpt><trkpt lat="45.5253883" lon="10.9839"><ele>572.0</ele><time>2026-04-22T08:56:40.316Z</time></trkpt><trkpt lat="45.5252883" lon="10.9838"><ele>569.0</ele><time>2026-04-22T08:56:42.317Z</time></trkpt><trkpt lat="45.52524" lon="10.9837217"><ele>566.0</ele><time>2026-04-22T08:56:43.316Z</time></trkpt><trkpt lat="45.5251867" lon="10.9836267"><ele>563.0</ele><time>2026-04-22T08:56:44.316Z</time></trkpt><trkpt lat="45.5251267" lon="10.9835383"><ele>560.0</ele><time>2026-04-22T08:56:45.316Z</time></trkpt><trkpt lat="45.5250517" lon="10.9834383"><ele>560.4</ele><time>2026-04-22T08:56:46.316Z</time></trkpt><trkpt lat="45.5249833" lon="10.9833417"><ele>560.8</ele><time>2026-04-22T08:56:47.316Z</time></trkpt><trkpt lat="45.5249183" lon="10.9832483"><ele>561.2</ele><time>2026-04-22T08:56:48.316Z</time></trkpt><trkpt lat="45.5248483" lon="10.983155"><ele>561.6</ele><time>2026-04-22T08:56:49.316Z</time></trkpt><trkpt lat="45.5247817" lon="10.9830717"><ele>562.0</ele><time>2026-04-22T08:56:50.316Z</time></trkpt><trkpt lat="45.524725" lon="10.9829717"><ele>562.0</ele><time>2026-04-22T08:56:51.316Z</time></trkpt><trkpt lat="45.5246433" lon="10.982875"><ele>562.0</ele><time>2026-04-22T08:56:52.316Z</time></trkpt><trkpt lat="45.524555" lon="10.9827983"><ele>562.0</ele><time>2026-04-22T08:56:53.316Z</time></trkpt><trkpt lat="45.5244617" lon="10.9827233"><ele>562.0</ele><time>2026-04-22T08:56:54.316Z</time></trkpt><trkpt lat="45.5243783" lon="10.982635"><ele>562.0</ele><time>2026-04-22T08:56:55.316Z</time></trkpt><trkpt lat="45.5243" lon="10.98253"><ele>558.2</ele><time>2026-04-22T08:56:56.316Z</time></trkpt><trkpt lat="45.5242083" lon="10.9824267"><ele>554.4000000000001</ele><time>2026-04-22T08:56:57.316Z</time></trkpt><trkpt lat="45.5241333" lon="10.9823167"><ele>550.5999999999999</ele><time>2026-04-22T08:56:58.316Z</time></trkpt><trkpt lat="45.5240667" lon="10.9822033"><ele>546.8</ele><time>2026-04-22T08:56:59.316Z</time></trkpt><trkpt lat="45.5239967" lon="10.9821017"><ele>543.0</ele><time>2026-04-22T08:57:00.316Z</time></trkpt><trkpt lat="45.523925" lon="10.9820067"><ele>543.0</ele><time>2026-04-22T08:57:01.317Z</time></trkpt><trkpt lat="45.5238583" lon="10.9819"><ele>543.0</ele><time>2026-04-22T08:57:02.316Z</time></trkpt><trkpt lat="45.5238017" lon="10.9817933"><ele>543.0</ele><time>2026-04-22T08:57:03.317Z</time></trkpt><trkpt lat="45.523745" lon="10.9816933"><ele>543.0</ele><time>2026-04-22T08:57:04.316Z</time></trkpt><trkpt lat="45.5236817" lon="10.9815967"><ele>543.0</ele><time>2026-04-22T08:57:05.317Z</time></trkpt><trkpt lat="45.5236183" lon="10.9815117"><ele>540.4</ele><time>2026-04-22T08:57:06.316Z</time></trkpt><trkpt lat="45.52355" lon="10.9814217"><ele>537.8</ele><time>2026-04-22T08:57:07.316Z</time></trkpt><trkpt lat="45.5234833" lon="10.98133"><ele>535.2</ele><time>2026-04-22T08:57:08.317Z</time></trkpt><trkpt lat="45.523425" lon="10.9812567"><ele>532.6</ele><time>2026-04-22T08:57:09.316Z</time></trkpt><trkpt lat="45.5233583" lon="10.9811033"><ele>530.0</ele><time>2026-04-22T08:57:11.317Z</time></trkpt><trkpt lat="45.5232933" lon="10.9810333"><ele>530.0</ele><time>2026-04-22T08:57:12.316Z</time></trkpt><trkpt lat="45.5231883" lon="10.9809383"><ele>530.0</ele><time>2026-04-22T08:57:14.316Z</time></trkpt><trkpt lat="45.52312" lon="10.9808733"><ele>530.0</ele><time>2026-04-22T08:57:15.316Z</time></trkpt><trkpt lat="45.523045" lon="10.9808067"><ele>530.0</ele><time>2026-04-22T08:57:16.316Z</time></trkpt><trkpt lat="45.5229717" lon="10.9807433"><ele>530.0</ele><time>2026-04-22T08:57:17.316Z</time></trkpt><trkpt lat="45.5229017" lon="10.98068"><ele>528.1666666666666</ele><time>2026-04-22T08:57:18.316Z</time></trkpt><trkpt lat="45.5228283" lon="10.980615"><ele>526.3333333333333</ele><time>2026-04-22T08:57:19.316Z</time></trkpt><trkpt lat="45.5227583" lon="10.9805717"><ele>524.5</ele><time>2026-04-22T08:57:20.316Z</time></trkpt><trkpt lat="45.5227017" lon="10.9805267"><ele>522.6666666666666</ele><time>2026-04-22T08:57:21.316Z</time></trkpt><trkpt lat="45.5226117" lon="10.9803967"><ele>520.8333333333334</ele><time>2026-04-22T08:57:23.316Z</time></trkpt><trkpt lat="45.5225567" lon="10.980335"><ele>519.0</ele><time>2026-04-22T08:57:24.316Z</time></trkpt><trkpt lat="45.5224883" lon="10.9802867"><ele>519.0</ele><time>2026-04-22T08:57:25.316Z</time></trkpt><trkpt lat="45.5224183" lon="10.980245"><ele>519.0</ele><time>2026-04-22T08:57:26.317Z</time></trkpt><trkpt lat="45.5223317" lon="10.9802083"><ele>519.0</ele><time>2026-04-22T08:57:27.316Z</time></trkpt><trkpt lat="45.5222483" lon="10.9801767"><ele>519.0</ele><time>2026-04-22T08:57:28.316Z</time></trkpt><trkpt lat="45.5221733" lon="10.9801483"><ele>519.0</ele><time>2026-04-22T08:57:29.317Z</time></trkpt><trkpt lat="45.5220833" lon="10.9800683"><ele>519.0</ele><time>2026-04-22T08:57:31.316Z</time></trkpt><trkpt lat="45.5220567" lon="10.979985"><ele>516.8</ele><time>2026-04-22T08:57:34.316Z</time></trkpt><trkpt lat="45.5221633" lon="10.9799617"><ele>514.5999999999999</ele><time>2026-04-22T08:57:37.316Z</time></trkpt><trkpt lat="45.5223017" lon="10.9799317"><ele>512.4</ele><time>2026-04-22T08:57:38.316Z</time></trkpt><trkpt lat="45.5223783" lon="10.979945"><ele>510.2</ele><time>2026-04-22T08:57:39.316Z</time></trkpt><trkpt lat="45.5224867" lon="10.979965"><ele>508.0</ele><time>2026-04-22T08:57:40.316Z</time></trkpt><trkpt lat="45.5226017" lon="10.9799867"><ele>508.0</ele><time>2026-04-22T08:57:41.317Z</time></trkpt><trkpt lat="45.5227717" lon="10.98"><ele>508.0</ele><time>2026-04-22T08:57:42.316Z</time></trkpt><trkpt lat="45.52292" lon="10.9800367"><ele>508.0</ele><time>2026-04-22T08:57:43.316Z</time></trkpt><trkpt lat="45.5230217" lon="10.9800767"><ele>508.0</ele><time>2026-04-22T08:57:44.316Z</time></trkpt><trkpt lat="45.5231217" lon="10.980125"><ele>511.0</ele><time>2026-04-22T08:57:45.316Z</time></trkpt><trkpt lat="45.52322" lon="10.9801633"><ele>514.0</ele><time>2026-04-22T08:57:46.316Z</time></trkpt><trkpt lat="45.5233083" lon="10.9802183"><ele>517.0</ele><time>2026-04-22T08:57:47.317Z</time></trkpt><trkpt lat="45.5233967" lon="10.980275"><ele>520.0</ele><time>2026-04-22T08:57:48.316Z</time></trkpt><trkpt lat="45.5234917" lon="10.98032"><ele>523.0</ele><time>2026-04-22T08:57:49.316Z</time></trkpt><trkpt lat="45.5235817" lon="10.9803617"><ele>523.0</ele><time>2026-04-22T08:57:50.316Z</time></trkpt><trkpt lat="45.5236783" lon="10.9804"><ele>523.0</ele><time>2026-04-22T08:57:51.317Z</time></trkpt><trkpt lat="45.5237833" lon="10.9804183"><ele>523.0</ele><time>2026-04-22T08:57:52.315Z</time></trkpt><trkpt lat="45.52388" lon="10.980405"><ele>523.0</ele><time>2026-04-22T08:57:53.317Z</time></trkpt><trkpt lat="45.5239933" lon="10.9804"><ele>523.0</ele><time>2026-04-22T08:57:54.316Z</time></trkpt><trkpt lat="45.5240967" lon="10.9804033"><ele>522.6666666666667</ele><time>2026-04-22T08:57:55.317Z</time></trkpt><trkpt lat="45.524185" lon="10.9803683"><ele>522.3333333333334</ele><time>2026-04-22T08:57:56.317Z</time></trkpt><trkpt lat="45.5242633" lon="10.9803267"><ele>522.0</ele><time>2026-04-22T08:57:57.316Z</time></trkpt><trkpt lat="45.5243367" lon="10.9803017"><ele>521.6666666666666</ele><time>2026-04-22T08:57:58.316Z</time></trkpt><trkpt lat="45.5243933" lon="10.980225"><ele>521.3333333333333</ele><time>2026-04-22T08:57:59.316Z</time></trkpt><trkpt lat="45.5245067" lon="10.9802217"><ele>521.0</ele><time>2026-04-22T08:58:01.316Z</time></trkpt><trkpt lat="45.5246267" lon="10.9802367"><ele>520.4</ele><time>2026-04-22T08:58:03.316Z</time></trkpt><trkpt lat="45.524745" lon="10.9802533"><ele>519.8</ele><time>2026-04-22T08:58:05.317Z</time></trkpt><trkpt lat="45.524825" lon="10.98018"><ele>519.1999999999999</ele><time>2026-04-22T08:58:07.316Z</time></trkpt><trkpt lat="45.5249117" lon="10.9801033"><ele>518.6</ele><time>2026-04-22T08:58:09.316Z</time></trkpt><trkpt lat="45.5250117" lon="10.98005"><ele>518.0</ele><time>2026-04-22T08:58:11.317Z</time></trkpt><trkpt lat="45.52512" lon="10.9800017"><ele>518.0</ele><time>2026-04-22T08:58:13.316Z</time></trkpt><trkpt lat="45.5252417" lon="10.9799683"><ele>518.0</ele><time>2026-04-22T08:58:15.316Z</time></trkpt><trkpt lat="45.5253083" lon="10.9799567"><ele>518.0</ele><time>2026-04-22T08:58:16.316Z</time></trkpt><trkpt lat="45.525415" lon="10.9799167"><ele>518.0</ele><time>2026-04-22T08:58:18.316Z</time></trkpt><trkpt lat="45.525455" lon="10.9798283"><ele>518.0</ele><time>2026-04-22T08:58:20.317Z</time></trkpt><trkpt lat="45.5254683" lon="10.9797383"><ele>518.0</ele><time>2026-04-22T08:58:22.317Z</time></trkpt><trkpt lat="45.5255333" lon="10.979645"><ele>519.4</ele><time>2026-04-22T08:58:24.316Z</time></trkpt><trkpt lat="45.5256567" lon="10.9795583"><ele>520.8</ele><time>2026-04-22T08:58:26.316Z</time></trkpt><trkpt lat="45.525725" lon="10.979505"><ele>522.2</ele><time>2026-04-22T08:58:27.316Z</time></trkpt><trkpt lat="45.5257983" lon="10.979485"><ele>523.6</ele><time>2026-04-22T08:58:28.316Z</time></trkpt><trkpt lat="45.5258967" lon="10.9794217"><ele>525.0</ele><time>2026-04-22T08:58:30.316Z</time></trkpt><trkpt lat="45.525975" lon="10.97936"><ele>525.0</ele><time>2026-04-22T08:58:32.316Z</time></trkpt><trkpt lat="45.5260483" lon="10.9792633"><ele>525.0</ele><time>2026-04-22T08:58:34.316Z</time></trkpt><trkpt lat="45.5261067" lon="10.979145"><ele>525.0</ele><time>2026-04-22T08:58:36.316Z</time></trkpt><trkpt lat="45.526155" lon="10.9790533"><ele>525.0</ele><time>2026-04-22T08:58:38.316Z</time></trkpt><trkpt lat="45.5262033" lon="10.9789633"><ele>525.0</ele><time>2026-04-22T08:58:40.317Z</time></trkpt><trkpt lat="45.526285" lon="10.97885"><ele>526.5714285714286</ele><time>2026-04-22T08:58:42.316Z</time></trkpt><trkpt lat="45.5263283" lon="10.97878"><ele>528.1428571428571</ele><time>2026-04-22T08:58:43.317Z</time></trkpt><trkpt lat="45.5263717" lon="10.9787067"><ele>529.7142857142858</ele><time>2026-04-22T08:58:44.316Z</time></trkpt><trkpt lat="45.5264167" lon="10.9786183"><ele>531.2857142857142</ele><time>2026-04-22T08:58:45.316Z</time></trkpt><trkpt lat="45.5264717" lon="10.9785417"><ele>532.8571428571429</ele><time>2026-04-22T08:58:46.316Z</time></trkpt><trkpt lat="45.5265267" lon="10.978465"><ele>534.4285714285714</ele><time>2026-04-22T08:58:47.316Z</time></trkpt><trkpt lat="45.526585" lon="10.9783883"><ele>536.0</ele><time>2026-04-22T08:58:48.316Z</time></trkpt><trkpt lat="45.5266417" lon="10.978315"><ele>536.0</ele><time>2026-04-22T08:58:49.317Z</time></trkpt><trkpt lat="45.5266983" lon="10.9782483"><ele>536.0</ele><time>2026-04-22T08:58:50.316Z</time></trkpt><trkpt lat="45.5267533" lon="10.9781817"><ele>536.0</ele><time>2026-04-22T08:58:51.317Z</time></trkpt><trkpt lat="45.5268633" lon="10.9781117"><ele>536.0</ele><time>2026-04-22T08:58:53.316Z</time></trkpt><trkpt lat="45.5269567" lon="10.97798"><ele>536.0</ele><time>2026-04-22T08:58:55.316Z</time></trkpt><trkpt lat="45.5270117" lon="10.9778867"><ele>536.0</ele><time>2026-04-22T08:58:56.316Z</time></trkpt><trkpt lat="45.52706" lon="10.9778017"><ele>536.0</ele><time>2026-04-22T08:58:57.316Z</time></trkpt><trkpt lat="45.527105" lon="10.97772"><ele>536.0</ele><time>2026-04-22T08:58:58.317Z</time></trkpt><trkpt lat="45.5271467" lon="10.9776133"><ele>536.0</ele><time>2026-04-22T08:58:59.316Z</time></trkpt><trkpt lat="45.5271833" lon="10.977495"><ele>536.0</ele><time>2026-04-22T08:59:00.316Z</time></trkpt><trkpt lat="45.5272233" lon="10.9773883"><ele>536.0</ele><time>2026-04-22T08:59:01.316Z</time></trkpt><trkpt lat="45.5272683" lon="10.97729"><ele>537.0</ele><time>2026-04-22T08:59:02.316Z</time></trkpt><trkpt lat="45.5273167" lon="10.977195"><ele>538.0</ele><time>2026-04-22T08:59:03.317Z</time></trkpt><trkpt lat="45.5273683" lon="10.9771033"><ele>539.0</ele><time>2026-04-22T08:59:04.316Z</time></trkpt><trkpt lat="45.527425" lon="10.9770117"><ele>540.0</ele><time>2026-04-22T08:59:05.316Z</time></trkpt><trkpt lat="45.527465" lon="10.9769333"><ele>541.0</ele><time>2026-04-22T08:59:06.316Z</time></trkpt><trkpt lat="45.527515" lon="10.9768617"><ele>542.0</ele><time>2026-04-22T08:59:07.316Z</time></trkpt><trkpt lat="45.5275767" lon="10.9768217"><ele>542.0</ele><time>2026-04-22T08:59:08.317Z</time></trkpt><trkpt lat="45.5275667" lon="10.97672"><ele>542.0</ele><time>2026-04-22T08:59:13.316Z</time></trkpt><trkpt lat="45.52746" lon="10.97667"><ele>542.0</ele><time>2026-04-22T08:59:15.316Z</time></trkpt><trkpt lat="45.5273783" lon="10.976675"><ele>542.0</ele><time>2026-04-22T08:59:16.316Z</time></trkpt><trkpt lat="45.527285" lon="10.976685"><ele>542.0</ele><time>2026-04-22T08:59:17.317Z</time></trkpt><trkpt lat="45.5271983" lon="10.9766933"><ele>542.0</ele><time>2026-04-22T08:59:18.316Z</time></trkpt><trkpt lat="45.5270967" lon="10.9766983"><ele>538.8000000000001</ele><time>2026-04-22T08:59:19.316Z</time></trkpt><trkpt lat="45.526995" lon="10.9766967"><ele>535.6</ele><time>2026-04-22T08:59:20.316Z</time></trkpt><trkpt lat="45.526895" lon="10.9767017"><ele>532.4000000000001</ele><time>2026-04-22T08:59:21.316Z</time></trkpt><trkpt lat="45.5268083" lon="10.9767133"><ele>529.2</ele><time>2026-04-22T08:59:22.316Z</time></trkpt><trkpt lat="45.526715" lon="10.976725"><ele>526.0</ele><time>2026-04-22T08:59:23.317Z</time></trkpt><trkpt lat="45.5266133" lon="10.976745"><ele>526.0</ele><time>2026-04-22T08:59:24.317Z</time></trkpt><trkpt lat="45.5265133" lon="10.9767683"><ele>526.0</ele><time>2026-04-22T08:59:25.316Z</time></trkpt><trkpt lat="45.5264067" lon="10.9767917"><ele>526.0</ele><time>2026-04-22T08:59:26.316Z</time></trkpt><trkpt lat="45.5263033" lon="10.9768083"><ele>526.0</ele><time>2026-04-22T08:59:27.316Z</time></trkpt><trkpt lat="45.52622" lon="10.9767817"><ele>526.0</ele><time>2026-04-22T08:59:28.316Z</time></trkpt><trkpt lat="45.52612" lon="10.97677"><ele>526.6</ele><time>2026-04-22T08:59:29.316Z</time></trkpt><trkpt lat="45.52602" lon="10.97674"><ele>527.2</ele><time>2026-04-22T08:59:30.316Z</time></trkpt><trkpt lat="45.525925" lon="10.976695"><ele>527.8</ele><time>2026-04-22T08:59:31.317Z</time></trkpt><trkpt lat="45.525825" lon="10.976645"><ele>528.4</ele><time>2026-04-22T08:59:32.316Z</time></trkpt><trkpt lat="45.5257283" lon="10.9765883"><ele>529.0</ele><time>2026-04-22T08:59:33.316Z</time></trkpt><trkpt lat="45.52563" lon="10.9765417"><ele>529.0</ele><time>2026-04-22T08:59:34.316Z</time></trkpt><trkpt lat="45.5255367" lon="10.97649"><ele>529.0</ele><time>2026-04-22T08:59:35.316Z</time></trkpt><trkpt lat="45.5254317" lon="10.97642"><ele>529.0</ele><time>2026-04-22T08:59:36.316Z</time></trkpt><trkpt lat="45.5253217" lon="10.9763767"><ele>529.0</ele><time>2026-04-22T08:59:37.316Z</time></trkpt><trkpt lat="45.525215" lon="10.9763383"><ele>529.0</ele><time>2026-04-22T08:59:38.316Z</time></trkpt><trkpt lat="45.5251167" lon="10.9763283"><ele>528.0</ele><time>2026-04-22T08:59:39.317Z</time></trkpt><trkpt lat="45.5250167" lon="10.9763367"><ele>527.0</ele><time>2026-04-22T08:59:40.316Z</time></trkpt><trkpt lat="45.5249083" lon="10.976355"><ele>526.0</ele><time>2026-04-22T08:59:41.317Z</time></trkpt><trkpt lat="45.5247967" lon="10.9763967"><ele>525.0</ele><time>2026-04-22T08:59:42.316Z</time></trkpt><trkpt lat="45.5246867" lon="10.9764483"><ele>524.0</ele><time>2026-04-22T08:59:43.316Z</time></trkpt><trkpt lat="45.524585" lon="10.976495"><ele>524.75</ele><time>2026-04-22T08:59:44.316Z</time></trkpt><trkpt lat="45.5244817" lon="10.9765483"><ele>525.5</ele><time>2026-04-22T08:59:45.316Z</time></trkpt><trkpt lat="45.5243717" lon="10.9766067"><ele>526.25</ele><time>2026-04-22T08:59:46.317Z</time></trkpt><trkpt lat="45.5242667" lon="10.9766467"><ele>527.0</ele><time>2026-04-22T08:59:47.316Z</time></trkpt><trkpt lat="45.5241483" lon="10.9766983"><ele>522.25</ele><time>2026-04-22T08:59:48.316Z</time></trkpt><trkpt lat="45.52403" lon="10.976745"><ele>517.5</ele><time>2026-04-22T08:59:49.316Z</time></trkpt><trkpt lat="45.5238883" lon="10.9768167"><ele>512.75</ele><time>2026-04-22T08:59:50.316Z</time></trkpt><trkpt lat="45.5237883" lon="10.9768433"><ele>508.0</ele><time>2026-04-22T08:59:51.316Z</time></trkpt><trkpt lat="45.52368" lon="10.9768633"><ele>508.0</ele><time>2026-04-22T08:59:52.316Z</time></trkpt><trkpt lat="45.52357" lon="10.97686"><ele>508.0</ele><time>2026-04-22T08:59:53.315Z</time></trkpt><trkpt lat="45.523445" lon="10.97686"><ele>508.0</ele><time>2026-04-22T08:59:54.315Z</time></trkpt><trkpt lat="45.523335" lon="10.976835"><ele>508.0</ele><time>2026-04-22T08:59:55.315Z</time></trkpt><trkpt lat="45.52323" lon="10.97681"><ele>508.0</ele><time>2026-04-22T08:59:56.316Z</time></trkpt><trkpt lat="45.523155" lon="10.9767517"><ele>507.99999999999994</ele><time>2026-04-22T08:59:57.315Z</time></trkpt><trkpt lat="45.523055" lon="10.9766783"><ele>507.99999999999994</ele><time>2026-04-22T08:59:58.315Z</time></trkpt><trkpt lat="45.5229683" lon="10.976615"><ele>508.0</ele><time>2026-04-22T08:59:59.316Z</time></trkpt><trkpt lat="45.5228817" lon="10.9765333"><ele>508.0</ele><time>2026-04-22T09:00:00.315Z</time></trkpt><trkpt lat="45.5227967" lon="10.976435"><ele>508.75</ele><time>2026-04-22T09:00:01.315Z</time></trkpt><trkpt lat="45.5227133" lon="10.976345"><ele>509.5</ele><time>2026-04-22T09:00:02.316Z</time></trkpt><trkpt lat="45.5226133" lon="10.9762733"><ele>510.25</ele><time>2026-04-22T09:00:03.315Z</time></trkpt><trkpt lat="45.5225067" lon="10.9762133"><ele>511.0</ele><time>2026-04-22T09:00:04.315Z</time></trkpt><trkpt lat="45.5223917" lon="10.976145"><ele>511.0</ele><time>2026-04-22T09:00:05.315Z</time></trkpt><trkpt lat="45.52226" lon="10.9761067"><ele>511.0</ele><time>2026-04-22T09:00:06.315Z</time></trkpt><trkpt lat="45.5221417" lon="10.976035"><ele>511.0</ele><time>2026-04-22T09:00:07.315Z</time></trkpt><trkpt lat="45.522015" lon="10.9759517"><ele>511.0</ele><time>2026-04-22T09:00:08.315Z</time></trkpt><trkpt lat="45.5218917" lon="10.9758567"><ele>510.75</ele><time>2026-04-22T09:00:09.315Z</time></trkpt><trkpt lat="45.52178" lon="10.9757233"><ele>510.5</ele><time>2026-04-22T09:00:10.315Z</time></trkpt><trkpt lat="45.5216683" lon="10.9756033"><ele>510.25</ele><time>2026-04-22T09:00:11.315Z</time></trkpt><trkpt lat="45.521555" lon="10.9754983"><ele>510.0</ele><time>2026-04-22T09:00:12.315Z</time></trkpt><trkpt lat="45.5214317" lon="10.97542"><ele>510.0</ele><time>2026-04-22T09:00:13.315Z</time></trkpt><trkpt lat="45.5213117" lon="10.9753433"><ele>510.0</ele><time>2026-04-22T09:00:14.315Z</time></trkpt><trkpt lat="45.5211883" lon="10.9752667"><ele>510.0</ele><time>2026-04-22T09:00:15.315Z</time></trkpt><trkpt lat="45.52109" lon="10.9751883"><ele>510.0</ele><time>2026-04-22T09:00:16.315Z</time></trkpt><trkpt lat="45.52097" lon="10.975105"><ele>509.75</ele><time>2026-04-22T09:00:17.316Z</time></trkpt><trkpt lat="45.52086" lon="10.97502"><ele>509.5</ele><time>2026-04-22T09:00:18.316Z</time></trkpt><trkpt lat="45.5207583" lon="10.974945"><ele>509.25</ele><time>2026-04-22T09:00:19.315Z</time></trkpt><trkpt lat="45.520645" lon="10.9748883"><ele>509.0</ele><time>2026-04-22T09:00:20.315Z</time></trkpt><trkpt lat="45.52054" lon="10.974845"><ele>508.99999999999994</ele><time>2026-04-22T09:00:21.316Z</time></trkpt><trkpt lat="45.5204433" lon="10.9748267"><ele>509.0</ele><time>2026-04-22T09:00:22.316Z</time></trkpt><trkpt lat="45.5203717" lon="10.97481"><ele>509.0</ele><time>2026-04-22T09:00:23.316Z</time></trkpt><trkpt lat="45.5202883" lon="10.974815"><ele>509.0</ele><time>2026-04-22T09:00:24.315Z</time></trkpt><trkpt lat="45.5202217" lon="10.9748867"><ele>508.99999999999994</ele><time>2026-04-22T09:00:26.315Z</time></trkpt><trkpt lat="45.5202917" lon="10.9750117"><ele>509.0</ele><time>2026-04-22T09:00:28.315Z</time></trkpt><trkpt lat="45.5203417" lon="10.975125"><ele>509.3333333333333</ele><time>2026-04-22T09:00:30.315Z</time></trkpt><trkpt lat="45.5203733" lon="10.9752533"><ele>509.66666666666663</ele><time>2026-04-22T09:00:32.315Z</time></trkpt><trkpt lat="45.520405" lon="10.9754317"><ele>510.0</ele><time>2026-04-22T09:00:34.316Z</time></trkpt><trkpt lat="45.52042" lon="10.97553"><ele>510.33333333333337</ele><time>2026-04-22T09:00:35.315Z</time></trkpt><trkpt lat="45.5204283" lon="10.975625"><ele>510.6666666666667</ele><time>2026-04-22T09:00:36.315Z</time></trkpt><trkpt lat="45.5204283" lon="10.9757167"><ele>511.0</ele><time>2026-04-22T09:00:37.315Z</time></trkpt><trkpt lat="45.5204617" lon="10.9758717"><ele>506.25</ele><time>2026-04-22T09:00:39.315Z</time></trkpt><trkpt lat="45.5204933" lon="10.9760283"><ele>501.5</ele><time>2026-04-22T09:00:41.315Z</time></trkpt><trkpt lat="45.5205017" lon="10.976125"><ele>496.75</ele><time>2026-04-22T09:00:42.315Z</time></trkpt><trkpt lat="45.52051" lon="10.9762917"><ele>492.0</ele><time>2026-04-22T09:00:44.315Z</time></trkpt><trkpt lat="45.520595" lon="10.9765083"><ele>492.0</ele><time>2026-04-22T09:00:46.315Z</time></trkpt><trkpt lat="45.5206417" lon="10.9766383"><ele>492.00000000000006</ele><time>2026-04-22T09:00:47.315Z</time></trkpt><trkpt lat="45.52065" lon="10.976775"><ele>492.00000000000006</ele><time>2026-04-22T09:00:48.315Z</time></trkpt><trkpt lat="45.5206133" lon="10.9769017"><ele>492.0</ele><time>2026-04-22T09:00:49.316Z</time></trkpt><trkpt lat="45.52061" lon="10.9770583"><ele>492.0</ele><time>2026-04-22T09:00:51.315Z</time></trkpt><trkpt lat="45.520575" lon="10.9771867"><ele>491.5</ele><time>2026-04-22T09:00:53.315Z</time></trkpt><trkpt lat="45.5205733" lon="10.9773183"><ele>491.0</ele><time>2026-04-22T09:00:55.315Z</time></trkpt><trkpt lat="45.5205817" lon="10.9774133"><ele>490.5</ele><time>2026-04-22T09:00:56.315Z</time></trkpt><trkpt lat="45.5206083" lon="10.9775583"><ele>490.0</ele><time>2026-04-22T09:00:58.315Z</time></trkpt><trkpt lat="45.5206233" lon="10.9776717"><ele>489.5</ele><time>2026-04-22T09:01:00.315Z</time></trkpt><trkpt lat="45.5205983" lon="10.9778033"><ele>489.0</ele><time>2026-04-22T09:01:02.315Z</time></trkpt><trkpt lat="45.52061" lon="10.9779617"><ele>488.79999999999995</ele><time>2026-04-22T09:01:04.316Z</time></trkpt><trkpt lat="45.520605" lon="10.9781333"><ele>488.59999999999997</ele><time>2026-04-22T09:01:06.315Z</time></trkpt><trkpt lat="45.5205933" lon="10.9782983"><ele>488.4</ele><time>2026-04-22T09:01:08.315Z</time></trkpt><trkpt lat="45.5205417" lon="10.9784133"><ele>488.2</ele><time>2026-04-22T09:01:10.315Z</time></trkpt><trkpt lat="45.5204467" lon="10.978495"><ele>488.0</ele><time>2026-04-22T09:01:12.315Z</time></trkpt><trkpt lat="45.5203767" lon="10.97859"><ele>486.66666666666663</ele><time>2026-04-22T09:01:14.315Z</time></trkpt><trkpt lat="45.5203017" lon="10.978645"><ele>485.3333333333333</ele><time>2026-04-22T09:01:16.315Z</time></trkpt><trkpt lat="45.520225" lon="10.9786633"><ele>484.0</ele><time>2026-04-22T09:01:18.316Z</time></trkpt><trkpt lat="45.5201483" lon="10.9786983"><ele>482.66666666666663</ele><time>2026-04-22T09:01:20.315Z</time></trkpt><trkpt lat="45.5200533" lon="10.9787017"><ele>481.3333333333333</ele><time>2026-04-22T09:01:22.315Z</time></trkpt><trkpt lat="45.5199633" lon="10.97871"><ele>480.0</ele><time>2026-04-22T09:01:25.315Z</time></trkpt><trkpt lat="45.5198883" lon="10.97872"><ele>480.0</ele><time>2026-04-22T09:01:27.315Z</time></trkpt><trkpt lat="45.519755" lon="10.9788167"><ele>480.0</ele><time>2026-04-22T09:01:29.315Z</time></trkpt><trkpt lat="45.5196883" lon="10.97884"><ele>480.0</ele><time>2026-04-22T09:01:30.316Z</time></trkpt><trkpt lat="45.5196267" lon="10.9788617"><ele>480.0</ele><time>2026-04-22T09:01:31.315Z</time></trkpt><trkpt lat="45.5195683" lon="10.9788967"><ele>480.0</ele><time>2026-04-22T09:01:32.315Z</time></trkpt><trkpt lat="45.5195033" lon="10.97894"><ele>480.0</ele><time>2026-04-22T09:01:33.315Z</time></trkpt><trkpt lat="45.5194433" lon="10.978995"><ele>481.5</ele><time>2026-04-22T09:01:34.315Z</time></trkpt><trkpt lat="45.519385" lon="10.9790483"><ele>483.0</ele><time>2026-04-22T09:01:35.316Z</time></trkpt><trkpt lat="45.519295" lon="10.9791383"><ele>484.5</ele><time>2026-04-22T09:01:37.315Z</time></trkpt><trkpt lat="45.5192333" lon="10.979195"><ele>486.0</ele><time>2026-04-22T09:01:39.315Z</time></trkpt><trkpt lat="45.5192867" lon="10.9792617"><ele>487.5</ele><time>2026-04-22T09:01:42.315Z</time></trkpt><trkpt lat="45.5192117" lon="10.979325"><ele>489.0</ele><time>2026-04-22T09:01:44.315Z</time></trkpt><trkpt lat="45.519145" lon="10.9793967"><ele>485.0</ele><time>2026-04-22T09:01:46.315Z</time></trkpt><trkpt lat="45.5190683" lon="10.9795"><ele>481.0</ele><time>2026-04-22T09:01:48.315Z</time></trkpt><trkpt lat="45.5190233" lon="10.97959"><ele>477.0</ele><time>2026-04-22T09:01:50.315Z</time></trkpt><trkpt lat="45.51899" lon="10.979675"><ele>473.0</ele><time>2026-04-22T09:01:53.315Z</time></trkpt><trkpt lat="45.518895" lon="10.9797617"><ele>469.0</ele><time>2026-04-22T09:02:15.315Z</time></trkpt><trkpt lat="45.51883" lon="10.979895"><ele>468.4</ele><time>2026-04-22T09:02:17.315Z</time></trkpt><trkpt lat="45.5187833" lon="10.980045"><ele>467.79999999999995</ele><time>2026-04-22T09:02:19.315Z</time></trkpt><trkpt lat="45.5187283" lon="10.9801617"><ele>467.20000000000005</ele><time>2026-04-22T09:02:21.316Z</time></trkpt><trkpt lat="45.5186667" lon="10.98023"><ele>466.6</ele><time>2026-04-22T09:02:23.315Z</time></trkpt><trkpt lat="45.5186483" lon="10.980345"><ele>466.0</ele><time>2026-04-22T09:02:26.315Z</time></trkpt><trkpt lat="45.5185983" lon="10.98045"><ele>466.00000000000006</ele><time>2026-04-22T09:02:29.316Z</time></trkpt><trkpt lat="45.51857" lon="10.98054"><ele>466.0</ele><time>2026-04-22T09:02:31.315Z</time></trkpt><trkpt lat="45.5185633" lon="10.9806617"><ele>466.0</ele><time>2026-04-22T09:02:34.315Z</time></trkpt><trkpt lat="45.5186033" lon="10.9807433"><ele>466.0</ele><time>2026-04-22T09:02:36.315Z</time></trkpt><trkpt lat="45.5186533" lon="10.98082"><ele>466.00000000000006</ele><time>2026-04-22T09:02:39.315Z</time></trkpt><trkpt lat="45.5186133" lon="10.98091"><ele>466.0</ele><time>2026-04-22T09:02:43.315Z</time></trkpt><trkpt lat="45.51855" lon="10.9809983"><ele>461.8571428571429</ele><time>2026-04-22T09:02:46.315Z</time></trkpt><trkpt lat="45.5184833" lon="10.981065"><ele>457.71428571428567</ele><time>2026-04-22T09:02:48.315Z</time></trkpt><trkpt lat="45.5184383" lon="10.98113"><ele>453.57142857142856</ele><time>2026-04-22T09:02:50.315Z</time></trkpt><trkpt lat="45.51838" lon="10.9811717"><ele>449.42857142857144</ele><time>2026-04-22T09:02:52.316Z</time></trkpt><trkpt lat="45.5183083" lon="10.981215"><ele>445.28571428571433</ele><time>2026-04-22T09:02:54.315Z</time></trkpt><trkpt lat="45.518245" lon="10.981285"><ele>441.1428571428571</ele><time>2026-04-22T09:02:57.315Z</time></trkpt><trkpt lat="45.5181883" lon="10.9813617"><ele>437.0</ele><time>2026-04-22T09:02:59.315Z</time></trkpt><trkpt lat="45.5181067" lon="10.98148"><ele>436.99999999999994</ele><time>2026-04-22T09:03:01.315Z</time></trkpt><trkpt lat="45.51803" lon="10.9815567"><ele>437.0</ele><time>2026-04-22T09:03:03.315Z</time></trkpt><trkpt lat="45.51796" lon="10.9816133"><ele>437.0</ele><time>2026-04-22T09:03:05.315Z</time></trkpt><trkpt lat="45.51788" lon="10.9816467"><ele>437.0</ele><time>2026-04-22T09:03:08.315Z</time></trkpt><trkpt lat="45.5177817" lon="10.981615"><ele>436.99999999999994</ele><time>2026-04-22T09:03:11.315Z</time></trkpt><trkpt lat="45.51771" lon="10.9816133"><ele>437.0</ele><time>2026-04-22T09:03:13.315Z</time></trkpt><trkpt lat="45.5176117" lon="10.9816483"><ele>438.66666666666663</ele><time>2026-04-22T09:03:16.315Z</time></trkpt><trkpt lat="45.5175267" lon="10.9816167"><ele>440.3333333333333</ele><time>2026-04-22T09:03:18.315Z</time></trkpt><trkpt lat="45.51745" lon="10.9816067"><ele>442.0</ele><time>2026-04-22T09:03:20.315Z</time></trkpt><trkpt lat="45.51737" lon="10.9815917"><ele>443.66666666666663</ele><time>2026-04-22T09:03:22.315Z</time></trkpt><trkpt lat="45.51728" lon="10.9815633"><ele>445.3333333333333</ele><time>2026-04-22T09:03:24.315Z</time></trkpt><trkpt lat="45.5171883" lon="10.981535"><ele>447.0</ele><time>2026-04-22T09:03:26.315Z</time></trkpt><trkpt lat="45.5171117" lon="10.9815467"><ele>447.6</ele><time>2026-04-22T09:03:28.315Z</time></trkpt><trkpt lat="45.517025" lon="10.981585"><ele>448.20000000000005</ele><time>2026-04-22T09:03:32.315Z</time></trkpt><trkpt lat="45.5169467" lon="10.98162"><ele>448.8</ele><time>2026-04-22T09:03:33.315Z</time></trkpt><trkpt lat="45.516805" lon="10.9816683"><ele>449.4</ele><time>2026-04-22T09:04:46.315Z</time></trkpt><trkpt lat="45.5167517" lon="10.981805"><ele>450.0</ele><time>2026-04-22T09:08:14.314Z</time></trkpt><trkpt lat="45.5167683" lon="10.9816533"><ele>450.0</ele><time>2026-04-22T09:08:31.314Z</time></trkpt><trkpt lat="45.5166733" lon="10.9816"><ele>450.0</ele><time>2026-04-22T09:08:34.314Z</time></trkpt><trkpt lat="45.5165733" lon="10.98158"><ele>450.0</ele><time>2026-04-22T09:08:36.315Z</time></trkpt><trkpt lat="45.5164767" lon="10.98157"><ele>450.0</ele><time>2026-04-22T09:08:38.314Z</time></trkpt><trkpt lat="45.5163917" lon="10.9815467"><ele>450.0</ele><time>2026-04-22T09:08:40.314Z</time></trkpt><trkpt lat="45.516315" lon="10.981525"><ele>450.0</ele><time>2026-04-22T09:08:42.314Z</time></trkpt><trkpt lat="45.5162417" lon="10.9815033"><ele>450.0</ele><time>2026-04-22T09:08:44.314Z</time></trkpt><trkpt lat="45.5161683" lon="10.9814733"><ele>450.0</ele><time>2026-04-22T09:08:47.314Z</time></trkpt><trkpt lat="45.51606" lon="10.9814783"><ele>450.0</ele><time>2026-04-22T09:08:50.314Z</time></trkpt><trkpt lat="45.515965" lon="10.9814583"><ele>450.0</ele><time>2026-04-22T09:08:52.314Z</time></trkpt><trkpt lat="45.515885" lon="10.98144"><ele>450.0</ele><time>2026-04-22T09:08:54.314Z</time></trkpt><trkpt lat="45.515815" lon="10.9814733"><ele>449.6</ele><time>2026-04-22T09:08:57.315Z</time></trkpt><trkpt lat="45.5157133" lon="10.981515"><ele>449.2</ele><time>2026-04-22T09:09:00.314Z</time></trkpt><trkpt lat="45.5156383" lon="10.9815283"><ele>448.79999999999995</ele><time>2026-04-22T09:09:02.314Z</time></trkpt><trkpt lat="45.515545" lon="10.981535"><ele>448.4</ele><time>2026-04-22T09:09:04.314Z</time></trkpt><trkpt lat="45.5154617" lon="10.9815517"><ele>448.0</ele><time>2026-04-22T09:09:06.314Z</time></trkpt><trkpt lat="45.5153383" lon="10.9815417"><ele>448.00000000000006</ele><time>2026-04-22T09:09:08.314Z</time></trkpt><trkpt lat="45.5152717" lon="10.981505"><ele>448.0</ele><time>2026-04-22T09:09:09.314Z</time></trkpt><trkpt lat="45.5151883" lon="10.9814433"><ele>448.0</ele><time>2026-04-22T09:09:11.315Z</time></trkpt><trkpt lat="45.515125" lon="10.9814083"><ele>448.0</ele><time>2026-04-22T09:09:12.314Z</time></trkpt><trkpt lat="45.5150217" lon="10.98135"><ele>448.00000000000006</ele><time>2026-04-22T09:09:14.314Z</time></trkpt><trkpt lat="45.5149417" lon="10.9812633"><ele>448.0</ele><time>2026-04-22T09:09:16.315Z</time></trkpt><trkpt lat="45.5148983" lon="10.981195"><ele>448.00000000000006</ele><time>2026-04-22T09:09:17.314Z</time></trkpt><trkpt lat="45.51484" lon="10.9810867"><ele>448.0</ele><time>2026-04-22T09:09:19.315Z</time></trkpt><trkpt lat="45.5147767" lon="10.9809917"><ele>448.0</ele><time>2026-04-22T09:09:21.315Z</time></trkpt><trkpt lat="45.5147" lon="10.980945"><ele>448.0</ele><time>2026-04-22T09:09:23.314Z</time></trkpt><trkpt lat="45.51464" lon="10.9809167"><ele>448.00000000000006</ele><time>2026-04-22T09:09:25.314Z</time></trkpt><trkpt lat="45.5145633" lon="10.9809067"><ele>448.0</ele><time>2026-04-22T09:09:27.314Z</time></trkpt><trkpt lat="45.5144483" lon="10.9809067"><ele>447.2</ele><time>2026-04-22T09:09:29.314Z</time></trkpt><trkpt lat="45.5143533" lon="10.980885"><ele>446.4</ele><time>2026-04-22T09:09:31.314Z</time></trkpt><trkpt lat="45.5142467" lon="10.9808817"><ele>445.59999999999997</ele><time>2026-04-22T09:09:33.314Z</time></trkpt><trkpt lat="45.5141533" lon="10.980915"><ele>444.79999999999995</ele><time>2026-04-22T09:09:35.314Z</time></trkpt><trkpt lat="45.5141" lon="10.9809633"><ele>444.0</ele><time>2026-04-22T09:09:38.314Z</time></trkpt><trkpt lat="45.5140083" lon="10.980915"><ele>444.0</ele><time>2026-04-22T09:09:41.314Z</time></trkpt><trkpt lat="45.5139367" lon="10.9808783"><ele>444.0</ele><time>2026-04-22T09:09:43.313Z</time></trkpt><trkpt lat="45.51388" lon="10.9807967"><ele>444.0</ele><time>2026-04-22T09:09:45.313Z</time></trkpt><trkpt lat="45.513835" lon="10.98065"><ele>444.0</ele><time>2026-04-22T09:09:47.313Z</time></trkpt><trkpt lat="45.5137917" lon="10.9805817"><ele>444.0</ele><time>2026-04-22T09:09:48.313Z</time></trkpt><trkpt lat="45.5137283" lon="10.9804633"><ele>444.0</ele><time>2026-04-22T09:09:50.313Z</time></trkpt><trkpt lat="45.513695" lon="10.98036"><ele>443.79999999999995</ele><time>2026-04-22T09:09:52.313Z</time></trkpt><trkpt lat="45.5136683" lon="10.9802617"><ele>443.59999999999997</ele><time>2026-04-22T09:09:55.313Z</time></trkpt><trkpt lat="45.5137317" lon="10.9801433"><ele>443.4</ele><time>2026-04-22T09:10:53.313Z</time></trkpt><trkpt lat="45.5137683" lon="10.980035"><ele>443.2</ele><time>2026-04-22T09:16:01.312Z</time></trkpt><trkpt lat="45.51377" lon="10.9798933"><ele>443.0</ele><time>2026-04-22T09:16:04.312Z</time></trkpt><trkpt lat="45.5137233" lon="10.9797633"><ele>444.0</ele><time>2026-04-22T09:16:06.313Z</time></trkpt><trkpt lat="45.5137283" lon="10.9796317"><ele>444.99999999999994</ele><time>2026-04-22T09:16:08.312Z</time></trkpt><trkpt lat="45.5137433" lon="10.9794833"><ele>445.99999999999994</ele><time>2026-04-22T09:16:10.312Z</time></trkpt><trkpt lat="45.513715" lon="10.9793733"><ele>447.0</ele><time>2026-04-22T09:16:11.312Z</time></trkpt><trkpt lat="45.51374" lon="10.97922"><ele>448.0</ele><time>2026-04-22T09:16:13.312Z</time></trkpt><trkpt lat="45.5137883" lon="10.9790867"><ele>450.79999999999995</ele><time>2026-04-22T09:16:15.313Z</time></trkpt><trkpt lat="45.5138317" lon="10.9789317"><ele>453.59999999999997</ele><time>2026-04-22T09:16:17.312Z</time></trkpt><trkpt lat="45.5139" lon="10.978815"><ele>456.40000000000003</ele><time>2026-04-22T09:16:19.312Z</time></trkpt><trkpt lat="45.513975" lon="10.9787017"><ele>459.20000000000005</ele><time>2026-04-22T09:16:21.312Z</time></trkpt><trkpt lat="45.5140433" lon="10.9785817"><ele>462.0</ele><time>2026-04-22T09:16:23.312Z</time></trkpt><trkpt lat="45.5141317" lon="10.97846"><ele>461.40000000000003</ele><time>2026-04-22T09:16:25.312Z</time></trkpt><trkpt lat="45.5142633" lon="10.978345"><ele>460.80000000000007</ele><time>2026-04-22T09:16:27.312Z</time></trkpt><trkpt lat="45.5143267" lon="10.9782617"><ele>460.2</ele><time>2026-04-22T09:16:29.312Z</time></trkpt><trkpt lat="45.5143867" lon="10.9782117"><ele>459.6</ele><time>2026-04-22T09:16:31.312Z</time></trkpt><trkpt lat="45.5144533" lon="10.9781367"><ele>459.0</ele><time>2026-04-22T09:16:34.312Z</time></trkpt><trkpt lat="45.5144" lon="10.9779017"><ele>459.0</ele><time>2026-04-22T09:17:04.313Z</time></trkpt><trkpt lat="45.5143533" lon="10.977835"><ele>459.0</ele><time>2026-04-22T09:17:06.312Z</time></trkpt><trkpt lat="45.5144317" lon="10.9779867"><ele>459.0</ele><time>2026-04-22T09:17:11.312Z</time></trkpt><trkpt lat="45.51445" lon="10.9781483"><ele>459.0</ele><time>2026-04-22T09:17:13.312Z</time></trkpt><trkpt lat="45.514415" lon="10.9782283"><ele>459.0</ele><time>2026-04-22T09:17:14.312Z</time></trkpt><trkpt lat="45.5143267" lon="10.97826"><ele>459.0</ele><time>2026-04-22T09:17:15.313Z</time></trkpt><trkpt lat="45.5142467" lon="10.9783067"><ele>459.0</ele><time>2026-04-22T09:17:16.313Z</time></trkpt><trkpt lat="45.5141817" lon="10.9784367"><ele>459.0</ele><time>2026-04-22T09:17:18.312Z</time></trkpt><trkpt lat="45.514135" lon="10.9785717"><ele>459.0</ele><time>2026-04-22T09:17:20.312Z</time></trkpt><trkpt lat="45.5141583" lon="10.97868"><ele>459.0</ele><time>2026-04-22T09:17:23.312Z</time></trkpt><trkpt lat="45.5142" lon="10.9787483"><ele>459.0</ele><time>2026-04-22T09:17:28.312Z</time></trkpt><trkpt lat="45.5142883" lon="10.9788267"><ele>459.6</ele><time>2026-04-22T09:17:31.312Z</time></trkpt><trkpt lat="45.5143833" lon="10.9788717"><ele>460.2</ele><time>2026-04-22T09:17:33.312Z</time></trkpt><trkpt lat="45.5144733" lon="10.97887"><ele>460.80000000000007</ele><time>2026-04-22T09:17:35.312Z</time></trkpt><trkpt lat="45.5145583" lon="10.97882"><ele>461.40000000000003</ele><time>2026-04-22T09:17:37.313Z</time></trkpt><trkpt lat="45.5146267" lon="10.9787617"><ele>462.0</ele><time>2026-04-22T09:17:38.312Z</time></trkpt><trkpt lat="45.51471" lon="10.978645"><ele>465.0</ele><time>2026-04-22T09:17:40.312Z</time></trkpt><trkpt lat="45.51478" lon="10.9785433"><ele>468.00000000000006</ele><time>2026-04-22T09:17:42.313Z</time></trkpt><trkpt lat="45.5148533" lon="10.9784317"><ele>471.00000000000006</ele><time>2026-04-22T09:17:44.312Z</time></trkpt><trkpt lat="45.5149017" lon="10.97831"><ele>474.0</ele><time>2026-04-22T09:17:46.312Z</time></trkpt><trkpt lat="45.5149683" lon="10.9782317"><ele>477.0</ele><time>2026-04-22T09:17:48.312Z</time></trkpt><trkpt lat="45.5150333" lon="10.9782267"><ele>477.0</ele><time>2026-04-22T09:17:58.312Z</time></trkpt><trkpt lat="45.5150433" lon="10.978345"><ele>477.00000000000006</ele><time>2026-04-22T09:18:01.313Z</time></trkpt><trkpt lat="45.51507" lon="10.978525"><ele>477.00000000000006</ele><time>2026-04-22T09:18:03.312Z</time></trkpt><trkpt lat="45.5151133" lon="10.978705"><ele>477.0</ele><time>2026-04-22T09:18:05.313Z</time></trkpt><trkpt lat="45.5151433" lon="10.9788033"><ele>477.0</ele><time>2026-04-22T09:18:06.312Z</time></trkpt><trkpt lat="45.5151733" lon="10.9789"><ele>477.0</ele><time>2026-04-22T09:18:07.312Z</time></trkpt><trkpt lat="45.5151917" lon="10.9790017"><ele>477.0</ele><time>2026-04-22T09:18:08.312Z</time></trkpt><trkpt lat="45.5152117" lon="10.9791017"><ele>477.0</ele><time>2026-04-22T09:18:09.312Z</time></trkpt><trkpt lat="45.515225" lon="10.9792117"><ele>477.0</ele><time>2026-04-22T09:18:10.313Z</time></trkpt><trkpt lat="45.5152517" lon="10.9793067"><ele>477.0</ele><time>2026-04-22T09:18:11.312Z</time></trkpt><trkpt lat="45.5152617" lon="10.9794733"><ele>477.0</ele><time>2026-04-22T09:18:13.312Z</time></trkpt><trkpt lat="45.5152883" lon="10.9795883"><ele>477.40000000000003</ele><time>2026-04-22T09:18:15.312Z</time></trkpt><trkpt lat="45.515355" lon="10.979675"><ele>477.80000000000007</ele><time>2026-04-22T09:18:17.312Z</time></trkpt><trkpt lat="45.5154517" lon="10.979735"><ele>478.2</ele><time>2026-04-22T09:18:19.313Z</time></trkpt><trkpt lat="45.515515" lon="10.9797633"><ele>478.6</ele><time>2026-04-22T09:18:20.313Z</time></trkpt><trkpt lat="45.515595" lon="10.979815"><ele>479.0</ele><time>2026-04-22T09:18:22.312Z</time></trkpt><trkpt lat="45.5157033" lon="10.9798583"><ele>479.0</ele><time>2026-04-22T09:18:24.312Z</time></trkpt><trkpt lat="45.5158317" lon="10.9798767"><ele>479.0</ele><time>2026-04-22T09:18:26.312Z</time></trkpt><trkpt lat="45.51595" lon="10.979905"><ele>479.0</ele><time>2026-04-22T09:18:28.312Z</time></trkpt><trkpt lat="45.5160133" lon="10.9799317"><ele>479.0</ele><time>2026-04-22T09:18:29.312Z</time></trkpt><trkpt lat="45.5160767" lon="10.9799467"><ele>479.0</ele><time>2026-04-22T09:18:30.312Z</time></trkpt><trkpt lat="45.5161517" lon="10.9799617"><ele>479.0</ele><time>2026-04-22T09:18:31.313Z</time></trkpt><trkpt lat="45.51623" lon="10.9799833"><ele>479.0</ele><time>2026-04-22T09:18:32.312Z</time></trkpt><trkpt lat="45.5163383" lon="10.9799583"><ele>479.0</ele><time>2026-04-22T09:18:34.313Z</time></trkpt><trkpt lat="45.5164033" lon="10.9799767"><ele>479.0</ele><time>2026-04-22T09:18:35.312Z</time></trkpt><trkpt lat="45.5165517" lon="10.9799483"><ele>479.0</ele><time>2026-04-22T09:18:37.312Z</time></trkpt><trkpt lat="45.5166683" lon="10.97999"><ele>478.3333333333333</ele><time>2026-04-22T09:18:39.312Z</time></trkpt><trkpt lat="45.51675" lon="10.98004"><ele>477.66666666666663</ele><time>2026-04-22T09:18:40.312Z</time></trkpt><trkpt lat="45.516835" lon="10.9800767"><ele>477.0</ele><time>2026-04-22T09:18:41.312Z</time></trkpt><trkpt lat="45.5169083" lon="10.9801217"><ele>476.33333333333337</ele><time>2026-04-22T09:18:42.312Z</time></trkpt><trkpt lat="45.5169817" lon="10.9801533"><ele>475.6666666666667</ele><time>2026-04-22T09:18:43.312Z</time></trkpt><trkpt lat="45.51706" lon="10.9801967"><ele>475.0</ele><time>2026-04-22T09:18:44.311Z</time></trkpt><trkpt lat="45.51713" lon="10.98024"><ele>475.00000000000006</ele><time>2026-04-22T09:18:45.311Z</time></trkpt><trkpt lat="45.5171983" lon="10.9802867"><ele>475.0</ele><time>2026-04-22T09:18:46.311Z</time></trkpt><trkpt lat="45.5172717" lon="10.98033"><ele>475.0</ele><time>2026-04-22T09:18:47.311Z</time></trkpt><trkpt lat="45.5173483" lon="10.980385"><ele>475.0</ele><time>2026-04-22T09:18:48.311Z</time></trkpt><trkpt lat="45.51743" lon="10.9804383"><ele>475.00000000000006</ele><time>2026-04-22T09:18:49.311Z</time></trkpt><trkpt lat="45.517515" lon="10.98048"><ele>475.0</ele><time>2026-04-22T09:18:50.311Z</time></trkpt><trkpt lat="45.5176133" lon="10.9805733"><ele>475.00000000000006</ele><time>2026-04-22T09:18:51.312Z</time></trkpt><trkpt lat="45.5176983" lon="10.98064"><ele>475.0</ele><time>2026-04-22T09:18:52.312Z</time></trkpt><trkpt lat="45.5177733" lon="10.9806433"><ele>475.0</ele><time>2026-04-22T09:18:53.311Z</time></trkpt><trkpt lat="45.5178367" lon="10.9806383"><ele>475.0</ele><time>2026-04-22T09:18:54.311Z</time></trkpt><trkpt lat="45.517915" lon="10.9805783"><ele>475.00000000000006</ele><time>2026-04-22T09:18:56.311Z</time></trkpt><trkpt lat="45.5180167" lon="10.9804933"><ele>475.0</ele><time>2026-04-22T09:18:58.311Z</time></trkpt><trkpt lat="45.518115" lon="10.9804267"><ele>473.50000000000006</ele><time>2026-04-22T09:19:00.311Z</time></trkpt><trkpt lat="45.518215" lon="10.9803517"><ele>472.0</ele><time>2026-04-22T09:19:02.311Z</time></trkpt><trkpt lat="45.518275" lon="10.9802767"><ele>470.5</ele><time>2026-04-22T09:19:04.311Z</time></trkpt><trkpt lat="45.5183383" lon="10.98023"><ele>469.0</ele><time>2026-04-22T09:19:06.311Z</time></trkpt><trkpt lat="45.518395" lon="10.9801883"><ele>467.50000000000006</ele><time>2026-04-22T09:19:09.311Z</time></trkpt><trkpt lat="45.5184483" lon="10.9801283"><ele>466.0</ele><time>2026-04-22T09:19:11.311Z</time></trkpt><trkpt lat="45.518505" lon="10.9800667"><ele>466.6</ele><time>2026-04-22T09:19:13.311Z</time></trkpt><trkpt lat="45.51856" lon="10.9800067"><ele>467.20000000000005</ele><time>2026-04-22T09:19:16.311Z</time></trkpt><trkpt lat="45.5186483" lon="10.9799767"><ele>467.79999999999995</ele><time>2026-04-22T09:19:19.311Z</time></trkpt><trkpt lat="45.5187483" lon="10.9799433"><ele>468.4</ele><time>2026-04-22T09:19:21.311Z</time></trkpt><trkpt lat="45.5188333" lon="10.979885"><ele>469.0</ele><time>2026-04-22T09:19:23.311Z</time></trkpt><trkpt lat="45.5189267" lon="10.9798067"><ele>469.0</ele><time>2026-04-22T09:19:25.311Z</time></trkpt><trkpt lat="45.5190083" lon="10.979745"><ele>469.0</ele><time>2026-04-22T09:19:26.311Z</time></trkpt><trkpt lat="45.5191183" lon="10.979695"><ele>469.0</ele><time>2026-04-22T09:19:28.311Z</time></trkpt><trkpt lat="45.51918" lon="10.9796667"><ele>469.0</ele><time>2026-04-22T09:19:29.311Z</time></trkpt><trkpt lat="45.5193183" lon="10.9796017"><ele>469.0</ele><time>2026-04-22T09:19:31.312Z</time></trkpt><trkpt lat="45.5193817" lon="10.9795367"><ele>469.00000000000006</ele><time>2026-04-22T09:19:33.311Z</time></trkpt><trkpt lat="45.519405" lon="10.9794383"><ele>469.0</ele><time>2026-04-22T09:19:35.311Z</time></trkpt><trkpt lat="45.5194033" lon="10.9793133"><ele>469.0</ele><time>2026-04-22T09:19:37.311Z</time></trkpt><trkpt lat="45.51941" lon="10.9792217"><ele>469.0</ele><time>2026-04-22T09:19:39.311Z</time></trkpt><trkpt lat="45.5194267" lon="10.9791083"><ele>469.00000000000006</ele><time>2026-04-22T09:19:41.311Z</time></trkpt><trkpt lat="45.5194733" lon="10.9790067"><ele>469.0</ele><time>2026-04-22T09:19:43.311Z</time></trkpt><trkpt lat="45.5195083" lon="10.97891"><ele>471.2</ele><time>2026-04-22T09:19:45.311Z</time></trkpt><trkpt lat="45.51961" lon="10.9788483"><ele>473.4</ele><time>2026-04-22T09:19:47.311Z</time></trkpt><trkpt lat="45.5197" lon="10.978795"><ele>475.6</ele><time>2026-04-22T09:19:49.311Z</time></trkpt><trkpt lat="45.5197917" lon="10.9787483"><ele>477.8</ele><time>2026-04-22T09:19:51.311Z</time></trkpt><trkpt lat="45.5199183" lon="10.9787183"><ele>480.0</ele><time>2026-04-22T09:19:53.311Z</time></trkpt><trkpt lat="45.5200567" lon="10.97869"><ele>480.0</ele><time>2026-04-22T09:19:54.312Z</time></trkpt><trkpt lat="45.520205" lon="10.9785933"><ele>480.0</ele><time>2026-04-22T09:19:55.311Z</time></trkpt><trkpt lat="45.5203067" lon="10.9785633"><ele>480.0</ele><time>2026-04-22T09:19:56.311Z</time></trkpt><trkpt lat="45.5203917" lon="10.9785667"><ele>480.0</ele><time>2026-04-22T09:19:57.311Z</time></trkpt><trkpt lat="45.520505" lon="10.978525"><ele>481.3333333333333</ele><time>2026-04-22T09:19:59.311Z</time></trkpt><trkpt lat="45.5205767" lon="10.9784517"><ele>482.66666666666663</ele><time>2026-04-22T09:20:00.312Z</time></trkpt><trkpt lat="45.5206233" lon="10.9783867"><ele>484.0</ele><time>2026-04-22T09:20:01.311Z</time></trkpt><trkpt lat="45.5206567" lon="10.97829"><ele>485.3333333333333</ele><time>2026-04-22T09:20:02.311Z</time></trkpt><trkpt lat="45.5206717" lon="10.97817"><ele>486.66666666666663</ele><time>2026-04-22T09:20:03.311Z</time></trkpt><trkpt lat="45.5207183" lon="10.978005"><ele>488.0</ele><time>2026-04-22T09:20:05.311Z</time></trkpt><trkpt lat="45.520695" lon="10.9778983"><ele>487.99999999999994</ele><time>2026-04-22T09:20:06.312Z</time></trkpt><trkpt lat="45.5207033" lon="10.9778"><ele>488.0</ele><time>2026-04-22T09:20:07.311Z</time></trkpt><trkpt lat="45.520685" lon="10.9777117"><ele>487.99999999999994</ele><time>2026-04-22T09:20:08.311Z</time></trkpt><trkpt lat="45.52069" lon="10.9776183"><ele>487.99999999999994</ele><time>2026-04-22T09:20:09.311Z</time></trkpt><trkpt lat="45.520675" lon="10.9775133"><ele>488.0</ele><time>2026-04-22T09:20:10.311Z</time></trkpt><trkpt lat="45.5206783" lon="10.9774117"><ele>487.99999999999994</ele><time>2026-04-22T09:20:11.312Z</time></trkpt><trkpt lat="45.5206867" lon="10.9773117"><ele>487.99999999999994</ele><time>2026-04-22T09:20:12.311Z</time></trkpt><trkpt lat="45.5206583" lon="10.97721"><ele>488.1428571428571</ele><time>2026-04-22T09:20:13.312Z</time></trkpt><trkpt lat="45.52063" lon="10.977105"><ele>488.2857142857143</ele><time>2026-04-22T09:20:14.312Z</time></trkpt><trkpt lat="45.5206033" lon="10.9770133"><ele>488.42857142857144</ele><time>2026-04-22T09:20:15.311Z</time></trkpt><trkpt lat="45.520575" lon="10.97692"><ele>488.57142857142856</ele><time>2026-04-22T09:20:16.311Z</time></trkpt><trkpt lat="45.5205517" lon="10.9768283"><ele>488.7142857142858</ele><time>2026-04-22T09:20:17.311Z</time></trkpt><trkpt lat="45.520485" lon="10.976755"><ele>488.8571428571429</ele><time>2026-04-22T09:20:18.311Z</time></trkpt><trkpt lat="45.520455" lon="10.97666"><ele>489.0</ele><time>2026-04-22T09:20:19.311Z</time></trkpt><trkpt lat="45.5204267" lon="10.976555"><ele>489.5</ele><time>2026-04-22T09:20:20.311Z</time></trkpt><trkpt lat="45.5204017" lon="10.9764467"><ele>490.0</ele><time>2026-04-22T09:20:21.312Z</time></trkpt><trkpt lat="45.5203783" lon="10.9763467"><ele>490.5</ele><time>2026-04-22T09:20:22.311Z</time></trkpt><trkpt lat="45.5203517" lon="10.976245"><ele>491.0</ele><time>2026-04-22T09:20:23.311Z</time></trkpt><trkpt lat="45.5203233" lon="10.97614"><ele>491.5</ele><time>2026-04-22T09:20:24.311Z</time></trkpt><trkpt lat="45.520295" lon="10.97597"><ele>492.0</ele><time>2026-04-22T09:20:26.311Z</time></trkpt><trkpt lat="45.520265" lon="10.9757983"><ele>494.7142857142858</ele><time>2026-04-22T09:20:28.311Z</time></trkpt><trkpt lat="45.5202483" lon="10.9757067"><ele>497.42857142857144</ele><time>2026-04-22T09:20:29.311Z</time></trkpt><trkpt lat="45.520245" lon="10.9756017"><ele>500.14285714285717</ele><time>2026-04-22T09:20:30.311Z</time></trkpt><trkpt lat="45.5202617" lon="10.9754917"><ele>502.8571428571429</ele><time>2026-04-22T09:20:31.311Z</time></trkpt><trkpt lat="45.5202683" lon="10.97539"><ele>505.57142857142856</ele><time>2026-04-22T09:20:32.312Z</time></trkpt><trkpt lat="45.5202733" lon="10.9753"><ele>508.2857142857143</ele><time>2026-04-22T09:20:33.311Z</time></trkpt><trkpt lat="45.5203233" lon="10.9752083"><ele>511.0</ele><time>2026-04-22T09:20:34.311Z</time></trkpt><trkpt lat="45.5203583" lon="10.9751317"><ele>510.6666666666667</ele><time>2026-04-22T09:20:35.311Z</time></trkpt><trkpt lat="45.5203433" lon="10.9749833"><ele>510.33333333333337</ele><time>2026-04-22T09:20:37.311Z</time></trkpt><trkpt lat="45.520375" lon="10.9748617"><ele>510.0</ele><time>2026-04-22T09:20:39.311Z</time></trkpt><trkpt lat="45.52042" lon="10.9747883"><ele>509.66666666666663</ele><time>2026-04-22T09:20:41.311Z</time></trkpt><trkpt lat="45.5204883" lon="10.9747333"><ele>509.3333333333333</ele><time>2026-04-22T09:20:44.312Z</time></trkpt><trkpt lat="45.5205517" lon="10.9747067"><ele>509.0</ele><time>2026-04-22T09:20:47.311Z</time></trkpt><trkpt lat="45.52061" lon="10.97477"><ele>508.99999999999994</ele><time>2026-04-22T09:20:49.311Z</time></trkpt><trkpt lat="45.5206567" lon="10.9748367"><ele>509.0</ele><time>2026-04-22T09:20:51.311Z</time></trkpt><trkpt lat="45.5207367" lon="10.9748483"><ele>509.0</ele><time>2026-04-22T09:20:53.311Z</time></trkpt><trkpt lat="45.520845" lon="10.9748017"><ele>509.0</ele><time>2026-04-22T09:20:59.311Z</time></trkpt><trkpt lat="45.5209317" lon="10.9748433"><ele>508.99999999999994</ele><time>2026-04-22T09:21:02.311Z</time></trkpt><trkpt lat="45.5209967" lon="10.9748683"><ele>509.0</ele><time>2026-04-22T09:21:04.311Z</time></trkpt><trkpt lat="45.521065" lon="10.9748867"><ele>508.99999999999994</ele><time>2026-04-22T09:21:06.311Z</time></trkpt><trkpt lat="45.5211333" lon="10.9748983"><ele>509.0</ele><time>2026-04-22T09:21:08.311Z</time></trkpt><trkpt lat="45.5212017" lon="10.9749017"><ele>509.0</ele><time>2026-04-22T09:21:11.311Z</time></trkpt><trkpt lat="45.5213133" lon="10.9749333"><ele>509.0</ele><time>2026-04-22T09:21:14.311Z</time></trkpt><trkpt lat="45.521405" lon="10.9749367"><ele>508.99999999999994</ele><time>2026-04-22T09:21:16.311Z</time></trkpt><trkpt lat="45.5214667" lon="10.974955"><ele>509.0</ele><time>2026-04-22T09:21:17.312Z</time></trkpt><trkpt lat="45.5215267" lon="10.974985"><ele>509.16666666666663</ele><time>2026-04-22T09:21:18.311Z</time></trkpt><trkpt lat="45.5216267" lon="10.9750383"><ele>509.3333333333333</ele><time>2026-04-22T09:21:20.312Z</time></trkpt><trkpt lat="45.5216917" lon="10.9750717"><ele>509.5</ele><time>2026-04-22T09:21:22.311Z</time></trkpt><trkpt lat="45.5216983" lon="10.9751633"><ele>509.66666666666663</ele><time>2026-04-22T09:21:24.311Z</time></trkpt><trkpt lat="45.5217883" lon="10.9751883"><ele>509.8333333333333</ele><time>2026-04-22T09:21:29.311Z</time></trkpt><trkpt lat="45.5218717" lon="10.9751317"><ele>510.0</ele><time>2026-04-22T09:21:32.312Z</time></trkpt><trkpt lat="45.5218983" lon="10.97501"><ele>512.5</ele><time>2026-04-22T09:21:35.311Z</time></trkpt><trkpt lat="45.5219367" lon="10.9748967"><ele>515.0</ele><time>2026-04-22T09:21:37.312Z</time></trkpt><trkpt lat="45.5219583" lon="10.97481"><ele>517.5</ele><time>2026-04-22T09:21:39.311Z</time></trkpt><trkpt lat="45.521995" lon="10.974725"><ele>520.0</ele><time>2026-04-22T09:21:41.311Z</time></trkpt><trkpt lat="45.52206" lon="10.97465"><ele>522.5</ele><time>2026-04-22T09:21:43.311Z</time></trkpt><trkpt lat="45.5221433" lon="10.97461"><ele>525.0</ele><time>2026-04-22T09:21:45.311Z</time></trkpt><trkpt lat="45.52226" lon="10.974635"><ele>526.5</ele><time>2026-04-22T09:21:47.311Z</time></trkpt><trkpt lat="45.5223367" lon="10.974635"><ele>528.0</ele><time>2026-04-22T09:21:48.312Z</time></trkpt><trkpt lat="45.5224383" lon="10.9746183"><ele>529.5</ele><time>2026-04-22T09:21:50.311Z</time></trkpt><trkpt lat="45.5225033" lon="10.97454"><ele>531.0</ele><time>2026-04-22T09:21:52.311Z</time></trkpt><trkpt lat="45.5225333" lon="10.9744267"><ele>532.5</ele><time>2026-04-22T09:21:54.311Z</time></trkpt><trkpt lat="45.52257" lon="10.9743083"><ele>534.0</ele><time>2026-04-22T09:21:56.311Z</time></trkpt><trkpt lat="45.52263" lon="10.9742383"><ele>534.0</ele><time>2026-04-22T09:21:58.311Z</time></trkpt><trkpt lat="45.5227583" lon="10.9743017"><ele>534.0</ele><time>2026-04-22T09:23:15.31Z</time></trkpt><trkpt lat="45.52282" lon="10.9742783"><ele>534.0</ele><time>2026-04-22T09:23:21.311Z</time></trkpt><trkpt lat="45.52288" lon="10.974245"><ele>534.0</ele><time>2026-04-22T09:23:23.31Z</time></trkpt><trkpt lat="45.5229833" lon="10.9741433"><ele>534.0</ele><time>2026-04-22T09:23:25.31Z</time></trkpt><trkpt lat="45.5230883" lon="10.9740567"><ele>536.4</ele><time>2026-04-22T09:23:27.31Z</time></trkpt><trkpt lat="45.5232133" lon="10.9739717"><ele>538.8</ele><time>2026-04-22T09:23:29.31Z</time></trkpt><trkpt lat="45.52332" lon="10.9738833"><ele>541.2</ele><time>2026-04-22T09:23:31.31Z</time></trkpt><trkpt lat="45.5233867" lon="10.97383"><ele>543.6</ele><time>2026-04-22T09:23:32.31Z</time></trkpt><trkpt lat="45.523455" lon="10.9737717"><ele>546.0</ele><time>2026-04-22T09:23:33.31Z</time></trkpt><trkpt lat="45.5235267" lon="10.9737083"><ele>546.0</ele><time>2026-04-22T09:23:34.31Z</time></trkpt><trkpt lat="45.5235967" lon="10.9736283"><ele>546.0</ele><time>2026-04-22T09:23:35.31Z</time></trkpt><trkpt lat="45.5236683" lon="10.973555"><ele>546.0</ele><time>2026-04-22T09:23:36.31Z</time></trkpt><trkpt lat="45.523735" lon="10.9734933"><ele>546.0</ele><time>2026-04-22T09:23:37.31Z</time></trkpt><trkpt lat="45.5237917" lon="10.9734417"><ele>546.0</ele><time>2026-04-22T09:23:38.31Z</time></trkpt><trkpt lat="45.5238583" lon="10.973405"><ele>546.0</ele><time>2026-04-22T09:23:39.31Z</time></trkpt><trkpt lat="45.52395" lon="10.97339"><ele>546.4285714285714</ele><time>2026-04-22T09:23:41.31Z</time></trkpt><trkpt lat="45.5240217" lon="10.9733833"><ele>546.8571428571429</ele><time>2026-04-22T09:23:42.311Z</time></trkpt><trkpt lat="45.5240883" lon="10.9733683"><ele>547.2857142857142</ele><time>2026-04-22T09:23:43.31Z</time></trkpt><trkpt lat="45.524155" lon="10.9733517"><ele>547.7142857142858</ele><time>2026-04-22T09:23:44.31Z</time></trkpt><trkpt lat="45.5242233" lon="10.9733483"><ele>548.1428571428571</ele><time>2026-04-22T09:23:45.31Z</time></trkpt><trkpt lat="45.5243" lon="10.9733583"><ele>548.5714285714286</ele><time>2026-04-22T09:23:46.31Z</time></trkpt><trkpt lat="45.52437" lon="10.97339"><ele>549.0</ele><time>2026-04-22T09:23:47.31Z</time></trkpt><trkpt lat="45.5244383" lon="10.9734567"><ele>549.0</ele><time>2026-04-22T09:23:48.31Z</time></trkpt><trkpt lat="45.5244767" lon="10.9735283"><ele>549.0</ele><time>2026-04-22T09:23:49.311Z</time></trkpt><trkpt lat="45.5245267" lon="10.9736567"><ele>549.0</ele><time>2026-04-22T09:23:51.311Z</time></trkpt><trkpt lat="45.5245317" lon="10.9737783"><ele>549.0</ele><time>2026-04-22T09:23:53.31Z</time></trkpt><trkpt lat="45.5245667" lon="10.9738633"><ele>549.0</ele><time>2026-04-22T09:23:55.31Z</time></trkpt><trkpt lat="45.52462" lon="10.9739417"><ele>549.0</ele><time>2026-04-22T09:23:57.31Z</time></trkpt><trkpt lat="45.5247233" lon="10.9739917"><ele>548.4</ele><time>2026-04-22T09:23:59.31Z</time></trkpt><trkpt lat="45.5248567" lon="10.97403"><ele>547.8</ele><time>2026-04-22T09:24:01.31Z</time></trkpt><trkpt lat="45.5249467" lon="10.9740633"><ele>547.2</ele><time>2026-04-22T09:24:03.31Z</time></trkpt><trkpt lat="45.5249933" lon="10.9741417"><ele>546.6</ele><time>2026-04-22T09:24:58.311Z</time></trkpt><trkpt lat="45.5250517" lon="10.974225"><ele>546.0</ele><time>2026-04-22T09:25:00.31Z</time></trkpt><trkpt lat="45.5251383" lon="10.9742767"><ele>546.0</ele><time>2026-04-22T09:25:01.31Z</time></trkpt><trkpt lat="45.525215" lon="10.9743217"><ele>546.0</ele><time>2026-04-22T09:25:02.311Z</time></trkpt><trkpt lat="45.5252983" lon="10.9743617"><ele>546.0</ele><time>2026-04-22T09:25:03.311Z</time></trkpt><trkpt lat="45.52539" lon="10.97441"><ele>546.0</ele><time>2026-04-22T09:25:04.31Z</time></trkpt><trkpt lat="45.52548" lon="10.9744567"><ele>546.0</ele><time>2026-04-22T09:25:05.31Z</time></trkpt><trkpt lat="45.5255583" lon="10.974505"><ele>546.8333333333334</ele><time>2026-04-22T09:25:06.311Z</time></trkpt><trkpt lat="45.5256317" lon="10.97457"><ele>547.6666666666666</ele><time>2026-04-22T09:25:07.31Z</time></trkpt><trkpt lat="45.5257" lon="10.97462"><ele>548.5</ele><time>2026-04-22T09:25:08.31Z</time></trkpt><trkpt lat="45.5257617" lon="10.974675"><ele>549.3333333333333</ele><time>2026-04-22T09:25:09.31Z</time></trkpt><trkpt lat="45.5258167" lon="10.9747383"><ele>550.1666666666666</ele><time>2026-04-22T09:25:10.31Z</time></trkpt><trkpt lat="45.5258733" lon="10.9747967"><ele>551.0</ele><time>2026-04-22T09:25:11.31Z</time></trkpt><trkpt lat="45.52594" lon="10.974855"><ele>551.0</ele><time>2026-04-22T09:25:12.31Z</time></trkpt><trkpt lat="45.525995" lon="10.9749167"><ele>551.0</ele><time>2026-04-22T09:25:13.31Z</time></trkpt><trkpt lat="45.526075" lon="10.97504"><ele>551.0</ele><time>2026-04-22T09:25:15.31Z</time></trkpt><trkpt lat="45.5260983" lon="10.9751433"><ele>551.0</ele><time>2026-04-22T09:25:17.31Z</time></trkpt><trkpt lat="45.52613" lon="10.9752367"><ele>551.0</ele><time>2026-04-22T09:25:19.31Z</time></trkpt><trkpt lat="45.5261933" lon="10.9753667"><ele>551.0</ele><time>2026-04-22T09:25:21.31Z</time></trkpt><trkpt lat="45.5262333" lon="10.9754617"><ele>551.2857142857142</ele><time>2026-04-22T09:25:22.31Z</time></trkpt><trkpt lat="45.5262583" lon="10.9755683"><ele>551.5714285714286</ele><time>2026-04-22T09:25:23.31Z</time></trkpt><trkpt lat="45.5262967" lon="10.97568"><ele>551.8571428571429</ele><time>2026-04-22T09:25:24.31Z</time></trkpt><trkpt lat="45.5263317" lon="10.9757833"><ele>552.1428571428571</ele><time>2026-04-22T09:25:25.31Z</time></trkpt><trkpt lat="45.526355" lon="10.9758717"><ele>552.4285714285714</ele><time>2026-04-22T09:25:26.31Z</time></trkpt><trkpt lat="45.5263783" lon="10.9759583"><ele>552.7142857142857</ele><time>2026-04-22T09:25:27.31Z</time></trkpt><trkpt lat="45.5264233" lon="10.9760267"><ele>553.0</ele><time>2026-04-22T09:25:28.31Z</time></trkpt><trkpt lat="45.5264783" lon="10.9760917"><ele>549.4</ele><time>2026-04-22T09:25:29.31Z</time></trkpt><trkpt lat="45.526585" lon="10.9762233"><ele>545.8</ele><time>2026-04-22T09:25:31.311Z</time></trkpt><trkpt lat="45.526655" lon="10.9762733"><ele>542.2</ele><time>2026-04-22T09:25:32.31Z</time></trkpt><trkpt lat="45.5267817" lon="10.9763417"><ele>538.6</ele><time>2026-04-22T09:25:34.31Z</time></trkpt><trkpt lat="45.526855" lon="10.9763683"><ele>535.0</ele><time>2026-04-22T09:25:35.31Z</time></trkpt><trkpt lat="45.52693" lon="10.9763933"><ele>535.0</ele><time>2026-04-22T09:25:36.31Z</time></trkpt><trkpt lat="45.5270083" lon="10.9764283"><ele>535.0</ele><time>2026-04-22T09:25:37.311Z</time></trkpt><trkpt lat="45.5270833" lon="10.976455"><ele>535.0</ele><time>2026-04-22T09:25:38.311Z</time></trkpt><trkpt lat="45.52716" lon="10.9764783"><ele>535.0</ele><time>2026-04-22T09:25:39.31Z</time></trkpt><trkpt lat="45.5272617" lon="10.9765017"><ele>535.0</ele><time>2026-04-22T09:25:40.311Z</time></trkpt><trkpt lat="45.527345" lon="10.9765333"><ele>535.0</ele><time>2026-04-22T09:25:41.31Z</time></trkpt><trkpt lat="45.5274217" lon="10.9765583"><ele>536.2</ele><time>2026-04-22T09:25:42.31Z</time></trkpt><trkpt lat="45.5275117" lon="10.9765717"><ele>537.4</ele><time>2026-04-22T09:25:43.31Z</time></trkpt><trkpt lat="45.527585" lon="10.976585"><ele>538.6</ele><time>2026-04-22T09:25:44.31Z</time></trkpt><trkpt lat="45.527675" lon="10.9766717"><ele>539.8</ele><time>2026-04-22T09:25:46.31Z</time></trkpt><trkpt lat="45.52773" lon="10.9767533"><ele>541.0</ele><time>2026-04-22T09:25:49.31Z</time></trkpt><trkpt lat="45.5277167" lon="10.9769117"><ele>541.1666666666667</ele><time>2026-04-22T09:25:51.31Z</time></trkpt><trkpt lat="45.5276817" lon="10.9769917"><ele>541.3333333333334</ele><time>2026-04-22T09:25:52.31Z</time></trkpt><trkpt lat="45.5276333" lon="10.9770817"><ele>541.5</ele><time>2026-04-22T09:25:53.311Z</time></trkpt><trkpt lat="45.5275583" lon="10.9771717"><ele>541.6666666666666</ele><time>2026-04-22T09:25:54.311Z</time></trkpt><trkpt lat="45.527475" lon="10.97727"><ele>541.8333333333333</ele><time>2026-04-22T09:25:55.31Z</time></trkpt><trkpt lat="45.52741" lon="10.97736"><ele>542.0</ele><time>2026-04-22T09:25:56.31Z</time></trkpt><trkpt lat="45.52735" lon="10.9774583"><ele>540.8000000000001</ele><time>2026-04-22T09:25:57.31Z</time></trkpt><trkpt lat="45.5272967" lon="10.9775717"><ele>539.6</ele><time>2026-04-22T09:25:58.31Z</time></trkpt><trkpt lat="45.52724" lon="10.9776917"><ele>538.4000000000001</ele><time>2026-04-22T09:25:59.31Z</time></trkpt><trkpt lat="45.5271833" lon="10.97781"><ele>537.2</ele><time>2026-04-22T09:26:00.31Z</time></trkpt><trkpt lat="45.527125" lon="10.977915"><ele>536.0</ele><time>2026-04-22T09:26:01.31Z</time></trkpt><trkpt lat="45.5270583" lon="10.97802"><ele>536.0</ele><time>2026-04-22T09:26:02.31Z</time></trkpt><trkpt lat="45.5269883" lon="10.9781333"><ele>536.0</ele><time>2026-04-22T09:26:03.31Z</time></trkpt><trkpt lat="45.52692" lon="10.9782217"><ele>536.0</ele><time>2026-04-22T09:26:04.31Z</time></trkpt><trkpt lat="45.5268583" lon="10.9782683"><ele>536.0</ele><time>2026-04-22T09:26:05.31Z</time></trkpt><trkpt lat="45.5267867" lon="10.978305"><ele>536.0</ele><time>2026-04-22T09:26:06.31Z</time></trkpt><trkpt lat="45.5267" lon="10.9783533"><ele>536.0</ele><time>2026-04-22T09:26:07.31Z</time></trkpt><trkpt lat="45.5266367" lon="10.97843"><ele>537.1666666666666</ele><time>2026-04-22T09:26:08.31Z</time></trkpt><trkpt lat="45.5265833" lon="10.9785017"><ele>538.3333333333333</ele><time>2026-04-22T09:26:09.311Z</time></trkpt><trkpt lat="45.5265333" lon="10.9785817"><ele>539.5</ele><time>2026-04-22T09:26:10.31Z</time></trkpt><trkpt lat="45.526475" lon="10.9786633"><ele>540.6666666666666</ele><time>2026-04-22T09:26:11.311Z</time></trkpt><trkpt lat="45.52642" lon="10.978755"><ele>541.8333333333334</ele><time>2026-04-22T09:26:12.31Z</time></trkpt><trkpt lat="45.5263533" lon="10.9788283"><ele>543.0</ele><time>2026-04-22T09:26:13.31Z</time></trkpt><trkpt lat="45.5262917" lon="10.9789067"><ele>543.0</ele><time>2026-04-22T09:26:14.311Z</time></trkpt><trkpt lat="45.5262417" lon="10.9789833"><ele>543.0</ele><time>2026-04-22T09:26:15.31Z</time></trkpt><trkpt lat="45.5261967" lon="10.9790533"><ele>543.0</ele><time>2026-04-22T09:26:16.311Z</time></trkpt><trkpt lat="45.5261417" lon="10.9791067"><ele>543.0</ele><time>2026-04-22T09:26:17.31Z</time></trkpt><trkpt lat="45.5260717" lon="10.979225"><ele>543.0</ele><time>2026-04-22T09:26:19.311Z</time></trkpt><trkpt lat="45.5260367" lon="10.979335"><ele>543.0</ele><time>2026-04-22T09:26:21.31Z</time></trkpt><trkpt lat="45.5259983" lon="10.9794183"><ele>539.4</ele><time>2026-04-22T09:26:23.31Z</time></trkpt><trkpt lat="45.5259333" lon="10.9795"><ele>535.8</ele><time>2026-04-22T09:26:25.31Z</time></trkpt><trkpt lat="45.5258267" lon="10.9795533"><ele>532.2</ele><time>2026-04-22T09:26:27.31Z</time></trkpt><trkpt lat="45.5257633" lon="10.9795767"><ele>528.6</ele><time>2026-04-22T09:26:28.31Z</time></trkpt><trkpt lat="45.52564" lon="10.979615"><ele>525.0</ele><time>2026-04-22T09:26:30.31Z</time></trkpt><trkpt lat="45.5255183" lon="10.9796533"><ele>525.0</ele><time>2026-04-22T09:26:32.311Z</time></trkpt><trkpt lat="45.5254217" lon="10.9796867"><ele>525.0</ele><time>2026-04-22T09:26:34.31Z</time></trkpt><trkpt lat="45.525435" lon="10.9797817"><ele>525.0</ele><time>2026-04-22T09:26:36.31Z</time></trkpt><trkpt lat="45.525435" lon="10.979905"><ele>525.0</ele><time>2026-04-22T09:26:39.309Z</time></trkpt><trkpt lat="45.5253583" lon="10.9799767"><ele>525.0</ele><time>2026-04-22T09:26:43.309Z</time></trkpt><trkpt lat="45.5252167" lon="10.979965"><ele>526.2</ele><time>2026-04-22T09:26:45.309Z</time></trkpt><trkpt lat="45.52512" lon="10.98001"><ele>527.4</ele><time>2026-04-22T09:26:47.31Z</time></trkpt><trkpt lat="45.52501" lon="10.9800583"><ele>528.6</ele><time>2026-04-22T09:26:49.309Z</time></trkpt><trkpt lat="45.5249067" lon="10.980115"><ele>529.8</ele><time>2026-04-22T09:26:51.309Z</time></trkpt><trkpt lat="45.5248167" lon="10.9801333"><ele>531.0</ele><time>2026-04-22T09:26:53.309Z</time></trkpt><trkpt lat="45.5247067" lon="10.980155"><ele>531.0</ele><time>2026-04-22T09:26:55.309Z</time></trkpt><trkpt lat="45.5246367" lon="10.9801583"><ele>531.0</ele><time>2026-04-22T09:26:56.309Z</time></trkpt><trkpt lat="45.524535" lon="10.980115"><ele>531.0</ele><time>2026-04-22T09:26:57.31Z</time></trkpt><trkpt lat="45.5244533" lon="10.9800683"><ele>531.0</ele><time>2026-04-22T09:26:58.309Z</time></trkpt><trkpt lat="45.524345" lon="10.9800633"><ele>531.0</ele><time>2026-04-22T09:27:00.31Z</time></trkpt><trkpt lat="45.5242433" lon="10.980105"><ele>529.3333333333334</ele><time>2026-04-22T09:27:02.309Z</time></trkpt><trkpt lat="45.52413" lon="10.9801633"><ele>527.6666666666666</ele><time>2026-04-22T09:27:04.309Z</time></trkpt><trkpt lat="45.5240617" lon="10.98019"><ele>526.0</ele><time>2026-04-22T09:27:05.31Z</time></trkpt><trkpt lat="45.5239883" lon="10.9802183"><ele>524.3333333333333</ele><time>2026-04-22T09:27:06.309Z</time></trkpt><trkpt lat="45.5239033" lon="10.9802333"><ele>522.6666666666666</ele><time>2026-04-22T09:27:07.309Z</time></trkpt><trkpt lat="45.523825" lon="10.9802717"><ele>521.0</ele><time>2026-04-22T09:27:08.309Z</time></trkpt><trkpt lat="45.5237367" lon="10.9802833"><ele>521.3333333333333</ele><time>2026-04-22T09:27:09.309Z</time></trkpt><trkpt lat="45.52365" lon="10.9802967"><ele>521.6666666666666</ele><time>2026-04-22T09:27:10.31Z</time></trkpt><trkpt lat="45.523565" lon="10.9803017"><ele>522.0</ele><time>2026-04-22T09:27:11.309Z</time></trkpt><trkpt lat="45.5234817" lon="10.98029"><ele>522.3333333333334</ele><time>2026-04-22T09:27:12.309Z</time></trkpt><trkpt lat="45.5233917" lon="10.9802683"><ele>522.6666666666667</ele><time>2026-04-22T09:27:13.309Z</time></trkpt><trkpt lat="45.5233217" lon="10.9802267"><ele>523.0</ele><time>2026-04-22T09:27:14.309Z</time></trkpt><trkpt lat="45.5232567" lon="10.98016"><ele>523.0</ele><time>2026-04-22T09:27:15.309Z</time></trkpt><trkpt lat="45.523175" lon="10.980105"><ele>523.0</ele><time>2026-04-22T09:27:16.309Z</time></trkpt><trkpt lat="45.5231017" lon="10.980055"><ele>523.0</ele><time>2026-04-22T09:27:17.309Z</time></trkpt><trkpt lat="45.523015" lon="10.9799967"><ele>523.0</ele><time>2026-04-22T09:27:18.309Z</time></trkpt><trkpt lat="45.5229233" lon="10.97996"><ele>523.0</ele><time>2026-04-22T09:27:19.309Z</time></trkpt><trkpt lat="45.5228417" lon="10.9799333"><ele>523.0</ele><time>2026-04-22T09:27:20.31Z</time></trkpt><trkpt lat="45.5227583" lon="10.9799233"><ele>520.5</ele><time>2026-04-22T09:27:21.309Z</time></trkpt><trkpt lat="45.5226733" lon="10.9799017"><ele>518.0</ele><time>2026-04-22T09:27:22.309Z</time></trkpt><trkpt lat="45.522595" lon="10.9798967"><ele>515.5</ele><time>2026-04-22T09:27:23.31Z</time></trkpt><trkpt lat="45.5225183" lon="10.9799167"><ele>513.0</ele><time>2026-04-22T09:27:24.31Z</time></trkpt><trkpt lat="45.522435" lon="10.9799183"><ele>510.50000000000006</ele><time>2026-04-22T09:27:25.309Z</time></trkpt><trkpt lat="45.5223533" lon="10.9799267"><ele>508.0</ele><time>2026-04-22T09:27:26.31Z</time></trkpt><trkpt lat="45.52227" lon="10.9798867"><ele>508.0</ele><time>2026-04-22T09:27:27.309Z</time></trkpt><trkpt lat="45.5221817" lon="10.979975"><ele>507.99999999999994</ele><time>2026-04-22T09:27:29.309Z</time></trkpt><trkpt lat="45.52208" lon="10.9800167"><ele>507.99999999999994</ele><time>2026-04-22T09:27:31.309Z</time></trkpt><trkpt lat="45.5221333" lon="10.9800933"><ele>508.0</ele><time>2026-04-22T09:27:32.309Z</time></trkpt><trkpt lat="45.5222533" lon="10.98017"><ele>508.0</ele><time>2026-04-22T09:27:35.309Z</time></trkpt><trkpt lat="45.52238" lon="10.9801917"><ele>509.83333333333337</ele><time>2026-04-22T09:27:37.309Z</time></trkpt><trkpt lat="45.52245" lon="10.98023"><ele>511.6666666666667</ele><time>2026-04-22T09:27:38.309Z</time></trkpt><trkpt lat="45.5225267" lon="10.98028"><ele>513.5</ele><time>2026-04-22T09:27:39.309Z</time></trkpt><trkpt lat="45.5225867" lon="10.9803267"><ele>515.3333333333334</ele><time>2026-04-22T09:27:40.309Z</time></trkpt><trkpt lat="45.5226567" lon="10.9804283"><ele>517.1666666666666</ele><time>2026-04-22T09:27:41.31Z</time></trkpt><trkpt lat="45.5227317" lon="10.9805133"><ele>519.0</ele><time>2026-04-22T09:27:42.309Z</time></trkpt><trkpt lat="45.5227617" lon="10.9806083"><ele>519.0</ele><time>2026-04-22T09:27:43.309Z</time></trkpt><trkpt lat="45.5228333" lon="10.9806933"><ele>519.0</ele><time>2026-04-22T09:27:44.309Z</time></trkpt><trkpt lat="45.5229117" lon="10.9807783"><ele>519.0</ele><time>2026-04-22T09:27:45.309Z</time></trkpt><trkpt lat="45.522985" lon="10.9808717"><ele>519.0</ele><time>2026-04-22T09:27:46.309Z</time></trkpt><trkpt lat="45.5230967" lon="10.9809217"><ele>519.0</ele><time>2026-04-22T09:27:47.309Z</time></trkpt><trkpt lat="45.5231717" lon="10.9809983"><ele>521.2</ele><time>2026-04-22T09:27:48.31Z</time></trkpt><trkpt lat="45.5232317" lon="10.9810967"><ele>523.4</ele><time>2026-04-22T09:27:49.309Z</time></trkpt><trkpt lat="45.5233133" lon="10.981195"><ele>525.6</ele><time>2026-04-22T09:27:50.309Z</time></trkpt><trkpt lat="45.5233917" lon="10.9812917"><ele>527.8</ele><time>2026-04-22T09:27:51.309Z</time></trkpt><trkpt lat="45.523465" lon="10.9813967"><ele>530.0</ele><time>2026-04-22T09:27:52.309Z</time></trkpt><trkpt lat="45.523545" lon="10.9814867"><ele>530.0</ele><time>2026-04-22T09:27:53.309Z</time></trkpt><trkpt lat="45.5236233" lon="10.9815833"><ele>530.0</ele><time>2026-04-22T09:27:54.309Z</time></trkpt><trkpt lat="45.5237033" lon="10.9817017"><ele>530.0</ele><time>2026-04-22T09:27:55.309Z</time></trkpt><trkpt lat="45.5237717" lon="10.9818133"><ele>530.0</ele><time>2026-04-22T09:27:56.309Z</time></trkpt><trkpt lat="45.5238367" lon="10.9819233"><ele>530.0</ele><time>2026-04-22T09:27:57.309Z</time></trkpt><trkpt lat="45.5238917" lon="10.98204"><ele>532.4</ele><time>2026-04-22T09:27:58.309Z</time></trkpt><trkpt lat="45.52395" lon="10.98216"><ele>534.8</ele><time>2026-04-22T09:27:59.309Z</time></trkpt><trkpt lat="45.5240117" lon="10.9822783"><ele>537.2</ele><time>2026-04-22T09:28:00.309Z</time></trkpt><trkpt lat="45.5240817" lon="10.982395"><ele>539.6</ele><time>2026-04-22T09:28:01.31Z</time></trkpt><trkpt lat="45.5241583" lon="10.9825"><ele>542.0</ele><time>2026-04-22T09:28:02.309Z</time></trkpt><trkpt lat="45.5242317" lon="10.98261"><ele>542.0</ele><time>2026-04-22T09:28:03.309Z</time></trkpt><trkpt lat="45.5243117" lon="10.98271"><ele>542.0</ele><time>2026-04-22T09:28:04.309Z</time></trkpt><trkpt lat="45.5243967" lon="10.9828083"><ele>542.0</ele><time>2026-04-22T09:28:05.309Z</time></trkpt><trkpt lat="45.524495" lon="10.9828883"><ele>542.0</ele><time>2026-04-22T09:28:06.309Z</time></trkpt><trkpt lat="45.5246183" lon="10.9829417"><ele>547.0</ele><time>2026-04-22T09:28:07.31Z</time></trkpt><trkpt lat="45.5247317" lon="10.9830083"><ele>552.0</ele><time>2026-04-22T09:28:08.309Z</time></trkpt><trkpt lat="45.5248267" lon="10.9830733"><ele>557.0</ele><time>2026-04-22T09:28:09.31Z</time></trkpt><trkpt lat="45.5249267" lon="10.9831583"><ele>562.0</ele><time>2026-04-22T09:28:10.309Z</time></trkpt><trkpt lat="45.5250233" lon="10.9832433"><ele>562.0</ele><time>2026-04-22T09:28:11.309Z</time></trkpt><trkpt lat="45.5251" lon="10.98334"><ele>562.0</ele><time>2026-04-22T09:28:12.309Z</time></trkpt><trkpt lat="45.5251817" lon="10.9834583"><ele>562.0</ele><time>2026-04-22T09:28:13.309Z</time></trkpt><trkpt lat="45.5252467" lon="10.9835833"><ele>562.0</ele><time>2026-04-22T09:28:14.31Z</time></trkpt><trkpt lat="45.52533" lon="10.9836683"><ele>562.0</ele><time>2026-04-22T09:28:15.309Z</time></trkpt><trkpt lat="45.5253983" lon="10.9837667"><ele>564.1666666666667</ele><time>2026-04-22T09:28:16.31Z</time></trkpt><trkpt lat="45.5254567" lon="10.98385"><ele>566.3333333333334</ele><time>2026-04-22T09:28:17.309Z</time></trkpt><trkpt lat="45.5255133" lon="10.9839333"><ele>568.5</ele><time>2026-04-22T09:28:18.309Z</time></trkpt><trkpt lat="45.52557" lon="10.983995"><ele>570.6666666666666</ele><time>2026-04-22T09:28:19.309Z</time></trkpt><trkpt lat="45.525675" lon="10.9840633"><ele>572.8333333333333</ele><time>2026-04-22T09:28:22.309Z</time></trkpt><trkpt lat="45.525745" lon="10.98406"><ele>575.0</ele><time>2026-04-22T09:28:23.309Z</time></trkpt><trkpt lat="45.5258317" lon="10.9840533"><ele>575.0</ele><time>2026-04-22T09:28:24.309Z</time></trkpt><trkpt lat="45.525915" lon="10.9840683"><ele>575.0</ele><time>2026-04-22T09:28:25.309Z</time></trkpt><trkpt lat="45.5260233" lon="10.9840467"><ele>575.0</ele><time>2026-04-22T09:28:26.31Z</time></trkpt><trkpt lat="45.5261333" lon="10.9840517"><ele>575.0</ele><time>2026-04-22T09:28:27.309Z</time></trkpt><trkpt lat="45.5262183" lon="10.984045"><ele>575.0</ele><time>2026-04-22T09:28:28.309Z</time></trkpt><trkpt lat="45.52629" lon="10.9840283"><ele>577.8333333333333</ele><time>2026-04-22T09:28:29.309Z</time></trkpt><trkpt lat="45.5263783" lon="10.9840183"><ele>580.6666666666666</ele><time>2026-04-22T09:28:30.309Z</time></trkpt><trkpt lat="45.52645" lon="10.98401"><ele>583.5</ele><time>2026-04-22T09:28:31.31Z</time></trkpt><trkpt lat="45.5265517" lon="10.9839733"><ele>586.3333333333334</ele><time>2026-04-22T09:28:33.31Z</time></trkpt><trkpt lat="45.52665" lon="10.983955"><ele>589.1666666666667</ele><time>2026-04-22T09:28:35.309Z</time></trkpt><trkpt lat="45.5267283" lon="10.9839183"><ele>592.0</ele><time>2026-04-22T09:28:37.31Z</time></trkpt><trkpt lat="45.5268117" lon="10.98382"><ele>592.0</ele><time>2026-04-22T09:28:39.309Z</time></trkpt><trkpt lat="45.5268883" lon="10.983785"><ele>592.0</ele><time>2026-04-22T09:28:41.309Z</time></trkpt><trkpt lat="45.5269867" lon="10.983775"><ele>592.0</ele><time>2026-04-22T09:28:43.309Z</time></trkpt><trkpt lat="45.5270817" lon="10.98382"><ele>592.0</ele><time>2026-04-22T09:28:45.309Z</time></trkpt><trkpt lat="45.527195" lon="10.9838667"><ele>592.0</ele><time>2026-04-22T09:28:47.309Z</time></trkpt><trkpt lat="45.5272683" lon="10.9838917"><ele>594.3333333333334</ele><time>2026-04-22T09:28:48.31Z</time></trkpt><trkpt lat="45.527335" lon="10.9839333"><ele>596.6666666666667</ele><time>2026-04-22T09:28:49.31Z</time></trkpt><trkpt lat="45.527405" lon="10.9839667"><ele>599.0</ele><time>2026-04-22T09:28:50.309Z</time></trkpt><trkpt lat="45.5274767" lon="10.9839883"><ele>601.3333333333334</ele><time>2026-04-22T09:28:51.31Z</time></trkpt><trkpt lat="45.5275483" lon="10.9840167"><ele>603.6666666666666</ele><time>2026-04-22T09:28:52.309Z</time></trkpt><trkpt lat="45.5276367" lon="10.9840383"><ele>606.0</ele><time>2026-04-22T09:28:53.309Z</time></trkpt><trkpt lat="45.5277167" lon="10.9840667"><ele>606.0</ele><time>2026-04-22T09:28:54.31Z</time></trkpt><trkpt lat="45.5277917" lon="10.9841"><ele>606.0</ele><time>2026-04-22T09:28:55.31Z</time></trkpt><trkpt lat="45.5278683" lon="10.9841333"><ele>606.0</ele><time>2026-04-22T09:28:56.309Z</time></trkpt><trkpt lat="45.527935" lon="10.98417"><ele>606.0</ele><time>2026-04-22T09:28:57.309Z</time></trkpt><trkpt lat="45.5279983" lon="10.9842117"><ele>606.0</ele><time>2026-04-22T09:28:58.309Z</time></trkpt><trkpt lat="45.5280667" lon="10.9842467"><ele>606.0</ele><time>2026-04-22T09:28:59.31Z</time></trkpt><trkpt lat="45.5281683" lon="10.9843533"><ele>607.5</ele><time>2026-04-22T09:29:01.309Z</time></trkpt><trkpt lat="45.5282217" lon="10.98441"><ele>609.0</ele><time>2026-04-22T09:29:02.309Z</time></trkpt><trkpt lat="45.5282833" lon="10.9844983"><ele>610.5</ele><time>2026-04-22T09:29:03.309Z</time></trkpt><trkpt lat="45.528335" lon="10.9845533"><ele>612.0</ele><time>2026-04-22T09:29:04.309Z</time></trkpt><trkpt lat="45.5284" lon="10.98461"><ele>613.5</ele><time>2026-04-22T09:29:05.309Z</time></trkpt><trkpt lat="45.52847" lon="10.9846667"><ele>615.0</ele><time>2026-04-22T09:29:06.31Z</time></trkpt><trkpt lat="45.5285383" lon="10.9847283"><ele>615.0</ele><time>2026-04-22T09:29:07.31Z</time></trkpt><trkpt lat="45.5286483" lon="10.9848317"><ele>615.0</ele><time>2026-04-22T09:29:08.309Z</time></trkpt><trkpt lat="45.5287133" lon="10.984885"><ele>615.0</ele><time>2026-04-22T09:29:09.309Z</time></trkpt><trkpt lat="45.5287983" lon="10.9849983"><ele>615.0</ele><time>2026-04-22T09:29:10.309Z</time></trkpt><trkpt lat="45.528865" lon="10.98509"><ele>615.0</ele><time>2026-04-22T09:29:11.309Z</time></trkpt><trkpt lat="45.5289333" lon="10.985165"><ele>615.4</ele><time>2026-04-22T09:29:12.31Z</time></trkpt><trkpt lat="45.5290033" lon="10.98522"><ele>615.8</ele><time>2026-04-22T09:29:13.309Z</time></trkpt><trkpt lat="45.52908" lon="10.98524"><ele>616.2</ele><time>2026-04-22T09:29:14.31Z</time></trkpt><trkpt lat="45.52921" lon="10.9852017"><ele>616.6</ele><time>2026-04-22T09:29:15.309Z</time></trkpt><trkpt lat="45.52932" lon="10.9851533"><ele>617.0</ele><time>2026-04-22T09:29:16.309Z</time></trkpt><trkpt lat="45.5294033" lon="10.9851217"><ele>617.0</ele><time>2026-04-22T09:29:17.309Z</time></trkpt><trkpt lat="45.5295083" lon="10.9850367"><ele>617.0</ele><time>2026-04-22T09:29:18.309Z</time></trkpt><trkpt lat="45.5295817" lon="10.9849967"><ele>617.0</ele><time>2026-04-22T09:29:19.31Z</time></trkpt><trkpt lat="45.5296683" lon="10.984965"><ele>617.0</ele><time>2026-04-22T09:29:21.309Z</time></trkpt><trkpt lat="45.52975" lon="10.9850017"><ele>617.0</ele><time>2026-04-22T09:29:24.309Z</time></trkpt><trkpt lat="45.5298383" lon="10.985065"><ele>616.6666666666666</ele><time>2026-04-22T09:29:26.309Z</time></trkpt><trkpt lat="45.52991" lon="10.985105"><ele>616.3333333333333</ele><time>2026-04-22T09:29:28.309Z</time></trkpt><trkpt lat="45.5299983" lon="10.9850933"><ele>616.0</ele><time>2026-04-22T09:29:30.309Z</time></trkpt><trkpt lat="45.530065" lon="10.9850633"><ele>615.6666666666666</ele><time>2026-04-22T09:29:31.309Z</time></trkpt><trkpt lat="45.5301833" lon="10.9849983"><ele>615.3333333333334</ele><time>2026-04-22T09:29:33.309Z</time></trkpt><trkpt lat="45.5302483" lon="10.9849533"><ele>615.0</ele><time>2026-04-22T09:29:34.309Z</time></trkpt><trkpt lat="45.53035" lon="10.9848983"><ele>617.5</ele><time>2026-04-22T09:29:35.309Z</time></trkpt><trkpt lat="45.530425" lon="10.9848633"><ele>620.0</ele><time>2026-04-22T09:29:36.309Z</time></trkpt><trkpt lat="45.530515" lon="10.984815"><ele>622.5</ele><time>2026-04-22T09:29:37.309Z</time></trkpt><trkpt lat="45.5306067" lon="10.98477"><ele>625.0</ele><time>2026-04-22T09:29:38.309Z</time></trkpt><trkpt lat="45.5306883" lon="10.9847317"><ele>627.5</ele><time>2026-04-22T09:29:39.309Z</time></trkpt><trkpt lat="45.53077" lon="10.9846983"><ele>630.0</ele><time>2026-04-22T09:29:40.31Z</time></trkpt><trkpt lat="45.53087" lon="10.9846483"><ele>630.0</ele><time>2026-04-22T09:29:41.309Z</time></trkpt><trkpt lat="45.5309483" lon="10.98461"><ele>630.0</ele><time>2026-04-22T09:29:42.309Z</time></trkpt><trkpt lat="45.53102" lon="10.9845767"><ele>630.0</ele><time>2026-04-22T09:29:43.309Z</time></trkpt><trkpt lat="45.531095" lon="10.9845483"><ele>630.0</ele><time>2026-04-22T09:29:44.31Z</time></trkpt><trkpt lat="45.5312417" lon="10.9844617"><ele>630.0</ele><time>2026-04-22T09:29:46.309Z</time></trkpt><trkpt lat="45.5313117" lon="10.9844167"><ele>629.5</ele><time>2026-04-22T09:29:47.309Z</time></trkpt><trkpt lat="45.5313883" lon="10.984345"><ele>629.0</ele><time>2026-04-22T09:29:48.309Z</time></trkpt><trkpt lat="45.5314567" lon="10.9843017"><ele>628.5</ele><time>2026-04-22T09:29:49.309Z</time></trkpt><trkpt lat="45.5315617" lon="10.9842717"><ele>628.0</ele><time>2026-04-22T09:29:51.31Z</time></trkpt><trkpt lat="45.53163" lon="10.984175"><ele>627.5</ele><time>2026-04-22T09:29:53.309Z</time></trkpt><trkpt lat="45.53162" lon="10.9840717"><ele>627.0</ele><time>2026-04-22T09:29:54.31Z</time></trkpt><trkpt lat="45.5315983" lon="10.98398"><ele>629.6</ele><time>2026-04-22T09:29:55.309Z</time></trkpt><trkpt lat="45.53162" lon="10.9838517"><ele>632.2</ele><time>2026-04-22T09:29:57.309Z</time></trkpt><trkpt lat="45.531615" lon="10.9836883"><ele>634.8</ele><time>2026-04-22T09:29:59.31Z</time></trkpt><trkpt lat="45.531575" lon="10.9835933"><ele>637.4</ele><time>2026-04-22T09:30:00.309Z</time></trkpt><trkpt lat="45.5316367" lon="10.98342"><ele>640.0</ele><time>2026-04-22T09:30:02.309Z</time></trkpt><trkpt lat="45.53167" lon="10.983325"><ele>640.5</ele><time>2026-04-22T09:30:03.309Z</time></trkpt><trkpt lat="45.531735" lon="10.9832583"><ele>641.0</ele><time>2026-04-22T09:30:04.309Z</time></trkpt><trkpt lat="45.53181" lon="10.98321"><ele>641.5</ele><time>2026-04-22T09:30:05.309Z</time></trkpt><trkpt lat="45.531875" lon="10.98316"><ele>642.0</ele><time>2026-04-22T09:30:06.309Z</time></trkpt><trkpt lat="45.5319417" lon="10.9831283"><ele>642.5</ele><time>2026-04-22T09:30:07.31Z</time></trkpt><trkpt lat="45.5320633" lon="10.9831017"><ele>643.0</ele><time>2026-04-22T09:30:09.309Z</time></trkpt><trkpt lat="45.5321317" lon="10.9830817"><ele>644.2</ele><time>2026-04-22T09:30:10.309Z</time></trkpt><trkpt lat="45.5322983" lon="10.9830433"><ele>645.4</ele><time>2026-04-22T09:30:12.31Z</time></trkpt><trkpt lat="45.532395" lon="10.9830167"><ele>646.6</ele><time>2026-04-22T09:30:13.309Z</time></trkpt><trkpt lat="45.5324617" lon="10.9829867"><ele>647.8000000000001</ele><time>2026-04-22T09:30:14.309Z</time></trkpt><trkpt lat="45.5325283" lon="10.9829533"><ele>649.0</ele><time>2026-04-22T09:30:15.309Z</time></trkpt><trkpt lat="45.5326017" lon="10.9829267"><ele>649.0</ele><time>2026-04-22T09:30:16.309Z</time></trkpt><trkpt lat="45.53267" lon="10.9828833"><ele>649.0</ele><time>2026-04-22T09:30:17.308Z</time></trkpt><trkpt lat="45.5327233" lon="10.98283"><ele>649.0</ele><time>2026-04-22T09:30:18.308Z</time></trkpt><trkpt lat="45.532815" lon="10.9827133"><ele>649.0</ele><time>2026-04-22T09:30:20.309Z</time></trkpt><trkpt lat="45.5328683" lon="10.982645"><ele>649.0</ele><time>2026-04-22T09:30:21.308Z</time></trkpt><trkpt lat="45.532925" lon="10.9825883"><ele>649.0</ele><time>2026-04-22T09:30:22.308Z</time></trkpt><trkpt lat="45.5329733" lon="10.982505"><ele>650.3333333333334</ele><time>2026-04-22T09:30:23.308Z</time></trkpt><trkpt lat="45.5330017" lon="10.98242"><ele>651.6666666666667</ele><time>2026-04-22T09:30:24.309Z</time></trkpt><trkpt lat="45.533035" lon="10.9823417"><ele>653.0</ele><time>2026-04-22T09:30:25.308Z</time></trkpt><trkpt lat="45.5330683" lon="10.9822483"><ele>654.3333333333334</ele><time>2026-04-22T09:30:26.308Z</time></trkpt><trkpt lat="45.5330883" lon="10.9821533"><ele>655.6666666666666</ele><time>2026-04-22T09:30:27.308Z</time></trkpt><trkpt lat="45.533135" lon="10.9819917"><ele>657.0</ele><time>2026-04-22T09:30:29.308Z</time></trkpt><trkpt lat="45.5331783" lon="10.9818667"><ele>657.0</ele><time>2026-04-22T09:30:31.309Z</time></trkpt><trkpt lat="45.5332283" lon="10.9817867"><ele>657.0</ele><time>2026-04-22T09:30:33.309Z</time></trkpt><trkpt lat="45.533285" lon="10.9817233"><ele>657.0</ele><time>2026-04-22T09:30:35.308Z</time></trkpt><trkpt lat="45.5333867" lon="10.9816667"><ele>657.0</ele><time>2026-04-22T09:30:37.309Z</time></trkpt><trkpt lat="45.53348" lon="10.9816067"><ele>657.0</ele><time>2026-04-22T09:30:39.308Z</time></trkpt><trkpt lat="45.5335583" lon="10.9815433"><ele>657.0</ele><time>2026-04-22T09:30:41.309Z</time></trkpt><trkpt lat="45.533615" lon="10.98148"><ele>658.6666666666666</ele><time>2026-04-22T09:30:43.308Z</time></trkpt><trkpt lat="45.5336933" lon="10.9814117"><ele>660.3333333333334</ele><time>2026-04-22T09:30:46.308Z</time></trkpt><trkpt lat="45.5337383" lon="10.98133"><ele>662.0</ele><time>2026-04-22T09:30:48.308Z</time></trkpt><trkpt lat="45.5337983" lon="10.9812283"><ele>663.6666666666667</ele><time>2026-04-22T09:30:51.308Z</time></trkpt><trkpt lat="45.533855" lon="10.9811867"><ele>665.3333333333334</ele><time>2026-04-22T09:30:54.308Z</time></trkpt><trkpt lat="45.5338083" lon="10.9812483"><ele>667.0</ele><time>2026-04-22T09:32:50.309Z</time></trkpt><trkpt lat="45.533855" lon="10.9813417"><ele>668.8333333333334</ele><time>2026-04-22T09:32:52.308Z</time></trkpt><trkpt lat="45.5339133" lon="10.981385"><ele>670.6666666666667</ele><time>2026-04-22T09:32:54.309Z</time></trkpt><trkpt lat="45.5339867" lon="10.9814017"><ele>672.5</ele><time>2026-04-22T09:32:57.308Z</time></trkpt><trkpt lat="45.5340883" lon="10.981415"><ele>674.3333333333334</ele><time>2026-04-22T09:32:59.308Z</time></trkpt><trkpt lat="45.5341933" lon="10.9814183"><ele>676.1666666666666</ele><time>2026-04-22T09:33:01.308Z</time></trkpt><trkpt lat="45.534265" lon="10.98143"><ele>678.0</ele><time>2026-04-22T09:33:03.308Z</time></trkpt><trkpt lat="45.5343333" lon="10.981435"><ele>678.0</ele><time>2026-04-22T09:33:04.308Z</time></trkpt><trkpt lat="45.53441" lon="10.981455"><ele>678.0</ele><time>2026-04-22T09:33:06.309Z</time></trkpt><trkpt lat="45.5344717" lon="10.981475"><ele>678.0</ele><time>2026-04-22T09:33:08.308Z</time></trkpt><trkpt lat="45.53454" lon="10.9814633"><ele>678.0</ele><time>2026-04-22T09:33:10.308Z</time></trkpt><trkpt lat="45.5346017" lon="10.9814033"><ele>678.0</ele><time>2026-04-22T09:33:12.308Z</time></trkpt><trkpt lat="45.5346667" lon="10.9813567"><ele>678.0</ele><time>2026-04-22T09:33:14.308Z</time></trkpt><trkpt lat="45.5347717" lon="10.9813333"><ele>678.2</ele><time>2026-04-22T09:33:16.308Z</time></trkpt><trkpt lat="45.534885" lon="10.9813367"><ele>678.4</ele><time>2026-04-22T09:33:18.308Z</time></trkpt><trkpt lat="45.5349883" lon="10.981355"><ele>678.6</ele><time>2026-04-22T09:33:20.308Z</time></trkpt><trkpt lat="45.5350867" lon="10.9813733"><ele>678.8000000000001</ele><time>2026-04-22T09:33:22.308Z</time></trkpt><trkpt lat="45.5351717" lon="10.9814783"><ele>679.0</ele><time>2026-04-22T09:33:23.308Z</time></trkpt><trkpt lat="45.5352483" lon="10.9814633"><ele>679.0</ele><time>2026-04-22T09:33:25.308Z</time></trkpt><trkpt lat="45.53534" lon="10.9814317"><ele>679.0</ele><time>2026-04-22T09:33:27.308Z</time></trkpt><trkpt lat="45.5354217" lon="10.9813717"><ele>679.0</ele><time>2026-04-22T09:33:29.308Z</time></trkpt><trkpt lat="45.53553" lon="10.9813033"><ele>679.0</ele><time>2026-04-22T09:33:31.309Z</time></trkpt><trkpt lat="45.535605" lon="10.9812517"><ele>679.0</ele><time>2026-04-22T09:33:32.309Z</time></trkpt><trkpt lat="45.53567" lon="10.981205"><ele>677.6</ele><time>2026-04-22T09:33:33.308Z</time></trkpt><trkpt lat="45.535735" lon="10.9811533"><ele>676.2</ele><time>2026-04-22T09:33:34.308Z</time></trkpt><trkpt lat="45.5357783" lon="10.981065"><ele>674.8000000000001</ele><time>2026-04-22T09:33:35.308Z</time></trkpt><trkpt lat="45.5358433" lon="10.9809267"><ele>673.4000000000001</ele><time>2026-04-22T09:33:37.309Z</time></trkpt><trkpt lat="45.53589" lon="10.9808067"><ele>672.0</ele><time>2026-04-22T09:33:39.309Z</time></trkpt><trkpt lat="45.5359467" lon="10.9806933"><ele>672.0</ele><time>2026-04-22T09:33:41.308Z</time></trkpt><trkpt lat="45.536005" lon="10.98061"><ele>672.0</ele><time>2026-04-22T09:33:43.308Z</time></trkpt><trkpt lat="45.53603" lon="10.98051"><ele>672.0</ele><time>2026-04-22T09:33:45.307Z</time></trkpt><trkpt lat="45.536045" lon="10.9803883"><ele>672.0</ele><time>2026-04-22T09:33:47.307Z</time></trkpt><trkpt lat="45.5360683" lon="10.9802583"><ele>672.0</ele><time>2026-04-22T09:33:49.307Z</time></trkpt><trkpt lat="45.53607" lon="10.9801467"><ele>672.0</ele><time>2026-04-22T09:33:51.307Z</time></trkpt><trkpt lat="45.5360617" lon="10.9800433"><ele>673.2</ele><time>2026-04-22T09:33:53.307Z</time></trkpt><trkpt lat="45.53609" lon="10.97993"><ele>674.4000000000001</ele><time>2026-04-22T09:33:55.307Z</time></trkpt><trkpt lat="45.5361283" lon="10.9797983"><ele>675.5999999999999</ele><time>2026-04-22T09:33:57.307Z</time></trkpt><trkpt lat="45.5361867" lon="10.9796633"><ele>676.8</ele><time>2026-04-22T09:33:59.307Z</time></trkpt><trkpt lat="45.536275" lon="10.9795833"><ele>678.0</ele><time>2026-04-22T09:34:01.307Z</time></trkpt><trkpt lat="45.5363283" lon="10.9795067"><ele>676.2</ele><time>2026-04-22T09:34:03.307Z</time></trkpt><trkpt lat="45.5363883" lon="10.9794267"><ele>674.4</ele><time>2026-04-22T09:34:05.307Z</time></trkpt><trkpt lat="45.5364483" lon="10.979335"><ele>672.6</ele><time>2026-04-22T09:34:07.307Z</time></trkpt><trkpt lat="45.5364933" lon="10.9792667"><ele>670.8000000000001</ele><time>2026-04-22T09:34:08.307Z</time></trkpt><trkpt lat="45.53654" lon="10.9791983"><ele>669.0</ele><time>2026-04-22T09:34:09.308Z</time></trkpt><trkpt lat="45.5366933" lon="10.97914"><ele>669.0</ele><time>2026-04-22T09:34:10.307Z</time></trkpt><trkpt lat="45.5367567" lon="10.9791033"><ele>669.0</ele><time>2026-04-22T09:34:11.308Z</time></trkpt><trkpt lat="45.5368517" lon="10.979125"><ele>669.0</ele><time>2026-04-22T09:34:16.308Z</time></trkpt><trkpt lat="45.536945" lon="10.9791667"><ele>669.0</ele><time>2026-04-22T09:34:19.307Z</time></trkpt><trkpt lat="45.5370467" lon="10.9791433"><ele>669.0</ele><time>2026-04-22T09:34:21.307Z</time></trkpt><trkpt lat="45.537115" lon="10.9791167"><ele>669.0</ele><time>2026-04-22T09:34:22.307Z</time></trkpt><trkpt lat="45.5371917" lon="10.97906"><ele>666.6</ele><time>2026-04-22T09:34:23.307Z</time></trkpt><trkpt lat="45.53729" lon="10.9789967"><ele>664.2</ele><time>2026-04-22T09:34:24.307Z</time></trkpt><trkpt lat="45.537355" lon="10.978965"><ele>661.8000000000001</ele><time>2026-04-22T09:34:25.307Z</time></trkpt><trkpt lat="45.53745" lon="10.9789283"><ele>659.4000000000001</ele><time>2026-04-22T09:34:26.307Z</time></trkpt><trkpt lat="45.5375383" lon="10.9788883"><ele>657.0</ele><time>2026-04-22T09:34:27.307Z</time></trkpt><trkpt lat="45.537625" lon="10.9788383"><ele>657.0</ele><time>2026-04-22T09:34:28.307Z</time></trkpt><trkpt lat="45.5376783" lon="10.9787817"><ele>657.0</ele><time>2026-04-22T09:34:29.307Z</time></trkpt><trkpt lat="45.5377283" lon="10.9787233"><ele>657.0</ele><time>2026-04-22T09:34:30.307Z</time></trkpt><trkpt lat="45.537775" lon="10.978655"><ele>657.0</ele><time>2026-04-22T09:34:31.307Z</time></trkpt><trkpt lat="45.53785" lon="10.9785567"><ele>657.0</ele><time>2026-04-22T09:34:33.307Z</time></trkpt><trkpt lat="45.5379267" lon="10.9784767"><ele>657.0</ele><time>2026-04-22T09:34:35.307Z</time></trkpt><trkpt lat="45.537995" lon="10.97839"><ele>657.6</ele><time>2026-04-22T09:34:37.307Z</time></trkpt><trkpt lat="45.5380417" lon="10.97831"><ele>658.2</ele><time>2026-04-22T09:34:39.307Z</time></trkpt><trkpt lat="45.5380767" lon="10.97821"><ele>658.8</ele><time>2026-04-22T09:34:43.307Z</time></trkpt><trkpt lat="45.5381367" lon="10.978075"><ele>659.4</ele><time>2026-04-22T09:34:45.307Z</time></trkpt><trkpt lat="45.5382" lon="10.9779367"><ele>660.0</ele><time>2026-04-22T09:34:47.307Z</time></trkpt><trkpt lat="45.5382517" lon="10.9778533"><ele>660.0</ele><time>2026-04-22T09:34:48.308Z</time></trkpt><trkpt lat="45.5382767" lon="10.9777033"><ele>660.0</ele><time>2026-04-22T09:34:50.307Z</time></trkpt><trkpt lat="45.5382667" lon="10.9775433"><ele>660.0</ele><time>2026-04-22T09:34:52.307Z</time></trkpt><trkpt lat="45.538265" lon="10.9774467"><ele>660.0</ele><time>2026-04-22T09:34:53.307Z</time></trkpt><trkpt lat="45.53828" lon="10.977285"><ele>660.0</ele><time>2026-04-22T09:34:55.307Z</time></trkpt><trkpt lat="45.538325" lon="10.9771483"><ele>661.4</ele><time>2026-04-22T09:34:57.308Z</time></trkpt><trkpt lat="45.53838" lon="10.9769967"><ele>662.8</ele><time>2026-04-22T09:34:59.307Z</time></trkpt><trkpt lat="45.538405" lon="10.97691"><ele>664.2</ele><time>2026-04-22T09:35:00.307Z</time></trkpt><trkpt lat="45.5384167" lon="10.9767567"><ele>665.6</ele><time>2026-04-22T09:35:02.307Z</time></trkpt><trkpt lat="45.5384467" lon="10.9766717"><ele>667.0</ele><time>2026-04-22T09:35:04.307Z</time></trkpt><trkpt lat="45.5384983" lon="10.9765633"><ele>667.0</ele><time>2026-04-22T09:35:10.308Z</time></trkpt><trkpt lat="45.5385883" lon="10.9764767"><ele>667.0</ele><time>2026-04-22T09:35:13.307Z</time></trkpt><trkpt lat="45.5386933" lon="10.97639"><ele>667.0</ele><time>2026-04-22T09:35:15.307Z</time></trkpt><trkpt lat="45.5387633" lon="10.9763133"><ele>667.0</ele><time>2026-04-22T09:35:16.307Z</time></trkpt><trkpt lat="45.5388433" lon="10.9762217"><ele>667.0</ele><time>2026-04-22T09:35:17.307Z</time></trkpt><trkpt lat="45.5388917" lon="10.9761433"><ele>659.8333333333334</ele><time>2026-04-22T09:35:18.307Z</time></trkpt><trkpt lat="45.5389383" lon="10.9760417"><ele>652.6666666666667</ele><time>2026-04-22T09:35:19.308Z</time></trkpt><trkpt lat="45.5389617" lon="10.9759417"><ele>645.5</ele><time>2026-04-22T09:35:20.307Z</time></trkpt><trkpt lat="45.5389867" lon="10.9758583"><ele>638.3333333333334</ele><time>2026-04-22T09:35:21.307Z</time></trkpt><trkpt lat="45.5390033" lon="10.9756983"><ele>631.1666666666666</ele><time>2026-04-22T09:35:23.307Z</time></trkpt><trkpt lat="45.5390033" lon="10.9755933"><ele>624.0</ele><time>2026-04-22T09:35:25.307Z</time></trkpt><trkpt lat="45.5390117" lon="10.9754533"><ele>624.0</ele><time>2026-04-22T09:35:32.308Z</time></trkpt><trkpt lat="45.5390217" lon="10.9753583"><ele>624.0</ele><time>2026-04-22T09:35:34.307Z</time></trkpt><trkpt lat="45.53902" lon="10.975255"><ele>624.0</ele><time>2026-04-22T09:35:38.307Z</time></trkpt><trkpt lat="45.53907" lon="10.9751733"><ele>624.0</ele><time>2026-04-22T09:35:42.307Z</time></trkpt><trkpt lat="45.5391117" lon="10.9751033"><ele>624.0</ele><time>2026-04-22T09:35:44.308Z</time></trkpt><trkpt lat="45.5391717" lon="10.975055"><ele>624.0</ele><time>2026-04-22T09:35:48.308Z</time></trkpt><trkpt lat="45.5392283" lon="10.9749883"><ele>624.0</ele><time>2026-04-22T09:35:51.307Z</time></trkpt><trkpt lat="45.53927" lon="10.9748817"><ele>623.5</ele><time>2026-04-22T09:35:54.307Z</time></trkpt><trkpt lat="45.539315" lon="10.9748067"><ele>623.0</ele><time>2026-04-22T09:35:57.308Z</time></trkpt><trkpt lat="45.53927" lon="10.97488"><ele>622.5</ele><time>2026-04-22T09:38:38.307Z</time></trkpt><trkpt lat="45.5393367" lon="10.974895"><ele>622.0</ele><time>2026-04-22T09:38:42.306Z</time></trkpt><trkpt lat="45.5394067" lon="10.9749417"><ele>621.5</ele><time>2026-04-22T09:38:44.306Z</time></trkpt><trkpt lat="45.5394983" lon="10.9750017"><ele>621.0</ele><time>2026-04-22T09:38:46.307Z</time></trkpt><trkpt lat="45.53961" lon="10.9750567"><ele>617.5</ele><time>2026-04-22T09:38:48.306Z</time></trkpt><trkpt lat="45.5397217" lon="10.975095"><ele>614.0</ele><time>2026-04-22T09:38:50.306Z</time></trkpt><trkpt lat="45.5397933" lon="10.9751383"><ele>610.5</ele><time>2026-04-22T09:38:52.307Z</time></trkpt><trkpt lat="45.5398633" lon="10.9751683"><ele>607.0</ele><time>2026-04-22T09:38:54.306Z</time></trkpt><trkpt lat="45.539925" lon="10.975245"><ele>603.5</ele><time>2026-04-22T09:38:56.306Z</time></trkpt><trkpt lat="45.5399733" lon="10.9753217"><ele>600.0</ele><time>2026-04-22T09:38:59.306Z</time></trkpt><trkpt lat="45.5400417" lon="10.97539"><ele>600.0</ele><time>2026-04-22T09:39:02.306Z</time></trkpt><trkpt lat="45.5401067" lon="10.9754033"><ele>600.0</ele><time>2026-04-22T09:39:04.307Z</time></trkpt><trkpt lat="45.5401833" lon="10.9754233"><ele>600.0</ele><time>2026-04-22T09:39:06.306Z</time></trkpt><trkpt lat="45.5402467" lon="10.9754583"><ele>600.0</ele><time>2026-04-22T09:39:08.306Z</time></trkpt><trkpt lat="45.5403467" lon="10.97551"><ele>600.0</ele><time>2026-04-22T09:39:10.306Z</time></trkpt><trkpt lat="45.5404283" lon="10.9755767"><ele>600.0</ele><time>2026-04-22T09:39:13.307Z</time></trkpt><trkpt lat="45.540505" lon="10.9756467"><ele>598.8333333333334</ele><time>2026-04-22T09:39:16.306Z</time></trkpt><trkpt lat="45.54059" lon="10.9757283"><ele>597.6666666666666</ele><time>2026-04-22T09:39:18.306Z</time></trkpt><trkpt lat="45.540665" lon="10.9757967"><ele>596.5</ele><time>2026-04-22T09:39:20.307Z</time></trkpt><trkpt lat="45.5407217" lon="10.97589"><ele>595.3333333333333</ele><time>2026-04-22T09:39:22.306Z</time></trkpt><trkpt lat="45.540775" lon="10.975965"><ele>594.1666666666666</ele><time>2026-04-22T09:39:24.306Z</time></trkpt><trkpt lat="45.5408283" lon="10.97602"><ele>593.0</ele><time>2026-04-22T09:39:26.306Z</time></trkpt><trkpt lat="45.5408583" lon="10.9761117"><ele>586.1666666666666</ele><time>2026-04-22T09:39:28.306Z</time></trkpt><trkpt lat="45.5409217" lon="10.976175"><ele>579.3333333333333</ele><time>2026-04-22T09:39:31.306Z</time></trkpt><trkpt lat="45.54099" lon="10.976205"><ele>572.5</ele><time>2026-04-22T09:39:34.306Z</time></trkpt><trkpt lat="45.5410367" lon="10.9762733"><ele>565.6666666666666</ele><time>2026-04-22T09:39:36.307Z</time></trkpt><trkpt lat="45.541125" lon="10.9763117"><ele>558.8333333333334</ele><time>2026-04-22T09:39:38.306Z</time></trkpt><trkpt lat="45.5412117" lon="10.9763567"><ele>552.0</ele><time>2026-04-22T09:39:41.306Z</time></trkpt><trkpt lat="45.541295" lon="10.9763483"><ele>549.6</ele><time>2026-04-22T09:39:44.307Z</time></trkpt><trkpt lat="45.541365" lon="10.9763483"><ele>547.2</ele><time>2026-04-22T09:39:46.307Z</time></trkpt><trkpt lat="45.5414583" lon="10.9763433"><ele>544.8</ele><time>2026-04-22T09:39:48.306Z</time></trkpt><trkpt lat="45.5415267" lon="10.9762517"><ele>542.4</ele><time>2026-04-22T09:39:50.306Z</time></trkpt><trkpt lat="45.541605" lon="10.97619"><ele>540.0</ele><time>2026-04-22T09:39:52.306Z</time></trkpt><trkpt lat="45.5416983" lon="10.9761067"><ele>540.0</ele><time>2026-04-22T09:39:54.306Z</time></trkpt><trkpt lat="45.5418067" lon="10.976055"><ele>540.0</ele><time>2026-04-22T09:39:56.306Z</time></trkpt><trkpt lat="45.541925" lon="10.9760217"><ele>540.0</ele><time>2026-04-22T09:39:58.306Z</time></trkpt><trkpt lat="45.5420467" lon="10.9760383"><ele>540.0</ele><time>2026-04-22T09:40:00.306Z</time></trkpt><trkpt lat="45.5421567" lon="10.9760567"><ele>537.8</ele><time>2026-04-22T09:40:02.306Z</time></trkpt><trkpt lat="45.5422417" lon="10.9761267"><ele>535.6</ele><time>2026-04-22T09:40:04.306Z</time></trkpt><trkpt lat="45.5422833" lon="10.9762767"><ele>533.4</ele><time>2026-04-22T09:40:06.306Z</time></trkpt><trkpt lat="45.54229" lon="10.9763683"><ele>531.2</ele><time>2026-04-22T09:40:07.305Z</time></trkpt><trkpt lat="45.5423433" lon="10.9764883"><ele>529.0</ele><time>2026-04-22T09:40:09.305Z</time></trkpt><trkpt lat="45.5422567" lon="10.9765567"><ele>529.0</ele><time>2026-04-22T09:40:24.306Z</time></trkpt><trkpt lat="45.5421633" lon="10.9765983"><ele>529.0</ele><time>2026-04-22T09:40:26.305Z</time></trkpt><trkpt lat="45.5421017" lon="10.9766483"><ele>529.0</ele><time>2026-04-22T09:40:27.305Z</time></trkpt><trkpt lat="45.5420517" lon="10.976705"><ele>529.0</ele><time>2026-04-22T09:40:28.305Z</time></trkpt><trkpt lat="45.54199" lon="10.97679"><ele>529.0</ele><time>2026-04-22T09:40:29.305Z</time></trkpt><trkpt lat="45.5418967" lon="10.9768567"><ele>529.0</ele><time>2026-04-22T09:40:30.305Z</time></trkpt><trkpt lat="45.5418333" lon="10.9769117"><ele>525.0</ele><time>2026-04-22T09:40:31.305Z</time></trkpt><trkpt lat="45.541775" lon="10.9769933"><ele>521.0</ele><time>2026-04-22T09:40:32.305Z</time></trkpt><trkpt lat="45.5416883" lon="10.9771083"><ele>517.0</ele><time>2026-04-22T09:40:34.305Z</time></trkpt><trkpt lat="45.5415933" lon="10.9771983"><ele>513.0</ele><time>2026-04-22T09:40:36.305Z</time></trkpt><trkpt lat="45.5415233" lon="10.9772"><ele>509.0</ele><time>2026-04-22T09:40:37.305Z</time></trkpt><trkpt lat="45.5414583" lon="10.97727"><ele>508.99999999999994</ele><time>2026-04-22T09:40:39.305Z</time></trkpt><trkpt lat="45.54137" lon="10.9773467"><ele>509.0</ele><time>2026-04-22T09:40:42.305Z</time></trkpt><trkpt lat="45.5413517" lon="10.9774517"><ele>509.0</ele><time>2026-04-22T09:40:44.305Z</time></trkpt><trkpt lat="45.541425" lon="10.9775367"><ele>509.0</ele><time>2026-04-22T09:40:46.305Z</time></trkpt><trkpt lat="45.5415017" lon="10.977565"><ele>508.99999999999994</ele><time>2026-04-22T09:40:47.305Z</time></trkpt><trkpt lat="45.5415833" lon="10.9775883"><ele>509.0</ele><time>2026-04-22T09:40:48.305Z</time></trkpt><trkpt lat="45.54166" lon="10.9776"><ele>503.8333333333333</ele><time>2026-04-22T09:40:49.305Z</time></trkpt><trkpt lat="45.5417417" lon="10.9776083"><ele>498.66666666666663</ele><time>2026-04-22T09:40:50.305Z</time></trkpt><trkpt lat="45.541825" lon="10.9776117"><ele>493.5</ele><time>2026-04-22T09:40:51.306Z</time></trkpt><trkpt lat="45.5419" lon="10.97762"><ele>488.33333333333337</ele><time>2026-04-22T09:40:52.305Z</time></trkpt><trkpt lat="45.542015" lon="10.97758"><ele>483.1666666666667</ele><time>2026-04-22T09:40:53.306Z</time></trkpt><trkpt lat="45.542095" lon="10.977585"><ele>478.0</ele><time>2026-04-22T09:40:54.306Z</time></trkpt><trkpt lat="45.5421717" lon="10.9775833"><ele>476.6666666666667</ele><time>2026-04-22T09:40:55.305Z</time></trkpt><trkpt lat="45.5422467" lon="10.9775783"><ele>475.33333333333337</ele><time>2026-04-22T09:40:56.305Z</time></trkpt><trkpt lat="45.5423117" lon="10.9775367"><ele>474.0</ele><time>2026-04-22T09:40:57.305Z</time></trkpt><trkpt lat="45.5423733" lon="10.9775"><ele>472.66666666666663</ele><time>2026-04-22T09:40:58.306Z</time></trkpt><trkpt lat="45.5424333" lon="10.97741"><ele>471.3333333333333</ele><time>2026-04-22T09:40:59.306Z</time></trkpt><trkpt lat="45.54254" lon="10.977335"><ele>470.0</ele><time>2026-04-22T09:41:01.305Z</time></trkpt><trkpt lat="45.5425767" lon="10.9772083"><ele>475.4</ele><time>2026-04-22T09:41:02.305Z</time></trkpt><trkpt lat="45.5426217" lon="10.97712"><ele>480.8</ele><time>2026-04-22T09:41:03.305Z</time></trkpt><trkpt lat="45.5426933" lon="10.9770433"><ele>486.20000000000005</ele><time>2026-04-22T09:41:05.306Z</time></trkpt><trkpt lat="45.5427717" lon="10.977"><ele>491.6</ele><time>2026-04-22T09:41:07.305Z</time></trkpt><trkpt lat="45.5428667" lon="10.977005"><ele>497.0</ele><time>2026-04-22T09:41:09.305Z</time></trkpt><trkpt lat="45.542975" lon="10.97703"><ele>498.0</ele><time>2026-04-22T09:41:11.305Z</time></trkpt><trkpt lat="45.5430783" lon="10.9770317"><ele>499.00000000000006</ele><time>2026-04-22T09:41:13.306Z</time></trkpt><trkpt lat="45.5431483" lon="10.977075"><ele>500.00000000000006</ele><time>2026-04-22T09:41:15.305Z</time></trkpt><trkpt lat="45.54318" lon="10.9771583"><ele>501.0</ele><time>2026-04-22T09:41:17.305Z</time></trkpt><trkpt lat="45.54321" lon="10.9773467"><ele>502.0</ele><time>2026-04-22T09:41:19.305Z</time></trkpt><trkpt lat="45.543185" lon="10.9774683"><ele>498.8</ele><time>2026-04-22T09:41:22.305Z</time></trkpt><trkpt lat="45.54324" lon="10.97758"><ele>495.6</ele><time>2026-04-22T09:41:24.305Z</time></trkpt><trkpt lat="45.5432867" lon="10.977735"><ele>492.40000000000003</ele><time>2026-04-22T09:41:26.305Z</time></trkpt><trkpt lat="45.543325" lon="10.9778117"><ele>489.20000000000005</ele><time>2026-04-22T09:41:27.306Z</time></trkpt><trkpt lat="45.5433733" lon="10.9779183"><ele>486.0</ele><time>2026-04-22T09:41:28.306Z</time></trkpt><trkpt lat="45.5434267" lon="10.9780133"><ele>486.0</ele><time>2026-04-22T09:41:29.305Z</time></trkpt><trkpt lat="45.5434733" lon="10.9781067"><ele>486.0</ele><time>2026-04-22T09:41:30.305Z</time></trkpt><trkpt lat="45.5435367" lon="10.9782233"><ele>486.0</ele><time>2026-04-22T09:41:31.305Z</time></trkpt><trkpt lat="45.5435983" lon="10.978335"><ele>486.0</ele><time>2026-04-22T09:41:32.305Z</time></trkpt><trkpt lat="45.5436433" lon="10.978445"><ele>486.0</ele><time>2026-04-22T09:41:33.306Z</time></trkpt><trkpt lat="45.5436683" lon="10.9785783"><ele>485.20000000000005</ele><time>2026-04-22T09:41:34.305Z</time></trkpt><trkpt lat="45.5437" lon="10.9787033"><ele>484.40000000000003</ele><time>2026-04-22T09:41:35.306Z</time></trkpt><trkpt lat="45.54371" lon="10.9788517"><ele>483.6</ele><time>2026-04-22T09:41:36.305Z</time></trkpt><trkpt lat="45.5437083" lon="10.9790667"><ele>482.8</ele><time>2026-04-22T09:41:37.305Z</time></trkpt><trkpt lat="45.54374" lon="10.979165"><ele>482.0</ele><time>2026-04-22T09:41:38.305Z</time></trkpt><trkpt lat="45.5437467" lon="10.979285"><ele>482.0</ele><time>2026-04-22T09:41:39.305Z</time></trkpt><trkpt lat="45.5437567" lon="10.9793783"><ele>482.00000000000006</ele><time>2026-04-22T09:41:40.305Z</time></trkpt><trkpt lat="45.5437883" lon="10.9795383"><ele>482.00000000000006</ele><time>2026-04-22T09:41:42.305Z</time></trkpt><trkpt lat="45.543805" lon="10.9796967"><ele>482.0</ele><time>2026-04-22T09:41:44.305Z</time></trkpt><trkpt lat="45.543815" lon="10.9798433"><ele>482.0</ele><time>2026-04-22T09:41:45.305Z</time></trkpt><trkpt lat="45.543815" lon="10.9799767"><ele>478.66666666666663</ele><time>2026-04-22T09:41:46.305Z</time></trkpt><trkpt lat="45.5438417" lon="10.9801033"><ele>475.3333333333333</ele><time>2026-04-22T09:41:47.305Z</time></trkpt><trkpt lat="45.54386" lon="10.9802067"><ele>472.0</ele><time>2026-04-22T09:41:48.305Z</time></trkpt><trkpt lat="45.5439" lon="10.9802817"><ele>468.66666666666663</ele><time>2026-04-22T09:41:49.305Z</time></trkpt><trkpt lat="45.5439667" lon="10.9803233"><ele>465.3333333333333</ele><time>2026-04-22T09:41:50.305Z</time></trkpt><trkpt lat="45.544055" lon="10.980335"><ele>462.0</ele><time>2026-04-22T09:41:51.305Z</time></trkpt><trkpt lat="45.5441217" lon="10.9803483"><ele>462.0</ele><time>2026-04-22T09:41:52.305Z</time></trkpt><trkpt lat="45.54419" lon="10.9803333"><ele>462.00000000000006</ele><time>2026-04-22T09:41:53.305Z</time></trkpt><trkpt lat="45.54429" lon="10.9802833"><ele>462.00000000000006</ele><time>2026-04-22T09:41:54.306Z</time></trkpt><trkpt lat="45.5443967" lon="10.9801967"><ele>462.0</ele><time>2026-04-22T09:41:55.305Z</time></trkpt><trkpt lat="45.5444717" lon="10.9801333"><ele>462.0</ele><time>2026-04-22T09:41:56.305Z</time></trkpt><trkpt lat="45.5445533" lon="10.9800817"><ele>463.0</ele><time>2026-04-22T09:41:57.305Z</time></trkpt><trkpt lat="45.5446333" lon="10.9800333"><ele>464.00000000000006</ele><time>2026-04-22T09:41:58.305Z</time></trkpt><trkpt lat="45.5447633" lon="10.9799567"><ele>465.00000000000006</ele><time>2026-04-22T09:42:00.305Z</time></trkpt><trkpt lat="45.5448517" lon="10.979915"><ele>466.0</ele><time>2026-04-22T09:42:01.306Z</time></trkpt><trkpt lat="45.54494" lon="10.9798983"><ele>467.0</ele><time>2026-04-22T09:42:02.305Z</time></trkpt><trkpt lat="45.5450717" lon="10.9798917"><ele>467.0</ele><time>2026-04-22T09:42:03.305Z</time></trkpt><trkpt lat="45.5451483" lon="10.979895"><ele>467.00000000000006</ele><time>2026-04-22T09:42:04.305Z</time></trkpt><trkpt lat="45.545195" lon="10.9799817"><ele>467.00000000000006</ele><time>2026-04-22T09:42:05.305Z</time></trkpt><trkpt lat="45.5452483" lon="10.9801167"><ele>467.0</ele><time>2026-04-22T09:42:06.305Z</time></trkpt><trkpt lat="45.5453017" lon="10.9802583"><ele>467.0</ele><time>2026-04-22T09:42:07.305Z</time></trkpt><trkpt lat="45.5453567" lon="10.9803633"><ele>471.40000000000003</ele><time>2026-04-22T09:42:08.305Z</time></trkpt><trkpt lat="45.545405" lon="10.9804433"><ele>475.80000000000007</ele><time>2026-04-22T09:42:09.305Z</time></trkpt><trkpt lat="45.5454817" lon="10.9805967"><ele>480.2</ele><time>2026-04-22T09:42:11.305Z</time></trkpt><trkpt lat="45.5455317" lon="10.9807167"><ele>484.6</ele><time>2026-04-22T09:42:13.305Z</time></trkpt><trkpt lat="45.54558" lon="10.9808017"><ele>489.0</ele><time>2026-04-22T09:42:15.305Z</time></trkpt><trkpt lat="45.5456117" lon="10.9809167"><ele>490.0</ele><time>2026-04-22T09:42:17.305Z</time></trkpt><trkpt lat="45.545675" lon="10.9810217"><ele>491.0</ele><time>2026-04-22T09:42:19.305Z</time></trkpt><trkpt lat="45.5457033" lon="10.9811483"><ele>492.0</ele><time>2026-04-22T09:42:21.305Z</time></trkpt><trkpt lat="45.5457383" lon="10.9812283"><ele>493.0</ele><time>2026-04-22T09:42:23.305Z</time></trkpt><trkpt lat="45.545715" lon="10.9813667"><ele>494.0</ele><time>2026-04-22T09:42:25.305Z</time></trkpt><trkpt lat="45.5457467" lon="10.9814683"><ele>495.0</ele><time>2026-04-22T09:42:27.305Z</time></trkpt><trkpt lat="45.5457483" lon="10.981635"><ele>493.8333333333333</ele><time>2026-04-22T09:42:29.305Z</time></trkpt><trkpt lat="45.5457367" lon="10.9817283"><ele>492.66666666666663</ele><time>2026-04-22T09:42:30.305Z</time></trkpt><trkpt lat="45.5457117" lon="10.9818233"><ele>491.5</ele><time>2026-04-22T09:42:31.305Z</time></trkpt><trkpt lat="45.5456933" lon="10.9819167"><ele>490.3333333333333</ele><time>2026-04-22T09:42:32.305Z</time></trkpt><trkpt lat="45.54565" lon="10.982"><ele>489.16666666666663</ele><time>2026-04-22T09:42:33.305Z</time></trkpt><trkpt lat="45.5456483" lon="10.98215"><ele>488.0</ele><time>2026-04-22T09:42:35.305Z</time></trkpt><trkpt lat="45.5456717" lon="10.9823067"><ele>487.99999999999994</ele><time>2026-04-22T09:42:37.305Z</time></trkpt><trkpt lat="45.5457067" lon="10.982385"><ele>488.0</ele><time>2026-04-22T09:42:38.305Z</time></trkpt><trkpt lat="45.5457483" lon="10.9824733"><ele>488.0</ele><time>2026-04-22T09:42:39.305Z</time></trkpt><trkpt lat="45.545795" lon="10.9825683"><ele>488.0</ele><time>2026-04-22T09:42:40.305Z</time></trkpt><trkpt lat="45.5458683" lon="10.98264"><ele>487.99999999999994</ele><time>2026-04-22T09:42:41.305Z</time></trkpt><trkpt lat="45.5459683" lon="10.98269"><ele>488.0</ele><time>2026-04-22T09:42:42.305Z</time></trkpt><trkpt lat="45.5460933" lon="10.9827333"><ele>487.4</ele><time>2026-04-22T09:42:43.305Z</time></trkpt><trkpt lat="45.54619" lon="10.9828267"><ele>486.79999999999995</ele><time>2026-04-22T09:42:44.305Z</time></trkpt><trkpt lat="45.5463133" lon="10.9828467"><ele>486.2</ele><time>2026-04-22T09:42:45.305Z</time></trkpt><trkpt lat="45.546385" lon="10.9829"><ele>485.6</ele><time>2026-04-22T09:42:46.305Z</time></trkpt><trkpt lat="45.546455" lon="10.982895"><ele>485.0</ele><time>2026-04-22T09:42:47.305Z</time></trkpt><trkpt lat="45.5464117" lon="10.9828017"><ele>484.99999999999994</ele><time>2026-04-22T09:42:48.305Z</time></trkpt><trkpt lat="45.546365" lon="10.982685"><ele>485.0</ele><time>2026-04-22T09:42:51.305Z</time></trkpt><trkpt lat="45.546315" lon="10.9825433"><ele>485.0</ele><time>2026-04-22T09:42:53.306Z</time></trkpt><trkpt lat="45.546285" lon="10.98246"><ele>485.0</ele><time>2026-04-22T09:42:54.305Z</time></trkpt><trkpt lat="45.5462133" lon="10.982335"><ele>484.99999999999994</ele><time>2026-04-22T09:42:56.305Z</time></trkpt><trkpt lat="45.54617" lon="10.9822683"><ele>485.0</ele><time>2026-04-22T09:42:57.305Z</time></trkpt><trkpt lat="45.5461283" lon="10.9821967"><ele>485.49999999999994</ele><time>2026-04-22T09:42:58.305Z</time></trkpt><trkpt lat="45.54606" lon="10.9820983"><ele>486.0</ele><time>2026-04-22T09:42:59.305Z</time></trkpt><trkpt lat="45.5460283" lon="10.9819967"><ele>486.5</ele><time>2026-04-22T09:43:01.305Z</time></trkpt><trkpt lat="45.545995" lon="10.9818983"><ele>487.0</ele><time>2026-04-22T09:43:03.305Z</time></trkpt><trkpt lat="45.5460867" lon="10.9818883"><ele>487.49999999999994</ele><time>2026-04-22T09:43:06.304Z</time></trkpt><trkpt lat="45.5461717" lon="10.9818833"><ele>488.0</ele><time>2026-04-22T09:43:08.304Z</time></trkpt><trkpt lat="45.546285" lon="10.9818933"><ele>493.79999999999995</ele><time>2026-04-22T09:43:10.304Z</time></trkpt><trkpt lat="45.54639" lon="10.9819083"><ele>499.59999999999997</ele><time>2026-04-22T09:43:12.304Z</time></trkpt><trkpt lat="45.54648" lon="10.9818883"><ele>505.40000000000003</ele><time>2026-04-22T09:43:14.304Z</time></trkpt><trkpt lat="45.5466033" lon="10.9818883"><ele>511.20000000000005</ele><time>2026-04-22T09:43:16.304Z</time></trkpt><trkpt lat="45.5466767" lon="10.981895"><ele>517.0</ele><time>2026-04-22T09:43:17.304Z</time></trkpt><trkpt lat="45.5467983" lon="10.9818883"><ele>517.0</ele><time>2026-04-22T09:43:19.304Z</time></trkpt><trkpt lat="45.5468633" lon="10.98188"><ele>517.0</ele><time>2026-04-22T09:43:20.304Z</time></trkpt><trkpt lat="45.5469267" lon="10.9818733"><ele>517.0</ele><time>2026-04-22T09:43:21.305Z</time></trkpt><trkpt lat="45.54704" lon="10.9818533"><ele>517.0</ele><time>2026-04-22T09:43:23.304Z</time></trkpt><trkpt lat="45.5471267" lon="10.9818383"><ele>517.0</ele><time>2026-04-22T09:43:25.304Z</time></trkpt><trkpt lat="45.5472133" lon="10.98179"><ele>517.0</ele><time>2026-04-22T09:43:27.304Z</time></trkpt><trkpt lat="45.5472883" lon="10.9817367"><ele>520.8000000000001</ele><time>2026-04-22T09:43:29.304Z</time></trkpt><trkpt lat="45.5473683" lon="10.9817183"><ele>524.6</ele><time>2026-04-22T09:43:31.304Z</time></trkpt><trkpt lat="45.5474683" lon="10.9816567"><ele>528.4000000000001</ele><time>2026-04-22T09:43:33.304Z</time></trkpt><trkpt lat="45.547595" lon="10.981575"><ele>532.2</ele><time>2026-04-22T09:43:35.304Z</time></trkpt><trkpt lat="45.5476667" lon="10.9815467"><ele>536.0</ele><time>2026-04-22T09:43:36.304Z</time></trkpt><trkpt lat="45.54776" lon="10.9814967"><ele>536.0</ele><time>2026-04-22T09:43:38.304Z</time></trkpt><trkpt lat="45.5478267" lon="10.9814933"><ele>536.0</ele><time>2026-04-22T09:43:40.305Z</time></trkpt><trkpt lat="45.5478883" lon="10.9815217"><ele>536.0</ele><time>2026-04-22T09:43:43.304Z</time></trkpt><trkpt lat="45.54787" lon="10.9816183"><ele>536.0</ele><time>2026-04-22T09:43:44.305Z</time></trkpt><trkpt lat="45.5478283" lon="10.981745"><ele>536.0</ele><time>2026-04-22T09:43:45.304Z</time></trkpt><trkpt lat="45.547795" lon="10.981825"><ele>536.0</ele><time>2026-04-22T09:43:46.304Z</time></trkpt><trkpt lat="45.54781" lon="10.9819633"><ele>536.0</ele><time>2026-04-22T09:43:48.304Z</time></trkpt><trkpt lat="45.54785" lon="10.9821067"><ele>536.0</ele><time>2026-04-22T09:43:50.305Z</time></trkpt><trkpt lat="45.5479" lon="10.9821933"><ele>536.0</ele><time>2026-04-22T09:43:52.304Z</time></trkpt><trkpt lat="45.5479917" lon="10.98226"><ele>536.0</ele><time>2026-04-22T09:43:54.304Z</time></trkpt><trkpt lat="45.548055" lon="10.9822417"><ele>536.0</ele><time>2026-04-22T09:43:55.304Z</time></trkpt><trkpt lat="45.5481233" lon="10.9822517"><ele>536.0</ele><time>2026-04-22T09:43:56.304Z</time></trkpt><trkpt lat="45.548185" lon="10.9822233"><ele>539.0</ele><time>2026-04-22T09:43:57.304Z</time></trkpt><trkpt lat="45.5482517" lon="10.98217"><ele>542.0</ele><time>2026-04-22T09:44:00.304Z</time></trkpt><trkpt lat="45.548395" lon="10.9821"><ele>545.0</ele><time>2026-04-22T09:44:11.304Z</time></trkpt><trkpt lat="45.548495" lon="10.9821667"><ele>548.0</ele><time>2026-04-22T09:44:15.304Z</time></trkpt><trkpt lat="45.5485683" lon="10.982155"><ele>551.0</ele><time>2026-04-22T09:44:16.305Z</time></trkpt><trkpt lat="45.5486533" lon="10.9822133"><ele>551.0</ele><time>2026-04-22T09:44:18.304Z</time></trkpt><trkpt lat="45.5487067" lon="10.98229"><ele>551.0</ele><time>2026-04-22T09:44:20.304Z</time></trkpt><trkpt lat="45.548755" lon="10.982385"><ele>551.0</ele><time>2026-04-22T09:44:22.304Z</time></trkpt><trkpt lat="45.5488033" lon="10.982445"><ele>551.0</ele><time>2026-04-22T09:44:25.304Z</time></trkpt><trkpt lat="45.5488633" lon="10.98254"><ele>551.0</ele><time>2026-04-22T09:44:27.305Z</time></trkpt><trkpt lat="45.5489217" lon="10.9826017"><ele>551.0</ele><time>2026-04-22T09:44:29.304Z</time></trkpt><trkpt lat="45.548955" lon="10.98274"><ele>548.1666666666666</ele><time>2026-04-22T09:44:31.304Z</time></trkpt><trkpt lat="45.5489883" lon="10.98284"><ele>545.3333333333333</ele><time>2026-04-22T09:44:33.304Z</time></trkpt><trkpt lat="45.549065" lon="10.982905"><ele>542.5</ele><time>2026-04-22T09:44:35.304Z</time></trkpt><trkpt lat="45.54913" lon="10.9829717"><ele>539.6666666666666</ele><time>2026-04-22T09:44:37.305Z</time></trkpt><trkpt lat="45.5492083" lon="10.98295"><ele>536.8333333333334</ele><time>2026-04-22T09:44:39.304Z</time></trkpt><trkpt lat="45.5492917" lon="10.9828483"><ele>534.0</ele><time>2026-04-22T09:44:45.304Z</time></trkpt><trkpt lat="45.5493717" lon="10.9828833"><ele>534.0</ele><time>2026-04-22T09:44:50.304Z</time></trkpt><trkpt lat="45.5494633" lon="10.9829483"><ele>534.0</ele><time>2026-04-22T09:44:52.304Z</time></trkpt><trkpt lat="45.54954" lon="10.9830483"><ele>534.0</ele><time>2026-04-22T09:44:54.304Z</time></trkpt><trkpt lat="45.5496117" lon="10.983135"><ele>534.0</ele><time>2026-04-22T09:44:55.304Z</time></trkpt><trkpt lat="45.5496483" lon="10.9832483"><ele>534.0</ele><time>2026-04-22T09:44:56.304Z</time></trkpt><trkpt lat="45.5497" lon="10.9833167"><ele>532.1666666666666</ele><time>2026-04-22T09:44:57.304Z</time></trkpt><trkpt lat="45.54975" lon="10.98343"><ele>530.3333333333334</ele><time>2026-04-22T09:44:58.304Z</time></trkpt><trkpt lat="45.5498117" lon="10.983525"><ele>528.5</ele><time>2026-04-22T09:44:59.304Z</time></trkpt><trkpt lat="45.54985" lon="10.9836533"><ele>526.6666666666667</ele><time>2026-04-22T09:45:00.304Z</time></trkpt><trkpt lat="45.549895" lon="10.98374"><ele>524.8333333333334</ele><time>2026-04-22T09:45:01.304Z</time></trkpt><trkpt lat="45.54997" lon="10.9838067"><ele>523.0</ele><time>2026-04-22T09:45:02.304Z</time></trkpt><trkpt lat="45.5500317" lon="10.9838883"><ele>523.0</ele><time>2026-04-22T09:45:03.304Z</time></trkpt><trkpt lat="45.5500783" lon="10.9839883"><ele>523.0</ele><time>2026-04-22T09:45:04.304Z</time></trkpt><trkpt lat="45.5501333" lon="10.9841"><ele>523.0</ele><time>2026-04-22T09:45:05.304Z</time></trkpt><trkpt lat="45.5501883" lon="10.9842083"><ele>523.0</ele><time>2026-04-22T09:45:06.304Z</time></trkpt><trkpt lat="45.5502383" lon="10.9843383"><ele>523.0</ele><time>2026-04-22T09:45:07.305Z</time></trkpt><trkpt lat="45.5502917" lon="10.9844683"><ele>519.25</ele><time>2026-04-22T09:45:08.304Z</time></trkpt><trkpt lat="45.5502733" lon="10.9845683"><ele>515.5</ele><time>2026-04-22T09:45:09.304Z</time></trkpt><trkpt lat="45.55023" lon="10.9848317"><ele>511.75</ele><time>2026-04-22T09:45:11.304Z</time></trkpt><trkpt lat="45.5501783" lon="10.9849967"><ele>508.0</ele><time>2026-04-22T09:45:12.304Z</time></trkpt><trkpt lat="45.5501617" lon="10.9850867"><ele>506.0</ele><time>2026-04-22T09:45:13.304Z</time></trkpt><trkpt lat="45.5500433" lon="10.9851667"><ele>503.99999999999994</ele><time>2026-04-22T09:45:15.304Z</time></trkpt><trkpt lat="45.5499133" lon="10.985205"><ele>501.99999999999994</ele><time>2026-04-22T09:45:17.304Z</time></trkpt><trkpt lat="45.5498467" lon="10.9852183"><ele>500.0</ele><time>2026-04-22T09:45:18.305Z</time></trkpt><trkpt lat="45.5497717" lon="10.9852283"><ele>498.0</ele><time>2026-04-22T09:45:19.304Z</time></trkpt><trkpt lat="45.54967" lon="10.9852733"><ele>498.0</ele><time>2026-04-22T09:45:21.304Z</time></trkpt><trkpt lat="45.54959" lon="10.98532"><ele>497.99999999999994</ele><time>2026-04-22T09:45:23.305Z</time></trkpt><trkpt lat="45.5495567" lon="10.9854267"><ele>497.99999999999994</ele><time>2026-04-22T09:45:25.305Z</time></trkpt><trkpt lat="45.54959" lon="10.9855783"><ele>498.0</ele><time>2026-04-22T09:45:27.304Z</time></trkpt><trkpt lat="45.5495917" lon="10.9857317"><ele>498.0</ele><time>2026-04-22T09:45:29.304Z</time></trkpt><trkpt lat="45.5496667" lon="10.98586"><ele>496.59999999999997</ele><time>2026-04-22T09:45:31.304Z</time></trkpt><trkpt lat="45.5497083" lon="10.9859383"><ele>495.19999999999993</ele><time>2026-04-22T09:45:32.305Z</time></trkpt><trkpt lat="45.5497417" lon="10.98604"><ele>493.8</ele><time>2026-04-22T09:45:33.305Z</time></trkpt><trkpt lat="45.5497767" lon="10.9861217"><ele>492.4</ele><time>2026-04-22T09:45:34.304Z</time></trkpt><trkpt lat="45.5498383" lon="10.9862817"><ele>491.0</ele><time>2026-04-22T09:45:36.305Z</time></trkpt><trkpt lat="45.5498883" lon="10.986425"><ele>491.0</ele><time>2026-04-22T09:45:38.304Z</time></trkpt><trkpt lat="45.5498967" lon="10.9865233"><ele>490.99999999999994</ele><time>2026-04-22T09:45:40.304Z</time></trkpt><trkpt lat="45.5498433" lon="10.986645"><ele>491.0</ele><time>2026-04-22T09:45:43.305Z</time></trkpt><trkpt lat="45.5497783" lon="10.9866517"><ele>491.0</ele><time>2026-04-22T09:45:44.304Z</time></trkpt><trkpt lat="45.549715" lon="10.9866417"><ele>490.99999999999994</ele><time>2026-04-22T09:45:45.304Z</time></trkpt><trkpt lat="45.5496433" lon="10.986645"><ele>491.0</ele><time>2026-04-22T09:45:46.304Z</time></trkpt><trkpt lat="45.5495733" lon="10.986645"><ele>491.0</ele><time>2026-04-22T09:45:47.304Z</time></trkpt><trkpt lat="45.5495017" lon="10.9866333"><ele>488.99999999999994</ele><time>2026-04-22T09:45:48.304Z</time></trkpt><trkpt lat="45.5493733" lon="10.986605"><ele>487.0</ele><time>2026-04-22T09:45:50.304Z</time></trkpt><trkpt lat="45.5493017" lon="10.9866517"><ele>485.0</ele><time>2026-04-22T09:45:52.304Z</time></trkpt><trkpt lat="45.5492767" lon="10.9867417"><ele>483.0</ele><time>2026-04-22T09:45:54.304Z</time></trkpt><trkpt lat="45.5492717" lon="10.9868333"><ele>480.99999999999994</ele><time>2026-04-22T09:45:55.304Z</time></trkpt><trkpt lat="45.5492833" lon="10.986945"><ele>479.0</ele><time>2026-04-22T09:45:56.304Z</time></trkpt><trkpt lat="45.5493033" lon="10.9870983"><ele>478.2</ele><time>2026-04-22T09:45:57.305Z</time></trkpt><trkpt lat="45.5493183" lon="10.9872567"><ele>477.4</ele><time>2026-04-22T09:45:58.304Z</time></trkpt><trkpt lat="45.5493233" lon="10.9874017"><ele>476.6</ele><time>2026-04-22T09:45:59.304Z</time></trkpt><trkpt lat="45.5493367" lon="10.9875367"><ele>475.8</ele><time>2026-04-22T09:46:00.304Z</time></trkpt><trkpt lat="45.5493633" lon="10.9876783"><ele>475.0</ele><time>2026-04-22T09:46:01.304Z</time></trkpt><trkpt lat="45.54938" lon="10.9878283"><ele>474.2</ele><time>2026-04-22T09:46:02.304Z</time></trkpt><trkpt lat="45.5493933" lon="10.98796"><ele>473.4</ele><time>2026-04-22T09:46:03.305Z</time></trkpt><trkpt lat="45.5494017" lon="10.9881033"><ele>472.6</ele><time>2026-04-22T09:46:04.304Z</time></trkpt><trkpt lat="45.549415" lon="10.98823"><ele>471.8</ele><time>2026-04-22T09:46:05.304Z</time></trkpt><trkpt lat="45.5494417" lon="10.9883567"><ele>471.0</ele><time>2026-04-22T09:46:06.304Z</time></trkpt><trkpt lat="45.54948" lon="10.9884783"><ele>468.20000000000005</ele><time>2026-04-22T09:46:07.304Z</time></trkpt><trkpt lat="45.54952" lon="10.98857"><ele>465.40000000000003</ele><time>2026-04-22T09:46:08.304Z</time></trkpt><trkpt lat="45.549615" lon="10.9886233"><ele>462.6</ele><time>2026-04-22T09:46:09.304Z</time></trkpt><trkpt lat="45.549725" lon="10.9886433"><ele>459.8</ele><time>2026-04-22T09:46:10.304Z</time></trkpt><trkpt lat="45.5498417" lon="10.9886583"><ele>457.0</ele><time>2026-04-22T09:46:11.304Z</time></trkpt><trkpt lat="45.549945" lon="10.98867"><ele>456.0</ele><time>2026-04-22T09:46:12.305Z</time></trkpt><trkpt lat="45.5500817" lon="10.9886533"><ele>455.0</ele><time>2026-04-22T09:46:13.304Z</time></trkpt><trkpt lat="45.5502" lon="10.988675"><ele>454.0</ele><time>2026-04-22T09:46:14.304Z</time></trkpt><trkpt lat="45.5503067" lon="10.988695"><ele>453.0</ele><time>2026-04-22T09:46:15.303Z</time></trkpt><trkpt lat="45.5504317" lon="10.988695"><ele>455.59999999999997</ele><time>2026-04-22T09:46:16.303Z</time></trkpt><trkpt lat="45.55055" lon="10.9886983"><ele>458.19999999999993</ele><time>2026-04-22T09:46:17.304Z</time></trkpt><trkpt lat="45.55065" lon="10.9887167"><ele>460.8</ele><time>2026-04-22T09:46:18.303Z</time></trkpt><trkpt lat="45.55073" lon="10.98873"><ele>463.4</ele><time>2026-04-22T09:46:19.303Z</time></trkpt><trkpt lat="45.5508183" lon="10.9887583"><ele>466.0</ele><time>2026-04-22T09:46:21.303Z</time></trkpt><trkpt lat="45.5507517" lon="10.9887267"><ele>466.0</ele><time>2026-04-22T09:46:25.303Z</time></trkpt><trkpt lat="45.5506083" lon="10.98874"><ele>466.0</ele><time>2026-04-22T09:46:27.303Z</time></trkpt><trkpt lat="45.5504717" lon="10.9887733"><ele>466.0</ele><time>2026-04-22T09:46:28.304Z</time></trkpt><trkpt lat="45.5503467" lon="10.9888083"><ele>466.0</ele><time>2026-04-22T09:46:29.303Z</time></trkpt><trkpt lat="45.5502417" lon="10.98885"><ele>463.4</ele><time>2026-04-22T09:46:30.303Z</time></trkpt><trkpt lat="45.5501417" lon="10.9888867"><ele>460.8</ele><time>2026-04-22T09:46:31.303Z</time></trkpt><trkpt lat="45.5500517" lon="10.98891"><ele>458.19999999999993</ele><time>2026-04-22T09:46:32.303Z</time></trkpt><trkpt lat="45.54994" lon="10.9889833"><ele>455.59999999999997</ele><time>2026-04-22T09:46:33.303Z</time></trkpt><trkpt lat="45.5498417" lon="10.9890333"><ele>453.0</ele><time>2026-04-22T09:46:34.303Z</time></trkpt><trkpt lat="45.5497633" lon="10.9891"><ele>450.2</ele><time>2026-04-22T09:46:35.303Z</time></trkpt><trkpt lat="45.5496667" lon="10.9892367"><ele>447.4</ele><time>2026-04-22T09:46:36.303Z</time></trkpt><trkpt lat="45.549585" lon="10.9893733"><ele>444.59999999999997</ele><time>2026-04-22T09:46:37.303Z</time></trkpt><trkpt lat="45.5495283" lon="10.9894983"><ele>441.79999999999995</ele><time>2026-04-22T09:46:38.303Z</time></trkpt><trkpt lat="45.5494783" lon="10.9895917"><ele>439.0</ele><time>2026-04-22T09:46:39.303Z</time></trkpt><trkpt lat="45.5494267" lon="10.9896683"><ele>439.00000000000006</ele><time>2026-04-22T09:46:40.303Z</time></trkpt><trkpt lat="45.5493617" lon="10.9897417"><ele>439.0</ele><time>2026-04-22T09:46:41.303Z</time></trkpt><trkpt lat="45.5492817" lon="10.9898317"><ele>439.0</ele><time>2026-04-22T09:46:42.304Z</time></trkpt><trkpt lat="45.5492133" lon="10.9898683"><ele>439.0</ele><time>2026-04-22T09:46:43.303Z</time></trkpt><trkpt lat="45.5491433" lon="10.98993"><ele>439.00000000000006</ele><time>2026-04-22T09:46:44.303Z</time></trkpt><trkpt lat="45.549065" lon="10.9899983"><ele>439.0</ele><time>2026-04-22T09:46:45.303Z</time></trkpt><trkpt lat="45.5489717" lon="10.990075"><ele>436.0</ele><time>2026-04-22T09:46:46.303Z</time></trkpt><trkpt lat="45.548885" lon="10.99014"><ele>433.0</ele><time>2026-04-22T09:46:47.303Z</time></trkpt><trkpt lat="45.5488" lon="10.9902067"><ele>430.0</ele><time>2026-04-22T09:46:48.303Z</time></trkpt><trkpt lat="45.5487167" lon="10.990265"><ele>427.0</ele><time>2026-04-22T09:46:49.303Z</time></trkpt><trkpt lat="45.5486367" lon="10.99033"><ele>424.0</ele><time>2026-04-22T09:46:50.303Z</time></trkpt><trkpt lat="45.5485483" lon="10.9903917"><ele>424.00000000000006</ele><time>2026-04-22T09:46:51.303Z</time></trkpt><trkpt lat="45.5484633" lon="10.99044"><ele>424.0</ele><time>2026-04-22T09:46:52.303Z</time></trkpt><trkpt lat="45.5483783" lon="10.990475"><ele>424.0</ele><time>2026-04-22T09:46:53.303Z</time></trkpt><trkpt lat="45.5482867" lon="10.990485"><ele>424.0</ele><time>2026-04-22T09:46:54.303Z</time></trkpt><trkpt lat="45.5482" lon="10.99047"><ele>424.00000000000006</ele><time>2026-04-22T09:46:55.303Z</time></trkpt><trkpt lat="45.54812" lon="10.99041"><ele>424.0</ele><time>2026-04-22T09:46:56.303Z</time></trkpt><trkpt lat="45.5480467" lon="10.9903867"><ele>424.00000000000006</ele><time>2026-04-22T09:46:57.303Z</time></trkpt><trkpt lat="45.54798" lon="10.9903683"><ele>424.0</ele><time>2026-04-22T09:46:58.304Z</time></trkpt><trkpt lat="45.547875" lon="10.9903467"><ele>424.0</ele><time>2026-04-22T09:47:00.304Z</time></trkpt><trkpt lat="45.5477817" lon="10.9903433"><ele>424.0</ele><time>2026-04-22T09:47:02.303Z</time></trkpt><trkpt lat="45.5478233" lon="10.9904283"><ele>424.00000000000006</ele><time>2026-04-22T09:47:04.304Z</time></trkpt><trkpt lat="45.5479017" lon="10.990525"><ele>424.0</ele><time>2026-04-22T09:47:05.303Z</time></trkpt><trkpt lat="45.5480217" lon="10.990635"><ele>424.0</ele><time>2026-04-22T09:47:06.303Z</time></trkpt><trkpt lat="45.5481367" lon="10.9907133"><ele>424.0</ele><time>2026-04-22T09:47:07.303Z</time></trkpt><trkpt lat="45.5482733" lon="10.9907683"><ele>424.0</ele><time>2026-04-22T09:47:08.303Z</time></trkpt><trkpt lat="45.5483533" lon="10.9907883"><ele>424.0</ele><time>2026-04-22T09:47:09.303Z</time></trkpt><trkpt lat="45.5484433" lon="10.9907917"><ele>424.0</ele><time>2026-04-22T09:47:10.303Z</time></trkpt><trkpt lat="45.5485917" lon="10.990775"><ele>424.0</ele><time>2026-04-22T09:47:11.303Z</time></trkpt><trkpt lat="45.5487333" lon="10.9907467"><ele>424.0</ele><time>2026-04-22T09:47:12.303Z</time></trkpt><trkpt lat="45.54893" lon="10.990705"><ele>424.0</ele><time>2026-04-22T09:47:13.303Z</time></trkpt><trkpt lat="45.54904" lon="10.9906383"><ele>424.0</ele><time>2026-04-22T09:47:14.303Z</time></trkpt><trkpt lat="45.5491783" lon="10.990545"><ele>424.0</ele><time>2026-04-22T09:47:15.303Z</time></trkpt><trkpt lat="45.549295" lon="10.9904733"><ele>424.0</ele><time>2026-04-22T09:47:16.304Z</time></trkpt><trkpt lat="45.5494133" lon="10.9904017"><ele>424.0</ele><time>2026-04-22T09:47:17.304Z</time></trkpt><trkpt lat="45.5495583" lon="10.9903333"><ele>427.5</ele><time>2026-04-22T09:47:18.304Z</time></trkpt><trkpt lat="45.5497" lon="10.990275"><ele>431.0</ele><time>2026-04-22T09:47:19.304Z</time></trkpt><trkpt lat="45.54982" lon="10.9902367"><ele>434.5</ele><time>2026-04-22T09:47:20.303Z</time></trkpt><trkpt lat="45.5499417" lon="10.9901967"><ele>438.0</ele><time>2026-04-22T09:47:21.303Z</time></trkpt><trkpt lat="45.5500467" lon="10.9901633"><ele>438.0</ele><time>2026-04-22T09:47:22.303Z</time></trkpt><trkpt lat="45.5501267" lon="10.99015"><ele>438.0</ele><time>2026-04-22T09:47:23.303Z</time></trkpt><trkpt lat="45.5502217" lon="10.9901217"><ele>438.0</ele><time>2026-04-22T09:47:24.303Z</time></trkpt><trkpt lat="45.5503017" lon="10.9901033"><ele>438.0</ele><time>2026-04-22T09:47:25.303Z</time></trkpt><trkpt lat="45.5497917" lon="10.9906067"><ele>438.0</ele><time>2026-04-22T09:47:26.303Z</time></trkpt><trkpt lat="45.5497467" lon="10.9907167"><ele>437.99999999999994</ele><time>2026-04-22T09:47:27.304Z</time></trkpt><trkpt lat="45.5497033" lon="10.9908283"><ele>437.99999999999994</ele><time>2026-04-22T09:47:28.303Z</time></trkpt><trkpt lat="45.5496167" lon="10.9909417"><ele>438.0</ele><time>2026-04-22T09:47:29.304Z</time></trkpt><trkpt lat="45.54955" lon="10.9910933"><ele>438.0</ele><time>2026-04-22T09:47:30.303Z</time></trkpt><trkpt lat="45.5494633" lon="10.9912567"><ele>431.66666666666663</ele><time>2026-04-22T09:47:31.303Z</time></trkpt><trkpt lat="45.5493767" lon="10.9914167"><ele>425.3333333333333</ele><time>2026-04-22T09:47:32.303Z</time></trkpt><trkpt lat="45.5492117" lon="10.9916517"><ele>419.0</ele><time>2026-04-22T09:47:33.303Z</time></trkpt><trkpt lat="45.54907" lon="10.991885"><ele>418.3333333333333</ele><time>2026-04-22T09:47:34.304Z</time></trkpt><trkpt lat="45.5489717" lon="10.9920883"><ele>417.66666666666663</ele><time>2026-04-22T09:47:35.303Z</time></trkpt><trkpt lat="45.5489017" lon="10.992265"><ele>417.0</ele><time>2026-04-22T09:47:36.304Z</time></trkpt><trkpt lat="45.5489267" lon="10.992455"><ele>417.8333333333333</ele><time>2026-04-22T09:47:37.303Z</time></trkpt><trkpt lat="45.54891" lon="10.9925517"><ele>418.66666666666663</ele><time>2026-04-22T09:47:38.303Z</time></trkpt><trkpt lat="45.548915" lon="10.9926983"><ele>419.5</ele><time>2026-04-22T09:47:40.303Z</time></trkpt><trkpt lat="45.5489133" lon="10.9928"><ele>420.3333333333333</ele><time>2026-04-22T09:47:42.303Z</time></trkpt><trkpt lat="45.5488517" lon="10.99292"><ele>421.16666666666663</ele><time>2026-04-22T09:47:44.303Z</time></trkpt><trkpt lat="45.5489083" lon="10.9929667"><ele>422.0</ele><time>2026-04-22T09:47:49.303Z</time></trkpt><trkpt lat="45.5489683" lon="10.9929267"><ele>421.99999999999994</ele><time>2026-04-22T09:47:53.303Z</time></trkpt><trkpt lat="45.5489867" lon="10.9928317"><ele>422.0</ele><time>2026-04-22T09:47:57.303Z</time></trkpt><trkpt lat="45.5489533" lon="10.9929117"><ele>422.0</ele><time>2026-04-22T09:48:11.303Z</time></trkpt><trkpt lat="45.5488733" lon="10.993005"><ele>422.0</ele><time>2026-04-22T09:48:19.304Z</time></trkpt><trkpt lat="45.5488067" lon="10.9930117"><ele>421.99999999999994</ele><time>2026-04-22T09:48:21.303Z</time></trkpt><trkpt lat="45.5487333" lon="10.9930233"><ele>422.0</ele><time>2026-04-22T09:48:24.303Z</time></trkpt><trkpt lat="45.5486483" lon="10.993045"><ele>419.49999999999994</ele><time>2026-04-22T09:48:28.303Z</time></trkpt><trkpt lat="45.5485833" lon="10.99305"><ele>417.0</ele><time>2026-04-22T09:48:32.304Z</time></trkpt><trkpt lat="45.5485067" lon="10.9930217"><ele>414.5</ele><time>2026-04-22T09:48:35.303Z</time></trkpt><trkpt lat="45.5484417" lon="10.993025"><ele>412.0</ele><time>2026-04-22T09:48:38.303Z</time></trkpt><trkpt lat="45.5484167" lon="10.9931317"><ele>409.49999999999994</ele><time>2026-04-22T09:48:44.303Z</time></trkpt><trkpt lat="45.54833" lon="10.993135"><ele>407.0</ele><time>2026-04-22T09:49:08.304Z</time></trkpt><trkpt lat="45.548235" lon="10.9931683"><ele>406.99999999999994</ele><time>2026-04-22T09:49:11.303Z</time></trkpt><trkpt lat="45.5481517" lon="10.9931767"><ele>407.0</ele><time>2026-04-22T09:49:14.304Z</time></trkpt><trkpt lat="45.54808" lon="10.99318"><ele>407.0</ele><time>2026-04-22T09:49:17.303Z</time></trkpt><trkpt lat="45.5480317" lon="10.9930783"><ele>407.0</ele><time>2026-04-22T09:49:34.302Z</time></trkpt><trkpt lat="45.5479583" lon="10.9931167"><ele>406.99999999999994</ele><time>2026-04-22T09:49:40.302Z</time></trkpt><trkpt lat="45.5478883" lon="10.9930583"><ele>407.0</ele><time>2026-04-22T09:49:43.302Z</time></trkpt><trkpt lat="45.54785" lon="10.9929717"><ele>404.8333333333333</ele><time>2026-04-22T09:49:46.303Z</time></trkpt><trkpt lat="45.547805" lon="10.99287"><ele>402.66666666666663</ele><time>2026-04-22T09:49:49.302Z</time></trkpt><trkpt lat="45.547745" lon="10.9928017"><ele>400.5</ele><time>2026-04-22T09:49:51.303Z</time></trkpt><trkpt lat="45.5477017" lon="10.9929067"><ele>398.33333333333337</ele><time>2026-04-22T09:49:59.302Z</time></trkpt><trkpt lat="45.5476433" lon="10.99302"><ele>396.1666666666667</ele><time>2026-04-22T09:50:01.303Z</time></trkpt><trkpt lat="45.54759" lon="10.9931367"><ele>394.0</ele><time>2026-04-22T09:50:03.303Z</time></trkpt><trkpt lat="45.5475083" lon="10.9932483"><ele>394.00000000000006</ele><time>2026-04-22T09:50:05.302Z</time></trkpt><trkpt lat="45.5474533" lon="10.9933233"><ele>394.0</ele><time>2026-04-22T09:50:06.302Z</time></trkpt><trkpt lat="45.5474017" lon="10.99341"><ele>394.0</ele><time>2026-04-22T09:50:07.302Z</time></trkpt><trkpt lat="45.5473583" lon="10.9935"><ele>394.0</ele><time>2026-04-22T09:50:08.302Z</time></trkpt><trkpt lat="45.547315" lon="10.9935733"><ele>394.00000000000006</ele><time>2026-04-22T09:50:09.302Z</time></trkpt><trkpt lat="45.547265" lon="10.9937133"><ele>394.0</ele><time>2026-04-22T09:50:11.303Z</time></trkpt><trkpt lat="45.5472517" lon="10.9938017"><ele>395.0</ele><time>2026-04-22T09:50:13.302Z</time></trkpt><trkpt lat="45.54723" lon="10.99389"><ele>396.0</ele><time>2026-04-22T09:50:15.302Z</time></trkpt><trkpt lat="45.5471617" lon="10.9940383"><ele>397.0</ele><time>2026-04-22T09:50:17.302Z</time></trkpt><trkpt lat="45.547075" lon="10.99416"><ele>398.0</ele><time>2026-04-22T09:50:19.303Z</time></trkpt><trkpt lat="45.5470033" lon="10.9942383"><ele>399.0</ele><time>2026-04-22T09:50:21.303Z</time></trkpt><trkpt lat="45.5469733" lon="10.99439"><ele>399.0</ele><time>2026-04-22T09:51:57.302Z</time></trkpt><trkpt lat="45.5469383" lon="10.994475"><ele>399.0</ele><time>2026-04-22T09:52:00.302Z</time></trkpt><trkpt lat="45.5469067" lon="10.9945833"><ele>399.0</ele><time>2026-04-22T09:52:03.302Z</time></trkpt><trkpt lat="45.5469433" lon="10.9947317"><ele>399.0</ele><time>2026-04-22T09:52:05.303Z</time></trkpt><trkpt lat="45.5469467" lon="10.9948217"><ele>399.0</ele><time>2026-04-22T09:52:07.302Z</time></trkpt><trkpt lat="45.5469" lon="10.994905"><ele>399.0</ele><time>2026-04-22T09:52:09.302Z</time></trkpt><trkpt lat="45.546905" lon="10.9947917"><ele>399.0</ele><time>2026-04-22T09:52:18.302Z</time></trkpt><trkpt lat="45.54689" lon="10.99466"><ele>399.0</ele><time>2026-04-22T09:52:21.302Z</time></trkpt><trkpt lat="45.5468767" lon="10.9945333"><ele>399.0</ele><time>2026-04-22T09:52:24.302Z</time></trkpt><trkpt lat="45.5468917" lon="10.99444"><ele>399.0</ele><time>2026-04-22T09:52:26.302Z</time></trkpt><trkpt lat="45.5469283" lon="10.994345"><ele>399.0</ele><time>2026-04-22T09:52:28.303Z</time></trkpt><trkpt lat="45.5469783" lon="10.9942567"><ele>399.0</ele><time>2026-04-22T09:52:30.302Z</time></trkpt><trkpt lat="45.5470233" lon="10.9941867"><ele>399.0</ele><time>2026-04-22T09:52:33.302Z</time></trkpt><trkpt lat="45.5471067" lon="10.99418"><ele>399.0</ele><time>2026-04-22T09:52:34.302Z</time></trkpt><trkpt lat="45.5470783" lon="10.9943017"><ele>399.0</ele><time>2026-04-22T09:53:26.302Z</time></trkpt><trkpt lat="45.5470183" lon="10.994195"><ele>399.0</ele><time>2026-04-22T09:55:07.301Z</time></trkpt><trkpt lat="45.5470583" lon="10.9941017"><ele>399.0</ele><time>2026-04-22T09:55:35.344Z</time></trkpt><trkpt lat="45.5471833" lon="10.9940717"><ele>398.4</ele><time>2026-04-22T09:55:44.345Z</time></trkpt><trkpt lat="45.5470967" lon="10.9940633"><ele>397.79999999999995</ele><time>2026-04-22T09:56:42.344Z</time></trkpt><trkpt lat="45.5470567" lon="10.9939817"><ele>397.20000000000005</ele><time>2026-04-22T09:56:52.344Z</time></trkpt><trkpt lat="45.5469849" lon="10.9940994"><ele>396.6</ele><time>2026-04-22T09:58:05.789Z</time></trkpt><trkpt lat="45.5471405" lon="10.994037"><ele>396.0</ele><time>2026-04-22T11:00:43.384Z</time></trkpt><trkpt lat="45.5471067" lon="10.9941244"><ele>396.6</ele><time>2026-04-22T11:02:51.337Z</time></trkpt><trkpt lat="45.5471186" lon="10.994223"><ele>397.20000000000005</ele><time>2026-04-22T11:03:05.338Z</time></trkpt><trkpt lat="45.5470426" lon="10.9942714"><ele>397.79999999999995</ele><time>2026-04-22T11:03:09.342Z</time></trkpt><trkpt lat="45.5471173" lon="10.9941222"><ele>398.4</ele><time>2026-04-22T11:03:10.348Z</time></trkpt><trkpt lat="45.5472123" lon="10.9939456"><ele>399.0</ele><time>2026-04-22T11:03:11.355Z</time></trkpt><trkpt lat="45.5472633" lon="10.9938876"><ele>398.1666666666667</ele><time>2026-04-22T11:03:12.362Z</time></trkpt><trkpt lat="45.54729" lon="10.9937778"><ele>397.33333333333337</ele><time>2026-04-22T11:03:13.368Z</time></trkpt><trkpt lat="45.5472798" lon="10.9936489"><ele>396.5</ele><time>2026-04-22T11:03:15.382Z</time></trkpt><trkpt lat="45.547317" lon="10.993566"><ele>395.6666666666667</ele><time>2026-04-22T11:03:17.395Z</time></trkpt><trkpt lat="45.5473812" lon="10.993485"><ele>394.83333333333337</ele><time>2026-04-22T11:03:19.408Z</time></trkpt><trkpt lat="45.5474674" lon="10.9934469"><ele>394.0</ele><time>2026-04-22T11:03:21.421Z</time></trkpt><trkpt lat="45.5474748" lon="10.99331"><ele>394.0</ele><time>2026-04-22T11:03:22.359Z</time></trkpt><trkpt lat="45.5475285" lon="10.9931075"><ele>394.0</ele><time>2026-04-22T11:03:23.337Z</time></trkpt><trkpt lat="45.5475688" lon="10.9929997"><ele>394.0</ele><time>2026-04-22T11:03:24.341Z</time></trkpt><trkpt lat="45.5476132" lon="10.992921"><ele>394.0</ele><time>2026-04-22T11:03:25.347Z</time></trkpt><trkpt lat="45.5476433" lon="10.9928118"><ele>394.0</ele><time>2026-04-22T11:03:27.36Z</time></trkpt><trkpt lat="45.5476117" lon="10.9928977"><ele>394.00000000000006</ele><time>2026-04-22T11:03:31.222Z</time></trkpt><trkpt lat="45.5475386" lon="10.9928883"><ele>394.0</ele><time>2026-04-22T11:03:35.414Z</time></trkpt><trkpt lat="45.5474583" lon="10.9929167"><ele>394.0</ele><time>2026-04-22T11:03:42.337Z</time></trkpt><trkpt lat="45.547395" lon="10.9929067"><ele>394.0</ele><time>2026-04-22T11:03:44.337Z</time></trkpt><trkpt lat="45.5472933" lon="10.9928483"><ele>394.00000000000006</ele><time>2026-04-22T11:03:46.337Z</time></trkpt><trkpt lat="45.5472117" lon="10.9928583"><ele>394.0</ele><time>2026-04-22T11:03:48.337Z</time></trkpt><trkpt lat="45.5471117" lon="10.99287"><ele>389.79999999999995</ele><time>2026-04-22T11:03:50.337Z</time></trkpt><trkpt lat="45.54704" lon="10.9928583"><ele>385.59999999999997</ele><time>2026-04-22T11:03:52.337Z</time></trkpt><trkpt lat="45.5469783" lon="10.992795"><ele>381.4</ele><time>2026-04-22T11:03:54.337Z</time></trkpt><trkpt lat="45.54692" lon="10.99269"><ele>377.2</ele><time>2026-04-22T11:03:57.338Z</time></trkpt><trkpt lat="45.5468583" lon="10.9926083"><ele>373.0</ele><time>2026-04-22T11:03:59.338Z</time></trkpt><trkpt lat="45.5467983" lon="10.9924083"><ele>371.0</ele><time>2026-04-22T11:04:12.337Z</time></trkpt><trkpt lat="45.54684" lon="10.9923317"><ele>369.0</ele><time>2026-04-22T11:04:23.337Z</time></trkpt><trkpt lat="45.5467733" lon="10.9922517"><ele>367.0</ele><time>2026-04-22T11:04:26.337Z</time></trkpt><trkpt lat="45.5466983" lon="10.9921617"><ele>365.0</ele><time>2026-04-22T11:04:28.337Z</time></trkpt><trkpt lat="45.5466417" lon="10.99212"><ele>363.0</ele><time>2026-04-22T11:04:29.338Z</time></trkpt><trkpt lat="45.5465783" lon="10.9920967"><ele>361.0</ele><time>2026-04-22T11:04:30.337Z</time></trkpt><trkpt lat="45.5465133" lon="10.9920567"><ele>361.0</ele><time>2026-04-22T11:04:31.337Z</time></trkpt><trkpt lat="45.5464417" lon="10.9920317"><ele>361.0</ele><time>2026-04-22T11:04:32.337Z</time></trkpt><trkpt lat="45.5463733" lon="10.992035"><ele>361.0</ele><time>2026-04-22T11:04:33.337Z</time></trkpt><trkpt lat="45.5462867" lon="10.99202"><ele>361.0</ele><time>2026-04-22T11:04:34.337Z</time></trkpt><trkpt lat="45.5461967" lon="10.9920067"><ele>361.0</ele><time>2026-04-22T11:04:35.337Z</time></trkpt><trkpt lat="45.5460933" lon="10.9920083"><ele>361.0</ele><time>2026-04-22T11:04:36.337Z</time></trkpt><trkpt lat="45.54601" lon="10.9920433"><ele>357.5</ele><time>2026-04-22T11:04:37.337Z</time></trkpt><trkpt lat="45.5459267" lon="10.992075"><ele>354.0</ele><time>2026-04-22T11:04:38.337Z</time></trkpt><trkpt lat="45.5458483" lon="10.9920783"><ele>350.5</ele><time>2026-04-22T11:04:39.338Z</time></trkpt><trkpt lat="45.5457733" lon="10.99209"><ele>347.0</ele><time>2026-04-22T11:04:40.337Z</time></trkpt><trkpt lat="45.5456983" lon="10.992105"><ele>343.5</ele><time>2026-04-22T11:04:41.337Z</time></trkpt><trkpt lat="45.5456317" lon="10.9921433"><ele>340.0</ele><time>2026-04-22T11:04:42.337Z</time></trkpt><trkpt lat="45.54557" lon="10.9921983"><ele>340.0</ele><time>2026-04-22T11:04:43.337Z</time></trkpt><trkpt lat="45.54551" lon="10.9922583"><ele>340.0</ele><time>2026-04-22T11:04:44.337Z</time></trkpt><trkpt lat="45.5454483" lon="10.9923233"><ele>340.0</ele><time>2026-04-22T11:04:45.337Z</time></trkpt><trkpt lat="45.5453783" lon="10.9924283"><ele>340.0</ele><time>2026-04-22T11:04:46.337Z</time></trkpt><trkpt lat="45.5453017" lon="10.9925133"><ele>340.0</ele><time>2026-04-22T11:04:47.337Z</time></trkpt><trkpt lat="45.5452283" lon="10.9926"><ele>340.0</ele><time>2026-04-22T11:04:48.337Z</time></trkpt><trkpt lat="45.5451667" lon="10.9926917"><ele>337.8333333333333</ele><time>2026-04-22T11:04:49.337Z</time></trkpt><trkpt lat="45.5451033" lon="10.9927967"><ele>335.66666666666663</ele><time>2026-04-22T11:04:50.337Z</time></trkpt><trkpt lat="45.54504" lon="10.9928883"><ele>333.5</ele><time>2026-04-22T11:04:51.337Z</time></trkpt><trkpt lat="45.5449783" lon="10.992975"><ele>331.3333333333333</ele><time>2026-04-22T11:04:52.337Z</time></trkpt><trkpt lat="45.5449217" lon="10.9930517"><ele>329.1666666666667</ele><time>2026-04-22T11:04:53.337Z</time></trkpt><trkpt lat="45.544865" lon="10.993145"><ele>327.0</ele><time>2026-04-22T11:04:54.337Z</time></trkpt><trkpt lat="45.5448083" lon="10.99325"><ele>328.8333333333333</ele><time>2026-04-22T11:04:55.337Z</time></trkpt><trkpt lat="45.5447517" lon="10.99336"><ele>330.6666666666667</ele><time>2026-04-22T11:04:56.337Z</time></trkpt><trkpt lat="45.5446983" lon="10.9934567"><ele>332.5</ele><time>2026-04-22T11:04:57.337Z</time></trkpt><trkpt lat="45.54465" lon="10.993555"><ele>334.33333333333337</ele><time>2026-04-22T11:04:58.337Z</time></trkpt><trkpt lat="45.54461" lon="10.9936483"><ele>336.1666666666667</ele><time>2026-04-22T11:04:59.337Z</time></trkpt><trkpt lat="45.5445733" lon="10.9937683"><ele>338.0</ele><time>2026-04-22T11:05:01.337Z</time></trkpt><trkpt lat="45.54463" lon="10.9938267"><ele>332.59999999999997</ele><time>2026-04-22T11:05:05.337Z</time></trkpt><trkpt lat="45.5445417" lon="10.993745"><ele>327.2</ele><time>2026-04-22T11:05:12.338Z</time></trkpt><trkpt lat="45.5444733" lon="10.9937567"><ele>321.8</ele><time>2026-04-22T11:05:13.337Z</time></trkpt><trkpt lat="45.5443517" lon="10.9937883"><ele>316.4</ele><time>2026-04-22T11:05:14.337Z</time></trkpt><trkpt lat="45.5442667" lon="10.9938367"><ele>311.0</ele><time>2026-04-22T11:05:15.337Z</time></trkpt><trkpt lat="45.54419" lon="10.993895"><ele>311.0</ele><time>2026-04-22T11:05:16.338Z</time></trkpt><trkpt lat="45.544125" lon="10.99395"><ele>311.0</ele><time>2026-04-22T11:05:17.337Z</time></trkpt><trkpt lat="45.5440733" lon="10.9940317"><ele>311.0</ele><time>2026-04-22T11:05:18.337Z</time></trkpt><trkpt lat="45.5440517" lon="10.9941617"><ele>311.0</ele><time>2026-04-22T11:05:19.337Z</time></trkpt><trkpt lat="45.5440183" lon="10.9942783"><ele>311.0</ele><time>2026-04-22T11:05:20.338Z</time></trkpt><trkpt lat="45.543995" lon="10.99439"><ele>311.0</ele><time>2026-04-22T11:05:21.337Z</time></trkpt><trkpt lat="45.5439933" lon="10.9945217"><ele>311.0</ele><time>2026-04-22T11:05:22.337Z</time></trkpt><trkpt lat="45.5440017" lon="10.994655"><ele>311.0</ele><time>2026-04-22T11:05:23.337Z</time></trkpt><trkpt lat="45.543995" lon="10.994775"><ele>311.0</ele><time>2026-04-22T11:05:24.337Z</time></trkpt><trkpt lat="45.543975" lon="10.9948767"><ele>311.0</ele><time>2026-04-22T11:05:25.337Z</time></trkpt><trkpt lat="45.5439533" lon="10.9950083"><ele>311.0</ele><time>2026-04-22T11:05:27.336Z</time></trkpt><trkpt lat="45.5439467" lon="10.99484"><ele>311.5</ele><time>2026-04-22T11:05:31.336Z</time></trkpt><trkpt lat="45.5439483" lon="10.994745"><ele>312.0</ele><time>2026-04-22T11:05:32.336Z</time></trkpt><trkpt lat="45.5439333" lon="10.9945367"><ele>312.5</ele><time>2026-04-22T11:05:33.336Z</time></trkpt><trkpt lat="45.5439033" lon="10.9943417"><ele>313.0</ele><time>2026-04-22T11:05:34.337Z</time></trkpt><trkpt lat="45.5439017" lon="10.9941783"><ele>312.6</ele><time>2026-04-22T11:05:35.336Z</time></trkpt><trkpt lat="45.54389" lon="10.9939733"><ele>312.20000000000005</ele><time>2026-04-22T11:05:36.336Z</time></trkpt><trkpt lat="45.54385" lon="10.993775"><ele>311.8</ele><time>2026-04-22T11:05:37.336Z</time></trkpt><trkpt lat="45.5438267" lon="10.993655"><ele>311.40000000000003</ele><time>2026-04-22T11:05:38.336Z</time></trkpt><trkpt lat="45.5437867" lon="10.99357"><ele>311.0</ele><time>2026-04-22T11:05:39.336Z</time></trkpt><trkpt lat="45.5437283" lon="10.9934833"><ele>311.0</ele><time>2026-04-22T11:05:41.336Z</time></trkpt><trkpt lat="45.5436917" lon="10.99366"><ele>311.0</ele><time>2026-04-22T11:05:43.336Z</time></trkpt><trkpt lat="45.5436983" lon="10.99375"><ele>311.0</ele><time>2026-04-22T11:05:44.336Z</time></trkpt><trkpt lat="45.543715" lon="10.9939083"><ele>311.0</ele><time>2026-04-22T11:05:45.336Z</time></trkpt><trkpt lat="45.5437117" lon="10.99404"><ele>311.0</ele><time>2026-04-22T11:05:46.336Z</time></trkpt><trkpt lat="45.5437233" lon="10.9941883"><ele>311.5</ele><time>2026-04-22T11:05:47.336Z</time></trkpt><trkpt lat="45.5437733" lon="10.994425"><ele>312.0</ele><time>2026-04-22T11:05:48.336Z</time></trkpt><trkpt lat="45.5437833" lon="10.9946083"><ele>312.5</ele><time>2026-04-22T11:05:49.337Z</time></trkpt><trkpt lat="45.5437617" lon="10.9947833"><ele>313.0</ele><time>2026-04-22T11:05:50.337Z</time></trkpt><trkpt lat="45.54373" lon="10.99496"><ele>303.5</ele><time>2026-04-22T11:05:51.337Z</time></trkpt><trkpt lat="45.5436717" lon="10.9951267"><ele>294.0</ele><time>2026-04-22T11:05:52.336Z</time></trkpt><trkpt lat="45.5435933" lon="10.9952567"><ele>284.5</ele><time>2026-04-22T11:05:53.336Z</time></trkpt><trkpt lat="45.5435333" lon="10.9953867"><ele>275.0</ele><time>2026-04-22T11:05:54.336Z</time></trkpt><trkpt lat="45.54348" lon="10.9955183"><ele>275.0</ele><time>2026-04-22T11:05:55.337Z</time></trkpt><trkpt lat="45.5434433" lon="10.995675"><ele>275.0</ele><time>2026-04-22T11:05:56.336Z</time></trkpt><trkpt lat="45.5434033" lon="10.995795"><ele>275.0</ele><time>2026-04-22T11:05:57.337Z</time></trkpt><trkpt lat="45.5434267" lon="10.9959467"><ele>275.0</ele><time>2026-04-22T11:05:58.336Z</time></trkpt><trkpt lat="45.5435233" lon="10.99604"><ele>275.0</ele><time>2026-04-22T11:05:59.336Z</time></trkpt><trkpt lat="45.5435983" lon="10.996175"><ele>275.0</ele><time>2026-04-22T11:06:00.336Z</time></trkpt><trkpt lat="45.54369" lon="10.996315"><ele>275.0</ele><time>2026-04-22T11:06:01.337Z</time></trkpt><trkpt lat="45.5437833" lon="10.996445"><ele>275.0</ele><time>2026-04-22T11:06:02.336Z</time></trkpt><trkpt lat="45.5438583" lon="10.9965933"><ele>275.0</ele><time>2026-04-22T11:06:03.337Z</time></trkpt><trkpt lat="45.5439283" lon="10.9967433"><ele>275.0</ele><time>2026-04-22T11:06:04.336Z</time></trkpt><trkpt lat="45.5439867" lon="10.9968867"><ele>275.0</ele><time>2026-04-22T11:06:05.336Z</time></trkpt><trkpt lat="45.5440367" lon="10.997035"><ele>275.0</ele><time>2026-04-22T11:06:06.336Z</time></trkpt><trkpt lat="45.5440867" lon="10.9971717"><ele>275.0</ele><time>2026-04-22T11:06:07.336Z</time></trkpt><trkpt lat="45.5441267" lon="10.9973217"><ele>275.0</ele><time>2026-04-22T11:06:08.336Z</time></trkpt><trkpt lat="45.544165" lon="10.9974617"><ele>275.0</ele><time>2026-04-22T11:06:09.336Z</time></trkpt><trkpt lat="45.5442117" lon="10.9976067"><ele>275.0</ele><time>2026-04-22T11:06:10.337Z</time></trkpt><trkpt lat="45.54427" lon="10.99775"><ele>275.0</ele><time>2026-04-22T11:06:11.336Z</time></trkpt><trkpt lat="45.5443467" lon="10.9978767"><ele>276.83333333333337</ele><time>2026-04-22T11:06:12.336Z</time></trkpt><trkpt lat="45.5444267" lon="10.9979567"><ele>278.6666666666667</ele><time>2026-04-22T11:06:13.336Z</time></trkpt><trkpt lat="45.5444883" lon="10.9980483"><ele>280.5</ele><time>2026-04-22T11:06:14.336Z</time></trkpt><trkpt lat="45.5445367" lon="10.9981467"><ele>282.3333333333333</ele><time>2026-04-22T11:06:15.337Z</time></trkpt><trkpt lat="45.54457" lon="10.9982283"><ele>284.16666666666663</ele><time>2026-04-22T11:06:16.336Z</time></trkpt><trkpt lat="45.5445933" lon="10.9983583"><ele>286.0</ele><time>2026-04-22T11:06:19.336Z</time></trkpt><trkpt lat="45.5444317" lon="10.9981633"><ele>276.66666666666663</ele><time>2026-04-22T11:06:21.336Z</time></trkpt><trkpt lat="45.5443067" lon="10.9979633"><ele>267.3333333333333</ele><time>2026-04-22T11:06:22.336Z</time></trkpt><trkpt lat="45.5442167" lon="10.997775"><ele>258.0</ele><time>2026-04-22T11:06:23.336Z</time></trkpt><trkpt lat="45.5441017" lon="10.997625"><ele>258.0</ele><time>2026-04-22T11:06:24.337Z</time></trkpt><trkpt lat="45.54402" lon="10.9974717"><ele>258.0</ele><time>2026-04-22T11:06:25.336Z</time></trkpt><trkpt lat="45.5439283" lon="10.99736"><ele>258.0</ele><time>2026-04-22T11:06:26.336Z</time></trkpt><trkpt lat="45.5438617" lon="10.99733"><ele>258.0</ele><time>2026-04-22T11:06:27.336Z</time></trkpt><trkpt lat="45.5438383" lon="10.99755"><ele>258.0</ele><time>2026-04-22T11:06:29.337Z</time></trkpt><trkpt lat="45.5439233" lon="10.997765"><ele>258.0</ele><time>2026-04-22T11:06:30.337Z</time></trkpt><trkpt lat="45.54397" lon="10.9979267"><ele>258.0</ele><time>2026-04-22T11:06:31.336Z</time></trkpt><trkpt lat="45.5440233" lon="10.9980733"><ele>258.0</ele><time>2026-04-22T11:06:32.336Z</time></trkpt><trkpt lat="45.5440483" lon="10.998205"><ele>257.1666666666667</ele><time>2026-04-22T11:06:33.336Z</time></trkpt><trkpt lat="45.544065" lon="10.9983533"><ele>256.3333333333333</ele><time>2026-04-22T11:06:34.336Z</time></trkpt><trkpt lat="45.54407" lon="10.99847"><ele>255.5</ele><time>2026-04-22T11:06:35.336Z</time></trkpt><trkpt lat="45.5440317" lon="10.9985767"><ele>254.66666666666666</ele><time>2026-04-22T11:06:36.337Z</time></trkpt><trkpt lat="45.5439733" lon="10.9986433"><ele>253.83333333333331</ele><time>2026-04-22T11:06:37.336Z</time></trkpt><trkpt lat="45.543935" lon="10.9987183"><ele>253.0</ele><time>2026-04-22T11:06:38.337Z</time></trkpt><trkpt lat="45.5439167" lon="10.9988283"><ele>252.99999999999997</ele><time>2026-04-22T11:06:39.336Z</time></trkpt><trkpt lat="45.5439083" lon="10.9989467"><ele>253.0</ele><time>2026-04-22T11:06:40.336Z</time></trkpt><trkpt lat="45.5438667" lon="10.9990417"><ele>253.0</ele><time>2026-04-22T11:06:42.336Z</time></trkpt><trkpt lat="45.543895" lon="10.999125"><ele>253.0</ele><time>2026-04-22T11:07:10.336Z</time></trkpt><trkpt lat="45.5439633" lon="10.99929"><ele>252.99999999999997</ele><time>2026-04-22T11:07:12.336Z</time></trkpt><trkpt lat="45.544005" lon="10.9993933"><ele>253.0</ele><time>2026-04-22T11:07:13.336Z</time></trkpt><trkpt lat="45.5440467" lon="10.9995117"><ele>250.75</ele><time>2026-04-22T11:07:14.337Z</time></trkpt><trkpt lat="45.5441233" lon="10.9996733"><ele>248.5</ele><time>2026-04-22T11:07:15.336Z</time></trkpt><trkpt lat="45.5441933" lon="10.9998017"><ele>246.25</ele><time>2026-04-22T11:07:16.336Z</time></trkpt><trkpt lat="45.54426" lon="10.9999567"><ele>244.0</ele><time>2026-04-22T11:07:17.336Z</time></trkpt><trkpt lat="45.5443267" lon="11.0001267"><ele>244.0</ele><time>2026-04-22T11:07:18.337Z</time></trkpt><trkpt lat="45.5443633" lon="11.0002567"><ele>243.99999999999997</ele><time>2026-04-22T11:07:19.336Z</time></trkpt><trkpt lat="45.5443983" lon="11.000435"><ele>243.99999999999997</ele><time>2026-04-22T11:07:20.336Z</time></trkpt><trkpt lat="45.5444133" lon="11.00058"><ele>244.0</ele><time>2026-04-22T11:07:21.336Z</time></trkpt><trkpt lat="45.5444033" lon="11.000725"><ele>244.0</ele><time>2026-04-22T11:07:22.336Z</time></trkpt><trkpt lat="45.54437" lon="11.0008783"><ele>242.0</ele><time>2026-04-22T11:07:23.336Z</time></trkpt><trkpt lat="45.5443167" lon="11.00103"><ele>240.0</ele><time>2026-04-22T11:07:24.336Z</time></trkpt><trkpt lat="45.5442433" lon="11.0011867"><ele>238.0</ele><time>2026-04-22T11:07:25.336Z</time></trkpt><trkpt lat="45.54415" lon="11.0013517"><ele>236.0</ele><time>2026-04-22T11:07:26.336Z</time></trkpt><trkpt lat="45.5440867" lon="11.0015267"><ele>235.0</ele><time>2026-04-22T11:07:27.336Z</time></trkpt><trkpt lat="45.5440233" lon="11.0016967"><ele>234.0</ele><time>2026-04-22T11:07:28.336Z</time></trkpt><trkpt lat="45.54398" lon="11.0018967"><ele>233.0</ele><time>2026-04-22T11:07:29.336Z</time></trkpt><trkpt lat="45.54397" lon="11.0020583"><ele>232.0</ele><time>2026-04-22T11:07:30.337Z</time></trkpt><trkpt lat="45.5439733" lon="11.00224"><ele>232.0</ele><time>2026-04-22T11:07:31.336Z</time></trkpt><trkpt lat="45.5439717" lon="11.00241"><ele>232.0</ele><time>2026-04-22T11:07:32.336Z</time></trkpt><trkpt lat="45.54397" lon="11.0025683"><ele>232.0</ele><time>2026-04-22T11:07:33.336Z</time></trkpt><trkpt lat="45.5439867" lon="11.002695"><ele>232.0</ele><time>2026-04-22T11:07:34.336Z</time></trkpt><trkpt lat="45.5440117" lon="11.0028"><ele>232.0</ele><time>2026-04-22T11:07:36.337Z</time></trkpt><trkpt lat="45.544045" lon="11.0028917"><ele>231.39999999999998</ele><time>2026-04-22T11:07:39.337Z</time></trkpt><trkpt lat="45.5441567" lon="11.0029367"><ele>230.79999999999998</ele><time>2026-04-22T11:07:42.336Z</time></trkpt><trkpt lat="45.5442383" lon="11.00293"><ele>230.2</ele><time>2026-04-22T11:07:43.336Z</time></trkpt><trkpt lat="45.54433" lon="11.0029083"><ele>229.6</ele><time>2026-04-22T11:07:44.337Z</time></trkpt><trkpt lat="45.5444067" lon="11.0029"><ele>229.0</ele><time>2026-04-22T11:07:45.336Z</time></trkpt><trkpt lat="45.5445117" lon="11.0029017"><ele>230.25</ele><time>2026-04-22T11:07:46.336Z</time></trkpt><trkpt lat="45.5446267" lon="11.0029"><ele>231.5</ele><time>2026-04-22T11:07:47.336Z</time></trkpt><trkpt lat="45.5447483" lon="11.002885"><ele>232.75</ele><time>2026-04-22T11:07:48.337Z</time></trkpt><trkpt lat="45.5448583" lon="11.0028733"><ele>234.0</ele><time>2026-04-22T11:07:49.336Z</time></trkpt><trkpt lat="45.54497" lon="11.0028583"><ele>234.0</ele><time>2026-04-22T11:07:50.336Z</time></trkpt><trkpt lat="45.5450867" lon="11.0028433"><ele>233.99999999999997</ele><time>2026-04-22T11:07:51.336Z</time></trkpt><trkpt lat="45.5452083" lon="11.0028433"><ele>233.99999999999997</ele><time>2026-04-22T11:07:52.336Z</time></trkpt><trkpt lat="45.5453167" lon="11.00284"><ele>234.0</ele><time>2026-04-22T11:07:53.336Z</time></trkpt><trkpt lat="45.545415" lon="11.00285"><ele>234.0</ele><time>2026-04-22T11:07:54.336Z</time></trkpt><trkpt lat="45.5455217" lon="11.0028783"><ele>234.2</ele><time>2026-04-22T11:07:55.337Z</time></trkpt><trkpt lat="45.5456183" lon="11.0029217"><ele>234.39999999999998</ele><time>2026-04-22T11:07:56.336Z</time></trkpt><trkpt lat="45.545715" lon="11.00296"><ele>234.6</ele><time>2026-04-22T11:07:57.336Z</time></trkpt><trkpt lat="45.5458033" lon="11.0030083"><ele>234.8</ele><time>2026-04-22T11:07:58.336Z</time></trkpt><trkpt lat="45.545895" lon="11.00307"><ele>235.0</ele><time>2026-04-22T11:07:59.336Z</time></trkpt><trkpt lat="45.5459933" lon="11.0031767"><ele>235.0</ele><time>2026-04-22T11:08:00.336Z</time></trkpt><trkpt lat="45.546095" lon="11.0032633"><ele>235.0</ele><time>2026-04-22T11:08:01.336Z</time></trkpt><trkpt lat="45.5461917" lon="11.00336"><ele>235.0</ele><time>2026-04-22T11:08:02.336Z</time></trkpt><trkpt lat="45.5463" lon="11.0034417"><ele>235.0</ele><time>2026-04-22T11:08:03.337Z</time></trkpt><trkpt lat="45.5464133" lon="11.0035383"><ele>235.4</ele><time>2026-04-22T11:08:04.336Z</time></trkpt><trkpt lat="45.546515" lon="11.0036133"><ele>235.8</ele><time>2026-04-22T11:08:05.336Z</time></trkpt><trkpt lat="45.546595" lon="11.0036833"><ele>236.2</ele><time>2026-04-22T11:08:06.336Z</time></trkpt><trkpt lat="45.546685" lon="11.0037417"><ele>236.6</ele><time>2026-04-22T11:08:07.336Z</time></trkpt><trkpt lat="45.5467967" lon="11.0038"><ele>237.0</ele><time>2026-04-22T11:08:08.337Z</time></trkpt><trkpt lat="45.5468917" lon="11.00384"><ele>237.0</ele><time>2026-04-22T11:08:09.336Z</time></trkpt><trkpt lat="45.5469933" lon="11.00388"><ele>237.0</ele><time>2026-04-22T11:08:10.336Z</time></trkpt><trkpt lat="45.5471267" lon="11.00391"><ele>237.0</ele><time>2026-04-22T11:08:11.336Z</time></trkpt><trkpt lat="45.54727" lon="11.00391"><ele>237.0</ele><time>2026-04-22T11:08:12.337Z</time></trkpt><trkpt lat="45.5474167" lon="11.0039017"><ele>237.5</ele><time>2026-04-22T11:08:13.336Z</time></trkpt><trkpt lat="45.5475417" lon="11.00389"><ele>238.0</ele><time>2026-04-22T11:08:14.336Z</time></trkpt><trkpt lat="45.54765" lon="11.003865"><ele>238.5</ele><time>2026-04-22T11:08:15.336Z</time></trkpt><trkpt lat="45.5477767" lon="11.0038383"><ele>239.0</ele><time>2026-04-22T11:08:16.336Z</time></trkpt><trkpt lat="45.5478983" lon="11.00382"><ele>239.2</ele><time>2026-04-22T11:08:17.336Z</time></trkpt><trkpt lat="45.548015" lon="11.0038283"><ele>239.39999999999998</ele><time>2026-04-22T11:08:18.336Z</time></trkpt><trkpt lat="45.5481233" lon="11.0039"><ele>239.6</ele><time>2026-04-22T11:08:20.336Z</time></trkpt><trkpt lat="45.5481783" lon="11.004005"><ele>239.8</ele><time>2026-04-22T11:08:22.335Z</time></trkpt><trkpt lat="45.5482283" lon="11.00408"><ele>240.0</ele><time>2026-04-22T11:08:23.335Z</time></trkpt><trkpt lat="45.54828" lon="11.004135"><ele>240.0</ele><time>2026-04-22T11:08:24.335Z</time></trkpt><trkpt lat="45.5483367" lon="11.004175"><ele>240.0</ele><time>2026-04-22T11:08:25.336Z</time></trkpt><trkpt lat="45.548465" lon="11.004145"><ele>240.0</ele><time>2026-04-22T11:08:27.336Z</time></trkpt><trkpt lat="45.548535" lon="11.0041267"><ele>240.0</ele><time>2026-04-22T11:08:28.335Z</time></trkpt><trkpt lat="45.5486017" lon="11.0041267"><ele>240.0</ele><time>2026-04-22T11:08:29.336Z</time></trkpt><trkpt lat="45.548695" lon="11.0040583"><ele>240.0</ele><time>2026-04-22T11:08:30.336Z</time></trkpt><trkpt lat="45.5488133" lon="11.00399"><ele>240.5</ele><time>2026-04-22T11:08:31.335Z</time></trkpt><trkpt lat="45.548915" lon="11.0039367"><ele>241.0</ele><time>2026-04-22T11:08:32.335Z</time></trkpt><trkpt lat="45.549035" lon="11.0038667"><ele>241.5</ele><time>2026-04-22T11:08:33.335Z</time></trkpt><trkpt lat="45.5491567" lon="11.003815"><ele>242.0</ele><time>2026-04-22T11:08:34.335Z</time></trkpt><trkpt lat="45.5492917" lon="11.0037633"><ele>242.0</ele><time>2026-04-22T11:08:35.335Z</time></trkpt><trkpt lat="45.54942" lon="11.00371"><ele>242.0</ele><time>2026-04-22T11:08:36.336Z</time></trkpt><trkpt lat="45.5495383" lon="11.0036517"><ele>242.0</ele><time>2026-04-22T11:08:37.336Z</time></trkpt><trkpt lat="45.5496733" lon="11.003585"><ele>242.0</ele><time>2026-04-22T11:08:38.335Z</time></trkpt><trkpt lat="45.5498067" lon="11.0035233"><ele>242.66666666666669</ele><time>2026-04-22T11:08:39.335Z</time></trkpt><trkpt lat="45.5499467" lon="11.0034633"><ele>243.33333333333331</ele><time>2026-04-22T11:08:40.335Z</time></trkpt><trkpt lat="45.5500867" lon="11.0034067"><ele>244.0</ele><time>2026-04-22T11:08:41.335Z</time></trkpt><trkpt lat="45.550245" lon="11.0033567"><ele>244.5</ele><time>2026-04-22T11:08:42.335Z</time></trkpt><trkpt lat="45.550385" lon="11.003295"><ele>245.0</ele><time>2026-04-22T11:08:43.335Z</time></trkpt><trkpt lat="45.5505317" lon="11.0031967"><ele>245.5</ele><time>2026-04-22T11:08:44.335Z</time></trkpt><trkpt lat="45.5506533" lon="11.0031567"><ele>246.0</ele><time>2026-04-22T11:08:45.335Z</time></trkpt><trkpt lat="45.5507883" lon="11.003105"><ele>246.0</ele><time>2026-04-22T11:08:46.335Z</time></trkpt><trkpt lat="45.5509317" lon="11.00307"><ele>246.0</ele><time>2026-04-22T11:08:47.335Z</time></trkpt><trkpt lat="45.55107" lon="11.0030417"><ele>246.0</ele><time>2026-04-22T11:08:48.335Z</time></trkpt><trkpt lat="45.5512267" lon="11.0030383"><ele>246.0</ele><time>2026-04-22T11:08:49.335Z</time></trkpt><trkpt lat="45.5513667" lon="11.0030217"><ele>246.20000000000002</ele><time>2026-04-22T11:08:50.335Z</time></trkpt><trkpt lat="45.5514883" lon="11.0029967"><ele>246.40000000000003</ele><time>2026-04-22T11:08:51.335Z</time></trkpt><trkpt lat="45.5515867" lon="11.00297"><ele>246.6</ele><time>2026-04-22T11:08:52.335Z</time></trkpt><trkpt lat="45.551685" lon="11.002955"><ele>246.8</ele><time>2026-04-22T11:08:53.335Z</time></trkpt><trkpt lat="45.5517583" lon="11.0029283"><ele>247.0</ele><time>2026-04-22T11:08:54.335Z</time></trkpt><trkpt lat="45.551855" lon="11.0029267"><ele>247.0</ele><time>2026-04-22T11:08:59.335Z</time></trkpt><trkpt lat="45.5519367" lon="11.00292"><ele>247.0</ele><time>2026-04-22T11:09:01.335Z</time></trkpt><trkpt lat="45.5520317" lon="11.002945"><ele>247.0</ele><time>2026-04-22T11:09:03.335Z</time></trkpt><trkpt lat="45.552105" lon="11.0031017"><ele>247.0</ele><time>2026-04-22T11:09:05.335Z</time></trkpt><trkpt lat="45.5521033" lon="11.003305"><ele>248.8</ele><time>2026-04-22T11:09:06.335Z</time></trkpt><trkpt lat="45.5521083" lon="11.003475"><ele>250.6</ele><time>2026-04-22T11:09:07.335Z</time></trkpt><trkpt lat="45.5521283" lon="11.0036217"><ele>252.40000000000003</ele><time>2026-04-22T11:09:08.335Z</time></trkpt><trkpt lat="45.5521583" lon="11.0037517"><ele>254.20000000000002</ele><time>2026-04-22T11:09:09.335Z</time></trkpt><trkpt lat="45.552155" lon="11.0038583"><ele>256.0</ele><time>2026-04-22T11:09:10.335Z</time></trkpt><trkpt lat="45.5521833" lon="11.00395"><ele>256.0</ele><time>2026-04-22T11:09:11.336Z</time></trkpt><trkpt lat="45.55222" lon="11.0040233"><ele>256.0</ele><time>2026-04-22T11:09:12.335Z</time></trkpt><trkpt lat="45.5523533" lon="11.00399"><ele>256.0</ele><time>2026-04-22T11:09:14.336Z</time></trkpt><trkpt lat="45.55246" lon="11.003965"><ele>256.0</ele><time>2026-04-22T11:09:15.336Z</time></trkpt><trkpt lat="45.552595" lon="11.0039333"><ele>256.0</ele><time>2026-04-22T11:09:16.335Z</time></trkpt><trkpt lat="45.552725" lon="11.0039133"><ele>256.0</ele><time>2026-04-22T11:09:17.335Z</time></trkpt><trkpt lat="45.5528683" lon="11.003885"><ele>256.0</ele><time>2026-04-22T11:09:18.336Z</time></trkpt><trkpt lat="45.553005" lon="11.00385"><ele>256.0</ele><time>2026-04-22T11:09:19.335Z</time></trkpt><trkpt lat="45.5531367" lon="11.0038133"><ele>256.0</ele><time>2026-04-22T11:09:20.335Z</time></trkpt><trkpt lat="45.5532617" lon="11.0037833"><ele>256.8</ele><time>2026-04-22T11:09:21.335Z</time></trkpt><trkpt lat="45.5533817" lon="11.0037633"><ele>257.6</ele><time>2026-04-22T11:09:22.335Z</time></trkpt><trkpt lat="45.5534767" lon="11.0037417"><ele>258.4</ele><time>2026-04-22T11:09:23.335Z</time></trkpt><trkpt lat="45.5535833" lon="11.0037"><ele>259.2</ele><time>2026-04-22T11:09:25.335Z</time></trkpt><trkpt lat="45.5536483" lon="11.00373"><ele>260.0</ele><time>2026-04-22T11:09:26.335Z</time></trkpt><trkpt lat="45.553725" lon="11.0037733"><ele>260.6</ele><time>2026-04-22T11:09:27.335Z</time></trkpt><trkpt lat="45.55381" lon="11.00385"><ele>261.2</ele><time>2026-04-22T11:09:28.335Z</time></trkpt><trkpt lat="45.5538817" lon="11.003945"><ele>261.8</ele><time>2026-04-22T11:09:29.335Z</time></trkpt><trkpt lat="45.5539583" lon="11.0040517"><ele>262.4</ele><time>2026-04-22T11:09:30.336Z</time></trkpt><trkpt lat="45.5540317" lon="11.004155"><ele>263.0</ele><time>2026-04-22T11:09:31.335Z</time></trkpt><trkpt lat="45.554105" lon="11.004265"><ele>264.0</ele><time>2026-04-22T11:09:32.335Z</time></trkpt><trkpt lat="45.5541783" lon="11.0043617"><ele>265.0</ele><time>2026-04-22T11:09:33.335Z</time></trkpt><trkpt lat="45.5542633" lon="11.00446"><ele>266.0</ele><time>2026-04-22T11:09:34.335Z</time></trkpt><trkpt lat="45.5543483" lon="11.0045433"><ele>267.0</ele><time>2026-04-22T11:09:35.336Z</time></trkpt><trkpt lat="45.554435" lon="11.0046133"><ele>268.0</ele><time>2026-04-22T11:09:36.335Z</time></trkpt><trkpt lat="45.5545267" lon="11.0046833"><ele>272.3333333333333</ele><time>2026-04-22T11:09:37.335Z</time></trkpt><trkpt lat="45.5546083" lon="11.0047533"><ele>276.66666666666663</ele><time>2026-04-22T11:09:38.335Z</time></trkpt><trkpt lat="45.554685" lon="11.0048033"><ele>281.0</ele><time>2026-04-22T11:09:39.335Z</time></trkpt><trkpt lat="45.5547467" lon="11.0048517"><ele>285.3333333333333</ele><time>2026-04-22T11:09:40.335Z</time></trkpt><trkpt lat="45.5548" lon="11.00491"><ele>289.6666666666667</ele><time>2026-04-22T11:09:41.336Z</time></trkpt><trkpt lat="45.5548767" lon="11.0049717"><ele>294.0</ele><time>2026-04-22T11:09:43.335Z</time></trkpt><trkpt lat="45.5549367" lon="11.00504"><ele>294.0</ele><time>2026-04-22T11:09:45.335Z</time></trkpt><trkpt lat="45.5550117" lon="11.0050233"><ele>294.0</ele><time>2026-04-22T11:09:49.336Z</time></trkpt><trkpt lat="45.5550733" lon="11.0049767"><ele>294.0</ele><time>2026-04-22T11:09:51.335Z</time></trkpt><trkpt lat="45.5551483" lon="11.0048567"><ele>294.0</ele><time>2026-04-22T11:09:53.335Z</time></trkpt><trkpt lat="45.5552117" lon="11.00475"><ele>294.0</ele><time>2026-04-22T11:09:55.335Z</time></trkpt><trkpt lat="45.555275" lon="11.004675"><ele>294.0</ele><time>2026-04-22T11:09:57.335Z</time></trkpt><trkpt lat="45.5553033" lon="11.0045783"><ele>294.0</ele><time>2026-04-22T11:09:59.335Z</time></trkpt><trkpt lat="45.555335" lon="11.00448"><ele>294.0</ele><time>2026-04-22T11:10:01.335Z</time></trkpt><trkpt lat="45.5553467" lon="11.0043183"><ele>294.0</ele><time>2026-04-22T11:10:03.335Z</time></trkpt><trkpt lat="45.5553817" lon="11.0041933"><ele>294.0</ele><time>2026-04-22T11:10:05.336Z</time></trkpt><trkpt lat="45.5554267" lon="11.00408"><ele>294.0</ele><time>2026-04-22T11:10:07.336Z</time></trkpt><trkpt lat="45.5554133" lon="11.003985"><ele>294.0</ele><time>2026-04-22T11:10:08.335Z</time></trkpt><trkpt lat="45.5554167" lon="11.0038383"><ele>298.6666666666667</ele><time>2026-04-22T11:10:10.336Z</time></trkpt><trkpt lat="45.5554336" lon="11.0037201"><ele>303.3333333333333</ele><time>2026-04-22T11:10:12.335Z</time></trkpt><trkpt lat="45.5554686" lon="11.0036434"><ele>308.0</ele><time>2026-04-22T11:10:15.335Z</time></trkpt><trkpt lat="45.5555266" lon="11.0035602"><ele>312.66666666666663</ele><time>2026-04-22T11:10:21.393Z</time></trkpt><trkpt lat="45.5555736" lon="11.0034946"><ele>317.3333333333333</ele><time>2026-04-22T11:10:24.407Z</time></trkpt><trkpt lat="45.5556492" lon="11.0034368"><ele>322.0</ele><time>2026-04-22T11:10:27.335Z</time></trkpt><trkpt lat="45.5557012" lon="11.0033662"><ele>318.0</ele><time>2026-04-22T11:10:29.339Z</time></trkpt><trkpt lat="45.5557682" lon="11.003311"><ele>314.0</ele><time>2026-04-22T11:10:31.447Z</time></trkpt><trkpt lat="45.5558261" lon="11.0032371"><ele>310.0</ele><time>2026-04-22T11:10:33.366Z</time></trkpt><trkpt lat="45.5559036" lon="11.0032032"><ele>306.0</ele><time>2026-04-22T11:10:35.379Z</time></trkpt><trkpt lat="45.5559883" lon="11.0031746"><ele>302.0</ele><time>2026-04-22T11:10:37.312Z</time></trkpt><trkpt lat="45.5561014" lon="11.0032625"><ele>302.0</ele><time>2026-04-22T11:10:38.399Z</time></trkpt><trkpt lat="45.5561932" lon="11.0032789"><ele>302.0</ele><time>2026-04-22T11:10:39.405Z</time></trkpt><trkpt lat="45.5562924" lon="11.0032867"><ele>302.0</ele><time>2026-04-22T11:10:41.335Z</time></trkpt><trkpt lat="45.5563723" lon="11.0032839"><ele>302.0</ele><time>2026-04-22T11:10:43.335Z</time></trkpt><trkpt lat="45.5564366" lon="11.0032404"><ele>302.0</ele><time>2026-04-22T11:10:45.275Z</time></trkpt><trkpt lat="45.5565104" lon="11.0032124"><ele>302.0</ele><time>2026-04-22T11:10:48.365Z</time></trkpt><trkpt lat="45.5566323" lon="11.0031777"><ele>306.33333333333337</ele><time>2026-04-22T11:10:53.335Z</time></trkpt><trkpt lat="45.5567104" lon="11.0031793"><ele>310.6666666666667</ele><time>2026-04-22T11:10:54.335Z</time></trkpt><trkpt lat="45.5567789" lon="11.003171"><ele>315.0</ele><time>2026-04-22T11:10:55.335Z</time></trkpt><trkpt lat="45.5569046" lon="11.0031659"><ele>319.3333333333333</ele><time>2026-04-22T11:10:57.335Z</time></trkpt><trkpt lat="45.556996" lon="11.0031575"><ele>323.66666666666663</ele><time>2026-04-22T11:10:59.336Z</time></trkpt><trkpt lat="45.5570629" lon="11.0032026"><ele>328.0</ele><time>2026-04-22T11:11:01.335Z</time></trkpt><trkpt lat="45.557101" lon="11.0032886"><ele>333.8333333333333</ele><time>2026-04-22T11:11:03.335Z</time></trkpt><trkpt lat="45.5571604" lon="11.0033533"><ele>339.66666666666663</ele><time>2026-04-22T11:11:04.336Z</time></trkpt><trkpt lat="45.5572171" lon="11.0034214"><ele>345.5</ele><time>2026-04-22T11:11:05.335Z</time></trkpt><trkpt lat="45.5572774" lon="11.0034858"><ele>351.3333333333333</ele><time>2026-04-22T11:11:06.335Z</time></trkpt><trkpt lat="45.5573649" lon="11.0035422"><ele>357.1666666666667</ele><time>2026-04-22T11:11:08.335Z</time></trkpt><trkpt lat="45.5574515" lon="11.0035774"><ele>363.0</ele><time>2026-04-22T11:11:10.335Z</time></trkpt><trkpt lat="45.5575263" lon="11.0036404"><ele>362.99999999999994</ele><time>2026-04-22T11:11:13.335Z</time></trkpt><trkpt lat="45.5575987" lon="11.0036316"><ele>363.0</ele><time>2026-04-22T11:11:17.334Z</time></trkpt><trkpt lat="45.5576603" lon="11.0035862"><ele>363.0</ele><time>2026-04-22T11:11:19.334Z</time></trkpt><trkpt lat="45.55773" lon="11.0035396"><ele>363.0</ele><time>2026-04-22T11:11:21.334Z</time></trkpt><trkpt lat="45.5578171" lon="11.0035499"><ele>363.0</ele><time>2026-04-22T11:11:24.334Z</time></trkpt><trkpt lat="45.5578626" lon="11.0036248"><ele>362.99999999999994</ele><time>2026-04-22T11:11:27.335Z</time></trkpt><trkpt lat="45.5579152" lon="11.0036834"><ele>363.0</ele><time>2026-04-22T11:11:31.334Z</time></trkpt><trkpt lat="45.5579809" lon="11.003742"><ele>363.4285714285714</ele><time>2026-04-22T11:11:34.334Z</time></trkpt><trkpt lat="45.5580466" lon="11.0037825"><ele>363.85714285714283</ele><time>2026-04-22T11:11:37.334Z</time></trkpt><trkpt lat="45.5580887" lon="11.0038508"><ele>364.2857142857143</ele><time>2026-04-22T11:11:40.335Z</time></trkpt><trkpt lat="45.5581334" lon="11.0039191"><ele>364.71428571428567</ele><time>2026-04-22T11:11:44.334Z</time></trkpt><trkpt lat="45.5581592" lon="11.0040196"><ele>365.14285714285717</ele><time>2026-04-22T11:11:49.334Z</time></trkpt><trkpt lat="45.5582086" lon="11.0040812"><ele>365.57142857142856</ele><time>2026-04-22T11:11:50.334Z</time></trkpt><trkpt lat="45.558284" lon="11.0041452"><ele>366.0</ele><time>2026-04-22T11:11:53.334Z</time></trkpt><trkpt lat="45.558353" lon="11.0042001"><ele>368.5</ele><time>2026-04-22T11:11:56.334Z</time></trkpt><trkpt lat="45.5584087" lon="11.0042527"><ele>371.0</ele><time>2026-04-22T11:11:58.334Z</time></trkpt><trkpt lat="45.5584785" lon="11.0042995"><ele>373.5</ele><time>2026-04-22T11:12:00.335Z</time></trkpt><trkpt lat="45.5585436" lon="11.0043407"><ele>376.0</ele><time>2026-04-22T11:12:02.334Z</time></trkpt><trkpt lat="45.5586094" lon="11.0043513"><ele>378.5</ele><time>2026-04-22T11:12:05.334Z</time></trkpt><trkpt lat="45.5587237" lon="11.0043593"><ele>381.0</ele><time>2026-04-22T11:12:19.334Z</time></trkpt><trkpt lat="45.5587985" lon="11.0043271"><ele>381.1666666666667</ele><time>2026-04-22T11:12:28.335Z</time></trkpt><trkpt lat="45.5588645" lon="11.004351"><ele>381.3333333333333</ele><time>2026-04-22T11:12:34.334Z</time></trkpt><trkpt lat="45.5589283" lon="11.004407"><ele>381.5</ele><time>2026-04-22T11:12:36.335Z</time></trkpt><trkpt lat="45.5590167" lon="11.004533"><ele>381.66666666666663</ele><time>2026-04-22T11:12:38.334Z</time></trkpt><trkpt lat="45.559057" lon="11.0046279"><ele>381.8333333333333</ele><time>2026-04-22T11:12:40.334Z</time></trkpt><trkpt lat="45.5590922" lon="11.0047134"><ele>382.0</ele><time>2026-04-22T11:12:42.334Z</time></trkpt><trkpt lat="45.5591085" lon="11.0048227"><ele>382.0</ele><time>2026-04-22T11:12:45.334Z</time></trkpt><trkpt lat="45.5591128" lon="11.0049499"><ele>382.0</ele><time>2026-04-22T11:13:50.334Z</time></trkpt><trkpt lat="45.5591583" lon="11.005027"><ele>382.0</ele><time>2026-04-22T11:13:52.334Z</time></trkpt><trkpt lat="45.5592143" lon="11.0051376"><ele>382.0</ele><time>2026-04-22T11:13:54.334Z</time></trkpt><trkpt lat="45.5592934" lon="11.0052828"><ele>382.0</ele><time>2026-04-22T11:13:56.334Z</time></trkpt><trkpt lat="45.5593396" lon="11.0053704"><ele>384.8333333333333</ele><time>2026-04-22T11:13:57.334Z</time></trkpt><trkpt lat="45.5593889" lon="11.0054539"><ele>387.66666666666663</ele><time>2026-04-22T11:13:58.334Z</time></trkpt><trkpt lat="45.5594492" lon="11.0055354"><ele>390.5</ele><time>2026-04-22T11:13:59.334Z</time></trkpt><trkpt lat="45.5594964" lon="11.0056139"><ele>393.3333333333333</ele><time>2026-04-22T11:14:00.335Z</time></trkpt><trkpt lat="45.5595327" lon="11.0057006"><ele>396.1666666666667</ele><time>2026-04-22T11:14:01.335Z</time></trkpt><trkpt lat="45.5596198" lon="11.0058323"><ele>399.0</ele><time>2026-04-22T11:14:03.334Z</time></trkpt><trkpt lat="45.5596626" lon="11.0059014"><ele>400.79999999999995</ele><time>2026-04-22T11:14:04.334Z</time></trkpt><trkpt lat="45.559736" lon="11.0060538"><ele>402.59999999999997</ele><time>2026-04-22T11:14:06.334Z</time></trkpt><trkpt lat="45.559775" lon="11.0061576"><ele>404.4</ele><time>2026-04-22T11:14:07.334Z</time></trkpt><trkpt lat="45.5598103" lon="11.006262"><ele>406.2</ele><time>2026-04-22T11:14:08.334Z</time></trkpt><trkpt lat="45.5598385" lon="11.006354"><ele>408.0</ele><time>2026-04-22T11:14:09.334Z</time></trkpt><trkpt lat="45.5598864" lon="11.0065152"><ele>408.0</ele><time>2026-04-22T11:14:11.334Z</time></trkpt><trkpt lat="45.5599437" lon="11.0066558"><ele>408.0</ele><time>2026-04-22T11:14:13.334Z</time></trkpt><trkpt lat="45.5599856" lon="11.0067522"><ele>408.0</ele><time>2026-04-22T11:14:15.333Z</time></trkpt><trkpt lat="45.559954" lon="11.0068324"><ele>408.0</ele><time>2026-04-22T11:14:18.333Z</time></trkpt><trkpt lat="45.5598158" lon="11.0068464"><ele>408.0</ele><time>2026-04-22T11:14:20.333Z</time></trkpt><trkpt lat="45.55971" lon="11.0068602"><ele>412.1666666666667</ele><time>2026-04-22T11:14:21.333Z</time></trkpt><trkpt lat="45.5596256" lon="11.0068755"><ele>416.33333333333337</ele><time>2026-04-22T11:14:22.333Z</time></trkpt><trkpt lat="45.5595322" lon="11.0068404"><ele>420.5</ele><time>2026-04-22T11:14:23.334Z</time></trkpt><trkpt lat="45.559448" lon="11.0068303"><ele>424.6666666666667</ele><time>2026-04-22T11:14:24.333Z</time></trkpt><trkpt lat="45.5593657" lon="11.0068192"><ele>428.83333333333337</ele><time>2026-04-22T11:14:25.333Z</time></trkpt><trkpt lat="45.5592904" lon="11.0067981"><ele>433.0</ele><time>2026-04-22T11:14:26.334Z</time></trkpt><trkpt lat="45.5592197" lon="11.0067819"><ele>433.50000000000006</ele><time>2026-04-22T11:14:27.333Z</time></trkpt><trkpt lat="45.5591461" lon="11.0067787"><ele>434.0</ele><time>2026-04-22T11:14:28.333Z</time></trkpt><trkpt lat="45.5590687" lon="11.0067836"><ele>434.5</ele><time>2026-04-22T11:14:29.334Z</time></trkpt><trkpt lat="45.5589904" lon="11.0067892"><ele>435.0</ele><time>2026-04-22T11:14:30.333Z</time></trkpt><trkpt lat="45.5589319" lon="11.0068364"><ele>435.50000000000006</ele><time>2026-04-22T11:14:31.334Z</time></trkpt><trkpt lat="45.5588906" lon="11.0069707"><ele>436.0</ele><time>2026-04-22T11:14:33.333Z</time></trkpt><trkpt lat="45.5588928" lon="11.0070703"><ele>436.00000000000006</ele><time>2026-04-22T11:14:34.333Z</time></trkpt><trkpt lat="45.5588935" lon="11.0072412"><ele>436.0</ele><time>2026-04-22T11:14:36.333Z</time></trkpt><trkpt lat="45.5588961" lon="11.007337"><ele>436.0</ele><time>2026-04-22T11:14:37.333Z</time></trkpt><trkpt lat="45.5588967" lon="11.0074325"><ele>436.0</ele><time>2026-04-22T11:14:38.333Z</time></trkpt><trkpt lat="45.5589265" lon="11.0075578"><ele>436.00000000000006</ele><time>2026-04-22T11:14:40.333Z</time></trkpt><trkpt lat="45.5589787" lon="11.0076162"><ele>436.0</ele><time>2026-04-22T11:14:45.333Z</time></trkpt><trkpt lat="45.5590425" lon="11.0075948"><ele>436.0</ele><time>2026-04-22T11:14:47.333Z</time></trkpt><trkpt lat="45.5591278" lon="11.007522"><ele>436.0</ele><time>2026-04-22T11:14:49.333Z</time></trkpt><trkpt lat="45.5591951" lon="11.0074531"><ele>436.0</ele><time>2026-04-22T11:14:50.333Z</time></trkpt><trkpt lat="45.5593096" lon="11.0074348"><ele>436.0</ele><time>2026-04-22T11:14:51.333Z</time></trkpt><trkpt lat="45.5594037" lon="11.007428"><ele>436.0</ele><time>2026-04-22T11:14:52.334Z</time></trkpt><trkpt lat="45.5594879" lon="11.0074134"><ele>435.25</ele><time>2026-04-22T11:14:53.333Z</time></trkpt><trkpt lat="45.5595751" lon="11.0074014"><ele>434.5</ele><time>2026-04-22T11:14:54.333Z</time></trkpt><trkpt lat="45.5596692" lon="11.0074298"><ele>433.75</ele><time>2026-04-22T11:14:55.334Z</time></trkpt><trkpt lat="45.559784" lon="11.0074818"><ele>433.0</ele><time>2026-04-22T11:14:56.333Z</time></trkpt><trkpt lat="45.559931" lon="11.0075616"><ele>437.33333333333337</ele><time>2026-04-22T11:14:57.333Z</time></trkpt><trkpt lat="45.5600754" lon="11.0076417"><ele>441.66666666666663</ele><time>2026-04-22T11:14:58.333Z</time></trkpt><trkpt lat="45.5602335" lon="11.007747"><ele>446.0</ele><time>2026-04-22T11:14:59.334Z</time></trkpt><trkpt lat="45.5603918" lon="11.0078687"><ele>446.0</ele><time>2026-04-22T11:15:00.334Z</time></trkpt><trkpt lat="45.5605205" lon="11.0079564"><ele>446.0</ele><time>2026-04-22T11:15:01.333Z</time></trkpt><trkpt lat="45.5606345" lon="11.0080348"><ele>446.0</ele><time>2026-04-22T11:15:02.333Z</time></trkpt><trkpt lat="45.560735" lon="11.0081119"><ele>446.0</ele><time>2026-04-22T11:15:03.333Z</time></trkpt><trkpt lat="45.5608227" lon="11.0081975"><ele>445.99999999999994</ele><time>2026-04-22T11:15:04.333Z</time></trkpt><trkpt lat="45.5609032" lon="11.0082859"><ele>446.0</ele><time>2026-04-22T11:15:05.333Z</time></trkpt><trkpt lat="45.5609703" lon="11.0083717"><ele>446.0</ele><time>2026-04-22T11:15:06.334Z</time></trkpt><trkpt lat="45.5610269" lon="11.0084698"><ele>446.0</ele><time>2026-04-22T11:15:07.333Z</time></trkpt><trkpt lat="45.5610499" lon="11.0085578"><ele>445.99999999999994</ele><time>2026-04-22T11:15:08.333Z</time></trkpt><trkpt lat="45.5610049" lon="11.0086215"><ele>446.0</ele><time>2026-04-22T11:15:10.334Z</time></trkpt><trkpt lat="45.5608912" lon="11.0086078"><ele>451.0</ele><time>2026-04-22T11:15:12.334Z</time></trkpt><trkpt lat="45.5608021" lon="11.0085809"><ele>456.0</ele><time>2026-04-22T11:15:13.333Z</time></trkpt><trkpt lat="45.5607016" lon="11.0085382"><ele>461.0</ele><time>2026-04-22T11:15:14.333Z</time></trkpt><trkpt lat="45.5605817" lon="11.0085065"><ele>466.0</ele><time>2026-04-22T11:15:15.333Z</time></trkpt><trkpt lat="45.5604538" lon="11.0084722"><ele>471.0</ele><time>2026-04-22T11:15:16.333Z</time></trkpt><trkpt lat="45.5602833" lon="11.0084183"><ele>473.25</ele><time>2026-04-22T11:15:17.333Z</time></trkpt><trkpt lat="45.5601533" lon="11.0083833"><ele>475.5</ele><time>2026-04-22T11:15:18.333Z</time></trkpt><trkpt lat="45.5600217" lon="11.0083533"><ele>477.75</ele><time>2026-04-22T11:15:19.333Z</time></trkpt><trkpt lat="45.5599017" lon="11.00837"><ele>480.0</ele><time>2026-04-22T11:15:20.333Z</time></trkpt><trkpt lat="45.5597917" lon="11.008385"><ele>480.0</ele><time>2026-04-22T11:15:21.333Z</time></trkpt><trkpt lat="45.5597" lon="11.0084033"><ele>480.0</ele><time>2026-04-22T11:15:22.333Z</time></trkpt><trkpt lat="45.5596267" lon="11.0084733"><ele>480.0</ele><time>2026-04-22T11:15:23.333Z</time></trkpt><trkpt lat="45.5595667" lon="11.0085533"><ele>480.0</ele><time>2026-04-22T11:15:24.333Z</time></trkpt><trkpt lat="45.5595417" lon="11.0086967"><ele>480.0</ele><time>2026-04-22T11:15:25.334Z</time></trkpt><trkpt lat="45.5595217" lon="11.0088417"><ele>480.75</ele><time>2026-04-22T11:15:26.333Z</time></trkpt><trkpt lat="45.5595167" lon="11.0090067"><ele>481.5</ele><time>2026-04-22T11:15:27.333Z</time></trkpt><trkpt lat="45.5595167" lon="11.0091617"><ele>482.25</ele><time>2026-04-22T11:15:28.333Z</time></trkpt><trkpt lat="45.5595333" lon="11.0093283"><ele>483.0</ele><time>2026-04-22T11:15:29.333Z</time></trkpt><trkpt lat="45.559545" lon="11.0094817"><ele>484.79999999999995</ele><time>2026-04-22T11:15:30.333Z</time></trkpt><trkpt lat="45.5595667" lon="11.009625"><ele>486.59999999999997</ele><time>2026-04-22T11:15:31.333Z</time></trkpt><trkpt lat="45.559585" lon="11.0097567"><ele>488.40000000000003</ele><time>2026-04-22T11:15:32.333Z</time></trkpt><trkpt lat="45.5596117" lon="11.0098917"><ele>490.20000000000005</ele><time>2026-04-22T11:15:33.333Z</time></trkpt><trkpt lat="45.5596167" lon="11.01003"><ele>492.0</ele><time>2026-04-22T11:15:34.333Z</time></trkpt><trkpt lat="45.5596083" lon="11.0101667"><ele>492.5</ele><time>2026-04-22T11:15:35.333Z</time></trkpt><trkpt lat="45.5595917" lon="11.0103233"><ele>493.0</ele><time>2026-04-22T11:15:36.334Z</time></trkpt><trkpt lat="45.5595717" lon="11.01043"><ele>493.5</ele><time>2026-04-22T11:15:37.333Z</time></trkpt><trkpt lat="45.559535" lon="11.0105267"><ele>494.0</ele><time>2026-04-22T11:15:38.333Z</time></trkpt><trkpt lat="45.55944" lon="11.0105417"><ele>494.5</ele><time>2026-04-22T11:15:40.333Z</time></trkpt><trkpt lat="45.5593667" lon="11.0105283"><ele>495.0</ele><time>2026-04-22T11:15:41.333Z</time></trkpt><trkpt lat="45.5592733" lon="11.0105117"><ele>496.0</ele><time>2026-04-22T11:15:42.334Z</time></trkpt><trkpt lat="45.5591617" lon="11.0105167"><ele>497.0</ele><time>2026-04-22T11:15:43.333Z</time></trkpt><trkpt lat="45.55905" lon="11.0105433"><ele>498.0</ele><time>2026-04-22T11:15:44.333Z</time></trkpt><trkpt lat="45.55892" lon="11.010585"><ele>499.0</ele><time>2026-04-22T11:15:45.333Z</time></trkpt><trkpt lat="45.5587833" lon="11.0106417"><ele>500.0</ele><time>2026-04-22T11:15:46.333Z</time></trkpt><trkpt lat="45.558655" lon="11.0107117"><ele>501.0</ele><time>2026-04-22T11:15:47.333Z</time></trkpt><trkpt lat="45.5585117" lon="11.0107883"><ele>502.0</ele><time>2026-04-22T11:15:48.333Z</time></trkpt><trkpt lat="45.5583967" lon="11.01085"><ele>503.0</ele><time>2026-04-22T11:15:49.333Z</time></trkpt><trkpt lat="45.558285" lon="11.0109133"><ele>505.0</ele><time>2026-04-22T11:15:50.333Z</time></trkpt><trkpt lat="45.5581917" lon="11.0109467"><ele>506.99999999999994</ele><time>2026-04-22T11:15:51.333Z</time></trkpt><trkpt lat="45.5580883" lon="11.0109733"><ele>508.99999999999994</ele><time>2026-04-22T11:15:52.333Z</time></trkpt><trkpt lat="45.5580083" lon="11.0109533"><ele>511.0</ele><time>2026-04-22T11:15:53.333Z</time></trkpt><trkpt lat="45.55792" lon="11.010965"><ele>513.0</ele><time>2026-04-22T11:15:54.333Z</time></trkpt><trkpt lat="45.5577933" lon="11.0109617"><ele>513.0</ele><time>2026-04-22T11:15:56.333Z</time></trkpt><trkpt lat="45.5577267" lon="11.0109467"><ele>513.0</ele><time>2026-04-22T11:15:58.333Z</time></trkpt><trkpt lat="45.55771" lon="11.0110433"><ele>513.0</ele><time>2026-04-22T11:16:00.333Z</time></trkpt><trkpt lat="45.55777" lon="11.011165"><ele>513.0</ele><time>2026-04-22T11:16:02.333Z</time></trkpt><trkpt lat="45.55784" lon="11.0113017"><ele>513.0</ele><time>2026-04-22T11:16:04.333Z</time></trkpt><trkpt lat="45.55791" lon="11.0113683"><ele>513.0</ele><time>2026-04-22T11:16:05.333Z</time></trkpt><trkpt lat="45.5579817" lon="11.0114483"><ele>514.1999999999999</ele><time>2026-04-22T11:16:06.333Z</time></trkpt><trkpt lat="45.558035" lon="11.0115383"><ele>515.4</ele><time>2026-04-22T11:16:07.334Z</time></trkpt><trkpt lat="45.558075" lon="11.0116533"><ele>516.5999999999999</ele><time>2026-04-22T11:16:08.333Z</time></trkpt><trkpt lat="45.5581133" lon="11.0117717"><ele>517.8</ele><time>2026-04-22T11:16:09.333Z</time></trkpt><trkpt lat="45.55817" lon="11.0119033"><ele>519.0</ele><time>2026-04-22T11:16:10.333Z</time></trkpt><trkpt lat="45.558235" lon="11.0120267"><ele>521.5</ele><time>2026-04-22T11:16:11.333Z</time></trkpt><trkpt lat="45.5582867" lon="11.0121333"><ele>524.0</ele><time>2026-04-22T11:16:12.333Z</time></trkpt><trkpt lat="45.55834" lon="11.012215"><ele>526.5</ele><time>2026-04-22T11:16:13.333Z</time></trkpt><trkpt lat="45.5583933" lon="11.012295"><ele>529.0</ele><time>2026-04-22T11:16:14.333Z</time></trkpt><trkpt lat="45.5584517" lon="11.012385"><ele>531.5</ele><time>2026-04-22T11:16:15.333Z</time></trkpt><trkpt lat="45.5585083" lon="11.0124733"><ele>534.0</ele><time>2026-04-22T11:16:16.333Z</time></trkpt><trkpt lat="45.5585633" lon="11.0125667"><ele>535.5</ele><time>2026-04-22T11:16:17.333Z</time></trkpt><trkpt lat="45.558615" lon="11.012705"><ele>537.0</ele><time>2026-04-22T11:16:18.333Z</time></trkpt><trkpt lat="45.558665" lon="11.0128483"><ele>538.5</ele><time>2026-04-22T11:16:19.333Z</time></trkpt><trkpt lat="45.5587017" lon="11.0130117"><ele>540.0</ele><time>2026-04-22T11:16:20.333Z</time></trkpt><trkpt lat="45.55874" lon="11.0131733"><ele>543.0</ele><time>2026-04-22T11:16:21.334Z</time></trkpt><trkpt lat="45.5587783" lon="11.0133367"><ele>546.0</ele><time>2026-04-22T11:16:22.333Z</time></trkpt><trkpt lat="45.5588" lon="11.0134717"><ele>549.0</ele><time>2026-04-22T11:16:23.333Z</time></trkpt><trkpt lat="45.5588317" lon="11.0136133"><ele>552.0</ele><time>2026-04-22T11:16:24.334Z</time></trkpt><trkpt lat="45.55888" lon="11.013755"><ele>555.0</ele><time>2026-04-22T11:16:25.334Z</time></trkpt><trkpt lat="45.5589233" lon="11.0139017"><ele>555.0</ele><time>2026-04-22T11:16:26.333Z</time></trkpt><trkpt lat="45.5589617" lon="11.0140683"><ele>555.0</ele><time>2026-04-22T11:16:27.333Z</time></trkpt><trkpt lat="45.5589983" lon="11.0142017"><ele>555.0</ele><time>2026-04-22T11:16:28.333Z</time></trkpt><trkpt lat="45.5590317" lon="11.0143433"><ele>555.0</ele><time>2026-04-22T11:16:29.333Z</time></trkpt><trkpt lat="45.5590617" lon="11.01448"><ele>555.0</ele><time>2026-04-22T11:16:30.333Z</time></trkpt><trkpt lat="45.5590867" lon="11.0146183"><ele>555.2</ele><time>2026-04-22T11:16:31.333Z</time></trkpt><trkpt lat="45.5591067" lon="11.0147367"><ele>555.4</ele><time>2026-04-22T11:16:32.334Z</time></trkpt><trkpt lat="45.5591" lon="11.014895"><ele>555.6</ele><time>2026-04-22T11:16:34.334Z</time></trkpt><trkpt lat="45.55907" lon="11.01506"><ele>555.8</ele><time>2026-04-22T11:16:37.333Z</time></trkpt><trkpt lat="45.5590367" lon="11.0152233"><ele>556.0</ele><time>2026-04-22T11:16:39.333Z</time></trkpt><trkpt lat="45.5590233" lon="11.01534"><ele>556.0</ele><time>2026-04-22T11:16:40.333Z</time></trkpt><trkpt lat="45.5590083" lon="11.0154667"><ele>556.0</ele><time>2026-04-22T11:16:41.334Z</time></trkpt><trkpt lat="45.5589983" lon="11.01561"><ele>556.0</ele><time>2026-04-22T11:16:42.333Z</time></trkpt><trkpt lat="45.5590017" lon="11.0157433"><ele>556.0</ele><time>2026-04-22T11:16:43.333Z</time></trkpt><trkpt lat="45.55899" lon="11.01589"><ele>556.0</ele><time>2026-04-22T11:16:44.333Z</time></trkpt><trkpt lat="45.5590017" lon="11.0160383"><ele>556.6</ele><time>2026-04-22T11:16:45.334Z</time></trkpt><trkpt lat="45.5589983" lon="11.0161817"><ele>557.2</ele><time>2026-04-22T11:16:46.333Z</time></trkpt><trkpt lat="45.558995" lon="11.016335"><ele>557.8</ele><time>2026-04-22T11:16:47.333Z</time></trkpt><trkpt lat="45.5589717" lon="11.01649"><ele>558.4</ele><time>2026-04-22T11:16:48.333Z</time></trkpt><trkpt lat="45.558965" lon="11.01667"><ele>559.0</ele><time>2026-04-22T11:16:49.333Z</time></trkpt><trkpt lat="45.5589767" lon="11.016825"><ele>559.5</ele><time>2026-04-22T11:16:50.333Z</time></trkpt><trkpt lat="45.5589833" lon="11.0169933"><ele>560.0</ele><time>2026-04-22T11:16:51.333Z</time></trkpt><trkpt lat="45.5589883" lon="11.0171833"><ele>560.5</ele><time>2026-04-22T11:16:52.334Z</time></trkpt><trkpt lat="45.558975" lon="11.017375"><ele>561.0</ele><time>2026-04-22T11:16:53.333Z</time></trkpt><trkpt lat="45.5589383" lon="11.0175517"><ele>562.5</ele><time>2026-04-22T11:16:54.333Z</time></trkpt><trkpt lat="45.5588917" lon="11.01773"><ele>564.0</ele><time>2026-04-22T11:16:55.333Z</time></trkpt><trkpt lat="45.5588783" lon="11.01794"><ele>565.5</ele><time>2026-04-22T11:16:56.333Z</time></trkpt><trkpt lat="45.5588617" lon="11.01814"><ele>567.0</ele><time>2026-04-22T11:16:57.333Z</time></trkpt><trkpt lat="45.5588217" lon="11.0183467"><ele>568.5</ele><time>2026-04-22T11:16:58.333Z</time></trkpt><trkpt lat="45.55879" lon="11.0185533"><ele>570.0</ele><time>2026-04-22T11:16:59.333Z</time></trkpt><trkpt lat="45.5587517" lon="11.0187467"><ele>571.5</ele><time>2026-04-22T11:17:00.333Z</time></trkpt><trkpt lat="45.5587367" lon="11.0189167"><ele>573.0</ele><time>2026-04-22T11:17:01.333Z</time></trkpt><trkpt lat="45.558725" lon="11.0190967"><ele>574.0</ele><time>2026-04-22T11:17:02.334Z</time></trkpt><trkpt lat="45.5587267" lon="11.0192667"><ele>575.0</ele><time>2026-04-22T11:17:03.334Z</time></trkpt><trkpt lat="45.5587417" lon="11.01943"><ele>576.0</ele><time>2026-04-22T11:17:04.333Z</time></trkpt><trkpt lat="45.5587633" lon="11.0195933"><ele>577.0</ele><time>2026-04-22T11:17:05.333Z</time></trkpt><trkpt lat="45.558805" lon="11.019745"><ele>577.0</ele><time>2026-04-22T11:17:06.333Z</time></trkpt><trkpt lat="45.55891" lon="11.019865"><ele>577.0</ele><time>2026-04-22T11:17:07.333Z</time></trkpt><trkpt lat="45.558995" lon="11.0200067"><ele>577.0</ele><time>2026-04-22T11:17:08.332Z</time></trkpt><trkpt lat="45.559075" lon="11.0201533"><ele>577.0</ele><time>2026-04-22T11:17:09.332Z</time></trkpt><trkpt lat="45.5591767" lon="11.02029"><ele>577.75</ele><time>2026-04-22T11:17:10.332Z</time></trkpt><trkpt lat="45.5592883" lon="11.0204117"><ele>578.5</ele><time>2026-04-22T11:17:11.333Z</time></trkpt><trkpt lat="45.5594" lon="11.0205367"><ele>579.25</ele><time>2026-04-22T11:17:12.332Z</time></trkpt><trkpt lat="45.5595033" lon="11.0206567"><ele>580.0</ele><time>2026-04-22T11:17:13.332Z</time></trkpt><trkpt lat="45.5596033" lon="11.020775"><ele>584.5</ele><time>2026-04-22T11:17:14.332Z</time></trkpt><trkpt lat="45.559705" lon="11.0209117"><ele>589.0</ele><time>2026-04-22T11:17:15.333Z</time></trkpt><trkpt lat="45.5598133" lon="11.021045"><ele>593.5</ele><time>2026-04-22T11:17:16.332Z</time></trkpt><trkpt lat="45.55991" lon="11.02119"><ele>598.0</ele><time>2026-04-22T11:17:17.333Z</time></trkpt><trkpt lat="45.560005" lon="11.02133"><ele>598.0</ele><time>2026-04-22T11:17:18.332Z</time></trkpt><trkpt lat="45.5600883" lon="11.0214567"><ele>598.0</ele><time>2026-04-22T11:17:19.333Z</time></trkpt><trkpt lat="45.56016" lon="11.02156"><ele>598.0</ele><time>2026-04-22T11:17:20.332Z</time></trkpt><trkpt lat="45.5602483" lon="11.0216483"><ele>598.0</ele><time>2026-04-22T11:17:21.332Z</time></trkpt><trkpt lat="45.5603233" lon="11.02173"><ele>598.0</ele><time>2026-04-22T11:17:22.333Z</time></trkpt><trkpt lat="45.5603917" lon="11.0217967"><ele>600.1999999999999</ele><time>2026-04-22T11:17:23.332Z</time></trkpt><trkpt lat="45.5604617" lon="11.0218667"><ele>602.4</ele><time>2026-04-22T11:17:24.332Z</time></trkpt><trkpt lat="45.5605267" lon="11.02195"><ele>604.5999999999999</ele><time>2026-04-22T11:17:25.332Z</time></trkpt><trkpt lat="45.560595" lon="11.0220617"><ele>606.8</ele><time>2026-04-22T11:17:26.332Z</time></trkpt><trkpt lat="45.5606683" lon="11.0221933"><ele>609.0</ele><time>2026-04-22T11:17:27.332Z</time></trkpt><trkpt lat="45.56073" lon="11.022325"><ele>609.0</ele><time>2026-04-22T11:17:28.332Z</time></trkpt><trkpt lat="45.560775" lon="11.0224333"><ele>609.0</ele><time>2026-04-22T11:17:29.332Z</time></trkpt><trkpt lat="45.56082" lon="11.0225433"><ele>609.0</ele><time>2026-04-22T11:17:30.332Z</time></trkpt><trkpt lat="45.5608733" lon="11.0226483"><ele>609.0</ele><time>2026-04-22T11:17:31.332Z</time></trkpt><trkpt lat="45.5609233" lon="11.0227667"><ele>609.0</ele><time>2026-04-22T11:17:32.332Z</time></trkpt><trkpt lat="45.56097" lon="11.022885"><ele>609.0</ele><time>2026-04-22T11:17:33.332Z</time></trkpt><trkpt lat="45.561015" lon="11.023"><ele>609.0</ele><time>2026-04-22T11:17:34.332Z</time></trkpt><trkpt lat="45.5610367" lon="11.0231183"><ele>609.0</ele><time>2026-04-22T11:17:35.332Z</time></trkpt><trkpt lat="45.56104" lon="11.0232217"><ele>609.0</ele><time>2026-04-22T11:17:36.332Z</time></trkpt><trkpt lat="45.56105" lon="11.0233267"><ele>609.0</ele><time>2026-04-22T11:17:37.332Z</time></trkpt><trkpt lat="45.56104" lon="11.02344"><ele>609.0</ele><time>2026-04-22T11:17:38.333Z</time></trkpt><trkpt lat="45.5610383" lon="11.023545"><ele>607.6666666666666</ele><time>2026-04-22T11:17:39.332Z</time></trkpt><trkpt lat="45.5610083" lon="11.02363"><ele>606.3333333333334</ele><time>2026-04-22T11:17:40.332Z</time></trkpt><trkpt lat="45.5609717" lon="11.0237117"><ele>605.0</ele><time>2026-04-22T11:17:41.332Z</time></trkpt><trkpt lat="45.5609117" lon="11.0237767"><ele>603.6666666666667</ele><time>2026-04-22T11:17:42.332Z</time></trkpt><trkpt lat="45.5608417" lon="11.0238283"><ele>602.3333333333334</ele><time>2026-04-22T11:17:43.332Z</time></trkpt><trkpt lat="45.5607533" lon="11.023865"><ele>601.0</ele><time>2026-04-22T11:17:44.333Z</time></trkpt><trkpt lat="45.5606717" lon="11.0239383"><ele>601.0</ele><time>2026-04-22T11:17:45.332Z</time></trkpt><trkpt lat="45.5606133" lon="11.0240033"><ele>601.0</ele><time>2026-04-22T11:17:46.333Z</time></trkpt><trkpt lat="45.5605583" lon="11.02406"><ele>601.0</ele><time>2026-04-22T11:17:47.333Z</time></trkpt><trkpt lat="45.5605317" lon="11.0241433"><ele>601.0</ele><time>2026-04-22T11:17:48.332Z</time></trkpt><trkpt lat="45.56056" lon="11.02432"><ele>601.0</ele><time>2026-04-22T11:17:49.332Z</time></trkpt><trkpt lat="45.56056" lon="11.0244483"><ele>601.0</ele><time>2026-04-22T11:17:50.332Z</time></trkpt><trkpt lat="45.56056" lon="11.02458"><ele>597.0</ele><time>2026-04-22T11:17:51.332Z</time></trkpt><trkpt lat="45.5605533" lon="11.024735"><ele>593.0</ele><time>2026-04-22T11:17:52.332Z</time></trkpt><trkpt lat="45.5605667" lon="11.024875"><ele>589.0</ele><time>2026-04-22T11:17:53.332Z</time></trkpt><trkpt lat="45.560555" lon="11.0250033"><ele>585.0</ele><time>2026-04-22T11:17:54.332Z</time></trkpt><trkpt lat="45.5605267" lon="11.0251233"><ele>581.0</ele><time>2026-04-22T11:17:55.332Z</time></trkpt><trkpt lat="45.5605067" lon="11.02523"><ele>580.1666666666666</ele><time>2026-04-22T11:17:56.332Z</time></trkpt><trkpt lat="45.5605" lon="11.0253617"><ele>579.3333333333333</ele><time>2026-04-22T11:17:57.332Z</time></trkpt><trkpt lat="45.5605067" lon="11.0254683"><ele>578.5</ele><time>2026-04-22T11:17:58.332Z</time></trkpt><trkpt lat="45.560475" lon="11.025565"><ele>577.6666666666666</ele><time>2026-04-22T11:18:00.332Z</time></trkpt><trkpt lat="45.5605483" lon="11.0255533"><ele>576.8333333333334</ele><time>2026-04-22T11:18:01.333Z</time></trkpt><trkpt lat="45.56067" lon="11.0256183"><ele>576.0</ele><time>2026-04-22T11:18:03.332Z</time></trkpt><trkpt lat="45.5607283" lon="11.0255583"><ele>576.0</ele><time>2026-04-22T11:18:04.332Z</time></trkpt><trkpt lat="45.5608167" lon="11.02554"><ele>576.0</ele><time>2026-04-22T11:18:05.332Z</time></trkpt><trkpt lat="45.5609317" lon="11.025525"><ele>576.0</ele><time>2026-04-22T11:18:06.332Z</time></trkpt><trkpt lat="45.5610333" lon="11.0255033"><ele>576.0</ele><time>2026-04-22T11:18:07.333Z</time></trkpt><trkpt lat="45.5611533" lon="11.0254683"><ele>576.0</ele><time>2026-04-22T11:18:08.332Z</time></trkpt><trkpt lat="45.5612817" lon="11.025415"><ele>574.0</ele><time>2026-04-22T11:18:09.333Z</time></trkpt><trkpt lat="45.561425" lon="11.02539"><ele>572.0</ele><time>2026-04-22T11:18:10.332Z</time></trkpt><trkpt lat="45.561525" lon="11.0253583"><ele>570.0</ele><time>2026-04-22T11:18:11.333Z</time></trkpt><trkpt lat="45.5616267" lon="11.0253483"><ele>568.0</ele><time>2026-04-22T11:18:12.332Z</time></trkpt><trkpt lat="45.5617317" lon="11.0254133"><ele>568.0</ele><time>2026-04-22T11:18:13.332Z</time></trkpt><trkpt lat="45.56186" lon="11.025475"><ele>568.0</ele><time>2026-04-22T11:18:14.332Z</time></trkpt><trkpt lat="45.5619833" lon="11.02555"><ele>568.0</ele><time>2026-04-22T11:18:15.332Z</time></trkpt><trkpt lat="45.5620717" lon="11.0256217"><ele>568.0</ele><time>2026-04-22T11:18:16.332Z</time></trkpt><trkpt lat="45.5621667" lon="11.0256833"><ele>567.4</ele><time>2026-04-22T11:18:17.332Z</time></trkpt><trkpt lat="45.5622467" lon="11.0257583"><ele>566.8</ele><time>2026-04-22T11:18:19.332Z</time></trkpt><trkpt lat="45.5622633" lon="11.025915"><ele>566.2</ele><time>2026-04-22T11:18:22.332Z</time></trkpt><trkpt lat="45.562225" lon="11.0260917"><ele>565.6</ele><time>2026-04-22T11:18:23.332Z</time></trkpt><trkpt lat="45.5622067" lon="11.0262283"><ele>565.0</ele><time>2026-04-22T11:18:24.332Z</time></trkpt><trkpt lat="45.5622" lon="11.0263433"><ele>565.0</ele><time>2026-04-22T11:18:25.332Z</time></trkpt><trkpt lat="45.5622067" lon="11.0264633"><ele>565.0</ele><time>2026-04-22T11:18:26.332Z</time></trkpt><trkpt lat="45.5622267" lon="11.02662"><ele>565.0</ele><time>2026-04-22T11:18:28.332Z</time></trkpt><trkpt lat="45.5622983" lon="11.0267217"><ele>565.0</ele><time>2026-04-22T11:18:30.332Z</time></trkpt><trkpt lat="45.5623817" lon="11.02679"><ele>565.0</ele><time>2026-04-22T11:18:31.332Z</time></trkpt><trkpt lat="45.5624733" lon="11.02685"><ele>564.0</ele><time>2026-04-22T11:18:32.332Z</time></trkpt><trkpt lat="45.5625683" lon="11.02689"><ele>563.0</ele><time>2026-04-22T11:18:33.332Z</time></trkpt><trkpt lat="45.562665" lon="11.026945"><ele>562.0</ele><time>2026-04-22T11:18:34.332Z</time></trkpt><trkpt lat="45.5627533" lon="11.027"><ele>561.0</ele><time>2026-04-22T11:18:35.332Z</time></trkpt><trkpt lat="45.5628817" lon="11.0270567"><ele>560.0</ele><time>2026-04-22T11:18:36.332Z</time></trkpt><trkpt lat="45.5629767" lon="11.027145"><ele>555.0</ele><time>2026-04-22T11:18:37.332Z</time></trkpt><trkpt lat="45.5630617" lon="11.0272417"><ele>550.0</ele><time>2026-04-22T11:18:38.332Z</time></trkpt><trkpt lat="45.563135" lon="11.0273417"><ele>545.0</ele><time>2026-04-22T11:18:39.332Z</time></trkpt><trkpt lat="45.5632067" lon="11.02744"><ele>540.0</ele><time>2026-04-22T11:18:40.332Z</time></trkpt><trkpt lat="45.5632633" lon="11.0275433"><ele>535.0</ele><time>2026-04-22T11:18:41.332Z</time></trkpt><trkpt lat="45.5633117" lon="11.0276483"><ele>535.0</ele><time>2026-04-22T11:18:42.332Z</time></trkpt><trkpt lat="45.56337" lon="11.0277533"><ele>535.0</ele><time>2026-04-22T11:18:43.332Z</time></trkpt><trkpt lat="45.563395" lon="11.0278933"><ele>535.0</ele><time>2026-04-22T11:18:44.332Z</time></trkpt><trkpt lat="45.5634433" lon="11.0280033"><ele>535.0</ele><time>2026-04-22T11:18:45.332Z</time></trkpt><trkpt lat="45.563485" lon="11.0281067"><ele>535.0</ele><time>2026-04-22T11:18:46.332Z</time></trkpt><trkpt lat="45.5634917" lon="11.0282017"><ele>535.0</ele><time>2026-04-22T11:18:47.332Z</time></trkpt><trkpt lat="45.5634867" lon="11.0282967"><ele>534.25</ele><time>2026-04-22T11:18:48.332Z</time></trkpt><trkpt lat="45.563475" lon="11.0283867"><ele>533.5</ele><time>2026-04-22T11:18:49.332Z</time></trkpt><trkpt lat="45.5634583" lon="11.02851"><ele>532.75</ele><time>2026-04-22T11:18:51.333Z</time></trkpt><trkpt lat="45.563535" lon="11.02845"><ele>532.0</ele><time>2026-04-22T11:18:59.332Z</time></trkpt><trkpt lat="45.56375" lon="11.02844"><ele>532.0</ele><time>2026-04-22T11:19:01.332Z</time></trkpt><trkpt lat="45.563895" lon="11.0284267"><ele>532.0</ele><time>2026-04-22T11:19:02.333Z</time></trkpt><trkpt lat="45.5639667" lon="11.0284517"><ele>532.0</ele><time>2026-04-22T11:19:03.332Z</time></trkpt><trkpt lat="45.564055" lon="11.0284717"><ele>532.0</ele><time>2026-04-22T11:19:04.332Z</time></trkpt><trkpt lat="45.5641567" lon="11.0285067"><ele>532.0</ele><time>2026-04-22T11:19:05.332Z</time></trkpt><trkpt lat="45.564235" lon="11.0285517"><ele>532.0</ele><time>2026-04-22T11:19:06.332Z</time></trkpt><trkpt lat="45.5643067" lon="11.0286617"><ele>532.0</ele><time>2026-04-22T11:19:08.332Z</time></trkpt><trkpt lat="45.5642783" lon="11.0287533"><ele>532.0</ele><time>2026-04-22T11:19:11.332Z</time></trkpt><trkpt lat="45.564175" lon="11.0288167"><ele>532.0</ele><time>2026-04-22T11:19:13.332Z</time></trkpt><trkpt lat="45.5640483" lon="11.0288867"><ele>532.0</ele><time>2026-04-22T11:19:15.332Z</time></trkpt><trkpt lat="45.5639917" lon="11.02893"><ele>532.0</ele><time>2026-04-22T11:19:16.332Z</time></trkpt><trkpt lat="45.5639283" lon="11.0289583"><ele>532.0</ele><time>2026-04-22T11:19:17.332Z</time></trkpt><trkpt lat="45.5638567" lon="11.0290783"><ele>532.0</ele><time>2026-04-22T11:19:19.332Z</time></trkpt><trkpt lat="45.5639083" lon="11.0292"><ele>532.0</ele><time>2026-04-22T11:19:22.332Z</time></trkpt><trkpt lat="45.5639867" lon="11.0292283"><ele>532.0</ele><time>2026-04-22T11:19:24.333Z</time></trkpt><trkpt lat="45.5640683" lon="11.029225"><ele>532.0</ele><time>2026-04-22T11:19:25.332Z</time></trkpt><trkpt lat="45.5641767" lon="11.0292833"><ele>534.3333333333334</ele><time>2026-04-22T11:19:27.332Z</time></trkpt><trkpt lat="45.5642483" lon="11.02932"><ele>536.6666666666667</ele><time>2026-04-22T11:19:28.332Z</time></trkpt><trkpt lat="45.5643067" lon="11.0293667"><ele>539.0</ele><time>2026-04-22T11:19:29.332Z</time></trkpt><trkpt lat="45.56439" lon="11.0294683"><ele>541.3333333333334</ele><time>2026-04-22T11:19:31.332Z</time></trkpt><trkpt lat="45.564435" lon="11.029565"><ele>543.6666666666666</ele><time>2026-04-22T11:19:33.332Z</time></trkpt><trkpt lat="45.5644233" lon="11.029685"><ele>546.0</ele><time>2026-04-22T11:19:35.332Z</time></trkpt><trkpt lat="45.5643517" lon="11.0297167"><ele>546.0</ele><time>2026-04-22T11:19:36.333Z</time></trkpt><trkpt lat="45.564255" lon="11.0297917"><ele>546.0</ele><time>2026-04-22T11:19:37.332Z</time></trkpt><trkpt lat="45.5641933" lon="11.0298717"><ele>546.0</ele><time>2026-04-22T11:19:38.332Z</time></trkpt><trkpt lat="45.56416" lon="11.029965"><ele>546.0</ele><time>2026-04-22T11:19:39.332Z</time></trkpt><trkpt lat="45.5641517" lon="11.0301017"><ele>546.0</ele><time>2026-04-22T11:19:40.332Z</time></trkpt><trkpt lat="45.5641533" lon="11.03025"><ele>549.0</ele><time>2026-04-22T11:19:41.332Z</time></trkpt><trkpt lat="45.5641533" lon="11.0303767"><ele>552.0</ele><time>2026-04-22T11:19:42.332Z</time></trkpt><trkpt lat="45.5641967" lon="11.0304783"><ele>555.0</ele><time>2026-04-22T11:19:43.333Z</time></trkpt><trkpt lat="45.56424" lon="11.03058"><ele>558.0</ele><time>2026-04-22T11:19:44.332Z</time></trkpt><trkpt lat="45.5643383" lon="11.0306583"><ele>561.0</ele><time>2026-04-22T11:19:45.333Z</time></trkpt><trkpt lat="45.564405" lon="11.0307533"><ele>564.3333333333334</ele><time>2026-04-22T11:19:46.332Z</time></trkpt><trkpt lat="45.564465" lon="11.03085"><ele>567.6666666666666</ele><time>2026-04-22T11:19:47.332Z</time></trkpt><trkpt lat="45.5645167" lon="11.0309617"><ele>571.0</ele><time>2026-04-22T11:19:48.332Z</time></trkpt><trkpt lat="45.5645517" lon="11.031065"><ele>574.3333333333333</ele><time>2026-04-22T11:19:49.332Z</time></trkpt><trkpt lat="45.564585" lon="11.031185"><ele>577.6666666666666</ele><time>2026-04-22T11:19:50.332Z</time></trkpt><trkpt lat="45.5646117" lon="11.0312883"><ele>581.0</ele><time>2026-04-22T11:19:51.333Z</time></trkpt><trkpt lat="45.5646383" lon="11.0313867"><ele>582.0</ele><time>2026-04-22T11:19:52.333Z</time></trkpt><trkpt lat="45.5646517" lon="11.0314933"><ele>583.0</ele><time>2026-04-22T11:19:53.332Z</time></trkpt><trkpt lat="45.56468" lon="11.0316017"><ele>584.0</ele><time>2026-04-22T11:19:54.332Z</time></trkpt><trkpt lat="45.5647267" lon="11.0317083"><ele>585.0</ele><time>2026-04-22T11:19:55.332Z</time></trkpt><trkpt lat="45.5647867" lon="11.0318017"><ele>586.0</ele><time>2026-04-22T11:19:56.332Z</time></trkpt><trkpt lat="45.56485" lon="11.0318917"><ele>587.0</ele><time>2026-04-22T11:19:57.332Z</time></trkpt><trkpt lat="45.5649167" lon="11.03198"><ele>590.8000000000001</ele><time>2026-04-22T11:19:58.332Z</time></trkpt><trkpt lat="45.564995" lon="11.0320683"><ele>594.6</ele><time>2026-04-22T11:19:59.332Z</time></trkpt><trkpt lat="45.5650733" lon="11.0321583"><ele>598.4000000000001</ele><time>2026-04-22T11:20:00.332Z</time></trkpt><trkpt lat="45.565145" lon="11.0322483"><ele>602.2</ele><time>2026-04-22T11:20:01.332Z</time></trkpt><trkpt lat="45.5652233" lon="11.0323367"><ele>606.0</ele><time>2026-04-22T11:20:02.332Z</time></trkpt><trkpt lat="45.565295" lon="11.0324283"><ele>610.0</ele><time>2026-04-22T11:20:03.333Z</time></trkpt><trkpt lat="45.565405" lon="11.032505"><ele>614.0</ele><time>2026-04-22T11:20:04.332Z</time></trkpt><trkpt lat="45.565525" lon="11.0325617"><ele>618.0</ele><time>2026-04-22T11:20:05.332Z</time></trkpt><trkpt lat="45.565605" lon="11.0326467"><ele>622.0</ele><time>2026-04-22T11:20:06.333Z</time></trkpt><trkpt lat="45.5657067" lon="11.0327417"><ele>622.0</ele><time>2026-04-22T11:20:07.331Z</time></trkpt><trkpt lat="45.5657667" lon="11.0328117"><ele>622.0</ele><time>2026-04-22T11:20:08.331Z</time></trkpt><trkpt lat="45.5658283" lon="11.0328883"><ele>622.0</ele><time>2026-04-22T11:20:09.331Z</time></trkpt><trkpt lat="45.5658933" lon="11.03296"><ele>622.0</ele><time>2026-04-22T11:20:10.331Z</time></trkpt><trkpt lat="45.5659633" lon="11.0330367"><ele>622.0</ele><time>2026-04-22T11:20:11.332Z</time></trkpt><trkpt lat="45.5660233" lon="11.033095"><ele>622.0</ele><time>2026-04-22T11:20:12.331Z</time></trkpt><trkpt lat="45.5660983" lon="11.0331767"><ele>621.25</ele><time>2026-04-22T11:20:13.332Z</time></trkpt><trkpt lat="45.5661983" lon="11.0332583"><ele>620.5</ele><time>2026-04-22T11:20:14.331Z</time></trkpt><trkpt lat="45.566315" lon="11.033355"><ele>619.75</ele><time>2026-04-22T11:20:15.332Z</time></trkpt><trkpt lat="45.5664333" lon="11.033435"><ele>619.0</ele><time>2026-04-22T11:20:16.331Z</time></trkpt><trkpt lat="45.566565" lon="11.0335117"><ele>623.0</ele><time>2026-04-22T11:20:17.331Z</time></trkpt><trkpt lat="45.5666367" lon="11.033585"><ele>627.0</ele><time>2026-04-22T11:20:18.331Z</time></trkpt><trkpt lat="45.5667083" lon="11.0336617"><ele>631.0</ele><time>2026-04-22T11:20:19.331Z</time></trkpt><trkpt lat="45.566785" lon="11.033745"><ele>635.0</ele><time>2026-04-22T11:20:20.331Z</time></trkpt><trkpt lat="45.5668567" lon="11.033835"><ele>639.0</ele><time>2026-04-22T11:20:21.332Z</time></trkpt><trkpt lat="45.5669317" lon="11.03394"><ele>639.0</ele><time>2026-04-22T11:20:22.331Z</time></trkpt><trkpt lat="45.5670083" lon="11.0340333"><ele>639.0</ele><time>2026-04-22T11:20:23.331Z</time></trkpt><trkpt lat="45.56709" lon="11.03412"><ele>639.0</ele><time>2026-04-22T11:20:24.331Z</time></trkpt><trkpt lat="45.5671733" lon="11.0341967"><ele>639.0</ele><time>2026-04-22T11:20:25.331Z</time></trkpt><trkpt lat="45.5672667" lon="11.03428"><ele>639.0</ele><time>2026-04-22T11:20:26.331Z</time></trkpt><trkpt lat="45.5673517" lon="11.034365"><ele>643.0</ele><time>2026-04-22T11:20:27.331Z</time></trkpt><trkpt lat="45.5674317" lon="11.034455"><ele>647.0</ele><time>2026-04-22T11:20:28.331Z</time></trkpt><trkpt lat="45.5675433" lon="11.0345333"><ele>651.0</ele><time>2026-04-22T11:20:29.331Z</time></trkpt><trkpt lat="45.5676433" lon="11.0346133"><ele>655.0</ele><time>2026-04-22T11:20:30.332Z</time></trkpt><trkpt lat="45.5677433" lon="11.034695"><ele>655.0</ele><time>2026-04-22T11:20:31.331Z</time></trkpt><trkpt lat="45.5678417" lon="11.0347683"><ele>655.0</ele><time>2026-04-22T11:20:32.331Z</time></trkpt><trkpt lat="45.5679383" lon="11.0348483"><ele>655.0</ele><time>2026-04-22T11:20:33.331Z</time></trkpt><trkpt lat="45.568025" lon="11.03493"><ele>655.0</ele><time>2026-04-22T11:20:34.331Z</time></trkpt><trkpt lat="45.5681183" lon="11.03503"><ele>655.0</ele><time>2026-04-22T11:20:35.331Z</time></trkpt><trkpt lat="45.56821" lon="11.0351383"><ele>658.0</ele><time>2026-04-22T11:20:36.331Z</time></trkpt><trkpt lat="45.5683033" lon="11.035245"><ele>661.0</ele><time>2026-04-22T11:20:37.331Z</time></trkpt><trkpt lat="45.5683983" lon="11.0353633"><ele>664.0</ele><time>2026-04-22T11:20:38.331Z</time></trkpt><trkpt lat="45.568475" lon="11.03549"><ele>667.0</ele><time>2026-04-22T11:20:39.331Z</time></trkpt><trkpt lat="45.5685433" lon="11.0356233"><ele>667.0</ele><time>2026-04-22T11:20:40.332Z</time></trkpt><trkpt lat="45.5685983" lon="11.0357667"><ele>667.0</ele><time>2026-04-22T11:20:41.331Z</time></trkpt><trkpt lat="45.5686267" lon="11.0359233"><ele>667.0</ele><time>2026-04-22T11:20:42.331Z</time></trkpt><trkpt lat="45.5686483" lon="11.0360783"><ele>667.0</ele><time>2026-04-22T11:20:43.331Z</time></trkpt><trkpt lat="45.5686733" lon="11.0362133"><ele>667.0</ele><time>2026-04-22T11:20:44.331Z</time></trkpt><trkpt lat="45.5687" lon="11.0363317"><ele>667.4000000000001</ele><time>2026-04-22T11:20:45.331Z</time></trkpt><trkpt lat="45.5687333" lon="11.0364267"><ele>667.8000000000001</ele><time>2026-04-22T11:20:46.331Z</time></trkpt><trkpt lat="45.5687783" lon="11.0365017"><ele>668.2</ele><time>2026-04-22T11:20:47.331Z</time></trkpt><trkpt lat="45.5689333" lon="11.0365217"><ele>668.6</ele><time>2026-04-22T11:20:49.331Z</time></trkpt><trkpt lat="45.569025" lon="11.036535"><ele>669.0</ele><time>2026-04-22T11:20:50.332Z</time></trkpt><trkpt lat="45.56911" lon="11.036555"><ele>669.0</ele><time>2026-04-22T11:20:51.331Z</time></trkpt><trkpt lat="45.569185" lon="11.0366"><ele>669.0</ele><time>2026-04-22T11:20:52.331Z</time></trkpt><trkpt lat="45.5692533" lon="11.0366483"><ele>669.0</ele><time>2026-04-22T11:20:53.331Z</time></trkpt><trkpt lat="45.5693167" lon="11.0367467"><ele>669.0</ele><time>2026-04-22T11:20:55.331Z</time></trkpt><trkpt lat="45.5693617" lon="11.0368617"><ele>669.0</ele><time>2026-04-22T11:20:57.331Z</time></trkpt><trkpt lat="45.5694033" lon="11.036945"><ele>669.0</ele><time>2026-04-22T11:20:58.331Z</time></trkpt><trkpt lat="45.5694567" lon="11.037025"><ele>668.6</ele><time>2026-04-22T11:20:59.332Z</time></trkpt><trkpt lat="45.569505" lon="11.037095"><ele>668.2</ele><time>2026-04-22T11:21:00.331Z</time></trkpt><trkpt lat="45.5695833" lon="11.037215"><ele>667.8000000000001</ele><time>2026-04-22T11:21:02.331Z</time></trkpt><trkpt lat="45.56963" lon="11.03738"><ele>667.4000000000001</ele><time>2026-04-22T11:21:04.331Z</time></trkpt><trkpt lat="45.5696433" lon="11.0374867"><ele>667.0</ele><time>2026-04-22T11:21:05.331Z</time></trkpt><trkpt lat="45.5696583" lon="11.0376233"><ele>669.2</ele><time>2026-04-22T11:21:06.331Z</time></trkpt><trkpt lat="45.5696833" lon="11.0377733"><ele>671.4000000000001</ele><time>2026-04-22T11:21:07.331Z</time></trkpt><trkpt lat="45.569705" lon="11.0379033"><ele>673.5999999999999</ele><time>2026-04-22T11:21:08.332Z</time></trkpt><trkpt lat="45.5697167" lon="11.0380367"><ele>675.8</ele><time>2026-04-22T11:21:09.331Z</time></trkpt><trkpt lat="45.5697533" lon="11.038175"><ele>678.0</ele><time>2026-04-22T11:21:10.331Z</time></trkpt><trkpt lat="45.5698133" lon="11.038305"><ele>679.5999999999999</ele><time>2026-04-22T11:21:11.331Z</time></trkpt><trkpt lat="45.56988" lon="11.038435"><ele>681.1999999999999</ele><time>2026-04-22T11:21:12.331Z</time></trkpt><trkpt lat="45.5699433" lon="11.038555"><ele>682.8</ele><time>2026-04-22T11:21:13.331Z</time></trkpt><trkpt lat="45.5700033" lon="11.03869"><ele>684.4</ele><time>2026-04-22T11:21:14.331Z</time></trkpt><trkpt lat="45.570045" lon="11.0388317"><ele>686.0</ele><time>2026-04-22T11:21:15.331Z</time></trkpt><trkpt lat="45.5700683" lon="11.03897"><ele>686.0</ele><time>2026-04-22T11:21:16.332Z</time></trkpt><trkpt lat="45.5701017" lon="11.0391017"><ele>686.0</ele><time>2026-04-22T11:21:17.331Z</time></trkpt><trkpt lat="45.57017" lon="11.0392417"><ele>686.0</ele><time>2026-04-22T11:21:18.331Z</time></trkpt><trkpt lat="45.5702183" lon="11.0393567"><ele>686.0</ele><time>2026-04-22T11:21:19.331Z</time></trkpt><trkpt lat="45.5702633" lon="11.0394633"><ele>686.0</ele><time>2026-04-22T11:21:20.331Z</time></trkpt><trkpt lat="45.5703167" lon="11.0395817"><ele>686.5</ele><time>2026-04-22T11:21:21.332Z</time></trkpt><trkpt lat="45.570365" lon="11.03969"><ele>687.0</ele><time>2026-04-22T11:21:22.331Z</time></trkpt><trkpt lat="45.57041" lon="11.0397683"><ele>687.5</ele><time>2026-04-22T11:21:23.331Z</time></trkpt><trkpt lat="45.5705233" lon="11.0398183"><ele>688.0</ele><time>2026-04-22T11:21:25.331Z</time></trkpt><trkpt lat="45.5706017" lon="11.03984"><ele>688.5</ele><time>2026-04-22T11:21:26.331Z</time></trkpt><trkpt lat="45.5706667" lon="11.039875"><ele>689.0</ele><time>2026-04-22T11:21:27.331Z</time></trkpt><trkpt lat="45.5707417" lon="11.039935"><ele>692.0</ele><time>2026-04-22T11:21:28.331Z</time></trkpt><trkpt lat="45.570835" lon="11.03998"><ele>695.0</ele><time>2026-04-22T11:21:29.331Z</time></trkpt><trkpt lat="45.57092" lon="11.0400433"><ele>698.0</ele><time>2026-04-22T11:21:30.331Z</time></trkpt><trkpt lat="45.5709983" lon="11.0401183"><ele>701.0</ele><time>2026-04-22T11:21:31.331Z</time></trkpt><trkpt lat="45.5711167" lon="11.04026"><ele>704.0</ele><time>2026-04-22T11:21:32.331Z</time></trkpt><trkpt lat="45.571185" lon="11.04034"><ele>702.8333333333333</ele><time>2026-04-22T11:21:33.331Z</time></trkpt><trkpt lat="45.5712417" lon="11.0404033"><ele>701.6666666666666</ele><time>2026-04-22T11:21:34.331Z</time></trkpt><trkpt lat="45.5712883" lon="11.040485"><ele>700.5</ele><time>2026-04-22T11:21:35.331Z</time></trkpt><trkpt lat="45.5713367" lon="11.040565"><ele>699.3333333333334</ele><time>2026-04-22T11:21:36.331Z</time></trkpt><trkpt lat="45.5714283" lon="11.0406117"><ele>698.1666666666667</ele><time>2026-04-22T11:21:37.331Z</time></trkpt><trkpt lat="45.5715133" lon="11.0406667"><ele>697.0</ele><time>2026-04-22T11:21:38.332Z</time></trkpt><trkpt lat="45.57159" lon="11.0407183"><ele>697.0</ele><time>2026-04-22T11:21:39.331Z</time></trkpt><trkpt lat="45.5716517" lon="11.0407467"><ele>697.0</ele><time>2026-04-22T11:21:40.332Z</time></trkpt><trkpt lat="45.571725" lon="11.0407567"><ele>697.0</ele><time>2026-04-22T11:21:41.331Z</time></trkpt><trkpt lat="45.571795" lon="11.04076"><ele>697.0</ele><time>2026-04-22T11:21:42.331Z</time></trkpt><trkpt lat="45.57192" lon="11.0407567"><ele>697.0</ele><time>2026-04-22T11:21:43.331Z</time></trkpt><trkpt lat="45.5719933" lon="11.0407667"><ele>697.0</ele><time>2026-04-22T11:21:44.331Z</time></trkpt><trkpt lat="45.57206" lon="11.0407783"><ele>697.3333333333334</ele><time>2026-04-22T11:21:45.332Z</time></trkpt><trkpt lat="45.5721717" lon="11.0408183"><ele>697.6666666666667</ele><time>2026-04-22T11:21:47.331Z</time></trkpt><trkpt lat="45.5722433" lon="11.04084"><ele>698.0</ele><time>2026-04-22T11:21:51.331Z</time></trkpt><trkpt lat="45.57233" lon="11.040805"><ele>698.3333333333334</ele><time>2026-04-22T11:21:55.331Z</time></trkpt><trkpt lat="45.5724017" lon="11.0407967"><ele>698.6666666666666</ele><time>2026-04-22T11:21:57.331Z</time></trkpt><trkpt lat="45.5724483" lon="11.0408767"><ele>699.0</ele><time>2026-04-22T11:21:59.331Z</time></trkpt><trkpt lat="45.57239" lon="11.0409883"><ele>699.4000000000001</ele><time>2026-04-22T11:22:01.332Z</time></trkpt><trkpt lat="45.572315" lon="11.0410517"><ele>699.8</ele><time>2026-04-22T11:22:02.332Z</time></trkpt><trkpt lat="45.5722317" lon="11.0411583"><ele>700.2</ele><time>2026-04-22T11:22:03.331Z</time></trkpt><trkpt lat="45.5721683" lon="11.0412717"><ele>700.5999999999999</ele><time>2026-04-22T11:22:04.331Z</time></trkpt><trkpt lat="45.5721267" lon="11.041395"><ele>701.0</ele><time>2026-04-22T11:22:05.331Z</time></trkpt><trkpt lat="45.5721083" lon="11.04152"><ele>700.0</ele><time>2026-04-22T11:22:06.331Z</time></trkpt><trkpt lat="45.572135" lon="11.0416533"><ele>699.0</ele><time>2026-04-22T11:22:07.332Z</time></trkpt><trkpt lat="45.572175" lon="11.0417967"><ele>698.0</ele><time>2026-04-22T11:22:08.331Z</time></trkpt><trkpt lat="45.5722117" lon="11.0419383"><ele>697.0</ele><time>2026-04-22T11:22:09.331Z</time></trkpt><trkpt lat="45.5722417" lon="11.0420833"><ele>696.0</ele><time>2026-04-22T11:22:10.331Z</time></trkpt><trkpt lat="45.5722933" lon="11.0422283"><ele>696.0</ele><time>2026-04-22T11:22:11.331Z</time></trkpt><trkpt lat="45.5723517" lon="11.0423917"><ele>696.0</ele><time>2026-04-22T11:22:12.331Z</time></trkpt><trkpt lat="45.5723933" lon="11.0425533"><ele>696.0</ele><time>2026-04-22T11:22:13.331Z</time></trkpt><trkpt lat="45.5724367" lon="11.0427217"><ele>696.0</ele><time>2026-04-22T11:22:14.331Z</time></trkpt><trkpt lat="45.5724667" lon="11.042895"><ele>695.0</ele><time>2026-04-22T11:22:15.331Z</time></trkpt><trkpt lat="45.5724933" lon="11.0430633"><ele>694.0</ele><time>2026-04-22T11:22:16.331Z</time></trkpt><trkpt lat="45.5724883" lon="11.043225"><ele>693.0</ele><time>2026-04-22T11:22:17.331Z</time></trkpt><trkpt lat="45.5724817" lon="11.0433733"><ele>692.0</ele><time>2026-04-22T11:22:18.331Z</time></trkpt><trkpt lat="45.572465" lon="11.0435183"><ele>691.0</ele><time>2026-04-22T11:22:19.331Z</time></trkpt><trkpt lat="45.572445" lon="11.0436717"><ele>689.25</ele><time>2026-04-22T11:22:20.331Z</time></trkpt><trkpt lat="45.57242" lon="11.0438367"><ele>687.5</ele><time>2026-04-22T11:22:21.331Z</time></trkpt><trkpt lat="45.5723783" lon="11.0440117"><ele>685.75</ele><time>2026-04-22T11:22:22.331Z</time></trkpt><trkpt lat="45.572355" lon="11.0441783"><ele>684.0</ele><time>2026-04-22T11:22:23.331Z</time></trkpt><trkpt lat="45.5723333" lon="11.0443567"><ele>681.75</ele><time>2026-04-22T11:22:24.331Z</time></trkpt><trkpt lat="45.5723167" lon="11.04454"><ele>679.5</ele><time>2026-04-22T11:22:25.331Z</time></trkpt><trkpt lat="45.5722933" lon="11.044725"><ele>677.25</ele><time>2026-04-22T11:22:26.331Z</time></trkpt><trkpt lat="45.57227" lon="11.0449017"><ele>675.0</ele><time>2026-04-22T11:22:27.331Z</time></trkpt><trkpt lat="45.5722433" lon="11.04507"><ele>674.0</ele><time>2026-04-22T11:22:28.331Z</time></trkpt><trkpt lat="45.57222" lon="11.045245"><ele>673.0</ele><time>2026-04-22T11:22:29.331Z</time></trkpt><trkpt lat="45.5721883" lon="11.0454217"><ele>672.0</ele><time>2026-04-22T11:22:30.331Z</time></trkpt><trkpt lat="45.5721483" lon="11.0455933"><ele>671.0</ele><time>2026-04-22T11:22:31.331Z</time></trkpt><trkpt lat="45.5721033" lon="11.04576"><ele>670.25</ele><time>2026-04-22T11:22:32.331Z</time></trkpt><trkpt lat="45.57206" lon="11.0459333"><ele>669.5</ele><time>2026-04-22T11:22:33.331Z</time></trkpt><trkpt lat="45.5720033" lon="11.0460883"><ele>668.75</ele><time>2026-04-22T11:22:34.331Z</time></trkpt><trkpt lat="45.5719583" lon="11.04623"><ele>668.0</ele><time>2026-04-22T11:22:35.331Z</time></trkpt><trkpt lat="45.5718683" lon="11.0463583"><ele>667.25</ele><time>2026-04-22T11:22:36.331Z</time></trkpt><trkpt lat="45.5718467" lon="11.0464933"><ele>666.5</ele><time>2026-04-22T11:22:37.332Z</time></trkpt><trkpt lat="45.57183" lon="11.0466517"><ele>665.75</ele><time>2026-04-22T11:22:38.331Z</time></trkpt><trkpt lat="45.5718267" lon="11.04682"><ele>665.0</ele><time>2026-04-22T11:22:39.331Z</time></trkpt><trkpt lat="45.5718183" lon="11.047005"><ele>662.2</ele><time>2026-04-22T11:22:40.331Z</time></trkpt><trkpt lat="45.57181" lon="11.0471783"><ele>659.4</ele><time>2026-04-22T11:22:41.331Z</time></trkpt><trkpt lat="45.571795" lon="11.047345"><ele>656.5999999999999</ele><time>2026-04-22T11:22:42.331Z</time></trkpt><trkpt lat="45.5717833" lon="11.0474517"><ele>653.8</ele><time>2026-04-22T11:22:43.332Z</time></trkpt><trkpt lat="45.5717733" lon="11.04761"><ele>651.0</ele><time>2026-04-22T11:22:45.331Z</time></trkpt><trkpt lat="45.57171" lon="11.0477117"><ele>649.0</ele><time>2026-04-22T11:22:47.331Z</time></trkpt><trkpt lat="45.5716617" lon="11.047855"><ele>647.0</ele><time>2026-04-22T11:22:49.331Z</time></trkpt><trkpt lat="45.57155" lon="11.0479"><ele>645.0</ele><time>2026-04-22T11:22:51.332Z</time></trkpt><trkpt lat="45.57147" lon="11.0478883"><ele>643.0</ele><time>2026-04-22T11:22:52.331Z</time></trkpt><trkpt lat="45.5713533" lon="11.0479767"><ele>641.0</ele><time>2026-04-22T11:22:54.332Z</time></trkpt><trkpt lat="45.5712783" lon="11.04802"><ele>641.0</ele><time>2026-04-22T11:22:55.332Z</time></trkpt><trkpt lat="45.5711983" lon="11.048065"><ele>641.0</ele><time>2026-04-22T11:22:56.331Z</time></trkpt><trkpt lat="45.5711267" lon="11.04809"><ele>641.0</ele><time>2026-04-22T11:22:57.331Z</time></trkpt><trkpt lat="45.5710567" lon="11.0480983"><ele>641.0</ele><time>2026-04-22T11:22:58.331Z</time></trkpt><trkpt lat="45.570985" lon="11.0481"><ele>641.0</ele><time>2026-04-22T11:22:59.331Z</time></trkpt><trkpt lat="45.5709083" lon="11.04808"><ele>641.0</ele><time>2026-04-22T11:23:01.331Z</time></trkpt><trkpt lat="45.5708533" lon="11.048175"><ele>639.5</ele><time>2026-04-22T11:23:04.331Z</time></trkpt><trkpt lat="45.57088" lon="11.0483933"><ele>638.0</ele><time>2026-04-22T11:23:06.331Z</time></trkpt><trkpt lat="45.5709167" lon="11.0485333"><ele>636.5</ele><time>2026-04-22T11:23:07.331Z</time></trkpt><trkpt lat="45.570955" lon="11.048675"><ele>635.0</ele><time>2026-04-22T11:23:08.332Z</time></trkpt><trkpt lat="45.570995" lon="11.0487967"><ele>635.0</ele><time>2026-04-22T11:23:09.332Z</time></trkpt><trkpt lat="45.5710183" lon="11.0489317"><ele>635.0</ele><time>2026-04-22T11:23:10.331Z</time></trkpt><trkpt lat="45.5710567" lon="11.0490383"><ele>635.0</ele><time>2026-04-22T11:23:11.331Z</time></trkpt><trkpt lat="45.5710683" lon="11.049155"><ele>635.0</ele><time>2026-04-22T11:23:12.331Z</time></trkpt><trkpt lat="45.5710783" lon="11.0492467"><ele>635.0</ele><time>2026-04-22T11:23:13.331Z</time></trkpt><trkpt lat="45.571065" lon="11.0493983"><ele>635.0</ele><time>2026-04-22T11:23:15.33Z</time></trkpt><trkpt lat="45.57109" lon="11.0495133"><ele>635.2</ele><time>2026-04-22T11:23:17.33Z</time></trkpt><trkpt lat="45.5711967" lon="11.049585"><ele>635.4</ele><time>2026-04-22T11:23:19.33Z</time></trkpt><trkpt lat="45.571255" lon="11.0496833"><ele>635.6</ele><time>2026-04-22T11:23:21.331Z</time></trkpt><trkpt lat="45.5713217" lon="11.0498067"><ele>635.8</ele><time>2026-04-22T11:23:23.33Z</time></trkpt><trkpt lat="45.5713567" lon="11.0498933"><ele>636.0</ele><time>2026-04-22T11:23:24.33Z</time></trkpt><trkpt lat="45.5713967" lon="11.0499783"><ele>635.1666666666666</ele><time>2026-04-22T11:23:25.33Z</time></trkpt><trkpt lat="45.57143" lon="11.0500583"><ele>634.3333333333334</ele><time>2026-04-22T11:23:26.331Z</time></trkpt><trkpt lat="45.5714733" lon="11.0501667"><ele>633.5</ele><time>2026-04-22T11:23:27.33Z</time></trkpt><trkpt lat="45.5715" lon="11.0502767"><ele>632.6666666666667</ele><time>2026-04-22T11:23:28.33Z</time></trkpt><trkpt lat="45.5715267" lon="11.05038"><ele>631.8333333333334</ele><time>2026-04-22T11:23:29.33Z</time></trkpt><trkpt lat="45.5715517" lon="11.050485"><ele>631.0</ele><time>2026-04-22T11:23:30.33Z</time></trkpt><trkpt lat="45.571585" lon="11.0505883"><ele>631.0</ele><time>2026-04-22T11:23:31.33Z</time></trkpt><trkpt lat="45.5716267" lon="11.0506983"><ele>631.0</ele><time>2026-04-22T11:23:32.33Z</time></trkpt><trkpt lat="45.57166" lon="11.0508017"><ele>631.0</ele><time>2026-04-22T11:23:33.33Z</time></trkpt><trkpt lat="45.5716783" lon="11.0509133"><ele>631.0</ele><time>2026-04-22T11:23:34.33Z</time></trkpt><trkpt lat="45.5717133" lon="11.0510067"><ele>631.0</ele><time>2026-04-22T11:23:35.33Z</time></trkpt><trkpt lat="45.57174" lon="11.0510933"><ele>631.0</ele><time>2026-04-22T11:23:36.33Z</time></trkpt><trkpt lat="45.5717583" lon="11.051195"><ele>629.8</ele><time>2026-04-22T11:23:37.331Z</time></trkpt><trkpt lat="45.571765" lon="11.0513617"><ele>628.6</ele><time>2026-04-22T11:23:38.331Z</time></trkpt><trkpt lat="45.5717983" lon="11.0514883"><ele>627.4</ele><time>2026-04-22T11:23:39.331Z</time></trkpt><trkpt lat="45.5717983" lon="11.0516367"><ele>626.2</ele><time>2026-04-22T11:23:41.33Z</time></trkpt><trkpt lat="45.5718383" lon="11.0517467"><ele>625.0</ele><time>2026-04-22T11:23:45.33Z</time></trkpt><trkpt lat="45.5718767" lon="11.0518367"><ele>624.3333333333334</ele><time>2026-04-22T11:23:54.331Z</time></trkpt><trkpt lat="45.5719233" lon="11.0520167"><ele>623.6666666666667</ele><time>2026-04-22T11:23:55.33Z</time></trkpt><trkpt lat="45.5719233" lon="11.0521467"><ele>623.0</ele><time>2026-04-22T11:23:58.33Z</time></trkpt><trkpt lat="45.57195" lon="11.0522367"><ele>622.3333333333334</ele><time>2026-04-22T11:23:59.331Z</time></trkpt><trkpt lat="45.5719717" lon="11.0523467"><ele>621.6666666666666</ele><time>2026-04-22T11:24:01.33Z</time></trkpt><trkpt lat="45.5720083" lon="11.052425"><ele>621.0</ele><time>2026-04-22T11:24:03.331Z</time></trkpt><trkpt lat="45.5720667" lon="11.0524983"><ele>626.0</ele><time>2026-04-22T11:24:05.33Z</time></trkpt><trkpt lat="45.572125" lon="11.052675"><ele>631.0</ele><time>2026-04-22T11:24:07.33Z</time></trkpt><trkpt lat="45.5721467" lon="11.05281"><ele>636.0</ele><time>2026-04-22T11:24:08.33Z</time></trkpt><trkpt lat="45.5721517" lon="11.0529283"><ele>641.0</ele><time>2026-04-22T11:24:09.33Z</time></trkpt><trkpt lat="45.5721633" lon="11.0530483"><ele>646.0</ele><time>2026-04-22T11:24:10.33Z</time></trkpt><trkpt lat="45.5721967" lon="11.053195"><ele>645.8333333333334</ele><time>2026-04-22T11:24:11.33Z</time></trkpt><trkpt lat="45.5722233" lon="11.05331"><ele>645.6666666666667</ele><time>2026-04-22T11:24:12.33Z</time></trkpt><trkpt lat="45.5722717" lon="11.0534283"><ele>645.5</ele><time>2026-04-22T11:24:13.33Z</time></trkpt><trkpt lat="45.5723017" lon="11.053545"><ele>645.3333333333334</ele><time>2026-04-22T11:24:14.331Z</time></trkpt><trkpt lat="45.57233" lon="11.053665"><ele>645.1666666666666</ele><time>2026-04-22T11:24:15.33Z</time></trkpt><trkpt lat="45.57236" lon="11.0537767"><ele>645.0</ele><time>2026-04-22T11:24:16.33Z</time></trkpt><trkpt lat="45.57239" lon="11.0538667"><ele>645.0</ele><time>2026-04-22T11:24:17.33Z</time></trkpt><trkpt lat="45.57245" lon="11.0539933"><ele>645.0</ele><time>2026-04-22T11:24:19.331Z</time></trkpt><trkpt lat="45.572435" lon="11.0540967"><ele>645.0</ele><time>2026-04-22T11:24:21.33Z</time></trkpt><trkpt lat="45.5724467" lon="11.05426"><ele>645.0</ele><time>2026-04-22T11:24:23.331Z</time></trkpt><trkpt lat="45.5724917" lon="11.054405"><ele>645.0</ele><time>2026-04-22T11:24:25.33Z</time></trkpt><trkpt lat="45.5725533" lon="11.0545183"><ele>643.6</ele><time>2026-04-22T11:24:27.33Z</time></trkpt><trkpt lat="45.5725867" lon="11.0546933"><ele>642.2</ele><time>2026-04-22T11:24:29.33Z</time></trkpt><trkpt lat="45.5725967" lon="11.0548033"><ele>640.8</ele><time>2026-04-22T11:24:30.33Z</time></trkpt><trkpt lat="45.5725867" lon="11.054965"><ele>639.4</ele><time>2026-04-22T11:24:31.33Z</time></trkpt><trkpt lat="45.572595" lon="11.0550983"><ele>638.0</ele><time>2026-04-22T11:24:32.331Z</time></trkpt><trkpt lat="45.5726" lon="11.0552133"><ele>634.4</ele><time>2026-04-22T11:24:33.33Z</time></trkpt><trkpt lat="45.5726567" lon="11.05527"><ele>630.8</ele><time>2026-04-22T11:24:35.33Z</time></trkpt><trkpt lat="45.57273" lon="11.05535"><ele>627.2</ele><time>2026-04-22T11:24:39.33Z</time></trkpt><trkpt lat="45.5727417" lon="11.0555183"><ele>623.6</ele><time>2026-04-22T11:24:41.33Z</time></trkpt><trkpt lat="45.572745" lon="11.0556283"><ele>620.0</ele><time>2026-04-22T11:24:42.33Z</time></trkpt><trkpt lat="45.5728233" lon="11.0557317"><ele>621.4</ele><time>2026-04-22T11:24:44.33Z</time></trkpt><trkpt lat="45.5729083" lon="11.0558233"><ele>622.8</ele><time>2026-04-22T11:24:46.33Z</time></trkpt><trkpt lat="45.5730083" lon="11.055845"><ele>624.2</ele><time>2026-04-22T11:24:48.331Z</time></trkpt><trkpt lat="45.5730883" lon="11.055865"><ele>625.6</ele><time>2026-04-22T11:24:50.33Z</time></trkpt><trkpt lat="45.5731783" lon="11.0559117"><ele>627.0</ele><time>2026-04-22T11:24:52.33Z</time></trkpt><trkpt lat="45.5732783" lon="11.0559883"><ele>627.0</ele><time>2026-04-22T11:24:54.33Z</time></trkpt><trkpt lat="45.5733383" lon="11.0560183"><ele>627.0</ele><time>2026-04-22T11:24:55.33Z</time></trkpt><trkpt lat="45.573415" lon="11.056115"><ele>627.0</ele><time>2026-04-22T11:24:57.33Z</time></trkpt><trkpt lat="45.5734717" lon="11.0561617"><ele>627.0</ele><time>2026-04-22T11:24:58.331Z</time></trkpt><trkpt lat="45.5735917" lon="11.0562117"><ele>627.0</ele><time>2026-04-22T11:25:00.33Z</time></trkpt><trkpt lat="45.5737" lon="11.0562667"><ele>630.2</ele><time>2026-04-22T11:25:02.33Z</time></trkpt><trkpt lat="45.5737983" lon="11.0562983"><ele>633.4000000000001</ele><time>2026-04-22T11:25:04.33Z</time></trkpt><trkpt lat="45.5738633" lon="11.0563617"><ele>636.5999999999999</ele><time>2026-04-22T11:25:06.33Z</time></trkpt><trkpt lat="45.57397" lon="11.0563667"><ele>639.8</ele><time>2026-04-22T11:25:08.33Z</time></trkpt><trkpt lat="45.574065" lon="11.0563167"><ele>643.0</ele><time>2026-04-22T11:25:10.33Z</time></trkpt><trkpt lat="45.574145" lon="11.056345"><ele>643.0</ele><time>2026-04-22T11:25:12.331Z</time></trkpt><trkpt lat="45.574245" lon="11.0563367"><ele>643.0</ele><time>2026-04-22T11:25:14.33Z</time></trkpt><trkpt lat="45.5743117" lon="11.0563183"><ele>643.0</ele><time>2026-04-22T11:25:15.33Z</time></trkpt><trkpt lat="45.5744283" lon="11.0562783"><ele>643.0</ele><time>2026-04-22T11:25:17.33Z</time></trkpt><trkpt lat="45.5745133" lon="11.0562333"><ele>643.0</ele><time>2026-04-22T11:25:19.33Z</time></trkpt><trkpt lat="45.5746217" lon="11.0561817"><ele>645.8</ele><time>2026-04-22T11:25:21.33Z</time></trkpt><trkpt lat="45.574685" lon="11.0561417"><ele>648.5999999999999</ele><time>2026-04-22T11:25:22.33Z</time></trkpt><trkpt lat="45.5746883" lon="11.05602"><ele>651.4000000000001</ele><time>2026-04-22T11:25:26.33Z</time></trkpt><trkpt lat="45.574735" lon="11.0558917"><ele>654.2</ele><time>2026-04-22T11:25:29.33Z</time></trkpt><trkpt lat="45.5747733" lon="11.05578"><ele>657.0</ele><time>2026-04-22T11:25:32.331Z</time></trkpt><trkpt lat="45.5748517" lon="11.0556183"><ele>657.0</ele><time>2026-04-22T11:25:35.33Z</time></trkpt><trkpt lat="45.5748933" lon="11.0555433"><ele>657.0</ele><time>2026-04-22T11:25:37.33Z</time></trkpt><trkpt lat="45.5749717" lon="11.0554933"><ele>657.0</ele><time>2026-04-22T11:25:40.33Z</time></trkpt><trkpt lat="45.5750417" lon="11.055455"><ele>657.0</ele><time>2026-04-22T11:25:42.33Z</time></trkpt><trkpt lat="45.5751433" lon="11.0554167"><ele>657.0</ele><time>2026-04-22T11:25:44.33Z</time></trkpt><trkpt lat="45.57523" lon="11.0554067"><ele>657.0</ele><time>2026-04-22T11:25:46.33Z</time></trkpt><trkpt lat="45.5753217" lon="11.0553983"><ele>654.2</ele><time>2026-04-22T11:25:50.33Z</time></trkpt><trkpt lat="45.5754317" lon="11.0553567"><ele>651.4000000000001</ele><time>2026-04-22T11:25:52.33Z</time></trkpt><trkpt lat="45.5755067" lon="11.055325"><ele>648.5999999999999</ele><time>2026-04-22T11:25:54.33Z</time></trkpt><trkpt lat="45.5755967" lon="11.0553383"><ele>645.8</ele><time>2026-04-22T11:25:57.33Z</time></trkpt><trkpt lat="45.5756783" lon="11.0552883"><ele>643.0</ele><time>2026-04-22T11:26:00.33Z</time></trkpt><trkpt lat="45.575765" lon="11.0552133"><ele>643.0</ele><time>2026-04-22T11:26:03.33Z</time></trkpt><trkpt lat="45.5758183" lon="11.0551233"><ele>643.0</ele><time>2026-04-22T11:26:05.33Z</time></trkpt><trkpt lat="45.57589" lon="11.055035"><ele>643.0</ele><time>2026-04-22T11:26:07.33Z</time></trkpt><trkpt lat="45.5759567" lon="11.054965"><ele>643.0</ele><time>2026-04-22T11:26:10.33Z</time></trkpt><trkpt lat="45.5760167" lon="11.0549017"><ele>643.0</ele><time>2026-04-22T11:26:12.331Z</time></trkpt><trkpt lat="45.5760767" lon="11.0548483"><ele>643.0</ele><time>2026-04-22T11:26:14.33Z</time></trkpt><trkpt lat="45.576175" lon="11.0548383"><ele>646.3333333333334</ele><time>2026-04-22T11:26:17.331Z</time></trkpt><trkpt lat="45.57627" lon="11.0547933"><ele>649.6666666666667</ele><time>2026-04-22T11:26:19.33Z</time></trkpt><trkpt lat="45.5763433" lon="11.0547667"><ele>653.0</ele><time>2026-04-22T11:26:21.33Z</time></trkpt><trkpt lat="45.576425" lon="11.0547567"><ele>656.3333333333334</ele><time>2026-04-22T11:26:24.331Z</time></trkpt><trkpt lat="45.57649" lon="11.054725"><ele>659.6666666666666</ele><time>2026-04-22T11:26:26.33Z</time></trkpt><trkpt lat="45.576535" lon="11.0546567"><ele>663.0</ele><time>2026-04-22T11:26:28.33Z</time></trkpt><trkpt lat="45.5766217" lon="11.0545617"><ele>663.0</ele><time>2026-04-22T11:26:31.33Z</time></trkpt><trkpt lat="45.5766717" lon="11.0545067"><ele>663.0</ele><time>2026-04-22T11:26:33.33Z</time></trkpt><trkpt lat="45.57679" lon="11.0544817"><ele>663.0</ele><time>2026-04-22T11:26:40.329Z</time></trkpt><trkpt lat="45.5768733" lon="11.05445"><ele>663.0</ele><time>2026-04-22T11:26:43.33Z</time></trkpt><trkpt lat="45.5769483" lon="11.0544267"><ele>663.0</ele><time>2026-04-22T11:26:45.329Z</time></trkpt><trkpt lat="45.57704" lon="11.0544183"><ele>663.0</ele><time>2026-04-22T11:26:47.33Z</time></trkpt><trkpt lat="45.5771767" lon="11.0544233"><ele>665.1666666666666</ele><time>2026-04-22T11:26:53.329Z</time></trkpt><trkpt lat="45.5772433" lon="11.0543783"><ele>667.3333333333334</ele><time>2026-04-22T11:26:55.329Z</time></trkpt><trkpt lat="45.5772867" lon="11.0543117"><ele>669.5</ele><time>2026-04-22T11:26:57.329Z</time></trkpt><trkpt lat="45.57735" lon="11.054275"><ele>671.6666666666667</ele><time>2026-04-22T11:26:59.329Z</time></trkpt><trkpt lat="45.577385" lon="11.0541867"><ele>673.8333333333334</ele><time>2026-04-22T11:27:00.329Z</time></trkpt><trkpt lat="45.57746" lon="11.054065"><ele>676.0</ele><time>2026-04-22T11:27:02.329Z</time></trkpt><trkpt lat="45.5775267" lon="11.0539417"><ele>676.0</ele><time>2026-04-22T11:27:04.33Z</time></trkpt><trkpt lat="45.5775717" lon="11.05385"><ele>676.0</ele><time>2026-04-22T11:27:07.329Z</time></trkpt><trkpt lat="45.57763" lon="11.0537783"><ele>676.0</ele><time>2026-04-22T11:27:09.329Z</time></trkpt><trkpt lat="45.5777017" lon="11.0537417"><ele>676.0</ele><time>2026-04-22T11:27:11.329Z</time></trkpt><trkpt lat="45.5777967" lon="11.0537117"><ele>676.0</ele><time>2026-04-22T11:27:14.329Z</time></trkpt><trkpt lat="45.5778583" lon="11.0537967"><ele>676.0</ele><time>2026-04-22T11:27:18.329Z</time></trkpt><trkpt lat="45.5779017" lon="11.05388"><ele>675.5999999999999</ele><time>2026-04-22T11:27:20.33Z</time></trkpt><trkpt lat="45.5779583" lon="11.0539717"><ele>675.2</ele><time>2026-04-22T11:27:22.329Z</time></trkpt><trkpt lat="45.5780667" lon="11.0539733"><ele>674.8</ele><time>2026-04-22T11:27:24.329Z</time></trkpt><trkpt lat="45.57818" lon="11.053955"><ele>674.4000000000001</ele><time>2026-04-22T11:27:26.329Z</time></trkpt><trkpt lat="45.5782867" lon="11.0539383"><ele>674.0</ele><time>2026-04-22T11:27:29.329Z</time></trkpt><trkpt lat="45.5783467" lon="11.05387"><ele>674.0</ele><time>2026-04-22T11:27:31.329Z</time></trkpt><trkpt lat="45.5783933" lon="11.05379"><ele>674.0</ele><time>2026-04-22T11:27:33.329Z</time></trkpt><trkpt lat="45.5784483" lon="11.0537433"><ele>674.0</ele><time>2026-04-22T11:27:35.33Z</time></trkpt><trkpt lat="45.57849" lon="11.0536567"><ele>674.0</ele><time>2026-04-22T11:27:38.329Z</time></trkpt><trkpt lat="45.57855" lon="11.0537683"><ele>674.0</ele><time>2026-04-22T11:28:03.33Z</time></trkpt><trkpt lat="45.5786267" lon="11.0537567"><ele>674.0</ele><time>2026-04-22T11:28:07.329Z</time></trkpt><trkpt lat="45.5786833" lon="11.0536567"><ele>671.1666666666666</ele><time>2026-04-22T11:28:11.329Z</time></trkpt><trkpt lat="45.5787283" lon="11.05357"><ele>668.3333333333333</ele><time>2026-04-22T11:28:13.329Z</time></trkpt><trkpt lat="45.57877" lon="11.0534817"><ele>665.5</ele><time>2026-04-22T11:28:15.329Z</time></trkpt><trkpt lat="45.57883" lon="11.0534"><ele>662.6666666666666</ele><time>2026-04-22T11:28:17.329Z</time></trkpt><trkpt lat="45.57888" lon="11.0533317"><ele>659.8333333333334</ele><time>2026-04-22T11:28:19.329Z</time></trkpt><trkpt lat="45.5789617" lon="11.0532667"><ele>657.0</ele><time>2026-04-22T11:28:21.329Z</time></trkpt><trkpt lat="45.5790067" lon="11.0532"><ele>657.0</ele><time>2026-04-22T11:28:23.329Z</time></trkpt><trkpt lat="45.579065" lon="11.0531567"><ele>657.0</ele><time>2026-04-22T11:28:25.329Z</time></trkpt><trkpt lat="45.57913" lon="11.053035"><ele>657.0</ele><time>2026-04-22T11:28:28.329Z</time></trkpt><trkpt lat="45.5791933" lon="11.052965"><ele>657.0</ele><time>2026-04-22T11:28:30.329Z</time></trkpt><trkpt lat="45.5792717" lon="11.0528467"><ele>657.0</ele><time>2026-04-22T11:28:33.329Z</time></trkpt><trkpt lat="45.579325" lon="11.0527883"><ele>657.0</ele><time>2026-04-22T11:28:35.329Z</time></trkpt><trkpt lat="45.5794017" lon="11.05279"><ele>657.0</ele><time>2026-04-22T11:28:39.33Z</time></trkpt><trkpt lat="45.5794633" lon="11.0528467"><ele>657.0</ele><time>2026-04-22T11:28:42.329Z</time></trkpt><trkpt lat="45.57954" lon="11.052905"><ele>657.0</ele><time>2026-04-22T11:28:45.329Z</time></trkpt><trkpt lat="45.5796333" lon="11.052935"><ele>657.0</ele><time>2026-04-22T11:28:48.329Z</time></trkpt><trkpt lat="45.5797233" lon="11.0529333"><ele>657.0</ele><time>2026-04-22T11:28:50.329Z</time></trkpt><trkpt lat="45.5798067" lon="11.0529267"><ele>657.0</ele><time>2026-04-22T11:28:52.329Z</time></trkpt><trkpt lat="45.579885" lon="11.052895"><ele>657.0</ele><time>2026-04-22T11:28:54.329Z</time></trkpt><trkpt lat="45.57996" lon="11.05288"><ele>657.0</ele><time>2026-04-22T11:28:56.329Z</time></trkpt><trkpt lat="45.580045" lon="11.05287"><ele>657.0</ele><time>2026-04-22T11:28:58.33Z</time></trkpt><trkpt lat="45.58011" lon="11.0528767"><ele>657.0</ele><time>2026-04-22T11:29:00.329Z</time></trkpt><trkpt lat="45.5801817" lon="11.0528583"><ele>657.0</ele><time>2026-04-22T11:29:02.329Z</time></trkpt><trkpt lat="45.5802417" lon="11.052805"><ele>657.0</ele><time>2026-04-22T11:29:07.329Z</time></trkpt><trkpt lat="45.5803033" lon="11.0527333"><ele>657.0</ele><time>2026-04-22T11:29:09.329Z</time></trkpt><trkpt lat="45.5803583" lon="11.0526583"><ele>655.0</ele><time>2026-04-22T11:29:10.33Z</time></trkpt><trkpt lat="45.5804183" lon="11.052555"><ele>653.0</ele><time>2026-04-22T11:29:12.329Z</time></trkpt><trkpt lat="45.580455" lon="11.05248"><ele>651.0</ele><time>2026-04-22T11:29:14.329Z</time></trkpt><trkpt lat="45.5805067" lon="11.0524233"><ele>649.0</ele><time>2026-04-22T11:29:18.329Z</time></trkpt><trkpt lat="45.5804633" lon="11.0525483"><ele>647.0</ele><time>2026-04-22T11:29:38.33Z</time></trkpt><trkpt lat="45.5805283" lon="11.0525017"><ele>645.0</ele><time>2026-04-22T11:29:59.33Z</time></trkpt><trkpt lat="45.5804567" lon="11.0524567"><ele>650.8333333333334</ele><time>2026-04-22T11:30:13.328Z</time></trkpt><trkpt lat="45.5804683" lon="11.0523467"><ele>656.6666666666666</ele><time>2026-04-22T11:30:40.328Z</time></trkpt><trkpt lat="45.5805233" lon="11.052275"><ele>662.5</ele><time>2026-04-22T11:30:42.329Z</time></trkpt><trkpt lat="45.580575" lon="11.0522033"><ele>668.3333333333333</ele><time>2026-04-22T11:30:44.328Z</time></trkpt><trkpt lat="45.580635" lon="11.0521033"><ele>674.1666666666666</ele><time>2026-04-22T11:30:46.329Z</time></trkpt><trkpt lat="45.5806767" lon="11.0520283"><ele>680.0</ele><time>2026-04-22T11:30:48.329Z</time></trkpt><trkpt lat="45.5807433" lon="11.05193"><ele>680.0</ele><time>2026-04-22T11:30:50.328Z</time></trkpt><trkpt lat="45.5807933" lon="11.05185"><ele>680.0</ele><time>2026-04-22T11:30:52.328Z</time></trkpt><trkpt lat="45.580845" lon="11.0517683"><ele>680.0</ele><time>2026-04-22T11:30:54.328Z</time></trkpt><trkpt lat="45.5809017" lon="11.0516883"><ele>680.0</ele><time>2026-04-22T11:30:57.328Z</time></trkpt><trkpt lat="45.5809667" lon="11.0516017"><ele>680.0</ele><time>2026-04-22T11:30:58.328Z</time></trkpt><trkpt lat="45.5810483" lon="11.051475"><ele>680.0</ele><time>2026-04-22T11:31:00.328Z</time></trkpt><trkpt lat="45.5810967" lon="11.0513967"><ele>680.5</ele><time>2026-04-22T11:31:01.328Z</time></trkpt><trkpt lat="45.5811217" lon="11.0513133"><ele>681.0</ele><time>2026-04-22T11:31:02.329Z</time></trkpt><trkpt lat="45.5811533" lon="11.0512117"><ele>681.5</ele><time>2026-04-22T11:31:03.328Z</time></trkpt><trkpt lat="45.5811883" lon="11.0511017"><ele>682.0</ele><time>2026-04-22T11:31:04.328Z</time></trkpt><trkpt lat="45.5812117" lon="11.05101"><ele>682.5</ele><time>2026-04-22T11:31:05.328Z</time></trkpt><trkpt lat="45.5812533" lon="11.05093"><ele>683.0</ele><time>2026-04-22T11:31:06.328Z</time></trkpt><trkpt lat="45.5813467" lon="11.05083"><ele>688.1666666666666</ele><time>2026-04-22T11:31:08.328Z</time></trkpt><trkpt lat="45.5814483" lon="11.0507283"><ele>693.3333333333333</ele><time>2026-04-22T11:31:10.329Z</time></trkpt><trkpt lat="45.5815083" lon="11.05067"><ele>698.5</ele><time>2026-04-22T11:31:11.328Z</time></trkpt><trkpt lat="45.5815733" lon="11.0506133"><ele>703.6666666666666</ele><time>2026-04-22T11:31:12.328Z</time></trkpt><trkpt lat="45.5816367" lon="11.05057"><ele>708.8333333333334</ele><time>2026-04-22T11:31:13.328Z</time></trkpt><trkpt lat="45.5817033" lon="11.0505167"><ele>714.0</ele><time>2026-04-22T11:31:14.328Z</time></trkpt><trkpt lat="45.5817717" lon="11.0504783"><ele>714.0</ele><time>2026-04-22T11:31:15.329Z</time></trkpt><trkpt lat="45.581855" lon="11.0504117"><ele>714.0</ele><time>2026-04-22T11:31:16.328Z</time></trkpt><trkpt lat="45.5819383" lon="11.0503783"><ele>714.0</ele><time>2026-04-22T11:31:17.328Z</time></trkpt><trkpt lat="45.582025" lon="11.0503333"><ele>714.0</ele><time>2026-04-22T11:31:18.328Z</time></trkpt><trkpt lat="45.5821083" lon="11.0503"><ele>714.0</ele><time>2026-04-22T11:31:19.328Z</time></trkpt><trkpt lat="45.5822" lon="11.05027"><ele>712.0</ele><time>2026-04-22T11:31:20.328Z</time></trkpt><trkpt lat="45.5822817" lon="11.050235"><ele>710.0</ele><time>2026-04-22T11:31:21.329Z</time></trkpt><trkpt lat="45.5823583" lon="11.0502183"><ele>708.0</ele><time>2026-04-22T11:31:22.328Z</time></trkpt><trkpt lat="45.5824367" lon="11.0502083"><ele>706.0</ele><time>2026-04-22T11:31:23.329Z</time></trkpt><trkpt lat="45.5825133" lon="11.0502633"><ele>704.0</ele><time>2026-04-22T11:31:25.329Z</time></trkpt><trkpt lat="45.5826067" lon="11.0502117"><ele>702.0</ele><time>2026-04-22T11:31:27.328Z</time></trkpt><trkpt lat="45.5826617" lon="11.0501583"><ele>702.0</ele><time>2026-04-22T11:31:28.328Z</time></trkpt><trkpt lat="45.5827283" lon="11.0500167"><ele>702.0</ele><time>2026-04-22T11:31:30.329Z</time></trkpt><trkpt lat="45.58276" lon="11.0499033"><ele>702.0</ele><time>2026-04-22T11:31:31.329Z</time></trkpt><trkpt lat="45.582795" lon="11.049775"><ele>702.0</ele><time>2026-04-22T11:31:32.328Z</time></trkpt><trkpt lat="45.5828133" lon="11.04967"><ele>702.0</ele><time>2026-04-22T11:31:33.328Z</time></trkpt><trkpt lat="45.5828233" lon="11.0495617"><ele>704.0</ele><time>2026-04-22T11:31:34.328Z</time></trkpt><trkpt lat="45.582845" lon="11.0494083"><ele>706.0</ele><time>2026-04-22T11:31:35.328Z</time></trkpt><trkpt lat="45.582875" lon="11.0492967"><ele>708.0</ele><time>2026-04-22T11:31:36.328Z</time></trkpt><trkpt lat="45.582885" lon="11.0491883"><ele>710.0</ele><time>2026-04-22T11:31:37.329Z</time></trkpt><trkpt lat="45.5828883" lon="11.0490633"><ele>712.0</ele><time>2026-04-22T11:31:38.328Z</time></trkpt><trkpt lat="45.5828883" lon="11.0489483"><ele>714.0</ele><time>2026-04-22T11:31:39.329Z</time></trkpt><trkpt lat="45.5828867" lon="11.048825"><ele>713.0</ele><time>2026-04-22T11:31:40.328Z</time></trkpt><trkpt lat="45.5828533" lon="11.0487083"><ele>712.0</ele><time>2026-04-22T11:31:41.328Z</time></trkpt><trkpt lat="45.5828367" lon="11.0485683"><ele>711.0</ele><time>2026-04-22T11:31:42.328Z</time></trkpt><trkpt lat="45.58286" lon="11.04846"><ele>710.0</ele><time>2026-04-22T11:31:43.329Z</time></trkpt><trkpt lat="45.5828667" lon="11.0483383"><ele>709.0</ele><time>2026-04-22T11:31:44.328Z</time></trkpt><trkpt lat="45.58285" lon="11.0482017"><ele>708.0</ele><time>2026-04-22T11:31:45.328Z</time></trkpt><trkpt lat="45.5828417" lon="11.0480833"><ele>706.6666666666666</ele><time>2026-04-22T11:31:46.328Z</time></trkpt><trkpt lat="45.5828467" lon="11.0479667"><ele>705.3333333333334</ele><time>2026-04-22T11:31:47.328Z</time></trkpt><trkpt lat="45.5828367" lon="11.0478533"><ele>704.0</ele><time>2026-04-22T11:31:48.328Z</time></trkpt><trkpt lat="45.5828367" lon="11.0477133"><ele>702.6666666666667</ele><time>2026-04-22T11:31:49.328Z</time></trkpt><trkpt lat="45.5828183" lon="11.0475733"><ele>701.3333333333334</ele><time>2026-04-22T11:31:50.329Z</time></trkpt><trkpt lat="45.5828067" lon="11.0474517"><ele>700.0</ele><time>2026-04-22T11:31:51.328Z</time></trkpt><trkpt lat="45.582785" lon="11.0473383"><ele>699.6</ele><time>2026-04-22T11:31:52.329Z</time></trkpt><trkpt lat="45.582765" lon="11.0471933"><ele>699.2</ele><time>2026-04-22T11:31:53.328Z</time></trkpt><trkpt lat="45.5827383" lon="11.04705"><ele>698.8</ele><time>2026-04-22T11:31:54.328Z</time></trkpt><trkpt lat="45.58274" lon="11.0468883"><ele>698.4</ele><time>2026-04-22T11:31:55.328Z</time></trkpt><trkpt lat="45.5827167" lon="11.0467467"><ele>698.0</ele><time>2026-04-22T11:31:56.329Z</time></trkpt><trkpt lat="45.5827283" lon="11.0466433"><ele>698.3333333333333</ele><time>2026-04-22T11:31:57.328Z</time></trkpt><trkpt lat="45.582795" lon="11.0465917"><ele>698.6666666666666</ele><time>2026-04-22T11:31:58.328Z</time></trkpt><trkpt lat="45.5828517" lon="11.0465217"><ele>699.0</ele><time>2026-04-22T11:31:59.328Z</time></trkpt><trkpt lat="45.5829217" lon="11.0464533"><ele>699.3333333333334</ele><time>2026-04-22T11:32:00.328Z</time></trkpt><trkpt lat="45.583005" lon="11.0463733"><ele>699.6666666666667</ele><time>2026-04-22T11:32:01.328Z</time></trkpt><trkpt lat="45.5830933" lon="11.046355"><ele>700.0</ele><time>2026-04-22T11:32:02.328Z</time></trkpt><trkpt lat="45.583165" lon="11.0462983"><ele>700.0</ele><time>2026-04-22T11:32:03.328Z</time></trkpt><trkpt lat="45.5832183" lon="11.0462333"><ele>700.0</ele><time>2026-04-22T11:32:04.328Z</time></trkpt><trkpt lat="45.5832567" lon="11.0461483"><ele>700.0</ele><time>2026-04-22T11:32:05.328Z</time></trkpt><trkpt lat="45.5832983" lon="11.0460617"><ele>700.0</ele><time>2026-04-22T11:32:06.328Z</time></trkpt><trkpt lat="45.5832967" lon="11.04597"><ele>700.0</ele><time>2026-04-22T11:32:07.328Z</time></trkpt><trkpt lat="45.5833183" lon="11.0458267"><ele>700.0</ele><time>2026-04-22T11:32:09.328Z</time></trkpt><trkpt lat="45.5833517" lon="11.0457067"><ele>700.8333333333334</ele><time>2026-04-22T11:32:11.328Z</time></trkpt><trkpt lat="45.5833167" lon="11.04555"><ele>701.6666666666667</ele><time>2026-04-22T11:32:13.328Z</time></trkpt><trkpt lat="45.5832817" lon="11.0454083"><ele>702.5</ele><time>2026-04-22T11:32:15.329Z</time></trkpt><trkpt lat="45.5832633" lon="11.04532"><ele>703.3333333333334</ele><time>2026-04-22T11:32:16.329Z</time></trkpt><trkpt lat="45.58326" lon="11.04522"><ele>704.1666666666666</ele><time>2026-04-22T11:32:17.328Z</time></trkpt><trkpt lat="45.5832533" lon="11.0451183"><ele>705.0</ele><time>2026-04-22T11:32:18.328Z</time></trkpt><trkpt lat="45.5832683" lon="11.0450283"><ele>705.8333333333334</ele><time>2026-04-22T11:32:19.328Z</time></trkpt><trkpt lat="45.5833133" lon="11.044945"><ele>706.6666666666666</ele><time>2026-04-22T11:32:20.328Z</time></trkpt><trkpt lat="45.5834117" lon="11.0448217"><ele>707.5</ele><time>2026-04-22T11:32:21.328Z</time></trkpt><trkpt lat="45.5834417" lon="11.0447383"><ele>708.3333333333333</ele><time>2026-04-22T11:32:22.328Z</time></trkpt><trkpt lat="45.58349" lon="11.0446367"><ele>709.1666666666666</ele><time>2026-04-22T11:32:24.329Z</time></trkpt><trkpt lat="45.5835483" lon="11.04472"><ele>710.0</ele><time>2026-04-22T11:32:26.328Z</time></trkpt><trkpt lat="45.5835717" lon="11.044835"><ele>709.25</ele><time>2026-04-22T11:32:27.328Z</time></trkpt><trkpt lat="45.583645" lon="11.0450333"><ele>708.5</ele><time>2026-04-22T11:32:28.329Z</time></trkpt><trkpt lat="45.58374" lon="11.0452083"><ele>707.75</ele><time>2026-04-22T11:32:29.328Z</time></trkpt><trkpt lat="45.5838233" lon="11.045345"><ele>707.0</ele><time>2026-04-22T11:32:30.328Z</time></trkpt><trkpt lat="45.5839183" lon="11.0454633"><ele>707.0</ele><time>2026-04-22T11:32:31.328Z</time></trkpt><trkpt lat="45.5840233" lon="11.0455267"><ele>707.0</ele><time>2026-04-22T11:32:32.329Z</time></trkpt><trkpt lat="45.5841367" lon="11.0455917"><ele>707.0</ele><time>2026-04-22T11:32:33.328Z</time></trkpt><trkpt lat="45.5842417" lon="11.0456733"><ele>707.0</ele><time>2026-04-22T11:32:34.328Z</time></trkpt><trkpt lat="45.5843517" lon="11.0457683"><ele>706.5</ele><time>2026-04-22T11:32:35.328Z</time></trkpt><trkpt lat="45.58442" lon="11.0458933"><ele>706.0</ele><time>2026-04-22T11:32:36.328Z</time></trkpt><trkpt lat="45.584485" lon="11.0460283"><ele>705.5</ele><time>2026-04-22T11:32:37.328Z</time></trkpt><trkpt lat="45.58453" lon="11.0461933"><ele>705.0</ele><time>2026-04-22T11:32:38.328Z</time></trkpt><trkpt lat="45.5845483" lon="11.0463867"><ele>705.0</ele><time>2026-04-22T11:32:39.328Z</time></trkpt><trkpt lat="45.5845533" lon="11.0465483"><ele>705.0</ele><time>2026-04-22T11:32:40.328Z</time></trkpt><trkpt lat="45.58446" lon="11.0467433"><ele>705.0</ele><time>2026-04-22T11:32:41.328Z</time></trkpt><trkpt lat="45.5844" lon="11.04691"><ele>705.0</ele><time>2026-04-22T11:32:42.328Z</time></trkpt><trkpt lat="45.584385" lon="11.047045"><ele>701.0</ele><time>2026-04-22T11:32:43.328Z</time></trkpt><trkpt lat="45.58438" lon="11.047195"><ele>697.0</ele><time>2026-04-22T11:32:44.328Z</time></trkpt><trkpt lat="45.58438" lon="11.0473167"><ele>693.0</ele><time>2026-04-22T11:32:45.329Z</time></trkpt><trkpt lat="45.5843617" lon="11.0474433"><ele>689.0</ele><time>2026-04-22T11:32:47.328Z</time></trkpt><trkpt lat="45.5842783" lon="11.047565"><ele>685.0</ele><time>2026-04-22T11:32:50.328Z</time></trkpt><trkpt lat="45.5842283" lon="11.04762"><ele>685.0</ele><time>2026-04-22T11:32:51.328Z</time></trkpt><trkpt lat="45.5841967" lon="11.0475317"><ele>685.0</ele><time>2026-04-22T11:32:53.328Z</time></trkpt><trkpt lat="45.584165" lon="11.0473867"><ele>685.0</ele><time>2026-04-22T11:32:55.328Z</time></trkpt><trkpt lat="45.58414" lon="11.04728"><ele>685.0</ele><time>2026-04-22T11:32:57.328Z</time></trkpt><trkpt lat="45.5840633" lon="11.047335"><ele>685.0</ele><time>2026-04-22T11:33:03.328Z</time></trkpt><trkpt lat="45.584035" lon="11.0474483"><ele>685.0</ele><time>2026-04-22T11:33:04.329Z</time></trkpt><trkpt lat="45.5840067" lon="11.04754"><ele>682.5</ele><time>2026-04-22T11:33:05.329Z</time></trkpt><trkpt lat="45.5839883" lon="11.0477133"><ele>680.0</ele><time>2026-04-22T11:33:07.328Z</time></trkpt><trkpt lat="45.5839783" lon="11.0478983"><ele>677.5</ele><time>2026-04-22T11:33:08.328Z</time></trkpt><trkpt lat="45.583985" lon="11.0480683"><ele>675.0</ele><time>2026-04-22T11:33:10.328Z</time></trkpt><trkpt lat="45.583995" lon="11.0481867"><ele>673.5</ele><time>2026-04-22T11:33:11.329Z</time></trkpt><trkpt lat="45.58401" lon="11.048305"><ele>672.0</ele><time>2026-04-22T11:33:12.328Z</time></trkpt><trkpt lat="45.5840283" lon="11.0484233"><ele>670.5</ele><time>2026-04-22T11:33:13.328Z</time></trkpt><trkpt lat="45.5840533" lon="11.0485217"><ele>669.0</ele><time>2026-04-22T11:33:14.328Z</time></trkpt><trkpt lat="45.5841033" lon="11.0486617"><ele>667.5</ele><time>2026-04-22T11:33:16.328Z</time></trkpt><trkpt lat="45.5841483" lon="11.0487317"><ele>666.0</ele><time>2026-04-22T11:33:18.328Z</time></trkpt><trkpt lat="45.5841683" lon="11.0488667"><ele>666.0</ele><time>2026-04-22T11:33:20.328Z</time></trkpt><trkpt lat="45.58419" lon="11.0489967"><ele>666.0</ele><time>2026-04-22T11:33:22.328Z</time></trkpt><trkpt lat="45.5842" lon="11.049145"><ele>666.0</ele><time>2026-04-22T11:33:24.327Z</time></trkpt><trkpt lat="45.5842217" lon="11.04924"><ele>666.0</ele><time>2026-04-22T11:33:25.328Z</time></trkpt><trkpt lat="45.5842333" lon="11.049345"><ele>666.0</ele><time>2026-04-22T11:33:26.328Z</time></trkpt><trkpt lat="45.5842667" lon="11.0494367"><ele>666.0</ele><time>2026-04-22T11:33:27.327Z</time></trkpt><trkpt lat="45.5843083" lon="11.0495267"><ele>664.6666666666666</ele><time>2026-04-22T11:33:28.327Z</time></trkpt><trkpt lat="45.5843417" lon="11.04961"><ele>663.3333333333334</ele><time>2026-04-22T11:33:29.328Z</time></trkpt><trkpt lat="45.58438" lon="11.0496933"><ele>662.0</ele><time>2026-04-22T11:33:30.327Z</time></trkpt><trkpt lat="45.5844383" lon="11.049785"><ele>660.6666666666667</ele><time>2026-04-22T11:33:31.328Z</time></trkpt><trkpt lat="45.5845067" lon="11.0498583"><ele>659.3333333333334</ele><time>2026-04-22T11:33:32.327Z</time></trkpt><trkpt lat="45.58457" lon="11.0499283"><ele>658.0</ele><time>2026-04-22T11:33:33.327Z</time></trkpt><trkpt lat="45.5846467" lon="11.050015"><ele>658.0</ele><time>2026-04-22T11:33:34.328Z</time></trkpt><trkpt lat="45.5847283" lon="11.0500967"><ele>658.0</ele><time>2026-04-22T11:33:35.327Z</time></trkpt><trkpt lat="45.5848133" lon="11.05016"><ele>658.0</ele><time>2026-04-22T11:33:36.327Z</time></trkpt><trkpt lat="45.5849017" lon="11.05026"><ele>658.0</ele><time>2026-04-22T11:33:37.327Z</time></trkpt><trkpt lat="45.5850017" lon="11.0502983"><ele>658.0</ele><time>2026-04-22T11:33:38.327Z</time></trkpt><trkpt lat="45.5850833" lon="11.0503617"><ele>658.0</ele><time>2026-04-22T11:33:39.327Z</time></trkpt><trkpt lat="45.585145" lon="11.050425"><ele>658.0</ele><time>2026-04-22T11:33:40.327Z</time></trkpt><trkpt lat="45.585205" lon="11.050465"><ele>658.0</ele><time>2026-04-22T11:33:41.327Z</time></trkpt><trkpt lat="45.5852717" lon="11.05048"><ele>658.0</ele><time>2026-04-22T11:33:42.327Z</time></trkpt><trkpt lat="45.5853333" lon="11.05051"><ele>658.0</ele><time>2026-04-22T11:33:43.327Z</time></trkpt><trkpt lat="45.5853983" lon="11.05054"><ele>658.0</ele><time>2026-04-22T11:33:44.327Z</time></trkpt><trkpt lat="45.5854967" lon="11.0505617"><ele>658.0</ele><time>2026-04-22T11:33:46.327Z</time></trkpt><trkpt lat="45.5855683" lon="11.0505317"><ele>657.6666666666667</ele><time>2026-04-22T11:33:47.327Z</time></trkpt><trkpt lat="45.585645" lon="11.0504767"><ele>657.3333333333334</ele><time>2026-04-22T11:33:48.327Z</time></trkpt><trkpt lat="45.5857133" lon="11.0504683"><ele>657.0</ele><time>2026-04-22T11:33:49.327Z</time></trkpt><trkpt lat="45.5857917" lon="11.05043"><ele>656.6666666666666</ele><time>2026-04-22T11:33:50.328Z</time></trkpt><trkpt lat="45.5858567" lon="11.050385"><ele>656.3333333333333</ele><time>2026-04-22T11:33:51.328Z</time></trkpt><trkpt lat="45.5859217" lon="11.0503517"><ele>656.0</ele><time>2026-04-22T11:33:52.327Z</time></trkpt><trkpt lat="45.5859883" lon="11.050315"><ele>656.0</ele><time>2026-04-22T11:33:53.328Z</time></trkpt><trkpt lat="45.5860833" lon="11.050225"><ele>656.0</ele><time>2026-04-22T11:33:55.328Z</time></trkpt><trkpt lat="45.5861517" lon="11.0501767"><ele>656.0</ele><time>2026-04-22T11:33:56.327Z</time></trkpt><trkpt lat="45.58626" lon="11.0501017"><ele>656.0</ele><time>2026-04-22T11:33:58.328Z</time></trkpt><trkpt lat="45.586375" lon="11.05007"><ele>656.0</ele><time>2026-04-22T11:34:00.327Z</time></trkpt><trkpt lat="45.5864883" lon="11.0500467"><ele>654.1666666666666</ele><time>2026-04-22T11:34:02.327Z</time></trkpt><trkpt lat="45.58659" lon="11.050045"><ele>652.3333333333333</ele><time>2026-04-22T11:34:04.327Z</time></trkpt><trkpt lat="45.586675" lon="11.0500667"><ele>650.5</ele><time>2026-04-22T11:34:06.328Z</time></trkpt><trkpt lat="45.5866767" lon="11.0501683"><ele>648.6666666666666</ele><time>2026-04-22T11:34:08.327Z</time></trkpt><trkpt lat="45.5867517" lon="11.0502267"><ele>646.8333333333334</ele><time>2026-04-22T11:34:10.327Z</time></trkpt><trkpt lat="45.58683" lon="11.0502767"><ele>645.0</ele><time>2026-04-22T11:34:12.327Z</time></trkpt><trkpt lat="45.5869067" lon="11.0503083"><ele>645.0</ele><time>2026-04-22T11:34:13.327Z</time></trkpt><trkpt lat="45.587" lon="11.0503333"><ele>645.0</ele><time>2026-04-22T11:34:15.327Z</time></trkpt><trkpt lat="45.587065" lon="11.050315"><ele>645.0</ele><time>2026-04-22T11:34:16.327Z</time></trkpt><trkpt lat="45.5871833" lon="11.0503133"><ele>645.0</ele><time>2026-04-22T11:34:18.327Z</time></trkpt><trkpt lat="45.5873033" lon="11.05026"><ele>645.0</ele><time>2026-04-22T11:34:20.327Z</time></trkpt><trkpt lat="45.58738" lon="11.05022"><ele>642.8</ele><time>2026-04-22T11:34:21.327Z</time></trkpt><trkpt lat="45.5874683" lon="11.0501683"><ele>640.6</ele><time>2026-04-22T11:34:22.328Z</time></trkpt><trkpt lat="45.5875667" lon="11.0501133"><ele>638.4</ele><time>2026-04-22T11:34:23.327Z</time></trkpt><trkpt lat="45.5876383" lon="11.0500867"><ele>636.2</ele><time>2026-04-22T11:34:24.327Z</time></trkpt><trkpt lat="45.587745" lon="11.0500633"><ele>634.0</ele><time>2026-04-22T11:34:26.328Z</time></trkpt><trkpt lat="45.5878433" lon="11.050105"><ele>635.6666666666667</ele><time>2026-04-22T11:34:28.327Z</time></trkpt><trkpt lat="45.5879067" lon="11.0500817"><ele>637.3333333333334</ele><time>2026-04-22T11:34:29.327Z</time></trkpt><trkpt lat="45.5880383" lon="11.0500067"><ele>639.0</ele><time>2026-04-22T11:34:31.327Z</time></trkpt><trkpt lat="45.5881017" lon="11.0499833"><ele>640.6666666666666</ele><time>2026-04-22T11:34:32.328Z</time></trkpt><trkpt lat="45.5881917" lon="11.0499633"><ele>642.3333333333333</ele><time>2026-04-22T11:34:33.327Z</time></trkpt><trkpt lat="45.5882633" lon="11.0499367"><ele>644.0</ele><time>2026-04-22T11:34:34.327Z</time></trkpt><trkpt lat="45.5883617" lon="11.0498333"><ele>644.0</ele><time>2026-04-22T11:34:36.327Z</time></trkpt><trkpt lat="45.5884033" lon="11.0496533"><ele>644.0</ele><time>2026-04-22T11:34:38.328Z</time></trkpt><trkpt lat="45.5884167" lon="11.0495417"><ele>644.0</ele><time>2026-04-22T11:34:39.327Z</time></trkpt><trkpt lat="45.5884867" lon="11.0493933"><ele>644.0</ele><time>2026-04-22T11:34:41.327Z</time></trkpt><trkpt lat="45.58853" lon="11.0493167"><ele>644.0</ele><time>2026-04-22T11:34:42.327Z</time></trkpt><trkpt lat="45.5886267" lon="11.049295"><ele>642.4000000000001</ele><time>2026-04-22T11:34:43.327Z</time></trkpt><trkpt lat="45.5886967" lon="11.0492467"><ele>640.8000000000001</ele><time>2026-04-22T11:34:44.327Z</time></trkpt><trkpt lat="45.5888083" lon="11.049185"><ele>639.2</ele><time>2026-04-22T11:34:45.327Z</time></trkpt><trkpt lat="45.5889267" lon="11.0491533"><ele>637.6</ele><time>2026-04-22T11:34:46.327Z</time></trkpt><trkpt lat="45.5890417" lon="11.0490983"><ele>636.0</ele><time>2026-04-22T11:34:47.327Z</time></trkpt><trkpt lat="45.5891433" lon="11.0490533"><ele>636.0</ele><time>2026-04-22T11:34:48.327Z</time></trkpt><trkpt lat="45.5892267" lon="11.0490133"><ele>636.0</ele><time>2026-04-22T11:34:49.327Z</time></trkpt><trkpt lat="45.5893033" lon="11.048965"><ele>636.0</ele><time>2026-04-22T11:34:50.328Z</time></trkpt><trkpt lat="45.58938" lon="11.0488983"><ele>636.0</ele><time>2026-04-22T11:34:51.327Z</time></trkpt><trkpt lat="45.589435" lon="11.0487983"><ele>636.0</ele><time>2026-04-22T11:34:52.327Z</time></trkpt><trkpt lat="45.5894833" lon="11.048655"><ele>636.0</ele><time>2026-04-22T11:34:53.327Z</time></trkpt><trkpt lat="45.5894967" lon="11.0485217"><ele>636.0</ele><time>2026-04-22T11:34:54.328Z</time></trkpt><trkpt lat="45.5895067" lon="11.0484267"><ele>636.0</ele><time>2026-04-22T11:34:55.327Z</time></trkpt><trkpt lat="45.5895533" lon="11.04836"><ele>636.0</ele><time>2026-04-22T11:34:56.328Z</time></trkpt><trkpt lat="45.5896767" lon="11.048385"><ele>636.0</ele><time>2026-04-22T11:34:58.328Z</time></trkpt><trkpt lat="45.5897383" lon="11.0484217"><ele>636.0</ele><time>2026-04-22T11:34:59.328Z</time></trkpt><trkpt lat="45.58977" lon="11.04856"><ele>631.2</ele><time>2026-04-22T11:35:01.328Z</time></trkpt><trkpt lat="45.589755" lon="11.04872"><ele>626.4000000000001</ele><time>2026-04-22T11:35:03.327Z</time></trkpt><trkpt lat="45.5896917" lon="11.04885"><ele>621.6</ele><time>2026-04-22T11:35:05.327Z</time></trkpt><trkpt lat="45.58965" lon="11.048935"><ele>616.8000000000001</ele><time>2026-04-22T11:35:08.327Z</time></trkpt><trkpt lat="45.5895617" lon="11.0490183"><ele>612.0</ele><time>2026-04-22T11:35:10.327Z</time></trkpt><trkpt lat="45.5894483" lon="11.049165"><ele>611.2</ele><time>2026-04-22T11:35:12.327Z</time></trkpt><trkpt lat="45.5893817" lon="11.04927"><ele>610.4000000000001</ele><time>2026-04-22T11:35:13.328Z</time></trkpt><trkpt lat="45.5893033" lon="11.0493783"><ele>609.5999999999999</ele><time>2026-04-22T11:35:14.327Z</time></trkpt><trkpt lat="45.5892133" lon="11.0494583"><ele>608.8</ele><time>2026-04-22T11:35:15.327Z</time></trkpt><trkpt lat="45.5891117" lon="11.049515"><ele>608.0</ele><time>2026-04-22T11:35:16.328Z</time></trkpt><trkpt lat="45.589015" lon="11.0495917"><ele>608.0</ele><time>2026-04-22T11:35:17.327Z</time></trkpt><trkpt lat="45.5889217" lon="11.0496767"><ele>608.0</ele><time>2026-04-22T11:35:18.327Z</time></trkpt><trkpt lat="45.5888467" lon="11.0497767"><ele>608.0</ele><time>2026-04-22T11:35:19.327Z</time></trkpt><trkpt lat="45.5888" lon="11.0499283"><ele>608.0</ele><time>2026-04-22T11:35:20.327Z</time></trkpt><trkpt lat="45.5887383" lon="11.0500433"><ele>608.0</ele><time>2026-04-22T11:35:21.328Z</time></trkpt><trkpt lat="45.5887" lon="11.0501683"><ele>608.8</ele><time>2026-04-22T11:35:22.327Z</time></trkpt><trkpt lat="45.5886517" lon="11.0502983"><ele>609.5999999999999</ele><time>2026-04-22T11:35:23.328Z</time></trkpt><trkpt lat="45.5885933" lon="11.05043"><ele>610.4000000000001</ele><time>2026-04-22T11:35:24.327Z</time></trkpt><trkpt lat="45.58852" lon="11.0505233"><ele>611.2</ele><time>2026-04-22T11:35:25.327Z</time></trkpt><trkpt lat="45.58844" lon="11.0506"><ele>612.0</ele><time>2026-04-22T11:35:26.327Z</time></trkpt><trkpt lat="45.5883467" lon="11.050675"><ele>612.0</ele><time>2026-04-22T11:35:27.327Z</time></trkpt><trkpt lat="45.58824" lon="11.05076"><ele>612.0</ele><time>2026-04-22T11:35:28.327Z</time></trkpt><trkpt lat="45.5881283" lon="11.0508317"><ele>612.0</ele><time>2026-04-22T11:35:29.327Z</time></trkpt><trkpt lat="45.588015" lon="11.0509"><ele>612.0</ele><time>2026-04-22T11:35:30.328Z</time></trkpt><trkpt lat="45.5879" lon="11.0509867"><ele>610.0</ele><time>2026-04-22T11:35:31.328Z</time></trkpt><trkpt lat="45.587775" lon="11.051055"><ele>608.0</ele><time>2026-04-22T11:35:32.327Z</time></trkpt><trkpt lat="45.5876333" lon="11.0511083"><ele>606.0</ele><time>2026-04-22T11:35:33.328Z</time></trkpt><trkpt lat="45.5874983" lon="11.0511617"><ele>604.0</ele><time>2026-04-22T11:35:34.328Z</time></trkpt><trkpt lat="45.5873817" lon="11.0512733"><ele>604.0</ele><time>2026-04-22T11:35:35.327Z</time></trkpt><trkpt lat="45.5872667" lon="11.0513633"><ele>604.0</ele><time>2026-04-22T11:35:36.328Z</time></trkpt><trkpt lat="45.5871617" lon="11.05152"><ele>604.0</ele><time>2026-04-22T11:35:37.327Z</time></trkpt><trkpt lat="45.5870583" lon="11.051645"><ele>604.0</ele><time>2026-04-22T11:35:38.327Z</time></trkpt><trkpt lat="45.58694" lon="11.0517617"><ele>600.0</ele><time>2026-04-22T11:35:39.327Z</time></trkpt><trkpt lat="45.5868183" lon="11.0517817"><ele>596.0</ele><time>2026-04-22T11:35:40.327Z</time></trkpt><trkpt lat="45.5867067" lon="11.0518417"><ele>592.0</ele><time>2026-04-22T11:35:41.327Z</time></trkpt><trkpt lat="45.58659" lon="11.05186"><ele>588.0</ele><time>2026-04-22T11:35:42.327Z</time></trkpt><trkpt lat="45.5864817" lon="11.051895"><ele>588.0</ele><time>2026-04-22T11:35:43.327Z</time></trkpt><trkpt lat="45.586385" lon="11.0519367"><ele>588.0</ele><time>2026-04-22T11:35:44.328Z</time></trkpt><trkpt lat="45.5862983" lon="11.0519883"><ele>588.0</ele><time>2026-04-22T11:35:45.327Z</time></trkpt><trkpt lat="45.58623" lon="11.0520667"><ele>588.0</ele><time>2026-04-22T11:35:46.327Z</time></trkpt><trkpt lat="45.5861783" lon="11.0521533"><ele>588.0</ele><time>2026-04-22T11:35:47.328Z</time></trkpt><trkpt lat="45.5861983" lon="11.0523267"><ele>587.75</ele><time>2026-04-22T11:35:48.327Z</time></trkpt><trkpt lat="45.5861983" lon="11.052505"><ele>587.5</ele><time>2026-04-22T11:35:49.327Z</time></trkpt><trkpt lat="45.5861833" lon="11.0526683"><ele>587.25</ele><time>2026-04-22T11:35:50.327Z</time></trkpt><trkpt lat="45.5861667" lon="11.0528483"><ele>587.0</ele><time>2026-04-22T11:35:51.327Z</time></trkpt><trkpt lat="45.586135" lon="11.0529867"><ele>587.0</ele><time>2026-04-22T11:35:52.327Z</time></trkpt><trkpt lat="45.5861" lon="11.0531217"><ele>587.0</ele><time>2026-04-22T11:35:53.328Z</time></trkpt><trkpt lat="45.586065" lon="11.05322"><ele>587.0</ele><time>2026-04-22T11:35:54.327Z</time></trkpt><trkpt lat="45.5860033" lon="11.0532817"><ele>587.0</ele><time>2026-04-22T11:35:55.327Z</time></trkpt><trkpt lat="45.5859617" lon="11.0533933"><ele>587.0</ele><time>2026-04-22T11:35:56.327Z</time></trkpt><trkpt lat="45.58592" lon="11.053505"><ele>587.0</ele><time>2026-04-22T11:35:57.327Z</time></trkpt><trkpt lat="45.585845" lon="11.0535917"><ele>594.2</ele><time>2026-04-22T11:35:58.328Z</time></trkpt><trkpt lat="45.585765" lon="11.0536633"><ele>601.4000000000001</ele><time>2026-04-22T11:35:59.327Z</time></trkpt><trkpt lat="45.5857033" lon="11.053725"><ele>608.5999999999999</ele><time>2026-04-22T11:36:00.327Z</time></trkpt><trkpt lat="45.5856367" lon="11.0536583"><ele>615.8</ele><time>2026-04-22T11:36:01.328Z</time></trkpt><trkpt lat="45.58553" lon="11.0537133"><ele>623.0</ele><time>2026-04-22T11:36:03.327Z</time></trkpt><trkpt lat="45.585425" lon="11.0537483"><ele>625.6666666666666</ele><time>2026-04-22T11:36:05.327Z</time></trkpt><trkpt lat="45.585325" lon="11.0537983"><ele>628.3333333333334</ele><time>2026-04-22T11:36:07.327Z</time></trkpt><trkpt lat="45.5851333" lon="11.0538333"><ele>631.0</ele><time>2026-04-22T11:36:08.327Z</time></trkpt><trkpt lat="45.5849367" lon="11.05384"><ele>631.0</ele><time>2026-04-22T11:36:09.328Z</time></trkpt><trkpt lat="45.5846833" lon="11.05391"><ele>631.0</ele><time>2026-04-22T11:36:10.328Z</time></trkpt><trkpt lat="45.5844933" lon="11.0534833"><ele>629.0</ele><time>2026-04-22T11:36:11.327Z</time></trkpt><trkpt lat="45.58438" lon="11.0534367"><ele>627.0</ele><time>2026-04-22T11:36:12.327Z</time></trkpt><trkpt lat="45.5843183" lon="11.05334"><ele>625.0</ele><time>2026-04-22T11:36:13.328Z</time></trkpt><trkpt lat="45.584205" lon="11.0532933"><ele>623.0</ele><time>2026-04-22T11:36:14.327Z</time></trkpt><trkpt lat="45.5840867" lon="11.05326"><ele>621.0</ele><time>2026-04-22T11:36:15.327Z</time></trkpt><trkpt lat="45.5839933" lon="11.05326"><ele>615.0</ele><time>2026-04-22T11:36:16.327Z</time></trkpt><trkpt lat="45.5839183" lon="11.0532"><ele>609.0</ele><time>2026-04-22T11:36:17.328Z</time></trkpt><trkpt lat="45.5838133" lon="11.0530833"><ele>603.0</ele><time>2026-04-22T11:36:18.327Z</time></trkpt><trkpt lat="45.5837083" lon="11.0529867"><ele>597.0</ele><time>2026-04-22T11:36:19.328Z</time></trkpt><trkpt lat="45.583615" lon="11.0529417"><ele>591.0</ele><time>2026-04-22T11:36:20.327Z</time></trkpt><trkpt lat="45.5835417" lon="11.0529067"><ele>588.2</ele><time>2026-04-22T11:36:21.328Z</time></trkpt><trkpt lat="45.58345" lon="11.0529083"><ele>585.4000000000001</ele><time>2026-04-22T11:36:23.327Z</time></trkpt><trkpt lat="45.5833567" lon="11.05291"><ele>582.6</ele><time>2026-04-22T11:36:25.328Z</time></trkpt><trkpt lat="45.5832433" lon="11.0529483"><ele>579.8000000000001</ele><time>2026-04-22T11:36:27.327Z</time></trkpt><trkpt lat="45.5831783" lon="11.0530067"><ele>577.0</ele><time>2026-04-22T11:36:28.327Z</time></trkpt><trkpt lat="45.5830733" lon="11.0530667"><ele>577.0</ele><time>2026-04-22T11:36:30.327Z</time></trkpt><trkpt lat="45.5829933" lon="11.0531567"><ele>577.0</ele><time>2026-04-22T11:36:32.327Z</time></trkpt><trkpt lat="45.58289" lon="11.0532217"><ele>577.0</ele><time>2026-04-22T11:36:34.327Z</time></trkpt><trkpt lat="45.5827583" lon="11.0533533"><ele>577.0</ele><time>2026-04-22T11:36:36.327Z</time></trkpt><trkpt lat="45.5826933" lon="11.0534"><ele>577.0</ele><time>2026-04-22T11:36:37.328Z</time></trkpt><trkpt lat="45.58263" lon="11.053455"><ele>576.5714285714286</ele><time>2026-04-22T11:36:38.328Z</time></trkpt><trkpt lat="45.58257" lon="11.0534967"><ele>576.1428571428571</ele><time>2026-04-22T11:36:39.327Z</time></trkpt><trkpt lat="45.5825033" lon="11.0535117"><ele>575.7142857142858</ele><time>2026-04-22T11:36:40.327Z</time></trkpt><trkpt lat="45.5824383" lon="11.05354"><ele>575.2857142857142</ele><time>2026-04-22T11:36:41.327Z</time></trkpt><trkpt lat="45.58237" lon="11.0535633"><ele>574.8571428571429</ele><time>2026-04-22T11:36:42.327Z</time></trkpt><trkpt lat="45.5822983" lon="11.0536167"><ele>574.4285714285714</ele><time>2026-04-22T11:36:43.326Z</time></trkpt><trkpt lat="45.58223" lon="11.053685"><ele>574.0</ele><time>2026-04-22T11:36:44.326Z</time></trkpt><trkpt lat="45.5821967" lon="11.05379"><ele>574.0</ele><time>2026-04-22T11:36:45.326Z</time></trkpt><trkpt lat="45.5821683" lon="11.05395"><ele>574.0</ele><time>2026-04-22T11:36:46.326Z</time></trkpt><trkpt lat="45.5821233" lon="11.05403"><ele>574.0</ele><time>2026-04-22T11:36:47.326Z</time></trkpt><trkpt lat="45.5820833" lon="11.054135"><ele>574.0</ele><time>2026-04-22T11:36:48.326Z</time></trkpt><trkpt lat="45.5820383" lon="11.0542333"><ele>574.0</ele><time>2026-04-22T11:36:49.326Z</time></trkpt><trkpt lat="45.5820033" lon="11.0543333"><ele>574.0</ele><time>2026-04-22T11:36:50.326Z</time></trkpt><trkpt lat="45.5819733" lon="11.0544617"><ele>573.0</ele><time>2026-04-22T11:36:51.326Z</time></trkpt><trkpt lat="45.581935" lon="11.0546033"><ele>572.0</ele><time>2026-04-22T11:36:52.327Z</time></trkpt><trkpt lat="45.5818683" lon="11.054705"><ele>571.0</ele><time>2026-04-22T11:36:53.326Z</time></trkpt><trkpt lat="45.5818217" lon="11.0548217"><ele>570.0</ele><time>2026-04-22T11:36:54.326Z</time></trkpt><trkpt lat="45.58176" lon="11.054935"><ele>569.0</ele><time>2026-04-22T11:36:55.326Z</time></trkpt><trkpt lat="45.5816717" lon="11.0550267"><ele>574.6666666666666</ele><time>2026-04-22T11:36:56.326Z</time></trkpt><trkpt lat="45.581615" lon="11.0551033"><ele>580.3333333333333</ele><time>2026-04-22T11:36:57.326Z</time></trkpt><trkpt lat="45.581565" lon="11.0552"><ele>586.0</ele><time>2026-04-22T11:36:58.326Z</time></trkpt><trkpt lat="45.581505" lon="11.0552783"><ele>591.6666666666666</ele><time>2026-04-22T11:36:59.326Z</time></trkpt><trkpt lat="45.5814417" lon="11.0553567"><ele>597.3333333333334</ele><time>2026-04-22T11:37:00.326Z</time></trkpt><trkpt lat="45.581375" lon="11.0554383"><ele>603.0</ele><time>2026-04-22T11:37:01.326Z</time></trkpt><trkpt lat="45.58131" lon="11.0555233"><ele>603.0</ele><time>2026-04-22T11:37:02.326Z</time></trkpt><trkpt lat="45.5812633" lon="11.05561"><ele>603.0</ele><time>2026-04-22T11:37:03.326Z</time></trkpt><trkpt lat="45.58118" lon="11.0556783"><ele>603.0</ele><time>2026-04-22T11:37:04.327Z</time></trkpt><trkpt lat="45.581065" lon="11.05576"><ele>603.0</ele><time>2026-04-22T11:37:06.326Z</time></trkpt><trkpt lat="45.5810183" lon="11.055825"><ele>603.0</ele><time>2026-04-22T11:37:07.326Z</time></trkpt><trkpt lat="45.580915" lon="11.05584"><ele>602.4</ele><time>2026-04-22T11:37:09.326Z</time></trkpt><trkpt lat="45.5808817" lon="11.0559983"><ele>601.8</ele><time>2026-04-22T11:37:11.326Z</time></trkpt><trkpt lat="45.5808117" lon="11.056085"><ele>601.2</ele><time>2026-04-22T11:37:13.327Z</time></trkpt><trkpt lat="45.5807833" lon="11.0562017"><ele>600.6</ele><time>2026-04-22T11:37:15.326Z</time></trkpt><trkpt lat="45.5808" lon="11.0563333"><ele>600.0</ele><time>2026-04-22T11:37:17.326Z</time></trkpt><trkpt lat="45.5808" lon="11.056455"><ele>600.0</ele><time>2026-04-22T11:37:19.326Z</time></trkpt><trkpt lat="45.5808283" lon="11.0566"><ele>600.0</ele><time>2026-04-22T11:37:21.326Z</time></trkpt><trkpt lat="45.5808383" lon="11.0567267"><ele>600.0</ele><time>2026-04-22T11:37:23.326Z</time></trkpt><trkpt lat="45.580795" lon="11.0568317"><ele>600.0</ele><time>2026-04-22T11:37:25.326Z</time></trkpt><trkpt lat="45.5807467" lon="11.056955"><ele>600.0</ele><time>2026-04-22T11:37:27.326Z</time></trkpt><trkpt lat="45.580685" lon="11.0570917"><ele>604.1666666666666</ele><time>2026-04-22T11:37:29.327Z</time></trkpt><trkpt lat="45.580645" lon="11.05721"><ele>608.3333333333334</ele><time>2026-04-22T11:37:31.326Z</time></trkpt><trkpt lat="45.5806367" lon="11.0573233"><ele>612.5</ele><time>2026-04-22T11:37:33.326Z</time></trkpt><trkpt lat="45.5806283" lon="11.0574883"><ele>616.6666666666667</ele><time>2026-04-22T11:37:35.326Z</time></trkpt><trkpt lat="45.5806183" lon="11.0575783"><ele>620.8333333333334</ele><time>2026-04-22T11:37:36.326Z</time></trkpt><trkpt lat="45.580615" lon="11.0576933"><ele>625.0</ele><time>2026-04-22T11:37:37.327Z</time></trkpt><trkpt lat="45.5806283" lon="11.0578683"><ele>627.0</ele><time>2026-04-22T11:37:39.326Z</time></trkpt><trkpt lat="45.5806667" lon="11.0580417"><ele>629.0</ele><time>2026-04-22T11:37:41.326Z</time></trkpt><trkpt lat="45.5806767" lon="11.058145"><ele>631.0</ele><time>2026-04-22T11:37:42.326Z</time></trkpt><trkpt lat="45.5806967" lon="11.0583433"><ele>633.0</ele><time>2026-04-22T11:37:44.326Z</time></trkpt><trkpt lat="45.5807133" lon="11.0584483"><ele>635.0</ele><time>2026-04-22T11:37:45.326Z</time></trkpt><trkpt lat="45.5807417" lon="11.05855"><ele>635.6666666666666</ele><time>2026-04-22T11:37:46.326Z</time></trkpt><trkpt lat="45.5807567" lon="11.058645"><ele>636.3333333333333</ele><time>2026-04-22T11:37:47.326Z</time></trkpt><trkpt lat="45.580815" lon="11.0586967"><ele>637.0</ele><time>2026-04-22T11:37:48.326Z</time></trkpt><trkpt lat="45.580835" lon="11.0588717"><ele>637.6666666666666</ele><time>2026-04-22T11:37:50.326Z</time></trkpt><trkpt lat="45.580925" lon="11.0588917"><ele>638.3333333333334</ele><time>2026-04-22T11:37:52.326Z</time></trkpt><trkpt lat="45.5809333" lon="11.0590033"><ele>639.0</ele><time>2026-04-22T11:38:00.326Z</time></trkpt><trkpt lat="45.5809767" lon="11.0590933"><ele>639.6666666666666</ele><time>2026-04-22T11:38:02.326Z</time></trkpt><trkpt lat="45.58106" lon="11.05919"><ele>640.3333333333334</ele><time>2026-04-22T11:38:04.326Z</time></trkpt><trkpt lat="45.581105" lon="11.0592583"><ele>641.0</ele><time>2026-04-22T11:38:05.327Z</time></trkpt><trkpt lat="45.5811333" lon="11.05935"><ele>641.6666666666667</ele><time>2026-04-22T11:38:06.327Z</time></trkpt><trkpt lat="45.581155" lon="11.0594367"><ele>642.3333333333334</ele><time>2026-04-22T11:38:07.326Z</time></trkpt><trkpt lat="45.5810933" lon="11.0596167"><ele>643.0</ele><time>2026-04-22T11:38:09.326Z</time></trkpt><trkpt lat="45.58101" lon="11.05972"><ele>643.0</ele><time>2026-04-22T11:38:10.327Z</time></trkpt><trkpt lat="45.5809267" lon="11.0596467"><ele>643.0</ele><time>2026-04-22T11:38:11.326Z</time></trkpt><trkpt lat="45.580835" lon="11.0596667"><ele>643.0</ele><time>2026-04-22T11:38:12.326Z</time></trkpt><trkpt lat="45.580715" lon="11.0597133"><ele>643.0</ele><time>2026-04-22T11:38:13.327Z</time></trkpt><trkpt lat="45.5805367" lon="11.05975"><ele>643.0</ele><time>2026-04-22T11:38:14.326Z</time></trkpt><trkpt lat="45.58047" lon="11.0597167"><ele>643.0</ele><time>2026-04-22T11:38:15.326Z</time></trkpt><trkpt lat="45.5804117" lon="11.0596367"><ele>643.0</ele><time>2026-04-22T11:38:16.326Z</time></trkpt><trkpt lat="45.5803083" lon="11.0595217"><ele>643.0</ele><time>2026-04-22T11:38:17.326Z</time></trkpt><trkpt lat="45.5802333" lon="11.0594367"><ele>643.0</ele><time>2026-04-22T11:38:18.326Z</time></trkpt><trkpt lat="45.5801567" lon="11.05936"><ele>642.1666666666667</ele><time>2026-04-22T11:38:19.326Z</time></trkpt><trkpt lat="45.5800633" lon="11.0592933"><ele>641.3333333333334</ele><time>2026-04-22T11:38:20.326Z</time></trkpt><trkpt lat="45.5800017" lon="11.05922"><ele>640.5</ele><time>2026-04-22T11:38:21.326Z</time></trkpt><trkpt lat="45.579925" lon="11.05916"><ele>639.6666666666666</ele><time>2026-04-22T11:38:22.326Z</time></trkpt><trkpt lat="45.579855" lon="11.0591133"><ele>638.8333333333333</ele><time>2026-04-22T11:38:24.327Z</time></trkpt><trkpt lat="45.5798017" lon="11.059055"><ele>638.0</ele><time>2026-04-22T11:38:26.326Z</time></trkpt><trkpt lat="45.57988" lon="11.05902"><ele>634.1999999999999</ele><time>2026-04-22T11:38:37.326Z</time></trkpt><trkpt lat="45.5799483" lon="11.0589267"><ele>630.4</ele><time>2026-04-22T11:38:39.326Z</time></trkpt><trkpt lat="45.57998" lon="11.058805"><ele>626.5999999999999</ele><time>2026-04-22T11:38:41.326Z</time></trkpt><trkpt lat="45.579935" lon="11.0587217"><ele>622.8</ele><time>2026-04-22T11:38:42.327Z</time></trkpt><trkpt lat="45.5799033" lon="11.05856"><ele>619.0</ele><time>2026-04-22T11:38:44.326Z</time></trkpt><trkpt lat="45.579875" lon="11.0584617"><ele>619.0</ele><time>2026-04-22T11:38:45.326Z</time></trkpt><trkpt lat="45.5798333" lon="11.058315"><ele>619.0</ele><time>2026-04-22T11:38:46.326Z</time></trkpt><trkpt lat="45.57981" lon="11.0581917"><ele>619.0</ele><time>2026-04-22T11:38:47.326Z</time></trkpt><trkpt lat="45.5797933" lon="11.0580667"><ele>619.0</ele><time>2026-04-22T11:38:48.326Z</time></trkpt><trkpt lat="45.57977" lon="11.0579633"><ele>619.0</ele><time>2026-04-22T11:38:49.327Z</time></trkpt><trkpt lat="45.5796967" lon="11.0579333"><ele>619.0</ele><time>2026-04-22T11:38:51.327Z</time></trkpt><trkpt lat="45.579625" lon="11.0579117"><ele>618.0</ele><time>2026-04-22T11:38:53.326Z</time></trkpt><trkpt lat="45.5795267" lon="11.0579817"><ele>617.0</ele><time>2026-04-22T11:38:56.326Z</time></trkpt><trkpt lat="45.5794533" lon="11.0580567"><ele>616.0</ele><time>2026-04-22T11:38:59.326Z</time></trkpt><trkpt lat="45.5794067" lon="11.0581417"><ele>615.0</ele><time>2026-04-22T11:39:01.326Z</time></trkpt><trkpt lat="45.57936" lon="11.0582267"><ele>614.0</ele><time>2026-04-22T11:39:03.326Z</time></trkpt><trkpt lat="45.5793133" lon="11.0583117"><ele>613.0</ele><time>2026-04-22T11:39:05.326Z</time></trkpt><trkpt lat="45.5792583" lon="11.05843"><ele>619.2</ele><time>2026-04-22T11:39:07.326Z</time></trkpt><trkpt lat="45.57922" lon="11.0585383"><ele>625.4</ele><time>2026-04-22T11:39:09.326Z</time></trkpt><trkpt lat="45.5792233" lon="11.0587133"><ele>631.6</ele><time>2026-04-22T11:39:11.326Z</time></trkpt><trkpt lat="45.579255" lon="11.05884"><ele>637.8000000000001</ele><time>2026-04-22T11:39:12.326Z</time></trkpt><trkpt lat="45.5792717" lon="11.058985"><ele>644.0</ele><time>2026-04-22T11:39:13.326Z</time></trkpt><trkpt lat="45.57928" lon="11.059115"><ele>648.2</ele><time>2026-04-22T11:39:14.326Z</time></trkpt><trkpt lat="45.5792967" lon="11.0593683"><ele>652.4000000000001</ele><time>2026-04-22T11:39:16.326Z</time></trkpt><trkpt lat="45.57931" lon="11.0595"><ele>656.6</ele><time>2026-04-22T11:39:17.327Z</time></trkpt><trkpt lat="45.5793433" lon="11.0595833"><ele>660.8</ele><time>2026-04-22T11:39:18.326Z</time></trkpt><trkpt lat="45.5793683" lon="11.0596667"><ele>665.0</ele><time>2026-04-22T11:39:19.326Z</time></trkpt><trkpt lat="45.57941" lon="11.05981"><ele>664.4</ele><time>2026-04-22T11:39:21.326Z</time></trkpt><trkpt lat="45.5794733" lon="11.059955"><ele>663.8</ele><time>2026-04-22T11:39:23.326Z</time></trkpt><trkpt lat="45.5795233" lon="11.0600817"><ele>663.2</ele><time>2026-04-22T11:39:25.326Z</time></trkpt><trkpt lat="45.57958" lon="11.0602233"><ele>662.6</ele><time>2026-04-22T11:39:27.326Z</time></trkpt><trkpt lat="45.5796117" lon="11.0603167"><ele>662.0</ele><time>2026-04-22T11:39:28.326Z</time></trkpt><trkpt lat="45.5796433" lon="11.0604067"><ele>662.0</ele><time>2026-04-22T11:39:29.327Z</time></trkpt><trkpt lat="45.5796783" lon="11.0604917"><ele>662.0</ele><time>2026-04-22T11:39:30.326Z</time></trkpt><trkpt lat="45.5797267" lon="11.0605983"><ele>662.0</ele><time>2026-04-22T11:39:31.326Z</time></trkpt><trkpt lat="45.5797633" lon="11.060695"><ele>662.0</ele><time>2026-04-22T11:39:32.326Z</time></trkpt><trkpt lat="45.5798" lon="11.0607933"><ele>662.0</ele><time>2026-04-22T11:39:33.326Z</time></trkpt><trkpt lat="45.579835" lon="11.0608967"><ele>662.0</ele><time>2026-04-22T11:39:34.326Z</time></trkpt><trkpt lat="45.579895" lon="11.0610117"><ele>666.1666666666666</ele><time>2026-04-22T11:39:35.326Z</time></trkpt><trkpt lat="45.5799517" lon="11.0611133"><ele>670.3333333333333</ele><time>2026-04-22T11:39:36.327Z</time></trkpt><trkpt lat="45.579995" lon="11.0612117"><ele>674.5</ele><time>2026-04-22T11:39:37.327Z</time></trkpt><trkpt lat="45.580025" lon="11.0613133"><ele>678.6666666666666</ele><time>2026-04-22T11:39:38.326Z</time></trkpt><trkpt lat="45.5800433" lon="11.0614033"><ele>682.8333333333334</ele><time>2026-04-22T11:39:39.326Z</time></trkpt><trkpt lat="45.5800683" lon="11.0615"><ele>687.0</ele><time>2026-04-22T11:39:40.326Z</time></trkpt><trkpt lat="45.5800933" lon="11.061585"><ele>690.0</ele><time>2026-04-22T11:39:41.326Z</time></trkpt><trkpt lat="45.5801033" lon="11.0616933"><ele>693.0</ele><time>2026-04-22T11:39:43.326Z</time></trkpt><trkpt lat="45.5801167" lon="11.0617833"><ele>696.0</ele><time>2026-04-22T11:39:45.326Z</time></trkpt><trkpt lat="45.5801483" lon="11.0618667"><ele>699.0</ele><time>2026-04-22T11:39:48.326Z</time></trkpt><trkpt lat="45.5800783" lon="11.0618983"><ele>702.0</ele><time>2026-04-22T11:40:07.326Z</time></trkpt><trkpt lat="45.579985" lon="11.06186"><ele>705.0</ele><time>2026-04-22T11:40:09.326Z</time></trkpt><trkpt lat="45.5798917" lon="11.0618"><ele>705.0</ele><time>2026-04-22T11:40:11.326Z</time></trkpt><trkpt lat="45.5797883" lon="11.0617083"><ele>705.0</ele><time>2026-04-22T11:40:13.325Z</time></trkpt><trkpt lat="45.5796933" lon="11.0616833"><ele>705.0</ele><time>2026-04-22T11:40:15.325Z</time></trkpt><trkpt lat="45.5795883" lon="11.0616083"><ele>705.0</ele><time>2026-04-22T11:40:17.325Z</time></trkpt><trkpt lat="45.5795033" lon="11.0615517"><ele>705.0</ele><time>2026-04-22T11:40:19.325Z</time></trkpt><trkpt lat="45.5794233" lon="11.061505"><ele>703.5</ele><time>2026-04-22T11:40:21.325Z</time></trkpt><trkpt lat="45.5793383" lon="11.061495"><ele>702.0</ele><time>2026-04-22T11:40:23.325Z</time></trkpt><trkpt lat="45.5792733" lon="11.06151"><ele>700.5</ele><time>2026-04-22T11:40:25.325Z</time></trkpt><trkpt lat="45.57919" lon="11.0614283"><ele>699.0</ele><time>2026-04-22T11:40:27.326Z</time></trkpt><trkpt lat="45.5791233" lon="11.0612933"><ele>697.5</ele><time>2026-04-22T11:40:29.325Z</time></trkpt><trkpt lat="45.5790617" lon="11.061225"><ele>696.0</ele><time>2026-04-22T11:40:31.326Z</time></trkpt><trkpt lat="45.5789933" lon="11.0612067"><ele>696.0</ele><time>2026-04-22T11:40:32.325Z</time></trkpt><trkpt lat="45.5789083" lon="11.0612333"><ele>696.0</ele><time>2026-04-22T11:40:34.325Z</time></trkpt><trkpt lat="45.57878" lon="11.0612383"><ele>696.0</ele><time>2026-04-22T11:40:36.325Z</time></trkpt><trkpt lat="45.5787117" lon="11.0612367"><ele>696.0</ele><time>2026-04-22T11:40:37.325Z</time></trkpt><trkpt lat="45.5786483" lon="11.06124"><ele>696.0</ele><time>2026-04-22T11:40:38.326Z</time></trkpt><trkpt lat="45.578585" lon="11.0612867"><ele>696.0</ele><time>2026-04-22T11:40:39.325Z</time></trkpt><trkpt lat="45.5785033" lon="11.0613783"><ele>695.1999999999999</ele><time>2026-04-22T11:40:41.326Z</time></trkpt><trkpt lat="45.578425" lon="11.061475"><ele>694.4</ele><time>2026-04-22T11:40:43.325Z</time></trkpt><trkpt lat="45.5783583" lon="11.0616333"><ele>693.6</ele><time>2026-04-22T11:40:45.325Z</time></trkpt><trkpt lat="45.5782933" lon="11.06179"><ele>692.8</ele><time>2026-04-22T11:40:47.326Z</time></trkpt><trkpt lat="45.5782467" lon="11.0618517"><ele>692.0</ele><time>2026-04-22T11:40:48.325Z</time></trkpt><trkpt lat="45.5781917" lon="11.0619"><ele>696.4000000000001</ele><time>2026-04-22T11:40:49.325Z</time></trkpt><trkpt lat="45.5780833" lon="11.0619533"><ele>700.8000000000001</ele><time>2026-04-22T11:40:51.325Z</time></trkpt><trkpt lat="45.5779817" lon="11.061995"><ele>705.2</ele><time>2026-04-22T11:40:53.325Z</time></trkpt><trkpt lat="45.5778467" lon="11.0619683"><ele>709.6</ele><time>2026-04-22T11:40:55.325Z</time></trkpt><trkpt lat="45.5777583" lon="11.061945"><ele>714.0</ele><time>2026-04-22T11:40:56.325Z</time></trkpt><trkpt lat="45.5776667" lon="11.0619017"><ele>714.5</ele><time>2026-04-22T11:40:57.325Z</time></trkpt><trkpt lat="45.5775767" lon="11.0618517"><ele>715.0</ele><time>2026-04-22T11:40:58.325Z</time></trkpt><trkpt lat="45.57749" lon="11.0618083"><ele>715.5</ele><time>2026-04-22T11:40:59.325Z</time></trkpt><trkpt lat="45.5774167" lon="11.0617733"><ele>716.0</ele><time>2026-04-22T11:41:00.325Z</time></trkpt><trkpt lat="45.5773217" lon="11.061715"><ele>716.5</ele><time>2026-04-22T11:41:01.325Z</time></trkpt><trkpt lat="45.5772533" lon="11.061655"><ele>717.0</ele><time>2026-04-22T11:41:02.326Z</time></trkpt><trkpt lat="45.57718" lon="11.0616133"><ele>713.2</ele><time>2026-04-22T11:41:03.325Z</time></trkpt><trkpt lat="45.577105" lon="11.0615683"><ele>709.4000000000001</ele><time>2026-04-22T11:41:04.326Z</time></trkpt><trkpt lat="45.5769817" lon="11.0615167"><ele>705.5999999999999</ele><time>2026-04-22T11:41:06.325Z</time></trkpt><trkpt lat="45.57691" lon="11.0614767"><ele>701.8</ele><time>2026-04-22T11:41:07.325Z</time></trkpt><trkpt lat="45.576835" lon="11.0614533"><ele>698.0</ele><time>2026-04-22T11:41:08.326Z</time></trkpt><trkpt lat="45.5767333" lon="11.061455"><ele>698.0</ele><time>2026-04-22T11:41:09.325Z</time></trkpt><trkpt lat="45.5766617" lon="11.06145"><ele>698.0</ele><time>2026-04-22T11:41:10.325Z</time></trkpt><trkpt lat="45.57659" lon="11.061475"><ele>698.0</ele><time>2026-04-22T11:41:11.325Z</time></trkpt><trkpt lat="45.5765183" lon="11.0615117"><ele>698.0</ele><time>2026-04-22T11:41:12.326Z</time></trkpt><trkpt lat="45.5764467" lon="11.0615817"><ele>698.0</ele><time>2026-04-22T11:41:13.326Z</time></trkpt><trkpt lat="45.5763767" lon="11.0616383"><ele>698.0</ele><time>2026-04-22T11:41:14.325Z</time></trkpt><trkpt lat="45.576305" lon="11.0617017"><ele>699.2</ele><time>2026-04-22T11:41:15.325Z</time></trkpt><trkpt lat="45.5762283" lon="11.0617867"><ele>700.4</ele><time>2026-04-22T11:41:16.325Z</time></trkpt><trkpt lat="45.576155" lon="11.0618767"><ele>701.6</ele><time>2026-04-22T11:41:17.325Z</time></trkpt><trkpt lat="45.5760817" lon="11.0619667"><ele>702.8000000000001</ele><time>2026-04-22T11:41:18.325Z</time></trkpt><trkpt lat="45.5760467" lon="11.0620883"><ele>704.0</ele><time>2026-04-22T11:41:19.325Z</time></trkpt><trkpt lat="45.5760017" lon="11.0621833"><ele>704.0</ele><time>2026-04-22T11:41:20.326Z</time></trkpt><trkpt lat="45.5759683" lon="11.06229"><ele>704.0</ele><time>2026-04-22T11:41:21.325Z</time></trkpt><trkpt lat="45.57593" lon="11.0623933"><ele>704.0</ele><time>2026-04-22T11:41:22.325Z</time></trkpt><trkpt lat="45.5758817" lon="11.0624783"><ele>704.0</ele><time>2026-04-22T11:41:23.325Z</time></trkpt><trkpt lat="45.5758683" lon="11.0625767"><ele>704.0</ele><time>2026-04-22T11:41:24.325Z</time></trkpt><trkpt lat="45.5758683" lon="11.0626683"><ele>704.0</ele><time>2026-04-22T11:41:25.325Z</time></trkpt><trkpt lat="45.5758817" lon="11.0627733"><ele>704.0</ele><time>2026-04-22T11:41:26.325Z</time></trkpt><trkpt lat="45.5759" lon="11.0628917"><ele>705.6</ele><time>2026-04-22T11:41:27.325Z</time></trkpt><trkpt lat="45.5759417" lon="11.0630333"><ele>707.2</ele><time>2026-04-22T11:41:28.326Z</time></trkpt><trkpt lat="45.5759617" lon="11.06317"><ele>708.8000000000001</ele><time>2026-04-22T11:41:29.325Z</time></trkpt><trkpt lat="45.576" lon="11.0632933"><ele>710.4000000000001</ele><time>2026-04-22T11:41:30.325Z</time></trkpt><trkpt lat="45.5760233" lon="11.0634167"><ele>712.0</ele><time>2026-04-22T11:41:31.325Z</time></trkpt><trkpt lat="45.5760533" lon="11.06353"><ele>712.8</ele><time>2026-04-22T11:41:32.325Z</time></trkpt><trkpt lat="45.5761217" lon="11.063645"><ele>713.6</ele><time>2026-04-22T11:41:33.325Z</time></trkpt><trkpt lat="45.5761883" lon="11.06373"><ele>714.4</ele><time>2026-04-22T11:41:34.325Z</time></trkpt><trkpt lat="45.57619" lon="11.0638867"><ele>715.1999999999999</ele><time>2026-04-22T11:41:36.325Z</time></trkpt><trkpt lat="45.5762283" lon="11.064055"><ele>716.0</ele><time>2026-04-22T11:41:38.326Z</time></trkpt><trkpt lat="45.57628" lon="11.0641067"><ele>719.8333333333333</ele><time>2026-04-22T11:41:39.325Z</time></trkpt><trkpt lat="45.5763417" lon="11.0641583"><ele>723.6666666666666</ele><time>2026-04-22T11:41:40.325Z</time></trkpt><trkpt lat="45.5763667" lon="11.0642917"><ele>727.5</ele><time>2026-04-22T11:41:42.325Z</time></trkpt><trkpt lat="45.576405" lon="11.0643783"><ele>731.3333333333334</ele><time>2026-04-22T11:41:44.325Z</time></trkpt><trkpt lat="45.5763867" lon="11.0645"><ele>735.1666666666667</ele><time>2026-04-22T11:41:46.325Z</time></trkpt><trkpt lat="45.5763483" lon="11.064605"><ele>739.0</ele><time>2026-04-22T11:41:48.325Z</time></trkpt><trkpt lat="45.5763017" lon="11.0646667"><ele>739.0</ele><time>2026-04-22T11:41:49.325Z</time></trkpt><trkpt lat="45.5762417" lon="11.0647283"><ele>739.0</ele><time>2026-04-22T11:41:51.325Z</time></trkpt><trkpt lat="45.5761733" lon="11.064765"><ele>739.0</ele><time>2026-04-22T11:41:53.325Z</time></trkpt><trkpt lat="45.5760867" lon="11.06483"><ele>739.0</ele><time>2026-04-22T11:41:55.325Z</time></trkpt><trkpt lat="45.5759983" lon="11.06486"><ele>739.0</ele><time>2026-04-22T11:41:57.325Z</time></trkpt><trkpt lat="45.5759117" lon="11.06492"><ele>739.0</ele><time>2026-04-22T11:41:59.326Z</time></trkpt><trkpt lat="45.5758217" lon="11.0649833"><ele>737.8333333333334</ele><time>2026-04-22T11:42:00.325Z</time></trkpt><trkpt lat="45.5757167" lon="11.0650717"><ele>736.6666666666667</ele><time>2026-04-22T11:42:02.325Z</time></trkpt><trkpt lat="45.575655" lon="11.065135"><ele>735.5</ele><time>2026-04-22T11:42:03.325Z</time></trkpt><trkpt lat="45.575605" lon="11.0652"><ele>734.3333333333334</ele><time>2026-04-22T11:42:04.325Z</time></trkpt><trkpt lat="45.5755583" lon="11.06527"><ele>733.1666666666666</ele><time>2026-04-22T11:42:05.325Z</time></trkpt><trkpt lat="45.5755017" lon="11.065355"><ele>732.0</ele><time>2026-04-22T11:42:06.326Z</time></trkpt><trkpt lat="45.5754533" lon="11.0654317"><ele>732.0</ele><time>2026-04-22T11:42:07.325Z</time></trkpt><trkpt lat="45.5754133" lon="11.0655083"><ele>732.0</ele><time>2026-04-22T11:42:08.325Z</time></trkpt><trkpt lat="45.575345" lon="11.0655483"><ele>732.0</ele><time>2026-04-22T11:42:09.325Z</time></trkpt><trkpt lat="45.5752467" lon="11.0656117"><ele>732.0</ele><time>2026-04-22T11:42:11.326Z</time></trkpt><trkpt lat="45.5751833" lon="11.0655783"><ele>732.0</ele><time>2026-04-22T11:42:12.325Z</time></trkpt><trkpt lat="45.5750633" lon="11.0655383"><ele>732.0</ele><time>2026-04-22T11:42:14.325Z</time></trkpt><trkpt lat="45.5749783" lon="11.065515"><ele>730.3333333333334</ele><time>2026-04-22T11:42:15.325Z</time></trkpt><trkpt lat="45.5748983" lon="11.0655117"><ele>728.6666666666666</ele><time>2026-04-22T11:42:16.325Z</time></trkpt><trkpt lat="45.5748133" lon="11.0655"><ele>727.0</ele><time>2026-04-22T11:42:17.325Z</time></trkpt><trkpt lat="45.5747317" lon="11.0654933"><ele>725.3333333333333</ele><time>2026-04-22T11:42:18.325Z</time></trkpt><trkpt lat="45.574635" lon="11.06547"><ele>723.6666666666666</ele><time>2026-04-22T11:42:19.325Z</time></trkpt><trkpt lat="45.57455" lon="11.065465"><ele>722.0</ele><time>2026-04-22T11:42:20.325Z</time></trkpt><trkpt lat="45.5744617" lon="11.0654567"><ele>725.3333333333333</ele><time>2026-04-22T11:42:21.325Z</time></trkpt><trkpt lat="45.574385" lon="11.065435"><ele>728.6666666666666</ele><time>2026-04-22T11:42:22.325Z</time></trkpt><trkpt lat="45.5742967" lon="11.0654317"><ele>732.0</ele><time>2026-04-22T11:42:23.326Z</time></trkpt><trkpt lat="45.5742267" lon="11.0653933"><ele>735.3333333333334</ele><time>2026-04-22T11:42:24.325Z</time></trkpt><trkpt lat="45.574145" lon="11.0653333"><ele>738.6666666666667</ele><time>2026-04-22T11:42:26.325Z</time></trkpt><trkpt lat="45.5741533" lon="11.0652433"><ele>742.0</ele><time>2026-04-22T11:42:36.325Z</time></trkpt><trkpt lat="45.57406" lon="11.0652433"><ele>742.0</ele><time>2026-04-22T11:42:39.325Z</time></trkpt><trkpt lat="45.5739917" lon="11.0652967"><ele>742.0</ele><time>2026-04-22T11:42:41.325Z</time></trkpt><trkpt lat="45.5739233" lon="11.0654567"><ele>742.0</ele><time>2026-04-22T11:42:43.325Z</time></trkpt><trkpt lat="45.5739" lon="11.0655967"><ele>742.0</ele><time>2026-04-22T11:42:44.325Z</time></trkpt><trkpt lat="45.573885" lon="11.0656933"><ele>742.0</ele><time>2026-04-22T11:42:45.325Z</time></trkpt><trkpt lat="45.5738883" lon="11.0657967"><ele>742.1666666666667</ele><time>2026-04-22T11:42:46.326Z</time></trkpt><trkpt lat="45.5738967" lon="11.0658983"><ele>742.3333333333334</ele><time>2026-04-22T11:42:47.325Z</time></trkpt><trkpt lat="45.5738867" lon="11.0660167"><ele>742.5</ele><time>2026-04-22T11:42:48.325Z</time></trkpt><trkpt lat="45.5738833" lon="11.0661317"><ele>742.6666666666666</ele><time>2026-04-22T11:42:49.325Z</time></trkpt><trkpt lat="45.57388" lon="11.06623"><ele>742.8333333333333</ele><time>2026-04-22T11:42:50.326Z</time></trkpt><trkpt lat="45.573865" lon="11.0663283"><ele>743.0</ele><time>2026-04-22T11:43:02.325Z</time></trkpt><trkpt lat="45.57382" lon="11.0665067"><ele>743.5999999999999</ele><time>2026-04-22T11:43:04.325Z</time></trkpt><trkpt lat="45.573795" lon="11.06662"><ele>744.1999999999999</ele><time>2026-04-22T11:43:05.325Z</time></trkpt><trkpt lat="45.5737683" lon="11.0667417"><ele>744.8</ele><time>2026-04-22T11:43:06.325Z</time></trkpt><trkpt lat="45.573755" lon="11.0668833"><ele>745.4</ele><time>2026-04-22T11:43:07.325Z</time></trkpt><trkpt lat="45.5737467" lon="11.0670267"><ele>746.0</ele><time>2026-04-22T11:43:08.325Z</time></trkpt><trkpt lat="45.5737517" lon="11.0671783"><ele>746.0</ele><time>2026-04-22T11:43:09.325Z</time></trkpt><trkpt lat="45.5737517" lon="11.067315"><ele>746.0</ele><time>2026-04-22T11:43:10.325Z</time></trkpt><trkpt lat="45.5737583" lon="11.06744"><ele>746.0</ele><time>2026-04-22T11:43:11.325Z</time></trkpt><trkpt lat="45.5737617" lon="11.0675533"><ele>746.0</ele><time>2026-04-22T11:43:12.325Z</time></trkpt><trkpt lat="45.5737717" lon="11.067655"><ele>746.0</ele><time>2026-04-22T11:43:13.326Z</time></trkpt><trkpt lat="45.5738017" lon="11.06781"><ele>746.0</ele><time>2026-04-22T11:43:15.325Z</time></trkpt><trkpt lat="45.573845" lon="11.0679433"><ele>745.3333333333333</ele><time>2026-04-22T11:43:17.325Z</time></trkpt><trkpt lat="45.573895" lon="11.06811"><ele>744.6666666666666</ele><time>2026-04-22T11:43:19.325Z</time></trkpt><trkpt lat="45.5739233" lon="11.0682083"><ele>744.0</ele><time>2026-04-22T11:43:20.325Z</time></trkpt><trkpt lat="45.5739483" lon="11.0683033"><ele>743.3333333333334</ele><time>2026-04-22T11:43:21.325Z</time></trkpt><trkpt lat="45.573975" lon="11.0684183"><ele>742.6666666666667</ele><time>2026-04-22T11:43:22.325Z</time></trkpt><trkpt lat="45.5739983" lon="11.068535"><ele>742.0</ele><time>2026-04-22T11:43:23.325Z</time></trkpt><trkpt lat="45.5740283" lon="11.0686283"><ele>740.8333333333334</ele><time>2026-04-22T11:43:24.326Z</time></trkpt><trkpt lat="45.5740467" lon="11.068725"><ele>739.6666666666667</ele><time>2026-04-22T11:43:25.325Z</time></trkpt><trkpt lat="45.5740917" lon="11.068905"><ele>738.5</ele><time>2026-04-22T11:43:27.326Z</time></trkpt><trkpt lat="45.57413" lon="11.068995"><ele>737.3333333333334</ele><time>2026-04-22T11:43:28.325Z</time></trkpt><trkpt lat="45.5741833" lon="11.069075"><ele>736.1666666666666</ele><time>2026-04-22T11:43:29.325Z</time></trkpt><trkpt lat="45.5742217" lon="11.0691467"><ele>735.0</ele><time>2026-04-22T11:43:30.325Z</time></trkpt><trkpt lat="45.5742733" lon="11.069295"><ele>733.4</ele><time>2026-04-22T11:43:32.325Z</time></trkpt><trkpt lat="45.5742267" lon="11.0694467"><ele>731.8</ele><time>2026-04-22T11:43:35.324Z</time></trkpt><trkpt lat="45.574215" lon="11.0695883"><ele>730.2</ele><time>2026-04-22T11:43:37.324Z</time></trkpt><trkpt lat="45.5742567" lon="11.0697533"><ele>728.6</ele><time>2026-04-22T11:43:39.324Z</time></trkpt><trkpt lat="45.5742817" lon="11.0698567"><ele>727.0</ele><time>2026-04-22T11:43:40.324Z</time></trkpt><trkpt lat="45.5743" lon="11.0699783"><ele>726.8</ele><time>2026-04-22T11:43:41.324Z</time></trkpt><trkpt lat="45.5743117" lon="11.0700867"><ele>726.6</ele><time>2026-04-22T11:43:42.324Z</time></trkpt><trkpt lat="45.5743033" lon="11.0701917"><ele>726.4</ele><time>2026-04-22T11:43:43.324Z</time></trkpt><trkpt lat="45.5742283" lon="11.0703333"><ele>726.1999999999999</ele><time>2026-04-22T11:43:45.324Z</time></trkpt><trkpt lat="45.5741217" lon="11.0703633"><ele>726.0</ele><time>2026-04-22T11:43:46.325Z</time></trkpt><trkpt lat="45.5739633" lon="11.0703533"><ele>726.0</ele><time>2026-04-22T11:43:47.324Z</time></trkpt><trkpt lat="45.573835" lon="11.0703533"><ele>726.0</ele><time>2026-04-22T11:43:48.324Z</time></trkpt><trkpt lat="45.5737417" lon="11.0703917"><ele>726.0</ele><time>2026-04-22T11:43:49.324Z</time></trkpt><trkpt lat="45.5736533" lon="11.0704667"><ele>726.0</ele><time>2026-04-22T11:43:50.324Z</time></trkpt><trkpt lat="45.5735883" lon="11.0705683"><ele>726.0</ele><time>2026-04-22T11:43:51.325Z</time></trkpt><trkpt lat="45.5735283" lon="11.0706783"><ele>728.0</ele><time>2026-04-22T11:43:52.325Z</time></trkpt><trkpt lat="45.5734633" lon="11.07079"><ele>730.0</ele><time>2026-04-22T11:43:53.324Z</time></trkpt><trkpt lat="45.5733967" lon="11.0708883"><ele>732.0</ele><time>2026-04-22T11:43:54.324Z</time></trkpt><trkpt lat="45.5732967" lon="11.0709733"><ele>734.0</ele><time>2026-04-22T11:43:55.324Z</time></trkpt><trkpt lat="45.5732017" lon="11.0710017"><ele>736.0</ele><time>2026-04-22T11:43:56.324Z</time></trkpt><trkpt lat="45.5730867" lon="11.07103"><ele>736.0</ele><time>2026-04-22T11:43:57.325Z</time></trkpt><trkpt lat="45.572975" lon="11.0710267"><ele>736.0</ele><time>2026-04-22T11:43:58.324Z</time></trkpt><trkpt lat="45.5728517" lon="11.0710183"><ele>736.0</ele><time>2026-04-22T11:43:59.324Z</time></trkpt><trkpt lat="45.5727317" lon="11.0709967"><ele>736.0</ele><time>2026-04-22T11:44:00.324Z</time></trkpt><trkpt lat="45.572605" lon="11.0709633"><ele>736.75</ele><time>2026-04-22T11:44:01.325Z</time></trkpt><trkpt lat="45.5724783" lon="11.070925"><ele>737.5</ele><time>2026-04-22T11:44:02.324Z</time></trkpt><trkpt lat="45.572355" lon="11.070885"><ele>738.25</ele><time>2026-04-22T11:44:03.324Z</time></trkpt><trkpt lat="45.57223" lon="11.07085"><ele>739.0</ele><time>2026-04-22T11:44:04.325Z</time></trkpt><trkpt lat="45.5721217" lon="11.0708667"><ele>738.75</ele><time>2026-04-22T11:44:05.324Z</time></trkpt><trkpt lat="45.5720117" lon="11.0708717"><ele>738.5</ele><time>2026-04-22T11:44:06.324Z</time></trkpt><trkpt lat="45.571895" lon="11.0709067"><ele>738.25</ele><time>2026-04-22T11:44:07.324Z</time></trkpt><trkpt lat="45.571785" lon="11.07095"><ele>738.0</ele><time>2026-04-22T11:44:08.324Z</time></trkpt><trkpt lat="45.5716817" lon="11.0710133"><ele>738.0</ele><time>2026-04-22T11:44:09.324Z</time></trkpt><trkpt lat="45.571585" lon="11.0710917"><ele>738.0</ele><time>2026-04-22T11:44:10.324Z</time></trkpt><trkpt lat="45.571485" lon="11.0711933"><ele>738.0</ele><time>2026-04-22T11:44:11.324Z</time></trkpt><trkpt lat="45.5713883" lon="11.0712917"><ele>738.0</ele><time>2026-04-22T11:44:12.324Z</time></trkpt><trkpt lat="45.5713167" lon="11.0714017"><ele>738.0</ele><time>2026-04-22T11:44:13.324Z</time></trkpt><trkpt lat="45.5712333" lon="11.0715133"><ele>738.0</ele><time>2026-04-22T11:44:14.325Z</time></trkpt><trkpt lat="45.571145" lon="11.0715933"><ele>738.0</ele><time>2026-04-22T11:44:15.324Z</time></trkpt><trkpt lat="45.5710617" lon="11.0716633"><ele>738.0</ele><time>2026-04-22T11:44:16.325Z</time></trkpt><trkpt lat="45.570975" lon="11.0717317"><ele>738.0</ele><time>2026-04-22T11:44:17.324Z</time></trkpt><trkpt lat="45.5708467" lon="11.0717717"><ele>737.25</ele><time>2026-04-22T11:44:18.324Z</time></trkpt><trkpt lat="45.57072" lon="11.0718167"><ele>736.5</ele><time>2026-04-22T11:44:19.324Z</time></trkpt><trkpt lat="45.5706117" lon="11.071855"><ele>735.75</ele><time>2026-04-22T11:44:20.324Z</time></trkpt><trkpt lat="45.5704817" lon="11.0718583"><ele>735.0</ele><time>2026-04-22T11:44:21.324Z</time></trkpt><trkpt lat="45.57039" lon="11.071885"><ele>732.25</ele><time>2026-04-22T11:44:22.325Z</time></trkpt><trkpt lat="45.5702583" lon="11.0719017"><ele>729.5</ele><time>2026-04-22T11:44:23.324Z</time></trkpt><trkpt lat="45.570135" lon="11.071905"><ele>726.75</ele><time>2026-04-22T11:44:24.324Z</time></trkpt><trkpt lat="45.5700183" lon="11.0719283"><ele>724.0</ele><time>2026-04-22T11:44:25.324Z</time></trkpt><trkpt lat="45.569915" lon="11.0719717"><ele>724.0</ele><time>2026-04-22T11:44:26.324Z</time></trkpt><trkpt lat="45.5698083" lon="11.0720267"><ele>724.0</ele><time>2026-04-22T11:44:27.324Z</time></trkpt><trkpt lat="45.569715" lon="11.0720867"><ele>724.0</ele><time>2026-04-22T11:44:28.324Z</time></trkpt><trkpt lat="45.5696183" lon="11.0721617"><ele>724.0</ele><time>2026-04-22T11:44:29.324Z</time></trkpt><trkpt lat="45.56954" lon="11.0722383"><ele>724.0</ele><time>2026-04-22T11:44:30.324Z</time></trkpt><trkpt lat="45.5694267" lon="11.0722467"><ele>721.0</ele><time>2026-04-22T11:44:31.324Z</time></trkpt><trkpt lat="45.5693267" lon="11.07226"><ele>718.0</ele><time>2026-04-22T11:44:32.324Z</time></trkpt><trkpt lat="45.5692067" lon="11.0722783"><ele>715.0</ele><time>2026-04-22T11:44:33.324Z</time></trkpt><trkpt lat="45.5690983" lon="11.0723367"><ele>712.0</ele><time>2026-04-22T11:44:34.324Z</time></trkpt><trkpt lat="45.5689933" lon="11.0724183"><ele>716.75</ele><time>2026-04-22T11:44:35.324Z</time></trkpt><trkpt lat="45.5688717" lon="11.07249"><ele>721.5</ele><time>2026-04-22T11:44:36.324Z</time></trkpt><trkpt lat="45.5687433" lon="11.0725017"><ele>726.25</ele><time>2026-04-22T11:44:37.324Z</time></trkpt><trkpt lat="45.5686117" lon="11.072515"><ele>731.0</ele><time>2026-04-22T11:44:38.324Z</time></trkpt><trkpt lat="45.568485" lon="11.07254"><ele>731.0</ele><time>2026-04-22T11:44:39.324Z</time></trkpt><trkpt lat="45.5683717" lon="11.0725867"><ele>731.0</ele><time>2026-04-22T11:44:40.324Z</time></trkpt><trkpt lat="45.56826" lon="11.0726233"><ele>731.0</ele><time>2026-04-22T11:44:41.325Z</time></trkpt><trkpt lat="45.5681583" lon="11.0726533"><ele>731.0</ele><time>2026-04-22T11:44:42.325Z</time></trkpt><trkpt lat="45.5680517" lon="11.0726767"><ele>731.0</ele><time>2026-04-22T11:44:43.324Z</time></trkpt><trkpt lat="45.5679533" lon="11.07273"><ele>730.0</ele><time>2026-04-22T11:44:44.324Z</time></trkpt><trkpt lat="45.5678567" lon="11.0727817"><ele>729.0</ele><time>2026-04-22T11:44:45.325Z</time></trkpt><trkpt lat="45.56778" lon="11.072835"><ele>728.0</ele><time>2026-04-22T11:44:46.324Z</time></trkpt><trkpt lat="45.5677133" lon="11.0728933"><ele>727.0</ele><time>2026-04-22T11:44:47.325Z</time></trkpt><trkpt lat="45.5676583" lon="11.0729567"><ele>726.0</ele><time>2026-04-22T11:44:48.324Z</time></trkpt><trkpt lat="45.5676317" lon="11.073045"><ele>725.0</ele><time>2026-04-22T11:44:49.325Z</time></trkpt><trkpt lat="45.567595" lon="11.0731483"><ele>725.0</ele><time>2026-04-22T11:44:50.324Z</time></trkpt><trkpt lat="45.5675683" lon="11.0732667"><ele>725.0</ele><time>2026-04-22T11:44:51.324Z</time></trkpt><trkpt lat="45.567565" lon="11.0734067"><ele>725.0</ele><time>2026-04-22T11:44:52.324Z</time></trkpt><trkpt lat="45.5675767" lon="11.0735567"><ele>725.0</ele><time>2026-04-22T11:44:53.324Z</time></trkpt><trkpt lat="45.567625" lon="11.073735"><ele>725.0</ele><time>2026-04-22T11:44:54.324Z</time></trkpt><trkpt lat="45.5677183" lon="11.07394"><ele>723.0</ele><time>2026-04-22T11:44:55.324Z</time></trkpt><trkpt lat="45.567785" lon="11.0741283"><ele>721.0</ele><time>2026-04-22T11:44:56.324Z</time></trkpt><trkpt lat="45.5679133" lon="11.074325"><ele>719.0</ele><time>2026-04-22T11:44:57.324Z</time></trkpt><trkpt lat="45.5680033" lon="11.0745167"><ele>722.0</ele><time>2026-04-22T11:44:58.324Z</time></trkpt><trkpt lat="45.5680833" lon="11.0746917"><ele>725.0</ele><time>2026-04-22T11:44:59.324Z</time></trkpt><trkpt lat="45.5681517" lon="11.0748683"><ele>728.0</ele><time>2026-04-22T11:45:00.324Z</time></trkpt><trkpt lat="45.5682333" lon="11.075"><ele>731.0</ele><time>2026-04-22T11:45:01.324Z</time></trkpt><trkpt lat="45.5682917" lon="11.07513"><ele>731.0</ele><time>2026-04-22T11:45:02.324Z</time></trkpt><trkpt lat="45.568325" lon="11.0752617"><ele>731.0</ele><time>2026-04-22T11:45:03.324Z</time></trkpt><trkpt lat="45.5683283" lon="11.075405"><ele>731.0</ele><time>2026-04-22T11:45:04.324Z</time></trkpt><trkpt lat="45.568325" lon="11.07554"><ele>731.0</ele><time>2026-04-22T11:45:05.324Z</time></trkpt><trkpt lat="45.5683133" lon="11.07566"><ele>731.0</ele><time>2026-04-22T11:45:06.324Z</time></trkpt><trkpt lat="45.5682583" lon="11.0758267"><ele>730.0</ele><time>2026-04-22T11:45:08.324Z</time></trkpt><trkpt lat="45.56812" lon="11.0758533"><ele>729.0</ele><time>2026-04-22T11:45:09.324Z</time></trkpt><trkpt lat="45.5679867" lon="11.0758867"><ele>728.0</ele><time>2026-04-22T11:45:10.324Z</time></trkpt><trkpt lat="45.56784" lon="11.0759233"><ele>727.0</ele><time>2026-04-22T11:45:11.324Z</time></trkpt><trkpt lat="45.5677" lon="11.07594"><ele>725.5</ele><time>2026-04-22T11:45:12.324Z</time></trkpt><trkpt lat="45.5676217" lon="11.0759833"><ele>724.0</ele><time>2026-04-22T11:45:13.324Z</time></trkpt><trkpt lat="45.5675367" lon="11.0759933"><ele>722.5</ele><time>2026-04-22T11:45:14.324Z</time></trkpt><trkpt lat="45.5674733" lon="11.0760317"><ele>721.0</ele><time>2026-04-22T11:45:15.324Z</time></trkpt><trkpt lat="45.567425" lon="11.0760983"><ele>719.5</ele><time>2026-04-22T11:45:16.324Z</time></trkpt><trkpt lat="45.5673567" lon="11.0762133"><ele>718.0</ele><time>2026-04-22T11:45:17.324Z</time></trkpt><trkpt lat="45.567305" lon="11.076335"><ele>718.0</ele><time>2026-04-22T11:45:18.324Z</time></trkpt><trkpt lat="45.5672917" lon="11.07647"><ele>718.0</ele><time>2026-04-22T11:45:19.324Z</time></trkpt><trkpt lat="45.56729" lon="11.0766183"><ele>718.0</ele><time>2026-04-22T11:45:20.324Z</time></trkpt><trkpt lat="45.567315" lon="11.076785"><ele>718.0</ele><time>2026-04-22T11:45:21.324Z</time></trkpt><trkpt lat="45.5673533" lon="11.07695"><ele>718.0</ele><time>2026-04-22T11:45:22.325Z</time></trkpt><trkpt lat="45.56739" lon="11.077155"><ele>718.8</ele><time>2026-04-22T11:45:23.324Z</time></trkpt><trkpt lat="45.567405" lon="11.0773233"><ele>719.5999999999999</ele><time>2026-04-22T11:45:24.324Z</time></trkpt><trkpt lat="45.5674233" lon="11.0774717"><ele>720.4000000000001</ele><time>2026-04-22T11:45:25.324Z</time></trkpt><trkpt lat="45.5674467" lon="11.0776183"><ele>721.2</ele><time>2026-04-22T11:45:26.324Z</time></trkpt><trkpt lat="45.5674233" lon="11.07777"><ele>722.0</ele><time>2026-04-22T11:45:27.325Z</time></trkpt><trkpt lat="45.5673983" lon="11.0779117"><ele>720.0</ele><time>2026-04-22T11:45:28.324Z</time></trkpt><trkpt lat="45.56734" lon="11.0780283"><ele>718.0</ele><time>2026-04-22T11:45:29.324Z</time></trkpt><trkpt lat="45.5672633" lon="11.07812"><ele>716.0</ele><time>2026-04-22T11:45:30.325Z</time></trkpt><trkpt lat="45.5671767" lon="11.0782133"><ele>714.0</ele><time>2026-04-22T11:45:31.324Z</time></trkpt><trkpt lat="45.5670383" lon="11.0783067"><ele>710.75</ele><time>2026-04-22T11:45:32.324Z</time></trkpt><trkpt lat="45.5668717" lon="11.0783983"><ele>707.5</ele><time>2026-04-22T11:45:33.324Z</time></trkpt><trkpt lat="45.5667567" lon="11.0784833"><ele>704.25</ele><time>2026-04-22T11:45:34.324Z</time></trkpt><trkpt lat="45.56664" lon="11.0785833"><ele>701.0</ele><time>2026-04-22T11:45:35.324Z</time></trkpt><trkpt lat="45.5665183" lon="11.07871"><ele>701.0</ele><time>2026-04-22T11:45:36.324Z</time></trkpt><trkpt lat="45.566415" lon="11.0788533"><ele>701.0</ele><time>2026-04-22T11:45:37.324Z</time></trkpt><trkpt lat="45.5663417" lon="11.0789833"><ele>701.0</ele><time>2026-04-22T11:45:38.324Z</time></trkpt><trkpt lat="45.5662933" lon="11.0791017"><ele>701.0</ele><time>2026-04-22T11:45:39.324Z</time></trkpt><trkpt lat="45.56622" lon="11.0792333"><ele>702.0</ele><time>2026-04-22T11:45:40.324Z</time></trkpt><trkpt lat="45.5661433" lon="11.079375"><ele>703.0</ele><time>2026-04-22T11:45:41.324Z</time></trkpt><trkpt lat="45.5660383" lon="11.0795117"><ele>704.0</ele><time>2026-04-22T11:45:42.324Z</time></trkpt><trkpt lat="45.5659317" lon="11.079645"><ele>705.0</ele><time>2026-04-22T11:45:43.325Z</time></trkpt><trkpt lat="45.5658217" lon="11.0797733"><ele>705.0</ele><time>2026-04-22T11:45:44.324Z</time></trkpt><trkpt lat="45.5657117" lon="11.0799083"><ele>705.0</ele><time>2026-04-22T11:45:45.324Z</time></trkpt><trkpt lat="45.5656017" lon="11.0800367"><ele>705.0</ele><time>2026-04-22T11:45:46.324Z</time></trkpt><trkpt lat="45.5654967" lon="11.0801433"><ele>705.0</ele><time>2026-04-22T11:45:47.324Z</time></trkpt><trkpt lat="45.5653867" lon="11.0802183"><ele>704.0</ele><time>2026-04-22T11:45:48.324Z</time></trkpt><trkpt lat="45.56527" lon="11.08026"><ele>703.0</ele><time>2026-04-22T11:45:49.324Z</time></trkpt><trkpt lat="45.5651433" lon="11.0802717"><ele>702.0</ele><time>2026-04-22T11:45:50.324Z</time></trkpt><trkpt lat="45.5650067" lon="11.0802683"><ele>701.0</ele><time>2026-04-22T11:45:51.325Z</time></trkpt><trkpt lat="45.5648667" lon="11.0802567"><ele>701.0</ele><time>2026-04-22T11:45:52.324Z</time></trkpt><trkpt lat="45.5647283" lon="11.08024"><ele>701.0</ele><time>2026-04-22T11:45:53.324Z</time></trkpt><trkpt lat="45.5645917" lon="11.0802283"><ele>701.0</ele><time>2026-04-22T11:45:54.324Z</time></trkpt><trkpt lat="45.5644683" lon="11.080215"><ele>701.0</ele><time>2026-04-22T11:45:55.324Z</time></trkpt><trkpt lat="45.5643217" lon="11.0802217"><ele>700.5</ele><time>2026-04-22T11:45:56.324Z</time></trkpt><trkpt lat="45.5641783" lon="11.080235"><ele>700.0</ele><time>2026-04-22T11:45:57.324Z</time></trkpt><trkpt lat="45.5640367" lon="11.0802817"><ele>699.5</ele><time>2026-04-22T11:45:58.324Z</time></trkpt><trkpt lat="45.5638967" lon="11.080325"><ele>699.0</ele><time>2026-04-22T11:45:59.324Z</time></trkpt><trkpt lat="45.5637617" lon="11.08036"><ele>697.6666666666666</ele><time>2026-04-22T11:46:00.324Z</time></trkpt><trkpt lat="45.56362" lon="11.0803983"><ele>696.3333333333333</ele><time>2026-04-22T11:46:01.324Z</time></trkpt><trkpt lat="45.5634733" lon="11.08045"><ele>695.0</ele><time>2026-04-22T11:46:02.325Z</time></trkpt><trkpt lat="45.5633133" lon="11.0805133"><ele>695.0</ele><time>2026-04-22T11:46:03.324Z</time></trkpt><trkpt lat="45.56316" lon="11.0805867"><ele>695.0</ele><time>2026-04-22T11:46:04.325Z</time></trkpt><trkpt lat="45.5630133" lon="11.0806783"><ele>695.0</ele><time>2026-04-22T11:46:05.324Z</time></trkpt><trkpt lat="45.5628717" lon="11.080765"><ele>690.0</ele><time>2026-04-22T11:46:06.324Z</time></trkpt><trkpt lat="45.5627383" lon="11.0808717"><ele>685.0</ele><time>2026-04-22T11:46:07.324Z</time></trkpt><trkpt lat="45.5626167" lon="11.0810017"><ele>680.0</ele><time>2026-04-22T11:46:08.324Z</time></trkpt><trkpt lat="45.562505" lon="11.0811433"><ele>680.0</ele><time>2026-04-22T11:46:09.324Z</time></trkpt><trkpt lat="45.5623933" lon="11.081285"><ele>680.0</ele><time>2026-04-22T11:46:10.324Z</time></trkpt><trkpt lat="45.5622683" lon="11.0814367"><ele>680.0</ele><time>2026-04-22T11:46:11.324Z</time></trkpt><trkpt lat="45.562145" lon="11.0815767"><ele>679.5</ele><time>2026-04-22T11:46:12.324Z</time></trkpt><trkpt lat="45.562025" lon="11.081695"><ele>679.0</ele><time>2026-04-22T11:46:13.324Z</time></trkpt><trkpt lat="45.5618883" lon="11.0817833"><ele>678.5</ele><time>2026-04-22T11:46:14.324Z</time></trkpt><trkpt lat="45.5617467" lon="11.0818117"><ele>678.0</ele><time>2026-04-22T11:46:15.324Z</time></trkpt><trkpt lat="45.5616017" lon="11.0818267"><ele>678.0</ele><time>2026-04-22T11:46:16.324Z</time></trkpt><trkpt lat="45.561445" lon="11.08185"><ele>678.0</ele><time>2026-04-22T11:46:17.324Z</time></trkpt><trkpt lat="45.56129" lon="11.0819233"><ele>678.0</ele><time>2026-04-22T11:46:18.324Z</time></trkpt><trkpt lat="45.5611333" lon="11.08199"><ele>677.3333333333334</ele><time>2026-04-22T11:46:19.324Z</time></trkpt><trkpt lat="45.5609783" lon="11.0820983"><ele>676.6666666666667</ele><time>2026-04-22T11:46:20.325Z</time></trkpt><trkpt lat="45.56082" lon="11.0822067"><ele>676.0</ele><time>2026-04-22T11:46:21.324Z</time></trkpt><trkpt lat="45.5606533" lon="11.0823167"><ele>676.0</ele><time>2026-04-22T11:46:22.324Z</time></trkpt><trkpt lat="45.5604783" lon="11.08241"><ele>676.0</ele><time>2026-04-22T11:46:23.325Z</time></trkpt><trkpt lat="45.5603067" lon="11.0824883"><ele>676.0</ele><time>2026-04-22T11:46:24.324Z</time></trkpt><trkpt lat="45.560135" lon="11.0825417"><ele>671.0</ele><time>2026-04-22T11:46:25.324Z</time></trkpt><trkpt lat="45.55996" lon="11.08261"><ele>666.0</ele><time>2026-04-22T11:46:26.324Z</time></trkpt><trkpt lat="45.5597883" lon="11.0826633"><ele>661.0</ele><time>2026-04-22T11:46:27.324Z</time></trkpt><trkpt lat="45.5596333" lon="11.0827067"><ele>659.0</ele><time>2026-04-22T11:46:28.324Z</time></trkpt><trkpt lat="45.55948" lon="11.0827783"><ele>657.0</ele><time>2026-04-22T11:46:29.324Z</time></trkpt><trkpt lat="45.55933" lon="11.0828367"><ele>655.0</ele><time>2026-04-22T11:46:30.324Z</time></trkpt><trkpt lat="45.559165" lon="11.0829133"><ele>655.0</ele><time>2026-04-22T11:46:31.324Z</time></trkpt><trkpt lat="45.5590017" lon="11.082975"><ele>655.0</ele><time>2026-04-22T11:46:32.324Z</time></trkpt><trkpt lat="45.5588433" lon="11.08302"><ele>655.0</ele><time>2026-04-22T11:46:33.325Z</time></trkpt><trkpt lat="45.558695" lon="11.0830717"><ele>654.0</ele><time>2026-04-22T11:46:34.325Z</time></trkpt><trkpt lat="45.558545" lon="11.0831167"><ele>653.0</ele><time>2026-04-22T11:46:35.324Z</time></trkpt><trkpt lat="45.5583917" lon="11.0831683"><ele>652.0</ele><time>2026-04-22T11:46:36.324Z</time></trkpt><trkpt lat="45.5582333" lon="11.0832167"><ele>650.3333333333334</ele><time>2026-04-22T11:46:37.325Z</time></trkpt><trkpt lat="45.5580683" lon="11.083265"><ele>648.6666666666666</ele><time>2026-04-22T11:46:38.325Z</time></trkpt><trkpt lat="45.5579067" lon="11.08332"><ele>647.0</ele><time>2026-04-22T11:46:39.324Z</time></trkpt><trkpt lat="45.5577433" lon="11.0833817"><ele>646.3333333333333</ele><time>2026-04-22T11:46:40.324Z</time></trkpt><trkpt lat="45.5575817" lon="11.0834283"><ele>645.6666666666666</ele><time>2026-04-22T11:46:41.324Z</time></trkpt><trkpt lat="45.5574267" lon="11.0834733"><ele>645.0</ele><time>2026-04-22T11:46:42.324Z</time></trkpt><trkpt lat="45.5572717" lon="11.083525"><ele>645.0</ele><time>2026-04-22T11:46:43.324Z</time></trkpt><trkpt lat="45.5571267" lon="11.0835933"><ele>645.0</ele><time>2026-04-22T11:46:44.324Z</time></trkpt><trkpt lat="45.5569933" lon="11.0836983"><ele>645.0</ele><time>2026-04-22T11:46:45.324Z</time></trkpt><trkpt lat="45.556885" lon="11.08381"><ele>645.0</ele><time>2026-04-22T11:46:46.324Z</time></trkpt><trkpt lat="45.5567767" lon="11.083965"><ele>645.3333333333334</ele><time>2026-04-22T11:46:47.324Z</time></trkpt><trkpt lat="45.5566733" lon="11.0841183"><ele>645.6666666666667</ele><time>2026-04-22T11:46:48.324Z</time></trkpt><trkpt lat="45.55656" lon="11.0842733"><ele>646.0</ele><time>2026-04-22T11:46:49.324Z</time></trkpt><trkpt lat="45.556435" lon="11.08441"><ele>646.0</ele><time>2026-04-22T11:46:50.324Z</time></trkpt><trkpt lat="45.5563" lon="11.0845383"><ele>646.0</ele><time>2026-04-22T11:46:51.324Z</time></trkpt><trkpt lat="45.5561583" lon="11.08464"><ele>646.0</ele><time>2026-04-22T11:46:52.325Z</time></trkpt><trkpt lat="45.55601" lon="11.084675"><ele>644.75</ele><time>2026-04-22T11:46:53.324Z</time></trkpt><trkpt lat="45.55587" lon="11.0846467"><ele>643.5</ele><time>2026-04-22T11:46:54.324Z</time></trkpt><trkpt lat="45.555765" lon="11.0845717"><ele>642.25</ele><time>2026-04-22T11:46:55.325Z</time></trkpt><trkpt lat="45.5556317" lon="11.0844583"><ele>641.0</ele><time>2026-04-22T11:46:56.324Z</time></trkpt><trkpt lat="45.5555083" lon="11.08433"><ele>641.0</ele><time>2026-04-22T11:46:57.324Z</time></trkpt><trkpt lat="45.5553917" lon="11.0842267"><ele>641.0</ele><time>2026-04-22T11:46:58.323Z</time></trkpt><trkpt lat="45.5552717" lon="11.0841567"><ele>641.0</ele><time>2026-04-22T11:46:59.323Z</time></trkpt><trkpt lat="45.555145" lon="11.08413"><ele>641.0</ele><time>2026-04-22T11:47:00.323Z</time></trkpt><trkpt lat="45.5550117" lon="11.084185"><ele>640.0</ele><time>2026-04-22T11:47:01.323Z</time></trkpt><trkpt lat="45.5548883" lon="11.08429"><ele>639.0</ele><time>2026-04-22T11:47:02.323Z</time></trkpt><trkpt lat="45.554775" lon="11.0844067"><ele>638.0</ele><time>2026-04-22T11:47:03.323Z</time></trkpt><trkpt lat="45.5546783" lon="11.084525"><ele>637.0</ele><time>2026-04-22T11:47:04.324Z</time></trkpt><trkpt lat="45.5545767" lon="11.0846133"><ele>634.75</ele><time>2026-04-22T11:47:05.323Z</time></trkpt><trkpt lat="45.55446" lon="11.0846983"><ele>632.5</ele><time>2026-04-22T11:47:06.323Z</time></trkpt><trkpt lat="45.5543367" lon="11.0847783"><ele>630.25</ele><time>2026-04-22T11:47:07.323Z</time></trkpt><trkpt lat="45.5542017" lon="11.0848283"><ele>628.0</ele><time>2026-04-22T11:47:08.323Z</time></trkpt><trkpt lat="45.5540567" lon="11.0848417"><ele>628.0</ele><time>2026-04-22T11:47:09.323Z</time></trkpt><trkpt lat="45.5539033" lon="11.0848183"><ele>628.0</ele><time>2026-04-22T11:47:10.323Z</time></trkpt><trkpt lat="45.5537733" lon="11.0848233"><ele>628.0</ele><time>2026-04-22T11:47:11.323Z</time></trkpt><trkpt lat="45.5536367" lon="11.0848317"><ele>628.0</ele><time>2026-04-22T11:47:12.323Z</time></trkpt><trkpt lat="45.5534933" lon="11.0848483"><ele>628.25</ele><time>2026-04-22T11:47:13.323Z</time></trkpt><trkpt lat="45.5533433" lon="11.0848733"><ele>628.5</ele><time>2026-04-22T11:47:14.324Z</time></trkpt><trkpt lat="45.5532083" lon="11.0849333"><ele>628.75</ele><time>2026-04-22T11:47:15.323Z</time></trkpt><trkpt lat="45.5530633" lon="11.085"><ele>629.0</ele><time>2026-04-22T11:47:16.323Z</time></trkpt><trkpt lat="45.5529283" lon="11.0850883"><ele>631.6666666666666</ele><time>2026-04-22T11:47:17.323Z</time></trkpt><trkpt lat="45.552805" lon="11.0852083"><ele>634.3333333333334</ele><time>2026-04-22T11:47:18.323Z</time></trkpt><trkpt lat="45.55267" lon="11.08534"><ele>637.0</ele><time>2026-04-22T11:47:19.323Z</time></trkpt><trkpt lat="45.552535" lon="11.0854717"><ele>637.0</ele><time>2026-04-22T11:47:20.323Z</time></trkpt><trkpt lat="45.552415" lon="11.0856067"><ele>637.0</ele><time>2026-04-22T11:47:21.324Z</time></trkpt><trkpt lat="45.5522983" lon="11.0857267"><ele>637.0</ele><time>2026-04-22T11:47:22.323Z</time></trkpt><trkpt lat="45.5521633" lon="11.0858533"><ele>636.5</ele><time>2026-04-22T11:47:23.323Z</time></trkpt><trkpt lat="45.5520217" lon="11.085985"><ele>636.0</ele><time>2026-04-22T11:47:24.323Z</time></trkpt><trkpt lat="45.5519133" lon="11.0860717"><ele>635.5</ele><time>2026-04-22T11:47:25.323Z</time></trkpt><trkpt lat="45.5518367" lon="11.0861567"><ele>635.0</ele><time>2026-04-22T11:47:26.323Z</time></trkpt><trkpt lat="45.5517733" lon="11.08623"><ele>635.0</ele><time>2026-04-22T11:47:27.323Z</time></trkpt><trkpt lat="45.5517183" lon="11.086285"><ele>635.0</ele><time>2026-04-22T11:47:28.324Z</time></trkpt><trkpt lat="45.551655" lon="11.086415"><ele>635.0</ele><time>2026-04-22T11:47:30.323Z</time></trkpt><trkpt lat="45.55164" lon="11.0865317"><ele>635.0</ele><time>2026-04-22T11:47:32.323Z</time></trkpt><trkpt lat="45.5517067" lon="11.0864117"><ele>635.0</ele><time>2026-04-22T11:47:47.323Z</time></trkpt><trkpt lat="45.551795" lon="11.0864017"><ele>635.0</ele><time>2026-04-22T11:48:37.323Z</time></trkpt><trkpt lat="45.5517267" lon="11.08643"><ele>635.0</ele><time>2026-04-22T11:56:42.321Z</time></trkpt><trkpt lat="45.551645" lon="11.0864683"><ele>635.0</ele><time>2026-04-22T11:56:44.321Z</time></trkpt><trkpt lat="45.5515117" lon="11.086525"><ele>635.0</ele><time>2026-04-22T11:56:46.322Z</time></trkpt><trkpt lat="45.5513633" lon="11.08659"><ele>635.75</ele><time>2026-04-22T11:56:47.321Z</time></trkpt><trkpt lat="45.5512867" lon="11.08664"><ele>636.5</ele><time>2026-04-22T11:56:48.321Z</time></trkpt><trkpt lat="45.551185" lon="11.0867117"><ele>637.25</ele><time>2026-04-22T11:56:49.321Z</time></trkpt><trkpt lat="45.5510617" lon="11.086775"><ele>638.0</ele><time>2026-04-22T11:56:50.321Z</time></trkpt><trkpt lat="45.5508517" lon="11.08685"><ele>638.3333333333333</ele><time>2026-04-22T11:56:51.322Z</time></trkpt><trkpt lat="45.5506917" lon="11.0869283"><ele>638.6666666666666</ele><time>2026-04-22T11:56:52.321Z</time></trkpt><trkpt lat="45.5505567" lon="11.0870667"><ele>639.0</ele><time>2026-04-22T11:56:53.321Z</time></trkpt><trkpt lat="45.5504667" lon="11.0871883"><ele>638.5</ele><time>2026-04-22T11:56:54.321Z</time></trkpt><trkpt lat="45.55035" lon="11.0873"><ele>638.0</ele><time>2026-04-22T11:56:55.321Z</time></trkpt><trkpt lat="45.5502483" lon="11.0874333"><ele>637.5</ele><time>2026-04-22T11:56:56.322Z</time></trkpt><trkpt lat="45.5501483" lon="11.0875733"><ele>637.0</ele><time>2026-04-22T11:56:57.322Z</time></trkpt><trkpt lat="45.5500483" lon="11.0877217"><ele>636.25</ele><time>2026-04-22T11:56:58.322Z</time></trkpt><trkpt lat="45.54995" lon="11.08787"><ele>635.5</ele><time>2026-04-22T11:56:59.321Z</time></trkpt><trkpt lat="45.5498483" lon="11.088015"><ele>634.75</ele><time>2026-04-22T11:57:00.322Z</time></trkpt><trkpt lat="45.5497433" lon="11.0881633"><ele>634.0</ele><time>2026-04-22T11:57:01.321Z</time></trkpt><trkpt lat="45.54964" lon="11.0883267"><ele>634.3333333333334</ele><time>2026-04-22T11:57:02.321Z</time></trkpt><trkpt lat="45.5495383" lon="11.088495"><ele>634.6666666666666</ele><time>2026-04-22T11:57:03.321Z</time></trkpt><trkpt lat="45.549435" lon="11.088675"><ele>635.0</ele><time>2026-04-22T11:57:04.321Z</time></trkpt><trkpt lat="45.5493467" lon="11.0888717"><ele>635.0</ele><time>2026-04-22T11:57:05.321Z</time></trkpt><trkpt lat="45.54926" lon="11.0890767"><ele>635.0</ele><time>2026-04-22T11:57:06.322Z</time></trkpt><trkpt lat="45.54917" lon="11.08929"><ele>635.0</ele><time>2026-04-22T11:57:07.321Z</time></trkpt><trkpt lat="45.5490783" lon="11.089495"><ele>633.3333333333333</ele><time>2026-04-22T11:57:08.321Z</time></trkpt><trkpt lat="45.5489933" lon="11.08969"><ele>631.6666666666666</ele><time>2026-04-22T11:57:09.321Z</time></trkpt><trkpt lat="45.5488683" lon="11.0898317"><ele>630.0</ele><time>2026-04-22T11:57:10.321Z</time></trkpt><trkpt lat="45.5487383" lon="11.08994"><ele>626.6666666666666</ele><time>2026-04-22T11:57:11.321Z</time></trkpt><trkpt lat="45.5485917" lon="11.0900217"><ele>623.3333333333333</ele><time>2026-04-22T11:57:12.322Z</time></trkpt><trkpt lat="45.5484367" lon="11.09005"><ele>620.0</ele><time>2026-04-22T11:57:13.321Z</time></trkpt><trkpt lat="45.548265" lon="11.0900567"><ele>620.0</ele><time>2026-04-22T11:57:14.321Z</time></trkpt><trkpt lat="45.5480933" lon="11.0900717"><ele>620.0</ele><time>2026-04-22T11:57:15.321Z</time></trkpt><trkpt lat="45.547935" lon="11.0900717"><ele>620.0</ele><time>2026-04-22T11:57:16.321Z</time></trkpt><trkpt lat="45.5477633" lon="11.0900283"><ele>620.3333333333333</ele><time>2026-04-22T11:57:17.322Z</time></trkpt><trkpt lat="45.5476017" lon="11.09"><ele>620.6666666666666</ele><time>2026-04-22T11:57:18.321Z</time></trkpt><trkpt lat="45.547445" lon="11.0899417"><ele>621.0</ele><time>2026-04-22T11:57:19.321Z</time></trkpt><trkpt lat="45.5472983" lon="11.08986"><ele>621.0</ele><time>2026-04-22T11:57:20.321Z</time></trkpt><trkpt lat="45.5471483" lon="11.08974"><ele>621.0</ele><time>2026-04-22T11:57:21.321Z</time></trkpt><trkpt lat="45.5470117" lon="11.0896033"><ele>621.0</ele><time>2026-04-22T11:57:22.321Z</time></trkpt><trkpt lat="45.546885" lon="11.089465"><ele>617.3333333333334</ele><time>2026-04-22T11:57:23.321Z</time></trkpt><trkpt lat="45.54675" lon="11.089355"><ele>613.6666666666667</ele><time>2026-04-22T11:57:24.321Z</time></trkpt><trkpt lat="45.5466" lon="11.089225"><ele>610.0</ele><time>2026-04-22T11:57:25.321Z</time></trkpt><trkpt lat="45.5464417" lon="11.0891017"><ele>612.0</ele><time>2026-04-22T11:57:26.321Z</time></trkpt><trkpt lat="45.54629" lon="11.08898"><ele>614.0</ele><time>2026-04-22T11:57:27.321Z</time></trkpt><trkpt lat="45.5461467" lon="11.0888667"><ele>616.0</ele><time>2026-04-22T11:57:28.32Z</time></trkpt><trkpt lat="45.54599" lon="11.0888083"><ele>609.6666666666667</ele><time>2026-04-22T11:57:29.32Z</time></trkpt><trkpt lat="45.5458233" lon="11.0887867"><ele>603.3333333333334</ele><time>2026-04-22T11:57:30.32Z</time></trkpt><trkpt lat="45.545665" lon="11.0887967"><ele>597.0</ele><time>2026-04-22T11:57:31.32Z</time></trkpt><trkpt lat="45.5454833" lon="11.0887933"><ele>596.6666666666666</ele><time>2026-04-22T11:57:32.32Z</time></trkpt><trkpt lat="45.5452817" lon="11.08881"><ele>596.3333333333333</ele><time>2026-04-22T11:57:33.32Z</time></trkpt><trkpt lat="45.5450533" lon="11.0888233"><ele>596.0</ele><time>2026-04-22T11:57:34.32Z</time></trkpt><trkpt lat="45.5448167" lon="11.0888633"><ele>596.0</ele><time>2026-04-22T11:57:35.32Z</time></trkpt><trkpt lat="45.5445917" lon="11.0889033"><ele>596.0</ele><time>2026-04-22T11:57:36.32Z</time></trkpt><trkpt lat="45.544385" lon="11.0889467"><ele>596.0</ele><time>2026-04-22T11:57:37.32Z</time></trkpt><trkpt lat="45.5441933" lon="11.0890017"><ele>595.6666666666666</ele><time>2026-04-22T11:57:38.32Z</time></trkpt><trkpt lat="45.5440033" lon="11.0890483"><ele>595.3333333333334</ele><time>2026-04-22T11:57:39.32Z</time></trkpt><trkpt lat="45.5438233" lon="11.0891217"><ele>595.0</ele><time>2026-04-22T11:57:40.32Z</time></trkpt><trkpt lat="45.5436367" lon="11.0892067"><ele>595.0</ele><time>2026-04-22T11:57:41.32Z</time></trkpt><trkpt lat="45.5434533" lon="11.08932"><ele>595.0</ele><time>2026-04-22T11:57:42.32Z</time></trkpt><trkpt lat="45.5432767" lon="11.0894117"><ele>595.0</ele><time>2026-04-22T11:57:43.321Z</time></trkpt><trkpt lat="45.5430983" lon="11.0895067"><ele>595.0</ele><time>2026-04-22T11:57:44.32Z</time></trkpt><trkpt lat="45.5429333" lon="11.0895783"><ele>595.0</ele><time>2026-04-22T11:57:45.32Z</time></trkpt><trkpt lat="45.5427633" lon="11.08968"><ele>595.0</ele><time>2026-04-22T11:57:46.32Z</time></trkpt><trkpt lat="45.5425917" lon="11.0897883"><ele>595.3333333333334</ele><time>2026-04-22T11:57:47.32Z</time></trkpt><trkpt lat="45.5424317" lon="11.089915"><ele>595.6666666666666</ele><time>2026-04-22T11:57:48.32Z</time></trkpt><trkpt lat="45.5422817" lon="11.09004"><ele>596.0</ele><time>2026-04-22T11:57:49.32Z</time></trkpt><trkpt lat="45.54214" lon="11.0901283"><ele>596.5</ele><time>2026-04-22T11:57:50.32Z</time></trkpt><trkpt lat="45.542005" lon="11.0901983"><ele>597.0</ele><time>2026-04-22T11:57:51.32Z</time></trkpt><trkpt lat="45.5418667" lon="11.0902417"><ele>597.5</ele><time>2026-04-22T11:57:52.321Z</time></trkpt><trkpt lat="45.5417183" lon="11.0902733"><ele>598.0</ele><time>2026-04-22T11:57:53.32Z</time></trkpt><trkpt lat="45.5415667" lon="11.0902633"><ele>598.0</ele><time>2026-04-22T11:57:54.32Z</time></trkpt><trkpt lat="45.541395" lon="11.090225"><ele>598.0</ele><time>2026-04-22T11:57:55.32Z</time></trkpt><trkpt lat="45.5412167" lon="11.0901617"><ele>598.0</ele><time>2026-04-22T11:57:56.321Z</time></trkpt><trkpt lat="45.54105" lon="11.090085"><ele>596.3333333333334</ele><time>2026-04-22T11:57:57.32Z</time></trkpt><trkpt lat="45.5408733" lon="11.0900067"><ele>594.6666666666666</ele><time>2026-04-22T11:57:58.32Z</time></trkpt><trkpt lat="45.5407033" lon="11.0899583"><ele>593.0</ele><time>2026-04-22T11:57:59.32Z</time></trkpt><trkpt lat="45.54053" lon="11.0899667"><ele>592.0</ele><time>2026-04-22T11:58:00.32Z</time></trkpt><trkpt lat="45.540365" lon="11.0900283"><ele>591.0</ele><time>2026-04-22T11:58:01.32Z</time></trkpt><trkpt lat="45.5401933" lon="11.090105"><ele>590.0</ele><time>2026-04-22T11:58:02.32Z</time></trkpt><trkpt lat="45.5400283" lon="11.0902283"><ele>590.0</ele><time>2026-04-22T11:58:03.32Z</time></trkpt><trkpt lat="45.53988" lon="11.0903417"><ele>590.0</ele><time>2026-04-22T11:58:04.321Z</time></trkpt><trkpt lat="45.5397367" lon="11.0904467"><ele>590.0</ele><time>2026-04-22T11:58:05.32Z</time></trkpt><trkpt lat="45.5395967" lon="11.0905617"><ele>593.3333333333333</ele><time>2026-04-22T11:58:06.32Z</time></trkpt><trkpt lat="45.5394533" lon="11.0906717"><ele>596.6666666666666</ele><time>2026-04-22T11:58:07.321Z</time></trkpt><trkpt lat="45.5393117" lon="11.090775"><ele>600.0</ele><time>2026-04-22T11:58:08.32Z</time></trkpt><trkpt lat="45.5391867" lon="11.09086"><ele>600.0</ele><time>2026-04-22T11:58:09.32Z</time></trkpt><trkpt lat="45.5390867" lon="11.0908883"><ele>600.0</ele><time>2026-04-22T11:58:10.32Z</time></trkpt><trkpt lat="45.5389883" lon="11.09088"><ele>600.0</ele><time>2026-04-22T11:58:11.32Z</time></trkpt><trkpt lat="45.53891" lon="11.0908433"><ele>600.0</ele><time>2026-04-22T11:58:12.32Z</time></trkpt><trkpt lat="45.5388483" lon="11.0907917"><ele>600.0</ele><time>2026-04-22T11:58:13.321Z</time></trkpt><trkpt lat="45.5387983" lon="11.090735"><ele>600.0</ele><time>2026-04-22T11:58:14.321Z</time></trkpt><trkpt lat="45.5387217" lon="11.0906233"><ele>601.5</ele><time>2026-04-22T11:58:16.32Z</time></trkpt><trkpt lat="45.538625" lon="11.090575"><ele>603.0</ele><time>2026-04-22T11:58:18.32Z</time></trkpt><trkpt lat="45.5385383" lon="11.0905633"><ele>604.5</ele><time>2026-04-22T11:58:19.32Z</time></trkpt><trkpt lat="45.538405" lon="11.0905317"><ele>606.0</ele><time>2026-04-22T11:58:20.32Z</time></trkpt><trkpt lat="45.5382567" lon="11.0904817"><ele>606.0</ele><time>2026-04-22T11:58:21.321Z</time></trkpt><trkpt lat="45.5381083" lon="11.0904033"><ele>606.0</ele><time>2026-04-22T11:58:22.32Z</time></trkpt><trkpt lat="45.5379567" lon="11.0903283"><ele>606.0</ele><time>2026-04-22T11:58:23.32Z</time></trkpt><trkpt lat="45.5378017" lon="11.0902483"><ele>610.6666666666666</ele><time>2026-04-22T11:58:24.32Z</time></trkpt><trkpt lat="45.5376433" lon="11.0901717"><ele>615.3333333333333</ele><time>2026-04-22T11:58:25.32Z</time></trkpt><trkpt lat="45.5374983" lon="11.0900933"><ele>620.0</ele><time>2026-04-22T11:58:26.32Z</time></trkpt><trkpt lat="45.5373717" lon="11.0900117"><ele>620.0</ele><time>2026-04-22T11:58:27.32Z</time></trkpt><trkpt lat="45.5372417" lon="11.0899317"><ele>620.0</ele><time>2026-04-22T11:58:28.32Z</time></trkpt><trkpt lat="45.5371217" lon="11.0898583"><ele>620.0</ele><time>2026-04-22T11:58:29.32Z</time></trkpt><trkpt lat="45.5370167" lon="11.089815"><ele>620.0</ele><time>2026-04-22T11:58:30.32Z</time></trkpt><trkpt lat="45.5368883" lon="11.0898267"><ele>621.25</ele><time>2026-04-22T11:58:31.321Z</time></trkpt><trkpt lat="45.536765" lon="11.0898783"><ele>622.5</ele><time>2026-04-22T11:58:32.32Z</time></trkpt><trkpt lat="45.5366317" lon="11.089935"><ele>623.75</ele><time>2026-04-22T11:58:33.32Z</time></trkpt><trkpt lat="45.5364883" lon="11.0899817"><ele>625.0</ele><time>2026-04-22T11:58:34.32Z</time></trkpt><trkpt lat="45.5363283" lon="11.09002"><ele>628.6666666666667</ele><time>2026-04-22T11:58:35.32Z</time></trkpt><trkpt lat="45.53615" lon="11.0900617"><ele>632.3333333333334</ele><time>2026-04-22T11:58:36.32Z</time></trkpt><trkpt lat="45.5359783" lon="11.0900783"><ele>636.0</ele><time>2026-04-22T11:58:37.32Z</time></trkpt><trkpt lat="45.5358117" lon="11.0900883"><ele>636.0</ele><time>2026-04-22T11:58:38.32Z</time></trkpt><trkpt lat="45.5356683" lon="11.0901083"><ele>636.0</ele><time>2026-04-22T11:58:39.32Z</time></trkpt><trkpt lat="45.5355267" lon="11.0901517"><ele>636.0</ele><time>2026-04-22T11:58:40.321Z</time></trkpt><trkpt lat="45.5353767" lon="11.0901933"><ele>636.0</ele><time>2026-04-22T11:58:41.32Z</time></trkpt><trkpt lat="45.5352133" lon="11.0902133"><ele>635.3333333333334</ele><time>2026-04-22T11:58:42.32Z</time></trkpt><trkpt lat="45.5350367" lon="11.0902283"><ele>634.6666666666667</ele><time>2026-04-22T11:58:43.32Z</time></trkpt><trkpt lat="45.5348567" lon="11.090265"><ele>634.0</ele><time>2026-04-22T11:58:44.32Z</time></trkpt><trkpt lat="45.5346733" lon="11.090315"><ele>633.6666666666667</ele><time>2026-04-22T11:58:45.32Z</time></trkpt><trkpt lat="45.5345067" lon="11.0903867"><ele>633.3333333333334</ele><time>2026-04-22T11:58:46.32Z</time></trkpt><trkpt lat="45.5343467" lon="11.0904717"><ele>633.0</ele><time>2026-04-22T11:58:47.32Z</time></trkpt><trkpt lat="45.5341833" lon="11.0905617"><ele>633.0</ele><time>2026-04-22T11:58:48.32Z</time></trkpt><trkpt lat="45.534005" lon="11.090655"><ele>633.0</ele><time>2026-04-22T11:58:49.32Z</time></trkpt><trkpt lat="45.533815" lon="11.0907367"><ele>633.0</ele><time>2026-04-22T11:58:50.32Z</time></trkpt><trkpt lat="45.53362" lon="11.0908017"><ele>632.0</ele><time>2026-04-22T11:58:51.32Z</time></trkpt><trkpt lat="45.5334383" lon="11.0908667"><ele>631.0</ele><time>2026-04-22T11:58:52.32Z</time></trkpt><trkpt lat="45.53326" lon="11.0909367"><ele>630.0</ele><time>2026-04-22T11:58:53.321Z</time></trkpt><trkpt lat="45.5330817" lon="11.0910217"><ele>630.0</ele><time>2026-04-22T11:58:54.32Z</time></trkpt><trkpt lat="45.532895" lon="11.09111"><ele>630.0</ele><time>2026-04-22T11:58:55.321Z</time></trkpt><trkpt lat="45.5327117" lon="11.091185"><ele>630.0</ele><time>2026-04-22T11:58:56.32Z</time></trkpt><trkpt lat="45.5325367" lon="11.0912617"><ele>629.0</ele><time>2026-04-22T11:58:57.32Z</time></trkpt><trkpt lat="45.53236" lon="11.0913467"><ele>628.0</ele><time>2026-04-22T11:58:58.321Z</time></trkpt><trkpt lat="45.5322" lon="11.09142"><ele>627.0</ele><time>2026-04-22T11:58:59.32Z</time></trkpt><trkpt lat="45.53205" lon="11.0914633"><ele>626.3333333333334</ele><time>2026-04-22T11:59:00.32Z</time></trkpt><trkpt lat="45.5318917" lon="11.0914917"><ele>625.6666666666667</ele><time>2026-04-22T11:59:01.321Z</time></trkpt><trkpt lat="45.5317267" lon="11.0915117"><ele>625.0</ele><time>2026-04-22T11:59:02.32Z</time></trkpt><trkpt lat="45.5315567" lon="11.0915167"><ele>625.0</ele><time>2026-04-22T11:59:03.32Z</time></trkpt><trkpt lat="45.5313967" lon="11.0915133"><ele>625.0</ele><time>2026-04-22T11:59:04.32Z</time></trkpt><trkpt lat="45.531235" lon="11.091505"><ele>625.0</ele><time>2026-04-22T11:59:05.32Z</time></trkpt><trkpt lat="45.53108" lon="11.0914933"><ele>622.75</ele><time>2026-04-22T11:59:06.32Z</time></trkpt><trkpt lat="45.5309317" lon="11.0914767"><ele>620.5</ele><time>2026-04-22T11:59:07.32Z</time></trkpt><trkpt lat="45.5307883" lon="11.091485"><ele>618.25</ele><time>2026-04-22T11:59:08.32Z</time></trkpt><trkpt lat="45.530655" lon="11.0914917"><ele>616.0</ele><time>2026-04-22T11:59:09.32Z</time></trkpt><trkpt lat="45.5305283" lon="11.091505"><ele>616.0</ele><time>2026-04-22T11:59:10.32Z</time></trkpt><trkpt lat="45.5304067" lon="11.0915367"><ele>616.0</ele><time>2026-04-22T11:59:11.32Z</time></trkpt><trkpt lat="45.53029" lon="11.091595"><ele>616.0</ele><time>2026-04-22T11:59:12.321Z</time></trkpt><trkpt lat="45.5301817" lon="11.09166"><ele>616.0</ele><time>2026-04-22T11:59:13.32Z</time></trkpt><trkpt lat="45.5300517" lon="11.091685"><ele>615.25</ele><time>2026-04-22T11:59:14.32Z</time></trkpt><trkpt lat="45.5299267" lon="11.0917167"><ele>614.5</ele><time>2026-04-22T11:59:15.32Z</time></trkpt><trkpt lat="45.52982" lon="11.0917517"><ele>613.75</ele><time>2026-04-22T11:59:16.32Z</time></trkpt><trkpt lat="45.529715" lon="11.0917917"><ele>613.0</ele><time>2026-04-22T11:59:17.321Z</time></trkpt><trkpt lat="45.52961" lon="11.091825"><ele>612.25</ele><time>2026-04-22T11:59:18.32Z</time></trkpt><trkpt lat="45.52949" lon="11.0918567"><ele>611.5</ele><time>2026-04-22T11:59:19.32Z</time></trkpt><trkpt lat="45.5293483" lon="11.0918867"><ele>610.75</ele><time>2026-04-22T11:59:20.32Z</time></trkpt><trkpt lat="45.5291917" lon="11.09189"><ele>610.0</ele><time>2026-04-22T11:59:21.321Z</time></trkpt><trkpt lat="45.52904" lon="11.091885"><ele>610.0</ele><time>2026-04-22T11:59:22.32Z</time></trkpt><trkpt lat="45.5289117" lon="11.0918517"><ele>610.0</ele><time>2026-04-22T11:59:23.321Z</time></trkpt><trkpt lat="45.5287617" lon="11.091825"><ele>610.0</ele><time>2026-04-22T11:59:24.32Z</time></trkpt><trkpt lat="45.5286083" lon="11.0917817"><ele>610.0</ele><time>2026-04-22T11:59:25.32Z</time></trkpt><trkpt lat="45.5284517" lon="11.0917283"><ele>609.6666666666667</ele><time>2026-04-22T11:59:26.32Z</time></trkpt><trkpt lat="45.5282983" lon="11.0916633"><ele>609.3333333333334</ele><time>2026-04-22T11:59:27.32Z</time></trkpt><trkpt lat="45.528145" lon="11.0915883"><ele>609.0</ele><time>2026-04-22T11:59:28.32Z</time></trkpt><trkpt lat="45.5279883" lon="11.091535"><ele>608.3333333333334</ele><time>2026-04-22T11:59:29.32Z</time></trkpt><trkpt lat="45.5278467" lon="11.0914733"><ele>607.6666666666667</ele><time>2026-04-22T11:59:30.32Z</time></trkpt><trkpt lat="45.527695" lon="11.0914383"><ele>607.0</ele><time>2026-04-22T11:59:31.32Z</time></trkpt><trkpt lat="45.527545" lon="11.0914"><ele>607.0</ele><time>2026-04-22T11:59:32.321Z</time></trkpt><trkpt lat="45.5274" lon="11.0913517"><ele>607.0</ele><time>2026-04-22T11:59:33.321Z</time></trkpt><trkpt lat="45.5272517" lon="11.0913067"><ele>607.0</ele><time>2026-04-22T11:59:34.32Z</time></trkpt><trkpt lat="45.5270917" lon="11.0912683"><ele>607.6666666666667</ele><time>2026-04-22T11:59:35.321Z</time></trkpt><trkpt lat="45.5269367" lon="11.0912283"><ele>608.3333333333334</ele><time>2026-04-22T11:59:36.32Z</time></trkpt><trkpt lat="45.5267883" lon="11.0911983"><ele>609.0</ele><time>2026-04-22T11:59:37.32Z</time></trkpt><trkpt lat="45.526645" lon="11.0911717"><ele>609.0</ele><time>2026-04-22T11:59:38.32Z</time></trkpt><trkpt lat="45.5265117" lon="11.091155"><ele>609.0</ele><time>2026-04-22T11:59:39.32Z</time></trkpt><trkpt lat="45.526375" lon="11.0911433"><ele>609.0</ele><time>2026-04-22T11:59:40.32Z</time></trkpt><trkpt lat="45.5262433" lon="11.0911417"><ele>609.0</ele><time>2026-04-22T11:59:41.321Z</time></trkpt><trkpt lat="45.5261167" lon="11.09116"><ele>609.75</ele><time>2026-04-22T11:59:42.32Z</time></trkpt><trkpt lat="45.5259833" lon="11.0911933"><ele>610.5</ele><time>2026-04-22T11:59:43.32Z</time></trkpt><trkpt lat="45.5258467" lon="11.0912483"><ele>611.25</ele><time>2026-04-22T11:59:44.32Z</time></trkpt><trkpt lat="45.5257133" lon="11.0913133"><ele>612.0</ele><time>2026-04-22T11:59:45.32Z</time></trkpt><trkpt lat="45.5255783" lon="11.091375"><ele>612.0</ele><time>2026-04-22T11:59:46.32Z</time></trkpt><trkpt lat="45.5254467" lon="11.0914383"><ele>612.0</ele><time>2026-04-22T11:59:47.321Z</time></trkpt><trkpt lat="45.5253083" lon="11.0915067"><ele>612.0</ele><time>2026-04-22T11:59:48.321Z</time></trkpt><trkpt lat="45.5251833" lon="11.0915733"><ele>612.0</ele><time>2026-04-22T11:59:49.32Z</time></trkpt><trkpt lat="45.525065" lon="11.091645"><ele>613.25</ele><time>2026-04-22T11:59:50.321Z</time></trkpt><trkpt lat="45.5249333" lon="11.091725"><ele>614.5</ele><time>2026-04-22T11:59:51.32Z</time></trkpt><trkpt lat="45.5248183" lon="11.0917983"><ele>615.75</ele><time>2026-04-22T11:59:52.32Z</time></trkpt><trkpt lat="45.5247033" lon="11.0918667"><ele>617.0</ele><time>2026-04-22T11:59:53.32Z</time></trkpt><trkpt lat="45.5245867" lon="11.0919283"><ele>615.0</ele><time>2026-04-22T11:59:54.32Z</time></trkpt><trkpt lat="45.5244667" lon="11.091995"><ele>613.0</ele><time>2026-04-22T11:59:55.32Z</time></trkpt><trkpt lat="45.5243417" lon="11.0920717"><ele>611.0</ele><time>2026-04-22T11:59:56.32Z</time></trkpt><trkpt lat="45.5242183" lon="11.0921333"><ele>609.0</ele><time>2026-04-22T11:59:57.321Z</time></trkpt><trkpt lat="45.5240983" lon="11.0921833"><ele>609.0</ele><time>2026-04-22T11:59:58.32Z</time></trkpt><trkpt lat="45.5239667" lon="11.092215"><ele>609.0</ele><time>2026-04-22T11:59:59.32Z</time></trkpt><trkpt lat="45.523845" lon="11.0922767"><ele>609.0</ele><time>2026-04-22T12:00:00.32Z</time></trkpt><trkpt lat="45.5237083" lon="11.0923233"><ele>609.0</ele><time>2026-04-22T12:00:01.32Z</time></trkpt><trkpt lat="45.5235733" lon="11.0923617"><ele>610.75</ele><time>2026-04-22T12:00:02.32Z</time></trkpt><trkpt lat="45.5234433" lon="11.0923883"><ele>612.5</ele><time>2026-04-22T12:00:03.32Z</time></trkpt><trkpt lat="45.5233233" lon="11.092435"><ele>614.25</ele><time>2026-04-22T12:00:04.32Z</time></trkpt><trkpt lat="45.5232183" lon="11.092525"><ele>616.0</ele><time>2026-04-22T12:00:05.32Z</time></trkpt><trkpt lat="45.5231083" lon="11.0926133"><ele>616.0</ele><time>2026-04-22T12:00:06.32Z</time></trkpt><trkpt lat="45.522995" lon="11.092725"><ele>616.0</ele><time>2026-04-22T12:00:07.321Z</time></trkpt><trkpt lat="45.52289" lon="11.0928383"><ele>616.0</ele><time>2026-04-22T12:00:08.32Z</time></trkpt><trkpt lat="45.5227767" lon="11.09295"><ele>616.0</ele><time>2026-04-22T12:00:09.32Z</time></trkpt><trkpt lat="45.522665" lon="11.093045"><ele>618.25</ele><time>2026-04-22T12:00:10.32Z</time></trkpt><trkpt lat="45.5225417" lon="11.09314"><ele>620.5</ele><time>2026-04-22T12:00:11.321Z</time></trkpt><trkpt lat="45.5224167" lon="11.0932167"><ele>622.75</ele><time>2026-04-22T12:00:12.32Z</time></trkpt><trkpt lat="45.5222833" lon="11.0932733"><ele>625.0</ele><time>2026-04-22T12:00:13.32Z</time></trkpt><trkpt lat="45.522145" lon="11.0932883"><ele>625.3333333333334</ele><time>2026-04-22T12:00:14.32Z</time></trkpt><trkpt lat="45.5219967" lon="11.093265"><ele>625.6666666666666</ele><time>2026-04-22T12:00:15.321Z</time></trkpt><trkpt lat="45.5218583" lon="11.0931117"><ele>626.0</ele><time>2026-04-22T12:00:16.32Z</time></trkpt><trkpt lat="45.521735" lon="11.0929833"><ele>620.5</ele><time>2026-04-22T12:00:17.32Z</time></trkpt><trkpt lat="45.5216117" lon="11.092855"><ele>615.0</ele><time>2026-04-22T12:00:18.32Z</time></trkpt><trkpt lat="45.5214967" lon="11.092755"><ele>609.5</ele><time>2026-04-22T12:00:19.321Z</time></trkpt><trkpt lat="45.521355" lon="11.09268"><ele>604.0</ele><time>2026-04-22T12:00:20.32Z</time></trkpt><trkpt lat="45.521215" lon="11.0926433"><ele>604.0</ele><time>2026-04-22T12:00:21.32Z</time></trkpt><trkpt lat="45.5210633" lon="11.0926183"><ele>604.0</ele><time>2026-04-22T12:00:22.321Z</time></trkpt><trkpt lat="45.520915" lon="11.0926067"><ele>604.0</ele><time>2026-04-22T12:00:23.32Z</time></trkpt><trkpt lat="45.5207533" lon="11.09258"><ele>604.0</ele><time>2026-04-22T12:00:24.321Z</time></trkpt><trkpt lat="45.5205233" lon="11.0924883"><ele>604.0</ele><time>2026-04-22T12:00:26.321Z</time></trkpt><trkpt lat="45.520425" lon="11.0924417"><ele>604.0</ele><time>2026-04-22T12:00:27.32Z</time></trkpt><trkpt lat="45.52032" lon="11.0923917"><ele>602.25</ele><time>2026-04-22T12:00:28.319Z</time></trkpt><trkpt lat="45.52021" lon="11.09234"><ele>600.5</ele><time>2026-04-22T12:00:29.319Z</time></trkpt><trkpt lat="45.520095" lon="11.0923083"><ele>598.75</ele><time>2026-04-22T12:00:30.319Z</time></trkpt><trkpt lat="45.5199667" lon="11.09231"><ele>597.0</ele><time>2026-04-22T12:00:31.319Z</time></trkpt><trkpt lat="45.5198583" lon="11.09235"><ele>597.0</ele><time>2026-04-22T12:00:32.319Z</time></trkpt><trkpt lat="45.5197383" lon="11.0923983"><ele>597.0</ele><time>2026-04-22T12:00:33.319Z</time></trkpt><trkpt lat="45.51962" lon="11.0924667"><ele>597.0</ele><time>2026-04-22T12:00:34.319Z</time></trkpt><trkpt lat="45.5195133" lon="11.09259"><ele>597.0</ele><time>2026-04-22T12:00:35.32Z</time></trkpt><trkpt lat="45.5194183" lon="11.0927367"><ele>597.75</ele><time>2026-04-22T12:00:36.319Z</time></trkpt><trkpt lat="45.5193233" lon="11.0928583"><ele>598.5</ele><time>2026-04-22T12:00:37.319Z</time></trkpt><trkpt lat="45.51922" lon="11.0929433"><ele>599.25</ele><time>2026-04-22T12:00:38.319Z</time></trkpt><trkpt lat="45.51909" lon="11.092975"><ele>600.0</ele><time>2026-04-22T12:00:39.319Z</time></trkpt><trkpt lat="45.5189583" lon="11.092985"><ele>600.0</ele><time>2026-04-22T12:00:40.319Z</time></trkpt><trkpt lat="45.51881" lon="11.0929633"><ele>600.0</ele><time>2026-04-22T12:00:41.319Z</time></trkpt><trkpt lat="45.5186683" lon="11.0929383"><ele>600.0</ele><time>2026-04-22T12:00:42.319Z</time></trkpt><trkpt lat="45.5185233" lon="11.09293"><ele>600.0</ele><time>2026-04-22T12:00:43.319Z</time></trkpt><trkpt lat="45.5183917" lon="11.0929517"><ele>598.0</ele><time>2026-04-22T12:00:44.319Z</time></trkpt><trkpt lat="45.5182633" lon="11.0929817"><ele>596.0</ele><time>2026-04-22T12:00:45.319Z</time></trkpt><trkpt lat="45.51814" lon="11.0930083"><ele>594.0</ele><time>2026-04-22T12:00:46.319Z</time></trkpt><trkpt lat="45.5180167" lon="11.0930467"><ele>592.0</ele><time>2026-04-22T12:00:47.319Z</time></trkpt><trkpt lat="45.5178867" lon="11.0930967"><ele>594.25</ele><time>2026-04-22T12:00:48.319Z</time></trkpt><trkpt lat="45.5177533" lon="11.0931683"><ele>596.5</ele><time>2026-04-22T12:00:49.319Z</time></trkpt><trkpt lat="45.51763" lon="11.09325"><ele>598.75</ele><time>2026-04-22T12:00:50.319Z</time></trkpt><trkpt lat="45.5175067" lon="11.0933233"><ele>601.0</ele><time>2026-04-22T12:00:51.319Z</time></trkpt><trkpt lat="45.5173917" lon="11.0933983"><ele>601.0</ele><time>2026-04-22T12:00:52.319Z</time></trkpt><trkpt lat="45.5172683" lon="11.0934667"><ele>601.0</ele><time>2026-04-22T12:00:53.32Z</time></trkpt><trkpt lat="45.5171467" lon="11.0935167"><ele>601.0</ele><time>2026-04-22T12:00:54.319Z</time></trkpt><trkpt lat="45.5170167" lon="11.0935617"><ele>601.0</ele><time>2026-04-22T12:00:55.319Z</time></trkpt><trkpt lat="45.5168667" lon="11.0935917"><ele>599.5</ele><time>2026-04-22T12:00:56.319Z</time></trkpt><trkpt lat="45.516725" lon="11.09361"><ele>598.0</ele><time>2026-04-22T12:00:57.319Z</time></trkpt><trkpt lat="45.516575" lon="11.0936233"><ele>596.5</ele><time>2026-04-22T12:00:58.319Z</time></trkpt><trkpt lat="45.5164183" lon="11.09363"><ele>595.0</ele><time>2026-04-22T12:00:59.319Z</time></trkpt><trkpt lat="45.516265" lon="11.09361"><ele>594.0</ele><time>2026-04-22T12:01:00.319Z</time></trkpt><trkpt lat="45.5161167" lon="11.093595"><ele>593.0</ele><time>2026-04-22T12:01:01.32Z</time></trkpt><trkpt lat="45.515945" lon="11.0935983"><ele>592.0</ele><time>2026-04-22T12:01:02.319Z</time></trkpt><trkpt lat="45.5157767" lon="11.0935967"><ele>592.0</ele><time>2026-04-22T12:01:03.32Z</time></trkpt><trkpt lat="45.515615" lon="11.0936033"><ele>592.0</ele><time>2026-04-22T12:01:04.319Z</time></trkpt><trkpt lat="45.515435" lon="11.0936217"><ele>592.0</ele><time>2026-04-22T12:01:05.319Z</time></trkpt><trkpt lat="45.5152617" lon="11.0936483"><ele>591.0</ele><time>2026-04-22T12:01:06.319Z</time></trkpt><trkpt lat="45.5150967" lon="11.093675"><ele>590.0</ele><time>2026-04-22T12:01:07.319Z</time></trkpt><trkpt lat="45.51493" lon="11.0936933"><ele>589.0</ele><time>2026-04-22T12:01:08.319Z</time></trkpt><trkpt lat="45.514765" lon="11.0937017"><ele>589.0</ele><time>2026-04-22T12:01:09.319Z</time></trkpt><trkpt lat="45.514605" lon="11.0937017"><ele>589.0</ele><time>2026-04-22T12:01:10.319Z</time></trkpt><trkpt lat="45.5144533" lon="11.093725"><ele>589.0</ele><time>2026-04-22T12:01:11.32Z</time></trkpt><trkpt lat="45.514315" lon="11.093765"><ele>588.5</ele><time>2026-04-22T12:01:12.319Z</time></trkpt><trkpt lat="45.5141967" lon="11.0938333"><ele>588.0</ele><time>2026-04-22T12:01:13.319Z</time></trkpt><trkpt lat="45.5140583" lon="11.0938683"><ele>587.5</ele><time>2026-04-22T12:01:14.319Z</time></trkpt><trkpt lat="45.5139133" lon="11.0938783"><ele>587.0</ele><time>2026-04-22T12:01:15.319Z</time></trkpt><trkpt lat="45.51377" lon="11.093855"><ele>587.3333333333333</ele><time>2026-04-22T12:01:16.319Z</time></trkpt><trkpt lat="45.5136233" lon="11.0938117"><ele>587.6666666666666</ele><time>2026-04-22T12:01:17.319Z</time></trkpt><trkpt lat="45.5134567" lon="11.093775"><ele>588.0</ele><time>2026-04-22T12:01:18.319Z</time></trkpt><trkpt lat="45.513295" lon="11.09377"><ele>588.0</ele><time>2026-04-22T12:01:19.319Z</time></trkpt><trkpt lat="45.5131517" lon="11.093755"><ele>588.0</ele><time>2026-04-22T12:01:20.319Z</time></trkpt><trkpt lat="45.5130017" lon="11.09373"><ele>588.0</ele><time>2026-04-22T12:01:21.319Z</time></trkpt><trkpt lat="45.5128283" lon="11.093705"><ele>586.3333333333334</ele><time>2026-04-22T12:01:22.319Z</time></trkpt><trkpt lat="45.512655" lon="11.093685"><ele>584.6666666666667</ele><time>2026-04-22T12:01:23.319Z</time></trkpt><trkpt lat="45.5124567" lon="11.09368"><ele>583.0</ele><time>2026-04-22T12:01:24.32Z</time></trkpt><trkpt lat="45.51227" lon="11.0936817"><ele>583.0</ele><time>2026-04-22T12:01:25.319Z</time></trkpt><trkpt lat="45.5120783" lon="11.0937033"><ele>583.0</ele><time>2026-04-22T12:01:26.32Z</time></trkpt><trkpt lat="45.5118867" lon="11.0937433"><ele>583.0</ele><time>2026-04-22T12:01:27.32Z</time></trkpt><trkpt lat="45.511695" lon="11.09387"><ele>581.0</ele><time>2026-04-22T12:01:28.319Z</time></trkpt><trkpt lat="45.5115117" lon="11.09394"><ele>579.0</ele><time>2026-04-22T12:01:29.319Z</time></trkpt><trkpt lat="45.511345" lon="11.0939817"><ele>577.0</ele><time>2026-04-22T12:01:30.319Z</time></trkpt><trkpt lat="45.5112133" lon="11.0940283"><ele>575.0</ele><time>2026-04-22T12:01:31.319Z</time></trkpt><trkpt lat="45.5110783" lon="11.0940767"><ele>573.0</ele><time>2026-04-22T12:01:32.319Z</time></trkpt><trkpt lat="45.5109317" lon="11.0940617"><ele>571.0</ele><time>2026-04-22T12:01:33.319Z</time></trkpt><trkpt lat="45.5108133" lon="11.094045"><ele>569.0</ele><time>2026-04-22T12:01:34.319Z</time></trkpt><trkpt lat="45.5106983" lon="11.0940283"><ele>569.0</ele><time>2026-04-22T12:01:35.319Z</time></trkpt><trkpt lat="45.510585" lon="11.0940433"><ele>569.0</ele><time>2026-04-22T12:01:36.319Z</time></trkpt><trkpt lat="45.5104617" lon="11.0939833"><ele>569.0</ele><time>2026-04-22T12:01:37.319Z</time></trkpt><trkpt lat="45.51035" lon="11.0938483"><ele>569.0</ele><time>2026-04-22T12:01:38.319Z</time></trkpt><trkpt lat="45.5102317" lon="11.0937783"><ele>570.0</ele><time>2026-04-22T12:01:39.319Z</time></trkpt><trkpt lat="45.5100983" lon="11.0934617"><ele>571.0</ele><time>2026-04-22T12:01:40.32Z</time></trkpt><trkpt lat="45.5099867" lon="11.0932133"><ele>571.0</ele><time>2026-04-22T12:01:41.319Z</time></trkpt><trkpt lat="45.5098733" lon="11.092975"><ele>571.0</ele><time>2026-04-22T12:01:42.319Z</time></trkpt><trkpt lat="45.509745" lon="11.0927383"><ele>571.0</ele><time>2026-04-22T12:01:43.319Z</time></trkpt><trkpt lat="45.5096133" lon="11.09251"><ele>567.3333333333334</ele><time>2026-04-22T12:01:44.319Z</time></trkpt><trkpt lat="45.5094583" lon="11.09231"><ele>563.6666666666666</ele><time>2026-04-22T12:01:45.319Z</time></trkpt><trkpt lat="45.5092933" lon="11.09215"><ele>560.0</ele><time>2026-04-22T12:01:46.319Z</time></trkpt><trkpt lat="45.5091283" lon="11.0920083"><ele>560.0</ele><time>2026-04-22T12:01:47.32Z</time></trkpt><trkpt lat="45.5089667" lon="11.091875"><ele>560.0</ele><time>2026-04-22T12:01:48.319Z</time></trkpt><trkpt lat="45.5088133" lon="11.0917567"><ele>560.0</ele><time>2026-04-22T12:01:49.32Z</time></trkpt><trkpt lat="45.508675" lon="11.09157"><ele>558.5</ele><time>2026-04-22T12:01:50.319Z</time></trkpt><trkpt lat="45.5085267" lon="11.0914483"><ele>557.0</ele><time>2026-04-22T12:01:51.319Z</time></trkpt><trkpt lat="45.5084317" lon="11.091335"><ele>555.5</ele><time>2026-04-22T12:01:52.319Z</time></trkpt><trkpt lat="45.508345" lon="11.091295"><ele>554.0</ele><time>2026-04-22T12:01:53.319Z</time></trkpt><trkpt lat="45.50828" lon="11.0912917"><ele>554.0</ele><time>2026-04-22T12:01:54.32Z</time></trkpt><trkpt lat="45.5081983" lon="11.0913217"><ele>554.0</ele><time>2026-04-22T12:01:55.319Z</time></trkpt><trkpt lat="45.5080917" lon="11.0913"><ele>554.0</ele><time>2026-04-22T12:01:56.319Z</time></trkpt><trkpt lat="45.5079867" lon="11.0912883"><ele>554.0</ele><time>2026-04-22T12:01:57.32Z</time></trkpt><trkpt lat="45.507955" lon="11.0914267"><ele>554.0</ele><time>2026-04-22T12:01:59.319Z</time></trkpt><trkpt lat="45.5080267" lon="11.0915267"><ele>556.75</ele><time>2026-04-22T12:02:01.319Z</time></trkpt><trkpt lat="45.5080833" lon="11.0916283"><ele>559.5</ele><time>2026-04-22T12:02:02.319Z</time></trkpt><trkpt lat="45.5082183" lon="11.0917783"><ele>562.25</ele><time>2026-04-22T12:02:04.319Z</time></trkpt><trkpt lat="45.5083283" lon="11.0918717"><ele>565.0</ele><time>2026-04-22T12:02:11.319Z</time></trkpt><trkpt lat="45.5082733" lon="11.09194"><ele>565.0</ele><time>2026-04-22T12:02:50.319Z</time></trkpt><trkpt lat="45.5081467" lon="11.0922883"><ele>565.0</ele><time>2026-04-22T12:02:52.32Z</time></trkpt><trkpt lat="45.5080733" lon="11.0924633"><ele>565.0</ele><time>2026-04-22T12:02:53.319Z</time></trkpt><trkpt lat="45.50795" lon="11.0926133"><ele>565.0</ele><time>2026-04-22T12:02:54.32Z</time></trkpt><trkpt lat="45.5078833" lon="11.092695"><ele>565.0</ele><time>2026-04-22T12:02:55.32Z</time></trkpt><trkpt lat="45.5078233" lon="11.0927383"><ele>565.0</ele><time>2026-04-22T12:02:56.32Z</time></trkpt><trkpt lat="45.5078967" lon="11.0926117"><ele>565.0</ele><time>2026-04-22T12:03:00.319Z</time></trkpt><trkpt lat="45.50798" lon="11.0925283"><ele>565.0</ele><time>2026-04-22T12:03:01.319Z</time></trkpt><trkpt lat="45.5080267" lon="11.0924633"><ele>565.0</ele><time>2026-04-22T12:03:02.319Z</time></trkpt><trkpt lat="45.508065" lon="11.0923833"><ele>565.0</ele><time>2026-04-22T12:03:03.32Z</time></trkpt><trkpt lat="45.5080867" lon="11.0922683"><ele>565.0</ele><time>2026-04-22T12:03:04.32Z</time></trkpt><trkpt lat="45.5081067" lon="11.0921217"><ele>565.0</ele><time>2026-04-22T12:03:05.319Z</time></trkpt><trkpt lat="45.5081267" lon="11.0919367"><ele>565.0</ele><time>2026-04-22T12:03:06.319Z</time></trkpt><trkpt lat="45.5081117" lon="11.0917967"><ele>565.0</ele><time>2026-04-22T12:03:07.319Z</time></trkpt><trkpt lat="45.50809" lon="11.0916833"><ele>565.0</ele><time>2026-04-22T12:03:08.319Z</time></trkpt><trkpt lat="45.5080917" lon="11.09158"><ele>565.0</ele><time>2026-04-22T12:03:10.319Z</time></trkpt><trkpt lat="45.50815" lon="11.091675"><ele>565.0</ele><time>2026-04-22T12:03:13.319Z</time></trkpt><trkpt lat="45.5082133" lon="11.0917933"><ele>565.0</ele><time>2026-04-22T12:03:15.319Z</time></trkpt><trkpt lat="45.50825" lon="11.09188"><ele>565.0</ele><time>2026-04-22T12:03:19.32Z</time></trkpt><trkpt lat="45.5081633" lon="11.0917867"><ele>565.0</ele><time>2026-04-22T12:04:51.318Z</time></trkpt><trkpt lat="45.5080933" lon="11.0917033"><ele>562.8</ele><time>2026-04-22T12:04:53.318Z</time></trkpt><trkpt lat="45.5080717" lon="11.0915833"><ele>560.6</ele><time>2026-04-22T12:04:57.318Z</time></trkpt><trkpt lat="45.50818" lon="11.0914867"><ele>558.4</ele><time>2026-04-22T12:05:14.318Z</time></trkpt><trkpt lat="45.5082217" lon="11.0913633"><ele>556.2</ele><time>2026-04-22T12:05:16.318Z</time></trkpt><trkpt lat="45.5082583" lon="11.0912583"><ele>554.0</ele><time>2026-04-22T12:05:17.319Z</time></trkpt><trkpt lat="45.5082917" lon="11.0911367"><ele>554.0</ele><time>2026-04-22T12:05:18.318Z</time></trkpt><trkpt lat="45.508305" lon="11.091025"><ele>554.0</ele><time>2026-04-22T12:05:19.319Z</time></trkpt><trkpt lat="45.5083033" lon="11.090915"><ele>554.0</ele><time>2026-04-22T12:05:20.318Z</time></trkpt><trkpt lat="45.508245" lon="11.09081"><ele>554.0</ele><time>2026-04-22T12:05:21.318Z</time></trkpt><trkpt lat="45.5081783" lon="11.09069"><ele>554.0</ele><time>2026-04-22T12:05:22.319Z</time></trkpt><trkpt lat="45.5081" lon="11.09059"><ele>551.0</ele><time>2026-04-22T12:05:23.318Z</time></trkpt><trkpt lat="45.5080367" lon="11.0905167"><ele>548.0</ele><time>2026-04-22T12:05:24.318Z</time></trkpt><trkpt lat="45.507965" lon="11.09044"><ele>545.0</ele><time>2026-04-22T12:05:25.318Z</time></trkpt><trkpt lat="45.507905" lon="11.0903667"><ele>542.0</ele><time>2026-04-22T12:05:26.319Z</time></trkpt><trkpt lat="45.5078383" lon="11.090295"><ele>539.0</ele><time>2026-04-22T12:05:27.318Z</time></trkpt><trkpt lat="45.5077883" lon="11.0902183"><ele>536.0</ele><time>2026-04-22T12:05:28.318Z</time></trkpt><trkpt lat="45.5077817" lon="11.0900717"><ele>531.0</ele><time>2026-04-22T12:05:29.318Z</time></trkpt><trkpt lat="45.5077633" lon="11.0899217"><ele>526.0</ele><time>2026-04-22T12:05:30.319Z</time></trkpt><trkpt lat="45.5077467" lon="11.0897733"><ele>521.0</ele><time>2026-04-22T12:05:31.318Z</time></trkpt><trkpt lat="45.5077467" lon="11.0896233"><ele>516.0</ele><time>2026-04-22T12:05:32.318Z</time></trkpt><trkpt lat="45.5077367" lon="11.0894833"><ele>511.0</ele><time>2026-04-22T12:05:33.318Z</time></trkpt><trkpt lat="45.50773" lon="11.08937"><ele>511.00000000000006</ele><time>2026-04-22T12:05:34.319Z</time></trkpt><trkpt lat="45.507705" lon="11.0892783"><ele>511.0</ele><time>2026-04-22T12:05:35.318Z</time></trkpt><trkpt lat="45.50765" lon="11.089135"><ele>511.0</ele><time>2026-04-22T12:05:37.318Z</time></trkpt><trkpt lat="45.507625" lon="11.0890467"><ele>511.0</ele><time>2026-04-22T12:05:38.318Z</time></trkpt><trkpt lat="45.5076433" lon="11.08893"><ele>511.00000000000006</ele><time>2026-04-22T12:05:39.318Z</time></trkpt><trkpt lat="45.5076633" lon="11.0888083"><ele>511.0</ele><time>2026-04-22T12:05:40.319Z</time></trkpt><trkpt lat="45.5076583" lon="11.08871"><ele>508.33333333333337</ele><time>2026-04-22T12:05:41.318Z</time></trkpt><trkpt lat="45.5076583" lon="11.08857"><ele>505.6666666666667</ele><time>2026-04-22T12:05:43.318Z</time></trkpt><trkpt lat="45.507645" lon="11.0884633"><ele>503.0</ele><time>2026-04-22T12:05:46.318Z</time></trkpt><trkpt lat="45.5075283" lon="11.0885467"><ele>500.33333333333337</ele><time>2026-04-22T12:05:48.318Z</time></trkpt><trkpt lat="45.5074733" lon="11.0886117"><ele>497.6666666666667</ele><time>2026-04-22T12:05:49.318Z</time></trkpt><trkpt lat="45.5074367" lon="11.0886883"><ele>495.0</ele><time>2026-04-22T12:05:50.318Z</time></trkpt><trkpt lat="45.5073783" lon="11.0887883"><ele>495.0</ele><time>2026-04-22T12:05:52.318Z</time></trkpt><trkpt lat="45.5073283" lon="11.0888767"><ele>495.0</ele><time>2026-04-22T12:05:54.318Z</time></trkpt><trkpt lat="45.5074133" lon="11.0889017"><ele>495.0</ele><time>2026-04-22T12:06:10.318Z</time></trkpt><trkpt lat="45.5074783" lon="11.0889083"><ele>495.0</ele><time>2026-04-22T12:06:14.318Z</time></trkpt><trkpt lat="45.5075383" lon="11.0889717"><ele>495.0</ele><time>2026-04-22T12:06:16.318Z</time></trkpt><trkpt lat="45.5075883" lon="11.0890333"><ele>495.0</ele><time>2026-04-22T12:06:18.319Z</time></trkpt><trkpt lat="45.50763" lon="11.08913"><ele>497.6666666666667</ele><time>2026-04-22T12:06:22.318Z</time></trkpt><trkpt lat="45.5076833" lon="11.089225"><ele>500.33333333333337</ele><time>2026-04-22T12:06:25.318Z</time></trkpt><trkpt lat="45.507725" lon="11.0893017"><ele>503.0</ele><time>2026-04-22T12:06:27.318Z</time></trkpt><trkpt lat="45.5077617" lon="11.0893767"><ele>505.6666666666667</ele><time>2026-04-22T12:06:29.318Z</time></trkpt><trkpt lat="45.50778" lon="11.0894917"><ele>508.33333333333337</ele><time>2026-04-22T12:06:32.318Z</time></trkpt><trkpt lat="45.5077867" lon="11.0895983"><ele>511.0</ele><time>2026-04-22T12:06:34.318Z</time></trkpt><trkpt lat="45.5077833" lon="11.0897767"><ele>511.0</ele><time>2026-04-22T12:06:36.318Z</time></trkpt><trkpt lat="45.5077883" lon="11.0898867"><ele>511.0</ele><time>2026-04-22T12:06:37.318Z</time></trkpt><trkpt lat="45.507805" lon="11.09002"><ele>511.0</ele><time>2026-04-22T12:06:38.318Z</time></trkpt><trkpt lat="45.5078267" lon="11.0901633"><ele>511.0</ele><time>2026-04-22T12:06:39.318Z</time></trkpt><trkpt lat="45.507855" lon="11.0903033"><ele>511.0</ele><time>2026-04-22T12:06:40.319Z</time></trkpt><trkpt lat="45.507892" lon="11.0904287"><ele>516.0</ele><time>2026-04-22T12:06:41.317Z</time></trkpt><trkpt lat="45.5079433" lon="11.0905443"><ele>521.0</ele><time>2026-04-22T12:06:42.317Z</time></trkpt><trkpt lat="45.508033" lon="11.0906245"><ele>526.0</ele><time>2026-04-22T12:06:43.318Z</time></trkpt><trkpt lat="45.5081212" lon="11.0906955"><ele>531.0</ele><time>2026-04-22T12:06:44.317Z</time></trkpt><trkpt lat="45.5081946" lon="11.0907643"><ele>536.0</ele><time>2026-04-22T12:06:45.318Z</time></trkpt><trkpt lat="45.508248" lon="11.0908377"><ele>539.0</ele><time>2026-04-22T12:06:46.317Z</time></trkpt><trkpt lat="45.5082946" lon="11.0909047"><ele>542.0</ele><time>2026-04-22T12:06:47.317Z</time></trkpt><trkpt lat="45.5083431" lon="11.0910037"><ele>545.0</ele><time>2026-04-22T12:06:49.318Z</time></trkpt><trkpt lat="45.5083359" lon="11.091107"><ele>548.0</ele><time>2026-04-22T12:06:51.317Z</time></trkpt><trkpt lat="45.5083284" lon="11.0912485"><ele>551.0</ele><time>2026-04-22T12:06:53.317Z</time></trkpt><trkpt lat="45.5083025" lon="11.0913468"><ele>554.0</ele><time>2026-04-22T12:06:54.317Z</time></trkpt><trkpt lat="45.5082793" lon="11.0914341"><ele>554.0</ele><time>2026-04-22T12:06:55.317Z</time></trkpt><trkpt lat="45.5082387" lon="11.0915515"><ele>554.0</ele><time>2026-04-22T12:06:57.317Z</time></trkpt><trkpt lat="45.5082173" lon="11.0916418"><ele>565.0</ele><time>2026-04-22T12:07:00.318Z</time></trkpt><trkpt lat="45.5081396" lon="11.0916555"><ele>565.0</ele><time>2026-04-22T12:07:34.317Z</time></trkpt></trkseg></trk></gpx>